<?xml version='1.0' encoding='UTF-8'?><gpx version="1.1" creator="JPX - https://github.com/jenetics/jpx" xmlns="http://www.topografix.com/GPX/1/1"><trk><trkseg><trkpt lat="43.250376493017946" lon="12.970411064242715"><ele>408.0</ele><time>2026-04-26T07:25:02.909Z</time></trkpt><trkpt lat="43.25043411000168" lon="12.970349904585204"><ele>408.0</ele><time>2026-04-26T07:26:22.909Z</time></trkpt><trkpt lat="43.25047172927906" lon="12.970245591621852"><ele>408.0</ele><time>2026-04-26T07:26:25.909Z</time></trkpt><trkpt lat="43.250440114392525" lon="12.970162802710046"><ele>408.0</ele><time>2026-04-26T07:26:27.909Z</time></trkpt><trkpt lat="43.25036867654589" lon="12.970096205491824"><ele>408.0</ele><time>2026-04-26T07:26:29.909Z</time></trkpt><trkpt lat="43.25030423138669" lon="12.970021760494426"><ele>408.0</ele><time>2026-04-26T07:26:31.909Z</time></trkpt><trkpt lat="43.250270696941115" lon="12.969912986401"><ele>408.0</ele><time>2026-04-26T07:26:33.909Z</time></trkpt><trkpt lat="43.25029507253841" lon="12.969788454098845"><ele>408.0</ele><time>2026-04-26T07:26:35.909Z</time></trkpt><trkpt lat="43.250326025280614" lon="12.969700183960004"><ele>408.0</ele><time>2026-04-26T07:26:36.909Z</time></trkpt><trkpt lat="43.25041402104019" lon="12.969634416352477"><ele>408.0</ele><time>2026-04-26T07:26:37.909Z</time></trkpt><trkpt lat="43.25046403907403" lon="12.969504183604315"><ele>408.0</ele><time>2026-04-26T07:26:38.909Z</time></trkpt><trkpt lat="43.250516391961895" lon="12.9693678715678"><ele>408.0</ele><time>2026-04-26T07:26:39.909Z</time></trkpt><trkpt lat="43.250573984638294" lon="12.969217916602428"><ele>408.0</ele><time>2026-04-26T07:26:40.909Z</time></trkpt><trkpt lat="43.25063074572353" lon="12.969070126852444"><ele>408.0</ele><time>2026-04-26T07:26:41.909Z</time></trkpt><trkpt lat="43.25068969268747" lon="12.96891314638739"><ele>408.0</ele><time>2026-04-26T07:26:42.909Z</time></trkpt><trkpt lat="43.25073764975566" lon="12.96875925311012"><ele>409.0</ele><time>2026-04-26T07:26:43.909Z</time></trkpt><trkpt lat="43.250781378640355" lon="12.968603847944584"><ele>410.0</ele><time>2026-04-26T07:26:44.909Z</time></trkpt><trkpt lat="43.25081109230416" lon="12.968448034513871"><ele>411.0</ele><time>2026-04-26T07:26:45.909Z</time></trkpt><trkpt lat="43.2508278195525" lon="12.968294983622126"><ele>412.0</ele><time>2026-04-26T07:26:46.909Z</time></trkpt><trkpt lat="43.25083598909763" lon="12.968137256374368"><ele>412.0</ele><time>2026-04-26T07:26:47.909Z</time></trkpt><trkpt lat="43.2508335350349" lon="12.967983813836073"><ele>412.0</ele><time>2026-04-26T07:26:48.91Z</time></trkpt><trkpt lat="43.25082325850602" lon="12.967827905090507"><ele>412.0</ele><time>2026-04-26T07:26:49.91Z</time></trkpt><trkpt lat="43.25080417622163" lon="12.96766902971461"><ele>412.0</ele><time>2026-04-26T07:26:50.91Z</time></trkpt><trkpt lat="43.25077785945851" lon="12.967501617303816"><ele>411.5</ele><time>2026-04-26T07:26:51.91Z</time></trkpt><trkpt lat="43.250740970303006" lon="12.9673324591242"><ele>411.0</ele><time>2026-04-26T07:26:52.91Z</time></trkpt><trkpt lat="43.2506974709791" lon="12.967155807869245"><ele>410.5</ele><time>2026-04-26T07:26:53.91Z</time></trkpt><trkpt lat="43.250652987093254" lon="12.966986339353046"><ele>410.0</ele><time>2026-04-26T07:26:54.91Z</time></trkpt><trkpt lat="43.25060961671567" lon="12.966818375519527"><ele>409.75</ele><time>2026-04-26T07:26:55.91Z</time></trkpt><trkpt lat="43.250553283433256" lon="12.966655130444623"><ele>409.5</ele><time>2026-04-26T07:26:56.91Z</time></trkpt><trkpt lat="43.25052641629172" lon="12.966476392929595"><ele>409.25</ele><time>2026-04-26T07:26:57.91Z</time></trkpt><trkpt lat="43.25048396443498" lon="12.966304557066392"><ele>409.0</ele><time>2026-04-26T07:26:58.91Z</time></trkpt><trkpt lat="43.25043791828922" lon="12.966133655852897"><ele>409.0</ele><time>2026-04-26T07:26:59.91Z</time></trkpt><trkpt lat="43.25039290164807" lon="12.965966782445467"><ele>409.0</ele><time>2026-04-26T07:27:00.91Z</time></trkpt><trkpt lat="43.25035025907515" lon="12.96581301490718"><ele>409.0</ele><time>2026-04-26T07:27:01.91Z</time></trkpt><trkpt lat="43.25030987363075" lon="12.965668237407892"><ele>409.0</ele><time>2026-04-26T07:27:02.91Z</time></trkpt><trkpt lat="43.25027135804764" lon="12.965534157658327"><ele>409.6666666666667</ele><time>2026-04-26T07:27:03.91Z</time></trkpt><trkpt lat="43.25023519107504" lon="12.965410021078142"><ele>410.33333333333337</ele><time>2026-04-26T07:27:04.91Z</time></trkpt><trkpt lat="43.2501984340863" lon="12.965294530463888"><ele>411.0</ele><time>2026-04-26T07:27:05.91Z</time></trkpt><trkpt lat="43.25016171810047" lon="12.965184350791597"><ele>411.66666666666663</ele><time>2026-04-26T07:27:06.91Z</time></trkpt><trkpt lat="43.250126980372855" lon="12.965086498620495"><ele>412.3333333333333</ele><time>2026-04-26T07:27:07.91Z</time></trkpt><trkpt lat="43.250095924854016" lon="12.964999018837254"><ele>413.0</ele><time>2026-04-26T07:27:08.91Z</time></trkpt><trkpt lat="43.250005164107876" lon="12.964963550846674"><ele>413.0</ele><time>2026-04-26T07:27:09.91Z</time></trkpt><trkpt lat="43.24991833885578" lon="12.964948157707914"><ele>413.0</ele><time>2026-04-26T07:27:10.91Z</time></trkpt><trkpt lat="43.24981855096195" lon="12.964948188331283"><ele>413.0</ele><time>2026-04-26T07:27:11.91Z</time></trkpt><trkpt lat="43.24970307842151" lon="12.96494649676574"><ele>413.0</ele><time>2026-04-26T07:27:12.91Z</time></trkpt><trkpt lat="43.249575466083606" lon="12.96494349097541"><ele>413.0</ele><time>2026-04-26T07:27:13.91Z</time></trkpt><trkpt lat="43.249442700679005" lon="12.964955145795708"><ele>413.25</ele><time>2026-04-26T07:27:14.91Z</time></trkpt><trkpt lat="43.24931551187511" lon="12.964965399703384"><ele>413.5</ele><time>2026-04-26T07:27:15.91Z</time></trkpt><trkpt lat="43.24918989991306" lon="12.964970159860181"><ele>413.75</ele><time>2026-04-26T07:27:16.91Z</time></trkpt><trkpt lat="43.24905953492806" lon="12.964965806580487"><ele>414.0</ele><time>2026-04-26T07:27:17.91Z</time></trkpt><trkpt lat="43.248927549117425" lon="12.96495678653324"><ele>414.0</ele><time>2026-04-26T07:27:18.91Z</time></trkpt><trkpt lat="43.24879461551646" lon="12.96494628323027"><ele>414.0</ele><time>2026-04-26T07:27:19.91Z</time></trkpt><trkpt lat="43.24866233297069" lon="12.9649314951718"><ele>414.0</ele><time>2026-04-26T07:27:20.91Z</time></trkpt><trkpt lat="43.2485323157121" lon="12.964919102728556"><ele>414.0</ele><time>2026-04-26T07:27:21.91Z</time></trkpt><trkpt lat="43.2484071610583" lon="12.96490706378348"><ele>414.0</ele><time>2026-04-26T07:27:22.91Z</time></trkpt><trkpt lat="43.24828884614721" lon="12.964895820008222"><ele>414.0</ele><time>2026-04-26T07:27:23.91Z</time></trkpt><trkpt lat="43.24817307019412" lon="12.964879950883772"><ele>414.0</ele><time>2026-04-26T07:27:24.91Z</time></trkpt><trkpt lat="43.248062089648" lon="12.964868237731606"><ele>414.0</ele><time>2026-04-26T07:27:25.91Z</time></trkpt><trkpt lat="43.247955467831275" lon="12.964858858342104"><ele>413.79999999999995</ele><time>2026-04-26T07:27:26.91Z</time></trkpt><trkpt lat="43.24785591771188" lon="12.96485134155847"><ele>413.59999999999997</ele><time>2026-04-26T07:27:27.91Z</time></trkpt><trkpt lat="43.24776113107744" lon="12.964850713789339"><ele>413.4</ele><time>2026-04-26T07:27:28.91Z</time></trkpt><trkpt lat="43.24767152790347" lon="12.964847793247973"><ele>413.2</ele><time>2026-04-26T07:27:29.91Z</time></trkpt><trkpt lat="43.24758559121833" lon="12.96487474328071"><ele>413.0</ele><time>2026-04-26T07:27:30.91Z</time></trkpt><trkpt lat="43.24750220304353" lon="12.964911444489273"><ele>413.0</ele><time>2026-04-26T07:27:31.91Z</time></trkpt><trkpt lat="43.247418622679334" lon="12.96495277737306"><ele>413.0</ele><time>2026-04-26T07:27:32.91Z</time></trkpt><trkpt lat="43.24732991729738" lon="12.964991718083663"><ele>413.0</ele><time>2026-04-26T07:27:33.91Z</time></trkpt><trkpt lat="43.247238917683696" lon="12.965047949764351"><ele>413.0</ele><time>2026-04-26T07:27:34.91Z</time></trkpt><trkpt lat="43.247131540172745" lon="12.965090364038604"><ele>413.0</ele><time>2026-04-26T07:27:35.91Z</time></trkpt><trkpt lat="43.247018995057424" lon="12.965128534888125"><ele>413.0</ele><time>2026-04-26T07:27:36.91Z</time></trkpt><trkpt lat="43.24690645824647" lon="12.965167334753168"><ele>413.0</ele><time>2026-04-26T07:27:37.91Z</time></trkpt><trkpt lat="43.24679931946052" lon="12.965205664292455"><ele>413.0</ele><time>2026-04-26T07:27:38.91Z</time></trkpt><trkpt lat="43.24669638254872" lon="12.965246093977001"><ele>413.0</ele><time>2026-04-26T07:27:39.91Z</time></trkpt><trkpt lat="43.24658822114281" lon="12.965281967209723"><ele>413.0</ele><time>2026-04-26T07:27:40.91Z</time></trkpt><trkpt lat="43.24647115998876" lon="12.96529712447165"><ele>413.75</ele><time>2026-04-26T07:27:41.91Z</time></trkpt><trkpt lat="43.24635491769496" lon="12.965335132370942"><ele>414.5</ele><time>2026-04-26T07:27:42.91Z</time></trkpt><trkpt lat="43.246238333714146" lon="12.96537325199213"><ele>415.25</ele><time>2026-04-26T07:27:43.91Z</time></trkpt><trkpt lat="43.24612399775878" lon="12.965410636578719"><ele>416.0</ele><time>2026-04-26T07:27:44.91Z</time></trkpt><trkpt lat="43.246011673883054" lon="12.965442843023858"><ele>416.0</ele><time>2026-04-26T07:27:45.91Z</time></trkpt><trkpt lat="43.2458990990785" lon="12.965468155638384"><ele>416.0</ele><time>2026-04-26T07:27:46.91Z</time></trkpt><trkpt lat="43.245788000386085" lon="12.965486719128746"><ele>416.0</ele><time>2026-04-26T07:27:47.91Z</time></trkpt><trkpt lat="43.245684874682695" lon="12.96548446507021"><ele>416.0</ele><time>2026-04-26T07:27:48.91Z</time></trkpt><trkpt lat="43.24556453650445" lon="12.965525445949071"><ele>416.20000000000005</ele><time>2026-04-26T07:27:49.91Z</time></trkpt><trkpt lat="43.24546008721794" lon="12.965567819170417"><ele>416.40000000000003</ele><time>2026-04-26T07:27:50.91Z</time></trkpt><trkpt lat="43.245351572893405" lon="12.96561038234145"><ele>416.6</ele><time>2026-04-26T07:27:51.91Z</time></trkpt><trkpt lat="43.245243576162885" lon="12.965674412274945"><ele>416.8</ele><time>2026-04-26T07:27:52.91Z</time></trkpt><trkpt lat="43.24514710730527" lon="12.965737114220307"><ele>417.0</ele><time>2026-04-26T07:27:53.91Z</time></trkpt><trkpt lat="43.24505675113741" lon="12.96578551390881"><ele>417.0</ele><time>2026-04-26T07:27:54.91Z</time></trkpt><trkpt lat="43.24497019233794" lon="12.965818034136175"><ele>417.0</ele><time>2026-04-26T07:27:55.91Z</time></trkpt><trkpt lat="43.24488786413587" lon="12.96582325766458"><ele>417.0</ele><time>2026-04-26T07:27:56.91Z</time></trkpt><trkpt lat="43.244809165568064" lon="12.96580881767508"><ele>417.0</ele><time>2026-04-26T07:27:57.91Z</time></trkpt><trkpt lat="43.24472869846276" lon="12.965774884616584"><ele>417.0</ele><time>2026-04-26T07:27:58.91Z</time></trkpt><trkpt lat="43.244644265127164" lon="12.965715856100406"><ele>417.0</ele><time>2026-04-26T07:27:59.91Z</time></trkpt><trkpt lat="43.244552188240576" lon="12.965642814664843"><ele>417.20000000000005</ele><time>2026-04-26T07:28:00.91Z</time></trkpt><trkpt lat="43.244453523903005" lon="12.965564422590854"><ele>417.4</ele><time>2026-04-26T07:28:01.91Z</time></trkpt><trkpt lat="43.244354465386465" lon="12.965485832450076"><ele>417.6</ele><time>2026-04-26T07:28:02.91Z</time></trkpt><trkpt lat="43.244260102809555" lon="12.965417473247163"><ele>417.79999999999995</ele><time>2026-04-26T07:28:03.91Z</time></trkpt><trkpt lat="43.244169150129174" lon="12.965358208446808"><ele>418.0</ele><time>2026-04-26T07:28:04.91Z</time></trkpt><trkpt lat="43.244080082363425" lon="12.965301775298279"><ele>418.0</ele><time>2026-04-26T07:28:05.91Z</time></trkpt><trkpt lat="43.243986580925316" lon="12.965246523848299"><ele>418.0</ele><time>2026-04-26T07:28:06.91Z</time></trkpt><trkpt lat="43.24390226453899" lon="12.965187710740095"><ele>418.0</ele><time>2026-04-26T07:28:07.91Z</time></trkpt><trkpt lat="43.24382303365201" lon="12.965086737299906"><ele>418.0</ele><time>2026-04-26T07:28:08.91Z</time></trkpt><trkpt lat="43.24375033195906" lon="12.9649641248496"><ele>418.0</ele><time>2026-04-26T07:28:09.91Z</time></trkpt><trkpt lat="43.243668008331646" lon="12.96484873871139"><ele>419.0</ele><time>2026-04-26T07:28:10.91Z</time></trkpt><trkpt lat="43.2435824898417" lon="12.964753207827364"><ele>420.0</ele><time>2026-04-26T07:28:11.91Z</time></trkpt><trkpt lat="43.24349457315916" lon="12.964659256490291"><ele>421.0</ele><time>2026-04-26T07:28:12.91Z</time></trkpt><trkpt lat="43.24340871219952" lon="12.964576844738763"><ele>422.0</ele><time>2026-04-26T07:28:13.91Z</time></trkpt><trkpt lat="43.24332264035578" lon="12.964485915121502"><ele>423.0</ele><time>2026-04-26T07:28:14.91Z</time></trkpt><trkpt lat="43.24324846423809" lon="12.964370331463737"><ele>423.5</ele><time>2026-04-26T07:28:15.91Z</time></trkpt><trkpt lat="43.24311558159317" lon="12.964290453537402"><ele>424.0</ele><time>2026-04-26T07:28:16.91Z</time></trkpt><trkpt lat="43.24300852458997" lon="12.964212774530903"><ele>424.5</ele><time>2026-04-26T07:28:17.91Z</time></trkpt><trkpt lat="43.24289975303977" lon="12.96413591983761"><ele>425.0</ele><time>2026-04-26T07:28:18.91Z</time></trkpt><trkpt lat="43.242794634086636" lon="12.964084770994942"><ele>424.99999999999994</ele><time>2026-04-26T07:28:19.91Z</time></trkpt><trkpt lat="43.24269920383241" lon="12.964042823405167"><ele>425.0</ele><time>2026-04-26T07:28:20.91Z</time></trkpt><trkpt lat="43.24260776936013" lon="12.964019002373055"><ele>425.0</ele><time>2026-04-26T07:28:21.91Z</time></trkpt><trkpt lat="43.242530336733395" lon="12.96397421804734"><ele>425.0</ele><time>2026-04-26T07:28:22.91Z</time></trkpt><trkpt lat="43.242458404985236" lon="12.963942315060258"><ele>424.99999999999994</ele><time>2026-04-26T07:28:23.91Z</time></trkpt><trkpt lat="43.24240187030205" lon="12.963896117998576"><ele>425.0</ele><time>2026-04-26T07:28:24.91Z</time></trkpt><trkpt lat="43.24224999728876" lon="12.963841512284933"><ele>425.4</ele><time>2026-04-26T07:28:26.91Z</time></trkpt><trkpt lat="43.24224449784114" lon="12.963955168874506"><ele>425.8</ele><time>2026-04-26T07:28:28.91Z</time></trkpt><trkpt lat="43.24223021849551" lon="12.964051498376907"><ele>426.20000000000005</ele><time>2026-04-26T07:28:29.91Z</time></trkpt><trkpt lat="43.24220476981655" lon="12.964197412499239"><ele>426.6</ele><time>2026-04-26T07:28:30.91Z</time></trkpt><trkpt lat="43.24216938968625" lon="12.964338084999454"><ele>427.0</ele><time>2026-04-26T07:28:31.91Z</time></trkpt><trkpt lat="43.242125529207634" lon="12.964480745357164"><ele>427.0</ele><time>2026-04-26T07:28:32.91Z</time></trkpt><trkpt lat="43.24207734821968" lon="12.964616121516787"><ele>427.0</ele><time>2026-04-26T07:28:33.91Z</time></trkpt><trkpt lat="43.24201499377506" lon="12.964739233588908"><ele>427.0</ele><time>2026-04-26T07:28:34.91Z</time></trkpt><trkpt lat="43.24193827579584" lon="12.964863292007662"><ele>427.0</ele><time>2026-04-26T07:28:35.911Z</time></trkpt><trkpt lat="43.24185985901431" lon="12.964974195358232"><ele>429.75</ele><time>2026-04-26T07:28:36.911Z</time></trkpt><trkpt lat="43.24176527605394" lon="12.96508657200468"><ele>432.5</ele><time>2026-04-26T07:28:37.911Z</time></trkpt><trkpt lat="43.24167759698688" lon="12.965208222858282"><ele>435.25</ele><time>2026-04-26T07:28:38.911Z</time></trkpt><trkpt lat="43.24159584023673" lon="12.96532589501214"><ele>438.0</ele><time>2026-04-26T07:28:39.911Z</time></trkpt><trkpt lat="43.241525061120086" lon="12.965434521977635"><ele>438.2</ele><time>2026-04-26T07:28:40.911Z</time></trkpt><trkpt lat="43.24144748761603" lon="12.965538582848135"><ele>438.4</ele><time>2026-04-26T07:28:41.911Z</time></trkpt><trkpt lat="43.24136543932026" lon="12.965613579488503"><ele>438.59999999999997</ele><time>2026-04-26T07:28:42.911Z</time></trkpt><trkpt lat="43.241329523406264" lon="12.965715104268355"><ele>438.79999999999995</ele><time>2026-04-26T07:28:43.911Z</time></trkpt><trkpt lat="43.24127749195907" lon="12.965766002003656"><ele>439.0</ele><time>2026-04-26T07:28:44.911Z</time></trkpt><trkpt lat="43.24112422232234" lon="12.965892421999133"><ele>441.0</ele><time>2026-04-26T07:28:46.911Z</time></trkpt><trkpt lat="43.241154670404974" lon="12.966042835594386"><ele>443.0</ele><time>2026-04-26T07:28:47.911Z</time></trkpt><trkpt lat="43.241253597643656" lon="12.966074890728843"><ele>445.0</ele><time>2026-04-26T07:28:48.911Z</time></trkpt><trkpt lat="43.24131977564655" lon="12.9660748907291"><ele>447.0</ele><time>2026-04-26T07:28:49.911Z</time></trkpt><trkpt lat="43.24138654246657" lon="12.966078512588677"><ele>449.0</ele><time>2026-04-26T07:28:50.911Z</time></trkpt><trkpt lat="43.24148778435567" lon="12.966088297021129"><ele>445.66666666666663</ele><time>2026-04-26T07:28:52.911Z</time></trkpt><trkpt lat="43.2413310690575" lon="12.965711823106503"><ele>442.33333333333337</ele><time>2026-04-26T07:28:55.911Z</time></trkpt><trkpt lat="43.24124820780915" lon="12.965788691408191"><ele>439.0</ele><time>2026-04-26T07:28:56.911Z</time></trkpt><trkpt lat="43.241193854372405" lon="12.965851824589796"><ele>441.75</ele><time>2026-04-26T07:28:57.911Z</time></trkpt><trkpt lat="43.24107570612357" lon="12.966081385739779"><ele>444.5</ele><time>2026-04-26T07:28:58.911Z</time></trkpt><trkpt lat="43.2410768746128" lon="12.966305520038622"><ele>447.25</ele><time>2026-04-26T07:28:59.911Z</time></trkpt><trkpt lat="43.2410082844329" lon="12.96626648910032"><ele>450.0</ele><time>2026-04-26T07:29:00.911Z</time></trkpt><trkpt lat="43.24104820863923" lon="12.966502297010564"><ele>450.0</ele><time>2026-04-26T07:29:01.911Z</time></trkpt><trkpt lat="43.24103292481423" lon="12.966607212486508"><ele>450.0</ele><time>2026-04-26T07:29:02.911Z</time></trkpt><trkpt lat="43.24118486784087" lon="12.966794518886447"><ele>450.0</ele><time>2026-04-26T07:29:03.911Z</time></trkpt><trkpt lat="43.24115040160208" lon="12.966942664076976"><ele>450.0</ele><time>2026-04-26T07:29:04.911Z</time></trkpt><trkpt lat="43.241119525820594" lon="12.967083026334155"><ele>451.75</ele><time>2026-04-26T07:29:05.911Z</time></trkpt><trkpt lat="43.24107627049798" lon="12.967203101058049"><ele>453.5</ele><time>2026-04-26T07:29:06.911Z</time></trkpt><trkpt lat="43.24099631577628" lon="12.967282167700727"><ele>455.25</ele><time>2026-04-26T07:29:07.911Z</time></trkpt><trkpt lat="43.24090310508757" lon="12.967393573467511"><ele>457.0</ele><time>2026-04-26T07:29:08.911Z</time></trkpt><trkpt lat="43.24078395060926" lon="12.96747909616004"><ele>457.5</ele><time>2026-04-26T07:29:09.911Z</time></trkpt><trkpt lat="43.24065790729636" lon="12.9675745645026"><ele>458.0</ele><time>2026-04-26T07:29:10.911Z</time></trkpt><trkpt lat="43.24053512406171" lon="12.967650057738823"><ele>458.5</ele><time>2026-04-26T07:29:11.911Z</time></trkpt><trkpt lat="43.24043439123049" lon="12.967708055518079"><ele>459.0</ele><time>2026-04-26T07:29:12.911Z</time></trkpt><trkpt lat="43.24035023321054" lon="12.967760993886436"><ele>459.8333333333333</ele><time>2026-04-26T07:29:13.911Z</time></trkpt><trkpt lat="43.24027326959137" lon="12.967823865904885"><ele>460.66666666666663</ele><time>2026-04-26T07:29:14.911Z</time></trkpt><trkpt lat="43.24020096776101" lon="12.967896386186812"><ele>461.5</ele><time>2026-04-26T07:29:15.911Z</time></trkpt><trkpt lat="43.2401345607595" lon="12.967964948397299"><ele>462.3333333333333</ele><time>2026-04-26T07:29:16.911Z</time></trkpt><trkpt lat="43.24007387438939" lon="12.968020159708681"><ele>463.16666666666663</ele><time>2026-04-26T07:29:17.911Z</time></trkpt><trkpt lat="43.24001055268151" lon="12.968051599458121"><ele>464.0</ele><time>2026-04-26T07:29:18.911Z</time></trkpt><trkpt lat="43.2399408640986" lon="12.96805347774508"><ele>464.0</ele><time>2026-04-26T07:29:19.911Z</time></trkpt><trkpt lat="43.239861789060555" lon="12.968036594128847"><ele>464.0</ele><time>2026-04-26T07:29:20.911Z</time></trkpt><trkpt lat="43.239770118485254" lon="12.968003379345586"><ele>464.0</ele><time>2026-04-26T07:29:21.911Z</time></trkpt><trkpt lat="43.239667108058384" lon="12.967942575253959"><ele>464.0</ele><time>2026-04-26T07:29:22.911Z</time></trkpt><trkpt lat="43.23955196214536" lon="12.967871334583588"><ele>464.0</ele><time>2026-04-26T07:29:23.911Z</time></trkpt><trkpt lat="43.2394357210287" lon="12.967793338230505"><ele>463.0</ele><time>2026-04-26T07:29:24.911Z</time></trkpt><trkpt lat="43.2393278922902" lon="12.967710940804691"><ele>462.0</ele><time>2026-04-26T07:29:25.911Z</time></trkpt><trkpt lat="43.23923350830961" lon="12.96762214639354"><ele>461.0</ele><time>2026-04-26T07:29:26.911Z</time></trkpt><trkpt lat="43.239152259417565" lon="12.967522101262116"><ele>460.0</ele><time>2026-04-26T07:29:27.911Z</time></trkpt><trkpt lat="43.23907808893701" lon="12.967399671126069"><ele>461.75</ele><time>2026-04-26T07:29:28.911Z</time></trkpt><trkpt lat="43.239006488948924" lon="12.96725751797552"><ele>463.5</ele><time>2026-04-26T07:29:29.911Z</time></trkpt><trkpt lat="43.23893309977999" lon="12.967097619275915"><ele>465.25</ele><time>2026-04-26T07:29:30.911Z</time></trkpt><trkpt lat="43.238844109135506" lon="12.966929738681095"><ele>467.0</ele><time>2026-04-26T07:29:31.911Z</time></trkpt><trkpt lat="43.23874942830825" lon="12.966779571839197"><ele>468.5</ele><time>2026-04-26T07:29:32.911Z</time></trkpt><trkpt lat="43.23865971850161" lon="12.966650209442442"><ele>470.0</ele><time>2026-04-26T07:29:33.911Z</time></trkpt><trkpt lat="43.2385639103796" lon="12.966545569350368"><ele>471.5</ele><time>2026-04-26T07:29:34.911Z</time></trkpt><trkpt lat="43.23845134650627" lon="12.966464144443359"><ele>473.0</ele><time>2026-04-26T07:29:35.911Z</time></trkpt><trkpt lat="43.238321726360006" lon="12.966409632365478"><ele>473.0</ele><time>2026-04-26T07:29:36.911Z</time></trkpt><trkpt lat="43.23817511344374" lon="12.966379830257079"><ele>473.0</ele><time>2026-04-26T07:29:37.911Z</time></trkpt><trkpt lat="43.23801571297292" lon="12.966343811098847"><ele>473.0</ele><time>2026-04-26T07:29:38.911Z</time></trkpt><trkpt lat="43.237859207224396" lon="12.966330582701438"><ele>475.25</ele><time>2026-04-26T07:29:39.911Z</time></trkpt><trkpt lat="43.237730374635646" lon="12.966313339452094"><ele>477.5</ele><time>2026-04-26T07:29:40.911Z</time></trkpt><trkpt lat="43.23760694373295" lon="12.966294540194081"><ele>479.75</ele><time>2026-04-26T07:29:41.911Z</time></trkpt><trkpt lat="43.23749438295465" lon="12.96627768662928"><ele>482.0</ele><time>2026-04-26T07:29:42.911Z</time></trkpt><trkpt lat="43.2373975332941" lon="12.9662601253709"><ele>481.99999999999994</ele><time>2026-04-26T07:29:43.911Z</time></trkpt><trkpt lat="43.23732003832952" lon="12.966233629642142"><ele>482.0</ele><time>2026-04-26T07:29:44.911Z</time></trkpt><trkpt lat="43.23726801788308" lon="12.9661812808916"><ele>482.0</ele><time>2026-04-26T07:29:45.911Z</time></trkpt><trkpt lat="43.23722759230171" lon="12.966113408363096"><ele>482.0</ele><time>2026-04-26T07:29:46.911Z</time></trkpt><trkpt lat="43.237174823792245" lon="12.966026562654315"><ele>481.99999999999994</ele><time>2026-04-26T07:29:47.911Z</time></trkpt><trkpt lat="43.23712224516789" lon="12.96594267907516"><ele>482.0</ele><time>2026-04-26T07:29:48.911Z</time></trkpt><trkpt lat="43.23706364274597" lon="12.965843165435482"><ele>482.8</ele><time>2026-04-26T07:29:49.911Z</time></trkpt><trkpt lat="43.237000266430165" lon="12.965734618083525"><ele>483.6</ele><time>2026-04-26T07:29:50.911Z</time></trkpt><trkpt lat="43.236929398563774" lon="12.965618815920484"><ele>484.40000000000003</ele><time>2026-04-26T07:29:51.911Z</time></trkpt><trkpt lat="43.23686677983127" lon="12.965491038644068"><ele>485.20000000000005</ele><time>2026-04-26T07:29:52.911Z</time></trkpt><trkpt lat="43.23680494835462" lon="12.965350374432546"><ele>486.0</ele><time>2026-04-26T07:29:53.911Z</time></trkpt><trkpt lat="43.2367461917961" lon="12.965197716783491"><ele>486.0</ele><time>2026-04-26T07:29:54.911Z</time></trkpt><trkpt lat="43.23668265241941" lon="12.96505238894004"><ele>486.0</ele><time>2026-04-26T07:29:55.911Z</time></trkpt><trkpt lat="43.236626591344304" lon="12.964910316422905"><ele>486.0</ele><time>2026-04-26T07:29:56.911Z</time></trkpt><trkpt lat="43.23657025428631" lon="12.96477483969892"><ele>486.0</ele><time>2026-04-26T07:29:57.911Z</time></trkpt><trkpt lat="43.23651785301042" lon="12.964644297232207"><ele>489.25</ele><time>2026-04-26T07:29:58.911Z</time></trkpt><trkpt lat="43.23646413538753" lon="12.964514946678142"><ele>492.5</ele><time>2026-04-26T07:29:59.911Z</time></trkpt><trkpt lat="43.236401256526676" lon="12.964386173328018"><ele>495.75</ele><time>2026-04-26T07:30:00.911Z</time></trkpt><trkpt lat="43.23634389316419" lon="12.964247312360543"><ele>499.0</ele><time>2026-04-26T07:30:01.911Z</time></trkpt><trkpt lat="43.23628169698549" lon="12.964107599546878"><ele>501.79999999999995</ele><time>2026-04-26T07:30:02.911Z</time></trkpt><trkpt lat="43.2362265203558" lon="12.96398804274999"><ele>504.59999999999997</ele><time>2026-04-26T07:30:03.911Z</time></trkpt><trkpt lat="43.23617831816671" lon="12.96389544860697"><ele>507.4</ele><time>2026-04-26T07:30:04.911Z</time></trkpt><trkpt lat="43.23610044475302" lon="12.963786164713614"><ele>510.2</ele><time>2026-04-26T07:30:06.911Z</time></trkpt><trkpt lat="43.236041572651544" lon="12.963675887107577"><ele>513.0</ele><time>2026-04-26T07:30:07.911Z</time></trkpt><trkpt lat="43.23594784429618" lon="12.96368446683942"><ele>513.0</ele><time>2026-04-26T07:30:09.911Z</time></trkpt><trkpt lat="43.23587435853998" lon="12.96370762491976"><ele>513.0</ele><time>2026-04-26T07:30:11.911Z</time></trkpt><trkpt lat="43.23578636323405" lon="12.963717351587277"><ele>513.0</ele><time>2026-04-26T07:30:13.911Z</time></trkpt><trkpt lat="43.23569409108551" lon="12.963672862617106"><ele>513.0</ele><time>2026-04-26T07:30:15.911Z</time></trkpt><trkpt lat="43.235624141519345" lon="12.96365928705339"><ele>513.0</ele><time>2026-04-26T07:30:16.911Z</time></trkpt><trkpt lat="43.2355395705086" lon="12.963630340523732"><ele>513.0</ele><time>2026-04-26T07:30:18.911Z</time></trkpt><trkpt lat="43.235475542542986" lon="12.963591829114081"><ele>514.4</ele><time>2026-04-26T07:30:20.911Z</time></trkpt><trkpt lat="43.23539934491715" lon="12.963545998386088"><ele>515.8</ele><time>2026-04-26T07:30:26.912Z</time></trkpt><trkpt lat="43.23551927577965" lon="12.963329774046581"><ele>517.2</ele><time>2026-04-26T07:30:27.912Z</time></trkpt><trkpt lat="43.235509611071826" lon="12.96322604064952"><ele>518.6</ele><time>2026-04-26T07:30:28.912Z</time></trkpt><trkpt lat="43.2354979222292" lon="12.96311391962164"><ele>520.0</ele><time>2026-04-26T07:30:29.912Z</time></trkpt><trkpt lat="43.23548374329899" lon="12.963001726073582"><ele>520.5</ele><time>2026-04-26T07:30:30.912Z</time></trkpt><trkpt lat="43.235469305007456" lon="12.962899104132275"><ele>521.0</ele><time>2026-04-26T07:30:31.912Z</time></trkpt><trkpt lat="43.23545346247995" lon="12.962790376970313"><ele>521.5</ele><time>2026-04-26T07:30:32.912Z</time></trkpt><trkpt lat="43.23542186940344" lon="12.962682235258724"><ele>522.0</ele><time>2026-04-26T07:30:33.912Z</time></trkpt><trkpt lat="43.23540574783452" lon="12.962560873114732"><ele>522.5</ele><time>2026-04-26T07:30:34.912Z</time></trkpt><trkpt lat="43.23539962116386" lon="12.962433315404226"><ele>523.0</ele><time>2026-04-26T07:30:35.912Z</time></trkpt><trkpt lat="43.235380872571824" lon="12.96230736351767"><ele>523.0</ele><time>2026-04-26T07:30:36.912Z</time></trkpt><trkpt lat="43.23535251331963" lon="12.962185404295989"><ele>523.0</ele><time>2026-04-26T07:30:37.912Z</time></trkpt><trkpt lat="43.235336763629725" lon="12.962062343338996"><ele>523.0</ele><time>2026-04-26T07:30:38.912Z</time></trkpt><trkpt lat="43.235320758473016" lon="12.961940611017267"><ele>523.0</ele><time>2026-04-26T07:30:39.912Z</time></trkpt><trkpt lat="43.23531016827226" lon="12.96181859925993"><ele>523.0</ele><time>2026-04-26T07:30:40.912Z</time></trkpt><trkpt lat="43.235298269857424" lon="12.961708036129556"><ele>523.0</ele><time>2026-04-26T07:30:41.912Z</time></trkpt><trkpt lat="43.23528763313679" lon="12.961599916818498"><ele>522.4</ele><time>2026-04-26T07:30:42.912Z</time></trkpt><trkpt lat="43.23529272115745" lon="12.961502376813508"><ele>521.8</ele><time>2026-04-26T07:30:43.912Z</time></trkpt><trkpt lat="43.23529553642219" lon="12.961338150717646"><ele>521.2</ele><time>2026-04-26T07:30:45.912Z</time></trkpt><trkpt lat="43.2353267656841" lon="12.961177816520618"><ele>520.6</ele><time>2026-04-26T07:30:47.912Z</time></trkpt><trkpt lat="43.23535837677714" lon="12.961034727154553"><ele>520.0</ele><time>2026-04-26T07:30:49.912Z</time></trkpt><trkpt lat="43.235390103069854" lon="12.960849965800982"><ele>518.8333333333334</ele><time>2026-04-26T07:30:51.912Z</time></trkpt><trkpt lat="43.23539009190942" lon="12.960702412795252"><ele>517.6666666666667</ele><time>2026-04-26T07:30:52.912Z</time></trkpt><trkpt lat="43.23535639847846" lon="12.960604155099691"><ele>516.5</ele><time>2026-04-26T07:30:53.912Z</time></trkpt><trkpt lat="43.23531255667151" lon="12.960513757888485"><ele>515.3333333333334</ele><time>2026-04-26T07:30:54.912Z</time></trkpt><trkpt lat="43.2352586829919" lon="12.96041593974873"><ele>514.1666666666666</ele><time>2026-04-26T07:30:55.912Z</time></trkpt><trkpt lat="43.2352006163356" lon="12.960319604682796"><ele>513.0</ele><time>2026-04-26T07:30:56.912Z</time></trkpt><trkpt lat="43.23513790685973" lon="12.960227234264398"><ele>513.0000000000001</ele><time>2026-04-26T07:30:57.912Z</time></trkpt><trkpt lat="43.235081145969396" lon="12.960156122303857"><ele>513.0</ele><time>2026-04-26T07:30:58.912Z</time></trkpt><trkpt lat="43.235027468405065" lon="12.960088873175906"><ele>513.0</ele><time>2026-04-26T07:30:59.912Z</time></trkpt><trkpt lat="43.23498092366428" lon="12.960030243283738"><ele>513.0</ele><time>2026-04-26T07:31:00.912Z</time></trkpt><trkpt lat="43.23491942157972" lon="12.959984987867534"><ele>513.0</ele><time>2026-04-26T07:31:01.912Z</time></trkpt><trkpt lat="43.23489500030126" lon="12.959885941178682"><ele>513.0000000000001</ele><time>2026-04-26T07:31:02.912Z</time></trkpt><trkpt lat="43.2348976063895" lon="12.959778218299514"><ele>513.0</ele><time>2026-04-26T07:31:03.912Z</time></trkpt><trkpt lat="43.23490714039968" lon="12.95967263098597"><ele>510.2</ele><time>2026-04-26T07:31:04.912Z</time></trkpt><trkpt lat="43.23490980708593" lon="12.959546049437233"><ele>507.4</ele><time>2026-04-26T07:31:05.912Z</time></trkpt><trkpt lat="43.23494696930004" lon="12.959401895216297"><ele>504.59999999999997</ele><time>2026-04-26T07:31:06.912Z</time></trkpt><trkpt lat="43.23497135491979" lon="12.959260720991034"><ele>501.79999999999995</ele><time>2026-04-26T07:31:07.912Z</time></trkpt><trkpt lat="43.23498981589463" lon="12.959115000003486"><ele>499.0</ele><time>2026-04-26T07:31:08.912Z</time></trkpt><trkpt lat="43.2350074398534" lon="12.95898960970734"><ele>495.6</ele><time>2026-04-26T07:31:09.912Z</time></trkpt><trkpt lat="43.23498746873433" lon="12.958864098390562"><ele>492.2</ele><time>2026-04-26T07:31:10.912Z</time></trkpt><trkpt lat="43.23496001487101" lon="12.958740139670214"><ele>488.80000000000007</ele><time>2026-04-26T07:31:11.912Z</time></trkpt><trkpt lat="43.23492827879808" lon="12.958625480184475"><ele>485.40000000000003</ele><time>2026-04-26T07:31:12.912Z</time></trkpt><trkpt lat="43.23491999244582" lon="12.958506359495813"><ele>482.0</ele><time>2026-04-26T07:31:13.912Z</time></trkpt><trkpt lat="43.234895763024475" lon="12.958393072073246"><ele>480.40000000000003</ele><time>2026-04-26T07:31:14.912Z</time></trkpt><trkpt lat="43.23487397792288" lon="12.958272195248476"><ele>478.80000000000007</ele><time>2026-04-26T07:31:15.912Z</time></trkpt><trkpt lat="43.23486146740094" lon="12.958151798426982"><ele>477.2</ele><time>2026-04-26T07:31:16.912Z</time></trkpt><trkpt lat="43.2348620257467" lon="12.958032223760638"><ele>475.6</ele><time>2026-04-26T07:31:17.912Z</time></trkpt><trkpt lat="43.23486491545368" lon="12.957891824537086"><ele>474.0</ele><time>2026-04-26T07:31:18.912Z</time></trkpt><trkpt lat="43.23486458525011" lon="12.957739496829467"><ele>474.0</ele><time>2026-04-26T07:31:19.912Z</time></trkpt><trkpt lat="43.23484807043289" lon="12.957599813008233"><ele>474.0</ele><time>2026-04-26T07:31:20.912Z</time></trkpt><trkpt lat="43.23484648192736" lon="12.957458580550764"><ele>474.0</ele><time>2026-04-26T07:31:21.912Z</time></trkpt><trkpt lat="43.23484422255622" lon="12.957316806145947"><ele>474.0</ele><time>2026-04-26T07:31:22.912Z</time></trkpt><trkpt lat="43.23484562522913" lon="12.957193674586222"><ele>474.0</ele><time>2026-04-26T07:31:23.912Z</time></trkpt><trkpt lat="43.23483961744832" lon="12.957088538333416"><ele>471.75</ele><time>2026-04-26T07:31:24.912Z</time></trkpt><trkpt lat="43.2348379937445" lon="12.956999802692547"><ele>469.5</ele><time>2026-04-26T07:31:25.912Z</time></trkpt><trkpt lat="43.234841181509815" lon="12.95684604389113"><ele>467.25</ele><time>2026-04-26T07:31:27.912Z</time></trkpt><trkpt lat="43.23475974533727" lon="12.9566297792915"><ele>465.0</ele><time>2026-04-26T07:31:28.912Z</time></trkpt><trkpt lat="43.2348524833319" lon="12.956561240208748"><ele>463.8333333333333</ele><time>2026-04-26T07:31:30.912Z</time></trkpt><trkpt lat="43.23490965944745" lon="12.956519843971437"><ele>462.66666666666663</ele><time>2026-04-26T07:31:31.912Z</time></trkpt><trkpt lat="43.23497196986291" lon="12.95648615743254"><ele>461.5</ele><time>2026-04-26T07:31:32.912Z</time></trkpt><trkpt lat="43.235046352557355" lon="12.95645989153043"><ele>460.3333333333333</ele><time>2026-04-26T07:31:33.912Z</time></trkpt><trkpt lat="43.23512976885469" lon="12.956449233993839"><ele>459.16666666666663</ele><time>2026-04-26T07:31:34.912Z</time></trkpt><trkpt lat="43.23520895036412" lon="12.956439920701953"><ele>458.0</ele><time>2026-04-26T07:31:35.912Z</time></trkpt><trkpt lat="43.235295658991376" lon="12.956445193958848"><ele>458.0</ele><time>2026-04-26T07:31:36.912Z</time></trkpt><trkpt lat="43.235395787801686" lon="12.95645183100909"><ele>457.99999999999994</ele><time>2026-04-26T07:31:37.912Z</time></trkpt><trkpt lat="43.23549422287618" lon="12.956504225755433"><ele>457.99999999999994</ele><time>2026-04-26T07:31:38.912Z</time></trkpt><trkpt lat="43.2355792644795" lon="12.95657340462631"><ele>458.0</ele><time>2026-04-26T07:31:39.913Z</time></trkpt><trkpt lat="43.23564893088714" lon="12.956632597601647"><ele>458.0</ele><time>2026-04-26T07:31:41Z</time></trkpt><trkpt lat="43.23571338826396" lon="12.956668561604596"><ele>458.16666666666663</ele><time>2026-04-26T07:31:42Z</time></trkpt><trkpt lat="43.23578315938604" lon="12.95668231834353"><ele>458.3333333333333</ele><time>2026-04-26T07:31:43Z</time></trkpt><trkpt lat="43.23585502477413" lon="12.95669515581589"><ele>458.5</ele><time>2026-04-26T07:31:44Z</time></trkpt><trkpt lat="43.235925225068854" lon="12.956715787120476"><ele>458.66666666666663</ele><time>2026-04-26T07:31:45Z</time></trkpt><trkpt lat="43.23599416755325" lon="12.95678181408388"><ele>458.8333333333333</ele><time>2026-04-26T07:31:46Z</time></trkpt><trkpt lat="43.236089883171374" lon="12.956837644508564"><ele>459.0</ele><time>2026-04-26T07:31:47Z</time></trkpt><trkpt lat="43.2361918375643" lon="12.956890329384098"><ele>459.25</ele><time>2026-04-26T07:31:48Z</time></trkpt><trkpt lat="43.236300140011856" lon="12.956946294612237"><ele>459.5</ele><time>2026-04-26T07:31:49Z</time></trkpt><trkpt lat="43.23641345403311" lon="12.957004645314797"><ele>459.75</ele><time>2026-04-26T07:31:50Z</time></trkpt><trkpt lat="43.23652812129739" lon="12.957063362609201"><ele>460.0</ele><time>2026-04-26T07:31:51Z</time></trkpt><trkpt lat="43.236644348318265" lon="12.95712850019929"><ele>460.0</ele><time>2026-04-26T07:31:52Z</time></trkpt><trkpt lat="43.23676818642489" lon="12.95719586172473"><ele>460.0</ele><time>2026-04-26T07:31:53Z</time></trkpt><trkpt lat="43.236891022448255" lon="12.957255811389322"><ele>460.0</ele><time>2026-04-26T07:31:54Z</time></trkpt><trkpt lat="43.23700904256772" lon="12.957315065094416"><ele>460.0</ele><time>2026-04-26T07:31:55Z</time></trkpt><trkpt lat="43.23711614599936" lon="12.957379048843478"><ele>460.0</ele><time>2026-04-26T07:31:56Z</time></trkpt><trkpt lat="43.23722363878855" lon="12.957452280088242"><ele>460.0</ele><time>2026-04-26T07:31:57Z</time></trkpt><trkpt lat="43.23733514581959" lon="12.9575339318988"><ele>460.0</ele><time>2026-04-26T07:31:58Z</time></trkpt><trkpt lat="43.237445338975434" lon="12.957620053787876"><ele>460.0</ele><time>2026-04-26T07:31:59Z</time></trkpt><trkpt lat="43.237562671239544" lon="12.95769194216644"><ele>459.4</ele><time>2026-04-26T07:32:00Z</time></trkpt><trkpt lat="43.23766668430398" lon="12.957785121320487"><ele>458.8</ele><time>2026-04-26T07:32:01Z</time></trkpt><trkpt lat="43.23775864466693" lon="12.957872231690839"><ele>458.20000000000005</ele><time>2026-04-26T07:32:02Z</time></trkpt><trkpt lat="43.23784308739932" lon="12.957955263421898"><ele>457.6</ele><time>2026-04-26T07:32:03Z</time></trkpt><trkpt lat="43.23792538316806" lon="12.958045181078123"><ele>457.0</ele><time>2026-04-26T07:32:04Z</time></trkpt><trkpt lat="43.23800861786255" lon="12.9581317093218"><ele>457.0</ele><time>2026-04-26T07:32:05Z</time></trkpt><trkpt lat="43.238094022406145" lon="12.958199071119514"><ele>457.00000000000006</ele><time>2026-04-26T07:32:06Z</time></trkpt><trkpt lat="43.238193487210545" lon="12.958254121781563"><ele>457.00000000000006</ele><time>2026-04-26T07:32:07.001Z</time></trkpt><trkpt lat="43.23830016617759" lon="12.958324527650355"><ele>457.0</ele><time>2026-04-26T07:32:08.001Z</time></trkpt><trkpt lat="43.238414026502994" lon="12.95837904836622"><ele>457.0</ele><time>2026-04-26T07:32:09.001Z</time></trkpt><trkpt lat="43.23852739399971" lon="12.958439251764878"><ele>455.25</ele><time>2026-04-26T07:32:10.001Z</time></trkpt><trkpt lat="43.23863774844699" lon="12.958510996786154"><ele>453.5</ele><time>2026-04-26T07:32:11.001Z</time></trkpt><trkpt lat="43.23874611703205" lon="12.95859066644378"><ele>451.75</ele><time>2026-04-26T07:32:12.001Z</time></trkpt><trkpt lat="43.23884668316067" lon="12.958673541112153"><ele>450.0</ele><time>2026-04-26T07:32:13.001Z</time></trkpt><trkpt lat="43.23893979040626" lon="12.958752500220882"><ele>451.5</ele><time>2026-04-26T07:32:14.001Z</time></trkpt><trkpt lat="43.239024652516456" lon="12.958824877496733"><ele>453.0</ele><time>2026-04-26T07:32:15.001Z</time></trkpt><trkpt lat="43.239106978236826" lon="12.958895091451359"><ele>454.5</ele><time>2026-04-26T07:32:16.001Z</time></trkpt><trkpt lat="43.239192695891546" lon="12.958947655282737"><ele>456.0</ele><time>2026-04-26T07:32:17.001Z</time></trkpt><trkpt lat="43.23926540175206" lon="12.959008483614324"><ele>457.5</ele><time>2026-04-26T07:32:18.001Z</time></trkpt><trkpt lat="43.23931867539937" lon="12.959071955823548"><ele>459.0</ele><time>2026-04-26T07:32:19.001Z</time></trkpt><trkpt lat="43.239399570997676" lon="12.959136751678905"><ele>459.0</ele><time>2026-04-26T07:32:21.001Z</time></trkpt><trkpt lat="43.23946776378598" lon="12.959175074712615"><ele>459.0</ele><time>2026-04-26T07:32:24.001Z</time></trkpt><trkpt lat="43.2394038458727" lon="12.959130621937131"><ele>459.0</ele><time>2026-04-26T07:32:40.001Z</time></trkpt><trkpt lat="43.23934705371629" lon="12.959078376074372"><ele>459.0</ele><time>2026-04-26T07:32:43.002Z</time></trkpt><trkpt lat="43.239306202702245" lon="12.958973560906404"><ele>459.0</ele><time>2026-04-26T07:32:46.002Z</time></trkpt><trkpt lat="43.23923373421843" lon="12.958893402433604"><ele>459.0</ele><time>2026-04-26T07:32:48.002Z</time></trkpt><trkpt lat="43.239177147225156" lon="12.958793223543204"><ele>459.0</ele><time>2026-04-26T07:32:50.002Z</time></trkpt><trkpt lat="43.23918184250196" lon="12.95867237575805"><ele>459.0</ele><time>2026-04-26T07:32:53.002Z</time></trkpt><trkpt lat="43.23913276644778" lon="12.958587876562262"><ele>459.0</ele><time>2026-04-26T07:32:55.002Z</time></trkpt><trkpt lat="43.239099204065376" lon="12.958490999829408"><ele>459.0</ele><time>2026-04-26T07:32:58.002Z</time></trkpt><trkpt lat="43.23907664178156" lon="12.958368595715205"><ele>459.0</ele><time>2026-04-26T07:33:01.002Z</time></trkpt><trkpt lat="43.2390850729118" lon="12.95827362440269"><ele>459.0</ele><time>2026-04-26T07:33:03.002Z</time></trkpt><trkpt lat="43.239102147540834" lon="12.958190374395464"><ele>461.5</ele><time>2026-04-26T07:33:06.002Z</time></trkpt><trkpt lat="43.23908518076149" lon="12.958099660197137"><ele>464.0</ele><time>2026-04-26T07:33:10.002Z</time></trkpt><trkpt lat="43.239116226372644" lon="12.95800507055297"><ele>466.5</ele><time>2026-04-26T07:33:15.003Z</time></trkpt><trkpt lat="43.23914954857568" lon="12.957928764243995"><ele>469.0</ele><time>2026-04-26T07:33:18.003Z</time></trkpt><trkpt lat="43.23918956555225" lon="12.957846730070004"><ele>471.5</ele><time>2026-04-26T07:33:21.003Z</time></trkpt><trkpt lat="43.239210954626536" lon="12.957728036773252"><ele>474.0</ele><time>2026-04-26T07:33:24.003Z</time></trkpt><trkpt lat="43.23922426898757" lon="12.957606372983195"><ele>477.8333333333333</ele><time>2026-04-26T07:33:27.003Z</time></trkpt><trkpt lat="43.23922697130287" lon="12.957485771544425"><ele>481.66666666666663</ele><time>2026-04-26T07:33:30.003Z</time></trkpt><trkpt lat="43.23924652150179" lon="12.957367519909516"><ele>485.5</ele><time>2026-04-26T07:33:33.003Z</time></trkpt><trkpt lat="43.23926869439086" lon="12.957266926575189"><ele>489.3333333333333</ele><time>2026-04-26T07:33:35.003Z</time></trkpt><trkpt lat="43.239294893767116" lon="12.957180364451272"><ele>493.16666666666663</ele><time>2026-04-26T07:33:37.003Z</time></trkpt><trkpt lat="43.23932734344418" lon="12.95706896165656"><ele>497.0</ele><time>2026-04-26T07:33:39.003Z</time></trkpt><trkpt lat="43.23938573884436" lon="12.956950438151583"><ele>496.99999999999994</ele><time>2026-04-26T07:33:41.003Z</time></trkpt><trkpt lat="43.23942823653965" lon="12.956835730072953"><ele>497.0</ele><time>2026-04-26T07:33:43.003Z</time></trkpt><trkpt lat="43.239460094457954" lon="12.956715504433747"><ele>497.0</ele><time>2026-04-26T07:33:45.003Z</time></trkpt><trkpt lat="43.239467149369844" lon="12.956596471837711"><ele>497.0</ele><time>2026-04-26T07:33:47.003Z</time></trkpt><trkpt lat="43.23948283323285" lon="12.956497464499039"><ele>496.99999999999994</ele><time>2026-04-26T07:33:49.004Z</time></trkpt><trkpt lat="43.23947686214108" lon="12.95637854448144"><ele>497.0</ele><time>2026-04-26T07:33:52.004Z</time></trkpt><trkpt lat="43.23949063287869" lon="12.956282236383394"><ele>499.0</ele><time>2026-04-26T07:33:56.004Z</time></trkpt><trkpt lat="43.239520688505905" lon="12.95619151332351"><ele>501.0</ele><time>2026-04-26T07:34:01.004Z</time></trkpt><trkpt lat="43.23955717646517" lon="12.956116140867897"><ele>503.0</ele><time>2026-04-26T07:34:05.004Z</time></trkpt><trkpt lat="43.239563961084066" lon="12.956023251290777"><ele>505.0</ele><time>2026-04-26T07:34:09.004Z</time></trkpt><trkpt lat="43.2395577170332" lon="12.955911430016128"><ele>507.0</ele><time>2026-04-26T07:34:13.004Z</time></trkpt><trkpt lat="43.23958921897375" lon="12.955807398172025"><ele>509.0</ele><time>2026-04-26T07:34:16.004Z</time></trkpt><trkpt lat="43.23963576696206" lon="12.95573570386042"><ele>511.0</ele><time>2026-04-26T07:34:18.004Z</time></trkpt><trkpt lat="43.23966988243165" lon="12.955642293233476"><ele>513.8</ele><time>2026-04-26T07:34:21.004Z</time></trkpt><trkpt lat="43.23968180970026" lon="12.955513807992608"><ele>516.6</ele><time>2026-04-26T07:34:24.005Z</time></trkpt><trkpt lat="43.23969866966994" lon="12.955416471155724"><ele>519.4</ele><time>2026-04-26T07:34:26.005Z</time></trkpt><trkpt lat="43.23969706165744" lon="12.955293643555281"><ele>522.2</ele><time>2026-04-26T07:34:28.005Z</time></trkpt><trkpt lat="43.23968911101113" lon="12.955142827266751"><ele>525.0</ele><time>2026-04-26T07:34:30.005Z</time></trkpt><trkpt lat="43.23969528629689" lon="12.955020990935637"><ele>527.6</ele><time>2026-04-26T07:34:32.005Z</time></trkpt><trkpt lat="43.239688142102594" lon="12.95491635079503"><ele>530.2</ele><time>2026-04-26T07:34:34.005Z</time></trkpt><trkpt lat="43.239664455684235" lon="12.954793672709192"><ele>532.8</ele><time>2026-04-26T07:34:36.005Z</time></trkpt><trkpt lat="43.23963751037567" lon="12.954715103813927"><ele>535.4</ele><time>2026-04-26T07:34:37.005Z</time></trkpt><trkpt lat="43.239601362512985" lon="12.954571003269965"><ele>538.0</ele><time>2026-04-26T07:34:39.005Z</time></trkpt><trkpt lat="43.239572465801594" lon="12.954424735682226"><ele>538.0</ele><time>2026-04-26T07:34:41.005Z</time></trkpt><trkpt lat="43.23956363894791" lon="12.954330252946015"><ele>538.0</ele><time>2026-04-26T07:34:42.005Z</time></trkpt><trkpt lat="43.239538896191156" lon="12.954184913924854"><ele>538.0</ele><time>2026-04-26T07:34:44.005Z</time></trkpt><trkpt lat="43.23953516873842" lon="12.954012407506633"><ele>538.0</ele><time>2026-04-26T07:34:46.005Z</time></trkpt><trkpt lat="43.239532400277064" lon="12.953861765877042"><ele>538.0</ele><time>2026-04-26T07:34:48.005Z</time></trkpt><trkpt lat="43.239506367284456" lon="12.953712127525204"><ele>538.1999999999999</ele><time>2026-04-26T07:34:50.005Z</time></trkpt><trkpt lat="43.239506376956896" lon="12.953559253376444"><ele>538.4</ele><time>2026-04-26T07:34:52.005Z</time></trkpt><trkpt lat="43.2395158025712" lon="12.953397314216865"><ele>538.5999999999999</ele><time>2026-04-26T07:34:54.005Z</time></trkpt><trkpt lat="43.2395000584486" lon="12.953290446149417"><ele>538.8</ele><time>2026-04-26T07:34:55.005Z</time></trkpt><trkpt lat="43.23948036771139" lon="12.953186719180978"><ele>539.0</ele><time>2026-04-26T07:34:56.005Z</time></trkpt><trkpt lat="43.23945936871559" lon="12.953072379347635"><ele>539.0</ele><time>2026-04-26T07:34:57.006Z</time></trkpt><trkpt lat="43.239442192234115" lon="12.952952085257383"><ele>539.0</ele><time>2026-04-26T07:34:58.006Z</time></trkpt><trkpt lat="43.23943434134145" lon="12.95285067553799"><ele>539.0</ele><time>2026-04-26T07:34:59.006Z</time></trkpt><trkpt lat="43.23943196128673" lon="12.952755889896055"><ele>539.0</ele><time>2026-04-26T07:35:00.006Z</time></trkpt><trkpt lat="43.239422753826446" lon="12.952627165889021"><ele>539.0</ele><time>2026-04-26T07:35:02.006Z</time></trkpt><trkpt lat="43.23940744583337" lon="12.952493912004899"><ele>539.0</ele><time>2026-04-26T07:35:04.006Z</time></trkpt><trkpt lat="43.239409527155836" lon="12.95237114373132"><ele>540.6</ele><time>2026-04-26T07:35:06.006Z</time></trkpt><trkpt lat="43.23942500568787" lon="12.952259149172452"><ele>542.2</ele><time>2026-04-26T07:35:08.006Z</time></trkpt><trkpt lat="43.23946215741913" lon="12.952134802014875"><ele>543.8000000000001</ele><time>2026-04-26T07:35:10.006Z</time></trkpt><trkpt lat="43.23949427897458" lon="12.951982939545836"><ele>545.4</ele><time>2026-04-26T07:35:12.006Z</time></trkpt><trkpt lat="43.23949297421989" lon="12.951825668251834"><ele>547.0</ele><time>2026-04-26T07:35:14.006Z</time></trkpt><trkpt lat="43.23949062295086" lon="12.951729263998443"><ele>549.8000000000001</ele><time>2026-04-26T07:35:15.006Z</time></trkpt><trkpt lat="43.23949762057733" lon="12.951622723534255"><ele>552.6</ele><time>2026-04-26T07:35:16.006Z</time></trkpt><trkpt lat="43.2394997944012" lon="12.951497547956672"><ele>555.4000000000001</ele><time>2026-04-26T07:35:17.006Z</time></trkpt><trkpt lat="43.2395043863035" lon="12.951403070354552"><ele>558.2</ele><time>2026-04-26T07:35:18.006Z</time></trkpt><trkpt lat="43.23951747850211" lon="12.951240815085052"><ele>561.0</ele><time>2026-04-26T07:35:20.006Z</time></trkpt><trkpt lat="43.23953584903424" lon="12.951095226311258"><ele>561.0</ele><time>2026-04-26T07:35:22.006Z</time></trkpt><trkpt lat="43.239544371790466" lon="12.95099173231795"><ele>561.0</ele><time>2026-04-26T07:35:23.006Z</time></trkpt><trkpt lat="43.23955721292506" lon="12.95090572222518"><ele>561.0</ele><time>2026-04-26T07:35:24.006Z</time></trkpt><trkpt lat="43.23957670349654" lon="12.95082264591282"><ele>561.0</ele><time>2026-04-26T07:35:25.006Z</time></trkpt><trkpt lat="43.23961450913317" lon="12.950653044904676"><ele>561.0</ele><time>2026-04-26T07:35:27.006Z</time></trkpt><trkpt lat="43.23962628770316" lon="12.950559224249588"><ele>561.0</ele><time>2026-04-26T07:35:28.006Z</time></trkpt><trkpt lat="43.23967049895998" lon="12.950415548854933"><ele>564.0</ele><time>2026-04-26T07:35:30.006Z</time></trkpt><trkpt lat="43.239709407144375" lon="12.950286987966477"><ele>567.0</ele><time>2026-04-26T07:35:32.007Z</time></trkpt><trkpt lat="43.239701771551005" lon="12.950171170931666"><ele>570.0</ele><time>2026-04-26T07:35:34.007Z</time></trkpt><trkpt lat="43.2396658562731" lon="12.950049043857959"><ele>573.0</ele><time>2026-04-26T07:35:38.007Z</time></trkpt><trkpt lat="43.239644784774576" lon="12.949918933472835"><ele>576.0</ele><time>2026-04-26T07:35:41.007Z</time></trkpt><trkpt lat="43.23963017073487" lon="12.949800696940157"><ele>578.8333333333334</ele><time>2026-04-26T07:35:43.007Z</time></trkpt><trkpt lat="43.23959458201889" lon="12.949694055878172"><ele>581.6666666666666</ele><time>2026-04-26T07:35:45.007Z</time></trkpt><trkpt lat="43.23956252382199" lon="12.94959704939383"><ele>584.5</ele><time>2026-04-26T07:35:47.007Z</time></trkpt><trkpt lat="43.239533736692245" lon="12.949477761207108"><ele>587.3333333333333</ele><time>2026-04-26T07:35:50.007Z</time></trkpt><trkpt lat="43.239493404411355" lon="12.949400068276594"><ele>590.1666666666666</ele><time>2026-04-26T07:35:52.007Z</time></trkpt><trkpt lat="43.23946559916216" lon="12.94928950274911"><ele>593.0</ele><time>2026-04-26T07:35:54.007Z</time></trkpt><trkpt lat="43.23942221390474" lon="12.949207252048714"><ele>597.1999999999999</ele><time>2026-04-26T07:35:56.007Z</time></trkpt><trkpt lat="43.239414208524295" lon="12.949103556315677"><ele>601.4</ele><time>2026-04-26T07:35:58.007Z</time></trkpt><trkpt lat="43.23941134724393" lon="12.949000009622505"><ele>605.5999999999999</ele><time>2026-04-26T07:36:00.007Z</time></trkpt><trkpt lat="43.23938633731131" lon="12.94888594998391"><ele>609.8</ele><time>2026-04-26T07:36:02.007Z</time></trkpt><trkpt lat="43.23936336537974" lon="12.948763528186669"><ele>614.0</ele><time>2026-04-26T07:36:04.007Z</time></trkpt><trkpt lat="43.23933966405634" lon="12.948600096653054"><ele>614.0</ele><time>2026-04-26T07:36:06.008Z</time></trkpt><trkpt lat="43.239261608238394" lon="12.948482889636907"><ele>614.0</ele><time>2026-04-26T07:36:08.008Z</time></trkpt><trkpt lat="43.23922087523209" lon="12.948407911821821"><ele>614.0</ele><time>2026-04-26T07:36:09.008Z</time></trkpt><trkpt lat="43.23918212547851" lon="12.948313181958959"><ele>614.0</ele><time>2026-04-26T07:36:10.008Z</time></trkpt><trkpt lat="43.23915829703338" lon="12.948211776570622"><ele>614.0</ele><time>2026-04-26T07:36:11.008Z</time></trkpt><trkpt lat="43.2391324034757" lon="12.9481271659197"><ele>614.0</ele><time>2026-04-26T07:36:12.008Z</time></trkpt><trkpt lat="43.239117845794716" lon="12.948031484034855"><ele>617.4</ele><time>2026-04-26T07:36:13.008Z</time></trkpt><trkpt lat="43.23909880374572" lon="12.94792019531986"><ele>620.8</ele><time>2026-04-26T07:36:14.008Z</time></trkpt><trkpt lat="43.2390837278693" lon="12.947798164974884"><ele>624.2</ele><time>2026-04-26T07:36:15.008Z</time></trkpt><trkpt lat="43.239067794155815" lon="12.947683893451664"><ele>627.6</ele><time>2026-04-26T07:36:16.008Z</time></trkpt><trkpt lat="43.23903728959681" lon="12.947490609523658"><ele>631.0</ele><time>2026-04-26T07:36:17.008Z</time></trkpt><trkpt lat="43.23904886257055" lon="12.94734306381263"><ele>634.5</ele><time>2026-04-26T07:36:18.008Z</time></trkpt><trkpt lat="43.239050920570655" lon="12.947181206789358"><ele>638.0</ele><time>2026-04-26T07:36:19.008Z</time></trkpt><trkpt lat="43.23902496230043" lon="12.947035318551"><ele>641.5</ele><time>2026-04-26T07:36:20.008Z</time></trkpt><trkpt lat="43.23899866054153" lon="12.946891839929016"><ele>645.0</ele><time>2026-04-26T07:36:21.008Z</time></trkpt><trkpt lat="43.23898717508635" lon="12.946728934400364"><ele>658.25</ele><time>2026-04-26T07:36:22.008Z</time></trkpt><trkpt lat="43.238960323060624" lon="12.946545999496713"><ele>671.5</ele><time>2026-04-26T07:36:23.008Z</time></trkpt><trkpt lat="43.23893054969794" lon="12.946376318195496"><ele>684.75</ele><time>2026-04-26T07:36:24.008Z</time></trkpt><trkpt lat="43.23891177086901" lon="12.946250938319068"><ele>698.0</ele><time>2026-04-26T07:36:25.008Z</time></trkpt><trkpt lat="43.23890308648553" lon="12.946122589810876"><ele>698.0</ele><time>2026-04-26T07:36:26.008Z</time></trkpt><trkpt lat="43.238895616679706" lon="12.945992095972967"><ele>698.0</ele><time>2026-04-26T07:36:27.008Z</time></trkpt><trkpt lat="43.23887683391203" lon="12.945817715994256"><ele>698.0</ele><time>2026-04-26T07:36:29.008Z</time></trkpt><trkpt lat="43.238867955194905" lon="12.945684030596778"><ele>698.0</ele><time>2026-04-26T07:36:31.008Z</time></trkpt><trkpt lat="43.23886309398884" lon="12.945592070209653"><ele>698.0</ele><time>2026-04-26T07:36:32.008Z</time></trkpt><trkpt lat="43.238857314185736" lon="12.945435953970925"><ele>698.6666666666666</ele><time>2026-04-26T07:36:34.008Z</time></trkpt><trkpt lat="43.23885154978936" lon="12.945259453768529"><ele>699.3333333333333</ele><time>2026-04-26T07:36:36.008Z</time></trkpt><trkpt lat="43.238847080705675" lon="12.945170192093853"><ele>700.0</ele><time>2026-04-26T07:36:37.008Z</time></trkpt><trkpt lat="43.23884349169237" lon="12.94506554806785"><ele>700.6666666666666</ele><time>2026-04-26T07:36:38.008Z</time></trkpt><trkpt lat="43.238837247085584" lon="12.94496786186945"><ele>701.3333333333334</ele><time>2026-04-26T07:36:39.008Z</time></trkpt><trkpt lat="43.23882452741643" lon="12.944842934615375"><ele>702.0</ele><time>2026-04-26T07:36:41.009Z</time></trkpt><trkpt lat="43.23881409190121" lon="12.944703185026109"><ele>702.6</ele><time>2026-04-26T07:36:43.009Z</time></trkpt><trkpt lat="43.23879971829467" lon="12.944559153959256"><ele>703.2</ele><time>2026-04-26T07:36:44.009Z</time></trkpt><trkpt lat="43.238768491600844" lon="12.94443295411088"><ele>703.8</ele><time>2026-04-26T07:36:45.009Z</time></trkpt><trkpt lat="43.238742303643875" lon="12.944313295088088"><ele>704.4</ele><time>2026-04-26T07:36:46.009Z</time></trkpt><trkpt lat="43.238725598396194" lon="12.94420763615772"><ele>705.0</ele><time>2026-04-26T07:36:47.009Z</time></trkpt><trkpt lat="43.23868295309852" lon="12.944099572590082"><ele>705.0</ele><time>2026-04-26T07:36:48.009Z</time></trkpt><trkpt lat="43.23865989151549" lon="12.944006812970082"><ele>705.0</ele><time>2026-04-26T07:36:49.009Z</time></trkpt><trkpt lat="43.23865611090337" lon="12.943907262832802"><ele>705.0</ele><time>2026-04-26T07:36:50.009Z</time></trkpt><trkpt lat="43.238663258677235" lon="12.943791804258149"><ele>705.0</ele><time>2026-04-26T07:36:51.009Z</time></trkpt><trkpt lat="43.23866429709793" lon="12.943667527563376"><ele>705.0</ele><time>2026-04-26T07:36:52.009Z</time></trkpt><trkpt lat="43.238667483116416" lon="12.943544953390829"><ele>705.0</ele><time>2026-04-26T07:36:53.009Z</time></trkpt><trkpt lat="43.23866611412611" lon="12.943426050768725"><ele>704.0</ele><time>2026-04-26T07:36:54.009Z</time></trkpt><trkpt lat="43.23866703000261" lon="12.943316492185081"><ele>703.0</ele><time>2026-04-26T07:36:55.009Z</time></trkpt><trkpt lat="43.23867194998218" lon="12.943200830095172"><ele>702.0</ele><time>2026-04-26T07:36:56.009Z</time></trkpt><trkpt lat="43.238684875788714" lon="12.94309083558561"><ele>701.0</ele><time>2026-04-26T07:36:57.009Z</time></trkpt><trkpt lat="43.2387000101165" lon="12.942983765497337"><ele>700.0</ele><time>2026-04-26T07:36:58.009Z</time></trkpt><trkpt lat="43.2387068366752" lon="12.94287445932135"><ele>699.0</ele><time>2026-04-26T07:36:59.009Z</time></trkpt><trkpt lat="43.23871789598589" lon="12.942778138941913"><ele>699.0</ele><time>2026-04-26T07:37:00.009Z</time></trkpt><trkpt lat="43.238765858807604" lon="12.942630517987071"><ele>699.0</ele><time>2026-04-26T07:37:02.009Z</time></trkpt><trkpt lat="43.23880379294453" lon="12.94255086446655"><ele>699.0</ele><time>2026-04-26T07:37:03.009Z</time></trkpt><trkpt lat="43.23884544450402" lon="12.942471561505489"><ele>699.0</ele><time>2026-04-26T07:37:04.009Z</time></trkpt><trkpt lat="43.238887293364066" lon="12.942406485413702"><ele>699.0</ele><time>2026-04-26T07:37:05.009Z</time></trkpt><trkpt lat="43.23895712751324" lon="12.942307363046591"><ele>699.0</ele><time>2026-04-26T07:37:07.009Z</time></trkpt><trkpt lat="43.23901947708986" lon="12.942199829128585"><ele>695.25</ele><time>2026-04-26T07:37:09.009Z</time></trkpt><trkpt lat="43.23905974586025" lon="12.94207151620177"><ele>691.5</ele><time>2026-04-26T07:37:11.009Z</time></trkpt><trkpt lat="43.23910659348279" lon="12.941922247770268"><ele>687.75</ele><time>2026-04-26T07:37:13.009Z</time></trkpt><trkpt lat="43.23915474117077" lon="12.941768837004224"><ele>684.0</ele><time>2026-04-26T07:37:15.01Z</time></trkpt><trkpt lat="43.23919060937035" lon="12.941608306100484"><ele>684.0</ele><time>2026-04-26T07:37:17.01Z</time></trkpt><trkpt lat="43.23923430239357" lon="12.941542298216064"><ele>684.0</ele><time>2026-04-26T07:37:18.01Z</time></trkpt><trkpt lat="43.23927619209793" lon="12.941477019274268"><ele>684.0</ele><time>2026-04-26T07:37:19.01Z</time></trkpt><trkpt lat="43.23931702646824" lon="12.941403273196258"><ele>684.0</ele><time>2026-04-26T07:37:20.01Z</time></trkpt><trkpt lat="43.23937418350378" lon="12.941334239039119"><ele>684.0</ele><time>2026-04-26T07:37:21.01Z</time></trkpt><trkpt lat="43.23944310289614" lon="12.94125843836223"><ele>684.0</ele><time>2026-04-26T07:37:22.01Z</time></trkpt><trkpt lat="43.2395134636002" lon="12.941176947488382"><ele>684.0</ele><time>2026-04-26T07:37:23.01Z</time></trkpt><trkpt lat="43.239584749669426" lon="12.941093075004126"><ele>684.0</ele><time>2026-04-26T07:37:24.01Z</time></trkpt><trkpt lat="43.23964383784242" lon="12.940994764543978"><ele>684.0</ele><time>2026-04-26T07:37:25.01Z</time></trkpt><trkpt lat="43.23969303272172" lon="12.940915746703547"><ele>684.0</ele><time>2026-04-26T07:37:26.01Z</time></trkpt><trkpt lat="43.23974689184846" lon="12.940846202137992"><ele>684.0</ele><time>2026-04-26T07:37:27.01Z</time></trkpt><trkpt lat="43.239811401973725" lon="12.94078088585461"><ele>684.0</ele><time>2026-04-26T07:37:28.01Z</time></trkpt><trkpt lat="43.23988477542932" lon="12.940718804273123"><ele>685.6</ele><time>2026-04-26T07:37:29.01Z</time></trkpt><trkpt lat="43.239969135416295" lon="12.940668174021365"><ele>687.2</ele><time>2026-04-26T07:37:30.01Z</time></trkpt><trkpt lat="43.24004999536758" lon="12.940624577424268"><ele>688.8000000000001</ele><time>2026-04-26T07:37:31.01Z</time></trkpt><trkpt lat="43.24012961972445" lon="12.940568381270852"><ele>690.4000000000001</ele><time>2026-04-26T07:37:32.01Z</time></trkpt><trkpt lat="43.24021093416769" lon="12.940501154023886"><ele>692.0</ele><time>2026-04-26T07:37:33.01Z</time></trkpt><trkpt lat="43.240298284116726" lon="12.940450287506817"><ele>692.0</ele><time>2026-04-26T07:37:34.01Z</time></trkpt><trkpt lat="43.24037774196643" lon="12.940406217507993"><ele>692.0</ele><time>2026-04-26T07:37:35.01Z</time></trkpt><trkpt lat="43.24045272127248" lon="12.940368517661767"><ele>692.0</ele><time>2026-04-26T07:37:36.01Z</time></trkpt><trkpt lat="43.240532106475165" lon="12.940319591475104"><ele>692.0</ele><time>2026-04-26T07:37:37.01Z</time></trkpt><trkpt lat="43.24060072750102" lon="12.940264516608792"><ele>692.0</ele><time>2026-04-26T07:37:38.01Z</time></trkpt><trkpt lat="43.24065670284479" lon="12.940213947288699"><ele>692.0</ele><time>2026-04-26T07:37:39.01Z</time></trkpt><trkpt lat="43.240774774562475" lon="12.94015208457313"><ele>690.0</ele><time>2026-04-26T07:37:41.01Z</time></trkpt><trkpt lat="43.24084286303831" lon="12.940117307402856"><ele>688.0</ele><time>2026-04-26T07:37:42.01Z</time></trkpt><trkpt lat="43.240917856819294" lon="12.940068236016256"><ele>686.0</ele><time>2026-04-26T07:37:43.01Z</time></trkpt><trkpt lat="43.240995003840325" lon="12.940019019033542"><ele>684.0</ele><time>2026-04-26T07:37:44.01Z</time></trkpt><trkpt lat="43.241084957903034" lon="12.939965510770273"><ele>682.0</ele><time>2026-04-26T07:37:45.01Z</time></trkpt><trkpt lat="43.241179378277806" lon="12.939916718503271"><ele>680.0</ele><time>2026-04-26T07:37:46.01Z</time></trkpt><trkpt lat="43.241270728720615" lon="12.939864386508454"><ele>684.0</ele><time>2026-04-26T07:37:47.01Z</time></trkpt><trkpt lat="43.24135073742059" lon="12.939798967840623"><ele>688.0</ele><time>2026-04-26T07:37:48.011Z</time></trkpt><trkpt lat="43.24143528767056" lon="12.939701928454372"><ele>692.0</ele><time>2026-04-26T07:37:49.011Z</time></trkpt><trkpt lat="43.24152430208934" lon="12.939628758414349"><ele>696.0</ele><time>2026-04-26T07:37:50.011Z</time></trkpt><trkpt lat="43.241604566459266" lon="12.939554604823345"><ele>700.0</ele><time>2026-04-26T07:37:51.011Z</time></trkpt><trkpt lat="43.24167880336291" lon="12.939502422549971"><ele>700.0</ele><time>2026-04-26T07:37:52.011Z</time></trkpt><trkpt lat="43.24173843934115" lon="12.939456811660774"><ele>700.0</ele><time>2026-04-26T07:37:53.011Z</time></trkpt><trkpt lat="43.241798129504076" lon="12.939403406689145"><ele>700.0</ele><time>2026-04-26T07:37:55.011Z</time></trkpt><trkpt lat="43.24187240493459" lon="12.939352374543882"><ele>700.0</ele><time>2026-04-26T07:37:57.011Z</time></trkpt><trkpt lat="43.24193921122877" lon="12.939303905957098"><ele>700.0</ele><time>2026-04-26T07:37:59.011Z</time></trkpt><trkpt lat="43.24202382080726" lon="12.939278613896182"><ele>700.0</ele><time>2026-04-26T07:38:02.011Z</time></trkpt><trkpt lat="43.24210790700015" lon="12.939262563070164"><ele>702.3333333333334</ele><time>2026-04-26T07:38:04.011Z</time></trkpt><trkpt lat="43.24217432459958" lon="12.939209132437519"><ele>704.6666666666667</ele><time>2026-04-26T07:38:06.011Z</time></trkpt><trkpt lat="43.242230553323665" lon="12.939158945550616"><ele>707.0</ele><time>2026-04-26T07:38:08.011Z</time></trkpt><trkpt lat="43.2422720181635" lon="12.93908624583508"><ele>709.3333333333334</ele><time>2026-04-26T07:38:10.011Z</time></trkpt><trkpt lat="43.24231055786402" lon="12.938987428477402"><ele>711.6666666666666</ele><time>2026-04-26T07:38:12.011Z</time></trkpt><trkpt lat="43.24231999733734" lon="12.938870016516395"><ele>714.0</ele><time>2026-04-26T07:38:14.011Z</time></trkpt><trkpt lat="43.242344157941346" lon="12.938771713022376"><ele>714.0</ele><time>2026-04-26T07:38:16.011Z</time></trkpt><trkpt lat="43.24237068181496" lon="12.938676031159805"><ele>714.0</ele><time>2026-04-26T07:38:18.01Z</time></trkpt><trkpt lat="43.242411200838525" lon="12.938573147467459"><ele>714.0</ele><time>2026-04-26T07:38:21.01Z</time></trkpt><trkpt lat="43.24246041751866" lon="12.938511498780047"><ele>714.0</ele><time>2026-04-26T07:38:24.011Z</time></trkpt><trkpt lat="43.2424885944081" lon="12.938405595526275"><ele>714.0</ele><time>2026-04-26T07:38:26.011Z</time></trkpt><trkpt lat="43.24250158289139" lon="12.938243127459815"><ele>714.0</ele><time>2026-04-26T07:38:28.011Z</time></trkpt><trkpt lat="43.24251795698056" lon="12.938114996171382"><ele>717.5</ele><time>2026-04-26T07:38:29.011Z</time></trkpt><trkpt lat="43.24251210938518" lon="12.938022859774327"><ele>721.0</ele><time>2026-04-26T07:38:30.011Z</time></trkpt><trkpt lat="43.242487173620056" lon="12.93790560558593"><ele>724.5</ele><time>2026-04-26T07:38:32.011Z</time></trkpt><trkpt lat="43.24245905000478" lon="12.937791623487165"><ele>728.0</ele><time>2026-04-26T07:38:34.011Z</time></trkpt><trkpt lat="43.24244338503962" lon="12.93770263835427"><ele>731.5</ele><time>2026-04-26T07:38:36.011Z</time></trkpt><trkpt lat="43.24246111542994" lon="12.937619528661703"><ele>735.0</ele><time>2026-04-26T07:38:38.011Z</time></trkpt><trkpt lat="43.242469719189195" lon="12.937515737339103"><ele>735.0</ele><time>2026-04-26T07:38:41.011Z</time></trkpt><trkpt lat="43.24247420311197" lon="12.93742663681081"><ele>735.0</ele><time>2026-04-26T07:38:43.011Z</time></trkpt><trkpt lat="43.242452973804824" lon="12.937317973235908"><ele>735.0</ele><time>2026-04-26T07:38:46.011Z</time></trkpt><trkpt lat="43.242418815935665" lon="12.937202781675097"><ele>735.0</ele><time>2026-04-26T07:38:49.011Z</time></trkpt><trkpt lat="43.24240639427699" lon="12.93710879425292"><ele>735.0</ele><time>2026-04-26T07:38:51.01Z</time></trkpt><trkpt lat="43.24238811152056" lon="12.936983991746715"><ele>735.0</ele><time>2026-04-26T07:38:53.008Z</time></trkpt><trkpt lat="43.24235169327686" lon="12.936874008590593"><ele>735.0</ele><time>2026-04-26T07:38:55.007Z</time></trkpt><trkpt lat="43.242301480840645" lon="12.93681549135343"><ele>735.0</ele><time>2026-04-26T07:38:56.007Z</time></trkpt><trkpt lat="43.24224539809901" lon="12.936753830819537"><ele>735.0</ele><time>2026-04-26T07:38:57.006Z</time></trkpt><trkpt lat="43.24215209086282" lon="12.936656615619276"><ele>735.0</ele><time>2026-04-26T07:38:59.006Z</time></trkpt><trkpt lat="43.24208377383886" lon="12.936618543897776"><ele>735.0</ele><time>2026-04-26T07:39:00.005Z</time></trkpt><trkpt lat="43.24203205653481" lon="12.936554731587263"><ele>735.0</ele><time>2026-04-26T07:39:01.005Z</time></trkpt><trkpt lat="43.24198489247161" lon="12.936492729151215"><ele>738.8333333333334</ele><time>2026-04-26T07:39:02.005Z</time></trkpt><trkpt lat="43.24190803944904" lon="12.936389707087237"><ele>742.6666666666666</ele><time>2026-04-26T07:39:04.004Z</time></trkpt><trkpt lat="43.24183918080401" lon="12.93635109762495"><ele>746.5</ele><time>2026-04-26T07:39:05.004Z</time></trkpt><trkpt lat="43.24176716273733" lon="12.936288342317717"><ele>750.3333333333333</ele><time>2026-04-26T07:39:06.003Z</time></trkpt><trkpt lat="43.2416965886734" lon="12.93622933242153"><ele>754.1666666666666</ele><time>2026-04-26T07:39:07.003Z</time></trkpt><trkpt lat="43.24164082234803" lon="12.93617856649117"><ele>758.0</ele><time>2026-04-26T07:39:08.003Z</time></trkpt><trkpt lat="43.24157838465645" lon="12.93613306860172"><ele>758.0</ele><time>2026-04-26T07:39:09.003Z</time></trkpt><trkpt lat="43.24151514269839" lon="12.936083872294484"><ele>758.0</ele><time>2026-04-26T07:39:10.003Z</time></trkpt><trkpt lat="43.24145360194663" lon="12.93603626026994"><ele>758.0</ele><time>2026-04-26T07:39:11.002Z</time></trkpt><trkpt lat="43.24139184496266" lon="12.935975699321167"><ele>758.0</ele><time>2026-04-26T07:39:12.002Z</time></trkpt><trkpt lat="43.24132234158875" lon="12.935932149822898"><ele>758.0</ele><time>2026-04-26T07:39:13.002Z</time></trkpt><trkpt lat="43.2412462413893" lon="12.935876193030822"><ele>758.0</ele><time>2026-04-26T07:39:14.002Z</time></trkpt><trkpt lat="43.24116709718287" lon="12.935808292081111"><ele>758.5999999999999</ele><time>2026-04-26T07:39:15.002Z</time></trkpt><trkpt lat="43.24107646371648" lon="12.935737333078372"><ele>759.1999999999999</ele><time>2026-04-26T07:39:16.002Z</time></trkpt><trkpt lat="43.24099775922119" lon="12.935673776612857"><ele>759.8</ele><time>2026-04-26T07:39:17.002Z</time></trkpt><trkpt lat="43.24092232804737" lon="12.9356116351613"><ele>760.4</ele><time>2026-04-26T07:39:18.002Z</time></trkpt><trkpt lat="43.24084751762964" lon="12.935558941885562"><ele>761.0</ele><time>2026-04-26T07:39:19.001Z</time></trkpt><trkpt lat="43.24076588470541" lon="12.935507345172365"><ele>761.0</ele><time>2026-04-26T07:39:20.001Z</time></trkpt><trkpt lat="43.2406836084282" lon="12.93546337856767"><ele>761.0</ele><time>2026-04-26T07:39:21.001Z</time></trkpt><trkpt lat="43.24060752008827" lon="12.935414660038717"><ele>761.0</ele><time>2026-04-26T07:39:22.001Z</time></trkpt><trkpt lat="43.24054871913657" lon="12.93536659679621"><ele>761.0</ele><time>2026-04-26T07:39:23.001Z</time></trkpt><trkpt lat="43.240487408671314" lon="12.935316946082494"><ele>761.0</ele><time>2026-04-26T07:39:24.001Z</time></trkpt><trkpt lat="43.24042309571909" lon="12.935274064326382"><ele>761.0</ele><time>2026-04-26T07:39:25.001Z</time></trkpt><trkpt lat="43.240363672359464" lon="12.935233546914567"><ele>761.4</ele><time>2026-04-26T07:39:26.001Z</time></trkpt><trkpt lat="43.240242864829895" lon="12.93514723836067"><ele>761.8</ele><time>2026-04-26T07:39:28.001Z</time></trkpt><trkpt lat="43.24017694988785" lon="12.935103491185531"><ele>762.1999999999999</ele><time>2026-04-26T07:39:29.001Z</time></trkpt><trkpt lat="43.240117450769574" lon="12.935064935132823"><ele>762.5999999999999</ele><time>2026-04-26T07:39:30.001Z</time></trkpt><trkpt lat="43.240016100477845" lon="12.934982083748306"><ele>763.0</ele><time>2026-04-26T07:39:32.001Z</time></trkpt><trkpt lat="43.23991717253378" lon="12.934879081737739"><ele>763.0</ele><time>2026-04-26T07:39:34Z</time></trkpt><trkpt lat="43.23984001771961" lon="12.934774926209075"><ele>763.0</ele><time>2026-04-26T07:39:36Z</time></trkpt><trkpt lat="43.2397858803576" lon="12.93469594816762"><ele>763.0</ele><time>2026-04-26T07:39:38Z</time></trkpt><trkpt lat="43.239733379762974" lon="12.934628314757338"><ele>763.0</ele><time>2026-04-26T07:39:40Z</time></trkpt><trkpt lat="43.239665208951976" lon="12.934538715618531"><ele>763.0</ele><time>2026-04-26T07:39:43Z</time></trkpt><trkpt lat="43.239599817041224" lon="12.934490901480318"><ele>763.0</ele><time>2026-04-26T07:39:45Z</time></trkpt><trkpt lat="43.239511254401734" lon="12.934438375192762"><ele>762.8</ele><time>2026-04-26T07:39:47Z</time></trkpt><trkpt lat="43.23944804916422" lon="12.934405544989403"><ele>762.5999999999999</ele><time>2026-04-26T07:39:48Z</time></trkpt><trkpt lat="43.2393749393329" lon="12.934358900335576"><ele>762.4000000000001</ele><time>2026-04-26T07:39:49Z</time></trkpt><trkpt lat="43.23928617758503" lon="12.934260084794264"><ele>762.2</ele><time>2026-04-26T07:39:51Z</time></trkpt><trkpt lat="43.23919953531591" lon="12.934139711226097"><ele>762.0</ele><time>2026-04-26T07:39:53Z</time></trkpt><trkpt lat="43.23912613225517" lon="12.934072824458799"><ele>762.0</ele><time>2026-04-26T07:39:54Z</time></trkpt><trkpt lat="43.23907824516557" lon="12.934009354216206"><ele>762.0</ele><time>2026-04-26T07:39:55Z</time></trkpt><trkpt lat="43.239019607913804" lon="12.933950341577477"><ele>762.0</ele><time>2026-04-26T07:39:56Z</time></trkpt><trkpt lat="43.23896344688644" lon="12.933889176115413"><ele>762.0</ele><time>2026-04-26T07:39:57Z</time></trkpt><trkpt lat="43.238858822740156" lon="12.933790011714338"><ele>762.0</ele><time>2026-04-26T07:39:59Z</time></trkpt><trkpt lat="43.23879288060794" lon="12.933691167387641"><ele>762.0</ele><time>2026-04-26T07:40:00Z</time></trkpt><trkpt lat="43.23874042793443" lon="12.93363299072897"><ele>762.0</ele><time>2026-04-26T07:40:01Z</time></trkpt><trkpt lat="43.238675111189146" lon="12.933560184211156"><ele>762.0</ele><time>2026-04-26T07:40:02Z</time></trkpt><trkpt lat="43.23860011680605" lon="12.933453801896679"><ele>762.0</ele><time>2026-04-26T07:40:03Z</time></trkpt><trkpt lat="43.23853543027288" lon="12.933342674922933"><ele>762.0</ele><time>2026-04-26T07:40:04Z</time></trkpt><trkpt lat="43.2384830934017" lon="12.933237293894752"><ele>762.0</ele><time>2026-04-26T07:40:05Z</time></trkpt><trkpt lat="43.238432167437885" lon="12.933157311179814"><ele>762.0</ele><time>2026-04-26T07:40:06Z</time></trkpt><trkpt lat="43.238385644628025" lon="12.933074602279314"><ele>762.0</ele><time>2026-04-26T07:40:07Z</time></trkpt><trkpt lat="43.23832838164666" lon="12.932967934841603"><ele>762.0</ele><time>2026-04-26T07:40:08Z</time></trkpt><trkpt lat="43.238274383921826" lon="12.932871538460137"><ele>762.0</ele><time>2026-04-26T07:40:09Z</time></trkpt><trkpt lat="43.23822495734266" lon="12.932798197575256"><ele>762.0</ele><time>2026-04-26T07:40:10Z</time></trkpt><trkpt lat="43.238174195555416" lon="12.932744083156681"><ele>762.0</ele><time>2026-04-26T07:40:11Z</time></trkpt><trkpt lat="43.23812215806197" lon="12.932679604068285"><ele>760.4000000000001</ele><time>2026-04-26T07:40:12Z</time></trkpt><trkpt lat="43.238071984731626" lon="12.932622864621104"><ele>758.8000000000001</ele><time>2026-04-26T07:40:13Z</time></trkpt><trkpt lat="43.23798159973868" lon="12.932519162864434"><ele>757.2</ele><time>2026-04-26T07:40:15Z</time></trkpt><trkpt lat="43.23789596325472" lon="12.932406855751664"><ele>755.6</ele><time>2026-04-26T07:40:17Z</time></trkpt><trkpt lat="43.23783349735834" lon="12.932312687189096"><ele>754.0</ele><time>2026-04-26T07:40:19Z</time></trkpt><trkpt lat="43.23776834399967" lon="12.932221934880362"><ele>754.0</ele><time>2026-04-26T07:40:21Z</time></trkpt><trkpt lat="43.23769926902592" lon="12.932132214975434"><ele>754.0</ele><time>2026-04-26T07:40:23Z</time></trkpt><trkpt lat="43.23762991401346" lon="12.932066859731838"><ele>754.0</ele><time>2026-04-26T07:40:25Z</time></trkpt><trkpt lat="43.237559527747486" lon="12.932002720388445"><ele>754.0</ele><time>2026-04-26T07:40:27Z</time></trkpt><trkpt lat="43.237477847911286" lon="12.9319410998779"><ele>754.0</ele><time>2026-04-26T07:40:29Z</time></trkpt><trkpt lat="43.237389484591105" lon="12.931892925817948"><ele>754.0</ele><time>2026-04-26T07:40:31Z</time></trkpt><trkpt lat="43.23730864360385" lon="12.931877388693987"><ele>754.0</ele><time>2026-04-26T07:40:33Z</time></trkpt><trkpt lat="43.23721536925048" lon="12.931894138404507"><ele>754.0</ele><time>2026-04-26T07:40:35Z</time></trkpt><trkpt lat="43.23713830030565" lon="12.931940682201079"><ele>754.0</ele><time>2026-04-26T07:40:37Z</time></trkpt><trkpt lat="43.237067555814704" lon="12.932005460214379"><ele>754.0</ele><time>2026-04-26T07:40:39Z</time></trkpt><trkpt lat="43.23701245109995" lon="12.93207293486309"><ele>754.0</ele><time>2026-04-26T07:40:41Z</time></trkpt><trkpt lat="43.2369461470053" lon="12.932110547042033"><ele>754.2857142857142</ele><time>2026-04-26T07:40:45Z</time></trkpt><trkpt lat="43.23688360994059" lon="12.932096329269896"><ele>754.5714285714286</ele><time>2026-04-26T07:40:50Z</time></trkpt><trkpt lat="43.23680992016663" lon="12.932049336729708"><ele>754.8571428571429</ele><time>2026-04-26T07:40:53Z</time></trkpt><trkpt lat="43.23678244800626" lon="12.931968724679908"><ele>755.1428571428571</ele><time>2026-04-26T07:40:55Z</time></trkpt><trkpt lat="43.236776641487744" lon="12.931847802128289"><ele>755.4285714285714</ele><time>2026-04-26T07:40:59Z</time></trkpt><trkpt lat="43.23675920117569" lon="12.931758135284642"><ele>755.7142857142857</ele><time>2026-04-26T07:41:03Z</time></trkpt><trkpt lat="43.236712886435434" lon="12.931684471973336"><ele>756.0</ele><time>2026-04-26T07:41:06Z</time></trkpt><trkpt lat="43.23669775989122" lon="12.931600195364243"><ele>752.1428571428571</ele><time>2026-04-26T07:41:09Z</time></trkpt><trkpt lat="43.23669759232015" lon="12.931489576368659"><ele>748.2857142857142</ele><time>2026-04-26T07:41:12Z</time></trkpt><trkpt lat="43.23669368188472" lon="12.931398344583611"><ele>744.4285714285714</ele><time>2026-04-26T07:41:15Z</time></trkpt><trkpt lat="43.23669590660048" lon="12.931294583608747"><ele>740.5714285714286</ele><time>2026-04-26T07:41:19Z</time></trkpt><trkpt lat="43.23668694971087" lon="12.931200524845337"><ele>736.7142857142857</ele><time>2026-04-26T07:41:22Z</time></trkpt><trkpt lat="43.23668074091855" lon="12.931103535949763"><ele>732.8571428571429</ele><time>2026-04-26T07:41:26Z</time></trkpt><trkpt lat="43.236648555335314" lon="12.931004524804102"><ele>729.0</ele><time>2026-04-26T07:41:29Z</time></trkpt><trkpt lat="43.23661335188495" lon="12.930918232281691"><ele>724.7142857142858</ele><time>2026-04-26T07:41:33Z</time></trkpt><trkpt lat="43.23661203860425" lon="12.930803704989492"><ele>720.4285714285713</ele><time>2026-04-26T07:41:38Z</time></trkpt><trkpt lat="43.23663539732243" lon="12.930699454036294"><ele>716.1428571428571</ele><time>2026-04-26T07:41:43Z</time></trkpt><trkpt lat="43.23662441034968" lon="12.930601974827145"><ele>711.8571428571429</ele><time>2026-04-26T07:41:47Z</time></trkpt><trkpt lat="43.23659688580413" lon="12.930510099315148"><ele>707.5714285714287</ele><time>2026-04-26T07:41:52Z</time></trkpt><trkpt lat="43.23660485899449" lon="12.930423618592814"><ele>703.2857142857142</ele><time>2026-04-26T07:41:57Z</time></trkpt><trkpt lat="43.236568846579644" lon="12.930334361330965"><ele>699.0</ele><time>2026-04-26T07:42:06Z</time></trkpt><trkpt lat="43.23654201950739" lon="12.93022067232558"><ele>699.0</ele><time>2026-04-26T07:42:09Z</time></trkpt><trkpt lat="43.23648271165997" lon="12.93015730438575"><ele>699.0</ele><time>2026-04-26T07:42:12Z</time></trkpt><trkpt lat="43.23643296146096" lon="12.930062947087128"><ele>699.0</ele><time>2026-04-26T07:42:15Z</time></trkpt><trkpt lat="43.23637795377229" lon="12.929977310316474"><ele>699.0</ele><time>2026-04-26T07:42:17Z</time></trkpt><trkpt lat="43.23632675145538" lon="12.929892317214048"><ele>699.0</ele><time>2026-04-26T07:42:19Z</time></trkpt><trkpt lat="43.23626831350791" lon="12.929815815017433"><ele>699.0</ele><time>2026-04-26T07:42:21Z</time></trkpt><trkpt lat="43.23621765543682" lon="12.929746394052705"><ele>699.6</ele><time>2026-04-26T07:42:23Z</time></trkpt><trkpt lat="43.23616565035278" lon="12.929632271132332"><ele>700.2</ele><time>2026-04-26T07:42:25Z</time></trkpt><trkpt lat="43.23613023097181" lon="12.929542422093794"><ele>700.8000000000001</ele><time>2026-04-26T07:42:27Z</time></trkpt><trkpt lat="43.23607737725113" lon="12.929444846326938"><ele>701.4000000000001</ele><time>2026-04-26T07:42:30Z</time></trkpt><trkpt lat="43.236023452314456" lon="12.929340958932652"><ele>702.0</ele><time>2026-04-26T07:42:33Z</time></trkpt><trkpt lat="43.23594566186487" lon="12.929263867504757"><ele>701.0</ele><time>2026-04-26T07:42:36Z</time></trkpt><trkpt lat="43.235881369564304" lon="12.929196641704898"><ele>700.0</ele><time>2026-04-26T07:42:38Z</time></trkpt><trkpt lat="43.235812742645294" lon="12.92912544551172"><ele>699.0</ele><time>2026-04-26T07:42:40Z</time></trkpt><trkpt lat="43.235750714181705" lon="12.929064614888544"><ele>698.0</ele><time>2026-04-26T07:42:42Z</time></trkpt><trkpt lat="43.235700633629286" lon="12.929001940188375"><ele>697.0</ele><time>2026-04-26T07:42:44.001Z</time></trkpt><trkpt lat="43.2356489900561" lon="12.928911935184804"><ele>696.0</ele><time>2026-04-26T07:42:48.001Z</time></trkpt><trkpt lat="43.23559299058401" lon="12.928862595473701"><ele>696.0</ele><time>2026-04-26T07:42:50.001Z</time></trkpt><trkpt lat="43.23553425838537" lon="12.928800350476562"><ele>696.0</ele><time>2026-04-26T07:42:56.001Z</time></trkpt><trkpt lat="43.23548850144225" lon="12.92872217188416"><ele>696.0</ele><time>2026-04-26T07:43:00.001Z</time></trkpt><trkpt lat="43.23546733275923" lon="12.928634403386683"><ele>696.0</ele><time>2026-04-26T07:43:02.001Z</time></trkpt><trkpt lat="43.23544931965423" lon="12.928536971427476"><ele>696.0</ele><time>2026-04-26T07:43:04.001Z</time></trkpt><trkpt lat="43.235393313267075" lon="12.928415091091317"><ele>696.0</ele><time>2026-04-26T07:43:06.001Z</time></trkpt><trkpt lat="43.235325800590864" lon="12.928319652873471"><ele>690.0</ele><time>2026-04-26T07:43:08.001Z</time></trkpt><trkpt lat="43.235289486219834" lon="12.928194271950368"><ele>684.0</ele><time>2026-04-26T07:43:10.001Z</time></trkpt><trkpt lat="43.23522672871897" lon="12.928063207793373"><ele>678.0</ele><time>2026-04-26T07:43:12.001Z</time></trkpt><trkpt lat="43.2351614358139" lon="12.927943408874443"><ele>672.0</ele><time>2026-04-26T07:43:14.001Z</time></trkpt><trkpt lat="43.23511163339651" lon="12.927849375888085"><ele>666.0</ele><time>2026-04-26T07:43:16.001Z</time></trkpt><trkpt lat="43.23504941910669" lon="12.927784248482778"><ele>666.0</ele><time>2026-04-26T07:43:18.001Z</time></trkpt><trkpt lat="43.234984266194175" lon="12.927731816471537"><ele>666.0</ele><time>2026-04-26T07:43:20.001Z</time></trkpt><trkpt lat="43.23491383697576" lon="12.927669176270518"><ele>666.0</ele><time>2026-04-26T07:43:22.001Z</time></trkpt><trkpt lat="43.23482479852044" lon="12.927593888087937"><ele>666.0</ele><time>2026-04-26T07:43:24.001Z</time></trkpt><trkpt lat="43.23476951904533" lon="12.927546981091014"><ele>666.0</ele><time>2026-04-26T07:43:25.001Z</time></trkpt><trkpt lat="43.23471189744503" lon="12.927492449729462"><ele>666.0</ele><time>2026-04-26T07:43:27.001Z</time></trkpt><trkpt lat="43.234660526883154" lon="12.927436382162702"><ele>667.1999999999999</ele><time>2026-04-26T07:43:28.001Z</time></trkpt><trkpt lat="43.23457161371499" lon="12.927332092489946"><ele>668.4</ele><time>2026-04-26T07:43:30.001Z</time></trkpt><trkpt lat="43.23452940113515" lon="12.927209036455478"><ele>669.6</ele><time>2026-04-26T07:43:32.001Z</time></trkpt><trkpt lat="43.23451461042925" lon="12.927096220847904"><ele>670.8</ele><time>2026-04-26T07:43:34.001Z</time></trkpt><trkpt lat="43.23450683555356" lon="12.927009827281895"><ele>672.0</ele><time>2026-04-26T07:43:35.001Z</time></trkpt><trkpt lat="43.2345148052127" lon="12.926881866783289"><ele>672.0</ele><time>2026-04-26T07:43:37.001Z</time></trkpt><trkpt lat="43.234506657573824" lon="12.926786568515862"><ele>672.0</ele><time>2026-04-26T07:43:39.001Z</time></trkpt><trkpt lat="43.234510031393604" lon="12.926627935870497"><ele>672.0</ele><time>2026-04-26T07:43:41.001Z</time></trkpt><trkpt lat="43.23450694757703" lon="12.92652763760899"><ele>672.0</ele><time>2026-04-26T07:43:43.001Z</time></trkpt><trkpt lat="43.23449767732815" lon="12.926422916763249"><ele>672.0</ele><time>2026-04-26T07:43:45.001Z</time></trkpt><trkpt lat="43.23447745089448" lon="12.926339016813811"><ele>672.0</ele><time>2026-04-26T07:43:47.001Z</time></trkpt><trkpt lat="43.234460044572735" lon="12.92625130706206"><ele>668.8333333333334</ele><time>2026-04-26T07:43:49.001Z</time></trkpt><trkpt lat="43.23445342357197" lon="12.926163610892052"><ele>665.6666666666666</ele><time>2026-04-26T07:43:51.001Z</time></trkpt><trkpt lat="43.23444399662163" lon="12.92606812507481"><ele>662.5</ele><time>2026-04-26T07:43:54.001Z</time></trkpt><trkpt lat="43.234402207417226" lon="12.925954768672948"><ele>659.3333333333333</ele><time>2026-04-26T07:43:57.001Z</time></trkpt><trkpt lat="43.23437306707385" lon="12.925868207112712"><ele>656.1666666666666</ele><time>2026-04-26T07:43:59.001Z</time></trkpt><trkpt lat="43.234322800742945" lon="12.925774631006641"><ele>653.0</ele><time>2026-04-26T07:44:01.001Z</time></trkpt><trkpt lat="43.23427340144102" lon="12.925680077764456"><ele>650.5</ele><time>2026-04-26T07:44:03.001Z</time></trkpt><trkpt lat="43.23423152478845" lon="12.925543620011048"><ele>648.0</ele><time>2026-04-26T07:44:05.001Z</time></trkpt><trkpt lat="43.234177548176085" lon="12.925398086143948"><ele>645.5</ele><time>2026-04-26T07:44:07.001Z</time></trkpt><trkpt lat="43.2341503925794" lon="12.92531260206017"><ele>643.0</ele><time>2026-04-26T07:44:08.001Z</time></trkpt><trkpt lat="43.234118974305716" lon="12.925213382606712"><ele>640.5</ele><time>2026-04-26T07:44:09.001Z</time></trkpt><trkpt lat="43.23409117309372" lon="12.925118801389928"><ele>638.0</ele><time>2026-04-26T07:44:10.001Z</time></trkpt><trkpt lat="43.234065246437474" lon="12.924949828208646"><ele>635.4285714285714</ele><time>2026-04-26T07:44:12.001Z</time></trkpt><trkpt lat="43.234039902356784" lon="12.924870332906398"><ele>632.8571428571428</ele><time>2026-04-26T07:44:13.001Z</time></trkpt><trkpt lat="43.234009588794194" lon="12.92478978170264"><ele>630.2857142857142</ele><time>2026-04-26T07:44:14.001Z</time></trkpt><trkpt lat="43.2339765381753" lon="12.92470098664646"><ele>627.7142857142858</ele><time>2026-04-26T07:44:15.001Z</time></trkpt><trkpt lat="43.233939539740405" lon="12.924609784335193"><ele>625.1428571428571</ele><time>2026-04-26T07:44:16.001Z</time></trkpt><trkpt lat="43.23390760919156" lon="12.924519116893817"><ele>622.5714285714286</ele><time>2026-04-26T07:44:17.001Z</time></trkpt><trkpt lat="43.233881655960026" lon="12.924429632838867"><ele>620.0</ele><time>2026-04-26T07:44:18.001Z</time></trkpt><trkpt lat="43.233851146648206" lon="12.924299357850506"><ele>624.0</ele><time>2026-04-26T07:44:20.001Z</time></trkpt><trkpt lat="43.23383735061213" lon="12.924166338107106"><ele>628.0</ele><time>2026-04-26T07:44:22.001Z</time></trkpt><trkpt lat="43.2338494036727" lon="12.924034666147016"><ele>632.0</ele><time>2026-04-26T07:44:24.001Z</time></trkpt><trkpt lat="43.23385105840444" lon="12.923916306065829"><ele>636.0</ele><time>2026-04-26T07:44:26.001Z</time></trkpt><trkpt lat="43.23385140318173" lon="12.923803254719099"><ele>640.0</ele><time>2026-04-26T07:44:28.001Z</time></trkpt><trkpt lat="43.23383677058201" lon="12.923686505597049"><ele>644.0</ele><time>2026-04-26T07:44:30.001Z</time></trkpt><trkpt lat="43.23381978961739" lon="12.923587017377171"><ele>644.0</ele><time>2026-04-26T07:44:32.001Z</time></trkpt><trkpt lat="43.233781720742876" lon="12.923474791553357"><ele>644.0</ele><time>2026-04-26T07:44:34.001Z</time></trkpt><trkpt lat="43.23373969227469" lon="12.923342421735567"><ele>644.0</ele><time>2026-04-26T07:44:36.001Z</time></trkpt><trkpt lat="43.23370204545316" lon="12.92321649049772"><ele>644.0</ele><time>2026-04-26T07:44:38.001Z</time></trkpt><trkpt lat="43.23367217420932" lon="12.923112300767976"><ele>644.0</ele><time>2026-04-26T07:44:40.001Z</time></trkpt><trkpt lat="43.233637827881665" lon="12.92301168778136"><ele>640.0</ele><time>2026-04-26T07:44:42.001Z</time></trkpt><trkpt lat="43.2335865753897" lon="12.922907542969643"><ele>636.0</ele><time>2026-04-26T07:44:44.001Z</time></trkpt><trkpt lat="43.23352730664774" lon="12.922785449728584"><ele>632.0</ele><time>2026-04-26T07:44:46.001Z</time></trkpt><trkpt lat="43.2334758067711" lon="12.922644051572542"><ele>628.0</ele><time>2026-04-26T07:44:48.001Z</time></trkpt><trkpt lat="43.233424892250646" lon="12.922533358215569"><ele>624.0</ele><time>2026-04-26T07:44:50.001Z</time></trkpt><trkpt lat="43.23338584335656" lon="12.922432596025232"><ele>619.3333333333334</ele><time>2026-04-26T07:44:52.001Z</time></trkpt><trkpt lat="43.233361093133055" lon="12.9223028683146"><ele>614.6666666666666</ele><time>2026-04-26T07:44:54.001Z</time></trkpt><trkpt lat="43.23332981602161" lon="12.922192883516944"><ele>610.0</ele><time>2026-04-26T07:44:56.001Z</time></trkpt><trkpt lat="43.233297029435256" lon="12.922079091469637"><ele>605.3333333333333</ele><time>2026-04-26T07:44:58.001Z</time></trkpt><trkpt lat="43.233263177580014" lon="12.92196404397665"><ele>600.6666666666666</ele><time>2026-04-26T07:45:00.001Z</time></trkpt><trkpt lat="43.233240579826614" lon="12.92187813719567"><ele>596.0</ele><time>2026-04-26T07:45:02.001Z</time></trkpt><trkpt lat="43.2331878567586" lon="12.921794108350515"><ele>597.5</ele><time>2026-04-26T07:45:05.001Z</time></trkpt><trkpt lat="43.23315211399619" lon="12.921703224619899"><ele>599.0</ele><time>2026-04-26T07:45:08.001Z</time></trkpt><trkpt lat="43.23313054805404" lon="12.921609505811112"><ele>600.5</ele><time>2026-04-26T07:45:11.001Z</time></trkpt><trkpt lat="43.23312638058777" lon="12.921503758620268"><ele>602.0</ele><time>2026-04-26T07:45:14.001Z</time></trkpt><trkpt lat="43.233113940738065" lon="12.921416733807307"><ele>603.5</ele><time>2026-04-26T07:45:17.001Z</time></trkpt><trkpt lat="43.233129350353074" lon="12.921307702594696"><ele>605.0</ele><time>2026-04-26T07:45:20.001Z</time></trkpt><trkpt lat="43.233151769437924" lon="12.921199076256512"><ele>599.6666666666666</ele><time>2026-04-26T07:45:24.001Z</time></trkpt><trkpt lat="43.23323268833301" lon="12.921186794581628"><ele>594.3333333333333</ele><time>2026-04-26T07:45:29.001Z</time></trkpt><trkpt lat="43.23331912815916" lon="12.92119372073685"><ele>589.0</ele><time>2026-04-26T07:45:33.001Z</time></trkpt><trkpt lat="43.23338404934434" lon="12.921250580733968"><ele>583.6666666666666</ele><time>2026-04-26T07:45:44.001Z</time></trkpt><trkpt lat="43.23339871815611" lon="12.921139177171803"><ele>578.3333333333334</ele><time>2026-04-26T07:45:55.001Z</time></trkpt><trkpt lat="43.23341598864886" lon="12.921038411558728"><ele>573.0</ele><time>2026-04-26T07:45:58.001Z</time></trkpt><trkpt lat="43.23341641004272" lon="12.92093393571811"><ele>569.8571428571429</ele><time>2026-04-26T07:46:01.001Z</time></trkpt><trkpt lat="43.23342479256302" lon="12.920832939801787"><ele>566.7142857142858</ele><time>2026-04-26T07:46:05.001Z</time></trkpt><trkpt lat="43.23342332485169" lon="12.920738932921664"><ele>563.5714285714286</ele><time>2026-04-26T07:46:09.001Z</time></trkpt><trkpt lat="43.233411509426226" lon="12.92063641959452"><ele>560.4285714285714</ele><time>2026-04-26T07:46:11.001Z</time></trkpt><trkpt lat="43.23338859732402" lon="12.920547547072152"><ele>557.2857142857142</ele><time>2026-04-26T07:46:13.001Z</time></trkpt><trkpt lat="43.233335571420106" lon="12.920610467814086"><ele>554.1428571428571</ele><time>2026-04-26T07:46:19.001Z</time></trkpt><trkpt lat="43.23326657153238" lon="12.920661444946333"><ele>551.0</ele><time>2026-04-26T07:46:25.001Z</time></trkpt><trkpt lat="43.23317542378789" lon="12.920617446551073"><ele>553.8333333333333</ele><time>2026-04-26T07:46:27Z</time></trkpt><trkpt lat="43.23308646729523" lon="12.920589218094364"><ele>556.6666666666666</ele><time>2026-04-26T07:46:29Z</time></trkpt><trkpt lat="43.23298857246455" lon="12.920539750696694"><ele>559.5</ele><time>2026-04-26T07:46:31Z</time></trkpt><trkpt lat="43.23290388248126" lon="12.92050137301886"><ele>562.3333333333334</ele><time>2026-04-26T07:46:33Z</time></trkpt><trkpt lat="43.23282513576015" lon="12.920505136820447"><ele>565.1666666666667</ele><time>2026-04-26T07:46:35Z</time></trkpt><trkpt lat="43.23275026535239" lon="12.920506760348795"><ele>568.0</ele><time>2026-04-26T07:46:37Z</time></trkpt><trkpt lat="43.23266859761579" lon="12.920483947574281"><ele>568.0</ele><time>2026-04-26T07:46:40Z</time></trkpt><trkpt lat="43.23259123829836" lon="12.92042288895523"><ele>568.0</ele><time>2026-04-26T07:46:43Z</time></trkpt><trkpt lat="43.23253174004733" lon="12.920386925161631"><ele>568.0</ele><time>2026-04-26T07:46:45Z</time></trkpt><trkpt lat="43.23247165252744" lon="12.920353117477925"><ele>568.0</ele><time>2026-04-26T07:46:47Z</time></trkpt><trkpt lat="43.23239554793165" lon="12.920280815172926"><ele>568.0</ele><time>2026-04-26T07:46:49Z</time></trkpt><trkpt lat="43.232318652614964" lon="12.920185924746422"><ele>568.0</ele><time>2026-04-26T07:46:51Z</time></trkpt><trkpt lat="43.2322085479119" lon="12.92013275028185"><ele>564.6</ele><time>2026-04-26T07:46:53Z</time></trkpt><trkpt lat="43.232138086212856" lon="12.920102074706207"><ele>561.1999999999999</ele><time>2026-04-26T07:46:55Z</time></trkpt><trkpt lat="43.23204037212117" lon="12.920053039615054"><ele>557.8</ele><time>2026-04-26T07:46:57Z</time></trkpt><trkpt lat="43.231914329505905" lon="12.920045490032262"><ele>554.4</ele><time>2026-04-26T07:46:59Z</time></trkpt><trkpt lat="43.23179578544931" lon="12.920037123766924"><ele>551.0</ele><time>2026-04-26T07:47:01Z</time></trkpt><trkpt lat="43.23173273444436" lon="12.920015381182127"><ele>551.0</ele><time>2026-04-26T07:47:02Z</time></trkpt><trkpt lat="43.231613859130654" lon="12.919985419096031"><ele>551.0</ele><time>2026-04-26T07:47:04Z</time></trkpt><trkpt lat="43.23154988228942" lon="12.919975834292577"><ele>551.0</ele><time>2026-04-26T07:47:05Z</time></trkpt><trkpt lat="43.23148540151825" lon="12.919968083662305"><ele>551.0</ele><time>2026-04-26T07:47:06Z</time></trkpt><trkpt lat="43.23136012636475" lon="12.91993520385397"><ele>551.0</ele><time>2026-04-26T07:47:08Z</time></trkpt><trkpt lat="43.23128294653364" lon="12.91990996444067"><ele>551.8333333333333</ele><time>2026-04-26T07:47:09Z</time></trkpt><trkpt lat="43.23122091319532" lon="12.919878053308215"><ele>552.6666666666666</ele><time>2026-04-26T07:47:10Z</time></trkpt><trkpt lat="43.23111816534615" lon="12.91984422958311"><ele>553.5</ele><time>2026-04-26T07:47:12Z</time></trkpt><trkpt lat="43.23103372660619" lon="12.919809945118097"><ele>554.3333333333334</ele><time>2026-04-26T07:47:14Z</time></trkpt><trkpt lat="43.231020570089846" lon="12.919718676220837"><ele>555.1666666666667</ele><time>2026-04-26T07:47:16Z</time></trkpt><trkpt lat="43.231061631117015" lon="12.919640410209686"><ele>556.0</ele><time>2026-04-26T07:47:18Z</time></trkpt><trkpt lat="43.231176666069175" lon="12.91960591406011"><ele>556.0</ele><time>2026-04-26T07:47:20Z</time></trkpt><trkpt lat="43.23125319780827" lon="12.91958503116263"><ele>556.0</ele><time>2026-04-26T07:47:21Z</time></trkpt><trkpt lat="43.23133143136158" lon="12.919595579894903"><ele>556.0</ele><time>2026-04-26T07:47:22Z</time></trkpt><trkpt lat="43.23141814974799" lon="12.919588276830522"><ele>556.0</ele><time>2026-04-26T07:47:23Z</time></trkpt><trkpt lat="43.23151754386996" lon="12.919539592280463"><ele>556.0</ele><time>2026-04-26T07:47:24Z</time></trkpt><trkpt lat="43.231603291242976" lon="12.91946484587461"><ele>555.1666666666667</ele><time>2026-04-26T07:47:25Z</time></trkpt><trkpt lat="43.231687073234006" lon="12.919414705787371"><ele>554.3333333333334</ele><time>2026-04-26T07:47:26Z</time></trkpt><trkpt lat="43.23176297369646" lon="12.919386605552809"><ele>553.5</ele><time>2026-04-26T07:47:27Z</time></trkpt><trkpt lat="43.231838188087146" lon="12.919362758684107"><ele>552.6666666666666</ele><time>2026-04-26T07:47:28Z</time></trkpt><trkpt lat="43.23191421996823" lon="12.919352820764667"><ele>551.8333333333333</ele><time>2026-04-26T07:47:29Z</time></trkpt><trkpt lat="43.231985504383296" lon="12.919370044412089"><ele>551.0</ele><time>2026-04-26T07:47:30Z</time></trkpt><trkpt lat="43.23206227989747" lon="12.919391117126414"><ele>551.0</ele><time>2026-04-26T07:47:31Z</time></trkpt><trkpt lat="43.23213519940023" lon="12.919431907506715"><ele>551.0</ele><time>2026-04-26T07:47:32Z</time></trkpt><trkpt lat="43.232199282251024" lon="12.919463845532272"><ele>551.0</ele><time>2026-04-26T07:47:33Z</time></trkpt><trkpt lat="43.23229901764484" lon="12.919544829605735"><ele>551.0</ele><time>2026-04-26T07:47:35Z</time></trkpt><trkpt lat="43.232357688067616" lon="12.919659858455402"><ele>551.0</ele><time>2026-04-26T07:47:37Z</time></trkpt><trkpt lat="43.232418434434386" lon="12.91972373037208"><ele>551.0</ele><time>2026-04-26T07:47:39Z</time></trkpt><trkpt lat="43.232500749673754" lon="12.919774512935234"><ele>550.2</ele><time>2026-04-26T07:47:41Z</time></trkpt><trkpt lat="43.23260831313802" lon="12.919761937007465"><ele>549.4000000000001</ele><time>2026-04-26T07:47:43Z</time></trkpt><trkpt lat="43.23265239336899" lon="12.919652331971648"><ele>548.6</ele><time>2026-04-26T07:47:45Z</time></trkpt><trkpt lat="43.23263865299333" lon="12.919497505540726"><ele>547.8000000000001</ele><time>2026-04-26T07:47:47Z</time></trkpt><trkpt lat="43.232670181196056" lon="12.91937108639793"><ele>547.0</ele><time>2026-04-26T07:47:49Z</time></trkpt><trkpt lat="43.23275969434205" lon="12.919277595443509"><ele>547.0</ele><time>2026-04-26T07:47:51Z</time></trkpt><trkpt lat="43.232825447423686" lon="12.919248939744467"><ele>547.0</ele><time>2026-04-26T07:47:52Z</time></trkpt><trkpt lat="43.23289053422767" lon="12.91919792459331"><ele>547.0</ele><time>2026-04-26T07:47:53Z</time></trkpt><trkpt lat="43.2330375753532" lon="12.919158441312149"><ele>547.0</ele><time>2026-04-26T07:47:55Z</time></trkpt><trkpt lat="43.233121657165775" lon="12.919150780231757"><ele>547.0</ele><time>2026-04-26T07:47:56Z</time></trkpt><trkpt lat="43.233216294854934" lon="12.91910474118708"><ele>551.6</ele><time>2026-04-26T07:47:57Z</time></trkpt><trkpt lat="43.233309652054686" lon="12.919054008716385"><ele>556.2</ele><time>2026-04-26T07:47:58Z</time></trkpt><trkpt lat="43.23341178633397" lon="12.91900681786334"><ele>560.8</ele><time>2026-04-26T07:47:59Z</time></trkpt><trkpt lat="43.23350820092448" lon="12.918937597420262"><ele>565.4</ele><time>2026-04-26T07:48:00Z</time></trkpt><trkpt lat="43.23358420367594" lon="12.918868852668727"><ele>570.0</ele><time>2026-04-26T07:48:01Z</time></trkpt><trkpt lat="43.23364045083164" lon="12.918789424323368"><ele>570.0</ele><time>2026-04-26T07:48:02Z</time></trkpt><trkpt lat="43.23367704927168" lon="12.91868235194482"><ele>570.0</ele><time>2026-04-26T07:48:03Z</time></trkpt><trkpt lat="43.23370782103656" lon="12.918552940899003"><ele>570.0</ele><time>2026-04-26T07:48:04Z</time></trkpt><trkpt lat="43.23373161414689" lon="12.918422473271853"><ele>570.0</ele><time>2026-04-26T07:48:05Z</time></trkpt><trkpt lat="43.23376557595599" lon="12.91829394062375"><ele>570.0</ele><time>2026-04-26T07:48:06Z</time></trkpt><trkpt lat="43.23383226515242" lon="12.918175750153468"><ele>571.0</ele><time>2026-04-26T07:48:07Z</time></trkpt><trkpt lat="43.23389853913175" lon="12.918050751933135"><ele>572.0</ele><time>2026-04-26T07:48:08Z</time></trkpt><trkpt lat="43.23395072593794" lon="12.917928347291717"><ele>573.0</ele><time>2026-04-26T07:48:09Z</time></trkpt><trkpt lat="43.2339944827239" lon="12.917814429936284"><ele>574.0</ele><time>2026-04-26T07:48:10Z</time></trkpt><trkpt lat="43.23403398200399" lon="12.91770814547389"><ele>575.0</ele><time>2026-04-26T07:48:11Z</time></trkpt><trkpt lat="43.234067530290964" lon="12.917598048778903"><ele>577.2</ele><time>2026-04-26T07:48:12Z</time></trkpt><trkpt lat="43.234085300164224" lon="12.917471933608997"><ele>579.4</ele><time>2026-04-26T07:48:13Z</time></trkpt><trkpt lat="43.23409232261198" lon="12.917333202288544"><ele>581.6</ele><time>2026-04-26T07:48:14Z</time></trkpt><trkpt lat="43.234093538913044" lon="12.917186940057777"><ele>583.8</ele><time>2026-04-26T07:48:15Z</time></trkpt><trkpt lat="43.234093729773505" lon="12.917031340169848"><ele>586.0</ele><time>2026-04-26T07:48:16Z</time></trkpt><trkpt lat="43.23409825910384" lon="12.916880426328474"><ele>586.0</ele><time>2026-04-26T07:48:17Z</time></trkpt><trkpt lat="43.234103228394034" lon="12.916738722220387"><ele>586.0</ele><time>2026-04-26T07:48:18Z</time></trkpt><trkpt lat="43.23411272523926" lon="12.916602120937409"><ele>586.0</ele><time>2026-04-26T07:48:19Z</time></trkpt><trkpt lat="43.23412236072726" lon="12.916471812493242"><ele>586.0</ele><time>2026-04-26T07:48:20Z</time></trkpt><trkpt lat="43.234143336057315" lon="12.916356946455313"><ele>586.0</ele><time>2026-04-26T07:48:21Z</time></trkpt><trkpt lat="43.23416325242186" lon="12.916259934930917"><ele>588.8</ele><time>2026-04-26T07:48:22Z</time></trkpt><trkpt lat="43.234194684607615" lon="12.916177879218338"><ele>591.6</ele><time>2026-04-26T07:48:23Z</time></trkpt><trkpt lat="43.234251262101886" lon="12.916112463402257"><ele>594.4</ele><time>2026-04-26T07:48:24Z</time></trkpt><trkpt lat="43.23430239745681" lon="12.916043506493804"><ele>597.2</ele><time>2026-04-26T07:48:25Z</time></trkpt><trkpt lat="43.23437028457863" lon="12.915907571534438"><ele>600.0</ele><time>2026-04-26T07:48:27Z</time></trkpt><trkpt lat="43.23438802715313" lon="12.91573447406435"><ele>602.5</ele><time>2026-04-26T07:48:29Z</time></trkpt><trkpt lat="43.234369643424934" lon="12.915616324039783"><ele>605.0</ele><time>2026-04-26T07:48:30Z</time></trkpt><trkpt lat="43.23435147471653" lon="12.915485494617315"><ele>607.5</ele><time>2026-04-26T07:48:31Z</time></trkpt><trkpt lat="43.234337637804735" lon="12.915362356803247"><ele>610.0</ele><time>2026-04-26T07:48:32Z</time></trkpt><trkpt lat="43.23432969661726" lon="12.91524602038745"><ele>612.5</ele><time>2026-04-26T07:48:33Z</time></trkpt><trkpt lat="43.234336361244594" lon="12.915126174896471"><ele>615.0</ele><time>2026-04-26T07:48:34Z</time></trkpt><trkpt lat="43.23433223100209" lon="12.914994958584897"><ele>618.6</ele><time>2026-04-26T07:48:35Z</time></trkpt><trkpt lat="43.23433251693026" lon="12.914846952625936"><ele>622.2</ele><time>2026-04-26T07:48:36Z</time></trkpt><trkpt lat="43.234351101473614" lon="12.914718620489873"><ele>625.8</ele><time>2026-04-26T07:48:37Z</time></trkpt><trkpt lat="43.234362818471126" lon="12.914582735633823"><ele>629.4</ele><time>2026-04-26T07:48:38Z</time></trkpt><trkpt lat="43.234377655966135" lon="12.914462041465736"><ele>633.0</ele><time>2026-04-26T07:48:39Z</time></trkpt><trkpt lat="43.23439445506073" lon="12.914353358544897"><ele>633.0</ele><time>2026-04-26T07:48:40Z</time></trkpt><trkpt lat="43.234419184613714" lon="12.914261869341692"><ele>633.0</ele><time>2026-04-26T07:48:41Z</time></trkpt><trkpt lat="43.23448908736754" lon="12.914128262089537"><ele>633.0</ele><time>2026-04-26T07:48:43Z</time></trkpt><trkpt lat="43.234542598677926" lon="12.914063416020774"><ele>633.0</ele><time>2026-04-26T07:48:45Z</time></trkpt><trkpt lat="43.23456742296173" lon="12.913974885316394"><ele>633.0</ele><time>2026-04-26T07:48:48.001Z</time></trkpt><trkpt lat="43.23455677382818" lon="12.913866642698993"><ele>633.0</ele><time>2026-04-26T07:48:50.001Z</time></trkpt><trkpt lat="43.234540212639665" lon="12.913743764057811"><ele>634.6666666666666</ele><time>2026-04-26T07:48:52.001Z</time></trkpt><trkpt lat="43.23448577454834" lon="12.913610919249722"><ele>636.3333333333334</ele><time>2026-04-26T07:48:54.001Z</time></trkpt><trkpt lat="43.23446282668158" lon="12.913512561530995"><ele>638.0</ele><time>2026-04-26T07:48:55.001Z</time></trkpt><trkpt lat="43.234430547176345" lon="12.913428712657995"><ele>639.6666666666667</ele><time>2026-04-26T07:48:56.001Z</time></trkpt><trkpt lat="43.23438906814064" lon="12.913311499863305"><ele>641.3333333333334</ele><time>2026-04-26T07:48:58.001Z</time></trkpt><trkpt lat="43.234415964630124" lon="12.913231078986723"><ele>643.0</ele><time>2026-04-26T07:49:02.001Z</time></trkpt><trkpt lat="43.23442798936898" lon="12.913111824666393"><ele>644.5</ele><time>2026-04-26T07:49:06.001Z</time></trkpt><trkpt lat="43.23439804846503" lon="12.913029277471018"><ele>646.0</ele><time>2026-04-26T07:49:08.001Z</time></trkpt><trkpt lat="43.23438450258431" lon="12.912862948185557"><ele>647.5</ele><time>2026-04-26T07:49:10.001Z</time></trkpt><trkpt lat="43.23438722641861" lon="12.912769290762231"><ele>649.0</ele><time>2026-04-26T07:49:11.001Z</time></trkpt><trkpt lat="43.23440734193963" lon="12.912678333876068"><ele>650.5</ele><time>2026-04-26T07:49:12.001Z</time></trkpt><trkpt lat="43.234422892184234" lon="12.912588566470973"><ele>652.0</ele><time>2026-04-26T07:49:13.001Z</time></trkpt><trkpt lat="43.23445026424789" lon="12.912485111741226"><ele>653.6666666666667</ele><time>2026-04-26T07:49:14.001Z</time></trkpt><trkpt lat="43.23448856947943" lon="12.912372604167302"><ele>655.3333333333334</ele><time>2026-04-26T07:49:15.001Z</time></trkpt><trkpt lat="43.23452029160007" lon="12.912274415912384"><ele>657.0</ele><time>2026-04-26T07:49:16.001Z</time></trkpt><trkpt lat="43.23455003946764" lon="12.912188090887994"><ele>658.6666666666666</ele><time>2026-04-26T07:49:17.001Z</time></trkpt><trkpt lat="43.23457762176998" lon="12.912101003119108"><ele>660.3333333333333</ele><time>2026-04-26T07:49:18.001Z</time></trkpt><trkpt lat="43.23457988722433" lon="12.911954041616521"><ele>662.0</ele><time>2026-04-26T07:49:20.001Z</time></trkpt><trkpt lat="43.23453397084039" lon="12.911881876516153"><ele>662.0</ele><time>2026-04-26T07:49:22.001Z</time></trkpt><trkpt lat="43.23446857078415" lon="12.911841132628208"><ele>662.0</ele><time>2026-04-26T07:49:25.001Z</time></trkpt><trkpt lat="43.234403466372264" lon="12.911751612796028"><ele>662.0</ele><time>2026-04-26T07:49:28.001Z</time></trkpt><trkpt lat="43.234365394767934" lon="12.911593393016556"><ele>662.0</ele><time>2026-04-26T07:49:30.001Z</time></trkpt><trkpt lat="43.234328486663024" lon="12.911486604567218"><ele>662.0</ele><time>2026-04-26T07:49:31.001Z</time></trkpt><trkpt lat="43.2342943531569" lon="12.911394297892372"><ele>662.0</ele><time>2026-04-26T07:49:32.001Z</time></trkpt><trkpt lat="43.23427669225481" lon="12.911309309835854"><ele>663.8</ele><time>2026-04-26T07:49:33.001Z</time></trkpt><trkpt lat="43.234265484580774" lon="12.911207710683192"><ele>665.6</ele><time>2026-04-26T07:49:34.001Z</time></trkpt><trkpt lat="43.23424013575888" lon="12.91102680941448"><ele>667.4</ele><time>2026-04-26T07:49:36.001Z</time></trkpt><trkpt lat="43.23421313417827" lon="12.910942493861247"><ele>669.1999999999999</ele><time>2026-04-26T07:49:37.001Z</time></trkpt><trkpt lat="43.23414846061586" lon="12.91072570799007"><ele>671.0</ele><time>2026-04-26T07:49:39.001Z</time></trkpt><trkpt lat="43.234159051829565" lon="12.910591673433721"><ele>672.8</ele><time>2026-04-26T07:49:40.001Z</time></trkpt><trkpt lat="43.234206042771774" lon="12.910471200541918"><ele>674.5999999999999</ele><time>2026-04-26T07:49:41.001Z</time></trkpt><trkpt lat="43.23426157470519" lon="12.910358522171174"><ele>676.4</ele><time>2026-04-26T07:49:42.001Z</time></trkpt><trkpt lat="43.23431758064175" lon="12.910236960004134"><ele>678.2</ele><time>2026-04-26T07:49:43.001Z</time></trkpt><trkpt lat="43.2343506657591" lon="12.910078818029113"><ele>680.0</ele><time>2026-04-26T07:49:44.001Z</time></trkpt><trkpt lat="43.23439467147326" lon="12.909905168562466"><ele>682.6666666666666</ele><time>2026-04-26T07:49:45.001Z</time></trkpt><trkpt lat="43.23446671115752" lon="12.90973689117417"><ele>685.3333333333334</ele><time>2026-04-26T07:49:46.001Z</time></trkpt><trkpt lat="43.23452239592513" lon="12.909567270201663"><ele>688.0</ele><time>2026-04-26T07:49:47.001Z</time></trkpt><trkpt lat="43.234561529394284" lon="12.909317432766937"><ele>691.0</ele><time>2026-04-26T07:49:48.001Z</time></trkpt><trkpt lat="43.2346050463802" lon="12.909136830267213"><ele>694.0</ele><time>2026-04-26T07:49:49.001Z</time></trkpt><trkpt lat="43.234629289801106" lon="12.909021453060317"><ele>697.0</ele><time>2026-04-26T07:49:50.001Z</time></trkpt><trkpt lat="43.2346592569724" lon="12.908881655193282"><ele>700.0</ele><time>2026-04-26T07:49:51.001Z</time></trkpt><trkpt lat="43.2346741101505" lon="12.908736709715457"><ele>703.0</ele><time>2026-04-26T07:49:52.001Z</time></trkpt><trkpt lat="43.23467287001789" lon="12.908634058378384"><ele>703.0</ele><time>2026-04-26T07:49:53.001Z</time></trkpt><trkpt lat="43.23463962581962" lon="12.908540626384442"><ele>703.0</ele><time>2026-04-26T07:49:54.001Z</time></trkpt><trkpt lat="43.23454695498385" lon="12.908448332060795"><ele>703.0</ele><time>2026-04-26T07:49:56.001Z</time></trkpt><trkpt lat="43.23448880026887" lon="12.90834300766186"><ele>703.0</ele><time>2026-04-26T07:49:58.001Z</time></trkpt><trkpt lat="43.23441783481779" lon="12.908291739909343"><ele>703.0</ele><time>2026-04-26T07:50:00.001Z</time></trkpt><trkpt lat="43.23431880570919" lon="12.908265084541808"><ele>708.4</ele><time>2026-04-26T07:50:02.001Z</time></trkpt><trkpt lat="43.23420888059389" lon="12.90820339935814"><ele>713.8</ele><time>2026-04-26T07:50:04.001Z</time></trkpt><trkpt lat="43.234106646232284" lon="12.908130688485063"><ele>719.2</ele><time>2026-04-26T07:50:06.001Z</time></trkpt><trkpt lat="43.23405019627978" lon="12.908089891894967"><ele>724.6</ele><time>2026-04-26T07:50:07.001Z</time></trkpt><trkpt lat="43.23398998619772" lon="12.908054187010839"><ele>730.0</ele><time>2026-04-26T07:50:08.001Z</time></trkpt><trkpt lat="43.23388500070528" lon="12.908002855250844"><ele>731.0</ele><time>2026-04-26T07:50:10.001Z</time></trkpt><trkpt lat="43.23377328336463" lon="12.907968270157761"><ele>732.0</ele><time>2026-04-26T07:50:12.001Z</time></trkpt><trkpt lat="43.23365431930113" lon="12.907930510942466"><ele>733.0</ele><time>2026-04-26T07:50:14.001Z</time></trkpt><trkpt lat="43.23355180112939" lon="12.907915865268484"><ele>734.0</ele><time>2026-04-26T07:50:16.001Z</time></trkpt><trkpt lat="43.233486607511075" lon="12.907892336135404"><ele>735.0</ele><time>2026-04-26T07:50:17.001Z</time></trkpt><trkpt lat="43.23342023821668" lon="12.9078613818018"><ele>735.0</ele><time>2026-04-26T07:50:19.001Z</time></trkpt><trkpt lat="43.23342436172475" lon="12.907742253341196"><ele>735.0</ele><time>2026-04-26T07:50:23.001Z</time></trkpt><trkpt lat="43.23341379073698" lon="12.907651983955986"><ele>735.0</ele><time>2026-04-26T07:50:25.001Z</time></trkpt><trkpt lat="43.233397459385294" lon="12.907545529519624"><ele>735.0</ele><time>2026-04-26T07:50:27.001Z</time></trkpt><trkpt lat="43.23336909498793" lon="12.907465779212883"><ele>735.0</ele><time>2026-04-26T07:50:29Z</time></trkpt><trkpt lat="43.233347015268194" lon="12.907382223418658"><ele>735.0</ele><time>2026-04-26T07:50:31Z</time></trkpt><trkpt lat="43.23331934255697" lon="12.907285663606084"><ele>735.0</ele><time>2026-04-26T07:50:33Z</time></trkpt><trkpt lat="43.23329686815424" lon="12.907200543120556"><ele>739.5714285714286</ele><time>2026-04-26T07:50:35Z</time></trkpt><trkpt lat="43.23331918579055" lon="12.907118866083321"><ele>744.1428571428571</ele><time>2026-04-26T07:50:39Z</time></trkpt><trkpt lat="43.233362375245946" lon="12.907040916109654"><ele>748.7142857142858</ele><time>2026-04-26T07:50:43Z</time></trkpt><trkpt lat="43.23340017046042" lon="12.906957642530628"><ele>753.2857142857142</ele><time>2026-04-26T07:50:46Z</time></trkpt><trkpt lat="43.23345713118173" lon="12.906890969334542"><ele>757.8571428571429</ele><time>2026-04-26T07:50:49Z</time></trkpt><trkpt lat="43.23351708739717" lon="12.906790062567701"><ele>762.4285714285714</ele><time>2026-04-26T07:50:52Z</time></trkpt><trkpt lat="43.233558721887896" lon="12.90672345666646"><ele>767.0</ele><time>2026-04-26T07:50:54Z</time></trkpt><trkpt lat="43.23360977955945" lon="12.906663977151688"><ele>774.6</ele><time>2026-04-26T07:50:56Z</time></trkpt><trkpt lat="43.23366528726989" lon="12.906566208041374"><ele>782.2</ele><time>2026-04-26T07:50:58Z</time></trkpt><trkpt lat="43.23372150573401" lon="12.906474367440753"><ele>789.8</ele><time>2026-04-26T07:51:00Z</time></trkpt><trkpt lat="43.23379456977945" lon="12.906353158450353"><ele>797.4</ele><time>2026-04-26T07:51:02Z</time></trkpt><trkpt lat="43.233887284367235" lon="12.906308297019361"><ele>805.0</ele><time>2026-04-26T07:51:04Z</time></trkpt><trkpt lat="43.23395462165836" lon="12.90625707787367"><ele>803.9999999999999</ele><time>2026-04-26T07:51:05Z</time></trkpt><trkpt lat="43.23402429445968" lon="12.906205526998308"><ele>803.0</ele><time>2026-04-26T07:51:06Z</time></trkpt><trkpt lat="43.23408682242115" lon="12.90615525382065"><ele>802.0</ele><time>2026-04-26T07:51:07Z</time></trkpt><trkpt lat="43.23415022468641" lon="12.906095243589023"><ele>801.0</ele><time>2026-04-26T07:51:08Z</time></trkpt><trkpt lat="43.234222603464566" lon="12.906040452658772"><ele>799.9999999999999</ele><time>2026-04-26T07:51:09Z</time></trkpt><trkpt lat="43.23430291172905" lon="12.905980087804931"><ele>799.0</ele><time>2026-04-26T07:51:10Z</time></trkpt><trkpt lat="43.23436827984276" lon="12.905934037404819"><ele>803.9999999999999</ele><time>2026-04-26T07:51:11Z</time></trkpt><trkpt lat="43.23443209278788" lon="12.905893298552227"><ele>809.0</ele><time>2026-04-26T07:51:12Z</time></trkpt><trkpt lat="43.234491940330244" lon="12.905845558662849"><ele>814.0</ele><time>2026-04-26T07:51:13Z</time></trkpt><trkpt lat="43.234594121509225" lon="12.905788278483147"><ele>819.0</ele><time>2026-04-26T07:51:15Z</time></trkpt><trkpt lat="43.23467280928846" lon="12.905760925579894"><ele>823.9999999999999</ele><time>2026-04-26T07:51:17Z</time></trkpt><trkpt lat="43.23476449125841" lon="12.905713520438463"><ele>829.0</ele><time>2026-04-26T07:51:20Z</time></trkpt><trkpt lat="43.234838283259464" lon="12.905680219300542"><ele>828.9999999999999</ele><time>2026-04-26T07:51:22Z</time></trkpt><trkpt lat="43.23494314822359" lon="12.905672174953898"><ele>829.0</ele><time>2026-04-26T07:51:24Z</time></trkpt><trkpt lat="43.23501713068734" lon="12.905672915511971"><ele>829.0</ele><time>2026-04-26T07:51:26Z</time></trkpt><trkpt lat="43.235075400663746" lon="12.9056347966772"><ele>829.0</ele><time>2026-04-26T07:51:27Z</time></trkpt><trkpt lat="43.235137142782435" lon="12.905606816597906"><ele>828.9999999999999</ele><time>2026-04-26T07:51:28Z</time></trkpt><trkpt lat="43.235216732354615" lon="12.905596402323162"><ele>829.0</ele><time>2026-04-26T07:51:29Z</time></trkpt><trkpt lat="43.23537643653307" lon="12.905640311326362"><ele>828.9999999999999</ele><time>2026-04-26T07:51:31Z</time></trkpt><trkpt lat="43.235459308449855" lon="12.90564906352675"><ele>829.0</ele><time>2026-04-26T07:51:32Z</time></trkpt><trkpt lat="43.23553652374157" lon="12.90566271289596"><ele>829.0</ele><time>2026-04-26T07:51:33Z</time></trkpt><trkpt lat="43.23561759297798" lon="12.905679483190482"><ele>829.0</ele><time>2026-04-26T07:51:34Z</time></trkpt><trkpt lat="43.23569700935922" lon="12.90569469278812"><ele>828.9999999999999</ele><time>2026-04-26T07:51:35Z</time></trkpt><trkpt lat="43.23576379604785" lon="12.905695767103586"><ele>829.0</ele><time>2026-04-26T07:51:36Z</time></trkpt><trkpt lat="43.23584084841149" lon="12.905681335530529"><ele>829.6666666666666</ele><time>2026-04-26T07:51:37Z</time></trkpt><trkpt lat="43.235915585456894" lon="12.905675965580729"><ele>830.3333333333333</ele><time>2026-04-26T07:51:38Z</time></trkpt><trkpt lat="43.23599193908798" lon="12.905685336864554"><ele>831.0</ele><time>2026-04-26T07:51:39Z</time></trkpt><trkpt lat="43.236079813731585" lon="12.905673995697066"><ele>831.6666666666667</ele><time>2026-04-26T07:51:40Z</time></trkpt><trkpt lat="43.23616956985873" lon="12.90564848318801"><ele>832.3333333333334</ele><time>2026-04-26T07:51:41Z</time></trkpt><trkpt lat="43.23624081111995" lon="12.905649806184726"><ele>833.0</ele><time>2026-04-26T07:51:42Z</time></trkpt><trkpt lat="43.23632329527226" lon="12.905687300421514"><ele>833.0000000000001</ele><time>2026-04-26T07:51:43Z</time></trkpt><trkpt lat="43.23639251480333" lon="12.905739793615929"><ele>833.0</ele><time>2026-04-26T07:51:44Z</time></trkpt><trkpt lat="43.23645590665971" lon="12.905786064584747"><ele>833.0</ele><time>2026-04-26T07:51:45Z</time></trkpt><trkpt lat="43.23652491945184" lon="12.905824972152757"><ele>833.0</ele><time>2026-04-26T07:51:46Z</time></trkpt><trkpt lat="43.2365857324377" lon="12.905858776781194"><ele>833.0000000000001</ele><time>2026-04-26T07:51:47Z</time></trkpt><trkpt lat="43.23667180114494" lon="12.905900402042567"><ele>833.0</ele><time>2026-04-26T07:51:48Z</time></trkpt><trkpt lat="43.23674086063541" lon="12.905929558480015"><ele>832.6666666666667</ele><time>2026-04-26T07:51:49Z</time></trkpt><trkpt lat="43.23681601546566" lon="12.905957756157344"><ele>832.3333333333334</ele><time>2026-04-26T07:51:51Z</time></trkpt><trkpt lat="43.23681381174451" lon="12.905845537072564"><ele>832.0</ele><time>2026-04-26T07:51:55Z</time></trkpt><trkpt lat="43.23679710255233" lon="12.905690770163927"><ele>831.6666666666667</ele><time>2026-04-26T07:51:57Z</time></trkpt><trkpt lat="43.23678371154355" lon="12.905601782327581"><ele>831.3333333333334</ele><time>2026-04-26T07:51:58Z</time></trkpt><trkpt lat="43.23674248059041" lon="12.905500730003537"><ele>831.0</ele><time>2026-04-26T07:51:59Z</time></trkpt><trkpt lat="43.23670732844987" lon="12.905401533797292"><ele>835.0</ele><time>2026-04-26T07:52:00Z</time></trkpt><trkpt lat="43.23669737835321" lon="12.9052454883666"><ele>839.0</ele><time>2026-04-26T07:52:02Z</time></trkpt><trkpt lat="43.23666257546092" lon="12.90516133161672"><ele>843.0</ele><time>2026-04-26T07:52:04Z</time></trkpt><trkpt lat="43.23659517171064" lon="12.905100527753099"><ele>847.0</ele><time>2026-04-26T07:52:06Z</time></trkpt><trkpt lat="43.23649857748124" lon="12.905072156797392"><ele>851.0</ele><time>2026-04-26T07:52:08Z</time></trkpt><trkpt lat="43.23640803964263" lon="12.90502028454863"><ele>853.6666666666667</ele><time>2026-04-26T07:52:10Z</time></trkpt><trkpt lat="43.23630728040663" lon="12.904969712627816"><ele>856.3333333333334</ele><time>2026-04-26T07:52:12Z</time></trkpt><trkpt lat="43.236246873233796" lon="12.904938067141934"><ele>859.0</ele><time>2026-04-26T07:52:13Z</time></trkpt><trkpt lat="43.23618754725745" lon="12.904895619148533"><ele>861.6666666666667</ele><time>2026-04-26T07:52:14Z</time></trkpt><trkpt lat="43.23612606745462" lon="12.904842398622568"><ele>864.3333333333334</ele><time>2026-04-26T07:52:15Z</time></trkpt><trkpt lat="43.23606261536326" lon="12.904782463132923"><ele>867.0</ele><time>2026-04-26T07:52:16Z</time></trkpt><trkpt lat="43.23599955386567" lon="12.904716381888504"><ele>867.0</ele><time>2026-04-26T07:52:17Z</time></trkpt><trkpt lat="43.235940850372494" lon="12.90464615264918"><ele>867.0</ele><time>2026-04-26T07:52:18Z</time></trkpt><trkpt lat="43.23587024972778" lon="12.904587626685972"><ele>867.0</ele><time>2026-04-26T07:52:19Z</time></trkpt><trkpt lat="43.235788642982584" lon="12.904520590645136"><ele>867.0</ele><time>2026-04-26T07:52:20Z</time></trkpt><trkpt lat="43.23570823238121" lon="12.90445370270736"><ele>867.0</ele><time>2026-04-26T07:52:21Z</time></trkpt><trkpt lat="43.235628540244335" lon="12.904400270511559"><ele>867.0</ele><time>2026-04-26T07:52:22Z</time></trkpt><trkpt lat="43.23550155524332" lon="12.904359463780551"><ele>867.0</ele><time>2026-04-26T07:52:24Z</time></trkpt><trkpt lat="43.23536457849685" lon="12.904317840558653"><ele>867.0</ele><time>2026-04-26T07:52:26Z</time></trkpt><trkpt lat="43.23528884982117" lon="12.904305565130443"><ele>867.0</ele><time>2026-04-26T07:52:27Z</time></trkpt><trkpt lat="43.23520052700807" lon="12.904293480595777"><ele>867.0</ele><time>2026-04-26T07:52:28Z</time></trkpt><trkpt lat="43.23511315625098" lon="12.904274992226561"><ele>867.0</ele><time>2026-04-26T07:52:29Z</time></trkpt><trkpt lat="43.235035366530106" lon="12.904267844296546"><ele>867.0</ele><time>2026-04-26T07:52:30Z</time></trkpt><trkpt lat="43.23495919876124" lon="12.904252696184253"><ele>867.0</ele><time>2026-04-26T07:52:31Z</time></trkpt><trkpt lat="43.234879123866165" lon="12.904235689339966"><ele>867.0</ele><time>2026-04-26T07:52:32Z</time></trkpt><trkpt lat="43.23480550111226" lon="12.904219884177879"><ele>867.0</ele><time>2026-04-26T07:52:33Z</time></trkpt><trkpt lat="43.23472239091835" lon="12.904216788125833"><ele>867.0</ele><time>2026-04-26T07:52:34Z</time></trkpt><trkpt lat="43.23464250342445" lon="12.904193929972138"><ele>867.0</ele><time>2026-04-26T07:52:35Z</time></trkpt><trkpt lat="43.234544274957" lon="12.90415063652606"><ele>876.0</ele><time>2026-04-26T07:52:36Z</time></trkpt><trkpt lat="43.234450146650936" lon="12.904103611138034"><ele>885.0</ele><time>2026-04-26T07:52:37Z</time></trkpt><trkpt lat="43.23436474743852" lon="12.904081504949701"><ele>894.0</ele><time>2026-04-26T07:52:38Z</time></trkpt><trkpt lat="43.234272009099335" lon="12.904051106554725"><ele>903.0</ele><time>2026-04-26T07:52:39Z</time></trkpt><trkpt lat="43.234175846721875" lon="12.90402536588019"><ele>912.0</ele><time>2026-04-26T07:52:40Z</time></trkpt><trkpt lat="43.23408658033216" lon="12.903996578570242"><ele>912.0</ele><time>2026-04-26T07:52:41Z</time></trkpt><trkpt lat="43.23399786892088" lon="12.903965227017002"><ele>912.0</ele><time>2026-04-26T07:52:42Z</time></trkpt><trkpt lat="43.23390827875693" lon="12.903946034459434"><ele>912.0</ele><time>2026-04-26T07:52:43Z</time></trkpt><trkpt lat="43.23382469224526" lon="12.903939746623829"><ele>912.0</ele><time>2026-04-26T07:52:44Z</time></trkpt><trkpt lat="43.23375327593923" lon="12.90393173827812"><ele>912.0</ele><time>2026-04-26T07:52:45Z</time></trkpt><trkpt lat="43.23365093550832" lon="12.903924935326838"><ele>912.0</ele><time>2026-04-26T07:52:47Z</time></trkpt><trkpt lat="43.23351768848588" lon="12.903919723755857"><ele>912.6666666666666</ele><time>2026-04-26T07:52:49Z</time></trkpt><trkpt lat="43.23345014482106" lon="12.903918969026293"><ele>913.3333333333333</ele><time>2026-04-26T07:52:50Z</time></trkpt><trkpt lat="43.23338722005031" lon="12.903915693237341"><ele>914.0</ele><time>2026-04-26T07:52:51Z</time></trkpt><trkpt lat="43.23328846409913" lon="12.903918888181805"><ele>914.6666666666666</ele><time>2026-04-26T07:52:53Z</time></trkpt><trkpt lat="43.23319883149799" lon="12.903898866913009"><ele>915.3333333333333</ele><time>2026-04-26T07:52:55Z</time></trkpt><trkpt lat="43.23313791630175" lon="12.903875689554129"><ele>916.0</ele><time>2026-04-26T07:52:57Z</time></trkpt><trkpt lat="43.2330295695098" lon="12.903881170651687"><ele>917.4285714285713</ele><time>2026-04-26T07:53:00Z</time></trkpt><trkpt lat="43.23296681604449" lon="12.903889368700463"><ele>918.8571428571429</ele><time>2026-04-26T07:53:01Z</time></trkpt><trkpt lat="43.23289471687328" lon="12.903909988537233"><ele>920.2857142857142</ele><time>2026-04-26T07:53:02Z</time></trkpt><trkpt lat="43.2328134779603" lon="12.903919421538662"><ele>921.7142857142857</ele><time>2026-04-26T07:53:03Z</time></trkpt><trkpt lat="43.232740140652034" lon="12.903953763908202"><ele>923.1428571428571</ele><time>2026-04-26T07:53:04Z</time></trkpt><trkpt lat="43.232665321414935" lon="12.90397748517013"><ele>924.5714285714286</ele><time>2026-04-26T07:53:05Z</time></trkpt><trkpt lat="43.23259488880161" lon="12.903965886207033"><ele>926.0</ele><time>2026-04-26T07:53:06Z</time></trkpt><trkpt lat="43.232523979058" lon="12.903952417643833"><ele>926.0</ele><time>2026-04-26T07:53:07Z</time></trkpt><trkpt lat="43.23243286099356" lon="12.90396275744895"><ele>925.9999999999999</ele><time>2026-04-26T07:53:08Z</time></trkpt><trkpt lat="43.23233353616083" lon="12.90396071739321"><ele>925.9999999999999</ele><time>2026-04-26T07:53:09Z</time></trkpt><trkpt lat="43.232224226400604" lon="12.903992787528571"><ele>926.0</ele><time>2026-04-26T07:53:10Z</time></trkpt><trkpt lat="43.23213560073802" lon="12.903970917390874"><ele>926.0</ele><time>2026-04-26T07:53:11Z</time></trkpt><trkpt lat="43.23205344901331" lon="12.903992284913283"><ele>927.8333333333334</ele><time>2026-04-26T07:53:12Z</time></trkpt><trkpt lat="43.23198907905328" lon="12.903987286594754"><ele>929.6666666666667</ele><time>2026-04-26T07:53:13Z</time></trkpt><trkpt lat="43.231927820108204" lon="12.904007857526992"><ele>931.5</ele><time>2026-04-26T07:53:14Z</time></trkpt><trkpt lat="43.2318601589402" lon="12.904007044157787"><ele>933.3333333333333</ele><time>2026-04-26T07:53:15Z</time></trkpt><trkpt lat="43.23178932083442" lon="12.903989272379683"><ele>935.1666666666666</ele><time>2026-04-26T07:53:16Z</time></trkpt><trkpt lat="43.23167179608708" lon="12.904021552912525"><ele>937.0</ele><time>2026-04-26T07:53:18Z</time></trkpt><trkpt lat="43.231601675203756" lon="12.903993972830415"><ele>936.9999999999999</ele><time>2026-04-26T07:53:19Z</time></trkpt><trkpt lat="43.23153065883904" lon="12.90396867366467"><ele>937.0</ele><time>2026-04-26T07:53:20Z</time></trkpt><trkpt lat="43.23146658288157" lon="12.903946064662245"><ele>937.0</ele><time>2026-04-26T07:53:21Z</time></trkpt><trkpt lat="43.23140188827402" lon="12.90394887947176"><ele>937.0</ele><time>2026-04-26T07:53:22Z</time></trkpt><trkpt lat="43.23131561367707" lon="12.903937544050475"><ele>936.9999999999999</ele><time>2026-04-26T07:53:24Z</time></trkpt><trkpt lat="43.23123076464753" lon="12.903910296783009"><ele>937.0</ele><time>2026-04-26T07:53:27Z</time></trkpt><trkpt lat="43.23113839889753" lon="12.903906222082968"><ele>937.4999999999999</ele><time>2026-04-26T07:53:30Z</time></trkpt><trkpt lat="43.23106731389357" lon="12.903904470897906"><ele>938.0</ele><time>2026-04-26T07:53:32Z</time></trkpt><trkpt lat="43.23096231265382" lon="12.903924823382534"><ele>938.5</ele><time>2026-04-26T07:53:34Z</time></trkpt><trkpt lat="43.23089607997312" lon="12.903921092084717"><ele>939.0</ele><time>2026-04-26T07:53:35Z</time></trkpt><trkpt lat="43.23076846466566" lon="12.903941703693313"><ele>939.4999999999999</ele><time>2026-04-26T07:53:37Z</time></trkpt><trkpt lat="43.23070495422467" lon="12.903952411251375"><ele>940.0</ele><time>2026-04-26T07:53:38Z</time></trkpt><trkpt lat="43.230642941410835" lon="12.903968345631629"><ele>938.9999999999999</ele><time>2026-04-26T07:53:39Z</time></trkpt><trkpt lat="43.23057910761683" lon="12.903971184480836"><ele>938.0</ele><time>2026-04-26T07:53:40Z</time></trkpt><trkpt lat="43.23051282789665" lon="12.903977535508773"><ele>937.0</ele><time>2026-04-26T07:53:41Z</time></trkpt><trkpt lat="43.23039331969238" lon="12.90396689751292"><ele>936.0</ele><time>2026-04-26T07:53:43Z</time></trkpt><trkpt lat="43.230280508814396" lon="12.903960475412612"><ele>934.9999999999999</ele><time>2026-04-26T07:53:45Z</time></trkpt><trkpt lat="43.23020711303432" lon="12.90396867913529"><ele>934.0</ele><time>2026-04-26T07:53:46Z</time></trkpt><trkpt lat="43.230126257324315" lon="12.90398794423982"><ele>933.9999999999999</ele><time>2026-04-26T07:53:47Z</time></trkpt><trkpt lat="43.230043318245784" lon="12.904000729412141"><ele>934.0</ele><time>2026-04-26T07:53:48Z</time></trkpt><trkpt lat="43.22995526712989" lon="12.903994672534235"><ele>934.0</ele><time>2026-04-26T07:53:49Z</time></trkpt><trkpt lat="43.229878098019874" lon="12.903994763017536"><ele>934.0</ele><time>2026-04-26T07:53:50Z</time></trkpt><trkpt lat="43.229803136545634" lon="12.903985696613347"><ele>933.9999999999999</ele><time>2026-04-26T07:53:51Z</time></trkpt><trkpt lat="43.2297308209675" lon="12.903981056089137"><ele>934.0</ele><time>2026-04-26T07:53:52Z</time></trkpt><trkpt lat="43.229660948182136" lon="12.903969680610208"><ele>933.5714285714284</ele><time>2026-04-26T07:53:53Z</time></trkpt><trkpt lat="43.22959467802219" lon="12.903946726240184"><ele>933.1428571428571</ele><time>2026-04-26T07:53:54Z</time></trkpt><trkpt lat="43.229530324884024" lon="12.903922916121125"><ele>932.7142857142857</ele><time>2026-04-26T07:53:55Z</time></trkpt><trkpt lat="43.22946326177803" lon="12.903916350891672"><ele>932.2857142857142</ele><time>2026-04-26T07:53:56Z</time></trkpt><trkpt lat="43.22939575618857" lon="12.903890357000401"><ele>931.8571428571429</ele><time>2026-04-26T07:53:57Z</time></trkpt><trkpt lat="43.22932508335887" lon="12.903864879362215"><ele>931.4285714285714</ele><time>2026-04-26T07:53:58Z</time></trkpt><trkpt lat="43.2292571609602" lon="12.903833085223233"><ele>931.0</ele><time>2026-04-26T07:53:59Z</time></trkpt><trkpt lat="43.229197618302656" lon="12.903803185553231"><ele>930.9999999999999</ele><time>2026-04-26T07:54:00Z</time></trkpt><trkpt lat="43.229083184983374" lon="12.903734830742831"><ele>931.0</ele><time>2026-04-26T07:54:02Z</time></trkpt><trkpt lat="43.22902258308665" lon="12.903681448529325"><ele>931.0</ele><time>2026-04-26T07:54:03Z</time></trkpt><trkpt lat="43.22896299096941" lon="12.903627257635502"><ele>931.0</ele><time>2026-04-26T07:54:04Z</time></trkpt><trkpt lat="43.22889373583399" lon="12.903565609082833"><ele>930.9999999999999</ele><time>2026-04-26T07:54:05Z</time></trkpt><trkpt lat="43.22882765538813" lon="12.903499584470683"><ele>931.0</ele><time>2026-04-26T07:54:06Z</time></trkpt><trkpt lat="43.228758671528446" lon="12.903451992945858"><ele>932.9999999999999</ele><time>2026-04-26T07:54:07Z</time></trkpt><trkpt lat="43.22870344331314" lon="12.903401706390062"><ele>935.0</ele><time>2026-04-26T07:54:08Z</time></trkpt><trkpt lat="43.228613632617495" lon="12.903286438676119"><ele>937.0</ele><time>2026-04-26T07:54:10Z</time></trkpt><trkpt lat="43.22856152192833" lon="12.903213056018922"><ele>939.0</ele><time>2026-04-26T07:54:12Z</time></trkpt><trkpt lat="43.22850327779505" lon="12.903151081690174"><ele>940.9999999999999</ele><time>2026-04-26T07:54:15Z</time></trkpt><trkpt lat="43.228447226409536" lon="12.903101530861065"><ele>943.0</ele><time>2026-04-26T07:54:17Z</time></trkpt><trkpt lat="43.2283768847364" lon="12.903036620056604"><ele>942.9999999999999</ele><time>2026-04-26T07:54:19Z</time></trkpt><trkpt lat="43.22829516100117" lon="12.902963193973646"><ele>943.0</ele><time>2026-04-26T07:54:21Z</time></trkpt><trkpt lat="43.22824371360199" lon="12.90289837508734"><ele>943.0</ele><time>2026-04-26T07:54:23Z</time></trkpt><trkpt lat="43.22819225129784" lon="12.902839594632015"><ele>943.0</ele><time>2026-04-26T07:54:25Z</time></trkpt><trkpt lat="43.228147547940424" lon="12.90275183004878"><ele>942.9999999999999</ele><time>2026-04-26T07:54:27Z</time></trkpt><trkpt lat="43.22810835245896" lon="12.902667605957632"><ele>943.0</ele><time>2026-04-26T07:54:29Z</time></trkpt><trkpt lat="43.22807238772556" lon="12.902543361926512"><ele>938.3333333333333</ele><time>2026-04-26T07:54:32Z</time></trkpt><trkpt lat="43.228021304754876" lon="12.902414367844672"><ele>933.6666666666666</ele><time>2026-04-26T07:54:34Z</time></trkpt><trkpt lat="43.228036956567045" lon="12.902318597906353"><ele>929.0</ele><time>2026-04-26T07:54:35Z</time></trkpt><trkpt lat="43.228046125056885" lon="12.902231626583767"><ele>924.3333333333333</ele><time>2026-04-26T07:54:36Z</time></trkpt><trkpt lat="43.22805054003365" lon="12.902140891449488"><ele>919.6666666666666</ele><time>2026-04-26T07:54:37Z</time></trkpt><trkpt lat="43.22806312822967" lon="12.902006786001914"><ele>915.0</ele><time>2026-04-26T07:54:39Z</time></trkpt><trkpt lat="43.22811094789258" lon="12.901867227790635"><ele>915.0</ele><time>2026-04-26T07:54:41Z</time></trkpt><trkpt lat="43.22809699882646" lon="12.901737012860472"><ele>915.0</ele><time>2026-04-26T07:54:43Z</time></trkpt><trkpt lat="43.228053855043115" lon="12.901599254775434"><ele>915.0</ele><time>2026-04-26T07:54:45Z</time></trkpt><trkpt lat="43.228031679919944" lon="12.901505045813364"><ele>915.0</ele><time>2026-04-26T07:54:46Z</time></trkpt><trkpt lat="43.22799604468727" lon="12.901393990590455"><ele>915.0</ele><time>2026-04-26T07:54:48Z</time></trkpt><trkpt lat="43.227978433650414" lon="12.901307515961193"><ele>915.0</ele><time>2026-04-26T07:54:50Z</time></trkpt><trkpt lat="43.22795461720727" lon="12.901213947626106"><ele>915.0</ele><time>2026-04-26T07:54:52Z</time></trkpt><trkpt lat="43.227935023477535" lon="12.901122479750091"><ele>915.0</ele><time>2026-04-26T07:54:54Z</time></trkpt><trkpt lat="43.22792708686869" lon="12.901006255154703"><ele>915.0</ele><time>2026-04-26T07:54:56Z</time></trkpt><trkpt lat="43.227900953823955" lon="12.90087320582616"><ele>915.0</ele><time>2026-04-26T07:54:58Z</time></trkpt><trkpt lat="43.227880578586834" lon="12.900735691099538"><ele>915.0</ele><time>2026-04-26T07:55:00Z</time></trkpt><trkpt lat="43.22785390486829" lon="12.900604014875908"><ele>918.8</ele><time>2026-04-26T07:55:02Z</time></trkpt><trkpt lat="43.22785302745665" lon="12.900508125199536"><ele>922.6</ele><time>2026-04-26T07:55:03Z</time></trkpt><trkpt lat="43.22784006497098" lon="12.900356648696302"><ele>926.4000000000001</ele><time>2026-04-26T07:55:05Z</time></trkpt><trkpt lat="43.2278220274019" lon="12.900206860127733"><ele>930.2</ele><time>2026-04-26T07:55:07Z</time></trkpt><trkpt lat="43.22779972921431" lon="12.90005507277278"><ele>934.0</ele><time>2026-04-26T07:55:09Z</time></trkpt><trkpt lat="43.22776250403185" lon="12.89989415688756"><ele>937.4000000000001</ele><time>2026-04-26T07:55:11Z</time></trkpt><trkpt lat="43.22774399864607" lon="12.899800817638228"><ele>940.8000000000001</ele><time>2026-04-26T07:55:12Z</time></trkpt><trkpt lat="43.227701918105275" lon="12.899644249454354"><ele>944.1999999999999</ele><time>2026-04-26T07:55:14Z</time></trkpt><trkpt lat="43.22765634488652" lon="12.899507239381181"><ele>947.5999999999999</ele><time>2026-04-26T07:55:16Z</time></trkpt><trkpt lat="43.22761757648821" lon="12.89937665100111"><ele>951.0</ele><time>2026-04-26T07:55:18Z</time></trkpt><trkpt lat="43.227638879194494" lon="12.899292800920914"><ele>953.75</ele><time>2026-04-26T07:55:20Z</time></trkpt><trkpt lat="43.22762226659195" lon="12.899160524895894"><ele>956.5</ele><time>2026-04-26T07:55:22Z</time></trkpt><trkpt lat="43.22760609571696" lon="12.89898930542748"><ele>959.25</ele><time>2026-04-26T07:55:24Z</time></trkpt><trkpt lat="43.2275788062302" lon="12.898815762489582"><ele>962.0</ele><time>2026-04-26T07:55:26Z</time></trkpt><trkpt lat="43.2275882370933" lon="12.898661335383046"><ele>961.9999999999999</ele><time>2026-04-26T07:55:28Z</time></trkpt><trkpt lat="43.227603671088225" lon="12.898562652135789"><ele>962.0</ele><time>2026-04-26T07:55:31Z</time></trkpt><trkpt lat="43.22758515215946" lon="12.898468346308665"><ele>961.9999999999999</ele><time>2026-04-26T07:55:33Z</time></trkpt><trkpt lat="43.22755694145108" lon="12.898370783253748"><ele>961.9999999999999</ele><time>2026-04-26T07:55:35Z</time></trkpt><trkpt lat="43.2275468500666" lon="12.89824421704925"><ele>962.0</ele><time>2026-04-26T07:55:39Z</time></trkpt><trkpt lat="43.22752816277778" lon="12.89815451532976"><ele>961.9999999999999</ele><time>2026-04-26T07:55:41Z</time></trkpt><trkpt lat="43.22750724654827" lon="12.898068485230208"><ele>961.9999999999999</ele><time>2026-04-26T07:55:43Z</time></trkpt><trkpt lat="43.227504499889854" lon="12.897978622217634"><ele>965.3333333333334</ele><time>2026-04-26T07:55:45Z</time></trkpt><trkpt lat="43.22748192581912" lon="12.897874308624617"><ele>968.6666666666667</ele><time>2026-04-26T07:55:47Z</time></trkpt><trkpt lat="43.227451199172215" lon="12.897756816801914"><ele>972.0</ele><time>2026-04-26T07:55:49Z</time></trkpt><trkpt lat="43.22741059842389" lon="12.897655606002925"><ele>975.3333333333333</ele><time>2026-04-26T07:55:52Z</time></trkpt><trkpt lat="43.22741941910491" lon="12.897560367741667"><ele>978.6666666666666</ele><time>2026-04-26T07:55:55Z</time></trkpt><trkpt lat="43.22745186989367" lon="12.897466719299256"><ele>982.0</ele><time>2026-04-26T07:55:57Z</time></trkpt><trkpt lat="43.227491244809386" lon="12.897387046056197"><ele>985.4999999999999</ele><time>2026-04-26T07:55:59Z</time></trkpt><trkpt lat="43.22756798942375" lon="12.897320136115315"><ele>989.0</ele><time>2026-04-26T07:56:02Z</time></trkpt><trkpt lat="43.227541157724694" lon="12.897205597234995"><ele>992.5</ele><time>2026-04-26T07:56:05Z</time></trkpt><trkpt lat="43.227517268078124" lon="12.897115040507021"><ele>996.0</ele><time>2026-04-26T07:56:12Z</time></trkpt><trkpt lat="43.227516747899536" lon="12.897023241524105"><ele>999.4999999999999</ele><time>2026-04-26T07:56:15Z</time></trkpt><trkpt lat="43.227480568068906" lon="12.896938846344053"><ele>1003.0</ele><time>2026-04-26T07:56:19Z</time></trkpt><trkpt lat="43.22741813335475" lon="12.896888228359472"><ele>1002.9999999999999</ele><time>2026-04-26T07:56:23Z</time></trkpt><trkpt lat="43.22737582892854" lon="12.89681861681384"><ele>1003.0</ele><time>2026-04-26T07:56:25Z</time></trkpt><trkpt lat="43.22738195433099" lon="12.896698768791335"><ele>1003.0</ele><time>2026-04-26T07:56:28Z</time></trkpt><trkpt lat="43.22740358815492" lon="12.896596058648505"><ele>1003.0</ele><time>2026-04-26T07:56:30Z</time></trkpt><trkpt lat="43.227400986739624" lon="12.896469046138924"><ele>1002.9999999999999</ele><time>2026-04-26T07:56:32Z</time></trkpt><trkpt lat="43.227462153890635" lon="12.896345445730782"><ele>1003.0</ele><time>2026-04-26T07:56:34Z</time></trkpt><trkpt lat="43.22750998722296" lon="12.896226052808254"><ele>1007.2</ele><time>2026-04-26T07:56:36Z</time></trkpt><trkpt lat="43.22756659525983" lon="12.896104945583463"><ele>1011.4</ele><time>2026-04-26T07:56:38Z</time></trkpt><trkpt lat="43.227628930025055" lon="12.895995071227347"><ele>1015.6000000000001</ele><time>2026-04-26T07:56:40Z</time></trkpt><trkpt lat="43.22767387158738" lon="12.89590470324158"><ele>1019.8000000000001</ele><time>2026-04-26T07:56:42Z</time></trkpt><trkpt lat="43.2277188941928" lon="12.895778564004173"><ele>1024.0</ele><time>2026-04-26T07:56:44Z</time></trkpt><trkpt lat="43.227741195806466" lon="12.895674306354172"><ele>1024.5</ele><time>2026-04-26T07:56:46Z</time></trkpt><trkpt lat="43.22775669197974" lon="12.895571098669155"><ele>1025.0</ele><time>2026-04-26T07:56:48Z</time></trkpt><trkpt lat="43.22774325819097" lon="12.895476397525178"><ele>1025.5</ele><time>2026-04-26T07:56:50Z</time></trkpt><trkpt lat="43.22773545893686" lon="12.895344205362496"><ele>1026.0</ele><time>2026-04-26T07:56:53Z</time></trkpt><trkpt lat="43.22769835393738" lon="12.895273951457332"><ele>1026.5</ele><time>2026-04-26T07:56:55Z</time></trkpt><trkpt lat="43.227649680483786" lon="12.895218779816773"><ele>1027.0</ele><time>2026-04-26T07:56:57Z</time></trkpt><trkpt lat="43.227576294227056" lon="12.89515007167745"><ele>1027.4</ele><time>2026-04-26T07:57:00Z</time></trkpt><trkpt lat="43.22751266868313" lon="12.895076591591167"><ele>1027.8000000000002</ele><time>2026-04-26T07:57:02Z</time></trkpt><trkpt lat="43.227431826837716" lon="12.895033516398263"><ele>1028.2</ele><time>2026-04-26T07:57:04Z</time></trkpt><trkpt lat="43.227356047700276" lon="12.894984727870034"><ele>1028.6000000000001</ele><time>2026-04-26T07:57:06Z</time></trkpt><trkpt lat="43.227291554028625" lon="12.894880420759138"><ele>1029.0</ele><time>2026-04-26T07:57:08Z</time></trkpt><trkpt lat="43.22719820885065" lon="12.894777206642326"><ele>1029.0</ele><time>2026-04-26T07:57:10Z</time></trkpt><trkpt lat="43.227149585732825" lon="12.894721539723623"><ele>1029.0</ele><time>2026-04-26T07:57:11Z</time></trkpt><trkpt lat="43.22710268558351" lon="12.89465649809024"><ele>1029.0</ele><time>2026-04-26T07:57:12Z</time></trkpt><trkpt lat="43.2270585784596" lon="12.894585231989584"><ele>1029.0</ele><time>2026-04-26T07:57:13Z</time></trkpt><trkpt lat="43.2270135246918" lon="12.894520293362365"><ele>1029.0</ele><time>2026-04-26T07:57:14Z</time></trkpt><trkpt lat="43.22691933184276" lon="12.894432114126298"><ele>1029.0</ele><time>2026-04-26T07:57:16Z</time></trkpt><trkpt lat="43.22686250737135" lon="12.894386199030754"><ele>1029.0</ele><time>2026-04-26T07:57:17Z</time></trkpt><trkpt lat="43.226803125565446" lon="12.894328100546216"><ele>1029.0</ele><time>2026-04-26T07:57:18Z</time></trkpt><trkpt lat="43.22674349377674" lon="12.894269177902585"><ele>1029.0</ele><time>2026-04-26T07:57:19Z</time></trkpt><trkpt lat="43.22667832739551" lon="12.8942066620229"><ele>1029.0</ele><time>2026-04-26T07:57:20Z</time></trkpt><trkpt lat="43.22661147463431" lon="12.894143639635166"><ele>1029.0</ele><time>2026-04-26T07:57:21Z</time></trkpt><trkpt lat="43.22654476191574" lon="12.894080639052172"><ele>1029.0</ele><time>2026-04-26T07:57:22Z</time></trkpt><trkpt lat="43.22647720057171" lon="12.894022624932168"><ele>1029.0</ele><time>2026-04-26T07:57:23Z</time></trkpt><trkpt lat="43.22640927140964" lon="12.893960630047987"><ele>1028.6666666666667</ele><time>2026-04-26T07:57:24Z</time></trkpt><trkpt lat="43.226336462537176" lon="12.893900508712049"><ele>1028.3333333333333</ele><time>2026-04-26T07:57:25Z</time></trkpt><trkpt lat="43.22626413102064" lon="12.893842222591111"><ele>1028.0</ele><time>2026-04-26T07:57:26Z</time></trkpt><trkpt lat="43.22619202621279" lon="12.893791523126508"><ele>1027.6666666666665</ele><time>2026-04-26T07:57:27Z</time></trkpt><trkpt lat="43.22612111052301" lon="12.893737665652452"><ele>1027.3333333333333</ele><time>2026-04-26T07:57:28Z</time></trkpt><trkpt lat="43.22604669864152" lon="12.89368757394856"><ele>1027.0</ele><time>2026-04-26T07:57:29Z</time></trkpt><trkpt lat="43.22597210081532" lon="12.893633959021477"><ele>1027.0</ele><time>2026-04-26T07:57:30Z</time></trkpt><trkpt lat="43.22589324400815" lon="12.893585444137889"><ele>1027.0</ele><time>2026-04-26T07:57:31Z</time></trkpt><trkpt lat="43.22581388626643" lon="12.893542519344738"><ele>1027.0</ele><time>2026-04-26T07:57:32Z</time></trkpt><trkpt lat="43.22573343830282" lon="12.893509320147475"><ele>1027.0</ele><time>2026-04-26T07:57:33Z</time></trkpt><trkpt lat="43.22565449593172" lon="12.89347160527185"><ele>1027.0</ele><time>2026-04-26T07:57:34Z</time></trkpt><trkpt lat="43.22557535086406" lon="12.893438648400647"><ele>1027.0</ele><time>2026-04-26T07:57:35Z</time></trkpt><trkpt lat="43.225496852380566" lon="12.893413555393003"><ele>1027.5</ele><time>2026-04-26T07:57:36Z</time></trkpt><trkpt lat="43.22542122069289" lon="12.89339230917187"><ele>1028.0</ele><time>2026-04-26T07:57:37Z</time></trkpt><trkpt lat="43.22534801556019" lon="12.893383263334009"><ele>1028.5</ele><time>2026-04-26T07:57:38Z</time></trkpt><trkpt lat="43.225268788966154" lon="12.893375526807496"><ele>1029.0</ele><time>2026-04-26T07:57:39Z</time></trkpt><trkpt lat="43.2251771261842" lon="12.893377307971306"><ele>1029.5</ele><time>2026-04-26T07:57:40Z</time></trkpt><trkpt lat="43.225083559616095" lon="12.893403973713825"><ele>1030.0</ele><time>2026-04-26T07:57:41Z</time></trkpt><trkpt lat="43.22499553101457" lon="12.893428571644137"><ele>1030.0</ele><time>2026-04-26T07:57:42Z</time></trkpt><trkpt lat="43.2249161559572" lon="12.89343782143735"><ele>1030.0</ele><time>2026-04-26T07:57:43Z</time></trkpt><trkpt lat="43.22483953275818" lon="12.893438141583777"><ele>1030.0</ele><time>2026-04-26T07:57:44Z</time></trkpt><trkpt lat="43.224761711986076" lon="12.893423220451973"><ele>1030.0</ele><time>2026-04-26T07:57:45Z</time></trkpt><trkpt lat="43.22468427165148" lon="12.893401731791073"><ele>1030.0</ele><time>2026-04-26T07:57:46Z</time></trkpt><trkpt lat="43.224609252147744" lon="12.893378021641961"><ele>1030.0</ele><time>2026-04-26T07:57:47Z</time></trkpt><trkpt lat="43.224538241622966" lon="12.893361975833447"><ele>1032.5</ele><time>2026-04-26T07:57:48Z</time></trkpt><trkpt lat="43.22446508183424" lon="12.893342638898288"><ele>1035.0</ele><time>2026-04-26T07:57:49Z</time></trkpt><trkpt lat="43.224387780459246" lon="12.893324996094332"><ele>1037.5</ele><time>2026-04-26T07:57:50Z</time></trkpt><trkpt lat="43.224315324066964" lon="12.893306375508278"><ele>1040.0</ele><time>2026-04-26T07:57:51Z</time></trkpt><trkpt lat="43.224244307915804" lon="12.89329668529853"><ele>1042.5</ele><time>2026-04-26T07:57:52Z</time></trkpt><trkpt lat="43.224160962425344" lon="12.893302966624988"><ele>1045.0</ele><time>2026-04-26T07:57:53Z</time></trkpt><trkpt lat="43.22405990384489" lon="12.893328247383764"><ele>1047.2</ele><time>2026-04-26T07:57:54Z</time></trkpt><trkpt lat="43.22395615722281" lon="12.893357577334355"><ele>1049.4</ele><time>2026-04-26T07:57:55Z</time></trkpt><trkpt lat="43.223864098640775" lon="12.893385462401186"><ele>1051.6</ele><time>2026-04-26T07:57:56Z</time></trkpt><trkpt lat="43.22376950355697" lon="12.893400926211385"><ele>1053.8</ele><time>2026-04-26T07:57:57Z</time></trkpt><trkpt lat="43.22367296308174" lon="12.893435286535626"><ele>1056.0</ele><time>2026-04-26T07:57:58Z</time></trkpt><trkpt lat="43.22358104428638" lon="12.893477400230761"><ele>1050.8</ele><time>2026-04-26T07:57:59Z</time></trkpt><trkpt lat="43.22348952801465" lon="12.89351899857979"><ele>1045.6</ele><time>2026-04-26T07:58:00Z</time></trkpt><trkpt lat="43.223393857744846" lon="12.893535356617313"><ele>1040.4</ele><time>2026-04-26T07:58:01Z</time></trkpt><trkpt lat="43.22330266445704" lon="12.893534733756415"><ele>1035.2</ele><time>2026-04-26T07:58:02Z</time></trkpt><trkpt lat="43.22321619585087" lon="12.893516038869741"><ele>1030.0</ele><time>2026-04-26T07:58:03Z</time></trkpt><trkpt lat="43.22313133188451" lon="12.893482872845862"><ele>1032.6666666666665</ele><time>2026-04-26T07:58:04Z</time></trkpt><trkpt lat="43.22306018590034" lon="12.8934299049643"><ele>1035.3333333333333</ele><time>2026-04-26T07:58:05Z</time></trkpt><trkpt lat="43.22298461893928" lon="12.893383009717304"><ele>1038.0</ele><time>2026-04-26T07:58:06Z</time></trkpt><trkpt lat="43.22290501843354" lon="12.89333660253417"><ele>1040.6666666666667</ele><time>2026-04-26T07:58:07Z</time></trkpt><trkpt lat="43.222832789612376" lon="12.893287388184124"><ele>1043.3333333333335</ele><time>2026-04-26T07:58:08Z</time></trkpt><trkpt lat="43.22275645729137" lon="12.893236370592604"><ele>1046.0</ele><time>2026-04-26T07:58:09Z</time></trkpt><trkpt lat="43.222680924566774" lon="12.893176814574367"><ele>1046.0</ele><time>2026-04-26T07:58:10Z</time></trkpt><trkpt lat="43.22260345735574" lon="12.893119580666102"><ele>1046.0</ele><time>2026-04-26T07:58:11Z</time></trkpt><trkpt lat="43.22253486233153" lon="12.893061918569122"><ele>1046.0</ele><time>2026-04-26T07:58:12Z</time></trkpt><trkpt lat="43.22246966384216" lon="12.893001593307297"><ele>1046.0</ele><time>2026-04-26T07:58:13Z</time></trkpt><trkpt lat="43.22239201711522" lon="12.892940926692404"><ele>1046.0</ele><time>2026-04-26T07:58:14Z</time></trkpt><trkpt lat="43.22231472451552" lon="12.892887162868407"><ele>1046.0</ele><time>2026-04-26T07:58:15Z</time></trkpt><trkpt lat="43.222235861798424" lon="12.892839798563132"><ele>1045.3999999999999</ele><time>2026-04-26T07:58:16Z</time></trkpt><trkpt lat="43.22214418218857" lon="12.892812563561574"><ele>1044.8</ele><time>2026-04-26T07:58:17Z</time></trkpt><trkpt lat="43.22204844752945" lon="12.89277544635531"><ele>1044.1999999999998</ele><time>2026-04-26T07:58:18Z</time></trkpt><trkpt lat="43.221957465121854" lon="12.892697513528583"><ele>1043.6</ele><time>2026-04-26T07:58:19Z</time></trkpt><trkpt lat="43.22186767629927" lon="12.89260548063309"><ele>1043.0</ele><time>2026-04-26T07:58:20Z</time></trkpt><trkpt lat="43.22177937632648" lon="12.892527047165807"><ele>1043.0</ele><time>2026-04-26T07:58:21Z</time></trkpt><trkpt lat="43.221698241111085" lon="12.892447817022845"><ele>1043.0</ele><time>2026-04-26T07:58:22Z</time></trkpt><trkpt lat="43.22161705399577" lon="12.892367249525604"><ele>1043.0</ele><time>2026-04-26T07:58:23Z</time></trkpt><trkpt lat="43.2215380292144" lon="12.892294355355789"><ele>1043.0</ele><time>2026-04-26T07:58:24Z</time></trkpt><trkpt lat="43.22145881528527" lon="12.892214068139117"><ele>1043.0</ele><time>2026-04-26T07:58:25Z</time></trkpt><trkpt lat="43.22138373645531" lon="12.892144179393776"><ele>1039.3333333333335</ele><time>2026-04-26T07:58:26Z</time></trkpt><trkpt lat="43.221313395274024" lon="12.892086607783046"><ele>1035.6666666666667</ele><time>2026-04-26T07:58:27Z</time></trkpt><trkpt lat="43.221242297046366" lon="12.892044605307035"><ele>1032.0</ele><time>2026-04-26T07:58:28Z</time></trkpt><trkpt lat="43.221161052007346" lon="12.892019622368796"><ele>1028.3333333333333</ele><time>2026-04-26T07:58:29Z</time></trkpt><trkpt lat="43.221073806499604" lon="12.89202668665459"><ele>1024.6666666666665</ele><time>2026-04-26T07:58:30Z</time></trkpt><trkpt lat="43.22097789600107" lon="12.892023859836318"><ele>1021.0</ele><time>2026-04-26T07:58:31Z</time></trkpt><trkpt lat="43.22087555008441" lon="12.892011166306427"><ele>1021.0</ele><time>2026-04-26T07:58:32Z</time></trkpt><trkpt lat="43.22077573646096" lon="12.891992795910813"><ele>1020.9999999999999</ele><time>2026-04-26T07:58:33Z</time></trkpt><trkpt lat="43.22067664375856" lon="12.89196854081564"><ele>1020.9999999999999</ele><time>2026-04-26T07:58:34Z</time></trkpt><trkpt lat="43.22057971595651" lon="12.891936690623705"><ele>1021.0</ele><time>2026-04-26T07:58:35Z</time></trkpt><trkpt lat="43.22047701436494" lon="12.891906598949447"><ele>1021.0</ele><time>2026-04-26T07:58:36Z</time></trkpt><trkpt lat="43.22037151616806" lon="12.891884618751787"><ele>1018.1999999999999</ele><time>2026-04-26T07:58:37Z</time></trkpt><trkpt lat="43.22026428706149" lon="12.891855299534605"><ele>1015.3999999999999</ele><time>2026-04-26T07:58:38Z</time></trkpt><trkpt lat="43.2201579736019" lon="12.89182996843659"><ele>1012.6</ele><time>2026-04-26T07:58:39Z</time></trkpt><trkpt lat="43.22005206913036" lon="12.891817423997193"><ele>1009.8</ele><time>2026-04-26T07:58:40Z</time></trkpt><trkpt lat="43.21994815921407" lon="12.891805591866705"><ele>1007.0</ele><time>2026-04-26T07:58:41Z</time></trkpt><trkpt lat="43.219847141275295" lon="12.891789562183245"><ele>1006.2</ele><time>2026-04-26T07:58:42Z</time></trkpt><trkpt lat="43.21974616257655" lon="12.891771548745385"><ele>1005.4000000000001</ele><time>2026-04-26T07:58:43Z</time></trkpt><trkpt lat="43.21964545900712" lon="12.891754851792513"><ele>1004.5999999999999</ele><time>2026-04-26T07:58:44Z</time></trkpt><trkpt lat="43.21954530255204" lon="12.891739085517358"><ele>1003.8</ele><time>2026-04-26T07:58:45Z</time></trkpt><trkpt lat="43.21944736759119" lon="12.891721080764396"><ele>1003.0</ele><time>2026-04-26T07:58:46Z</time></trkpt><trkpt lat="43.21935034809424" lon="12.89170127159137"><ele>1003.0</ele><time>2026-04-26T07:58:47Z</time></trkpt><trkpt lat="43.21925397306853" lon="12.891683818468698"><ele>1003.0</ele><time>2026-04-26T07:58:48Z</time></trkpt><trkpt lat="43.21915289623522" lon="12.891696150472292"><ele>1003.0</ele><time>2026-04-26T07:58:49Z</time></trkpt><trkpt lat="43.21904972542963" lon="12.891717246965314"><ele>1003.0</ele><time>2026-04-26T07:58:50Z</time></trkpt><trkpt lat="43.21894507103483" lon="12.89174692739551"><ele>1003.0</ele><time>2026-04-26T07:58:51Z</time></trkpt><trkpt lat="43.21883758256372" lon="12.891787446396771"><ele>1000.4</ele><time>2026-04-26T07:58:52Z</time></trkpt><trkpt lat="43.218735991288014" lon="12.891846152114123"><ele>997.8</ele><time>2026-04-26T07:58:53Z</time></trkpt><trkpt lat="43.218634869974984" lon="12.891904469696996"><ele>995.2</ele><time>2026-04-26T07:58:54Z</time></trkpt><trkpt lat="43.21853972352474" lon="12.891980659910374"><ele>992.6</ele><time>2026-04-26T07:58:55Z</time></trkpt><trkpt lat="43.218448664317506" lon="12.89207320579978"><ele>990.0</ele><time>2026-04-26T07:58:56Z</time></trkpt><trkpt lat="43.2183548224065" lon="12.89217259170374"><ele>990.0</ele><time>2026-04-26T07:58:57Z</time></trkpt><trkpt lat="43.21825882722623" lon="12.89227950340307"><ele>990.0</ele><time>2026-04-26T07:58:58Z</time></trkpt><trkpt lat="43.218163243972626" lon="12.892383660068997"><ele>990.0</ele><time>2026-04-26T07:58:59Z</time></trkpt><trkpt lat="43.21806410476408" lon="12.892475854454943"><ele>990.0</ele><time>2026-04-26T07:59:00Z</time></trkpt><trkpt lat="43.217966907372684" lon="12.89256495737677"><ele>989.0</ele><time>2026-04-26T07:59:01Z</time></trkpt><trkpt lat="43.21786919550674" lon="12.892664940120138"><ele>988.0</ele><time>2026-04-26T07:59:02Z</time></trkpt><trkpt lat="43.217767643575925" lon="12.892769744757103"><ele>987.0</ele><time>2026-04-26T07:59:03Z</time></trkpt><trkpt lat="43.2176643572638" lon="12.892875456249218"><ele>986.0</ele><time>2026-04-26T07:59:04Z</time></trkpt><trkpt lat="43.217562945642754" lon="12.892980673024624"><ele>986.0</ele><time>2026-04-26T07:59:05Z</time></trkpt><trkpt lat="43.21746030535193" lon="12.893076900040402"><ele>986.0</ele><time>2026-04-26T07:59:06Z</time></trkpt><trkpt lat="43.217357765419884" lon="12.89317314666908"><ele>986.0</ele><time>2026-04-26T07:59:07Z</time></trkpt><trkpt lat="43.217249064091114" lon="12.89325477422369"><ele>986.0</ele><time>2026-04-26T07:59:08Z</time></trkpt><trkpt lat="43.217135290688724" lon="12.893335435680806"><ele>984.75</ele><time>2026-04-26T07:59:09Z</time></trkpt><trkpt lat="43.217010393364184" lon="12.893419227423182"><ele>983.5</ele><time>2026-04-26T07:59:10Z</time></trkpt><trkpt lat="43.21688119865402" lon="12.89349890755077"><ele>982.25</ele><time>2026-04-26T07:59:11Z</time></trkpt><trkpt lat="43.21675004536048" lon="12.89356379462844"><ele>981.0</ele><time>2026-04-26T07:59:12Z</time></trkpt><trkpt lat="43.21661468796438" lon="12.893616797505063"><ele>981.25</ele><time>2026-04-26T07:59:13Z</time></trkpt><trkpt lat="43.21647301465307" lon="12.89366428445337"><ele>981.5</ele><time>2026-04-26T07:59:14Z</time></trkpt><trkpt lat="43.216334434523134" lon="12.893708001959315"><ele>981.75</ele><time>2026-04-26T07:59:15Z</time></trkpt><trkpt lat="43.216203213008335" lon="12.89374122273707"><ele>982.0</ele><time>2026-04-26T07:59:16Z</time></trkpt><trkpt lat="43.21607955438743" lon="12.89377726276245"><ele>982.0</ele><time>2026-04-26T07:59:17Z</time></trkpt><trkpt lat="43.215962697825496" lon="12.893822962832855"><ele>982.0</ele><time>2026-04-26T07:59:18Z</time></trkpt><trkpt lat="43.21585336429642" lon="12.893872559903162"><ele>982.0</ele><time>2026-04-26T07:59:19Z</time></trkpt><trkpt lat="43.21575361647727" lon="12.893934882458197"><ele>982.0</ele><time>2026-04-26T07:59:20Z</time></trkpt><trkpt lat="43.215655149129205" lon="12.89399704585072"><ele>981.2</ele><time>2026-04-26T07:59:21Z</time></trkpt><trkpt lat="43.215556612635865" lon="12.894061434313523"><ele>980.4000000000001</ele><time>2026-04-26T07:59:22Z</time></trkpt><trkpt lat="43.21546351307366" lon="12.894117170276369"><ele>979.5999999999999</ele><time>2026-04-26T07:59:23Z</time></trkpt><trkpt lat="43.21537151472403" lon="12.894156868999639"><ele>978.8</ele><time>2026-04-26T07:59:24Z</time></trkpt><trkpt lat="43.21528135729104" lon="12.894199048641193"><ele>978.0</ele><time>2026-04-26T07:59:25Z</time></trkpt><trkpt lat="43.21518751278935" lon="12.894238476768013"><ele>976.8</ele><time>2026-04-26T07:59:26Z</time></trkpt><trkpt lat="43.215092276673865" lon="12.89428230721854"><ele>975.5999999999999</ele><time>2026-04-26T07:59:27Z</time></trkpt><trkpt lat="43.21499831819484" lon="12.894336065413928"><ele>974.4000000000001</ele><time>2026-04-26T07:59:28Z</time></trkpt><trkpt lat="43.21490365972315" lon="12.894393040229625"><ele>973.2</ele><time>2026-04-26T07:59:29Z</time></trkpt><trkpt lat="43.21480432448099" lon="12.894439819978"><ele>972.0</ele><time>2026-04-26T07:59:30Z</time></trkpt><trkpt lat="43.21470145950626" lon="12.894472203364208"><ele>970.8</ele><time>2026-04-26T07:59:31Z</time></trkpt><trkpt lat="43.214598672934294" lon="12.894495721280725"><ele>969.6</ele><time>2026-04-26T07:59:32Z</time></trkpt><trkpt lat="43.21449591708837" lon="12.89450751693864"><ele>968.3999999999999</ele><time>2026-04-26T07:59:33Z</time></trkpt><trkpt lat="43.21439462847888" lon="12.894509883848292"><ele>967.1999999999999</ele><time>2026-04-26T07:59:34Z</time></trkpt><trkpt lat="43.214297104464706" lon="12.894508318907416"><ele>966.0</ele><time>2026-04-26T07:59:35Z</time></trkpt><trkpt lat="43.21419680387684" lon="12.89448950899018"><ele>966.0</ele><time>2026-04-26T07:59:36Z</time></trkpt><trkpt lat="43.21408926252342" lon="12.894451766760385"><ele>966.0</ele><time>2026-04-26T07:59:37Z</time></trkpt><trkpt lat="43.21397558288504" lon="12.894400777659925"><ele>966.0</ele><time>2026-04-26T07:59:38Z</time></trkpt><trkpt lat="43.21385844297463" lon="12.8943461309314"><ele>966.0</ele><time>2026-04-26T07:59:39Z</time></trkpt><trkpt lat="43.213750319632645" lon="12.894284888620302"><ele>966.8</ele><time>2026-04-26T07:59:40Z</time></trkpt><trkpt lat="43.213654818969104" lon="12.894227128907778"><ele>967.5999999999999</ele><time>2026-04-26T07:59:41Z</time></trkpt><trkpt lat="43.21356928832207" lon="12.894164824007081"><ele>968.4</ele><time>2026-04-26T07:59:42Z</time></trkpt><trkpt lat="43.213498794969226" lon="12.89408909677951"><ele>969.2</ele><time>2026-04-26T07:59:43Z</time></trkpt><trkpt lat="43.213438258799556" lon="12.894005551781696"><ele>970.0</ele><time>2026-04-26T07:59:44Z</time></trkpt><trkpt lat="43.21338312249196" lon="12.893911815554967"><ele>970.0</ele><time>2026-04-26T07:59:45Z</time></trkpt><trkpt lat="43.213322833697184" lon="12.893820373668461"><ele>970.0</ele><time>2026-04-26T07:59:46Z</time></trkpt><trkpt lat="43.21326068904897" lon="12.893719092380879"><ele>970.0</ele><time>2026-04-26T07:59:47Z</time></trkpt><trkpt lat="43.21318984815514" lon="12.89360635119691"><ele>970.0</ele><time>2026-04-26T07:59:48Z</time></trkpt><trkpt lat="43.21311550583067" lon="12.893488747247993"><ele>970.0</ele><time>2026-04-26T07:59:49Z</time></trkpt><trkpt lat="43.213041345925085" lon="12.89337511208226"><ele>969.5</ele><time>2026-04-26T07:59:50Z</time></trkpt><trkpt lat="43.21296933922186" lon="12.89325998542317"><ele>969.0</ele><time>2026-04-26T07:59:51Z</time></trkpt><trkpt lat="43.21289270430171" lon="12.893144130337959"><ele>968.5</ele><time>2026-04-26T07:59:52Z</time></trkpt><trkpt lat="43.21281073097864" lon="12.893026801384517"><ele>968.0</ele><time>2026-04-26T07:59:53Z</time></trkpt><trkpt lat="43.212716257538936" lon="12.892915532299186"><ele>968.0</ele><time>2026-04-26T07:59:54Z</time></trkpt><trkpt lat="43.21261927611051" lon="12.89281028188641"><ele>968.0</ele><time>2026-04-26T07:59:55Z</time></trkpt><trkpt lat="43.212523496218004" lon="12.892707843920013"><ele>968.0</ele><time>2026-04-26T07:59:56Z</time></trkpt><trkpt lat="43.21243199407373" lon="12.892601151621491"><ele>968.0</ele><time>2026-04-26T07:59:57Z</time></trkpt><trkpt lat="43.21235025318504" lon="12.892482854207088"><ele>969.5</ele><time>2026-04-26T07:59:58Z</time></trkpt><trkpt lat="43.212274276561494" lon="12.89235497877309"><ele>971.0</ele><time>2026-04-26T07:59:59Z</time></trkpt><trkpt lat="43.212200183538116" lon="12.892221750789195"><ele>972.5</ele><time>2026-04-26T08:00:00Z</time></trkpt><trkpt lat="43.212128599195154" lon="12.892081417523885"><ele>974.0</ele><time>2026-04-26T08:00:01Z</time></trkpt><trkpt lat="43.21205540490625" lon="12.891939996429064"><ele>974.0</ele><time>2026-04-26T08:00:02Z</time></trkpt><trkpt lat="43.211983695206754" lon="12.891801564559547"><ele>974.0</ele><time>2026-04-26T08:00:03Z</time></trkpt><trkpt lat="43.21191663973945" lon="12.89166356093993"><ele>974.0</ele><time>2026-04-26T08:00:04Z</time></trkpt><trkpt lat="43.211857804010144" lon="12.891523266341745"><ele>974.0</ele><time>2026-04-26T08:00:05Z</time></trkpt><trkpt lat="43.211805795085404" lon="12.891383436107041"><ele>971.8000000000001</ele><time>2026-04-26T08:00:06Z</time></trkpt><trkpt lat="43.21175406134066" lon="12.891252308236206"><ele>969.6000000000001</ele><time>2026-04-26T08:00:07Z</time></trkpt><trkpt lat="43.21170253271827" lon="12.891123715825762"><ele>967.4</ele><time>2026-04-26T08:00:08Z</time></trkpt><trkpt lat="43.2116474159757" lon="12.890999411917045"><ele>965.2</ele><time>2026-04-26T08:00:09Z</time></trkpt><trkpt lat="43.21158595502479" lon="12.890883597107202"><ele>963.0</ele><time>2026-04-26T08:00:10Z</time></trkpt><trkpt lat="43.21151939081168" lon="12.89077662330622"><ele>964.5</ele><time>2026-04-26T08:00:11Z</time></trkpt><trkpt lat="43.21143590697378" lon="12.890676289187137"><ele>966.0</ele><time>2026-04-26T08:00:12Z</time></trkpt><trkpt lat="43.21134243381505" lon="12.890579429091185"><ele>967.5</ele><time>2026-04-26T08:00:13Z</time></trkpt><trkpt lat="43.21124092747626" lon="12.890476133500997"><ele>969.0</ele><time>2026-04-26T08:00:14Z</time></trkpt><trkpt lat="43.21113339582949" lon="12.890374604530008"><ele>969.0</ele><time>2026-04-26T08:00:15Z</time></trkpt><trkpt lat="43.211031800614805" lon="12.890270885620813"><ele>969.0</ele><time>2026-04-26T08:00:16Z</time></trkpt><trkpt lat="43.210927242121464" lon="12.8901750143381"><ele>969.0</ele><time>2026-04-26T08:00:17Z</time></trkpt><trkpt lat="43.21082685275246" lon="12.890063847148516"><ele>969.0</ele><time>2026-04-26T08:00:18Z</time></trkpt><trkpt lat="43.21072437169599" lon="12.889959531056702"><ele>969.5</ele><time>2026-04-26T08:00:19Z</time></trkpt><trkpt lat="43.210626763950785" lon="12.889856869016965"><ele>970.0</ele><time>2026-04-26T08:00:20Z</time></trkpt><trkpt lat="43.210535645369184" lon="12.889754932017606"><ele>970.5</ele><time>2026-04-26T08:00:21Z</time></trkpt><trkpt lat="43.210448967421044" lon="12.889654895276427"><ele>971.0</ele><time>2026-04-26T08:00:22Z</time></trkpt><trkpt lat="43.21036374085937" lon="12.889558746118261"><ele>971.0</ele><time>2026-04-26T08:00:23Z</time></trkpt><trkpt lat="43.210286494875156" lon="12.889466064655366"><ele>970.9999999999999</ele><time>2026-04-26T08:00:24Z</time></trkpt><trkpt lat="43.210213148635944" lon="12.889376793244779"><ele>970.9999999999999</ele><time>2026-04-26T08:00:25Z</time></trkpt><trkpt lat="43.21014374961016" lon="12.889293574566207"><ele>971.0</ele><time>2026-04-26T08:00:26Z</time></trkpt><trkpt lat="43.21007367507082" lon="12.889221492197983"><ele>971.0</ele><time>2026-04-26T08:00:27Z</time></trkpt><trkpt lat="43.21000081759039" lon="12.88914608279681"><ele>970.8333333333334</ele><time>2026-04-26T08:00:28Z</time></trkpt><trkpt lat="43.2099305895989" lon="12.889079869885927"><ele>970.6666666666667</ele><time>2026-04-26T08:00:29Z</time></trkpt><trkpt lat="43.2098643655639" lon="12.889009607885015"><ele>970.5</ele><time>2026-04-26T08:00:30Z</time></trkpt><trkpt lat="43.209788204103596" lon="12.888948415406158"><ele>970.3333333333333</ele><time>2026-04-26T08:00:31Z</time></trkpt><trkpt lat="43.20970919186702" lon="12.888899807061705"><ele>970.1666666666666</ele><time>2026-04-26T08:00:32Z</time></trkpt><trkpt lat="43.20963214454985" lon="12.888845009051737"><ele>970.0</ele><time>2026-04-26T08:00:33Z</time></trkpt><trkpt lat="43.20955792857101" lon="12.88877951520574"><ele>970.0</ele><time>2026-04-26T08:00:34Z</time></trkpt><trkpt lat="43.20947245639753" lon="12.88872075151704"><ele>970.0</ele><time>2026-04-26T08:00:35Z</time></trkpt><trkpt lat="43.20938310017781" lon="12.888648856884844"><ele>970.0</ele><time>2026-04-26T08:00:36Z</time></trkpt><trkpt lat="43.209312107885886" lon="12.888544281311402"><ele>970.0</ele><time>2026-04-26T08:00:37Z</time></trkpt><trkpt lat="43.20923007454498" lon="12.888456902896179"><ele>970.0</ele><time>2026-04-26T08:00:38Z</time></trkpt><trkpt lat="43.20915486306067" lon="12.888355514133766"><ele>972.6</ele><time>2026-04-26T08:00:39Z</time></trkpt><trkpt lat="43.20908854443094" lon="12.888248563936761"><ele>975.2</ele><time>2026-04-26T08:00:40Z</time></trkpt><trkpt lat="43.20902998681829" lon="12.888136351246258"><ele>977.8</ele><time>2026-04-26T08:00:41Z</time></trkpt><trkpt lat="43.208974564180046" lon="12.888019532391448"><ele>980.4</ele><time>2026-04-26T08:00:42Z</time></trkpt><trkpt lat="43.20893039086736" lon="12.887919423296117"><ele>983.0</ele><time>2026-04-26T08:00:43Z</time></trkpt><trkpt lat="43.20889338269334" lon="12.887821316114774"><ele>983.0</ele><time>2026-04-26T08:00:44Z</time></trkpt><trkpt lat="43.2088617261053" lon="12.88771657983951"><ele>983.0</ele><time>2026-04-26T08:00:45Z</time></trkpt><trkpt lat="43.20883966736939" lon="12.88759319223882"><ele>983.0</ele><time>2026-04-26T08:00:46Z</time></trkpt><trkpt lat="43.20882729584587" lon="12.887468545458091"><ele>983.0</ele><time>2026-04-26T08:00:47Z</time></trkpt><trkpt lat="43.20881898959223" lon="12.887307531308423"><ele>983.0</ele><time>2026-04-26T08:00:48Z</time></trkpt><trkpt lat="43.208806283442115" lon="12.88716025858821"><ele>977.2</ele><time>2026-04-26T08:00:49Z</time></trkpt><trkpt lat="43.20879990508613" lon="12.887009639108221"><ele>971.4</ele><time>2026-04-26T08:00:50Z</time></trkpt><trkpt lat="43.208758335424776" lon="12.886897248720478"><ele>965.6000000000001</ele><time>2026-04-26T08:00:51Z</time></trkpt><trkpt lat="43.20870466798883" lon="12.886804670676538"><ele>959.8000000000001</ele><time>2026-04-26T08:00:52Z</time></trkpt><trkpt lat="43.20868785328503" lon="12.88670358201789"><ele>954.0</ele><time>2026-04-26T08:00:53Z</time></trkpt><trkpt lat="43.20863578382598" lon="12.886557101168655"><ele>951.2</ele><time>2026-04-26T08:00:55Z</time></trkpt><trkpt lat="43.20860222016171" lon="12.886452725391722"><ele>948.4000000000001</ele><time>2026-04-26T08:00:57Z</time></trkpt><trkpt lat="43.208569827437465" lon="12.886352561033204"><ele>945.6</ele><time>2026-04-26T08:01:00Z</time></trkpt><trkpt lat="43.208541286190595" lon="12.886250417016619"><ele>942.8</ele><time>2026-04-26T08:01:03Z</time></trkpt><trkpt lat="43.20858298003806" lon="12.886164030888125"><ele>940.0</ele><time>2026-04-26T08:01:06Z</time></trkpt><trkpt lat="43.20856041134501" lon="12.885965178043481"><ele>938.0</ele><time>2026-04-26T08:01:10Z</time></trkpt><trkpt lat="43.2085604113404" lon="12.88582235513955"><ele>936.0</ele><time>2026-04-26T08:01:12Z</time></trkpt><trkpt lat="43.208560411338595" lon="12.8857023019569"><ele>934.0</ele><time>2026-04-26T08:01:14Z</time></trkpt><trkpt lat="43.208545773602545" lon="12.88557890708116"><ele>932.0</ele><time>2026-04-26T08:01:18Z</time></trkpt><trkpt lat="43.208419509736665" lon="12.885554973740733"><ele>930.0</ele><time>2026-04-26T08:01:19Z</time></trkpt><trkpt lat="43.208435475110065" lon="12.885431202143469"><ele>930.0</ele><time>2026-04-26T08:01:22Z</time></trkpt><trkpt lat="43.20843757716809" lon="12.885339086933238"><ele>930.0</ele><time>2026-04-26T08:01:25Z</time></trkpt><trkpt lat="43.20843280998142" lon="12.885223909844258"><ele>930.0</ele><time>2026-04-26T08:01:27Z</time></trkpt><trkpt lat="43.2084135302745" lon="12.885132096779651"><ele>930.0</ele><time>2026-04-26T08:01:29.001Z</time></trkpt><trkpt lat="43.208394897710654" lon="12.88504608480024"><ele>930.0</ele><time>2026-04-26T08:01:31.001Z</time></trkpt><trkpt lat="43.20838140586348" lon="12.884951644383447"><ele>930.0</ele><time>2026-04-26T08:01:35.001Z</time></trkpt><trkpt lat="43.20834661323579" lon="12.884819766823947"><ele>928.4</ele><time>2026-04-26T08:01:38.001Z</time></trkpt><trkpt lat="43.20828944144952" lon="12.884707670657646"><ele>926.8</ele><time>2026-04-26T08:01:40.001Z</time></trkpt><trkpt lat="43.20825761620672" lon="12.884590592019032"><ele>925.2</ele><time>2026-04-26T08:01:42.001Z</time></trkpt><trkpt lat="43.20821868416955" lon="12.884465244776267"><ele>923.6</ele><time>2026-04-26T08:01:44.001Z</time></trkpt><trkpt lat="43.20819402328083" lon="12.884328198021892"><ele>922.0</ele><time>2026-04-26T08:01:46.001Z</time></trkpt><trkpt lat="43.208185632153466" lon="12.884188671127747"><ele>921.4999999999999</ele><time>2026-04-26T08:01:48.001Z</time></trkpt><trkpt lat="43.20818677565956" lon="12.884052726795161"><ele>921.0</ele><time>2026-04-26T08:01:50.001Z</time></trkpt><trkpt lat="43.20817633244051" lon="12.883936188445203"><ele>920.5</ele><time>2026-04-26T08:01:52.001Z</time></trkpt><trkpt lat="43.20817880139531" lon="12.883817756722982"><ele>920.0</ele><time>2026-04-26T08:01:55.001Z</time></trkpt><trkpt lat="43.208172920380854" lon="12.883711641357799"><ele>919.4999999999999</ele><time>2026-04-26T08:01:57.001Z</time></trkpt><trkpt lat="43.20816118877937" lon="12.883576821971287"><ele>919.0</ele><time>2026-04-26T08:02:00.001Z</time></trkpt><trkpt lat="43.208156721525015" lon="12.883443896678285"><ele>918.1428571428571</ele><time>2026-04-26T08:02:03.001Z</time></trkpt><trkpt lat="43.20815076486654" lon="12.883353275974889"><ele>917.2857142857142</ele><time>2026-04-26T08:02:05.001Z</time></trkpt><trkpt lat="43.2081427254647" lon="12.88322876730971"><ele>916.4285714285713</ele><time>2026-04-26T08:02:08.001Z</time></trkpt><trkpt lat="43.20814266745873" lon="12.883137015533398"><ele>915.5714285714284</ele><time>2026-04-26T08:02:10.001Z</time></trkpt><trkpt lat="43.20814810573549" lon="12.883046475229449"><ele>914.7142857142857</ele><time>2026-04-26T08:02:17.001Z</time></trkpt><trkpt lat="43.20815451615929" lon="12.882953046415189"><ele>913.8571428571427</ele><time>2026-04-26T08:02:23Z</time></trkpt><trkpt lat="43.208173163963615" lon="12.882857633151128"><ele>912.9999999999999</ele><time>2026-04-26T08:02:26Z</time></trkpt><trkpt lat="43.208198167885385" lon="12.882768111862465"><ele>912.9999999999999</ele><time>2026-04-26T08:02:29Z</time></trkpt><trkpt lat="43.208243645710134" lon="12.882682134068437"><ele>913.0</ele><time>2026-04-26T08:02:32Z</time></trkpt><trkpt lat="43.20826938983136" lon="12.882594628992393"><ele>912.9999999999999</ele><time>2026-04-26T08:02:37Z</time></trkpt><trkpt lat="43.20829327290926" lon="12.882489207569302"><ele>912.9999999999999</ele><time>2026-04-26T08:02:54Z</time></trkpt><trkpt lat="43.2082956162492" lon="12.88238599637002"><ele>913.0</ele><time>2026-04-26T08:03:00Z</time></trkpt><trkpt lat="43.20833376556604" lon="12.88230308656129"><ele>912.9999999999999</ele><time>2026-04-26T08:03:05Z</time></trkpt><trkpt lat="43.20830486396826" lon="12.882216813347144"><ele>912.9999999999999</ele><time>2026-04-26T08:03:25Z</time></trkpt><trkpt lat="43.208266573841065" lon="12.882124589166764"><ele>911.8333333333333</ele><time>2026-04-26T08:03:40Z</time></trkpt><trkpt lat="43.20823963480313" lon="12.882012664712114"><ele>910.6666666666666</ele><time>2026-04-26T08:03:43Z</time></trkpt><trkpt lat="43.20822620142961" lon="12.881927581975265"><ele>909.5</ele><time>2026-04-26T08:03:45Z</time></trkpt><trkpt lat="43.20818765711427" lon="12.88180814199439"><ele>908.3333333333333</ele><time>2026-04-26T08:03:48Z</time></trkpt><trkpt lat="43.208183801472885" lon="12.881716083554918"><ele>907.1666666666666</ele><time>2026-04-26T08:03:52Z</time></trkpt><trkpt lat="43.208188249289925" lon="12.881627651838398"><ele>906.0</ele><time>2026-04-26T08:03:57Z</time></trkpt><trkpt lat="43.20815877404298" lon="12.88153275594328"><ele>908.3333333333334</ele><time>2026-04-26T08:04:00Z</time></trkpt><trkpt lat="43.2081215910251" lon="12.881433672879233"><ele>910.6666666666667</ele><time>2026-04-26T08:04:03Z</time></trkpt><trkpt lat="43.20807784788392" lon="12.881327884489735"><ele>913.0</ele><time>2026-04-26T08:04:06Z</time></trkpt><trkpt lat="43.20805606733176" lon="12.881219039669324"><ele>915.3333333333334</ele><time>2026-04-26T08:04:08Z</time></trkpt><trkpt lat="43.208033071275445" lon="12.881122341790443"><ele>917.6666666666667</ele><time>2026-04-26T08:04:11Z</time></trkpt><trkpt lat="43.207999734682275" lon="12.881035023565603"><ele>920.0</ele><time>2026-04-26T08:04:14Z</time></trkpt><trkpt lat="43.208071921824555" lon="12.881069022720826"><ele>919.9999999999999</ele><time>2026-04-26T08:04:17Z</time></trkpt><trkpt lat="43.20811511870658" lon="12.881138919267615"><ele>920.0</ele><time>2026-04-26T08:04:19Z</time></trkpt><trkpt lat="43.208154549378044" lon="12.881223186165883"><ele>919.9999999999999</ele><time>2026-04-26T08:04:21Z</time></trkpt><trkpt lat="43.20821152309044" lon="12.881310162222418"><ele>919.9999999999999</ele><time>2026-04-26T08:04:23Z</time></trkpt><trkpt lat="43.208235226164525" lon="12.881411876222364"><ele>920.0</ele><time>2026-04-26T08:04:26Z</time></trkpt><trkpt lat="43.20828801954145" lon="12.88135641824173"><ele>919.9999999999999</ele><time>2026-04-26T08:04:36Z</time></trkpt><trkpt lat="43.20828139623756" lon="12.881259654526117"><ele>919.9999999999999</ele><time>2026-04-26T08:04:39Z</time></trkpt><trkpt lat="43.20829724482789" lon="12.881158519979437"><ele>916.2857142857141</ele><time>2026-04-26T08:04:45Z</time></trkpt><trkpt lat="43.208311925698375" lon="12.881072330513124"><ele>912.5714285714286</ele><time>2026-04-26T08:04:48Z</time></trkpt><trkpt lat="43.20831101140372" lon="12.880984911051515"><ele>908.8571428571428</ele><time>2026-04-26T08:04:53Z</time></trkpt><trkpt lat="43.20834434640496" lon="12.880868488187096"><ele>905.1428571428571</ele><time>2026-04-26T08:04:58Z</time></trkpt><trkpt lat="43.208363214889765" lon="12.880781189917936"><ele>901.4285714285713</ele><time>2026-04-26T08:05:01Z</time></trkpt><trkpt lat="43.20839582406154" lon="12.880693880714912"><ele>897.7142857142857</ele><time>2026-04-26T08:05:03Z</time></trkpt><trkpt lat="43.208452877209304" lon="12.880597030133297"><ele>894.0</ele><time>2026-04-26T08:05:05Z</time></trkpt><trkpt lat="43.20850941806737" lon="12.880512039194208"><ele>891.8333333333334</ele><time>2026-04-26T08:05:08Z</time></trkpt><trkpt lat="43.20854822780704" lon="12.880402394885005"><ele>889.6666666666667</ele><time>2026-04-26T08:05:12Z</time></trkpt><trkpt lat="43.20858999691418" lon="12.880328333712805"><ele>887.5</ele><time>2026-04-26T08:05:14Z</time></trkpt><trkpt lat="43.208594271800315" lon="12.8802109797676"><ele>885.3333333333334</ele><time>2026-04-26T08:05:17Z</time></trkpt><trkpt lat="43.20862601735671" lon="12.880085230734762"><ele>883.1666666666667</ele><time>2026-04-26T08:05:20Z</time></trkpt><trkpt lat="43.20867499209063" lon="12.88000308707074"><ele>881.0</ele><time>2026-04-26T08:05:22Z</time></trkpt><trkpt lat="43.208708761300976" lon="12.879920463783131"><ele>878.5000000000001</ele><time>2026-04-26T08:05:25Z</time></trkpt><trkpt lat="43.20872689869814" lon="12.879817619606213"><ele>876.0</ele><time>2026-04-26T08:05:31Z</time></trkpt><trkpt lat="43.20877362055169" lon="12.879749147300569"><ele>873.5</ele><time>2026-04-26T08:05:33Z</time></trkpt><trkpt lat="43.2088179455519" lon="12.879639007503464"><ele>871.0</ele><time>2026-04-26T08:05:36Z</time></trkpt><trkpt lat="43.20884632001872" lon="12.87955850207763"><ele>868.5000000000001</ele><time>2026-04-26T08:05:38Z</time></trkpt><trkpt lat="43.20889177500487" lon="12.879476917261938"><ele>866.0</ele><time>2026-04-26T08:05:40Z</time></trkpt><trkpt lat="43.20893428503895" lon="12.879386748739533"><ele>865.9999999999999</ele><time>2026-04-26T08:05:42Z</time></trkpt><trkpt lat="43.20897730476346" lon="12.87931273311427"><ele>866.0</ele><time>2026-04-26T08:05:44Z</time></trkpt><trkpt lat="43.209035528701726" lon="12.87923058878187"><ele>866.0</ele><time>2026-04-26T08:05:46Z</time></trkpt><trkpt lat="43.209078453777394" lon="12.879147704942937"><ele>866.0</ele><time>2026-04-26T08:05:48Z</time></trkpt><trkpt lat="43.2091404214133" lon="12.87907601214686"><ele>866.0</ele><time>2026-04-26T08:05:50Z</time></trkpt><trkpt lat="43.20919525706432" lon="12.879019435990212"><ele>865.9999999999999</ele><time>2026-04-26T08:05:52Z</time></trkpt><trkpt lat="43.20924367156128" lon="12.878960386156002"><ele>866.0</ele><time>2026-04-26T08:05:54Z</time></trkpt><trkpt lat="43.209296912968966" lon="12.878877555441257"><ele>861.5714285714286</ele><time>2026-04-26T08:05:57Z</time></trkpt><trkpt lat="43.20934911011767" lon="12.878789343858445"><ele>857.1428571428571</ele><time>2026-04-26T08:06:01Z</time></trkpt><trkpt lat="43.20940306982186" lon="12.878739050145573"><ele>852.7142857142858</ele><time>2026-04-26T08:06:04Z</time></trkpt><trkpt lat="43.209462472358005" lon="12.878703828207467"><ele>848.2857142857142</ele><time>2026-04-26T08:06:07Z</time></trkpt><trkpt lat="43.20951840822756" lon="12.878646274034875"><ele>843.8571428571429</ele><time>2026-04-26T08:06:22Z</time></trkpt><trkpt lat="43.209557457208085" lon="12.878577376997637"><ele>839.4285714285714</ele><time>2026-04-26T08:06:28Z</time></trkpt><trkpt lat="43.20959806258337" lon="12.878505709817725"><ele>835.0</ele><time>2026-04-26T08:06:31Z</time></trkpt><trkpt lat="43.209664684521044" lon="12.878415260440176"><ele>832.8571428571429</ele><time>2026-04-26T08:06:34Z</time></trkpt><trkpt lat="43.20970951455095" lon="12.87834336706647"><ele>830.7142857142858</ele><time>2026-04-26T08:06:36Z</time></trkpt><trkpt lat="43.20975744866203" lon="12.878263520696297"><ele>828.5714285714287</ele><time>2026-04-26T08:06:39Z</time></trkpt><trkpt lat="43.20980209846131" lon="12.878202358109021"><ele>826.4285714285714</ele><time>2026-04-26T08:06:42Z</time></trkpt><trkpt lat="43.2098497958795" lon="12.878122702133858"><ele>824.2857142857142</ele><time>2026-04-26T08:06:46Z</time></trkpt><trkpt lat="43.209891552017865" lon="12.878014102306443"><ele>822.1428571428572</ele><time>2026-04-26T08:06:49Z</time></trkpt><trkpt lat="43.20992483964818" lon="12.877919796294314"><ele>820.0</ele><time>2026-04-26T08:06:51Z</time></trkpt><trkpt lat="43.20997188138445" lon="12.877840383193702"><ele>816.6666666666666</ele><time>2026-04-26T08:06:53Z</time></trkpt><trkpt lat="43.210013429768644" lon="12.877753287333004"><ele>813.3333333333333</ele><time>2026-04-26T08:06:56Z</time></trkpt><trkpt lat="43.210072330723726" lon="12.877648917989955"><ele>810.0</ele><time>2026-04-26T08:06:59Z</time></trkpt><trkpt lat="43.210129638377886" lon="12.877584663285575"><ele>806.6666666666667</ele><time>2026-04-26T08:07:02Z</time></trkpt><trkpt lat="43.21018951870523" lon="12.87752186478452"><ele>803.3333333333334</ele><time>2026-04-26T08:07:05Z</time></trkpt><trkpt lat="43.210226539895984" lon="12.877444034031225"><ele>800.0</ele><time>2026-04-26T08:07:08Z</time></trkpt><trkpt lat="43.2102405345862" lon="12.877328500406337"><ele>798.5714285714287</ele><time>2026-04-26T08:07:11Z</time></trkpt><trkpt lat="43.21025952562936" lon="12.877234542024286"><ele>797.1428571428571</ele><time>2026-04-26T08:07:14Z</time></trkpt><trkpt lat="43.21026218191434" lon="12.877137230274961"><ele>795.7142857142858</ele><time>2026-04-26T08:07:17Z</time></trkpt><trkpt lat="43.21026641882826" lon="12.877042963043223"><ele>794.2857142857143</ele><time>2026-04-26T08:07:19Z</time></trkpt><trkpt lat="43.210267772954616" lon="12.876927916278508"><ele>792.8571428571429</ele><time>2026-04-26T08:07:22Z</time></trkpt><trkpt lat="43.210276574989294" lon="12.876832685250866"><ele>791.4285714285714</ele><time>2026-04-26T08:07:24Z</time></trkpt><trkpt lat="43.21028539118378" lon="12.876736446668694"><ele>790.0</ele><time>2026-04-26T08:07:26Z</time></trkpt><trkpt lat="43.210312492759556" lon="12.876636383530961"><ele>787.4285714285714</ele><time>2026-04-26T08:07:28Z</time></trkpt><trkpt lat="43.2103063115407" lon="12.87654226010627"><ele>784.8571428571429</ele><time>2026-04-26T08:07:30Z</time></trkpt><trkpt lat="43.21032806257488" lon="12.876416602466831"><ele>782.2857142857143</ele><time>2026-04-26T08:07:32Z</time></trkpt><trkpt lat="43.210346514774805" lon="12.87633324982439"><ele>779.7142857142858</ele><time>2026-04-26T08:07:34Z</time></trkpt><trkpt lat="43.21037818048446" lon="12.876231677153704"><ele>777.1428571428571</ele><time>2026-04-26T08:07:38Z</time></trkpt><trkpt lat="43.21040146795294" lon="12.876151192278506"><ele>774.5714285714287</ele><time>2026-04-26T08:07:41Z</time></trkpt><trkpt lat="43.21043387823401" lon="12.876069753283266"><ele>772.0</ele><time>2026-04-26T08:07:43Z</time></trkpt><trkpt lat="43.21046994906433" lon="12.875978457189722"><ele>767.1666666666666</ele><time>2026-04-26T08:07:45Z</time></trkpt><trkpt lat="43.210493958301875" lon="12.875850125786016"><ele>762.3333333333333</ele><time>2026-04-26T08:07:47Z</time></trkpt><trkpt lat="43.2105174496458" lon="12.875764081504167"><ele>757.5</ele><time>2026-04-26T08:07:48Z</time></trkpt><trkpt lat="43.21055694088287" lon="12.875665476958364"><ele>752.6666666666666</ele><time>2026-04-26T08:07:49Z</time></trkpt><trkpt lat="43.210586308531816" lon="12.875575522312506"><ele>747.8333333333333</ele><time>2026-04-26T08:07:50Z</time></trkpt><trkpt lat="43.21061963402595" lon="12.87548193917815"><ele>743.0</ele><time>2026-04-26T08:07:51Z</time></trkpt><trkpt lat="43.21065462026218" lon="12.875387932959178"><ele>740.5</ele><time>2026-04-26T08:07:52Z</time></trkpt><trkpt lat="43.21069857609398" lon="12.87529765894395"><ele>738.0</ele><time>2026-04-26T08:07:53Z</time></trkpt><trkpt lat="43.210744274292985" lon="12.875203537524532"><ele>735.5</ele><time>2026-04-26T08:07:54Z</time></trkpt><trkpt lat="43.21079418078318" lon="12.875120248947365"><ele>733.0</ele><time>2026-04-26T08:07:55Z</time></trkpt><trkpt lat="43.210845708024934" lon="12.875046673267136"><ele>730.5</ele><time>2026-04-26T08:07:56Z</time></trkpt><trkpt lat="43.21089722216335" lon="12.874965552136656"><ele>728.0</ele><time>2026-04-26T08:07:57Z</time></trkpt><trkpt lat="43.21094062857404" lon="12.874883717721406"><ele>725.6666666666666</ele><time>2026-04-26T08:07:58Z</time></trkpt><trkpt lat="43.210979228090835" lon="12.87480115061463"><ele>723.3333333333333</ele><time>2026-04-26T08:07:59Z</time></trkpt><trkpt lat="43.2110290329556" lon="12.874724644388861"><ele>721.0</ele><time>2026-04-26T08:08:00Z</time></trkpt><trkpt lat="43.21110299114153" lon="12.874618397301619"><ele>718.6666666666666</ele><time>2026-04-26T08:08:02Z</time></trkpt><trkpt lat="43.211160760804226" lon="12.874534815111417"><ele>716.3333333333334</ele><time>2026-04-26T08:08:04Z</time></trkpt><trkpt lat="43.21123135784181" lon="12.874471165046788"><ele>714.0</ele><time>2026-04-26T08:08:06Z</time></trkpt><trkpt lat="43.21122431041129" lon="12.874361810201817"><ele>711.8333333333334</ele><time>2026-04-26T08:08:09Z</time></trkpt><trkpt lat="43.21119215966782" lon="12.87422426817826"><ele>709.6666666666666</ele><time>2026-04-26T08:08:12Z</time></trkpt><trkpt lat="43.21112513196189" lon="12.874085273849852"><ele>707.5</ele><time>2026-04-26T08:08:14Z</time></trkpt><trkpt lat="43.2110680398268" lon="12.874025809192233"><ele>705.3333333333333</ele><time>2026-04-26T08:08:15Z</time></trkpt><trkpt lat="43.21100777979918" lon="12.87399014318855"><ele>703.1666666666666</ele><time>2026-04-26T08:08:16Z</time></trkpt><trkpt lat="43.21092833611415" lon="12.873966636854991"><ele>701.0</ele><time>2026-04-26T08:08:17Z</time></trkpt><trkpt lat="43.21086444237407" lon="12.873990448866522"><ele>701.0</ele><time>2026-04-26T08:08:18Z</time></trkpt><trkpt lat="43.210764755699664" lon="12.874086773035435"><ele>701.0</ele><time>2026-04-26T08:08:20Z</time></trkpt><trkpt lat="43.210681344084705" lon="12.874202946456458"><ele>701.0</ele><time>2026-04-26T08:08:22Z</time></trkpt><trkpt lat="43.210636975089315" lon="12.874268692424701"><ele>701.0</ele><time>2026-04-26T08:08:23Z</time></trkpt><trkpt lat="43.21059134044929" lon="12.874339216130116"><ele>701.0</ele><time>2026-04-26T08:08:24Z</time></trkpt><trkpt lat="43.210543379620454" lon="12.874414626699263"><ele>701.0</ele><time>2026-04-26T08:08:25Z</time></trkpt><trkpt lat="43.21049009141027" lon="12.87449833664377"><ele>702.3333333333333</ele><time>2026-04-26T08:08:26Z</time></trkpt><trkpt lat="43.210441576424294" lon="12.87457867285995"><ele>703.6666666666666</ele><time>2026-04-26T08:08:27Z</time></trkpt><trkpt lat="43.21038538770858" lon="12.874671716065462"><ele>705.0</ele><time>2026-04-26T08:08:28Z</time></trkpt><trkpt lat="43.21032816715001" lon="12.874763099573327"><ele>706.3333333333334</ele><time>2026-04-26T08:08:29Z</time></trkpt><trkpt lat="43.21027327316045" lon="12.874835661101116"><ele>707.6666666666667</ele><time>2026-04-26T08:08:30Z</time></trkpt><trkpt lat="43.210175135901345" lon="12.874927661061912"><ele>709.0</ele><time>2026-04-26T08:08:32Z</time></trkpt><trkpt lat="43.21009739342883" lon="12.874948725091455"><ele>709.0</ele><time>2026-04-26T08:08:34Z</time></trkpt><trkpt lat="43.21001625276976" lon="12.874922874046367"><ele>709.0</ele><time>2026-04-26T08:08:46Z</time></trkpt><trkpt lat="43.20991503365348" lon="12.874794622657705"><ele>709.0</ele><time>2026-04-26T08:08:48Z</time></trkpt><trkpt lat="43.20986319221406" lon="12.874721536025422"><ele>709.0</ele><time>2026-04-26T08:08:49Z</time></trkpt><trkpt lat="43.20995413879939" lon="12.874487550039811"><ele>709.0</ele><time>2026-04-26T08:08:50Z</time></trkpt><trkpt lat="43.20991473290877" lon="12.874343157577767"><ele>709.0</ele><time>2026-04-26T08:08:52Z</time></trkpt><trkpt lat="43.20986223558034" lon="12.874185346983824"><ele>709.0</ele><time>2026-04-26T08:08:54Z</time></trkpt><trkpt lat="43.209836055448214" lon="12.874093006383948"><ele>709.0</ele><time>2026-04-26T08:08:55Z</time></trkpt><trkpt lat="43.209764009051646" lon="12.874003423919365"><ele>709.0</ele><time>2026-04-26T08:08:57Z</time></trkpt><trkpt lat="43.20966152387442" lon="12.87406761348843"><ele>708.6666666666667</ele><time>2026-04-26T08:08:59Z</time></trkpt><trkpt lat="43.209604000675164" lon="12.874124597964046"><ele>708.3333333333334</ele><time>2026-04-26T08:09:00Z</time></trkpt><trkpt lat="43.20955457755446" lon="12.874186541775591"><ele>708.0</ele><time>2026-04-26T08:09:01Z</time></trkpt><trkpt lat="43.20950014535749" lon="12.874233992985209"><ele>707.6666666666666</ele><time>2026-04-26T08:09:06Z</time></trkpt><trkpt lat="43.20940797622466" lon="12.874209198962443"><ele>707.3333333333333</ele><time>2026-04-26T08:09:08Z</time></trkpt><trkpt lat="43.20930542344245" lon="12.87417222428645"><ele>707.0</ele><time>2026-04-26T08:09:09Z</time></trkpt><trkpt lat="43.20923808123372" lon="12.874147389596212"><ele>707.0</ele><time>2026-04-26T08:09:10Z</time></trkpt><trkpt lat="43.209140259434605" lon="12.874122945112825"><ele>707.0</ele><time>2026-04-26T08:09:12Z</time></trkpt><trkpt lat="43.20906430965221" lon="12.874095426146491"><ele>707.0</ele><time>2026-04-26T08:09:14Z</time></trkpt><trkpt lat="43.20898219567877" lon="12.874058103185337"><ele>707.0</ele><time>2026-04-26T08:09:16Z</time></trkpt><trkpt lat="43.208910538875045" lon="12.873997823845697"><ele>707.0</ele><time>2026-04-26T08:09:18Z</time></trkpt><trkpt lat="43.20886077440676" lon="12.873930896032872"><ele>707.0</ele><time>2026-04-26T08:09:20Z</time></trkpt><trkpt lat="43.208809470068" lon="12.873859339078685"><ele>708.4000000000001</ele><time>2026-04-26T08:09:22Z</time></trkpt><trkpt lat="43.208753598932866" lon="12.87377592237166"><ele>709.8000000000001</ele><time>2026-04-26T08:09:24Z</time></trkpt><trkpt lat="43.20868100339476" lon="12.873666674780134"><ele>711.2</ele><time>2026-04-26T08:09:27Z</time></trkpt><trkpt lat="43.208608420410656" lon="12.87353024009319"><ele>712.6</ele><time>2026-04-26T08:09:29Z</time></trkpt><trkpt lat="43.20858115243266" lon="12.87339884808544"><ele>714.0</ele><time>2026-04-26T08:09:31Z</time></trkpt><trkpt lat="43.208538609363046" lon="12.87329797188801"><ele>708.0</ele><time>2026-04-26T08:09:33Z</time></trkpt><trkpt lat="43.20849591138763" lon="12.87322924545351"><ele>702.0</ele><time>2026-04-26T08:09:34Z</time></trkpt><trkpt lat="43.20845926160742" lon="12.873133460375618"><ele>696.0</ele><time>2026-04-26T08:09:36Z</time></trkpt><trkpt lat="43.20841161375879" lon="12.873012135435495"><ele>690.0</ele><time>2026-04-26T08:09:39Z</time></trkpt><trkpt lat="43.20838110228678" lon="12.87291040300441"><ele>684.0</ele><time>2026-04-26T08:09:40Z</time></trkpt><trkpt lat="43.208368600941476" lon="12.872821350861425"><ele>678.0</ele><time>2026-04-26T08:09:41Z</time></trkpt><trkpt lat="43.20836533385268" lon="12.872734791853876"><ele>678.0</ele><time>2026-04-26T08:09:42Z</time></trkpt><trkpt lat="43.208370623568044" lon="12.872630334490651"><ele>678.0</ele><time>2026-04-26T08:09:45Z</time></trkpt><trkpt lat="43.20836262307235" lon="12.872517063032486"><ele>678.0</ele><time>2026-04-26T08:09:48Z</time></trkpt><trkpt lat="43.20831751877065" lon="12.872400319577864"><ele>678.0</ele><time>2026-04-26T08:09:51Z</time></trkpt><trkpt lat="43.208276031412595" lon="12.872316522116861"><ele>678.0</ele><time>2026-04-26T08:09:53Z</time></trkpt><trkpt lat="43.20825526523763" lon="12.872210365376459"><ele>678.0</ele><time>2026-04-26T08:09:56Z</time></trkpt><trkpt lat="43.20824543429497" lon="12.872116939599385"><ele>673.3333333333334</ele><time>2026-04-26T08:09:58Z</time></trkpt><trkpt lat="43.20824651046425" lon="12.872003635625495"><ele>668.6666666666666</ele><time>2026-04-26T08:10:00Z</time></trkpt><trkpt lat="43.20823196646334" lon="12.871899420031983"><ele>664.0</ele><time>2026-04-26T08:10:02Z</time></trkpt><trkpt lat="43.20820105891436" lon="12.871803534520957"><ele>659.3333333333333</ele><time>2026-04-26T08:10:04Z</time></trkpt><trkpt lat="43.20818162334549" lon="12.871698412301848"><ele>654.6666666666666</ele><time>2026-04-26T08:10:06Z</time></trkpt><trkpt lat="43.208160876977615" lon="12.871609273310208"><ele>650.0</ele><time>2026-04-26T08:10:08Z</time></trkpt><trkpt lat="43.20812256444153" lon="12.871487302961546"><ele>647.2857142857142</ele><time>2026-04-26T08:10:10Z</time></trkpt><trkpt lat="43.20809623671049" lon="12.871407676955943"><ele>644.5714285714287</ele><time>2026-04-26T08:10:11Z</time></trkpt><trkpt lat="43.20808597249039" lon="12.87128526538421"><ele>641.8571428571429</ele><time>2026-04-26T08:10:13Z</time></trkpt><trkpt lat="43.20808436530157" lon="12.871177544382219"><ele>639.1428571428571</ele><time>2026-04-26T08:10:16Z</time></trkpt><trkpt lat="43.208105522221246" lon="12.871086791716161"><ele>636.4285714285713</ele><time>2026-04-26T08:10:19Z</time></trkpt><trkpt lat="43.208129589683786" lon="12.871004101650467"><ele>633.7142857142858</ele><time>2026-04-26T08:10:22Z</time></trkpt><trkpt lat="43.20813780149511" lon="12.87089801823486"><ele>631.0</ele><time>2026-04-26T08:10:24Z</time></trkpt><trkpt lat="43.208144754000934" lon="12.870811386704217"><ele>627.5714285714286</ele><time>2026-04-26T08:10:27Z</time></trkpt><trkpt lat="43.208147255603976" lon="12.870696089078894"><ele>624.1428571428571</ele><time>2026-04-26T08:10:31Z</time></trkpt><trkpt lat="43.20813848679239" lon="12.870606322218416"><ele>620.7142857142857</ele><time>2026-04-26T08:10:33Z</time></trkpt><trkpt lat="43.20813708917525" lon="12.870518077734623"><ele>617.2857142857142</ele><time>2026-04-26T08:10:35Z</time></trkpt><trkpt lat="43.2081595337764" lon="12.87042038281422"><ele>613.8571428571429</ele><time>2026-04-26T08:10:40Z</time></trkpt><trkpt lat="43.208135237584905" lon="12.870337119689477"><ele>610.4285714285713</ele><time>2026-04-26T08:10:44Z</time></trkpt><trkpt lat="43.20810199704777" lon="12.87023930074134"><ele>607.0</ele><time>2026-04-26T08:10:47Z</time></trkpt><trkpt lat="43.208072811827336" lon="12.870162699272482"><ele>603.0</ele><time>2026-04-26T08:10:49Z</time></trkpt><trkpt lat="43.20802872309718" lon="12.870066204577881"><ele>599.0</ele><time>2026-04-26T08:10:52Z</time></trkpt><trkpt lat="43.207995412954126" lon="12.869971186385529"><ele>595.0</ele><time>2026-04-26T08:10:55Z</time></trkpt><trkpt lat="43.207958322737255" lon="12.86986200083223"><ele>591.0</ele><time>2026-04-26T08:10:59Z</time></trkpt><trkpt lat="43.207905167016285" lon="12.86978401054159"><ele>587.0</ele><time>2026-04-26T08:11:02Z</time></trkpt><trkpt lat="43.20785620209794" lon="12.86972902796302"><ele>583.0</ele><time>2026-04-26T08:11:05Z</time></trkpt><trkpt lat="43.20785222031968" lon="12.869635105459459"><ele>583.0</ele><time>2026-04-26T08:11:09Z</time></trkpt><trkpt lat="43.207832261275925" lon="12.869547973495655"><ele>583.0</ele><time>2026-04-26T08:11:23Z</time></trkpt><trkpt lat="43.20778465136352" lon="12.869489894140434"><ele>583.0</ele><time>2026-04-26T08:12:25Z</time></trkpt><trkpt lat="43.20772120165386" lon="12.869485031821855"><ele>583.0</ele><time>2026-04-26T08:12:29Z</time></trkpt><trkpt lat="43.2076293567287" lon="12.869460214810163"><ele>583.0</ele><time>2026-04-26T08:12:32Z</time></trkpt><trkpt lat="43.20751183166057" lon="12.869449627280858"><ele>583.0</ele><time>2026-04-26T08:12:34Z</time></trkpt><trkpt lat="43.20739504309024" lon="12.869380232136104"><ele>581.0</ele><time>2026-04-26T08:12:36Z</time></trkpt><trkpt lat="43.207323882474704" lon="12.8693699141336"><ele>579.0</ele><time>2026-04-26T08:12:37Z</time></trkpt><trkpt lat="43.20726097774165" lon="12.869335021582225"><ele>577.0</ele><time>2026-04-26T08:12:38Z</time></trkpt><trkpt lat="43.20719403036098" lon="12.869282993078723"><ele>575.0</ele><time>2026-04-26T08:12:39Z</time></trkpt><trkpt lat="43.20712223931014" lon="12.869277521746405"><ele>573.0</ele><time>2026-04-26T08:12:40Z</time></trkpt><trkpt lat="43.20705541177745" lon="12.869286611123227"><ele>571.0</ele><time>2026-04-26T08:12:41Z</time></trkpt><trkpt lat="43.206954954260745" lon="12.869285260073285"><ele>571.0</ele><time>2026-04-26T08:12:43Z</time></trkpt><trkpt lat="43.206867206088894" lon="12.869315371273427"><ele>571.0</ele><time>2026-04-26T08:12:45Z</time></trkpt><trkpt lat="43.20680306101373" lon="12.869274291407402"><ele>571.0</ele><time>2026-04-26T08:12:48Z</time></trkpt><trkpt lat="43.206728046362194" lon="12.869205105261576"><ele>571.0</ele><time>2026-04-26T08:12:49Z</time></trkpt><trkpt lat="43.206628707806395" lon="12.869083959046778"><ele>571.0</ele><time>2026-04-26T08:12:51Z</time></trkpt><trkpt lat="43.20656271320261" lon="12.869003476738424"><ele>565.6666666666667</ele><time>2026-04-26T08:12:52Z</time></trkpt><trkpt lat="43.20665436352685" lon="12.868812707132662"><ele>560.3333333333334</ele><time>2026-04-26T08:12:53Z</time></trkpt><trkpt lat="43.206816405131" lon="12.86875335565644"><ele>555.0</ele><time>2026-04-26T08:12:54Z</time></trkpt><trkpt lat="43.20678782266415" lon="12.86859404469103"><ele>555.0</ele><time>2026-04-26T08:12:56Z</time></trkpt><trkpt lat="43.20677191216217" lon="12.868501966571898"><ele>555.0</ele><time>2026-04-26T08:12:57Z</time></trkpt><trkpt lat="43.20675330359038" lon="12.868398845620694"><ele>555.0</ele><time>2026-04-26T08:12:58Z</time></trkpt><trkpt lat="43.20618849310835" lon="12.868198703874361"><ele>553.3333333333334</ele><time>2026-04-26T08:13:00Z</time></trkpt><trkpt lat="43.206140280929674" lon="12.868089353967825"><ele>551.6666666666666</ele><time>2026-04-26T08:13:01Z</time></trkpt><trkpt lat="43.20609419855205" lon="12.867982340778331"><ele>550.0</ele><time>2026-04-26T08:13:02Z</time></trkpt><trkpt lat="43.206051392909536" lon="12.867882782884166"><ele>548.3333333333333</ele><time>2026-04-26T08:13:03Z</time></trkpt><trkpt lat="43.2060131020847" lon="12.86778500555206"><ele>546.6666666666666</ele><time>2026-04-26T08:13:04Z</time></trkpt><trkpt lat="43.205979838145545" lon="12.867681780766407"><ele>545.0</ele><time>2026-04-26T08:13:05Z</time></trkpt><trkpt lat="43.20593577515106" lon="12.86759134724008"><ele>544.0</ele><time>2026-04-26T08:13:06Z</time></trkpt><trkpt lat="43.205889200053136" lon="12.867506461054216"><ele>543.0</ele><time>2026-04-26T08:13:07Z</time></trkpt><trkpt lat="43.20583186470211" lon="12.867439331772006"><ele>542.0</ele><time>2026-04-26T08:13:08Z</time></trkpt><trkpt lat="43.20576556749288" lon="12.867391811481918"><ele>541.0</ele><time>2026-04-26T08:13:09Z</time></trkpt><trkpt lat="43.20570255365004" lon="12.867337382948323"><ele>540.0</ele><time>2026-04-26T08:13:10Z</time></trkpt><trkpt lat="43.205643053804444" lon="12.867281954343804"><ele>539.0</ele><time>2026-04-26T08:13:11Z</time></trkpt><trkpt lat="43.205592207644735" lon="12.867225158611358"><ele>538.0</ele><time>2026-04-26T08:13:12Z</time></trkpt><trkpt lat="43.20553751414904" lon="12.867172402635056"><ele>538.0</ele><time>2026-04-26T08:13:13Z</time></trkpt><trkpt lat="43.2055270620401" lon="12.867039889328224"><ele>538.0</ele><time>2026-04-26T08:13:14Z</time></trkpt><trkpt lat="43.205441363924166" lon="12.86711257258048"><ele>538.0</ele><time>2026-04-26T08:13:16Z</time></trkpt><trkpt lat="43.20535113152397" lon="12.867124121837476"><ele>538.0</ele><time>2026-04-26T08:13:19Z</time></trkpt><trkpt lat="43.2052857324741" lon="12.867051249433802"><ele>538.0</ele><time>2026-04-26T08:13:20Z</time></trkpt><trkpt lat="43.20517919130708" lon="12.867061553903199"><ele>538.0</ele><time>2026-04-26T08:13:22Z</time></trkpt><trkpt lat="43.20505551696039" lon="12.867025190528937"><ele>538.0</ele><time>2026-04-26T08:13:24Z</time></trkpt><trkpt lat="43.20499229377578" lon="12.866990327059154"><ele>538.0</ele><time>2026-04-26T08:13:25Z</time></trkpt><trkpt lat="43.20492918643664" lon="12.866941117761863"><ele>538.0</ele><time>2026-04-26T08:13:26Z</time></trkpt><trkpt lat="43.204868261150246" lon="12.866882312858019"><ele>538.0</ele><time>2026-04-26T08:13:27Z</time></trkpt><trkpt lat="43.20479776738987" lon="12.866810731478948"><ele>538.0</ele><time>2026-04-26T08:13:28Z</time></trkpt><trkpt lat="43.20472922506852" lon="12.866741131620643"><ele>535.3333333333334</ele><time>2026-04-26T08:13:29Z</time></trkpt><trkpt lat="43.20466047394769" lon="12.866671319893216"><ele>532.6666666666667</ele><time>2026-04-26T08:13:30Z</time></trkpt><trkpt lat="43.204591201637825" lon="12.866603866577774"><ele>530.0</ele><time>2026-04-26T08:13:31Z</time></trkpt><trkpt lat="43.2045214552136" lon="12.866551602716706"><ele>527.3333333333334</ele><time>2026-04-26T08:13:32Z</time></trkpt><trkpt lat="43.20445187975789" lon="12.866524583550916"><ele>524.6666666666666</ele><time>2026-04-26T08:13:33Z</time></trkpt><trkpt lat="43.204366555133184" lon="12.86651316332408"><ele>522.0</ele><time>2026-04-26T08:13:34Z</time></trkpt><trkpt lat="43.204280352316715" lon="12.866529711590422"><ele>522.0</ele><time>2026-04-26T08:13:35Z</time></trkpt><trkpt lat="43.20419380583648" lon="12.866558360318201"><ele>522.0</ele><time>2026-04-26T08:13:36Z</time></trkpt><trkpt lat="43.204104375363194" lon="12.86659732053232"><ele>522.0</ele><time>2026-04-26T08:13:37Z</time></trkpt><trkpt lat="43.20401973399802" lon="12.86664253735484"><ele>522.0</ele><time>2026-04-26T08:13:38Z</time></trkpt><trkpt lat="43.203941149987465" lon="12.866685559590268"><ele>522.0</ele><time>2026-04-26T08:13:39Z</time></trkpt><trkpt lat="43.203868521269214" lon="12.866725321484404"><ele>522.0</ele><time>2026-04-26T08:13:40Z</time></trkpt><trkpt lat="43.20380034374678" lon="12.866760965162673"><ele>521.6666666666666</ele><time>2026-04-26T08:13:41Z</time></trkpt><trkpt lat="43.2037360802203" lon="12.866790586061507"><ele>521.3333333333334</ele><time>2026-04-26T08:13:42Z</time></trkpt><trkpt lat="43.203672637977675" lon="12.866812355049815"><ele>521.0</ele><time>2026-04-26T08:13:43Z</time></trkpt><trkpt lat="43.20357340183997" lon="12.86682172134338"><ele>520.6666666666667</ele><time>2026-04-26T08:13:45Z</time></trkpt><trkpt lat="43.20351640014882" lon="12.866761507885577"><ele>520.3333333333334</ele><time>2026-04-26T08:13:47Z</time></trkpt><trkpt lat="43.203511700156824" lon="12.866618355607432"><ele>520.0</ele><time>2026-04-26T08:13:49Z</time></trkpt><trkpt lat="43.203507193973195" lon="12.866463246590184"><ele>520.0</ele><time>2026-04-26T08:13:51Z</time></trkpt><trkpt lat="43.203503620575475" lon="12.866340245348233"><ele>520.0</ele><time>2026-04-26T08:13:53Z</time></trkpt><trkpt lat="43.203501093422645" lon="12.866217411538859"><ele>520.0</ele><time>2026-04-26T08:13:55Z</time></trkpt><trkpt lat="43.203487388910965" lon="12.866093192075512"><ele>520.0</ele><time>2026-04-26T08:13:57Z</time></trkpt><trkpt lat="43.20349012141172" lon="12.865997134531261"><ele>520.0</ele><time>2026-04-26T08:13:59Z</time></trkpt><trkpt lat="43.203490157136656" lon="12.865897299114403"><ele>520.0</ele><time>2026-04-26T08:14:01Z</time></trkpt><trkpt lat="43.20347663395018" lon="12.865776436137898"><ele>518.0</ele><time>2026-04-26T08:14:04Z</time></trkpt><trkpt lat="43.20341168354466" lon="12.865749511140267"><ele>516.0</ele><time>2026-04-26T08:14:06Z</time></trkpt><trkpt lat="43.20329436591972" lon="12.865751400586495"><ele>514.0</ele><time>2026-04-26T08:14:08Z</time></trkpt><trkpt lat="43.203207150014286" lon="12.86572377822335"><ele>512.0</ele><time>2026-04-26T08:14:09Z</time></trkpt><trkpt lat="43.20311981298495" lon="12.865754555565328"><ele>510.0</ele><time>2026-04-26T08:14:10Z</time></trkpt><trkpt lat="43.20302603503693" lon="12.865786861479046"><ele>509.6</ele><time>2026-04-26T08:14:11Z</time></trkpt><trkpt lat="43.20293455835705" lon="12.865834909423533"><ele>509.2</ele><time>2026-04-26T08:14:12Z</time></trkpt><trkpt lat="43.202837160564705" lon="12.865854557954508"><ele>508.79999999999995</ele><time>2026-04-26T08:14:12.999Z</time></trkpt><trkpt lat="43.20273819724765" lon="12.86589331674702"><ele>508.4</ele><time>2026-04-26T08:14:13.999Z</time></trkpt><trkpt lat="43.202637080415464" lon="12.865940325756204"><ele>508.0</ele><time>2026-04-26T08:14:14.999Z</time></trkpt><trkpt lat="43.20253204377083" lon="12.865978554936882"><ele>509.2</ele><time>2026-04-26T08:14:15.999Z</time></trkpt><trkpt lat="43.202422074723096" lon="12.865994133133213"><ele>510.4</ele><time>2026-04-26T08:14:16.999Z</time></trkpt><trkpt lat="43.20231700239784" lon="12.866026697208095"><ele>511.59999999999997</ele><time>2026-04-26T08:14:17.999Z</time></trkpt><trkpt lat="43.20221082475957" lon="12.866059603847873"><ele>512.8</ele><time>2026-04-26T08:14:18.999Z</time></trkpt><trkpt lat="43.20210581042995" lon="12.866115194001411"><ele>514.0</ele><time>2026-04-26T08:14:19.999Z</time></trkpt><trkpt lat="43.20199562200588" lon="12.866146105469365"><ele>514.0</ele><time>2026-04-26T08:14:20.999Z</time></trkpt><trkpt lat="43.20188598572164" lon="12.866178606088056"><ele>514.0</ele><time>2026-04-26T08:14:21.999Z</time></trkpt><trkpt lat="43.20177526969951" lon="12.866206706751603"><ele>514.0</ele><time>2026-04-26T08:14:22.999Z</time></trkpt><trkpt lat="43.20166579878658" lon="12.866240908166747"><ele>514.0</ele><time>2026-04-26T08:14:23.999Z</time></trkpt><trkpt lat="43.20155329141407" lon="12.866252455720263"><ele>512.0</ele><time>2026-04-26T08:14:24.999Z</time></trkpt><trkpt lat="43.20144134911705" lon="12.86628453155179"><ele>510.0</ele><time>2026-04-26T08:14:25.999Z</time></trkpt><trkpt lat="43.20132328725266" lon="12.866318360869327"><ele>508.0</ele><time>2026-04-26T08:14:26.999Z</time></trkpt><trkpt lat="43.20119790770101" lon="12.86634993789899"><ele>506.0</ele><time>2026-04-26T08:14:27.999Z</time></trkpt><trkpt lat="43.2010671940175" lon="12.866400796322665"><ele>506.0</ele><time>2026-04-26T08:14:28.999Z</time></trkpt><trkpt lat="43.20093026026642" lon="12.866430040060614"><ele>506.0</ele><time>2026-04-26T08:14:29.999Z</time></trkpt><trkpt lat="43.20079365052379" lon="12.86646512202701"><ele>506.0</ele><time>2026-04-26T08:14:30.999Z</time></trkpt><trkpt lat="43.20065899386215" lon="12.866478763332466"><ele>506.0</ele><time>2026-04-26T08:14:31.999Z</time></trkpt><trkpt lat="43.20053293045635" lon="12.866512861437684"><ele>505.25</ele><time>2026-04-26T08:14:32.999Z</time></trkpt><trkpt lat="43.20041419188391" lon="12.866580529637323"><ele>504.5</ele><time>2026-04-26T08:14:34Z</time></trkpt><trkpt lat="43.20029428589934" lon="12.866649052167078"><ele>503.75</ele><time>2026-04-26T08:14:35Z</time></trkpt><trkpt lat="43.2001800304332" lon="12.866731249299296"><ele>503.0</ele><time>2026-04-26T08:14:36Z</time></trkpt><trkpt lat="43.20006571470973" lon="12.866816191675973"><ele>504.0</ele><time>2026-04-26T08:14:37Z</time></trkpt><trkpt lat="43.199957125332546" lon="12.866912782999393"><ele>505.0</ele><time>2026-04-26T08:14:38Z</time></trkpt><trkpt lat="43.19985368446653" lon="12.867010432780186"><ele>506.0</ele><time>2026-04-26T08:14:39Z</time></trkpt><trkpt lat="43.19974939824908" lon="12.867109855776704"><ele>507.0</ele><time>2026-04-26T08:14:40Z</time></trkpt><trkpt lat="43.19964171813715" lon="12.867211867663599"><ele>507.0</ele><time>2026-04-26T08:14:41Z</time></trkpt><trkpt lat="43.199515450350916" lon="12.867280392629619"><ele>507.0</ele><time>2026-04-26T08:14:42Z</time></trkpt><trkpt lat="43.19938581988417" lon="12.867339615149517"><ele>507.0</ele><time>2026-04-26T08:14:43Z</time></trkpt><trkpt lat="43.19926039857812" lon="12.867401561886181"><ele>507.0</ele><time>2026-04-26T08:14:44Z</time></trkpt><trkpt lat="43.19913140471125" lon="12.867440515227523"><ele>507.0</ele><time>2026-04-26T08:14:45Z</time></trkpt><trkpt lat="43.199005248250145" lon="12.867489044096496"><ele>507.0</ele><time>2026-04-26T08:14:46Z</time></trkpt><trkpt lat="43.198873752554256" lon="12.867514652700242"><ele>507.0</ele><time>2026-04-26T08:14:47Z</time></trkpt><trkpt lat="43.198745537235375" lon="12.867561494789182"><ele>507.0</ele><time>2026-04-26T08:14:48Z</time></trkpt><trkpt lat="43.19861826424151" lon="12.867609354123248"><ele>508.0</ele><time>2026-04-26T08:14:49Z</time></trkpt><trkpt lat="43.1984952889866" lon="12.867655597285465"><ele>509.0</ele><time>2026-04-26T08:14:50Z</time></trkpt><trkpt lat="43.19837477532007" lon="12.867700914921178"><ele>510.0</ele><time>2026-04-26T08:14:51Z</time></trkpt><trkpt lat="43.1982546286324" lon="12.867746094454642"><ele>511.0</ele><time>2026-04-26T08:14:52Z</time></trkpt><trkpt lat="43.19813580606089" lon="12.86779077615218"><ele>511.0</ele><time>2026-04-26T08:14:53Z</time></trkpt><trkpt lat="43.198022217390786" lon="12.867856866174016"><ele>511.0</ele><time>2026-04-26T08:14:54Z</time></trkpt><trkpt lat="43.19790047006836" lon="12.867879304069127"><ele>511.0</ele><time>2026-04-26T08:14:55Z</time></trkpt><trkpt lat="43.197787691601974" lon="12.867943803579768"><ele>511.0</ele><time>2026-04-26T08:14:56Z</time></trkpt><trkpt lat="43.19766998138106" lon="12.867981216004177"><ele>511.0</ele><time>2026-04-26T08:14:57Z</time></trkpt><trkpt lat="43.19755199191281" lon="12.868021701172855"><ele>511.0</ele><time>2026-04-26T08:14:58Z</time></trkpt><trkpt lat="43.19743336780523" lon="12.868064984575817"><ele>511.0</ele><time>2026-04-26T08:14:59Z</time></trkpt><trkpt lat="43.19731421240046" lon="12.8681070740406"><ele>511.0</ele><time>2026-04-26T08:15:00Z</time></trkpt><trkpt lat="43.19720094412728" lon="12.86816339271111"><ele>509.0</ele><time>2026-04-26T08:15:01Z</time></trkpt><trkpt lat="43.19708149737892" lon="12.868186339786112"><ele>507.0</ele><time>2026-04-26T08:15:02Z</time></trkpt><trkpt lat="43.19696651101002" lon="12.868230425977762"><ele>505.0</ele><time>2026-04-26T08:15:03Z</time></trkpt><trkpt lat="43.19685342800786" lon="12.868297399007734"><ele>503.0</ele><time>2026-04-26T08:15:04Z</time></trkpt><trkpt lat="43.19673051075335" lon="12.868322682535434"><ele>503.0</ele><time>2026-04-26T08:15:05Z</time></trkpt><trkpt lat="43.19660850094657" lon="12.868371305238986"><ele>503.0</ele><time>2026-04-26T08:15:06Z</time></trkpt><trkpt lat="43.19648961583801" lon="12.868419661159736"><ele>503.0</ele><time>2026-04-26T08:15:07Z</time></trkpt><trkpt lat="43.19637608338847" lon="12.868467807211383"><ele>503.0</ele><time>2026-04-26T08:15:08Z</time></trkpt><trkpt lat="43.19626258639877" lon="12.868515938229269"><ele>505.0</ele><time>2026-04-26T08:15:09Z</time></trkpt><trkpt lat="43.19614696353126" lon="12.86856497077137"><ele>507.0</ele><time>2026-04-26T08:15:10Z</time></trkpt><trkpt lat="43.19603051847324" lon="12.86861435202891"><ele>509.0</ele><time>2026-04-26T08:15:11Z</time></trkpt><trkpt lat="43.195915097750834" lon="12.868663298825643"><ele>511.0</ele><time>2026-04-26T08:15:12Z</time></trkpt><trkpt lat="43.195798577781765" lon="12.868712711756109"><ele>511.0</ele><time>2026-04-26T08:15:13Z</time></trkpt><trkpt lat="43.19568531861606" lon="12.868768477342012"><ele>511.0</ele><time>2026-04-26T08:15:14Z</time></trkpt><trkpt lat="43.19556959651033" lon="12.868809860649609"><ele>511.0</ele><time>2026-04-26T08:15:15Z</time></trkpt><trkpt lat="43.19545513156404" lon="12.868853877439403"><ele>511.0</ele><time>2026-04-26T08:15:16Z</time></trkpt><trkpt lat="43.19534067971529" lon="12.868894243014312"><ele>509.5</ele><time>2026-04-26T08:15:17Z</time></trkpt><trkpt lat="43.195227657899814" lon="12.868937255466275"><ele>508.0</ele><time>2026-04-26T08:15:18Z</time></trkpt><trkpt lat="43.19511212221885" lon="12.868979179885338"><ele>506.5</ele><time>2026-04-26T08:15:19Z</time></trkpt><trkpt lat="43.194996299445684" lon="12.869020698439154"><ele>505.0</ele><time>2026-04-26T08:15:20Z</time></trkpt><trkpt lat="43.19487806800121" lon="12.869048291647047"><ele>504.25</ele><time>2026-04-26T08:15:21Z</time></trkpt><trkpt lat="43.194758426160575" lon="12.869064323745064"><ele>503.5</ele><time>2026-04-26T08:15:22Z</time></trkpt><trkpt lat="43.19463813187372" lon="12.8690632545734"><ele>502.75</ele><time>2026-04-26T08:15:23Z</time></trkpt><trkpt lat="43.19451664275967" lon="12.869059180524449"><ele>502.0</ele><time>2026-04-26T08:15:24Z</time></trkpt><trkpt lat="43.19439871570584" lon="12.86905850355396"><ele>502.0</ele><time>2026-04-26T08:15:25Z</time></trkpt><trkpt lat="43.194281048650446" lon="12.869055026248478"><ele>502.0</ele><time>2026-04-26T08:15:26Z</time></trkpt><trkpt lat="43.194162018293945" lon="12.869058766093685"><ele>502.0</ele><time>2026-04-26T08:15:27Z</time></trkpt><trkpt lat="43.19404448313877" lon="12.869065715125064"><ele>502.0</ele><time>2026-04-26T08:15:28Z</time></trkpt><trkpt lat="43.19392436492539" lon="12.869077537739773"><ele>501.5</ele><time>2026-04-26T08:15:29Z</time></trkpt><trkpt lat="43.19380248754411" lon="12.869102031570586"><ele>501.0</ele><time>2026-04-26T08:15:30Z</time></trkpt><trkpt lat="43.193681696162734" lon="12.869117839557763"><ele>500.5</ele><time>2026-04-26T08:15:31Z</time></trkpt><trkpt lat="43.19356307184566" lon="12.869134218559088"><ele>500.0</ele><time>2026-04-26T08:15:32Z</time></trkpt><trkpt lat="43.19344606419965" lon="12.869144067011906"><ele>500.0</ele><time>2026-04-26T08:15:33Z</time></trkpt><trkpt lat="43.19332887899355" lon="12.869150482371959"><ele>500.0</ele><time>2026-04-26T08:15:34Z</time></trkpt><trkpt lat="43.19321265251831" lon="12.86915644672382"><ele>500.0</ele><time>2026-04-26T08:15:35Z</time></trkpt><trkpt lat="43.19309770377335" lon="12.869165975227128"><ele>500.0</ele><time>2026-04-26T08:15:36Z</time></trkpt><trkpt lat="43.1929849467884" lon="12.869172967949416"><ele>500.2</ele><time>2026-04-26T08:15:37Z</time></trkpt><trkpt lat="43.19287535118838" lon="12.869176824556055"><ele>500.4</ele><time>2026-04-26T08:15:38Z</time></trkpt><trkpt lat="43.19276763864121" lon="12.869177967928723"><ele>500.6</ele><time>2026-04-26T08:15:39Z</time></trkpt><trkpt lat="43.19265762160191" lon="12.869176237677523"><ele>500.8</ele><time>2026-04-26T08:15:40Z</time></trkpt><trkpt lat="43.192545606081275" lon="12.869170439346727"><ele>501.0</ele><time>2026-04-26T08:15:41Z</time></trkpt><trkpt lat="43.19243699207881" lon="12.869159392837757"><ele>501.6</ele><time>2026-04-26T08:15:42Z</time></trkpt><trkpt lat="43.19233231281752" lon="12.869147234302702"><ele>502.20000000000005</ele><time>2026-04-26T08:15:43Z</time></trkpt><trkpt lat="43.19223159823332" lon="12.869129825064766"><ele>502.79999999999995</ele><time>2026-04-26T08:15:44Z</time></trkpt><trkpt lat="43.19213630635699" lon="12.869105963412341"><ele>503.4</ele><time>2026-04-26T08:15:45Z</time></trkpt><trkpt lat="43.19204911513607" lon="12.869088746914652"><ele>504.0</ele><time>2026-04-26T08:15:46Z</time></trkpt><trkpt lat="43.19196736309225" lon="12.86906276637159"><ele>504.0</ele><time>2026-04-26T08:15:47Z</time></trkpt><trkpt lat="43.19189008691419" lon="12.869037636349349"><ele>504.0</ele><time>2026-04-26T08:15:48Z</time></trkpt><trkpt lat="43.191819971510775" lon="12.86900804181538"><ele>504.0</ele><time>2026-04-26T08:15:49Z</time></trkpt><trkpt lat="43.191758505914244" lon="12.86897921403081"><ele>504.0</ele><time>2026-04-26T08:15:50Z</time></trkpt><trkpt lat="43.19166206519934" lon="12.868907606285601"><ele>504.0</ele><time>2026-04-26T08:15:52Z</time></trkpt><trkpt lat="43.19158542104877" lon="12.868828036149418"><ele>504.0</ele><time>2026-04-26T08:15:54Z</time></trkpt><trkpt lat="43.19153719056069" lon="12.868708852201427"><ele>504.0</ele><time>2026-04-26T08:15:56Z</time></trkpt><trkpt lat="43.19154089634015" lon="12.868622185957209"><ele>504.0</ele><time>2026-04-26T08:15:57Z</time></trkpt><trkpt lat="43.19153455949697" lon="12.868525252630057"><ele>504.0</ele><time>2026-04-26T08:15:58Z</time></trkpt><trkpt lat="43.19152487443558" lon="12.868419930357748"><ele>504.0</ele><time>2026-04-26T08:15:59Z</time></trkpt><trkpt lat="43.191518367867495" lon="12.86830229272043"><ele>504.0</ele><time>2026-04-26T08:16:00Z</time></trkpt><trkpt lat="43.19151900942873" lon="12.868177910561345"><ele>504.0</ele><time>2026-04-26T08:16:01Z</time></trkpt><trkpt lat="43.19152294507568" lon="12.868053348188901"><ele>502.57142857142856</ele><time>2026-04-26T08:16:02Z</time></trkpt><trkpt lat="43.19152928206089" lon="12.86793588815528"><ele>501.1428571428571</ele><time>2026-04-26T08:16:03Z</time></trkpt><trkpt lat="43.191538294416944" lon="12.867823437596842"><ele>499.7142857142857</ele><time>2026-04-26T08:16:04Z</time></trkpt><trkpt lat="43.19154664461945" lon="12.867719248887752"><ele>498.2857142857143</ele><time>2026-04-26T08:16:05Z</time></trkpt><trkpt lat="43.19155446964235" lon="12.867621613110035"><ele>496.85714285714283</ele><time>2026-04-26T08:16:06Z</time></trkpt><trkpt lat="43.19156488898325" lon="12.86753007029244"><ele>495.42857142857144</ele><time>2026-04-26T08:16:07Z</time></trkpt><trkpt lat="43.19157981949078" lon="12.86744496967316"><ele>494.0</ele><time>2026-04-26T08:16:08Z</time></trkpt><trkpt lat="43.191607911009015" lon="12.86735754764064"><ele>493.99999999999994</ele><time>2026-04-26T08:16:09Z</time></trkpt><trkpt lat="43.19163506595676" lon="12.867276847803144"><ele>494.0</ele><time>2026-04-26T08:16:10Z</time></trkpt><trkpt lat="43.19168612250825" lon="12.86713741725147"><ele>494.0</ele><time>2026-04-26T08:16:12Z</time></trkpt><trkpt lat="43.19172629733382" lon="12.867036901612336"><ele>494.0</ele><time>2026-04-26T08:16:14Z</time></trkpt><trkpt lat="43.19176263580195" lon="12.866952993833774"><ele>493.99999999999994</ele><time>2026-04-26T08:16:16Z</time></trkpt><trkpt lat="43.19181058908722" lon="12.866842616796996"><ele>494.0</ele><time>2026-04-26T08:16:18Z</time></trkpt><trkpt lat="43.19187866824207" lon="12.86668568051753"><ele>494.0</ele><time>2026-04-26T08:16:20Z</time></trkpt><trkpt lat="43.191928469051064" lon="12.866570879507606"><ele>494.0</ele><time>2026-04-26T08:16:21Z</time></trkpt><trkpt lat="43.19198470256567" lon="12.866441249761426"><ele>494.0</ele><time>2026-04-26T08:16:22Z</time></trkpt><trkpt lat="43.19204985561931" lon="12.866291058749418"><ele>494.0</ele><time>2026-04-26T08:16:23Z</time></trkpt><trkpt lat="43.192116398595715" lon="12.86613299271887"><ele>494.0</ele><time>2026-04-26T08:16:24Z</time></trkpt><trkpt lat="43.192175411582916" lon="12.865984182580549"><ele>494.0</ele><time>2026-04-26T08:16:25Z</time></trkpt><trkpt lat="43.1922257668675" lon="12.865854515733345"><ele>494.0</ele><time>2026-04-26T08:16:26Z</time></trkpt><trkpt lat="43.192268477324696" lon="12.865746846603377"><ele>494.0</ele><time>2026-04-26T08:16:27Z</time></trkpt><trkpt lat="43.19230859499332" lon="12.865647462044244"><ele>494.0</ele><time>2026-04-26T08:16:28Z</time></trkpt><trkpt lat="43.192343702933314" lon="12.865554404403019"><ele>495.16666666666663</ele><time>2026-04-26T08:16:29Z</time></trkpt><trkpt lat="43.192384107029305" lon="12.865480511904755"><ele>496.3333333333333</ele><time>2026-04-26T08:16:30Z</time></trkpt><trkpt lat="43.192480412254085" lon="12.865377871358515"><ele>497.5</ele><time>2026-04-26T08:16:32Z</time></trkpt><trkpt lat="43.19255031417217" lon="12.865380189494882"><ele>498.66666666666663</ele><time>2026-04-26T08:16:33Z</time></trkpt><trkpt lat="43.192622093746536" lon="12.865392335687803"><ele>499.8333333333333</ele><time>2026-04-26T08:16:34Z</time></trkpt><trkpt lat="43.19270029692847" lon="12.865393503039865"><ele>501.0</ele><time>2026-04-26T08:16:35Z</time></trkpt><trkpt lat="43.19278290127651" lon="12.865389303878"><ele>501.0</ele><time>2026-04-26T08:16:36Z</time></trkpt><trkpt lat="43.1928595073295" lon="12.86540344200627"><ele>501.0</ele><time>2026-04-26T08:16:37Z</time></trkpt><trkpt lat="43.19293429402849" lon="12.86539672453483"><ele>501.0</ele><time>2026-04-26T08:16:38Z</time></trkpt><trkpt lat="43.19300046073739" lon="12.865381900037692"><ele>501.0</ele><time>2026-04-26T08:16:39Z</time></trkpt><trkpt lat="43.19307156002303" lon="12.86535863028221"><ele>501.0</ele><time>2026-04-26T08:16:40Z</time></trkpt><trkpt lat="43.19312402315244" lon="12.865265863844847"><ele>501.0</ele><time>2026-04-26T08:16:41Z</time></trkpt><trkpt lat="43.19310865393129" lon="12.865171186595736"><ele>501.0</ele><time>2026-04-26T08:16:42Z</time></trkpt><trkpt lat="43.19301577673379" lon="12.86509857798527"><ele>501.0</ele><time>2026-04-26T08:16:44Z</time></trkpt><trkpt lat="43.192904880526" lon="12.86511368994359"><ele>501.0</ele><time>2026-04-26T08:16:46Z</time></trkpt><trkpt lat="43.19281389097224" lon="12.865043105154642"><ele>501.0</ele><time>2026-04-26T08:16:48Z</time></trkpt><trkpt lat="43.192763303693866" lon="12.864919360808114"><ele>501.0</ele><time>2026-04-26T08:16:50Z</time></trkpt><trkpt lat="43.19272818143362" lon="12.864846012489242"><ele>501.0</ele><time>2026-04-26T08:16:51Z</time></trkpt><trkpt lat="43.19269321122273" lon="12.864764838796123"><ele>503.6</ele><time>2026-04-26T08:16:52Z</time></trkpt><trkpt lat="43.192648188832415" lon="12.864619802389491"><ele>506.20000000000005</ele><time>2026-04-26T08:16:54Z</time></trkpt><trkpt lat="43.192638784140605" lon="12.864482910785386"><ele>508.79999999999995</ele><time>2026-04-26T08:16:56Z</time></trkpt><trkpt lat="43.192640737831375" lon="12.864348549411641"><ele>511.4</ele><time>2026-04-26T08:16:58Z</time></trkpt><trkpt lat="43.19266249723427" lon="12.864225158198753"><ele>514.0</ele><time>2026-04-26T08:17:00Z</time></trkpt><trkpt lat="43.19270877928614" lon="12.864157075539326"><ele>514.0</ele><time>2026-04-26T08:17:02Z</time></trkpt><trkpt lat="43.19274182281986" lon="12.86404707321292"><ele>514.0</ele><time>2026-04-26T08:17:08Z</time></trkpt><trkpt lat="43.19280195321802" lon="12.864076505549647"><ele>514.0</ele><time>2026-04-26T08:17:21Z</time></trkpt><trkpt lat="43.192750470717456" lon="12.864166273415677"><ele>514.0</ele><time>2026-04-26T08:17:23Z</time></trkpt><trkpt lat="43.192720905782934" lon="12.86424699343067"><ele>514.0</ele><time>2026-04-26T08:17:24Z</time></trkpt><trkpt lat="43.19260989050779" lon="12.864326328002297"><ele>514.0</ele><time>2026-04-26T08:17:25Z</time></trkpt><trkpt lat="43.19260494682501" lon="12.86443105313395"><ele>514.0</ele><time>2026-04-26T08:17:26Z</time></trkpt><trkpt lat="43.1926053859388" lon="12.864543162968536"><ele>514.0</ele><time>2026-04-26T08:17:27Z</time></trkpt><trkpt lat="43.192621318888754" lon="12.864658993542056"><ele>514.0</ele><time>2026-04-26T08:17:28Z</time></trkpt><trkpt lat="43.19265099636875" lon="12.864755377060476"><ele>514.0</ele><time>2026-04-26T08:17:29Z</time></trkpt><trkpt lat="43.19268422538237" lon="12.86483368583184"><ele>514.0</ele><time>2026-04-26T08:17:30Z</time></trkpt><trkpt lat="43.19274878495001" lon="12.864972649360048"><ele>514.0</ele><time>2026-04-26T08:17:32Z</time></trkpt><trkpt lat="43.19282124878844" lon="12.865106480746077"><ele>511.83333333333337</ele><time>2026-04-26T08:17:34Z</time></trkpt><trkpt lat="43.19287736852675" lon="12.865166543713173"><ele>509.6666666666667</ele><time>2026-04-26T08:17:35Z</time></trkpt><trkpt lat="43.192947333239744" lon="12.865169111338169"><ele>507.5</ele><time>2026-04-26T08:17:36Z</time></trkpt><trkpt lat="43.193011988919" lon="12.865163206516042"><ele>505.33333333333337</ele><time>2026-04-26T08:17:37Z</time></trkpt><trkpt lat="43.19307447949435" lon="12.865191296601235"><ele>503.1666666666667</ele><time>2026-04-26T08:17:38Z</time></trkpt><trkpt lat="43.19313367699044" lon="12.865280888903158"><ele>501.0</ele><time>2026-04-26T08:17:40Z</time></trkpt><trkpt lat="43.19301874778509" lon="12.86532776744777"><ele>501.0</ele><time>2026-04-26T08:17:44Z</time></trkpt><trkpt lat="43.192909177554" lon="12.865354176479771"><ele>501.0</ele><time>2026-04-26T08:17:46Z</time></trkpt><trkpt lat="43.19283965577173" lon="12.865359331024681"><ele>501.0</ele><time>2026-04-26T08:17:47Z</time></trkpt><trkpt lat="43.19276993947824" lon="12.865363862112401"><ele>501.0</ele><time>2026-04-26T08:17:48Z</time></trkpt><trkpt lat="43.1927035979728" lon="12.865377090225392"><ele>501.0</ele><time>2026-04-26T08:17:49Z</time></trkpt><trkpt lat="43.19264222775163" lon="12.86535595145333"><ele>501.0</ele><time>2026-04-26T08:17:50Z</time></trkpt><trkpt lat="43.19257551069457" lon="12.865324779028965"><ele>501.0</ele><time>2026-04-26T08:17:51Z</time></trkpt><trkpt lat="43.19249838967531" lon="12.86534061469692"><ele>501.0</ele><time>2026-04-26T08:17:52Z</time></trkpt><trkpt lat="43.192379721005885" lon="12.86541250101722"><ele>501.0</ele><time>2026-04-26T08:17:54Z</time></trkpt><trkpt lat="43.192329692825076" lon="12.86550237860904"><ele>501.0</ele><time>2026-04-26T08:17:55Z</time></trkpt><trkpt lat="43.19229068165297" lon="12.865597930665063"><ele>501.0</ele><time>2026-04-26T08:17:56Z</time></trkpt><trkpt lat="43.1922477351126" lon="12.86570386992894"><ele>500.4</ele><time>2026-04-26T08:17:57Z</time></trkpt><trkpt lat="43.19220359025296" lon="12.86581453730346"><ele>499.8</ele><time>2026-04-26T08:17:58Z</time></trkpt><trkpt lat="43.19216026594802" lon="12.865926098948927"><ele>499.19999999999993</ele><time>2026-04-26T08:17:59Z</time></trkpt><trkpt lat="43.19211663067082" lon="12.866038461480857"><ele>498.59999999999997</ele><time>2026-04-26T08:18:00Z</time></trkpt><trkpt lat="43.19207218445304" lon="12.866147384834747"><ele>498.0</ele><time>2026-04-26T08:18:01Z</time></trkpt><trkpt lat="43.19202956845915" lon="12.866248578321127"><ele>497.3333333333333</ele><time>2026-04-26T08:18:02Z</time></trkpt><trkpt lat="43.191988664026184" lon="12.866342871406019"><ele>496.66666666666663</ele><time>2026-04-26T08:18:03Z</time></trkpt><trkpt lat="43.191949267767626" lon="12.866433687865525"><ele>496.0</ele><time>2026-04-26T08:18:04Z</time></trkpt><trkpt lat="43.191912703474316" lon="12.866517975771085"><ele>495.3333333333333</ele><time>2026-04-26T08:18:05Z</time></trkpt><trkpt lat="43.1918797829888" lon="12.866593864292955"><ele>494.66666666666663</ele><time>2026-04-26T08:18:06Z</time></trkpt><trkpt lat="43.19182231879037" lon="12.866726330985848"><ele>494.0</ele><time>2026-04-26T08:18:08Z</time></trkpt><trkpt lat="43.19177384272842" lon="12.86683807811191"><ele>493.57142857142856</ele><time>2026-04-26T08:18:10Z</time></trkpt><trkpt lat="43.19174089610994" lon="12.86692186047804"><ele>493.1428571428571</ele><time>2026-04-26T08:18:13Z</time></trkpt><trkpt lat="43.19173673829624" lon="12.86701714926162"><ele>492.71428571428567</ele><time>2026-04-26T08:18:31Z</time></trkpt><trkpt lat="43.19167161366406" lon="12.866988839587679"><ele>492.2857142857143</ele><time>2026-04-26T08:18:46Z</time></trkpt><trkpt lat="43.191700553476004" lon="12.86710593219753"><ele>491.8571428571428</ele><time>2026-04-26T08:18:55Z</time></trkpt><trkpt lat="43.191714217340035" lon="12.86720084407183"><ele>491.4285714285714</ele><time>2026-04-26T08:18:57Z</time></trkpt><trkpt lat="43.19172439565645" lon="12.867307203379937"><ele>491.0</ele><time>2026-04-26T08:18:59Z</time></trkpt><trkpt lat="43.19172793804007" lon="12.867447181407448"><ele>491.0</ele><time>2026-04-26T08:19:02Z</time></trkpt><trkpt lat="43.191713414003594" lon="12.867588876678404"><ele>491.0</ele><time>2026-04-26T08:19:04Z</time></trkpt><trkpt lat="43.19170073380622" lon="12.867769475824403"><ele>491.0</ele><time>2026-04-26T08:19:06Z</time></trkpt><trkpt lat="43.19168916435077" lon="12.86787965219362"><ele>491.0</ele><time>2026-04-26T08:19:07Z</time></trkpt><trkpt lat="43.19167662989209" lon="12.868004771629387"><ele>491.0</ele><time>2026-04-26T08:19:08Z</time></trkpt><trkpt lat="43.191651897166" lon="12.868302704778687"><ele>495.3333333333333</ele><time>2026-04-26T08:19:09Z</time></trkpt><trkpt lat="43.19162935294626" lon="12.868571194080424"><ele>499.66666666666663</ele><time>2026-04-26T08:19:10Z</time></trkpt><trkpt lat="43.19161901482275" lon="12.868783059894078"><ele>504.0</ele><time>2026-04-26T08:19:11Z</time></trkpt><trkpt lat="43.191587304261546" lon="12.868992620250955"><ele>509.0</ele><time>2026-04-26T08:19:12Z</time></trkpt><trkpt lat="43.191536451312956" lon="12.869329731748378"><ele>514.0</ele><time>2026-04-26T08:19:13Z</time></trkpt><trkpt lat="43.191533006853575" lon="12.869592142094078"><ele>519.0</ele><time>2026-04-26T08:19:14Z</time></trkpt><trkpt lat="43.19152415519713" lon="12.869829844617964"><ele>519.0</ele><time>2026-04-26T08:19:15Z</time></trkpt><trkpt lat="43.19151947286667" lon="12.87006940905737"><ele>519.0</ele><time>2026-04-26T08:19:16Z</time></trkpt><trkpt lat="43.19151643725133" lon="12.87030225282068"><ele>519.0</ele><time>2026-04-26T08:19:17Z</time></trkpt><trkpt lat="43.19151960439489" lon="12.870510052346011"><ele>494.0</ele><time>2026-04-26T08:19:18Z</time></trkpt><trkpt lat="43.19178917212471" lon="12.867988466237977"><ele>494.0</ele><time>2026-04-26T08:20:40Z</time></trkpt><trkpt lat="43.1917675779696" lon="12.867733781604052"><ele>494.0</ele><time>2026-04-26T08:20:41Z</time></trkpt><trkpt lat="43.19175374520851" lon="12.867617605313301"><ele>494.0</ele><time>2026-04-26T08:20:42Z</time></trkpt><trkpt lat="43.19169212657797" lon="12.867424563268912"><ele>494.0</ele><time>2026-04-26T08:20:43Z</time></trkpt><trkpt lat="43.191664187307" lon="12.86729026579015"><ele>493.4</ele><time>2026-04-26T08:20:46Z</time></trkpt><trkpt lat="43.19163773833031" lon="12.867200838079047"><ele>492.79999999999995</ele><time>2026-04-26T08:20:47Z</time></trkpt><trkpt lat="43.19160332664444" lon="12.867112572369836"><ele>492.20000000000005</ele><time>2026-04-26T08:20:49Z</time></trkpt><trkpt lat="43.19163470312544" lon="12.867005187430168"><ele>491.6</ele><time>2026-04-26T08:21:00Z</time></trkpt><trkpt lat="43.19156104291904" lon="12.866887900959266"><ele>491.0</ele><time>2026-04-26T08:21:04Z</time></trkpt><trkpt lat="43.191472581776665" lon="12.866781612429197"><ele>491.20000000000005</ele><time>2026-04-26T08:21:06Z</time></trkpt><trkpt lat="43.19143619543647" lon="12.866591666242686"><ele>491.40000000000003</ele><time>2026-04-26T08:21:08Z</time></trkpt><trkpt lat="43.19143314715304" lon="12.866473318103754"><ele>491.6</ele><time>2026-04-26T08:21:09Z</time></trkpt><trkpt lat="43.19143071815974" lon="12.866371441597988"><ele>491.8</ele><time>2026-04-26T08:21:10Z</time></trkpt><trkpt lat="43.1914334215279" lon="12.866256892377695"><ele>492.0</ele><time>2026-04-26T08:21:11Z</time></trkpt><trkpt lat="43.19143599266467" lon="12.866145964227872"><ele>492.00000000000006</ele><time>2026-04-26T08:21:12Z</time></trkpt><trkpt lat="43.19143509008197" lon="12.866043167112618"><ele>492.0</ele><time>2026-04-26T08:21:13Z</time></trkpt><trkpt lat="43.1914370472844" lon="12.86594466627961"><ele>492.00000000000006</ele><time>2026-04-26T08:21:14Z</time></trkpt><trkpt lat="43.191448371880654" lon="12.865850084605297"><ele>492.00000000000006</ele><time>2026-04-26T08:21:15Z</time></trkpt><trkpt lat="43.19145312992958" lon="12.865743114882163"><ele>492.0</ele><time>2026-04-26T08:21:16Z</time></trkpt><trkpt lat="43.19145530892961" lon="12.865637814594074"><ele>492.00000000000006</ele><time>2026-04-26T08:21:17Z</time></trkpt><trkpt lat="43.19146134106355" lon="12.865539259766306"><ele>492.00000000000006</ele><time>2026-04-26T08:21:18Z</time></trkpt><trkpt lat="43.19147106900081" lon="12.865432684712243"><ele>493.3333333333333</ele><time>2026-04-26T08:21:19Z</time></trkpt><trkpt lat="43.19148436957658" lon="12.865322007911182"><ele>494.66666666666663</ele><time>2026-04-26T08:21:20Z</time></trkpt><trkpt lat="43.19149084835165" lon="12.86520351974164"><ele>496.0</ele><time>2026-04-26T08:21:21Z</time></trkpt><trkpt lat="43.19150444427927" lon="12.865093664184352"><ele>497.3333333333333</ele><time>2026-04-26T08:21:22.001Z</time></trkpt><trkpt lat="43.19151403469687" lon="12.864986456750774"><ele>498.66666666666663</ele><time>2026-04-26T08:21:23.001Z</time></trkpt><trkpt lat="43.19152956112776" lon="12.864880759099051"><ele>500.0</ele><time>2026-04-26T08:21:24.001Z</time></trkpt><trkpt lat="43.191540790970386" lon="12.864739627152849"><ele>501.0</ele><time>2026-04-26T08:21:25.001Z</time></trkpt><trkpt lat="43.191548051161014" lon="12.864605951493333"><ele>502.0</ele><time>2026-04-26T08:21:26.001Z</time></trkpt><trkpt lat="43.19154834295222" lon="12.86444904542527"><ele>503.0</ele><time>2026-04-26T08:21:27.001Z</time></trkpt><trkpt lat="43.19155153616128" lon="12.864300050103568"><ele>504.0</ele><time>2026-04-26T08:21:28.001Z</time></trkpt><trkpt lat="43.191577853995874" lon="12.864191092295986"><ele>505.0</ele><time>2026-04-26T08:21:29.001Z</time></trkpt><trkpt lat="43.19161015214986" lon="12.864073804945546"><ele>506.4</ele><time>2026-04-26T08:21:30.001Z</time></trkpt><trkpt lat="43.19162886047544" lon="12.863922614975962"><ele>507.8</ele><time>2026-04-26T08:21:31.001Z</time></trkpt><trkpt lat="43.191634885118496" lon="12.86377834500239"><ele>509.20000000000005</ele><time>2026-04-26T08:21:32.001Z</time></trkpt><trkpt lat="43.19162910055186" lon="12.86363175281459"><ele>510.6</ele><time>2026-04-26T08:21:33.001Z</time></trkpt><trkpt lat="43.19162732369482" lon="12.863542756013855"><ele>512.0</ele><time>2026-04-26T08:21:34.001Z</time></trkpt><trkpt lat="43.19158795445867" lon="12.863387057986804"><ele>512.6666666666666</ele><time>2026-04-26T08:21:36.001Z</time></trkpt><trkpt lat="43.19155353613503" lon="12.863284091663473"><ele>513.3333333333333</ele><time>2026-04-26T08:21:37.001Z</time></trkpt><trkpt lat="43.19153899677944" lon="12.863159703479466"><ele>514.0</ele><time>2026-04-26T08:21:38Z</time></trkpt><trkpt lat="43.19152978096084" lon="12.863030850841774"><ele>514.6666666666666</ele><time>2026-04-26T08:21:39Z</time></trkpt><trkpt lat="43.191521194870774" lon="12.862915314090476"><ele>515.3333333333334</ele><time>2026-04-26T08:21:40Z</time></trkpt><trkpt lat="43.19152737046788" lon="12.862806960337663"><ele>516.0</ele><time>2026-04-26T08:21:41Z</time></trkpt><trkpt lat="43.191553811221056" lon="12.862702533923187"><ele>516.4285714285713</ele><time>2026-04-26T08:21:42Z</time></trkpt><trkpt lat="43.19158128640749" lon="12.862597540272331"><ele>516.8571428571429</ele><time>2026-04-26T08:21:43Z</time></trkpt><trkpt lat="43.19158597441522" lon="12.862503811485105"><ele>517.2857142857142</ele><time>2026-04-26T08:21:44Z</time></trkpt><trkpt lat="43.191534043923554" lon="12.862441152115137"><ele>517.7142857142857</ele><time>2026-04-26T08:21:45Z</time></trkpt><trkpt lat="43.19153774290472" lon="12.862332749011026"><ele>518.1428571428571</ele><time>2026-04-26T08:21:46Z</time></trkpt><trkpt lat="43.191502285093804" lon="12.86226080206977"><ele>518.5714285714286</ele><time>2026-04-26T08:21:47Z</time></trkpt><trkpt lat="43.1914363832472" lon="12.862193795886519"><ele>519.0</ele><time>2026-04-26T08:21:48Z</time></trkpt><trkpt lat="43.191375754330814" lon="12.862116645893417"><ele>519.8</ele><time>2026-04-26T08:21:49Z</time></trkpt><trkpt lat="43.19129702097105" lon="12.862018998081236"><ele>520.5999999999999</ele><time>2026-04-26T08:21:50Z</time></trkpt><trkpt lat="43.19122123890038" lon="12.861919748852774"><ele>521.4</ele><time>2026-04-26T08:21:51Z</time></trkpt><trkpt lat="43.191160528320474" lon="12.861818692432294"><ele>522.1999999999999</ele><time>2026-04-26T08:21:52Z</time></trkpt><trkpt lat="43.19108688131316" lon="12.861727815007004"><ele>523.0</ele><time>2026-04-26T08:21:53Z</time></trkpt><trkpt lat="43.191018839015165" lon="12.861639390001791"><ele>523.0</ele><time>2026-04-26T08:21:54Z</time></trkpt><trkpt lat="43.190940656440404" lon="12.861566427843082"><ele>523.0</ele><time>2026-04-26T08:21:55Z</time></trkpt><trkpt lat="43.190873917842076" lon="12.861435784579342"><ele>523.0</ele><time>2026-04-26T08:21:56Z</time></trkpt><trkpt lat="43.190805846918316" lon="12.861342168225537"><ele>523.0</ele><time>2026-04-26T08:21:57Z</time></trkpt><trkpt lat="43.190766295723094" lon="12.861226298716847"><ele>523.0</ele><time>2026-04-26T08:21:58Z</time></trkpt><trkpt lat="43.190712682659836" lon="12.861130402460963"><ele>525.1666666666667</ele><time>2026-04-26T08:21:59Z</time></trkpt><trkpt lat="43.1906536158628" lon="12.8610659131664"><ele>527.3333333333334</ele><time>2026-04-26T08:22:00Z</time></trkpt><trkpt lat="43.19060894791466" lon="12.860941125702116"><ele>529.5</ele><time>2026-04-26T08:22:02Z</time></trkpt><trkpt lat="43.190521606814876" lon="12.860869301925701"><ele>531.6666666666666</ele><time>2026-04-26T08:22:04Z</time></trkpt><trkpt lat="43.19045562834471" lon="12.860815924980455"><ele>533.8333333333333</ele><time>2026-04-26T08:22:05Z</time></trkpt><trkpt lat="43.19043123844642" lon="12.860732568259005"><ele>536.0</ele><time>2026-04-26T08:22:06Z</time></trkpt><trkpt lat="43.19039614480748" lon="12.860580688635656"><ele>536.0</ele><time>2026-04-26T08:22:08Z</time></trkpt><trkpt lat="43.19043956899931" lon="12.860473583303193"><ele>536.0</ele><time>2026-04-26T08:22:11Z</time></trkpt><trkpt lat="43.190498912225564" lon="12.860422926723496"><ele>536.0</ele><time>2026-04-26T08:22:12Z</time></trkpt><trkpt lat="43.19056252494945" lon="12.860376079941236"><ele>536.0</ele><time>2026-04-26T08:22:13Z</time></trkpt><trkpt lat="43.19062345050247" lon="12.86031581254039"><ele>536.0</ele><time>2026-04-26T08:22:14Z</time></trkpt><trkpt lat="43.19067656123245" lon="12.860234096258763"><ele>536.0</ele><time>2026-04-26T08:22:15Z</time></trkpt><trkpt lat="43.190723036408386" lon="12.860175457202972"><ele>534.8333333333333</ele><time>2026-04-26T08:22:16Z</time></trkpt><trkpt lat="43.190811824079304" lon="12.86012324372624"><ele>533.6666666666666</ele><time>2026-04-26T08:22:18Z</time></trkpt><trkpt lat="43.19085463607782" lon="12.860043357069408"><ele>532.5</ele><time>2026-04-26T08:22:21Z</time></trkpt><trkpt lat="43.19086832012454" lon="12.859956189741954"><ele>531.3333333333334</ele><time>2026-04-26T08:23:04Z</time></trkpt><trkpt lat="43.190802508664206" lon="12.85995756762068"><ele>530.1666666666667</ele><time>2026-04-26T08:23:07Z</time></trkpt><trkpt lat="43.19073015756639" lon="12.859961860610001"><ele>529.0</ele><time>2026-04-26T08:23:09Z</time></trkpt><trkpt lat="43.19060995553026" lon="12.859898577145724"><ele>532.0</ele><time>2026-04-26T08:23:11Z</time></trkpt><trkpt lat="43.190548157431145" lon="12.859861791357684"><ele>535.0</ele><time>2026-04-26T08:23:12Z</time></trkpt><trkpt lat="43.190488768253786" lon="12.859826332838548"><ele>538.0</ele><time>2026-04-26T08:23:13Z</time></trkpt><trkpt lat="43.19041983049601" lon="12.859789092673402"><ele>541.0</ele><time>2026-04-26T08:23:15Z</time></trkpt><trkpt lat="43.19035210873209" lon="12.85975280843858"><ele>544.0</ele><time>2026-04-26T08:23:20Z</time></trkpt><trkpt lat="43.190277538304294" lon="12.859691370057089"><ele>547.0</ele><time>2026-04-26T08:23:24Z</time></trkpt><trkpt lat="43.19021275834495" lon="12.859600695517235"><ele>547.0</ele><time>2026-04-26T08:23:27Z</time></trkpt><trkpt lat="43.19012391431182" lon="12.859586492884356"><ele>547.0</ele><time>2026-04-26T08:23:30Z</time></trkpt><trkpt lat="43.19004643906624" lon="12.859613293687213"><ele>547.0</ele><time>2026-04-26T08:23:36Z</time></trkpt><trkpt lat="43.189980878404356" lon="12.859586689254233"><ele>547.0</ele><time>2026-04-26T08:23:39Z</time></trkpt><trkpt lat="43.18990355890388" lon="12.859568246557325"><ele>547.0</ele><time>2026-04-26T08:23:42Z</time></trkpt><trkpt lat="43.18982264833831" lon="12.85953607621284"><ele>547.0</ele><time>2026-04-26T08:23:45Z</time></trkpt><trkpt lat="43.18975308205852" lon="12.859494555697504"><ele>547.4285714285714</ele><time>2026-04-26T08:23:47Z</time></trkpt><trkpt lat="43.18969232253401" lon="12.859455067049245"><ele>547.8571428571428</ele><time>2026-04-26T08:23:49Z</time></trkpt><trkpt lat="43.18962665086797" lon="12.859417692181772"><ele>548.2857142857142</ele><time>2026-04-26T08:23:51Z</time></trkpt><trkpt lat="43.18956721419856" lon="12.859382656995741"><ele>548.7142857142857</ele><time>2026-04-26T08:23:56Z</time></trkpt><trkpt lat="43.189488488381734" lon="12.859401218150017"><ele>549.1428571428571</ele><time>2026-04-26T08:24:50Z</time></trkpt><trkpt lat="43.18955892853062" lon="12.859349378528544"><ele>549.5714285714286</ele><time>2026-04-26T08:24:58Z</time></trkpt><trkpt lat="43.189618872546895" lon="12.859379266054566"><ele>550.0</ele><time>2026-04-26T08:25:01Z</time></trkpt><trkpt lat="43.18969132797937" lon="12.859425682572574"><ele>550.0</ele><time>2026-04-26T08:25:03Z</time></trkpt><trkpt lat="43.189757422185615" lon="12.859451536549653"><ele>550.0</ele><time>2026-04-26T08:25:07Z</time></trkpt><trkpt lat="43.18983732130595" lon="12.859486662797984"><ele>550.0</ele><time>2026-04-26T08:25:10Z</time></trkpt><trkpt lat="43.18993333599022" lon="12.859513226329259"><ele>550.0</ele><time>2026-04-26T08:25:15Z</time></trkpt><trkpt lat="43.18999523668985" lon="12.859492406661666"><ele>550.0</ele><time>2026-04-26T08:25:18Z</time></trkpt><trkpt lat="43.19007165374588" lon="12.859526064214101"><ele>550.0</ele><time>2026-04-26T08:25:22Z</time></trkpt><trkpt lat="43.190121216186" lon="12.859582916148497"><ele>549.5</ele><time>2026-04-26T08:25:25Z</time></trkpt><trkpt lat="43.19017574792227" lon="12.859647093287837"><ele>549.0</ele><time>2026-04-26T08:25:28Z</time></trkpt><trkpt lat="43.1902422287439" lon="12.859693724486675"><ele>548.5</ele><time>2026-04-26T08:25:31Z</time></trkpt><trkpt lat="43.190301972741494" lon="12.859764576504464"><ele>548.0</ele><time>2026-04-26T08:25:39Z</time></trkpt><trkpt lat="43.190352597694655" lon="12.859824356527374"><ele>547.5</ele><time>2026-04-26T08:25:41Z</time></trkpt><trkpt lat="43.19043079470938" lon="12.859886530802736"><ele>547.0</ele><time>2026-04-26T08:25:43Z</time></trkpt><trkpt lat="43.19050714264985" lon="12.859942847387492"><ele>547.0</ele><time>2026-04-26T08:25:45Z</time></trkpt><trkpt lat="43.19059140064637" lon="12.859983463696256"><ele>547.0</ele><time>2026-04-26T08:25:47Z</time></trkpt><trkpt lat="43.190679679811346" lon="12.859989291762373"><ele>547.0</ele><time>2026-04-26T08:25:49Z</time></trkpt><trkpt lat="43.19076138594392" lon="12.85997158587189"><ele>547.0</ele><time>2026-04-26T08:25:51Z</time></trkpt><trkpt lat="43.19083479291396" lon="12.859931264980972"><ele>547.0</ele><time>2026-04-26T08:25:53Z</time></trkpt><trkpt lat="43.19092451086031" lon="12.85990335125696"><ele>547.0</ele><time>2026-04-26T08:25:56Z</time></trkpt><trkpt lat="43.19099791358466" lon="12.85989718116218"><ele>547.3333333333334</ele><time>2026-04-26T08:25:58Z</time></trkpt><trkpt lat="43.19106151670953" lon="12.859888104351578"><ele>547.6666666666667</ele><time>2026-04-26T08:25:59Z</time></trkpt><trkpt lat="43.19112734100018" lon="12.859875437092153"><ele>548.0</ele><time>2026-04-26T08:25:59.999Z</time></trkpt><trkpt lat="43.19122663262012" lon="12.859844120580473"><ele>548.3333333333334</ele><time>2026-04-26T08:26:01.999Z</time></trkpt><trkpt lat="43.19130328061795" lon="12.859801670136111"><ele>548.6666666666666</ele><time>2026-04-26T08:26:03.999Z</time></trkpt><trkpt lat="43.191393225417144" lon="12.859749880459892"><ele>549.0</ele><time>2026-04-26T08:26:05.999Z</time></trkpt><trkpt lat="43.19147444444244" lon="12.859687712415303"><ele>548.0</ele><time>2026-04-26T08:26:07.999Z</time></trkpt><trkpt lat="43.1915619678101" lon="12.859610771315094"><ele>547.0</ele><time>2026-04-26T08:26:09.999Z</time></trkpt><trkpt lat="43.19162736085161" lon="12.859562309887444"><ele>546.0</ele><time>2026-04-26T08:26:11.999Z</time></trkpt><trkpt lat="43.19169586269549" lon="12.859495805588423"><ele>545.0</ele><time>2026-04-26T08:26:14.999Z</time></trkpt><trkpt lat="43.19176954995112" lon="12.859434897044334"><ele>544.0</ele><time>2026-04-26T08:26:17.999Z</time></trkpt><trkpt lat="43.19181984232783" lon="12.859379171549095"><ele>543.0</ele><time>2026-04-26T08:26:19.999Z</time></trkpt><trkpt lat="43.191875947928885" lon="12.859292900339916"><ele>546.4</ele><time>2026-04-26T08:26:21.999Z</time></trkpt><trkpt lat="43.19193090640577" lon="12.859173528598953"><ele>549.8</ele><time>2026-04-26T08:26:23.999Z</time></trkpt><trkpt lat="43.19196119971035" lon="12.859067098717379"><ele>553.2</ele><time>2026-04-26T08:26:25.999Z</time></trkpt><trkpt lat="43.19201101129135" lon="12.858985673320378"><ele>556.6</ele><time>2026-04-26T08:26:27.999Z</time></trkpt><trkpt lat="43.192089302934455" lon="12.85891034183172"><ele>560.0</ele><time>2026-04-26T08:26:29.999Z</time></trkpt><trkpt lat="43.192176988773255" lon="12.858830921284513"><ele>560.0</ele><time>2026-04-26T08:26:31.999Z</time></trkpt><trkpt lat="43.19226623670625" lon="12.858774134710963"><ele>560.0</ele><time>2026-04-26T08:26:33.999Z</time></trkpt><trkpt lat="43.19236172370618" lon="12.858761197304814"><ele>560.0</ele><time>2026-04-26T08:26:36.999Z</time></trkpt><trkpt lat="43.19242470500296" lon="12.85875027157911"><ele>560.0</ele><time>2026-04-26T08:26:38.999Z</time></trkpt><trkpt lat="43.19248358564594" lon="12.858688484643235"><ele>560.0</ele><time>2026-04-26T08:26:40.999Z</time></trkpt><trkpt lat="43.19251853739744" lon="12.858603194035023"><ele>560.0</ele><time>2026-04-26T08:26:42.999Z</time></trkpt><trkpt lat="43.19254166370376" lon="12.85849150374885"><ele>561.2</ele><time>2026-04-26T08:26:45.999Z</time></trkpt><trkpt lat="43.19257600297844" lon="12.858363981865475"><ele>562.4</ele><time>2026-04-26T08:26:47.999Z</time></trkpt><trkpt lat="43.19260459446397" lon="12.85825494133039"><ele>563.6</ele><time>2026-04-26T08:26:49.999Z</time></trkpt><trkpt lat="43.19264284425463" lon="12.858142608302261"><ele>564.8</ele><time>2026-04-26T08:26:51.999Z</time></trkpt><trkpt lat="43.19267350393593" lon="12.85801493008438"><ele>566.0</ele><time>2026-04-26T08:26:53.999Z</time></trkpt><trkpt lat="43.1927261192406" lon="12.857888764549584"><ele>566.0</ele><time>2026-04-26T08:26:55.999Z</time></trkpt><trkpt lat="43.19278932162282" lon="12.857830814723437"><ele>566.0</ele><time>2026-04-26T08:26:57.999Z</time></trkpt><trkpt lat="43.19287818794187" lon="12.857837082632505"><ele>566.0</ele><time>2026-04-26T08:26:59.999Z</time></trkpt><trkpt lat="43.19297072079114" lon="12.85789787729776"><ele>566.0</ele><time>2026-04-26T08:27:01.999Z</time></trkpt><trkpt lat="43.19307115440272" lon="12.858009141820785"><ele>566.0</ele><time>2026-04-26T08:27:03.999Z</time></trkpt><trkpt lat="43.19316077505222" lon="12.858109094637117"><ele>565.0</ele><time>2026-04-26T08:27:05.999Z</time></trkpt><trkpt lat="43.19324634485565" lon="12.858215665358061"><ele>564.0</ele><time>2026-04-26T08:27:07.999Z</time></trkpt><trkpt lat="43.193329199279226" lon="12.858326935619555"><ele>563.0</ele><time>2026-04-26T08:27:09.999Z</time></trkpt><trkpt lat="43.19342081395879" lon="12.858427779715914"><ele>562.0</ele><time>2026-04-26T08:27:11.999Z</time></trkpt><trkpt lat="43.19348223486465" lon="12.858472218129034"><ele>561.0</ele><time>2026-04-26T08:27:12.999Z</time></trkpt><trkpt lat="43.19356158641579" lon="12.858505827407452"><ele>561.0</ele><time>2026-04-26T08:27:13.999Z</time></trkpt><trkpt lat="43.193650347447544" lon="12.858525098400513"><ele>561.0</ele><time>2026-04-26T08:27:14.999Z</time></trkpt><trkpt lat="43.19374104139232" lon="12.858548855991561"><ele>561.0</ele><time>2026-04-26T08:27:15.999Z</time></trkpt><trkpt lat="43.19383953615362" lon="12.858554803582603"><ele>561.0</ele><time>2026-04-26T08:27:16.999Z</time></trkpt><trkpt lat="43.193935214817486" lon="12.858545831287339"><ele>561.0</ele><time>2026-04-26T08:27:17.999Z</time></trkpt><trkpt lat="43.19400430863929" lon="12.858550772664298"><ele>561.0</ele><time>2026-04-26T08:27:18.999Z</time></trkpt><trkpt lat="43.194120617809915" lon="12.858569129262476"><ele>563.6</ele><time>2026-04-26T08:27:20.999Z</time></trkpt><trkpt lat="43.194183081341585" lon="12.858601401315461"><ele>566.2</ele><time>2026-04-26T08:27:21.999Z</time></trkpt><trkpt lat="43.19424215249817" lon="12.858637029898054"><ele>568.8</ele><time>2026-04-26T08:27:22.999Z</time></trkpt><trkpt lat="43.19434961430774" lon="12.858693451746728"><ele>571.4</ele><time>2026-04-26T08:27:24.999Z</time></trkpt><trkpt lat="43.19447291919207" lon="12.858740764281373"><ele>574.0</ele><time>2026-04-26T08:27:26.999Z</time></trkpt><trkpt lat="43.19456810623643" lon="12.858778748981369"><ele>574.0</ele><time>2026-04-26T08:27:28.999Z</time></trkpt><trkpt lat="43.19463072367285" lon="12.858731045634924"><ele>574.0</ele><time>2026-04-26T08:27:32.999Z</time></trkpt><trkpt lat="43.194623801734494" lon="12.858629586432459"><ele>574.0</ele><time>2026-04-26T08:27:34.999Z</time></trkpt><trkpt lat="43.194607199447134" lon="12.858511652055396"><ele>574.0</ele><time>2026-04-26T08:27:36.999Z</time></trkpt><trkpt lat="43.19455297025864" lon="12.858368082847917"><ele>574.0</ele><time>2026-04-26T08:27:38.999Z</time></trkpt><trkpt lat="43.19452832050345" lon="12.858274356834263"><ele>574.0</ele><time>2026-04-26T08:27:39.999Z</time></trkpt><trkpt lat="43.19450622892838" lon="12.85817986678445"><ele>576.3333333333334</ele><time>2026-04-26T08:27:40.999Z</time></trkpt><trkpt lat="43.194483162492666" lon="12.858088336082737"><ele>578.6666666666667</ele><time>2026-04-26T08:27:41.999Z</time></trkpt><trkpt lat="43.19444853270772" lon="12.858003958968597"><ele>581.0</ele><time>2026-04-26T08:27:42.999Z</time></trkpt><trkpt lat="43.19442874383091" lon="12.857917611803233"><ele>583.3333333333334</ele><time>2026-04-26T08:27:43.999Z</time></trkpt><trkpt lat="43.19442359650598" lon="12.857760820558298"><ele>585.6666666666666</ele><time>2026-04-26T08:27:45.999Z</time></trkpt><trkpt lat="43.19444495130079" lon="12.857645901306979"><ele>588.0</ele><time>2026-04-26T08:27:47.999Z</time></trkpt><trkpt lat="43.19449216286244" lon="12.857563656990417"><ele>590.6</ele><time>2026-04-26T08:27:50.999Z</time></trkpt><trkpt lat="43.194540787483014" lon="12.85750130984146"><ele>593.1999999999999</ele><time>2026-04-26T08:28:02.999Z</time></trkpt><trkpt lat="43.194456816548424" lon="12.857412141013159"><ele>595.8</ele><time>2026-04-26T08:28:06.999Z</time></trkpt><trkpt lat="43.19438342856208" lon="12.857326591203135"><ele>598.4</ele><time>2026-04-26T08:28:10.999Z</time></trkpt><trkpt lat="43.19425748861906" lon="12.85726760611815"><ele>601.0</ele><time>2026-04-26T08:28:12.999Z</time></trkpt><trkpt lat="43.19418784671002" lon="12.857218568752552"><ele>601.0</ele><time>2026-04-26T08:28:13.999Z</time></trkpt><trkpt lat="43.19408848701143" lon="12.857216312907152"><ele>601.0</ele><time>2026-04-26T08:28:14.999Z</time></trkpt><trkpt lat="43.19401062310787" lon="12.857154720285108"><ele>601.0</ele><time>2026-04-26T08:28:15.999Z</time></trkpt><trkpt lat="43.193920424527484" lon="12.857081836474617"><ele>601.0</ele><time>2026-04-26T08:28:16.999Z</time></trkpt><trkpt lat="43.193822094390306" lon="12.856998835826825"><ele>601.0</ele><time>2026-04-26T08:28:17.999Z</time></trkpt><trkpt lat="43.19373272494372" lon="12.856907721476512"><ele>602.1666666666667</ele><time>2026-04-26T08:28:18.999Z</time></trkpt><trkpt lat="43.19364313232646" lon="12.856858006431612"><ele>603.3333333333334</ele><time>2026-04-26T08:28:19.999Z</time></trkpt><trkpt lat="43.19356844866247" lon="12.85679651114449"><ele>604.5</ele><time>2026-04-26T08:28:20.999Z</time></trkpt><trkpt lat="43.19349819436948" lon="12.856721559271792"><ele>605.6666666666666</ele><time>2026-04-26T08:28:21.999Z</time></trkpt><trkpt lat="43.193442382952405" lon="12.856641884831147"><ele>606.8333333333333</ele><time>2026-04-26T08:28:22.999Z</time></trkpt><trkpt lat="43.19338452171597" lon="12.856581135778859"><ele>608.0</ele><time>2026-04-26T08:28:23.999Z</time></trkpt><trkpt lat="43.19331425006465" lon="12.856537598218457"><ele>608.0</ele><time>2026-04-26T08:28:24.999Z</time></trkpt><trkpt lat="43.19325815222301" lon="12.856478694223055"><ele>608.0</ele><time>2026-04-26T08:28:25.999Z</time></trkpt><trkpt lat="43.19320781412777" lon="12.856425796146079"><ele>608.0</ele><time>2026-04-26T08:28:26.999Z</time></trkpt><trkpt lat="43.19313921698984" lon="12.856320768223355"><ele>608.0</ele><time>2026-04-26T08:28:29Z</time></trkpt><trkpt lat="43.19308894216175" lon="12.856253919775208"><ele>608.0</ele><time>2026-04-26T08:28:32Z</time></trkpt><trkpt lat="43.19319053340126" lon="12.856156648109213"><ele>608.0</ele><time>2026-04-26T08:28:40Z</time></trkpt><trkpt lat="43.19326467738577" lon="12.8561549963217"><ele>608.0</ele><time>2026-04-26T08:28:41Z</time></trkpt><trkpt lat="43.19334362198348" lon="12.856145545695984"><ele>608.0</ele><time>2026-04-26T08:28:42Z</time></trkpt><trkpt lat="43.193435511302624" lon="12.85616938180267"><ele>608.0</ele><time>2026-04-26T08:28:43Z</time></trkpt><trkpt lat="43.19352245402235" lon="12.856173640934305"><ele>608.0</ele><time>2026-04-26T08:28:44Z</time></trkpt><trkpt lat="43.193605861947944" lon="12.856171775875744"><ele>608.0</ele><time>2026-04-26T08:28:45Z</time></trkpt><trkpt lat="43.19368736694079" lon="12.856161796260306"><ele>608.0</ele><time>2026-04-26T08:28:46Z</time></trkpt><trkpt lat="43.19376463839557" lon="12.856151887891906"><ele>608.0</ele><time>2026-04-26T08:28:47Z</time></trkpt><trkpt lat="43.193842127374296" lon="12.856137283738429"><ele>608.0</ele><time>2026-04-26T08:28:48Z</time></trkpt><trkpt lat="43.19392360027083" lon="12.856102874427982"><ele>608.0</ele><time>2026-04-26T08:28:49Z</time></trkpt><trkpt lat="43.19399626118718" lon="12.856056621325486"><ele>608.0</ele><time>2026-04-26T08:28:50Z</time></trkpt><trkpt lat="43.19406210319214" lon="12.856005962953935"><ele>608.0</ele><time>2026-04-26T08:28:51Z</time></trkpt><trkpt lat="43.19412701297135" lon="12.855953834182055"><ele>608.0</ele><time>2026-04-26T08:28:52Z</time></trkpt><trkpt lat="43.194194497933864" lon="12.85588888777995"><ele>611.4</ele><time>2026-04-26T08:28:53Z</time></trkpt><trkpt lat="43.19422422054221" lon="12.85573214004607"><ele>614.8</ele><time>2026-04-26T08:28:55Z</time></trkpt><trkpt lat="43.19419512543322" lon="12.855654122954006"><ele>618.2</ele><time>2026-04-26T08:28:56Z</time></trkpt><trkpt lat="43.19409055628649" lon="12.855572397635221"><ele>621.6</ele><time>2026-04-26T08:28:58Z</time></trkpt><trkpt lat="43.194027982469464" lon="12.855555562062353"><ele>625.0</ele><time>2026-04-26T08:28:59Z</time></trkpt><trkpt lat="43.193914059589524" lon="12.855554941225206"><ele>625.0</ele><time>2026-04-26T08:29:01Z</time></trkpt><trkpt lat="43.19379216008094" lon="12.855553005539651"><ele>625.0</ele><time>2026-04-26T08:29:03Z</time></trkpt><trkpt lat="43.193662049099224" lon="12.855544654961104"><ele>625.0</ele><time>2026-04-26T08:29:05Z</time></trkpt><trkpt lat="43.19357586776873" lon="12.855470917961703"><ele>625.0</ele><time>2026-04-26T08:29:07Z</time></trkpt><trkpt lat="43.19356279085093" lon="12.855336633072648"><ele>625.0</ele><time>2026-04-26T08:29:09Z</time></trkpt><trkpt lat="43.193599192336904" lon="12.85521051666016"><ele>625.0</ele><time>2026-04-26T08:29:11Z</time></trkpt><trkpt lat="43.19364499229627" lon="12.855121930539603"><ele>625.0</ele><time>2026-04-26T08:29:13Z</time></trkpt><trkpt lat="43.19373064250783" lon="12.855072296605114"><ele>625.0</ele><time>2026-04-26T08:29:15Z</time></trkpt><trkpt lat="43.19380588879785" lon="12.855022216870385"><ele>625.0</ele><time>2026-04-26T08:29:17Z</time></trkpt><trkpt lat="43.19385059302152" lon="12.854959826777208"><ele>625.0</ele><time>2026-04-26T08:29:18Z</time></trkpt><trkpt lat="43.193934678062966" lon="12.854828780173227"><ele>629.0</ele><time>2026-04-26T08:29:20Z</time></trkpt><trkpt lat="43.193970315693285" lon="12.854737501871623"><ele>633.0</ele><time>2026-04-26T08:29:21Z</time></trkpt><trkpt lat="43.19413469548472" lon="12.85483150522034"><ele>637.0</ele><time>2026-04-26T08:29:22Z</time></trkpt><trkpt lat="43.19420356544136" lon="12.8547419079302"><ele>641.0</ele><time>2026-04-26T08:29:23Z</time></trkpt><trkpt lat="43.194254284114486" lon="12.854664153567052"><ele>645.0</ele><time>2026-04-26T08:29:24Z</time></trkpt><trkpt lat="43.19431018313529" lon="12.854546351019026"><ele>645.3333333333334</ele><time>2026-04-26T08:29:25Z</time></trkpt><trkpt lat="43.19434786921447" lon="12.854467580716221"><ele>645.6666666666666</ele><time>2026-04-26T08:29:26Z</time></trkpt><trkpt lat="43.19439330053047" lon="12.854372620977928"><ele>646.0</ele><time>2026-04-26T08:29:28Z</time></trkpt><trkpt lat="43.19443221267189" lon="12.85427854459413"><ele>646.3333333333333</ele><time>2026-04-26T08:29:47Z</time></trkpt><trkpt lat="43.19435224245583" lon="12.85420472301478"><ele>646.6666666666666</ele><time>2026-04-26T08:29:48Z</time></trkpt><trkpt lat="43.194385567771434" lon="12.854096191537513"><ele>647.0</ele><time>2026-04-26T08:30:03Z</time></trkpt><trkpt lat="43.19448375366764" lon="12.854008879215671"><ele>648.0</ele><time>2026-04-26T08:30:12Z</time></trkpt><trkpt lat="43.19458359481015" lon="12.853934055768653"><ele>649.0</ele><time>2026-04-26T08:30:14Z</time></trkpt><trkpt lat="43.19465752354002" lon="12.853957210800157"><ele>650.0</ele><time>2026-04-26T08:30:15Z</time></trkpt><trkpt lat="43.194715429186544" lon="12.853919369244547"><ele>651.0</ele><time>2026-04-26T08:30:16Z</time></trkpt><trkpt lat="43.194809093213344" lon="12.853803979333762"><ele>652.0</ele><time>2026-04-26T08:30:18Z</time></trkpt><trkpt lat="43.194875230967185" lon="12.853699055502958"><ele>652.0</ele><time>2026-04-26T08:30:20Z</time></trkpt><trkpt lat="43.19494114160342" lon="12.853613167169206"><ele>652.0</ele><time>2026-04-26T08:30:22Z</time></trkpt><trkpt lat="43.19501067056116" lon="12.853533369470057"><ele>652.0</ele><time>2026-04-26T08:30:24Z</time></trkpt><trkpt lat="43.19508519096551" lon="12.853465140325381"><ele>652.0</ele><time>2026-04-26T08:30:28Z</time></trkpt><trkpt lat="43.195143660487055" lon="12.853406625622211"><ele>652.0</ele><time>2026-04-26T08:30:31Z</time></trkpt><trkpt lat="43.195092143911474" lon="12.85317863506304"><ele>655.5</ele><time>2026-04-26T08:30:32Z</time></trkpt><trkpt lat="43.19510961702532" lon="12.853044163116474"><ele>659.0</ele><time>2026-04-26T08:30:33Z</time></trkpt><trkpt lat="43.19511665789734" lon="12.852934489910043"><ele>662.5</ele><time>2026-04-26T08:30:34Z</time></trkpt><trkpt lat="43.19513310568477" lon="12.852848398869343"><ele>666.0</ele><time>2026-04-26T08:30:35Z</time></trkpt><trkpt lat="43.1951475929105" lon="12.85275388698151"><ele>669.5</ele><time>2026-04-26T08:30:36Z</time></trkpt><trkpt lat="43.19516803517916" lon="12.852646071647273"><ele>673.0</ele><time>2026-04-26T08:30:37Z</time></trkpt><trkpt lat="43.19519625052458" lon="12.852565676262461"><ele>676.1666666666667</ele><time>2026-04-26T08:30:38Z</time></trkpt><trkpt lat="43.19522725748386" lon="12.852414955394986"><ele>679.3333333333334</ele><time>2026-04-26T08:30:40Z</time></trkpt><trkpt lat="43.195249258349925" lon="12.852333807514697"><ele>682.5</ele><time>2026-04-26T08:30:41Z</time></trkpt><trkpt lat="43.19528271483904" lon="12.852255562442204"><ele>685.6666666666666</ele><time>2026-04-26T08:30:42Z</time></trkpt><trkpt lat="43.19530806324225" lon="12.852174996005262"><ele>688.8333333333333</ele><time>2026-04-26T08:30:43Z</time></trkpt><trkpt lat="43.19531867216908" lon="12.852070567122063"><ele>692.0</ele><time>2026-04-26T08:30:44Z</time></trkpt><trkpt lat="43.19533981303507" lon="12.851981573437845"><ele>692.0</ele><time>2026-04-26T08:30:45Z</time></trkpt><trkpt lat="43.19534972722398" lon="12.851883252338142"><ele>692.0</ele><time>2026-04-26T08:30:46Z</time></trkpt><trkpt lat="43.19537467230756" lon="12.85171557457234"><ele>692.0</ele><time>2026-04-26T08:30:48Z</time></trkpt><trkpt lat="43.195419010435714" lon="12.851566212895142"><ele>692.0</ele><time>2026-04-26T08:30:50Z</time></trkpt><trkpt lat="43.195429515639226" lon="12.851432821322206"><ele>692.0</ele><time>2026-04-26T08:30:52Z</time></trkpt><trkpt lat="43.19542328996476" lon="12.851310063191757"><ele>696.3333333333333</ele><time>2026-04-26T08:30:55Z</time></trkpt><trkpt lat="43.19540043524999" lon="12.851189578892283"><ele>700.6666666666666</ele><time>2026-04-26T08:30:59Z</time></trkpt><trkpt lat="43.19541398138761" lon="12.851090760441425"><ele>705.0</ele><time>2026-04-26T08:31:01Z</time></trkpt><trkpt lat="43.19545576933457" lon="12.850988781004013"><ele>709.3333333333334</ele><time>2026-04-26T08:31:03Z</time></trkpt><trkpt lat="43.19548906331809" lon="12.850900653229521"><ele>713.6666666666667</ele><time>2026-04-26T08:31:06Z</time></trkpt><trkpt lat="43.19553958077203" lon="12.850799692972453"><ele>718.0</ele><time>2026-04-26T08:31:09Z</time></trkpt><trkpt lat="43.19557518365715" lon="12.850707450872347"><ele>724.0</ele><time>2026-04-26T08:31:11Z</time></trkpt><trkpt lat="43.1956243812595" lon="12.850557689790165"><ele>730.0</ele><time>2026-04-26T08:31:13Z</time></trkpt><trkpt lat="43.1956312699109" lon="12.850468853192416"><ele>736.0</ele><time>2026-04-26T08:31:14Z</time></trkpt><trkpt lat="43.1956253576977" lon="12.85033736171061"><ele>742.0</ele><time>2026-04-26T08:31:16Z</time></trkpt><trkpt lat="43.195636906236565" lon="12.850202327560137"><ele>748.0</ele><time>2026-04-26T08:31:18Z</time></trkpt><trkpt lat="43.19564719902152" lon="12.850097478250015"><ele>750.1666666666667</ele><time>2026-04-26T08:31:20Z</time></trkpt><trkpt lat="43.195654816764936" lon="12.849997250946629"><ele>752.3333333333334</ele><time>2026-04-26T08:31:22Z</time></trkpt><trkpt lat="43.19565618175409" lon="12.849863646557269"><ele>754.5</ele><time>2026-04-26T08:31:24Z</time></trkpt><trkpt lat="43.19567392545296" lon="12.849769190141604"><ele>756.6666666666666</ele><time>2026-04-26T08:31:26Z</time></trkpt><trkpt lat="43.19569868506185" lon="12.8496722235622"><ele>758.8333333333333</ele><time>2026-04-26T08:31:29Z</time></trkpt><trkpt lat="43.19571144619051" lon="12.849565979512134"><ele>761.0</ele><time>2026-04-26T08:31:32Z</time></trkpt><trkpt lat="43.19572342245416" lon="12.849481047137777"><ele>761.0</ele><time>2026-04-26T08:31:34Z</time></trkpt><trkpt lat="43.1956967383046" lon="12.849387236397208"><ele>761.0</ele><time>2026-04-26T08:31:36Z</time></trkpt><trkpt lat="43.195662354135834" lon="12.849296214594846"><ele>761.0</ele><time>2026-04-26T08:31:38Z</time></trkpt><trkpt lat="43.195648665361595" lon="12.849196461493868"><ele>761.0</ele><time>2026-04-26T08:31:40Z</time></trkpt><trkpt lat="43.195664537614306" lon="12.849104704029719"><ele>761.0</ele><time>2026-04-26T08:31:42Z</time></trkpt><trkpt lat="43.195692158209816" lon="12.849025427887398"><ele>761.0</ele><time>2026-04-26T08:31:45Z</time></trkpt><trkpt lat="43.195665614214086" lon="12.848892206431712"><ele>764.6666666666666</ele><time>2026-04-26T08:31:48Z</time></trkpt><trkpt lat="43.19563474206401" lon="12.848789091734231"><ele>768.3333333333333</ele><time>2026-04-26T08:31:50Z</time></trkpt><trkpt lat="43.19561663604819" lon="12.848677112306353"><ele>772.0</ele><time>2026-04-26T08:31:54Z</time></trkpt><trkpt lat="43.19566852350726" lon="12.848603759616063"><ele>775.6666666666666</ele><time>2026-04-26T08:31:57Z</time></trkpt><trkpt lat="43.195683831256375" lon="12.848516862873133"><ele>779.3333333333334</ele><time>2026-04-26T08:32:02Z</time></trkpt><trkpt lat="43.19574785703369" lon="12.848501314154724"><ele>783.0</ele><time>2026-04-26T08:32:08Z</time></trkpt><trkpt lat="43.19571707791001" lon="12.848274454005992"><ele>783.7142857142857</ele><time>2026-04-26T08:32:38.999Z</time></trkpt><trkpt lat="43.19571330140983" lon="12.848182298046233"><ele>784.4285714285714</ele><time>2026-04-26T08:32:56.999Z</time></trkpt><trkpt lat="43.19564642535885" lon="12.848177727491246"><ele>785.1428571428571</ele><time>2026-04-26T08:33:08.999Z</time></trkpt><trkpt lat="43.19570569275353" lon="12.8481405961403"><ele>785.8571428571429</ele><time>2026-04-26T08:34:04.999Z</time></trkpt><trkpt lat="43.1956462458533" lon="12.848170921030876"><ele>786.5714285714287</ele><time>2026-04-26T08:35:30.999Z</time></trkpt><trkpt lat="43.195681891784936" lon="12.848250602870174"><ele>787.2857142857143</ele><time>2026-04-26T08:36:17Z</time></trkpt><trkpt lat="43.19562163223423" lon="12.848210908172979"><ele>788.0</ele><time>2026-04-26T08:37:08Z</time></trkpt><trkpt lat="43.195682186878436" lon="12.848158404252548"><ele>788.0</ele><time>2026-04-26T08:37:37.999Z</time></trkpt><trkpt lat="43.195711711185716" lon="12.848073603688402"><ele>788.0</ele><time>2026-04-26T08:37:47.999Z</time></trkpt><trkpt lat="43.19578853271946" lon="12.84805883921594"><ele>788.0</ele><time>2026-04-26T08:38:15.999Z</time></trkpt><trkpt lat="43.19572757143752" lon="12.848080548822288"><ele>788.0</ele><time>2026-04-26T08:39:05.999Z</time></trkpt><trkpt lat="43.195700560365395" lon="12.848163027386624"><ele>788.0</ele><time>2026-04-26T08:41:54.999Z</time></trkpt><trkpt lat="43.195746728797566" lon="12.84826082982972"><ele>788.0</ele><time>2026-04-26T08:43:33Z</time></trkpt><trkpt lat="43.19579190245361" lon="12.848323601820328"><ele>788.0</ele><time>2026-04-26T08:43:40Z</time></trkpt><trkpt lat="43.195807787317484" lon="12.848418277546873"><ele>787.2857142857143</ele><time>2026-04-26T08:43:51Z</time></trkpt><trkpt lat="43.19581379252601" lon="12.848507533330165"><ele>786.5714285714287</ele><time>2026-04-26T08:43:56Z</time></trkpt><trkpt lat="43.195832323679234" lon="12.848596112600742"><ele>785.8571428571429</ele><time>2026-04-26T08:43:59Z</time></trkpt><trkpt lat="43.195845460115834" lon="12.84868267712164"><ele>785.1428571428571</ele><time>2026-04-26T08:44:02Z</time></trkpt><trkpt lat="43.19585965616217" lon="12.84879931332776"><ele>784.4285714285714</ele><time>2026-04-26T08:44:05Z</time></trkpt><trkpt lat="43.195858582779906" lon="12.848920947896177"><ele>783.7142857142857</ele><time>2026-04-26T08:44:08Z</time></trkpt><trkpt lat="43.1958707570324" lon="12.8490183503108"><ele>783.0</ele><time>2026-04-26T08:44:11Z</time></trkpt><trkpt lat="43.19587651643582" lon="12.849120691368828"><ele>783.0</ele><time>2026-04-26T08:44:14Z</time></trkpt><trkpt lat="43.19590560284029" lon="12.849226255141005"><ele>783.0</ele><time>2026-04-26T08:44:17Z</time></trkpt><trkpt lat="43.195918990935965" lon="12.849331557901467"><ele>783.0</ele><time>2026-04-26T08:44:20Z</time></trkpt><trkpt lat="43.195914390816945" lon="12.849437049800988"><ele>783.0</ele><time>2026-04-26T08:44:22Z</time></trkpt><trkpt lat="43.195922955940894" lon="12.849533081175998"><ele>783.0</ele><time>2026-04-26T08:44:24Z</time></trkpt><trkpt lat="43.195933737265094" lon="12.849639770935054"><ele>783.0</ele><time>2026-04-26T08:44:26Z</time></trkpt><trkpt lat="43.19595365094192" lon="12.849791380044532"><ele>779.3333333333334</ele><time>2026-04-26T08:44:28Z</time></trkpt><trkpt lat="43.195980852732184" lon="12.849929610787235"><ele>775.6666666666666</ele><time>2026-04-26T08:44:30Z</time></trkpt><trkpt lat="43.195988998482825" lon="12.850059650190227"><ele>772.0</ele><time>2026-04-26T08:44:32Z</time></trkpt><trkpt lat="43.19597217377233" lon="12.850163126760263"><ele>768.3333333333333</ele><time>2026-04-26T08:44:34Z</time></trkpt><trkpt lat="43.19595184958177" lon="12.850288391038825"><ele>764.6666666666666</ele><time>2026-04-26T08:44:37Z</time></trkpt><trkpt lat="43.195931803308184" lon="12.850376702719252"><ele>761.0</ele><time>2026-04-26T08:44:39Z</time></trkpt><trkpt lat="43.195913120416385" lon="12.850475788972398"><ele>755.5</ele><time>2026-04-26T08:44:42Z</time></trkpt><trkpt lat="43.19588470121723" lon="12.850564317538883"><ele>750.0</ele><time>2026-04-26T08:44:45Z</time></trkpt><trkpt lat="43.19584525501339" lon="12.85064296953398"><ele>744.5</ele><time>2026-04-26T08:44:49Z</time></trkpt><trkpt lat="43.195791701805284" lon="12.850716378387471"><ele>739.0</ele><time>2026-04-26T08:44:53Z</time></trkpt><trkpt lat="43.19577055397062" lon="12.850829439271482"><ele>733.5</ele><time>2026-04-26T08:44:56Z</time></trkpt><trkpt lat="43.19574873256443" lon="12.850925769765036"><ele>728.0</ele><time>2026-04-26T08:45:00Z</time></trkpt><trkpt lat="43.19571126769116" lon="12.851049190227"><ele>726.3333333333333</ele><time>2026-04-26T08:45:03Z</time></trkpt><trkpt lat="43.195702177817054" lon="12.85115746781067"><ele>724.6666666666666</ele><time>2026-04-26T08:45:05Z</time></trkpt><trkpt lat="43.19568156867124" lon="12.851266077939963"><ele>723.0</ele><time>2026-04-26T08:45:08Z</time></trkpt><trkpt lat="43.195661165963216" lon="12.851374244299347"><ele>721.3333333333334</ele><time>2026-04-26T08:45:11Z</time></trkpt><trkpt lat="43.19563030039361" lon="12.85146540760173"><ele>719.6666666666667</ele><time>2026-04-26T08:45:14Z</time></trkpt><trkpt lat="43.19556492498101" lon="12.851536477547114"><ele>718.0</ele><time>2026-04-26T08:45:20Z</time></trkpt><trkpt lat="43.195522188059826" lon="12.85164645689681"><ele>718.0</ele><time>2026-04-26T08:45:23Z</time></trkpt><trkpt lat="43.195481734028824" lon="12.85172399933829"><ele>718.0</ele><time>2026-04-26T08:45:25Z</time></trkpt><trkpt lat="43.19543853318829" lon="12.851795677243414"><ele>718.0</ele><time>2026-04-26T08:45:32Z</time></trkpt><trkpt lat="43.19537906242637" lon="12.851836428273938"><ele>718.0</ele><time>2026-04-26T08:45:38Z</time></trkpt><trkpt lat="43.195377086645564" lon="12.851719808687832"><ele>718.0</ele><time>2026-04-26T08:45:45Z</time></trkpt><trkpt lat="43.19544037329026" lon="12.851651207638957"><ele>718.0</ele><time>2026-04-26T08:45:53Z</time></trkpt><trkpt lat="43.19543598148637" lon="12.851542428848619"><ele>718.0</ele><time>2026-04-26T08:46:12Z</time></trkpt><trkpt lat="43.19536589898796" lon="12.851490145824798"><ele>718.0</ele><time>2026-04-26T08:46:15Z</time></trkpt><trkpt lat="43.19528030983447" lon="12.851514617783899"><ele>718.0</ele><time>2026-04-26T08:46:18Z</time></trkpt><trkpt lat="43.19520089573304" lon="12.851533823140812"><ele>718.0</ele><time>2026-04-26T08:46:21Z</time></trkpt><trkpt lat="43.1951209630479" lon="12.851561759068153"><ele>718.0</ele><time>2026-04-26T08:46:23Z</time></trkpt><trkpt lat="43.19502229058311" lon="12.85154940405679"><ele>718.0</ele><time>2026-04-26T08:46:25Z</time></trkpt><trkpt lat="43.194917512474916" lon="12.851528940882023"><ele>720.6666666666667</ele><time>2026-04-26T08:46:27Z</time></trkpt><trkpt lat="43.194817501292285" lon="12.851525068303461"><ele>723.3333333333334</ele><time>2026-04-26T08:46:29Z</time></trkpt><trkpt lat="43.19474021730541" lon="12.851553451895017"><ele>726.0</ele><time>2026-04-26T08:46:31Z</time></trkpt><trkpt lat="43.194673690742604" lon="12.851608267854107"><ele>728.6666666666666</ele><time>2026-04-26T08:46:33Z</time></trkpt><trkpt lat="43.194598121181976" lon="12.851667593121874"><ele>731.3333333333333</ele><time>2026-04-26T08:46:35Z</time></trkpt><trkpt lat="43.19451856920856" lon="12.85169183937248"><ele>734.0</ele><time>2026-04-26T08:46:37Z</time></trkpt><trkpt lat="43.19444879787062" lon="12.851683694587457"><ele>734.0</ele><time>2026-04-26T08:46:39Z</time></trkpt><trkpt lat="43.194342350511654" lon="12.851629847923528"><ele>734.0</ele><time>2026-04-26T08:46:41Z</time></trkpt><trkpt lat="43.19428043787552" lon="12.851596908306925"><ele>734.0</ele><time>2026-04-26T08:46:42Z</time></trkpt><trkpt lat="43.19420394497276" lon="12.85155151120208"><ele>734.0</ele><time>2026-04-26T08:46:43Z</time></trkpt><trkpt lat="43.19412121971309" lon="12.851502814254586"><ele>734.0</ele><time>2026-04-26T08:46:44Z</time></trkpt><trkpt lat="43.19404408215948" lon="12.85144110893148"><ele>734.0</ele><time>2026-04-26T08:46:45Z</time></trkpt><trkpt lat="43.19397275678477" lon="12.851378523480419"><ele>735.1666666666666</ele><time>2026-04-26T08:46:46Z</time></trkpt><trkpt lat="43.193911993939786" lon="12.851313690983396"><ele>736.3333333333333</ele><time>2026-04-26T08:46:47Z</time></trkpt><trkpt lat="43.19385910813055" lon="12.851242714589969"><ele>737.5</ele><time>2026-04-26T08:46:48Z</time></trkpt><trkpt lat="43.19379633471118" lon="12.851178406770316"><ele>738.6666666666666</ele><time>2026-04-26T08:46:49Z</time></trkpt><trkpt lat="43.19371522877962" lon="12.851125327573815"><ele>739.8333333333334</ele><time>2026-04-26T08:46:50Z</time></trkpt><trkpt lat="43.19363289977707" lon="12.851075749514054"><ele>741.0</ele><time>2026-04-26T08:46:51Z</time></trkpt><trkpt lat="43.1935459409872" lon="12.85104235376607"><ele>741.0</ele><time>2026-04-26T08:46:52Z</time></trkpt><trkpt lat="43.19346992026368" lon="12.851009226666516"><ele>741.0</ele><time>2026-04-26T08:46:53Z</time></trkpt><trkpt lat="43.193393389382564" lon="12.850964281671754"><ele>741.0</ele><time>2026-04-26T08:46:54Z</time></trkpt><trkpt lat="43.19330884929302" lon="12.850911104061812"><ele>741.0</ele><time>2026-04-26T08:46:55Z</time></trkpt><trkpt lat="43.193215618176666" lon="12.85087045260652"><ele>741.0</ele><time>2026-04-26T08:46:56Z</time></trkpt><trkpt lat="43.193105701638935" lon="12.85082501303051"><ele>749.75</ele><time>2026-04-26T08:46:57Z</time></trkpt><trkpt lat="43.19299154842955" lon="12.850783400312222"><ele>758.5</ele><time>2026-04-26T08:46:58Z</time></trkpt><trkpt lat="43.19287299469988" lon="12.850756317217261"><ele>767.25</ele><time>2026-04-26T08:46:59Z</time></trkpt><trkpt lat="43.19276037180511" lon="12.850718575534696"><ele>776.0</ele><time>2026-04-26T08:47:00Z</time></trkpt><trkpt lat="43.192660803554894" lon="12.850666425813918"><ele>776.0</ele><time>2026-04-26T08:47:01Z</time></trkpt><trkpt lat="43.19255185787544" lon="12.85062658823395"><ele>776.0</ele><time>2026-04-26T08:47:02Z</time></trkpt><trkpt lat="43.19244696068039" lon="12.850595038385661"><ele>776.0</ele><time>2026-04-26T08:47:03Z</time></trkpt><trkpt lat="43.19236238112838" lon="12.850549208589825"><ele>776.0</ele><time>2026-04-26T08:47:04Z</time></trkpt><trkpt lat="43.1922785518623" lon="12.850552446301867"><ele>776.0</ele><time>2026-04-26T08:47:05Z</time></trkpt><trkpt lat="43.192179327611974" lon="12.850534047946722"><ele>774.5999999999999</ele><time>2026-04-26T08:47:06Z</time></trkpt><trkpt lat="43.19208565835704" lon="12.850494081135661"><ele>773.2</ele><time>2026-04-26T08:47:07Z</time></trkpt><trkpt lat="43.19199662690858" lon="12.850440423586344"><ele>771.8</ele><time>2026-04-26T08:47:08Z</time></trkpt><trkpt lat="43.191909687807396" lon="12.85040499951353"><ele>770.4000000000001</ele><time>2026-04-26T08:47:09Z</time></trkpt><trkpt lat="43.1918319393766" lon="12.850370014716725"><ele>769.0</ele><time>2026-04-26T08:47:10Z</time></trkpt><trkpt lat="43.191750606047215" lon="12.850332555038642"><ele>769.0</ele><time>2026-04-26T08:47:11Z</time></trkpt><trkpt lat="43.19165682048748" lon="12.850292455998066"><ele>769.0</ele><time>2026-04-26T08:47:12Z</time></trkpt><trkpt lat="43.1915548315176" lon="12.850272372088076"><ele>769.0</ele><time>2026-04-26T08:47:13Z</time></trkpt><trkpt lat="43.19144572784777" lon="12.850276884696338"><ele>769.0</ele><time>2026-04-26T08:47:14Z</time></trkpt><trkpt lat="43.19133700676704" lon="12.850274448534245"><ele>769.0</ele><time>2026-04-26T08:47:15Z</time></trkpt><trkpt lat="43.19121978847059" lon="12.85023800154888"><ele>768.8000000000001</ele><time>2026-04-26T08:47:16Z</time></trkpt><trkpt lat="43.191109966955835" lon="12.850185771052468"><ele>768.6</ele><time>2026-04-26T08:47:17Z</time></trkpt><trkpt lat="43.191006000615594" lon="12.85014457062266"><ele>768.4</ele><time>2026-04-26T08:47:18Z</time></trkpt><trkpt lat="43.19090542278371" lon="12.85011476123728"><ele>768.2</ele><time>2026-04-26T08:47:19Z</time></trkpt><trkpt lat="43.19080415755552" lon="12.850064717614668"><ele>768.0</ele><time>2026-04-26T08:47:20Z</time></trkpt><trkpt lat="43.19069855573786" lon="12.849993657121846"><ele>776.0</ele><time>2026-04-26T08:47:21Z</time></trkpt><trkpt lat="43.19060059549206" lon="12.849917056722022"><ele>784.0</ele><time>2026-04-26T08:47:22Z</time></trkpt><trkpt lat="43.190503752466064" lon="12.849831854417227"><ele>792.0</ele><time>2026-04-26T08:47:23Z</time></trkpt><trkpt lat="43.19040907385403" lon="12.84973582667343"><ele>800.0</ele><time>2026-04-26T08:47:24Z</time></trkpt><trkpt lat="43.19031055244908" lon="12.849644692550427"><ele>800.0</ele><time>2026-04-26T08:47:25Z</time></trkpt><trkpt lat="43.190219461553625" lon="12.849538839909808"><ele>800.0</ele><time>2026-04-26T08:47:26Z</time></trkpt><trkpt lat="43.1901299979198" lon="12.849423983691318"><ele>800.0</ele><time>2026-04-26T08:47:27Z</time></trkpt><trkpt lat="43.19003754159552" lon="12.84930592437332"><ele>800.0</ele><time>2026-04-26T08:47:28Z</time></trkpt><trkpt lat="43.18993330388989" lon="12.849192651555637"><ele>804.25</ele><time>2026-04-26T08:47:29Z</time></trkpt><trkpt lat="43.18981861697685" lon="12.849073140412235"><ele>808.5</ele><time>2026-04-26T08:47:30Z</time></trkpt><trkpt lat="43.18970271550259" lon="12.848975235908389"><ele>812.75</ele><time>2026-04-26T08:47:31Z</time></trkpt><trkpt lat="43.189608476463384" lon="12.848900849266627"><ele>817.0</ele><time>2026-04-26T08:47:32Z</time></trkpt><trkpt lat="43.189539926139254" lon="12.848836822413311"><ele>816.9999999999999</ele><time>2026-04-26T08:47:33Z</time></trkpt><trkpt lat="43.18948357288582" lon="12.848777074237233"><ele>817.0</ele><time>2026-04-26T08:47:34Z</time></trkpt><trkpt lat="43.18943769832503" lon="12.848698200573626"><ele>817.0</ele><time>2026-04-26T08:47:35Z</time></trkpt><trkpt lat="43.1893929924231" lon="12.84861890640717"><ele>817.0</ele><time>2026-04-26T08:47:36Z</time></trkpt><trkpt lat="43.18937484564686" lon="12.84853554242774"><ele>816.9999999999999</ele><time>2026-04-26T08:47:37Z</time></trkpt><trkpt lat="43.189378245039826" lon="12.848385576179169"><ele>817.0</ele><time>2026-04-26T08:47:39Z</time></trkpt><trkpt lat="43.18943412514426" lon="12.848256640752561"><ele>819.8571428571428</ele><time>2026-04-26T08:47:41Z</time></trkpt><trkpt lat="43.189457992857854" lon="12.84817280128772"><ele>822.7142857142857</ele><time>2026-04-26T08:47:42Z</time></trkpt><trkpt lat="43.18949546024112" lon="12.848084842641303"><ele>825.5714285714286</ele><time>2026-04-26T08:47:45Z</time></trkpt><trkpt lat="43.18955692093967" lon="12.848048834349068"><ele>828.4285714285713</ele><time>2026-04-26T08:48:14Z</time></trkpt><trkpt lat="43.189625238624735" lon="12.847993032215685"><ele>831.2857142857143</ele><time>2026-04-26T08:48:16Z</time></trkpt><trkpt lat="43.1896876767931" lon="12.84794498944002"><ele>834.1428571428571</ele><time>2026-04-26T08:48:17Z</time></trkpt><trkpt lat="43.18976303980556" lon="12.847903644162084"><ele>837.0</ele><time>2026-04-26T08:48:18Z</time></trkpt><trkpt lat="43.18983664334234" lon="12.847874758641684"><ele>839.5</ele><time>2026-04-26T08:48:19Z</time></trkpt><trkpt lat="43.18990397439278" lon="12.847858990227177"><ele>842.0</ele><time>2026-04-26T08:48:20Z</time></trkpt><trkpt lat="43.18997315385882" lon="12.847847464774633"><ele>844.5</ele><time>2026-04-26T08:48:21Z</time></trkpt><trkpt lat="43.190043422544534" lon="12.84783742142818"><ele>847.0</ele><time>2026-04-26T08:48:22Z</time></trkpt><trkpt lat="43.19011788541903" lon="12.847808819558283"><ele>849.5</ele><time>2026-04-26T08:48:23Z</time></trkpt><trkpt lat="43.19019682671381" lon="12.847773775407347"><ele>852.0</ele><time>2026-04-26T08:48:24Z</time></trkpt><trkpt lat="43.19027557036834" lon="12.847737037826716"><ele>852.0</ele><time>2026-04-26T08:48:25Z</time></trkpt><trkpt lat="43.19035258296514" lon="12.84769625262687"><ele>852.0</ele><time>2026-04-26T08:48:26Z</time></trkpt><trkpt lat="43.19042990229443" lon="12.847651788495721"><ele>852.0</ele><time>2026-04-26T08:48:27Z</time></trkpt><trkpt lat="43.19050919402612" lon="12.847607955984767"><ele>852.0</ele><time>2026-04-26T08:48:28Z</time></trkpt><trkpt lat="43.19059381104814" lon="12.847564279626058"><ele>852.0</ele><time>2026-04-26T08:48:29Z</time></trkpt><trkpt lat="43.19067684130307" lon="12.847518152651482"><ele>852.0</ele><time>2026-04-26T08:48:30Z</time></trkpt><trkpt lat="43.19076196309861" lon="12.847476936486474"><ele>855.2</ele><time>2026-04-26T08:48:31Z</time></trkpt><trkpt lat="43.190850091143545" lon="12.847449523316572"><ele>858.4000000000001</ele><time>2026-04-26T08:48:32Z</time></trkpt><trkpt lat="43.19093910565914" lon="12.847432542865498"><ele>861.5999999999999</ele><time>2026-04-26T08:48:33Z</time></trkpt><trkpt lat="43.191031657909775" lon="12.847417924402311"><ele>864.8</ele><time>2026-04-26T08:48:34Z</time></trkpt><trkpt lat="43.19111995421981" lon="12.847388658823556"><ele>868.0</ele><time>2026-04-26T08:48:35Z</time></trkpt><trkpt lat="43.19120654494699" lon="12.847334748181426"><ele>868.0</ele><time>2026-04-26T08:48:36Z</time></trkpt><trkpt lat="43.19129395764358" lon="12.847267037101403"><ele>868.0</ele><time>2026-04-26T08:48:37Z</time></trkpt><trkpt lat="43.191379904235994" lon="12.84718722424376"><ele>868.0</ele><time>2026-04-26T08:48:38Z</time></trkpt><trkpt lat="43.191457987164114" lon="12.8471180868264"><ele>868.0</ele><time>2026-04-26T08:48:39Z</time></trkpt><trkpt lat="43.19152035581326" lon="12.847036423437032"><ele>868.0</ele><time>2026-04-26T08:48:40Z</time></trkpt><trkpt lat="43.19159959594109" lon="12.846979269685514"><ele>871.5999999999999</ele><time>2026-04-26T08:48:41Z</time></trkpt><trkpt lat="43.19169266636086" lon="12.846943518853363"><ele>875.1999999999999</ele><time>2026-04-26T08:48:42Z</time></trkpt><trkpt lat="43.19178544000067" lon="12.846892803509766"><ele>878.8</ele><time>2026-04-26T08:48:43Z</time></trkpt><trkpt lat="43.1918724828134" lon="12.846837823443881"><ele>882.4</ele><time>2026-04-26T08:48:44Z</time></trkpt><trkpt lat="43.19195068073452" lon="12.84676149477822"><ele>886.0</ele><time>2026-04-26T08:48:45Z</time></trkpt><trkpt lat="43.19203121851856" lon="12.846676970426804"><ele>886.0</ele><time>2026-04-26T08:48:46Z</time></trkpt><trkpt lat="43.192115213084946" lon="12.846596807112006"><ele>885.9999999999999</ele><time>2026-04-26T08:48:47Z</time></trkpt><trkpt lat="43.1921941307627" lon="12.846512147408369"><ele>885.9999999999999</ele><time>2026-04-26T08:48:48Z</time></trkpt><trkpt lat="43.192267576646245" lon="12.846422029895457"><ele>886.0</ele><time>2026-04-26T08:48:49Z</time></trkpt><trkpt lat="43.192336506537494" lon="12.846333784952005"><ele>886.0</ele><time>2026-04-26T08:48:50Z</time></trkpt><trkpt lat="43.19240124788362" lon="12.84624368229061"><ele>885.8333333333333</ele><time>2026-04-26T08:48:51Z</time></trkpt><trkpt lat="43.19246077144882" lon="12.84615094579568"><ele>885.6666666666666</ele><time>2026-04-26T08:48:52Z</time></trkpt><trkpt lat="43.192505662184985" lon="12.846046348731171"><ele>885.5</ele><time>2026-04-26T08:48:53Z</time></trkpt><trkpt lat="43.19254044928826" lon="12.845942337058968"><ele>885.3333333333333</ele><time>2026-04-26T08:48:54Z</time></trkpt><trkpt lat="43.192559309347565" lon="12.845830453821147"><ele>885.1666666666666</ele><time>2026-04-26T08:48:55Z</time></trkpt><trkpt lat="43.19257466381406" lon="12.845725652552849"><ele>885.0</ele><time>2026-04-26T08:48:56Z</time></trkpt><trkpt lat="43.192541047348186" lon="12.845576098736624"><ele>886.8</ele><time>2026-04-26T08:48:58Z</time></trkpt><trkpt lat="43.19250393991555" lon="12.845449456268199"><ele>888.6</ele><time>2026-04-26T08:49:00Z</time></trkpt><trkpt lat="43.19247889837875" lon="12.845294968666215"><ele>890.4000000000001</ele><time>2026-04-26T08:49:02Z</time></trkpt><trkpt lat="43.19245996788065" lon="12.845136114170561"><ele>892.2</ele><time>2026-04-26T08:49:04Z</time></trkpt><trkpt lat="43.19246001027833" lon="12.844978081005848"><ele>894.0</ele><time>2026-04-26T08:49:06Z</time></trkpt><trkpt lat="43.192450548344766" lon="12.844891510292914"><ele>897.0</ele><time>2026-04-26T08:49:07Z</time></trkpt><trkpt lat="43.192454151072795" lon="12.844797356590963"><ele>900.0</ele><time>2026-04-26T08:49:08Z</time></trkpt><trkpt lat="43.192467036527454" lon="12.84469705095827"><ele>903.0</ele><time>2026-04-26T08:49:08.999Z</time></trkpt><trkpt lat="43.19246539948778" lon="12.844595144271668"><ele>906.0</ele><time>2026-04-26T08:49:09.999Z</time></trkpt><trkpt lat="43.19247424758304" lon="12.844485472326857"><ele>909.0</ele><time>2026-04-26T08:49:10.999Z</time></trkpt><trkpt lat="43.19250536940247" lon="12.844376376572672"><ele>912.0</ele><time>2026-04-26T08:49:11.999Z</time></trkpt><trkpt lat="43.19253121675762" lon="12.844266825155616"><ele>915.4000000000001</ele><time>2026-04-26T08:49:12.999Z</time></trkpt><trkpt lat="43.19255993685079" lon="12.844149246697143"><ele>918.8000000000001</ele><time>2026-04-26T08:49:13.999Z</time></trkpt><trkpt lat="43.19258568129881" lon="12.844022527879467"><ele>922.2</ele><time>2026-04-26T08:49:14.999Z</time></trkpt><trkpt lat="43.19261369592991" lon="12.84389325812161"><ele>925.6</ele><time>2026-04-26T08:49:15.999Z</time></trkpt><trkpt lat="43.192644018618914" lon="12.843757258659105"><ele>929.0</ele><time>2026-04-26T08:49:16.999Z</time></trkpt><trkpt lat="43.19268653452431" lon="12.843621539242054"><ele>929.0</ele><time>2026-04-26T08:49:17.999Z</time></trkpt><trkpt lat="43.19272511855628" lon="12.843483107676976"><ele>929.0000000000001</ele><time>2026-04-26T08:49:18.999Z</time></trkpt><trkpt lat="43.19275943951191" lon="12.843351915787114"><ele>929.0000000000001</ele><time>2026-04-26T08:49:19.999Z</time></trkpt><trkpt lat="43.19277789127751" lon="12.84323126169654"><ele>929.0</ele><time>2026-04-26T08:49:20.999Z</time></trkpt><trkpt lat="43.192780926303726" lon="12.843102841669156"><ele>929.0</ele><time>2026-04-26T08:49:21.999Z</time></trkpt><trkpt lat="43.19279731728459" lon="12.842976170476845"><ele>931.3333333333334</ele><time>2026-04-26T08:49:22.999Z</time></trkpt><trkpt lat="43.19282209826589" lon="12.842858906989978"><ele>933.6666666666667</ele><time>2026-04-26T08:49:23.999Z</time></trkpt><trkpt lat="43.19285112307682" lon="12.842743561458956"><ele>936.0</ele><time>2026-04-26T08:49:24.999Z</time></trkpt><trkpt lat="43.192870041967694" lon="12.842626491387064"><ele>938.3333333333333</ele><time>2026-04-26T08:49:25.999Z</time></trkpt><trkpt lat="43.19288633412632" lon="12.84251070005573"><ele>940.6666666666666</ele><time>2026-04-26T08:49:26.999Z</time></trkpt><trkpt lat="43.19290140994488" lon="12.842396612496282"><ele>943.0</ele><time>2026-04-26T08:49:27.999Z</time></trkpt><trkpt lat="43.19291766505646" lon="12.84228361443679"><ele>945.4</ele><time>2026-04-26T08:49:28.999Z</time></trkpt><trkpt lat="43.19293660090457" lon="12.842166717957138"><ele>947.8</ele><time>2026-04-26T08:49:29.999Z</time></trkpt><trkpt lat="43.19294948017148" lon="12.842039791093598"><ele>950.2</ele><time>2026-04-26T08:49:30.999Z</time></trkpt><trkpt lat="43.192973562719004" lon="12.841912863310922"><ele>952.6</ele><time>2026-04-26T08:49:31.999Z</time></trkpt><trkpt lat="43.1930074686915" lon="12.841790160119762"><ele>955.0</ele><time>2026-04-26T08:49:32.999Z</time></trkpt><trkpt lat="43.1930438778693" lon="12.84166708253033"><ele>956.8</ele><time>2026-04-26T08:49:33.999Z</time></trkpt><trkpt lat="43.19307542879729" lon="12.841542937868162"><ele>958.6</ele><time>2026-04-26T08:49:34.999Z</time></trkpt><trkpt lat="43.19309991378235" lon="12.841418160225048"><ele>960.4000000000001</ele><time>2026-04-26T08:49:35.999Z</time></trkpt><trkpt lat="43.193118766103105" lon="12.841298562494947"><ele>962.2</ele><time>2026-04-26T08:49:36.999Z</time></trkpt><trkpt lat="43.19313982662474" lon="12.841182905846843"><ele>964.0</ele><time>2026-04-26T08:49:37.999Z</time></trkpt><trkpt lat="43.193154671469415" lon="12.841069385798855"><ele>964.8333333333333</ele><time>2026-04-26T08:49:38.999Z</time></trkpt><trkpt lat="43.193171245542764" lon="12.840954294695981"><ele>965.6666666666666</ele><time>2026-04-26T08:49:39.999Z</time></trkpt><trkpt lat="43.193189307215086" lon="12.840841515267632"><ele>966.5</ele><time>2026-04-26T08:49:40.999Z</time></trkpt><trkpt lat="43.19320356157688" lon="12.840728148764759"><ele>967.3333333333333</ele><time>2026-04-26T08:49:41.999Z</time></trkpt><trkpt lat="43.193219994905604" lon="12.84061702379881"><ele>968.1666666666666</ele><time>2026-04-26T08:49:42.999Z</time></trkpt><trkpt lat="43.19324115596184" lon="12.84050519351139"><ele>969.0</ele><time>2026-04-26T08:49:43.999Z</time></trkpt><trkpt lat="43.193254827256304" lon="12.840390759060838"><ele>970.2</ele><time>2026-04-26T08:49:45Z</time></trkpt><trkpt lat="43.19327619676858" lon="12.840269471524236"><ele>971.4000000000001</ele><time>2026-04-26T08:49:46Z</time></trkpt><trkpt lat="43.193305189574936" lon="12.840147092969735"><ele>972.6</ele><time>2026-04-26T08:49:47Z</time></trkpt><trkpt lat="43.19332217293621" lon="12.840016759356354"><ele>973.8</ele><time>2026-04-26T08:49:48Z</time></trkpt><trkpt lat="43.19334527714133" lon="12.83988840550225"><ele>975.0</ele><time>2026-04-26T08:49:49Z</time></trkpt><trkpt lat="43.19336989864128" lon="12.83975989895205"><ele>976.6</ele><time>2026-04-26T08:49:50Z</time></trkpt><trkpt lat="43.19340584238912" lon="12.839640226049095"><ele>978.2</ele><time>2026-04-26T08:49:51Z</time></trkpt><trkpt lat="43.193429403345085" lon="12.83952770509223"><ele>979.8</ele><time>2026-04-26T08:49:52Z</time></trkpt><trkpt lat="43.19345133271779" lon="12.83940905976273"><ele>981.4</ele><time>2026-04-26T08:49:53Z</time></trkpt><trkpt lat="43.19347685458005" lon="12.839288403986115"><ele>983.0</ele><time>2026-04-26T08:49:54Z</time></trkpt><trkpt lat="43.19350465986222" lon="12.839168104832394"><ele>984.1666666666667</ele><time>2026-04-26T08:49:55Z</time></trkpt><trkpt lat="43.19353857202216" lon="12.839060913127895"><ele>985.3333333333334</ele><time>2026-04-26T08:49:56Z</time></trkpt><trkpt lat="43.19356788650796" lon="12.838963756846635"><ele>986.5</ele><time>2026-04-26T08:49:57Z</time></trkpt><trkpt lat="43.1935969269653" lon="12.838873248594759"><ele>987.6666666666667</ele><time>2026-04-26T08:49:58Z</time></trkpt><trkpt lat="43.19361810797365" lon="12.838789400422373"><ele>988.8333333333334</ele><time>2026-04-26T08:49:59Z</time></trkpt><trkpt lat="43.19363535347509" lon="12.838634535335926"><ele>990.0</ele><time>2026-04-26T08:50:01Z</time></trkpt><trkpt lat="43.19366400802706" lon="12.838507196334144"><ele>990.0</ele><time>2026-04-26T08:50:03Z</time></trkpt><trkpt lat="43.193697666726116" lon="12.83843273664579"><ele>990.0</ele><time>2026-04-26T08:50:05Z</time></trkpt><trkpt lat="43.1937707551262" lon="12.83843550185082"><ele>990.0</ele><time>2026-04-26T08:50:13Z</time></trkpt><trkpt lat="43.1938433974339" lon="12.838457191439879"><ele>990.0</ele><time>2026-04-26T08:50:17Z</time></trkpt><trkpt lat="43.19390715481119" lon="12.838491664567353"><ele>990.0</ele><time>2026-04-26T08:50:21Z</time></trkpt><trkpt lat="43.194006944100735" lon="12.838280077164574"><ele>994.8333333333334</ele><time>2026-04-26T08:50:45Z</time></trkpt><trkpt lat="43.194042771963964" lon="12.838118051236783"><ele>999.6666666666667</ele><time>2026-04-26T08:50:47Z</time></trkpt><trkpt lat="43.194067878690944" lon="12.838017594909346"><ele>1004.5</ele><time>2026-04-26T08:50:48Z</time></trkpt><trkpt lat="43.194090523690384" lon="12.837919745008502"><ele>1009.3333333333334</ele><time>2026-04-26T08:50:49Z</time></trkpt><trkpt lat="43.194106716122185" lon="12.83782120903214"><ele>1014.1666666666667</ele><time>2026-04-26T08:50:50Z</time></trkpt><trkpt lat="43.19412493158472" lon="12.8377147919105"><ele>1019.0</ele><time>2026-04-26T08:50:51Z</time></trkpt><trkpt lat="43.194144164049376" lon="12.837612175429854"><ele>1020.5714285714287</ele><time>2026-04-26T08:50:52Z</time></trkpt><trkpt lat="43.194162645454035" lon="12.837510916443323"><ele>1022.1428571428571</ele><time>2026-04-26T08:50:53Z</time></trkpt><trkpt lat="43.19417945142809" lon="12.837416684244646"><ele>1023.7142857142858</ele><time>2026-04-26T08:50:54Z</time></trkpt><trkpt lat="43.19420143234506" lon="12.837322434724618"><ele>1025.2857142857142</ele><time>2026-04-26T08:50:55Z</time></trkpt><trkpt lat="43.19423244899514" lon="12.837234806981048"><ele>1026.857142857143</ele><time>2026-04-26T08:50:56Z</time></trkpt><trkpt lat="43.194258876776985" lon="12.837152435170275"><ele>1028.4285714285716</ele><time>2026-04-26T08:50:57Z</time></trkpt><trkpt lat="43.19428514373874" lon="12.837064270332505"><ele>1030.0</ele><time>2026-04-26T08:50:58Z</time></trkpt><trkpt lat="43.19430948746877" lon="12.836977124606566"><ele>1030.0</ele><time>2026-04-26T08:50:59Z</time></trkpt><trkpt lat="43.19432560589343" lon="12.836887257277997"><ele>1030.0</ele><time>2026-04-26T08:51:00Z</time></trkpt><trkpt lat="43.194338713286776" lon="12.83679880563508"><ele>1030.0</ele><time>2026-04-26T08:51:01Z</time></trkpt><trkpt lat="43.194345305435085" lon="12.836712471033737"><ele>1030.0</ele><time>2026-04-26T08:51:02Z</time></trkpt><trkpt lat="43.194359184554116" lon="12.836549048468155"><ele>1030.0</ele><time>2026-04-26T08:51:04Z</time></trkpt><trkpt lat="43.194367256902524" lon="12.836436030904906"><ele>1030.0</ele><time>2026-04-26T08:51:06Z</time></trkpt><trkpt lat="43.194327811885856" lon="12.836349877929138"><ele>1029.1666666666665</ele><time>2026-04-26T08:51:08Z</time></trkpt><trkpt lat="43.19426981778621" lon="12.836276764154174"><ele>1028.3333333333333</ele><time>2026-04-26T08:51:10Z</time></trkpt><trkpt lat="43.19419908279492" lon="12.83614698998968"><ele>1027.5</ele><time>2026-04-26T08:51:12Z</time></trkpt><trkpt lat="43.194151561920265" lon="12.8360708319106"><ele>1026.6666666666667</ele><time>2026-04-26T08:51:13Z</time></trkpt><trkpt lat="43.19409562926715" lon="12.835998084758332"><ele>1025.8333333333335</ele><time>2026-04-26T08:51:14Z</time></trkpt><trkpt lat="43.194034067923596" lon="12.835940585964893"><ele>1025.0</ele><time>2026-04-26T08:51:15Z</time></trkpt><trkpt lat="43.1939758840238" lon="12.835886507123183"><ele>1025.0</ele><time>2026-04-26T08:51:16Z</time></trkpt><trkpt lat="43.19392362281551" lon="12.835812890858227"><ele>1025.0</ele><time>2026-04-26T08:51:16.999Z</time></trkpt><trkpt lat="43.19387804964191" lon="12.835708659622552"><ele>1025.0</ele><time>2026-04-26T08:51:17.999Z</time></trkpt><trkpt lat="43.19383212585991" lon="12.835588176104288"><ele>1025.0</ele><time>2026-04-26T08:51:18.999Z</time></trkpt><trkpt lat="43.193786318638864" lon="12.83549361919629"><ele>1025.0</ele><time>2026-04-26T08:51:19.999Z</time></trkpt><trkpt lat="43.1937426612107" lon="12.835412172116678"><ele>1025.0</ele><time>2026-04-26T08:51:20.999Z</time></trkpt><trkpt lat="43.19368629197807" lon="12.835323965296588"><ele>1025.0</ele><time>2026-04-26T08:51:21.999Z</time></trkpt><trkpt lat="43.19362688501366" lon="12.835230912300771"><ele>1025.0</ele><time>2026-04-26T08:51:22.999Z</time></trkpt><trkpt lat="43.19356430143181" lon="12.835139405736422"><ele>1025.0</ele><time>2026-04-26T08:51:23.999Z</time></trkpt><trkpt lat="43.193510472991925" lon="12.835062759243744"><ele>1025.0</ele><time>2026-04-26T08:51:24.999Z</time></trkpt><trkpt lat="43.1934566965897" lon="12.835003775655837"><ele>1025.0</ele><time>2026-04-26T08:51:25.999Z</time></trkpt><trkpt lat="43.19340367923376" lon="12.834955127773785"><ele>1025.0</ele><time>2026-04-26T08:51:26.999Z</time></trkpt><trkpt lat="43.193351595896075" lon="12.834876128358879"><ele>1022.8571428571427</ele><time>2026-04-26T08:51:27.999Z</time></trkpt><trkpt lat="43.193298981200684" lon="12.834796435928075"><ele>1020.7142857142857</ele><time>2026-04-26T08:51:28.999Z</time></trkpt><trkpt lat="43.193222810998535" lon="12.834755565919377"><ele>1018.5714285714284</ele><time>2026-04-26T08:51:29.999Z</time></trkpt><trkpt lat="43.19315869174134" lon="12.834709433044967"><ele>1016.4285714285713</ele><time>2026-04-26T08:51:30.999Z</time></trkpt><trkpt lat="43.19310188796779" lon="12.834637331889828"><ele>1014.2857142857142</ele><time>2026-04-26T08:51:31.999Z</time></trkpt><trkpt lat="43.19306059702179" lon="12.834561859172169"><ele>1012.1428571428571</ele><time>2026-04-26T08:51:32.999Z</time></trkpt><trkpt lat="43.19302622322296" lon="12.834484020300044"><ele>1010.0</ele><time>2026-04-26T08:51:33.999Z</time></trkpt><trkpt lat="43.19298398458229" lon="12.83439730729938"><ele>1010.0000000000001</ele><time>2026-04-26T08:51:34.999Z</time></trkpt><trkpt lat="43.19292171701696" lon="12.83432189889211"><ele>1010.0</ele><time>2026-04-26T08:51:35.999Z</time></trkpt><trkpt lat="43.19285550089564" lon="12.834250803483943"><ele>1010.0</ele><time>2026-04-26T08:51:36.999Z</time></trkpt><trkpt lat="43.19279075820708" lon="12.834168533708601"><ele>1010.0</ele><time>2026-04-26T08:51:37.999Z</time></trkpt><trkpt lat="43.19272100374454" lon="12.834076781309635"><ele>1010.0000000000001</ele><time>2026-04-26T08:51:38.999Z</time></trkpt><trkpt lat="43.192658764895" lon="12.833985451087397"><ele>1010.0</ele><time>2026-04-26T08:51:39.999Z</time></trkpt><trkpt lat="43.192591667451964" lon="12.833877915522285"><ele>1014.4</ele><time>2026-04-26T08:51:40.999Z</time></trkpt><trkpt lat="43.19252927447546" lon="12.833763240749056"><ele>1018.8</ele><time>2026-04-26T08:51:41.999Z</time></trkpt><trkpt lat="43.192453308614375" lon="12.83363809502308"><ele>1023.2</ele><time>2026-04-26T08:51:42.999Z</time></trkpt><trkpt lat="43.192372556587074" lon="12.83353771247386"><ele>1027.6</ele><time>2026-04-26T08:51:43.999Z</time></trkpt><trkpt lat="43.192292420659136" lon="12.833440931798117"><ele>1032.0</ele><time>2026-04-26T08:51:44.999Z</time></trkpt><trkpt lat="43.19221137419614" lon="12.833321462174585"><ele>1032.0</ele><time>2026-04-26T08:51:45.999Z</time></trkpt><trkpt lat="43.19212810858112" lon="12.833203731860928"><ele>1032.0</ele><time>2026-04-26T08:51:46.999Z</time></trkpt><trkpt lat="43.19205126574229" lon="12.833088652776414"><ele>1032.0</ele><time>2026-04-26T08:51:47.999Z</time></trkpt><trkpt lat="43.191970468860966" lon="12.832968085859962"><ele>1032.0</ele><time>2026-04-26T08:51:48.999Z</time></trkpt><trkpt lat="43.191889954471286" lon="12.832859657734511"><ele>1032.0</ele><time>2026-04-26T08:51:49.999Z</time></trkpt><trkpt lat="43.19180099160181" lon="12.832757325686757"><ele>1032.0</ele><time>2026-04-26T08:51:50.999Z</time></trkpt><trkpt lat="43.1917149807999" lon="12.832657689532985"><ele>1032.0</ele><time>2026-04-26T08:51:51.999Z</time></trkpt><trkpt lat="43.19163685689979" lon="12.83257139772451"><ele>1032.0</ele><time>2026-04-26T08:51:52.999Z</time></trkpt><trkpt lat="43.19155663565397" lon="12.832482750347426"><ele>1032.0</ele><time>2026-04-26T08:51:53.999Z</time></trkpt><trkpt lat="43.19147114519081" lon="12.832404630635466"><ele>1032.6</ele><time>2026-04-26T08:51:54.999Z</time></trkpt><trkpt lat="43.191387327389315" lon="12.83234233507584"><ele>1033.2</ele><time>2026-04-26T08:51:55.999Z</time></trkpt><trkpt lat="43.191306381406655" lon="12.832268477497989"><ele>1033.8</ele><time>2026-04-26T08:51:56.999Z</time></trkpt><trkpt lat="43.191231154722544" lon="12.832167933675795"><ele>1034.4</ele><time>2026-04-26T08:51:57.999Z</time></trkpt><trkpt lat="43.19115711781894" lon="12.832070963004082"><ele>1035.0</ele><time>2026-04-26T08:51:58.999Z</time></trkpt><trkpt lat="43.191081397967835" lon="12.831981975766809"><ele>1035.0</ele><time>2026-04-26T08:51:59.999Z</time></trkpt><trkpt lat="43.1910055883185" lon="12.831890102595867"><ele>1035.0</ele><time>2026-04-26T08:52:00.999Z</time></trkpt><trkpt lat="43.190933431756775" lon="12.831791612522153"><ele>1035.0</ele><time>2026-04-26T08:52:01.999Z</time></trkpt><trkpt lat="43.19085364774628" lon="12.831696485280931"><ele>1035.0</ele><time>2026-04-26T08:52:02.999Z</time></trkpt><trkpt lat="43.190771207835176" lon="12.831589855452169"><ele>1035.0</ele><time>2026-04-26T08:52:03.999Z</time></trkpt><trkpt lat="43.190690392667555" lon="12.831491088505494"><ele>1034.8</ele><time>2026-04-26T08:52:04.999Z</time></trkpt><trkpt lat="43.19060757072196" lon="12.831394149221111"><ele>1034.6</ele><time>2026-04-26T08:52:05.999Z</time></trkpt><trkpt lat="43.190534849894554" lon="12.831305449329934"><ele>1034.4</ele><time>2026-04-26T08:52:06.999Z</time></trkpt><trkpt lat="43.19046479635778" lon="12.831229060620904"><ele>1034.2</ele><time>2026-04-26T08:52:07.999Z</time></trkpt><trkpt lat="43.19039689896873" lon="12.831154613612217"><ele>1034.0</ele><time>2026-04-26T08:52:08.999Z</time></trkpt><trkpt lat="43.19031984283498" lon="12.831079871392575"><ele>1042.0</ele><time>2026-04-26T08:52:09.999Z</time></trkpt><trkpt lat="43.190203067585266" lon="12.83094692785159"><ele>1050.0</ele><time>2026-04-26T08:52:10.999Z</time></trkpt><trkpt lat="43.190105852369925" lon="12.830822634309378"><ele>1058.0</ele><time>2026-04-26T08:52:11.999Z</time></trkpt><trkpt lat="43.190023436668646" lon="12.830732683323731"><ele>1066.0</ele><time>2026-04-26T08:52:12.999Z</time></trkpt><trkpt lat="43.18993245127879" lon="12.830644330322535"><ele>1066.0</ele><time>2026-04-26T08:52:13.999Z</time></trkpt><trkpt lat="43.189845943791326" lon="12.830553705815255"><ele>1066.0</ele><time>2026-04-26T08:52:14.999Z</time></trkpt><trkpt lat="43.18977519839313" lon="12.830464142233534"><ele>1066.0</ele><time>2026-04-26T08:52:15.999Z</time></trkpt><trkpt lat="43.189699993636275" lon="12.830365318603775"><ele>1066.0</ele><time>2026-04-26T08:52:16.999Z</time></trkpt><trkpt lat="43.18961474479923" lon="12.830270850387834"><ele>1066.0</ele><time>2026-04-26T08:52:17.999Z</time></trkpt><trkpt lat="43.189532279506736" lon="12.830191889043324"><ele>1065.8</ele><time>2026-04-26T08:52:18.999Z</time></trkpt><trkpt lat="43.18945491900753" lon="12.830111248347837"><ele>1065.6</ele><time>2026-04-26T08:52:19.999Z</time></trkpt><trkpt lat="43.18939212243637" lon="12.83003599323255"><ele>1065.4</ele><time>2026-04-26T08:52:20.999Z</time></trkpt><trkpt lat="43.18932996067627" lon="12.829963705121239"><ele>1065.2</ele><time>2026-04-26T08:52:21.999Z</time></trkpt><trkpt lat="43.18925775298874" lon="12.829885743491198"><ele>1065.0</ele><time>2026-04-26T08:52:22.999Z</time></trkpt><trkpt lat="43.18917339224867" lon="12.829822941464084"><ele>1065.0</ele><time>2026-04-26T08:52:23.999Z</time></trkpt><trkpt lat="43.18908479118855" lon="12.829766828276158"><ele>1065.0</ele><time>2026-04-26T08:52:24.999Z</time></trkpt><trkpt lat="43.188999898406756" lon="12.829710069898887"><ele>1065.0</ele><time>2026-04-26T08:52:25.999Z</time></trkpt><trkpt lat="43.188919650300015" lon="12.82964458552651"><ele>1065.0</ele><time>2026-04-26T08:52:26.999Z</time></trkpt><trkpt lat="43.18884519457536" lon="12.829570938210262"><ele>1065.0</ele><time>2026-04-26T08:52:27.999Z</time></trkpt><trkpt lat="43.188775255867256" lon="12.829492703168597"><ele>1066.4</ele><time>2026-04-26T08:52:28.999Z</time></trkpt><trkpt lat="43.18869270311119" lon="12.829407625485569"><ele>1067.8</ele><time>2026-04-26T08:52:29.999Z</time></trkpt><trkpt lat="43.18860676131932" lon="12.829332723689657"><ele>1069.2</ele><time>2026-04-26T08:52:30.999Z</time></trkpt><trkpt lat="43.18852168666148" lon="12.829251079758691"><ele>1070.6</ele><time>2026-04-26T08:52:31.999Z</time></trkpt><trkpt lat="43.188442274484785" lon="12.829145949732048"><ele>1072.0</ele><time>2026-04-26T08:52:32.999Z</time></trkpt><trkpt lat="43.18836450280652" lon="12.82905706998739"><ele>1072.0</ele><time>2026-04-26T08:52:33.999Z</time></trkpt><trkpt lat="43.18828623506213" lon="12.828965259959372"><ele>1072.0</ele><time>2026-04-26T08:52:34.999Z</time></trkpt><trkpt lat="43.1882091418021" lon="12.828880457599137"><ele>1072.0</ele><time>2026-04-26T08:52:35.999Z</time></trkpt><trkpt lat="43.1881392434796" lon="12.828804440759182"><ele>1072.0</ele><time>2026-04-26T08:52:36.999Z</time></trkpt><trkpt lat="43.18807304882778" lon="12.828752177954922"><ele>1072.0</ele><time>2026-04-26T08:52:37.999Z</time></trkpt><trkpt lat="43.187996664170456" lon="12.828706455158033"><ele>1066.2</ele><time>2026-04-26T08:52:38.999Z</time></trkpt><trkpt lat="43.187909405499475" lon="12.828660364805733"><ele>1060.4</ele><time>2026-04-26T08:52:39.999Z</time></trkpt><trkpt lat="43.18782064908989" lon="12.82862390907012"><ele>1054.6</ele><time>2026-04-26T08:52:40.999Z</time></trkpt><trkpt lat="43.187725172174815" lon="12.828595916848743"><ele>1048.8</ele><time>2026-04-26T08:52:41.999Z</time></trkpt><trkpt lat="43.18762854769735" lon="12.82857339667687"><ele>1043.0</ele><time>2026-04-26T08:52:42.999Z</time></trkpt><trkpt lat="43.18753818649214" lon="12.828546333149355"><ele>1043.0</ele><time>2026-04-26T08:52:43.999Z</time></trkpt><trkpt lat="43.18745185363285" lon="12.828514817983564"><ele>1043.0</ele><time>2026-04-26T08:52:44.999Z</time></trkpt><trkpt lat="43.18736883060568" lon="12.828472955470811"><ele>1043.0</ele><time>2026-04-26T08:52:45.999Z</time></trkpt><trkpt lat="43.18729123891845" lon="12.828403007264347"><ele>1043.0</ele><time>2026-04-26T08:52:46.999Z</time></trkpt><trkpt lat="43.18721395229291" lon="12.82833479839378"><ele>1043.0</ele><time>2026-04-26T08:52:47.999Z</time></trkpt><trkpt lat="43.187129113830714" lon="12.828271892816968"><ele>1045.6666666666667</ele><time>2026-04-26T08:52:48.999Z</time></trkpt><trkpt lat="43.18705092319086" lon="12.828210429691083"><ele>1048.3333333333335</ele><time>2026-04-26T08:52:49.999Z</time></trkpt><trkpt lat="43.18697493573884" lon="12.828156662860163"><ele>1051.0</ele><time>2026-04-26T08:52:50.999Z</time></trkpt><trkpt lat="43.186901985894075" lon="12.828110795116613"><ele>1053.6666666666667</ele><time>2026-04-26T08:52:51.999Z</time></trkpt><trkpt lat="43.186828219376025" lon="12.828055356934982"><ele>1056.3333333333333</ele><time>2026-04-26T08:52:52.999Z</time></trkpt><trkpt lat="43.186748885348216" lon="12.827991474780394"><ele>1059.0</ele><time>2026-04-26T08:52:53.999Z</time></trkpt><trkpt lat="43.18666049730001" lon="12.827931956181073"><ele>1059.0</ele><time>2026-04-26T08:52:54.999Z</time></trkpt><trkpt lat="43.18657157570115" lon="12.827898089158937"><ele>1059.0</ele><time>2026-04-26T08:52:55.999Z</time></trkpt><trkpt lat="43.18648215536155" lon="12.827860393387397"><ele>1059.0</ele><time>2026-04-26T08:52:56.999Z</time></trkpt><trkpt lat="43.18639710595283" lon="12.827821831038937"><ele>1059.0</ele><time>2026-04-26T08:52:57.999Z</time></trkpt><trkpt lat="43.18631696210083" lon="12.8277754562234"><ele>1059.0</ele><time>2026-04-26T08:52:58.999Z</time></trkpt><trkpt lat="43.18624115858" lon="12.827700175338093"><ele>1060.3333333333333</ele><time>2026-04-26T08:52:59.999Z</time></trkpt><trkpt lat="43.18615758845929" lon="12.827639433945242"><ele>1061.6666666666667</ele><time>2026-04-26T08:53:00.999Z</time></trkpt><trkpt lat="43.18607613339039" lon="12.8275752112952"><ele>1063.0</ele><time>2026-04-26T08:53:01.999Z</time></trkpt><trkpt lat="43.18600301430603" lon="12.827508030335562"><ele>1064.3333333333335</ele><time>2026-04-26T08:53:02.999Z</time></trkpt><trkpt lat="43.18593091490845" lon="12.827457184013056"><ele>1065.6666666666667</ele><time>2026-04-26T08:53:03.999Z</time></trkpt><trkpt lat="43.18586111640572" lon="12.827407509810602"><ele>1067.0</ele><time>2026-04-26T08:53:04.999Z</time></trkpt><trkpt lat="43.18579929806006" lon="12.827348644167218"><ele>1067.0</ele><time>2026-04-26T08:53:05.999Z</time></trkpt><trkpt lat="43.18574060676738" lon="12.827297154299927"><ele>1067.0</ele><time>2026-04-26T08:53:06.999Z</time></trkpt><trkpt lat="43.18563181915607" lon="12.827199967823388"><ele>1067.0</ele><time>2026-04-26T08:53:08.999Z</time></trkpt><trkpt lat="43.18555758113866" lon="12.8271460331587"><ele>1067.0</ele><time>2026-04-26T08:53:09.999Z</time></trkpt><trkpt lat="43.185473576793456" lon="12.827093711951827"><ele>1067.0</ele><time>2026-04-26T08:53:10.999Z</time></trkpt><trkpt lat="43.1853870613887" lon="12.827050121941282"><ele>1068.0</ele><time>2026-04-26T08:53:11.999Z</time></trkpt><trkpt lat="43.18529769354579" lon="12.826990132400223"><ele>1069.0</ele><time>2026-04-26T08:53:12.999Z</time></trkpt><trkpt lat="43.185222099438704" lon="12.826957521846815"><ele>1070.0</ele><time>2026-04-26T08:53:13.999Z</time></trkpt><trkpt lat="43.18516471816172" lon="12.826918291907853"><ele>1071.0</ele><time>2026-04-26T08:53:14.999Z</time></trkpt><trkpt lat="43.185102691632174" lon="12.826859086944154"><ele>1072.0</ele><time>2026-04-26T08:53:15.999Z</time></trkpt><trkpt lat="43.18502071745855" lon="12.826818867232141"><ele>1073.0</ele><time>2026-04-26T08:53:16.999Z</time></trkpt><trkpt lat="43.184939545109785" lon="12.82677528065027"><ele>1073.0</ele><time>2026-04-26T08:53:17.999Z</time></trkpt><trkpt lat="43.18485704187492" lon="12.826730789780912"><ele>1073.0</ele><time>2026-04-26T08:53:18.999Z</time></trkpt><trkpt lat="43.18477537414657" lon="12.82668261646836"><ele>1073.0</ele><time>2026-04-26T08:53:19.999Z</time></trkpt><trkpt lat="43.18469544034262" lon="12.8266278465277"><ele>1073.0</ele><time>2026-04-26T08:53:20.999Z</time></trkpt><trkpt lat="43.1846171970874" lon="12.826573199496464"><ele>1073.0</ele><time>2026-04-26T08:53:21.999Z</time></trkpt><trkpt lat="43.184543796782606" lon="12.826520217558656"><ele>1073.0</ele><time>2026-04-26T08:53:22.999Z</time></trkpt><trkpt lat="43.18446996962096" lon="12.826471627183007"><ele>1069.8333333333335</ele><time>2026-04-26T08:53:23.999Z</time></trkpt><trkpt lat="43.18439886785075" lon="12.826422287093024"><ele>1066.6666666666667</ele><time>2026-04-26T08:53:24.999Z</time></trkpt><trkpt lat="43.18433621390116" lon="12.826369995912891"><ele>1063.5</ele><time>2026-04-26T08:53:25.999Z</time></trkpt><trkpt lat="43.184279800185415" lon="12.826318520599825"><ele>1060.3333333333333</ele><time>2026-04-26T08:53:26.999Z</time></trkpt><trkpt lat="43.184192899560806" lon="12.826208408743868"><ele>1057.1666666666665</ele><time>2026-04-26T08:53:28.999Z</time></trkpt><trkpt lat="43.18411862794321" lon="12.82610965110663"><ele>1054.0</ele><time>2026-04-26T08:53:30.999Z</time></trkpt><trkpt lat="43.18404567719209" lon="12.826018032158613"><ele>1054.3333333333333</ele><time>2026-04-26T08:53:32.999Z</time></trkpt><trkpt lat="43.18395992145642" lon="12.825937912535839"><ele>1054.6666666666665</ele><time>2026-04-26T08:53:34.999Z</time></trkpt><trkpt lat="43.183845981556615" lon="12.825861862538723"><ele>1055.0</ele><time>2026-04-26T08:53:36.999Z</time></trkpt><trkpt lat="43.18378585419085" lon="12.825824419490248"><ele>1055.3333333333333</ele><time>2026-04-26T08:53:37.999Z</time></trkpt><trkpt lat="43.18372520461566" lon="12.825793794836228"><ele>1055.6666666666667</ele><time>2026-04-26T08:53:38.999Z</time></trkpt><trkpt lat="43.183659865139575" lon="12.825772071541035"><ele>1056.0</ele><time>2026-04-26T08:53:39.999Z</time></trkpt><trkpt lat="43.183597778340946" lon="12.825731821481819"><ele>1056.0</ele><time>2026-04-26T08:53:40.999Z</time></trkpt><trkpt lat="43.18354323899552" lon="12.825687527031217"><ele>1056.0</ele><time>2026-04-26T08:53:41.999Z</time></trkpt><trkpt lat="43.18348978466775" lon="12.825563593106905"><ele>1056.0</ele><time>2026-04-26T08:53:43.999Z</time></trkpt><trkpt lat="43.18348588237928" lon="12.825427016623765"><ele>1056.0</ele><time>2026-04-26T08:53:45.999Z</time></trkpt><trkpt lat="43.1835001709095" lon="12.825293158771423"><ele>1056.0</ele><time>2026-04-26T08:53:47.999Z</time></trkpt><trkpt lat="43.183524968744564" lon="12.825160090158565"><ele>1054.8</ele><time>2026-04-26T08:53:49.999Z</time></trkpt><trkpt lat="43.18354111688114" lon="12.825019120656984"><ele>1053.6</ele><time>2026-04-26T08:53:51.999Z</time></trkpt><trkpt lat="43.18355365450907" lon="12.824863663596881"><ele>1052.4</ele><time>2026-04-26T08:53:53.999Z</time></trkpt><trkpt lat="43.183584733801204" lon="12.824711536214773"><ele>1051.2</ele><time>2026-04-26T08:53:55.999Z</time></trkpt><trkpt lat="43.183616893889656" lon="12.824574360462362"><ele>1050.0</ele><time>2026-04-26T08:53:57.999Z</time></trkpt><trkpt lat="43.18365716090572" lon="12.824439866195709"><ele>1050.0</ele><time>2026-04-26T08:53:59.999Z</time></trkpt><trkpt lat="43.183690790007965" lon="12.824314577218995"><ele>1050.0</ele><time>2026-04-26T08:54:01.999Z</time></trkpt><trkpt lat="43.18374716661508" lon="12.82419201911274"><ele>1050.0</ele><time>2026-04-26T08:54:03.999Z</time></trkpt><trkpt lat="43.18380513321092" lon="12.824088174159852"><ele>1050.0</ele><time>2026-04-26T08:54:05.999Z</time></trkpt><trkpt lat="43.18387364573623" lon="12.823997801653425"><ele>1050.0</ele><time>2026-04-26T08:54:07.999Z</time></trkpt><trkpt lat="43.18392910899798" lon="12.823932461221696"><ele>1050.1666666666667</ele><time>2026-04-26T08:54:09.999Z</time></trkpt><trkpt lat="43.183978165733116" lon="12.82385443055605"><ele>1050.3333333333333</ele><time>2026-04-26T08:54:19.999Z</time></trkpt><trkpt lat="43.18405868720937" lon="12.82376525433504"><ele>1050.5</ele><time>2026-04-26T08:54:21.999Z</time></trkpt><trkpt lat="43.18413078491392" lon="12.823736353844346"><ele>1050.6666666666665</ele><time>2026-04-26T08:54:22.999Z</time></trkpt><trkpt lat="43.18419485002844" lon="12.823680845127074"><ele>1050.8333333333333</ele><time>2026-04-26T08:54:23.999Z</time></trkpt><trkpt lat="43.184251964539015" lon="12.823607638479292"><ele>1051.0</ele><time>2026-04-26T08:54:24.999Z</time></trkpt><trkpt lat="43.18431624919341" lon="12.823555580160061"><ele>1051.0</ele><time>2026-04-26T08:54:25.999Z</time></trkpt><trkpt lat="43.18437829668742" lon="12.823503462128443"><ele>1051.0</ele><time>2026-04-26T08:54:26.999Z</time></trkpt><trkpt lat="43.18444603063274" lon="12.823448864748762"><ele>1051.0</ele><time>2026-04-26T08:54:27.999Z</time></trkpt><trkpt lat="43.18450470123733" lon="12.823379225434069"><ele>1051.0</ele><time>2026-04-26T08:54:28.999Z</time></trkpt><trkpt lat="43.184571643386874" lon="12.82333354815558"><ele>1051.0</ele><time>2026-04-26T08:54:29.999Z</time></trkpt><trkpt lat="43.184625507387956" lon="12.82326539059834"><ele>1051.0</ele><time>2026-04-26T08:54:30.999Z</time></trkpt><trkpt lat="43.18468319389641" lon="12.823200994395538"><ele>1048.0</ele><time>2026-04-26T08:54:31.999Z</time></trkpt><trkpt lat="43.18474450397322" lon="12.823136964196392"><ele>1045.0</ele><time>2026-04-26T08:54:32.999Z</time></trkpt><trkpt lat="43.18480835698856" lon="12.823075170923032"><ele>1042.0</ele><time>2026-04-26T08:54:33.999Z</time></trkpt><trkpt lat="43.184874394527384" lon="12.823023590264468"><ele>1039.0</ele><time>2026-04-26T08:54:34.999Z</time></trkpt><trkpt lat="43.18493941933685" lon="12.822956473116138"><ele>1036.0</ele><time>2026-04-26T08:54:35.999Z</time></trkpt><trkpt lat="43.18501433830229" lon="12.822919450717514"><ele>1033.0</ele><time>2026-04-26T08:54:36.999Z</time></trkpt><trkpt lat="43.185092615649886" lon="12.822876368117383"><ele>1033.0</ele><time>2026-04-26T08:54:37.999Z</time></trkpt><trkpt lat="43.18516625819491" lon="12.82281456735934"><ele>1033.0</ele><time>2026-04-26T08:54:38.999Z</time></trkpt><trkpt lat="43.18523354270311" lon="12.822736437886235"><ele>1033.0</ele><time>2026-04-26T08:54:39.999Z</time></trkpt><trkpt lat="43.185300527713245" lon="12.822661034153947"><ele>1033.0</ele><time>2026-04-26T08:54:40.999Z</time></trkpt><trkpt lat="43.18536534191091" lon="12.822584426167937"><ele>1033.0</ele><time>2026-04-26T08:54:41.999Z</time></trkpt><trkpt lat="43.18543028595356" lon="12.82251271704583"><ele>1033.0</ele><time>2026-04-26T08:54:42.999Z</time></trkpt><trkpt lat="43.18549456762313" lon="12.822448575447675"><ele>1030.6666666666665</ele><time>2026-04-26T08:54:43.999Z</time></trkpt><trkpt lat="43.18555395350579" lon="12.822374621630383"><ele>1028.3333333333333</ele><time>2026-04-26T08:54:44.999Z</time></trkpt><trkpt lat="43.18562281617645" lon="12.822321435076342"><ele>1026.0</ele><time>2026-04-26T08:54:45.999Z</time></trkpt><trkpt lat="43.18567608910079" lon="12.822263910548294"><ele>1023.6666666666667</ele><time>2026-04-26T08:54:46.999Z</time></trkpt><trkpt lat="43.18571759119464" lon="12.822196993651518"><ele>1021.3333333333334</ele><time>2026-04-26T08:54:47.999Z</time></trkpt><trkpt lat="43.185831519503814" lon="12.822139523012083"><ele>1019.0</ele><time>2026-04-26T08:54:49.999Z</time></trkpt><trkpt lat="43.18594896228205" lon="12.82210103045542"><ele>1019.0000000000001</ele><time>2026-04-26T08:54:51.999Z</time></trkpt><trkpt lat="43.186012057359825" lon="12.82210076569649"><ele>1019.0</ele><time>2026-04-26T08:54:52.999Z</time></trkpt><trkpt lat="43.18607602696013" lon="12.822076625647945"><ele>1019.0</ele><time>2026-04-26T08:54:53.999Z</time></trkpt><trkpt lat="43.18614209348953" lon="12.822090668974013"><ele>1019.0</ele><time>2026-04-26T08:54:54.999Z</time></trkpt><trkpt lat="43.18624728908479" lon="12.8221366745603"><ele>1019.0000000000001</ele><time>2026-04-26T08:54:56.999Z</time></trkpt><trkpt lat="43.18633780951234" lon="12.82209481277021"><ele>1019.0</ele><time>2026-04-26T08:54:58.999Z</time></trkpt><trkpt lat="43.18635176102178" lon="12.821993061887987"><ele>1019.0</ele><time>2026-04-26T08:54:59.999Z</time></trkpt><trkpt lat="43.186270825229585" lon="12.821890830151707"><ele>1019.0000000000001</ele><time>2026-04-26T08:55:01.999Z</time></trkpt><trkpt lat="43.18616696819427" lon="12.82180030827058"><ele>1019.0000000000001</ele><time>2026-04-26T08:55:03.999Z</time></trkpt><trkpt lat="43.186067302275276" lon="12.821697708878126"><ele>1019.0</ele><time>2026-04-26T08:55:05.999Z</time></trkpt><trkpt lat="43.18601595381471" lon="12.821642994876223"><ele>1019.0</ele><time>2026-04-26T08:55:06.999Z</time></trkpt><trkpt lat="43.18591706147492" lon="12.821551213727016"><ele>1016.5714285714287</ele><time>2026-04-26T08:55:08.999Z</time></trkpt><trkpt lat="43.185839309089786" lon="12.821483168207916"><ele>1014.1428571428571</ele><time>2026-04-26T08:55:10.999Z</time></trkpt><trkpt lat="43.18578382192535" lon="12.82143738380635"><ele>1011.7142857142858</ele><time>2026-04-26T08:55:12.999Z</time></trkpt><trkpt lat="43.185764138295035" lon="12.821354045261614"><ele>1009.2857142857143</ele><time>2026-04-26T08:55:47.999Z</time></trkpt><trkpt lat="43.18573205520897" lon="12.821441892712748"><ele>1006.8571428571429</ele><time>2026-04-26T08:57:17Z</time></trkpt><trkpt lat="43.18565883286519" lon="12.821462511387239"><ele>1004.4285714285714</ele><time>2026-04-26T08:59:44Z</time></trkpt><trkpt lat="43.18564571343741" lon="12.821371679111989"><ele>1002.0</ele><time>2026-04-26T09:01:02.999Z</time></trkpt><trkpt lat="43.18558324890639" lon="12.821339294158484"><ele>1002.0</ele><time>2026-04-26T09:01:06.999Z</time></trkpt><trkpt lat="43.185668850515846" lon="12.821348216167125"><ele>1002.0</ele><time>2026-04-26T09:01:14.999Z</time></trkpt><trkpt lat="43.18573922840867" lon="12.821445297250683"><ele>1002.0</ele><time>2026-04-26T09:02:34.999Z</time></trkpt><trkpt lat="43.18583456537959" lon="12.821485900069504"><ele>1002.0</ele><time>2026-04-26T09:02:37.999Z</time></trkpt><trkpt lat="43.18588794040056" lon="12.82153803958812"><ele>1002.0</ele><time>2026-04-26T09:02:38.999Z</time></trkpt><trkpt lat="43.18595742823853" lon="12.821603728340715"><ele>1002.0</ele><time>2026-04-26T09:02:39.999Z</time></trkpt><trkpt lat="43.18602246100505" lon="12.82170763157424"><ele>1002.0</ele><time>2026-04-26T09:02:40.999Z</time></trkpt><trkpt lat="43.18609719681456" lon="12.821787265768963"><ele>1002.0</ele><time>2026-04-26T09:02:41.999Z</time></trkpt><trkpt lat="43.186167384066124" lon="12.821854643423734"><ele>1002.0</ele><time>2026-04-26T09:02:42.999Z</time></trkpt><trkpt lat="43.18623481693146" lon="12.82188846324209"><ele>1002.0</ele><time>2026-04-26T09:02:43.999Z</time></trkpt><trkpt lat="43.18632189259444" lon="12.821971409250404"><ele>1002.0</ele><time>2026-04-26T09:02:45.999Z</time></trkpt><trkpt lat="43.186348572973166" lon="12.822066886468347"><ele>1002.0</ele><time>2026-04-26T09:02:48.999Z</time></trkpt><trkpt lat="43.18645445591096" lon="12.821913940135058"><ele>1001.8333333333334</ele><time>2026-04-26T09:03:07.999Z</time></trkpt><trkpt lat="43.186510737944836" lon="12.821848245311006"><ele>1001.6666666666667</ele><time>2026-04-26T09:03:08.999Z</time></trkpt><trkpt lat="43.18657504661756" lon="12.82177068095709"><ele>1001.5</ele><time>2026-04-26T09:03:09.999Z</time></trkpt><trkpt lat="43.18664797161831" lon="12.821707757694194"><ele>1001.3333333333334</ele><time>2026-04-26T09:03:10.999Z</time></trkpt><trkpt lat="43.18672236069951" lon="12.821644535630734"><ele>1001.1666666666667</ele><time>2026-04-26T09:03:11.999Z</time></trkpt><trkpt lat="43.186798393041286" lon="12.821580568005922"><ele>1001.0</ele><time>2026-04-26T09:03:12.999Z</time></trkpt><trkpt lat="43.18687788717588" lon="12.82152259622215"><ele>1001.0000000000001</ele><time>2026-04-26T09:03:13.999Z</time></trkpt><trkpt lat="43.186956289758285" lon="12.821463794066522"><ele>1001.0</ele><time>2026-04-26T09:03:14.999Z</time></trkpt><trkpt lat="43.18703094073247" lon="12.821397293060274"><ele>1001.0</ele><time>2026-04-26T09:03:15.999Z</time></trkpt><trkpt lat="43.18710241834939" lon="12.82132246219472"><ele>1001.0</ele><time>2026-04-26T09:03:16.999Z</time></trkpt><trkpt lat="43.18717312117034" lon="12.821250013050935"><ele>1001.0000000000001</ele><time>2026-04-26T09:03:17.999Z</time></trkpt><trkpt lat="43.18724094955737" lon="12.82118346094225"><ele>1001.0</ele><time>2026-04-26T09:03:18.999Z</time></trkpt><trkpt lat="43.18730773822592" lon="12.821120544885629"><ele>1001.0000000000001</ele><time>2026-04-26T09:03:19.999Z</time></trkpt><trkpt lat="43.18738023642187" lon="12.821067809999459"><ele>1001.0</ele><time>2026-04-26T09:03:20.999Z</time></trkpt><trkpt lat="43.18745646447109" lon="12.821018522514175"><ele>1001.0</ele><time>2026-04-26T09:03:21.999Z</time></trkpt><trkpt lat="43.18752962242933" lon="12.820967494771713"><ele>1001.0</ele><time>2026-04-26T09:03:22.999Z</time></trkpt><trkpt lat="43.18759573326111" lon="12.820900747587325"><ele>1001.0000000000001</ele><time>2026-04-26T09:03:23.999Z</time></trkpt><trkpt lat="43.18765226978438" lon="12.820817132678064"><ele>1001.0</ele><time>2026-04-26T09:03:24.999Z</time></trkpt><trkpt lat="43.18769984021562" lon="12.820731623639443"><ele>998.3333333333334</ele><time>2026-04-26T09:03:25.999Z</time></trkpt><trkpt lat="43.18774311545788" lon="12.820651394627243"><ele>995.6666666666667</ele><time>2026-04-26T09:03:26.999Z</time></trkpt><trkpt lat="43.187785309903354" lon="12.82057155046544"><ele>993.0</ele><time>2026-04-26T09:03:27.999Z</time></trkpt><trkpt lat="43.187835396220606" lon="12.820497594653665"><ele>990.3333333333333</ele><time>2026-04-26T09:03:28.999Z</time></trkpt><trkpt lat="43.18789494695215" lon="12.820429565851272"><ele>987.6666666666666</ele><time>2026-04-26T09:03:29.999Z</time></trkpt><trkpt lat="43.187960971732885" lon="12.820366358826599"><ele>985.0</ele><time>2026-04-26T09:03:30.999Z</time></trkpt><trkpt lat="43.18803353549238" lon="12.82030191283377"><ele>984.9999999999999</ele><time>2026-04-26T09:03:31.999Z</time></trkpt><trkpt lat="43.188110469240655" lon="12.820243192493367"><ele>985.0</ele><time>2026-04-26T09:03:32.999Z</time></trkpt><trkpt lat="43.188187080432606" lon="12.820191745196896"><ele>985.0</ele><time>2026-04-26T09:03:33.999Z</time></trkpt><trkpt lat="43.18826424576508" lon="12.82014274160265"><ele>985.0</ele><time>2026-04-26T09:03:34.999Z</time></trkpt><trkpt lat="43.18834474944742" lon="12.820097219175276"><ele>984.9999999999999</ele><time>2026-04-26T09:03:35.999Z</time></trkpt><trkpt lat="43.18842032907671" lon="12.820066513203326"><ele>985.0</ele><time>2026-04-26T09:03:36.999Z</time></trkpt><trkpt lat="43.18848779273384" lon="12.820042922769144"><ele>982.8333333333333</ele><time>2026-04-26T09:03:37.999Z</time></trkpt><trkpt lat="43.188557835293274" lon="12.820036017768935"><ele>980.6666666666666</ele><time>2026-04-26T09:03:38.999Z</time></trkpt><trkpt lat="43.18862818355235" lon="12.82003882835797"><ele>978.5</ele><time>2026-04-26T09:03:39.999Z</time></trkpt><trkpt lat="43.18872633925437" lon="12.820029723535614"><ele>976.3333333333333</ele><time>2026-04-26T09:03:41.999Z</time></trkpt><trkpt lat="43.188828165737576" lon="12.819930351834824"><ele>974.1666666666666</ele><time>2026-04-26T09:03:43.999Z</time></trkpt><trkpt lat="43.1888917185599" lon="12.819861084416164"><ele>972.0</ele><time>2026-04-26T09:03:44.999Z</time></trkpt><trkpt lat="43.18897351121238" lon="12.819816253844497"><ele>971.6666666666666</ele><time>2026-04-26T09:03:45.999Z</time></trkpt><trkpt lat="43.18905996597637" lon="12.819771294276299"><ele>971.3333333333333</ele><time>2026-04-26T09:03:46.999Z</time></trkpt><trkpt lat="43.18914063701473" lon="12.819717920585953"><ele>971.0</ele><time>2026-04-26T09:03:47.999Z</time></trkpt><trkpt lat="43.18922123341064" lon="12.819679731515809"><ele>970.6666666666666</ele><time>2026-04-26T09:03:48.999Z</time></trkpt><trkpt lat="43.189299831179554" lon="12.819644864496322"><ele>970.3333333333333</ele><time>2026-04-26T09:03:49.999Z</time></trkpt><trkpt lat="43.18937876862452" lon="12.819604299303883"><ele>970.0</ele><time>2026-04-26T09:03:50.999Z</time></trkpt><trkpt lat="43.189466964484154" lon="12.819591213705896"><ele>969.9999999999999</ele><time>2026-04-26T09:03:51.999Z</time></trkpt><trkpt lat="43.189556179344684" lon="12.81959495340515"><ele>970.0</ele><time>2026-04-26T09:03:52.999Z</time></trkpt><trkpt lat="43.18965104961663" lon="12.819613601065193"><ele>970.0</ele><time>2026-04-26T09:03:53.999Z</time></trkpt><trkpt lat="43.18973758208069" lon="12.819640519527566"><ele>970.0</ele><time>2026-04-26T09:03:54.999Z</time></trkpt><trkpt lat="43.189816072963566" lon="12.819666497824938"><ele>969.9999999999999</ele><time>2026-04-26T09:03:56Z</time></trkpt><trkpt lat="43.18989027845693" lon="12.819691014355243"><ele>970.0</ele><time>2026-04-26T09:03:57Z</time></trkpt><trkpt lat="43.189969055691876" lon="12.819723125590638"><ele>969.0</ele><time>2026-04-26T09:03:58Z</time></trkpt><trkpt lat="43.19002530712599" lon="12.819770901097641"><ele>968.0</ele><time>2026-04-26T09:03:59Z</time></trkpt><trkpt lat="43.190081367356356" lon="12.81983012714987"><ele>967.0</ele><time>2026-04-26T09:04:01Z</time></trkpt><trkpt lat="43.19029793799929" lon="12.819803432885188"><ele>966.0</ele><time>2026-04-26T09:04:05Z</time></trkpt><trkpt lat="43.190326731415894" lon="12.819679310812576"><ele>965.0</ele><time>2026-04-26T09:04:06Z</time></trkpt><trkpt lat="43.19039273778708" lon="12.819512454860568"><ele>965.0000000000001</ele><time>2026-04-26T09:04:08Z</time></trkpt><trkpt lat="43.19044561962145" lon="12.819430748894463"><ele>965.0</ele><time>2026-04-26T09:04:09Z</time></trkpt><trkpt lat="43.19050914525279" lon="12.819353483092828"><ele>965.0</ele><time>2026-04-26T09:04:10Z</time></trkpt><trkpt lat="43.190578080449164" lon="12.819286719410638"><ele>965.0</ele><time>2026-04-26T09:04:11Z</time></trkpt><trkpt lat="43.19065467830138" lon="12.819228595587207"><ele>965.0000000000001</ele><time>2026-04-26T09:04:12Z</time></trkpt><trkpt lat="43.19072383856431" lon="12.819176875355627"><ele>965.0</ele><time>2026-04-26T09:04:13Z</time></trkpt><trkpt lat="43.190828317969455" lon="12.819104053630776"><ele>961.6</ele><time>2026-04-26T09:04:15Z</time></trkpt><trkpt lat="43.19092515107917" lon="12.81905553766126"><ele>958.2</ele><time>2026-04-26T09:04:17Z</time></trkpt><trkpt lat="43.19100054019274" lon="12.819020144146556"><ele>954.8</ele><time>2026-04-26T09:04:20Z</time></trkpt><trkpt lat="43.1911216350373" lon="12.819039830140252"><ele>951.4</ele><time>2026-04-26T09:04:23Z</time></trkpt><trkpt lat="43.191209964020565" lon="12.819000835623106"><ele>948.0</ele><time>2026-04-26T09:04:24Z</time></trkpt><trkpt lat="43.19127052623342" lon="12.818925883985749"><ele>948.0</ele><time>2026-04-26T09:04:25Z</time></trkpt><trkpt lat="43.19135435149767" lon="12.818810650010622"><ele>948.0</ele><time>2026-04-26T09:04:26Z</time></trkpt><trkpt lat="43.19141447706147" lon="12.818670519017251"><ele>948.0</ele><time>2026-04-26T09:04:27Z</time></trkpt><trkpt lat="43.19144386533593" lon="12.818508717457316"><ele>948.0</ele><time>2026-04-26T09:04:28Z</time></trkpt><trkpt lat="43.191464477276526" lon="12.818414837579223"><ele>948.0</ele><time>2026-04-26T09:04:29Z</time></trkpt><trkpt lat="43.1914865659462" lon="12.818315225947405"><ele>946.5999999999999</ele><time>2026-04-26T09:04:30Z</time></trkpt><trkpt lat="43.19152920468776" lon="12.818198073135616"><ele>945.1999999999999</ele><time>2026-04-26T09:04:31Z</time></trkpt><trkpt lat="43.19157727579514" lon="12.818100019267654"><ele>943.8</ele><time>2026-04-26T09:04:32Z</time></trkpt><trkpt lat="43.19163958266179" lon="12.81799960696473"><ele>942.4</ele><time>2026-04-26T09:04:33Z</time></trkpt><trkpt lat="43.19170801107128" lon="12.817901432206936"><ele>941.0</ele><time>2026-04-26T09:04:34Z</time></trkpt><trkpt lat="43.19179016301441" lon="12.817794641509407"><ele>941.0</ele><time>2026-04-26T09:04:35Z</time></trkpt><trkpt lat="43.1918779382202" lon="12.817684345628349"><ele>941.0</ele><time>2026-04-26T09:04:36Z</time></trkpt><trkpt lat="43.191971243778056" lon="12.817580167312162"><ele>941.0</ele><time>2026-04-26T09:04:37Z</time></trkpt><trkpt lat="43.19207177471201" lon="12.817478826022482"><ele>941.0</ele><time>2026-04-26T09:04:38Z</time></trkpt><trkpt lat="43.19217437297572" lon="12.817382188308988"><ele>940.5</ele><time>2026-04-26T09:04:39Z</time></trkpt><trkpt lat="43.19226796117766" lon="12.817274092355373"><ele>940.0</ele><time>2026-04-26T09:04:40Z</time></trkpt><trkpt lat="43.19236466013848" lon="12.817191618013663"><ele>939.5</ele><time>2026-04-26T09:04:41Z</time></trkpt><trkpt lat="43.19246303740923" lon="12.817109645382994"><ele>939.0</ele><time>2026-04-26T09:04:42Z</time></trkpt><trkpt lat="43.19255331684819" lon="12.817037013599444"><ele>939.0</ele><time>2026-04-26T09:04:43Z</time></trkpt><trkpt lat="43.19264023984581" lon="12.816960166749608"><ele>939.0000000000001</ele><time>2026-04-26T09:04:44Z</time></trkpt><trkpt lat="43.19273221721726" lon="12.816907357662476"><ele>939.0000000000001</ele><time>2026-04-26T09:04:45Z</time></trkpt><trkpt lat="43.192812163022225" lon="12.81684161816558"><ele>939.0</ele><time>2026-04-26T09:04:46Z</time></trkpt><trkpt lat="43.19288235750871" lon="12.816785400102992"><ele>939.0</ele><time>2026-04-26T09:04:47Z</time></trkpt><trkpt lat="43.19295133423689" lon="12.816723347265516"><ele>937.4000000000001</ele><time>2026-04-26T09:04:48Z</time></trkpt><trkpt lat="43.19303547075684" lon="12.816660178382902"><ele>935.8000000000001</ele><time>2026-04-26T09:04:49Z</time></trkpt><trkpt lat="43.19314433763288" lon="12.816623584978645"><ele>934.1999999999999</ele><time>2026-04-26T09:04:50Z</time></trkpt><trkpt lat="43.19320879726869" lon="12.816528456874483"><ele>932.5999999999999</ele><time>2026-04-26T09:04:51Z</time></trkpt><trkpt lat="43.19325567263539" lon="12.816421880146255"><ele>931.0</ele><time>2026-04-26T09:04:52Z</time></trkpt><trkpt lat="43.19330052295605" lon="12.816320829753344"><ele>930.9999999999999</ele><time>2026-04-26T09:04:53Z</time></trkpt><trkpt lat="43.193353187631494" lon="12.816241459769758"><ele>931.0</ele><time>2026-04-26T09:04:54Z</time></trkpt><trkpt lat="43.19341341320267" lon="12.81618760790524"><ele>931.0</ele><time>2026-04-26T09:04:55Z</time></trkpt><trkpt lat="43.1934730339251" lon="12.816106895458757"><ele>931.0</ele><time>2026-04-26T09:04:56Z</time></trkpt><trkpt lat="43.193529396903436" lon="12.81602331728566"><ele>930.9999999999999</ele><time>2026-04-26T09:04:57Z</time></trkpt><trkpt lat="43.1935528493437" lon="12.8159099379702"><ele>931.0</ele><time>2026-04-26T09:04:58Z</time></trkpt><trkpt lat="43.193613758993365" lon="12.81583616592219"><ele>930.9999999999999</ele><time>2026-04-26T09:04:59Z</time></trkpt><trkpt lat="43.19367190323622" lon="12.815762924191588"><ele>931.0</ele><time>2026-04-26T09:05:00Z</time></trkpt><trkpt lat="43.193753628833434" lon="12.815708943567968"><ele>931.0</ele><time>2026-04-26T09:05:01Z</time></trkpt><trkpt lat="43.19383414819256" lon="12.815639763683201"><ele>931.0</ele><time>2026-04-26T09:05:02Z</time></trkpt><trkpt lat="43.193906377808226" lon="12.815559637234669"><ele>930.9999999999999</ele><time>2026-04-26T09:05:03Z</time></trkpt><trkpt lat="43.19397007545454" lon="12.815478625264282"><ele>931.0</ele><time>2026-04-26T09:05:04Z</time></trkpt><trkpt lat="43.194023830068254" lon="12.815415734951083"><ele>930.9999999999999</ele><time>2026-04-26T09:05:05Z</time></trkpt><trkpt lat="43.19409619717" lon="12.815315503944962"><ele>931.0</ele><time>2026-04-26T09:05:07Z</time></trkpt><trkpt lat="43.19414467973904" lon="12.815225692749449"><ele>931.0</ele><time>2026-04-26T09:05:09Z</time></trkpt><trkpt lat="43.19420456772432" lon="12.815138903371468"><ele>931.0</ele><time>2026-04-26T09:05:11Z</time></trkpt><trkpt lat="43.19425335106904" lon="12.815066134873966"><ele>930.9999999999999</ele><time>2026-04-26T09:05:16Z</time></trkpt><trkpt lat="43.19432412485342" lon="12.815012948797165"><ele>931.0</ele><time>2026-04-26T09:05:19Z</time></trkpt><trkpt lat="43.19432650910013" lon="12.814897235522109"><ele>928.1666666666666</ele><time>2026-04-26T09:05:23Z</time></trkpt><trkpt lat="43.19433186843861" lon="12.814755645394223"><ele>925.3333333333333</ele><time>2026-04-26T09:05:25Z</time></trkpt><trkpt lat="43.19437843376426" lon="12.814628682000526"><ele>922.5</ele><time>2026-04-26T09:05:27Z</time></trkpt><trkpt lat="43.19443365487216" lon="12.814534055046567"><ele>919.6666666666667</ele><time>2026-04-26T09:05:29Z</time></trkpt><trkpt lat="43.19447928019565" lon="12.814453184881133"><ele>916.8333333333334</ele><time>2026-04-26T09:05:32Z</time></trkpt><trkpt lat="43.19452159796393" lon="12.814363939266176"><ele>914.0</ele><time>2026-04-26T09:05:38Z</time></trkpt><trkpt lat="43.19454245018212" lon="12.814223416188327"><ele>911.5714285714287</ele><time>2026-04-26T09:05:41Z</time></trkpt><trkpt lat="43.19455432134224" lon="12.81411670286701"><ele>909.1428571428571</ele><time>2026-04-26T09:05:43Z</time></trkpt><trkpt lat="43.194516412875366" lon="12.81403757934978"><ele>906.7142857142858</ele><time>2026-04-26T09:05:46Z</time></trkpt><trkpt lat="43.1945488807188" lon="12.813961052099625"><ele>904.2857142857143</ele><time>2026-04-26T09:05:50Z</time></trkpt><trkpt lat="43.19461914794848" lon="12.813927349589008"><ele>901.8571428571429</ele><time>2026-04-26T09:05:55Z</time></trkpt><trkpt lat="43.19466879286808" lon="12.813869965456865"><ele>899.4285714285714</ele><time>2026-04-26T09:06:01Z</time></trkpt><trkpt lat="43.19470708793137" lon="12.813793671827822"><ele>897.0</ele><time>2026-04-26T09:06:06Z</time></trkpt><trkpt lat="43.19474273115382" lon="12.813695824914943"><ele>897.0</ele><time>2026-04-26T09:06:11Z</time></trkpt><trkpt lat="43.19478011767337" lon="12.813608420931269"><ele>897.0</ele><time>2026-04-26T09:06:13Z</time></trkpt><trkpt lat="43.194813075289225" lon="12.813449110739796"><ele>897.0</ele><time>2026-04-26T09:06:15Z</time></trkpt><trkpt lat="43.19484254025993" lon="12.813318569911267"><ele>897.0</ele><time>2026-04-26T09:06:16Z</time></trkpt><trkpt lat="43.19486943974488" lon="12.813184202144438"><ele>897.0</ele><time>2026-04-26T09:06:17Z</time></trkpt><trkpt lat="43.19487873343718" lon="12.813040821050782"><ele>898.8</ele><time>2026-04-26T09:06:18Z</time></trkpt><trkpt lat="43.1948832441889" lon="12.81291394505972"><ele>900.6</ele><time>2026-04-26T09:06:19Z</time></trkpt><trkpt lat="43.19488645299575" lon="12.812800549014169"><ele>902.3999999999999</ele><time>2026-04-26T09:06:20Z</time></trkpt><trkpt lat="43.19489382351377" lon="12.81266471127714"><ele>904.1999999999999</ele><time>2026-04-26T09:06:21Z</time></trkpt><trkpt lat="43.19490312560941" lon="12.81253020478345"><ele>906.0</ele><time>2026-04-26T09:06:22Z</time></trkpt><trkpt lat="43.19491142414745" lon="12.812410209038955"><ele>906.0</ele><time>2026-04-26T09:06:23Z</time></trkpt><trkpt lat="43.194915420265865" lon="12.8123186156196"><ele>906.0</ele><time>2026-04-26T09:06:24Z</time></trkpt><trkpt lat="43.194918558251786" lon="12.81216454505504"><ele>906.0</ele><time>2026-04-26T09:06:26Z</time></trkpt><trkpt lat="43.19491148111875" lon="12.812002399109605"><ele>906.0</ele><time>2026-04-26T09:06:28Z</time></trkpt><trkpt lat="43.19490384862412" lon="12.81190711755396"><ele>906.0</ele><time>2026-04-26T09:06:29Z</time></trkpt><trkpt lat="43.194888194746845" lon="12.811801977048134"><ele>906.0</ele><time>2026-04-26T09:06:30Z</time></trkpt><trkpt lat="43.19486803246204" lon="12.811691112842583"><ele>905.0</ele><time>2026-04-26T09:06:31Z</time></trkpt><trkpt lat="43.194853577867384" lon="12.811571952857099"><ele>903.9999999999999</ele><time>2026-04-26T09:06:32Z</time></trkpt><trkpt lat="43.194840569897764" lon="12.811446558757432"><ele>902.9999999999999</ele><time>2026-04-26T09:06:33Z</time></trkpt><trkpt lat="43.1948258343175" lon="12.811314206392211"><ele>902.0</ele><time>2026-04-26T09:06:34Z</time></trkpt><trkpt lat="43.194813112450376" lon="12.811173800401164"><ele>901.0</ele><time>2026-04-26T09:06:35Z</time></trkpt><trkpt lat="43.194783995403135" lon="12.811022543395225"><ele>895.8</ele><time>2026-04-26T09:06:36Z</time></trkpt><trkpt lat="43.194759679636114" lon="12.810863528555716"><ele>890.5999999999999</ele><time>2026-04-26T09:06:37Z</time></trkpt><trkpt lat="43.19474617992944" lon="12.810717095506387"><ele>885.4</ele><time>2026-04-26T09:06:38Z</time></trkpt><trkpt lat="43.19473367494943" lon="12.81056994733594"><ele>880.2</ele><time>2026-04-26T09:06:39Z</time></trkpt><trkpt lat="43.194722651254565" lon="12.810425646417537"><ele>875.0</ele><time>2026-04-26T09:06:40Z</time></trkpt><trkpt lat="43.19472744160132" lon="12.810278046537869"><ele>874.6666666666667</ele><time>2026-04-26T09:06:41Z</time></trkpt><trkpt lat="43.19471989592141" lon="12.81013867070708"><ele>874.3333333333334</ele><time>2026-04-26T09:06:42Z</time></trkpt><trkpt lat="43.19469668931877" lon="12.810013726991778"><ele>874.0</ele><time>2026-04-26T09:06:43Z</time></trkpt><trkpt lat="43.19469278037209" lon="12.809891137368101"><ele>873.6666666666667</ele><time>2026-04-26T09:06:44Z</time></trkpt><trkpt lat="43.19467753635458" lon="12.809781709985634"><ele>873.3333333333334</ele><time>2026-04-26T09:06:45Z</time></trkpt><trkpt lat="43.194664858994955" lon="12.80968252602385"><ele>873.0</ele><time>2026-04-26T09:06:46Z</time></trkpt><trkpt lat="43.19465706654698" lon="12.809576710032735"><ele>872.9999999999999</ele><time>2026-04-26T09:06:47Z</time></trkpt><trkpt lat="43.19465299587287" lon="12.809488124155905"><ele>873.0</ele><time>2026-04-26T09:06:48Z</time></trkpt><trkpt lat="43.19463812457889" lon="12.809328976604194"><ele>873.0</ele><time>2026-04-26T09:06:50Z</time></trkpt><trkpt lat="43.19465109117749" lon="12.809243131965834"><ele>873.0</ele><time>2026-04-26T09:06:51Z</time></trkpt><trkpt lat="43.194660037420014" lon="12.809152513926938"><ele>873.0</ele><time>2026-04-26T09:06:52Z</time></trkpt><trkpt lat="43.19466481683867" lon="12.809062560239934"><ele>872.9999999999999</ele><time>2026-04-26T09:06:53Z</time></trkpt><trkpt lat="43.194676264611005" lon="12.80896721383672"><ele>873.0</ele><time>2026-04-26T09:06:54Z</time></trkpt><trkpt lat="43.19470206940192" lon="12.808858755828739"><ele>872.2</ele><time>2026-04-26T09:06:55Z</time></trkpt><trkpt lat="43.194718843104674" lon="12.80873419392614"><ele>871.4</ele><time>2026-04-26T09:06:56Z</time></trkpt><trkpt lat="43.1947255727124" lon="12.808583187108704"><ele>870.6000000000001</ele><time>2026-04-26T09:06:57Z</time></trkpt><trkpt lat="43.19476453126186" lon="12.80844175827992"><ele>869.8000000000001</ele><time>2026-04-26T09:06:58Z</time></trkpt><trkpt lat="43.194786860615984" lon="12.808303158871341"><ele>869.0</ele><time>2026-04-26T09:06:59Z</time></trkpt><trkpt lat="43.19480619065006" lon="12.80818706692685"><ele>869.0000000000001</ele><time>2026-04-26T09:07:00Z</time></trkpt><trkpt lat="43.19482523593323" lon="12.808077795817743"><ele>869.0</ele><time>2026-04-26T09:07:01Z</time></trkpt><trkpt lat="43.194841852708045" lon="12.80798462799081"><ele>869.0</ele><time>2026-04-26T09:07:02Z</time></trkpt><trkpt lat="43.1948603266508" lon="12.807894785433"><ele>869.0</ele><time>2026-04-26T09:07:03Z</time></trkpt><trkpt lat="43.19488645130613" lon="12.807777641203105"><ele>869.0000000000001</ele><time>2026-04-26T09:07:04Z</time></trkpt><trkpt lat="43.19491541883831" lon="12.807655697168425"><ele>869.0</ele><time>2026-04-26T09:07:05Z</time></trkpt><trkpt lat="43.19494237499956" lon="12.807542150118497"><ele>869.0</ele><time>2026-04-26T09:07:06Z</time></trkpt><trkpt lat="43.19496281060238" lon="12.807433094525646"><ele>869.0000000000001</ele><time>2026-04-26T09:07:07Z</time></trkpt><trkpt lat="43.1949758563969" lon="12.807336139769923"><ele>869.0000000000001</ele><time>2026-04-26T09:07:08Z</time></trkpt><trkpt lat="43.19504416777013" lon="12.807267560372095"><ele>869.0</ele><time>2026-04-26T09:07:09Z</time></trkpt><trkpt lat="43.19508605256409" lon="12.807103342034791"><ele>869.0</ele><time>2026-04-26T09:07:10Z</time></trkpt><trkpt lat="43.19519262974704" lon="12.807040088282378"><ele>869.0</ele><time>2026-04-26T09:07:11Z</time></trkpt><trkpt lat="43.19530671516119" lon="12.807010627076998"><ele>869.0000000000001</ele><time>2026-04-26T09:07:12Z</time></trkpt><trkpt lat="43.19542161441594" lon="12.806995352442204"><ele>869.0000000000001</ele><time>2026-04-26T09:07:13Z</time></trkpt><trkpt lat="43.19552503633898" lon="12.806977965639966"><ele>869.0</ele><time>2026-04-26T09:07:14Z</time></trkpt><trkpt lat="43.19560648478415" lon="12.806969102676106"><ele>869.0</ele><time>2026-04-26T09:07:15Z</time></trkpt><trkpt lat="43.195691812731" lon="12.80696908999926"><ele>871.0</ele><time>2026-04-26T09:07:16Z</time></trkpt><trkpt lat="43.19578484585758" lon="12.806966679753057"><ele>873.0000000000001</ele><time>2026-04-26T09:07:17Z</time></trkpt><trkpt lat="43.19587247199762" lon="12.806985922166215"><ele>875.0000000000001</ele><time>2026-04-26T09:07:18Z</time></trkpt><trkpt lat="43.19596920880557" lon="12.806992968172647"><ele>877.0</ele><time>2026-04-26T09:07:19Z</time></trkpt><trkpt lat="43.19607321584945" lon="12.806986610264891"><ele>879.0</ele><time>2026-04-26T09:07:20Z</time></trkpt><trkpt lat="43.1961886013917" lon="12.807012144168342"><ele>879.0</ele><time>2026-04-26T09:07:21Z</time></trkpt><trkpt lat="43.19630014502361" lon="12.807029015106602"><ele>879.0000000000001</ele><time>2026-04-26T09:07:22Z</time></trkpt><trkpt lat="43.19639818495918" lon="12.807035623061802"><ele>879.0000000000001</ele><time>2026-04-26T09:07:23Z</time></trkpt><trkpt lat="43.19647665161529" lon="12.80705008472544"><ele>879.0</ele><time>2026-04-26T09:07:24Z</time></trkpt><trkpt lat="43.1965728051072" lon="12.807059958592946"><ele>879.0</ele><time>2026-04-26T09:07:25Z</time></trkpt><trkpt lat="43.19664507307496" lon="12.807093733503082"><ele>879.8000000000001</ele><time>2026-04-26T09:07:26Z</time></trkpt><trkpt lat="43.196722509264845" lon="12.807105662302583"><ele>880.6000000000001</ele><time>2026-04-26T09:07:27Z</time></trkpt><trkpt lat="43.196851727562326" lon="12.807128470326475"><ele>881.4</ele><time>2026-04-26T09:07:29Z</time></trkpt><trkpt lat="43.19695047660428" lon="12.807252788734933"><ele>882.2</ele><time>2026-04-26T09:07:29.999Z</time></trkpt><trkpt lat="43.19704184170919" lon="12.80722702806758"><ele>883.0</ele><time>2026-04-26T09:07:31Z</time></trkpt><trkpt lat="43.197113325970726" lon="12.807188322272133"><ele>883.0</ele><time>2026-04-26T09:07:31.999Z</time></trkpt><trkpt lat="43.19718756957796" lon="12.807148121676063"><ele>883.0</ele><time>2026-04-26T09:07:32.999Z</time></trkpt><trkpt lat="43.19728987331823" lon="12.807092728588929"><ele>883.0</ele><time>2026-04-26T09:07:33.999Z</time></trkpt><trkpt lat="43.1973894960336" lon="12.807038787160455"><ele>883.0</ele><time>2026-04-26T09:07:34.999Z</time></trkpt><trkpt lat="43.197473326625826" lon="12.806993396485618"><ele>883.0</ele><time>2026-04-26T09:07:35.999Z</time></trkpt><trkpt lat="43.19753033489607" lon="12.806841964152088"><ele>879.6666666666666</ele><time>2026-04-26T09:07:36.999Z</time></trkpt><trkpt lat="43.197614810388764" lon="12.806785513242392"><ele>876.3333333333333</ele><time>2026-04-26T09:07:37.999Z</time></trkpt><trkpt lat="43.197690686445966" lon="12.80674534343425"><ele>873.0</ele><time>2026-04-26T09:07:38.999Z</time></trkpt><trkpt lat="43.19775886776089" lon="12.806708302186616"><ele>869.6666666666667</ele><time>2026-04-26T09:07:39.999Z</time></trkpt><trkpt lat="43.19782285254564" lon="12.806683812493842"><ele>866.3333333333334</ele><time>2026-04-26T09:07:40.999Z</time></trkpt><trkpt lat="43.19789728707825" lon="12.806673654024525"><ele>863.0</ele><time>2026-04-26T09:07:41.999Z</time></trkpt><trkpt lat="43.19796843135871" lon="12.806669913112446"><ele>863.0000000000001</ele><time>2026-04-26T09:07:42.999Z</time></trkpt><trkpt lat="43.19803116120181" lon="12.806648681682924"><ele>863.0</ele><time>2026-04-26T09:07:43.999Z</time></trkpt><trkpt lat="43.198094857680296" lon="12.806614832347217"><ele>863.0</ele><time>2026-04-26T09:07:44.999Z</time></trkpt><trkpt lat="43.19816394249922" lon="12.806549670771124"><ele>863.0</ele><time>2026-04-26T09:07:45.999Z</time></trkpt><trkpt lat="43.198217033818075" lon="12.80646846426374"><ele>863.0000000000001</ele><time>2026-04-26T09:07:46.999Z</time></trkpt><trkpt lat="43.198275410351656" lon="12.80640008073642"><ele>863.0</ele><time>2026-04-26T09:07:47.999Z</time></trkpt><trkpt lat="43.19834505698208" lon="12.80632862941574"><ele>861.8</ele><time>2026-04-26T09:07:48.999Z</time></trkpt><trkpt lat="43.19841598605786" lon="12.806259208644006"><ele>860.5999999999999</ele><time>2026-04-26T09:07:49.999Z</time></trkpt><trkpt lat="43.19849127534367" lon="12.806171839512702"><ele>859.4000000000001</ele><time>2026-04-26T09:07:50.999Z</time></trkpt><trkpt lat="43.198562339570074" lon="12.806074468154115"><ele>858.2</ele><time>2026-04-26T09:07:51.999Z</time></trkpt><trkpt lat="43.19864428558576" lon="12.805977294241346"><ele>857.0</ele><time>2026-04-26T09:07:52.999Z</time></trkpt><trkpt lat="43.1987209774505" lon="12.80586752087653"><ele>857.0</ele><time>2026-04-26T09:07:53.999Z</time></trkpt><trkpt lat="43.19880291174642" lon="12.80575802113243"><ele>857.0</ele><time>2026-04-26T09:07:54.999Z</time></trkpt><trkpt lat="43.19886511896608" lon="12.805639783070148"><ele>857.0</ele><time>2026-04-26T09:07:55.999Z</time></trkpt><trkpt lat="43.198929105634505" lon="12.805524637421847"><ele>857.0</ele><time>2026-04-26T09:07:56.999Z</time></trkpt><trkpt lat="43.19898762644086" lon="12.805412063103596"><ele>857.0</ele><time>2026-04-26T09:07:57.999Z</time></trkpt><trkpt lat="43.19904464706376" lon="12.805307439833165"><ele>858.8</ele><time>2026-04-26T09:07:58.999Z</time></trkpt><trkpt lat="43.19909956719063" lon="12.805210100173426"><ele>860.6</ele><time>2026-04-26T09:07:59.999Z</time></trkpt><trkpt lat="43.199159729700426" lon="12.805107704113896"><ele>862.3999999999999</ele><time>2026-04-26T09:08:00.999Z</time></trkpt><trkpt lat="43.19921982256029" lon="12.804990081652189"><ele>864.1999999999999</ele><time>2026-04-26T09:08:01.999Z</time></trkpt><trkpt lat="43.19928789667438" lon="12.804865859888613"><ele>866.0</ele><time>2026-04-26T09:08:02.999Z</time></trkpt><trkpt lat="43.19935539620467" lon="12.80474046603976"><ele>866.0</ele><time>2026-04-26T09:08:03.999Z</time></trkpt><trkpt lat="43.19941642858199" lon="12.804626444863603"><ele>865.9999999999999</ele><time>2026-04-26T09:08:04.999Z</time></trkpt><trkpt lat="43.19947859759045" lon="12.804526836175306"><ele>865.9999999999999</ele><time>2026-04-26T09:08:05.999Z</time></trkpt><trkpt lat="43.19953297089916" lon="12.804420387172232"><ele>866.0</ele><time>2026-04-26T09:08:06.999Z</time></trkpt><trkpt lat="43.19958750063933" lon="12.804322240402486"><ele>866.0</ele><time>2026-04-26T09:08:07.999Z</time></trkpt><trkpt lat="43.199639534084625" lon="12.804230761199"><ele>867.6666666666667</ele><time>2026-04-26T09:08:08.999Z</time></trkpt><trkpt lat="43.19970237702434" lon="12.80415196363977"><ele>869.3333333333334</ele><time>2026-04-26T09:08:09.999Z</time></trkpt><trkpt lat="43.199759531699755" lon="12.804075509391119"><ele>871.0</ele><time>2026-04-26T09:08:10.999Z</time></trkpt><trkpt lat="43.199817102013654" lon="12.80399847266129"><ele>872.6666666666667</ele><time>2026-04-26T09:08:11.999Z</time></trkpt><trkpt lat="43.19987147504067" lon="12.803922934334803"><ele>874.3333333333334</ele><time>2026-04-26T09:08:12.999Z</time></trkpt><trkpt lat="43.19992805386195" lon="12.803855235272115"><ele>876.0</ele><time>2026-04-26T09:08:13.999Z</time></trkpt><trkpt lat="43.19998490873804" lon="12.803780764776773"><ele>876.0</ele><time>2026-04-26T09:08:14.999Z</time></trkpt><trkpt lat="43.20004332572087" lon="12.803706682289175"><ele>876.0</ele><time>2026-04-26T09:08:15.999Z</time></trkpt><trkpt lat="43.2001011293055" lon="12.803632850036424"><ele>876.0</ele><time>2026-04-26T09:08:16.999Z</time></trkpt><trkpt lat="43.20016332391968" lon="12.803557466769439"><ele>876.0</ele><time>2026-04-26T09:08:17.999Z</time></trkpt><trkpt lat="43.200224750888374" lon="12.803488303951184"><ele>876.0</ele><time>2026-04-26T09:08:18.999Z</time></trkpt><trkpt lat="43.200294079080464" lon="12.80342327377032"><ele>876.0</ele><time>2026-04-26T09:08:19.999Z</time></trkpt><trkpt lat="43.20036178343874" lon="12.803346052520336"><ele>874.8333333333334</ele><time>2026-04-26T09:08:20.999Z</time></trkpt><trkpt lat="43.20043402088771" lon="12.803276168824276"><ele>873.6666666666667</ele><time>2026-04-26T09:08:21.999Z</time></trkpt><trkpt lat="43.20050178295132" lon="12.803195464260364"><ele>872.5</ele><time>2026-04-26T09:08:22.999Z</time></trkpt><trkpt lat="43.200577751855164" lon="12.803137792203888"><ele>871.3333333333334</ele><time>2026-04-26T09:08:23.999Z</time></trkpt><trkpt lat="43.200649892411214" lon="12.803082868870339"><ele>870.1666666666667</ele><time>2026-04-26T09:08:24.999Z</time></trkpt><trkpt lat="43.200719780471005" lon="12.8030318911468"><ele>869.0</ele><time>2026-04-26T09:08:25.999Z</time></trkpt><trkpt lat="43.20078999126909" lon="12.80297683267265"><ele>869.0</ele><time>2026-04-26T09:08:26.999Z</time></trkpt><trkpt lat="43.20086393132177" lon="12.802936354223545"><ele>869.0</ele><time>2026-04-26T09:08:27.999Z</time></trkpt><trkpt lat="43.200931969498214" lon="12.802904449394495"><ele>869.0</ele><time>2026-04-26T09:08:28.999Z</time></trkpt><trkpt lat="43.200995198812684" lon="12.802872008907201"><ele>869.0</ele><time>2026-04-26T09:08:29.999Z</time></trkpt><trkpt lat="43.20106196867246" lon="12.802843006672443"><ele>869.0</ele><time>2026-04-26T09:08:30.999Z</time></trkpt><trkpt lat="43.201129554246556" lon="12.80281486757696"><ele>869.0</ele><time>2026-04-26T09:08:31.999Z</time></trkpt><trkpt lat="43.20119889520841" lon="12.802788827274238"><ele>869.0</ele><time>2026-04-26T09:08:32.999Z</time></trkpt><trkpt lat="43.201268154704955" lon="12.802761282464324"><ele>869.0000000000001</ele><time>2026-04-26T09:08:33.999Z</time></trkpt><trkpt lat="43.20133618684304" lon="12.802729564461185"><ele>869.0</ele><time>2026-04-26T09:08:34.999Z</time></trkpt><trkpt lat="43.20140876014485" lon="12.802711355424181"><ele>869.0</ele><time>2026-04-26T09:08:35.999Z</time></trkpt><trkpt lat="43.20148643987485" lon="12.802703890235334"><ele>869.0</ele><time>2026-04-26T09:08:36.999Z</time></trkpt><trkpt lat="43.20155635203601" lon="12.802692371004593"><ele>869.0000000000001</ele><time>2026-04-26T09:08:37.999Z</time></trkpt><trkpt lat="43.20166287375038" lon="12.802677534915635"><ele>869.0</ele><time>2026-04-26T09:08:39.999Z</time></trkpt><trkpt lat="43.201740951475415" lon="12.802677133290068"><ele>868.7142857142858</ele><time>2026-04-26T09:08:41.999Z</time></trkpt><trkpt lat="43.201842884246474" lon="12.802707670938176"><ele>868.4285714285713</ele><time>2026-04-26T09:08:51.999Z</time></trkpt><trkpt lat="43.20191025787242" lon="12.802679854685763"><ele>868.1428571428571</ele><time>2026-04-26T09:08:54.999Z</time></trkpt><trkpt lat="43.20197721654116" lon="12.802674191126593"><ele>867.8571428571429</ele><time>2026-04-26T09:09:17.999Z</time></trkpt><trkpt lat="43.20205323550287" lon="12.80264937991128"><ele>867.5714285714287</ele><time>2026-04-26T09:09:44.999Z</time></trkpt><trkpt lat="43.202103920062676" lon="12.802597218507408"><ele>867.2857142857142</ele><time>2026-04-26T09:09:46.999Z</time></trkpt><trkpt lat="43.20215580982631" lon="12.802546696492907"><ele>867.0</ele><time>2026-04-26T09:09:51.999Z</time></trkpt><trkpt lat="43.20222767009828" lon="12.802554809477426"><ele>864.5</ele><time>2026-04-26T09:09:56.999Z</time></trkpt><trkpt lat="43.202302139440995" lon="12.802562933523587"><ele>862.0</ele><time>2026-04-26T09:09:59.999Z</time></trkpt><trkpt lat="43.202368480338606" lon="12.802576569951581"><ele>859.5</ele><time>2026-04-26T09:10:01.999Z</time></trkpt><trkpt lat="43.202456271905824" lon="12.80259742559413"><ele>857.0</ele><time>2026-04-26T09:10:04.999Z</time></trkpt><trkpt lat="43.20249733948902" lon="12.802488188906409"><ele>854.5</ele><time>2026-04-26T09:10:08.999Z</time></trkpt><trkpt lat="43.20253792363241" lon="12.802387638698379"><ele>852.0</ele><time>2026-04-26T09:10:11.999Z</time></trkpt><trkpt lat="43.202575618173036" lon="12.802305037024025"><ele>851.1666666666666</ele><time>2026-04-26T09:10:14.999Z</time></trkpt><trkpt lat="43.202635435640445" lon="12.802216435880668"><ele>850.3333333333333</ele><time>2026-04-26T09:10:17.999Z</time></trkpt><trkpt lat="43.202687993934234" lon="12.80216219001144"><ele>849.5</ele><time>2026-04-26T09:10:19.999Z</time></trkpt><trkpt lat="43.202736597523874" lon="12.802104919905142"><ele>848.6666666666666</ele><time>2026-04-26T09:10:22.999Z</time></trkpt><trkpt lat="43.20285519239579" lon="12.802093691180056"><ele>847.8333333333333</ele><time>2026-04-26T09:10:43.999Z</time></trkpt><trkpt lat="43.20291880894959" lon="12.802095672274609"><ele>847.0</ele><time>2026-04-26T09:10:56.999Z</time></trkpt><trkpt lat="43.20290743793684" lon="12.802000432719236"><ele>847.0</ele><time>2026-04-26T09:11:04.001Z</time></trkpt><trkpt lat="43.20289367719277" lon="12.801903170221282"><ele>847.0</ele><time>2026-04-26T09:11:08.001Z</time></trkpt><trkpt lat="43.20286997529539" lon="12.801815094993733"><ele>847.0</ele><time>2026-04-26T09:11:11.001Z</time></trkpt><trkpt lat="43.20286999421306" lon="12.801702515163484"><ele>847.0</ele><time>2026-04-26T09:11:14.001Z</time></trkpt><trkpt lat="43.20287774492088" lon="12.801605818618693"><ele>847.0</ele><time>2026-04-26T09:11:23.001Z</time></trkpt><trkpt lat="43.202932608642115" lon="12.801560864203365"><ele>847.0</ele><time>2026-04-26T09:11:28Z</time></trkpt><trkpt lat="43.20298160830211" lon="12.80149581916686"><ele>847.0</ele><time>2026-04-26T09:11:35Z</time></trkpt><trkpt lat="43.2030916908701" lon="12.80149344642571"><ele>844.4000000000001</ele><time>2026-04-26T09:11:40Z</time></trkpt><trkpt lat="43.203163548706975" lon="12.80148272920241"><ele>841.8000000000001</ele><time>2026-04-26T09:11:44Z</time></trkpt><trkpt lat="43.20330108458025" lon="12.801471720048546"><ele>839.2</ele><time>2026-04-26T09:11:48Z</time></trkpt><trkpt lat="43.2033618943844" lon="12.801422998383392"><ele>836.6</ele><time>2026-04-26T09:11:50Z</time></trkpt><trkpt lat="43.20342404702612" lon="12.801344025929374"><ele>834.0</ele><time>2026-04-26T09:11:52Z</time></trkpt><trkpt lat="43.20349060397387" lon="12.80126476184623"><ele>832.1666666666666</ele><time>2026-04-26T09:11:54Z</time></trkpt><trkpt lat="43.20353744800993" lon="12.801195570666517"><ele>830.3333333333333</ele><time>2026-04-26T09:11:56Z</time></trkpt><trkpt lat="43.20360711750451" lon="12.801128567735313"><ele>828.5</ele><time>2026-04-26T09:12:00Z</time></trkpt><trkpt lat="43.20366811710458" lon="12.801065876469615"><ele>826.6666666666666</ele><time>2026-04-26T09:12:03Z</time></trkpt><trkpt lat="43.20373719527349" lon="12.801001972571077"><ele>824.8333333333333</ele><time>2026-04-26T09:12:06Z</time></trkpt><trkpt lat="43.20379674266977" lon="12.800910520111689"><ele>823.0</ele><time>2026-04-26T09:12:09Z</time></trkpt><trkpt lat="43.20384655561206" lon="12.800856921863156"><ele>821.9999999999999</ele><time>2026-04-26T09:12:11Z</time></trkpt><trkpt lat="43.20389337282626" lon="12.800793062709339"><ele>821.0</ele><time>2026-04-26T09:12:13Z</time></trkpt><trkpt lat="43.20396047943497" lon="12.800726572872628"><ele>820.0</ele><time>2026-04-26T09:12:15Z</time></trkpt><trkpt lat="43.20402134300209" lon="12.800667467859219"><ele>819.0</ele><time>2026-04-26T09:12:17Z</time></trkpt><trkpt lat="43.204064943944104" lon="12.800576685501182"><ele>817.9999999999999</ele><time>2026-04-26T09:12:18.999Z</time></trkpt><trkpt lat="43.20413411491243" lon="12.800504612454208"><ele>817.0</ele><time>2026-04-26T09:12:20.999Z</time></trkpt><trkpt lat="43.20418881388149" lon="12.800430227349546"><ele>812.8333333333333</ele><time>2026-04-26T09:12:22.999Z</time></trkpt><trkpt lat="43.20425446512932" lon="12.800325585008093"><ele>808.6666666666666</ele><time>2026-04-26T09:12:25.999Z</time></trkpt><trkpt lat="43.204271875266066" lon="12.80022512807207"><ele>804.5</ele><time>2026-04-26T09:12:27.999Z</time></trkpt><trkpt lat="43.204310563415795" lon="12.80013910455856"><ele>800.3333333333333</ele><time>2026-04-26T09:12:29.999Z</time></trkpt><trkpt lat="43.2043528376625" lon="12.800012056285784"><ele>796.1666666666666</ele><time>2026-04-26T09:12:31.999Z</time></trkpt><trkpt lat="43.20439125316082" lon="12.799908957384723"><ele>792.0</ele><time>2026-04-26T09:12:33.999Z</time></trkpt><trkpt lat="43.20444364312268" lon="12.799746523204282"><ele>791.3333333333334</ele><time>2026-04-26T09:12:35.999Z</time></trkpt><trkpt lat="43.20446277347454" lon="12.799638722205644"><ele>790.6666666666667</ele><time>2026-04-26T09:12:36.999Z</time></trkpt><trkpt lat="43.20442655291772" lon="12.79949946741359"><ele>790.0</ele><time>2026-04-26T09:12:38.999Z</time></trkpt><trkpt lat="43.20440556772617" lon="12.79938775827567"><ele>789.3333333333334</ele><time>2026-04-26T09:12:40.999Z</time></trkpt><trkpt lat="43.20436472931446" lon="12.799280238287405"><ele>788.6666666666667</ele><time>2026-04-26T09:12:42.999Z</time></trkpt><trkpt lat="43.20434148700608" lon="12.799174055693964"><ele>788.0</ele><time>2026-04-26T09:12:44.999Z</time></trkpt><trkpt lat="43.204336318815606" lon="12.799044074982154"><ele>785.0000000000001</ele><time>2026-04-26T09:12:46.999Z</time></trkpt><trkpt lat="43.20433184160527" lon="12.79895287165401"><ele>782.0</ele><time>2026-04-26T09:12:48.999Z</time></trkpt><trkpt lat="43.20431251099625" lon="12.798862259941147"><ele>779.0</ele><time>2026-04-26T09:12:49.999Z</time></trkpt><trkpt lat="43.2043191637468" lon="12.798774803969808"><ele>776.0</ele><time>2026-04-26T09:12:50.999Z</time></trkpt><trkpt lat="43.204369398225" lon="12.798613863152939"><ele>773.0000000000001</ele><time>2026-04-26T09:12:52.999Z</time></trkpt><trkpt lat="43.20443336613472" lon="12.798508323405144"><ele>770.0</ele><time>2026-04-26T09:12:54.999Z</time></trkpt><trkpt lat="43.20450009021562" lon="12.798421021814415"><ele>765.4</ele><time>2026-04-26T09:12:56.999Z</time></trkpt><trkpt lat="43.204567446370994" lon="12.798335814332335"><ele>760.8</ele><time>2026-04-26T09:12:58.999Z</time></trkpt><trkpt lat="43.20464021249558" lon="12.798208806475804"><ele>756.2</ele><time>2026-04-26T09:13:00.999Z</time></trkpt><trkpt lat="43.204729719535756" lon="12.798090844633343"><ele>751.6</ele><time>2026-04-26T09:13:02.999Z</time></trkpt><trkpt lat="43.20478390673911" lon="12.798027446378702"><ele>747.0</ele><time>2026-04-26T09:13:03.999Z</time></trkpt><trkpt lat="43.20486832977016" lon="12.797947712308861"><ele>746.0</ele><time>2026-04-26T09:13:05.999Z</time></trkpt><trkpt lat="43.20493884900618" lon="12.797890242378582"><ele>745.0</ele><time>2026-04-26T09:13:07.999Z</time></trkpt><trkpt lat="43.205001292302946" lon="12.797842207162693"><ele>744.0</ele><time>2026-04-26T09:13:08.999Z</time></trkpt><trkpt lat="43.20506060889653" lon="12.797786739538315"><ele>743.0</ele><time>2026-04-26T09:13:09.999Z</time></trkpt><trkpt lat="43.20510683383489" lon="12.797724917306061"><ele>742.0</ele><time>2026-04-26T09:13:10.999Z</time></trkpt><trkpt lat="43.20518430586665" lon="12.797632981023671"><ele>741.0</ele><time>2026-04-26T09:13:12.999Z</time></trkpt><trkpt lat="43.20526317227765" lon="12.797541418036355"><ele>736.8</ele><time>2026-04-26T09:13:14.999Z</time></trkpt><trkpt lat="43.20532983721081" lon="12.797470080371149"><ele>732.5999999999999</ele><time>2026-04-26T09:13:16.999Z</time></trkpt><trkpt lat="43.20540652955091" lon="12.797397202431505"><ele>728.4</ele><time>2026-04-26T09:13:18.999Z</time></trkpt><trkpt lat="43.20546845816983" lon="12.79736759847429"><ele>724.2</ele><time>2026-04-26T09:13:19.999Z</time></trkpt><trkpt lat="43.20556825779403" lon="12.797320234889586"><ele>720.0</ele><time>2026-04-26T09:13:21.999Z</time></trkpt><trkpt lat="43.20567468319688" lon="12.797257712341855"><ele>718.6</ele><time>2026-04-26T09:13:23.999Z</time></trkpt><trkpt lat="43.20581698289828" lon="12.797251614048431"><ele>717.2</ele><time>2026-04-26T09:13:25.999Z</time></trkpt><trkpt lat="43.20588919914405" lon="12.79724765192158"><ele>715.8</ele><time>2026-04-26T09:13:26.999Z</time></trkpt><trkpt lat="43.205977614548566" lon="12.79717297517844"><ele>714.4</ele><time>2026-04-26T09:13:28.999Z</time></trkpt><trkpt lat="43.20602211075461" lon="12.797103180639256"><ele>713.0</ele><time>2026-04-26T09:13:33.999Z</time></trkpt><trkpt lat="43.20608433192981" lon="12.797074115345666"><ele>713.0</ele><time>2026-04-26T09:13:45.999Z</time></trkpt><trkpt lat="43.206044662071434" lon="12.796977988543803"><ele>713.0</ele><time>2026-04-26T09:13:49.999Z</time></trkpt><trkpt lat="43.20600962269675" lon="12.7969033642801"><ele>713.0</ele><time>2026-04-26T09:13:52.999Z</time></trkpt><trkpt lat="43.20596435223838" lon="12.796831459001188"><ele>713.0</ele><time>2026-04-26T09:13:56.999Z</time></trkpt><trkpt lat="43.205938596812594" lon="12.796717470617654"><ele>713.0</ele><time>2026-04-26T09:13:58.999Z</time></trkpt><trkpt lat="43.205937042979436" lon="12.796624604684268"><ele>713.0</ele><time>2026-04-26T09:14:03.999Z</time></trkpt><trkpt lat="43.20593966764759" lon="12.796533907948124"><ele>713.0</ele><time>2026-04-26T09:14:09.999Z</time></trkpt><trkpt lat="43.20592956197161" lon="12.796431460295086"><ele>710.7142857142857</ele><time>2026-04-26T09:14:21.999Z</time></trkpt><trkpt lat="43.205923993146655" lon="12.796342450168556"><ele>708.4285714285714</ele><time>2026-04-26T09:14:24.999Z</time></trkpt><trkpt lat="43.20592356264053" lon="12.796249740144821"><ele>706.1428571428571</ele><time>2026-04-26T09:14:27.999Z</time></trkpt><trkpt lat="43.20589190947153" lon="12.796150783797911"><ele>703.8571428571429</ele><time>2026-04-26T09:14:30.999Z</time></trkpt><trkpt lat="43.2058629541758" lon="12.796046026541589"><ele>701.5714285714286</ele><time>2026-04-26T09:14:33.999Z</time></trkpt><trkpt lat="43.20586976253325" lon="12.795959581961753"><ele>699.2857142857143</ele><time>2026-04-26T09:14:37.999Z</time></trkpt><trkpt lat="43.205847812419876" lon="12.795852800409643"><ele>697.0</ele><time>2026-04-26T09:14:40.999Z</time></trkpt><trkpt lat="43.205768347574654" lon="12.795761103780544"><ele>695.3333333333334</ele><time>2026-04-26T09:14:42.999Z</time></trkpt><trkpt lat="43.2057168255209" lon="12.795667038829178"><ele>693.6666666666667</ele><time>2026-04-26T09:14:44.999Z</time></trkpt><trkpt lat="43.20568487706816" lon="12.79558669813097"><ele>692.0</ele><time>2026-04-26T09:14:46.999Z</time></trkpt><trkpt lat="43.20562017314637" lon="12.79546988320335"><ele>690.3333333333334</ele><time>2026-04-26T09:14:48.999Z</time></trkpt><trkpt lat="43.205575988735326" lon="12.79540581651683"><ele>688.6666666666666</ele><time>2026-04-26T09:14:50.999Z</time></trkpt><trkpt lat="43.20552306702706" lon="12.795331543557257"><ele>687.0</ele><time>2026-04-26T09:14:52.999Z</time></trkpt><trkpt lat="43.205453847556576" lon="12.795288974817751"><ele>687.0</ele><time>2026-04-26T09:14:54.999Z</time></trkpt><trkpt lat="43.20535527167265" lon="12.795206907286106"><ele>687.0</ele><time>2026-04-26T09:14:56.999Z</time></trkpt><trkpt lat="43.20528044262636" lon="12.795140011800347"><ele>687.0</ele><time>2026-04-26T09:14:58.999Z</time></trkpt><trkpt lat="43.20521312680847" lon="12.795062546075183"><ele>687.0</ele><time>2026-04-26T09:15:00.999Z</time></trkpt><trkpt lat="43.205143161603715" lon="12.79501487790752"><ele>687.0</ele><time>2026-04-26T09:15:02.999Z</time></trkpt><trkpt lat="43.20506517068571" lon="12.794910798004677"><ele>681.4000000000001</ele><time>2026-04-26T09:15:04.999Z</time></trkpt><trkpt lat="43.20498980289269" lon="12.794789061423977"><ele>675.8000000000001</ele><time>2026-04-26T09:15:06.999Z</time></trkpt><trkpt lat="43.20490684894415" lon="12.79466317004901"><ele>670.2</ele><time>2026-04-26T09:15:08.999Z</time></trkpt><trkpt lat="43.20482406024192" lon="12.794577646705754"><ele>664.6</ele><time>2026-04-26T09:15:10.999Z</time></trkpt><trkpt lat="43.20475291359366" lon="12.794510381894481"><ele>659.0</ele><time>2026-04-26T09:15:12.999Z</time></trkpt><trkpt lat="43.20467703918544" lon="12.794428966993008"><ele>651.6</ele><time>2026-04-26T09:15:14.999Z</time></trkpt><trkpt lat="43.20461896059431" lon="12.794332195222166"><ele>644.2</ele><time>2026-04-26T09:15:17.999Z</time></trkpt><trkpt lat="43.2045536368932" lon="12.794225166702358"><ele>636.8000000000001</ele><time>2026-04-26T09:15:19.999Z</time></trkpt><trkpt lat="43.20458493336501" lon="12.794143895456854"><ele>629.4000000000001</ele><time>2026-04-26T09:15:21.999Z</time></trkpt><trkpt lat="43.20467660759207" lon="12.793996454674172"><ele>622.0</ele><time>2026-04-26T09:15:23.999Z</time></trkpt><trkpt lat="43.204743852788404" lon="12.793938978823949"><ele>622.0</ele><time>2026-04-26T09:15:24.999Z</time></trkpt><trkpt lat="43.204811349376776" lon="12.793889647179498"><ele>622.0</ele><time>2026-04-26T09:15:25.999Z</time></trkpt><trkpt lat="43.204884764249975" lon="12.79384890552145"><ele>622.0</ele><time>2026-04-26T09:15:26.999Z</time></trkpt><trkpt lat="43.20493890327743" lon="12.793694108253844"><ele>622.0</ele><time>2026-04-26T09:15:27.999Z</time></trkpt><trkpt lat="43.20501945540562" lon="12.793676247987985"><ele>622.0</ele><time>2026-04-26T09:15:28.999Z</time></trkpt><trkpt lat="43.20509791848007" lon="12.793640312728517"><ele>622.0</ele><time>2026-04-26T09:15:29.999Z</time></trkpt><trkpt lat="43.20518407602805" lon="12.793635394768401"><ele>622.2</ele><time>2026-04-26T09:15:30.999Z</time></trkpt><trkpt lat="43.20527689761804" lon="12.793606043290596"><ele>622.4000000000001</ele><time>2026-04-26T09:15:31.999Z</time></trkpt><trkpt lat="43.205367606805844" lon="12.793577714183526"><ele>622.5999999999999</ele><time>2026-04-26T09:15:32.999Z</time></trkpt><trkpt lat="43.20545945860697" lon="12.793549028219243"><ele>622.8</ele><time>2026-04-26T09:15:33.999Z</time></trkpt><trkpt lat="43.205564658299345" lon="12.79351617362026"><ele>623.0</ele><time>2026-04-26T09:15:34.999Z</time></trkpt><trkpt lat="43.20567246989909" lon="12.793466332401618"><ele>617.5</ele><time>2026-04-26T09:15:35.999Z</time></trkpt><trkpt lat="43.20577185764649" lon="12.793434605408294"><ele>612.0</ele><time>2026-04-26T09:15:36.999Z</time></trkpt><trkpt lat="43.20586443113492" lon="12.79340239664002"><ele>606.5</ele><time>2026-04-26T09:15:37.999Z</time></trkpt><trkpt lat="43.20594233019711" lon="12.793402355720142"><ele>601.0</ele><time>2026-04-26T09:15:38.999Z</time></trkpt><trkpt lat="43.20602372970509" lon="12.793375460332054"><ele>595.5</ele><time>2026-04-26T09:15:39.999Z</time></trkpt><trkpt lat="43.20609199697943" lon="12.793352007582666"><ele>590.0</ele><time>2026-04-26T09:15:40.999Z</time></trkpt><trkpt lat="43.206158833611006" lon="12.793316151509453"><ele>590.0000000000001</ele><time>2026-04-26T09:15:41.999Z</time></trkpt><trkpt lat="43.20620816591841" lon="12.793252182907954"><ele>590.0</ele><time>2026-04-26T09:15:42.999Z</time></trkpt><trkpt lat="43.206271181964254" lon="12.793205638015824"><ele>590.0</ele><time>2026-04-26T09:15:43.999Z</time></trkpt><trkpt lat="43.20634052034441" lon="12.79321486137835"><ele>590.0</ele><time>2026-04-26T09:15:44.999Z</time></trkpt><trkpt lat="43.20641184528836" lon="12.793195045140953"><ele>590.0</ele><time>2026-04-26T09:15:45.999Z</time></trkpt><trkpt lat="43.20647579216622" lon="12.79317512533268"><ele>590.0000000000001</ele><time>2026-04-26T09:15:46.999Z</time></trkpt><trkpt lat="43.20654224833922" lon="12.793154423868003"><ele>590.0</ele><time>2026-04-26T09:15:47.999Z</time></trkpt><trkpt lat="43.206612384076585" lon="12.793132288301845"><ele>590.5</ele><time>2026-04-26T09:15:48.999Z</time></trkpt><trkpt lat="43.2066888538329" lon="12.79310579519437"><ele>591.0</ele><time>2026-04-26T09:15:49.999Z</time></trkpt><trkpt lat="43.20677542753482" lon="12.793075801566019"><ele>591.5</ele><time>2026-04-26T09:15:50.999Z</time></trkpt><trkpt lat="43.206864706057345" lon="12.793043692348322"><ele>592.0</ele><time>2026-04-26T09:15:51.999Z</time></trkpt><trkpt lat="43.206960911441506" lon="12.792988246459826"><ele>592.5</ele><time>2026-04-26T09:15:52.999Z</time></trkpt><trkpt lat="43.20704128972316" lon="12.792978628647077"><ele>593.0</ele><time>2026-04-26T09:15:53.999Z</time></trkpt><trkpt lat="43.20710362254793" lon="12.792954634450055"><ele>593.0</ele><time>2026-04-26T09:15:54.999Z</time></trkpt><trkpt lat="43.207186879321114" lon="12.792898278464047"><ele>593.0</ele><time>2026-04-26T09:15:56.999Z</time></trkpt><trkpt lat="43.2072664855157" lon="12.792907437314591"><ele>593.0</ele><time>2026-04-26T09:15:58.999Z</time></trkpt><trkpt lat="43.207347118885444" lon="12.792937804977749"><ele>593.0</ele><time>2026-04-26T09:16:00.999Z</time></trkpt><trkpt lat="43.20744700850082" lon="12.793019364316573"><ele>593.0</ele><time>2026-04-26T09:16:02.999Z</time></trkpt><trkpt lat="43.20750696425104" lon="12.79306609558868"><ele>593.0</ele><time>2026-04-26T09:16:03.999Z</time></trkpt><trkpt lat="43.20756596799767" lon="12.793123624545318"><ele>592.9999999999999</ele><time>2026-04-26T09:16:04.999Z</time></trkpt><trkpt lat="43.207620423534514" lon="12.793176387058185"><ele>593.0</ele><time>2026-04-26T09:16:05.999Z</time></trkpt><trkpt lat="43.20767768498362" lon="12.793228260826876"><ele>593.0</ele><time>2026-04-26T09:16:06.999Z</time></trkpt><trkpt lat="43.207737173746175" lon="12.793278910002135"><ele>593.0</ele><time>2026-04-26T09:16:07.999Z</time></trkpt><trkpt lat="43.207789140082824" lon="12.793338823402069"><ele>593.0</ele><time>2026-04-26T09:16:08.999Z</time></trkpt><trkpt lat="43.207832665291356" lon="12.793412153808552"><ele>592.9999999999999</ele><time>2026-04-26T09:16:09.999Z</time></trkpt><trkpt lat="43.207866372539655" lon="12.793488599289967"><ele>593.0</ele><time>2026-04-26T09:16:10.999Z</time></trkpt><trkpt lat="43.207895665843346" lon="12.793624400863202"><ele>593.0</ele><time>2026-04-26T09:16:12.999Z</time></trkpt><trkpt lat="43.20792194418702" lon="12.793733697524788"><ele>593.0</ele><time>2026-04-26T09:16:14.999Z</time></trkpt><trkpt lat="43.20793809218445" lon="12.793820339750622"><ele>593.0</ele><time>2026-04-26T09:16:17.999Z</time></trkpt><trkpt lat="43.20800878664467" lon="12.793889968590442"><ele>593.0</ele><time>2026-04-26T09:16:31.999Z</time></trkpt><trkpt lat="43.20807440281477" lon="12.793951077592457"><ele>593.0</ele><time>2026-04-26T09:17:06.999Z</time></trkpt><trkpt lat="43.20812821095818" lon="12.793996758946747"><ele>593.0</ele><time>2026-04-26T09:17:08.999Z</time></trkpt><trkpt lat="43.20175419823526" lon="12.808413089688429"><ele>734.6666666666666</ele><time>2026-04-26T09:19:23.999Z</time></trkpt><trkpt lat="43.20175285374721" lon="12.808032524918668"><ele>876.3333333333333</ele><time>2026-04-26T09:19:31.001Z</time></trkpt><trkpt lat="43.20166231010711" lon="12.808025180457934"><ele>1018.0</ele><time>2026-04-26T09:19:34.001Z</time></trkpt><trkpt lat="43.20176470449263" lon="12.807775796696507"><ele>996.0</ele><time>2026-04-26T09:19:35.001Z</time></trkpt><trkpt lat="43.203207619143825" lon="12.806868239307631"><ele>987.0</ele><time>2026-04-26T09:20:24Z</time></trkpt><trkpt lat="43.203284479022834" lon="12.806800309037106"><ele>978.0</ele><time>2026-04-26T09:20:25Z</time></trkpt><trkpt lat="43.20338654849561" lon="12.806734131065074"><ele>969.0</ele><time>2026-04-26T09:20:26Z</time></trkpt><trkpt lat="43.20359545507974" lon="12.806516714962079"><ele>969.0</ele><time>2026-04-26T09:20:30Z</time></trkpt><trkpt lat="43.203664484502646" lon="12.806414091584738"><ele>969.0000000000001</ele><time>2026-04-26T09:20:31Z</time></trkpt><trkpt lat="43.2037359667906" lon="12.80630106287678"><ele>969.0000000000001</ele><time>2026-04-26T09:20:32Z</time></trkpt><trkpt lat="43.2038070121322" lon="12.80617887538663"><ele>969.0</ele><time>2026-04-26T09:20:33Z</time></trkpt><trkpt lat="43.20384385573977" lon="12.80603177571612"><ele>969.0</ele><time>2026-04-26T09:20:34Z</time></trkpt><trkpt lat="43.20388998660371" lon="12.80595278557743"><ele>964.2</ele><time>2026-04-26T09:20:37Z</time></trkpt><trkpt lat="43.203949068311736" lon="12.805876300088922"><ele>959.4000000000001</ele><time>2026-04-26T09:20:39Z</time></trkpt><trkpt lat="43.20404836663475" lon="12.805808947892341"><ele>954.6</ele><time>2026-04-26T09:20:41Z</time></trkpt><trkpt lat="43.204133038271166" lon="12.805690930832187"><ele>949.8</ele><time>2026-04-26T09:20:42Z</time></trkpt><trkpt lat="43.20421168851231" lon="12.805626660080685"><ele>945.0</ele><time>2026-04-26T09:20:44Z</time></trkpt><trkpt lat="43.20429444693124" lon="12.805594244743494"><ele>943.3333333333333</ele><time>2026-04-26T09:20:46Z</time></trkpt><trkpt lat="43.20447799477133" lon="12.805384758152991"><ele>941.6666666666666</ele><time>2026-04-26T09:20:47Z</time></trkpt><trkpt lat="43.20464710546727" lon="12.805288281245176"><ele>940.0</ele><time>2026-04-26T09:20:50Z</time></trkpt><trkpt lat="43.20473513884458" lon="12.805209836322101"><ele>933.4</ele><time>2026-04-26T09:20:51Z</time></trkpt><trkpt lat="43.204813973794906" lon="12.805159815678202"><ele>926.8</ele><time>2026-04-26T09:20:52Z</time></trkpt><trkpt lat="43.20489165125642" lon="12.805116325229303"><ele>920.2</ele><time>2026-04-26T09:20:53Z</time></trkpt><trkpt lat="43.2049782501572" lon="12.80500377595592"><ele>913.6</ele><time>2026-04-26T09:20:55Z</time></trkpt><trkpt lat="43.20504125784122" lon="12.80494756796801"><ele>907.0</ele><time>2026-04-26T09:20:56Z</time></trkpt><trkpt lat="43.20512169569669" lon="12.804908755414253"><ele>904.0</ele><time>2026-04-26T09:20:57Z</time></trkpt><trkpt lat="43.20519645379506" lon="12.804864514030314"><ele>901.0</ele><time>2026-04-26T09:20:58Z</time></trkpt><trkpt lat="43.20527084751771" lon="12.804813732023925"><ele>898.0</ele><time>2026-04-26T09:20:59Z</time></trkpt><trkpt lat="43.205417734688076" lon="12.804660093101498"><ele>895.0</ele><time>2026-04-26T09:21:01Z</time></trkpt><trkpt lat="43.208737027266906" lon="12.7987960693603"><ele>841.0</ele><time>2026-04-26T09:21:31Z</time></trkpt><trkpt lat="43.208806964207085" lon="12.798751054870547"><ele>787.0</ele><time>2026-04-26T09:21:32Z</time></trkpt><trkpt lat="43.20887479499354" lon="12.798717213830155"><ele>733.0</ele><time>2026-04-26T09:21:33Z</time></trkpt><trkpt lat="43.20894315250764" lon="12.798677883589349"><ele>679.0</ele><time>2026-04-26T09:21:34Z</time></trkpt><trkpt lat="43.2131275517678" lon="12.795281055765743"><ele>678.4000000000001</ele><time>2026-04-26T09:21:35Z</time></trkpt><trkpt lat="43.213201990099904" lon="12.795361957043749"><ele>677.8</ele><time>2026-04-26T09:21:36Z</time></trkpt><trkpt lat="43.21326930509774" lon="12.795364417185768"><ele>677.2</ele><time>2026-04-26T09:21:37Z</time></trkpt><trkpt lat="43.21335122273278" lon="12.795430602405547"><ele>676.5999999999999</ele><time>2026-04-26T09:21:41Z</time></trkpt><trkpt lat="43.21342294132441" lon="12.79549270679871"><ele>676.0</ele><time>2026-04-26T09:21:44Z</time></trkpt><trkpt lat="43.21354816267146" lon="12.795535103098471"><ele>676.0</ele><time>2026-04-26T09:21:48Z</time></trkpt><trkpt lat="43.21362894343618" lon="12.795605828922024"><ele>676.0</ele><time>2026-04-26T09:21:51Z</time></trkpt><trkpt lat="43.21367584696371" lon="12.795667925520432"><ele>676.0</ele><time>2026-04-26T09:21:55Z</time></trkpt><trkpt lat="43.21368806805683" lon="12.795756126409996"><ele>676.0</ele><time>2026-04-26T09:21:57Z</time></trkpt><trkpt lat="43.213698822463414" lon="12.795855793241794"><ele>676.0</ele><time>2026-04-26T09:21:59Z</time></trkpt><trkpt lat="43.213746944946564" lon="12.795948611792923"><ele>676.0</ele><time>2026-04-26T09:22:01Z</time></trkpt><trkpt lat="43.213783653337885" lon="12.79609765987008"><ele>680.1666666666667</ele><time>2026-04-26T09:22:03Z</time></trkpt><trkpt lat="43.21382859796275" lon="12.796225860183405"><ele>684.3333333333334</ele><time>2026-04-26T09:22:05Z</time></trkpt><trkpt lat="43.213870734402" lon="12.796294324645785"><ele>688.5</ele><time>2026-04-26T09:22:06Z</time></trkpt><trkpt lat="43.213916320194684" lon="12.79636203982011"><ele>692.6666666666666</ele><time>2026-04-26T09:22:07Z</time></trkpt><trkpt lat="43.2139936371446" lon="12.796467808786113"><ele>696.8333333333333</ele><time>2026-04-26T09:22:09Z</time></trkpt><trkpt lat="43.21404580931056" lon="12.796574579235736"><ele>701.0</ele><time>2026-04-26T09:22:11Z</time></trkpt><trkpt lat="43.21410619692818" lon="12.796641222611994"><ele>701.4</ele><time>2026-04-26T09:22:14Z</time></trkpt><trkpt lat="43.21417228712504" lon="12.796693371576177"><ele>701.8</ele><time>2026-04-26T09:22:16Z</time></trkpt><trkpt lat="43.214253744397546" lon="12.796778657410025"><ele>702.1999999999999</ele><time>2026-04-26T09:22:18Z</time></trkpt><trkpt lat="43.21433055807468" lon="12.796831522283023"><ele>702.5999999999999</ele><time>2026-04-26T09:22:20Z</time></trkpt><trkpt lat="43.214403874117835" lon="12.7969028384808"><ele>703.0</ele><time>2026-04-26T09:22:22Z</time></trkpt><trkpt lat="43.21448788525762" lon="12.796995362340539"><ele>707.4</ele><time>2026-04-26T09:22:24Z</time></trkpt><trkpt lat="43.21458305212688" lon="12.797113055910733"><ele>711.8</ele><time>2026-04-26T09:22:26Z</time></trkpt><trkpt lat="43.214674607146556" lon="12.797229212509718"><ele>716.2</ele><time>2026-04-26T09:22:28Z</time></trkpt><trkpt lat="43.21474564145726" lon="12.797298811555876"><ele>720.6</ele><time>2026-04-26T09:22:30Z</time></trkpt><trkpt lat="43.21481433846532" lon="12.797361285324582"><ele>725.0</ele><time>2026-04-26T09:22:32Z</time></trkpt><trkpt lat="43.21488039233834" lon="12.79742421342129"><ele>725.6666666666666</ele><time>2026-04-26T09:22:35Z</time></trkpt><trkpt lat="43.21497080758775" lon="12.797462239025537"><ele>726.3333333333333</ele><time>2026-04-26T09:22:40Z</time></trkpt><trkpt lat="43.21509154401845" lon="12.797446736454523"><ele>727.0</ele><time>2026-04-26T09:22:42Z</time></trkpt><trkpt lat="43.2151569073239" lon="12.797442803989982"><ele>727.6666666666666</ele><time>2026-04-26T09:22:43Z</time></trkpt><trkpt lat="43.215230593892855" lon="12.797442357894312"><ele>728.3333333333334</ele><time>2026-04-26T09:22:44Z</time></trkpt><trkpt lat="43.215302449420946" lon="12.797438099787298"><ele>729.0</ele><time>2026-04-26T09:22:45Z</time></trkpt><trkpt lat="43.21537465311391" lon="12.797427765525523"><ele>729.0</ele><time>2026-04-26T09:22:46Z</time></trkpt><trkpt lat="43.215451025842434" lon="12.79741915607521"><ele>729.0</ele><time>2026-04-26T09:22:47Z</time></trkpt><trkpt lat="43.21559137064217" lon="12.797414130382593"><ele>729.0</ele><time>2026-04-26T09:22:49Z</time></trkpt><trkpt lat="43.215681677979674" lon="12.797395234338603"><ele>729.0</ele><time>2026-04-26T09:22:50Z</time></trkpt><trkpt lat="43.21576270253998" lon="12.797369462505394"><ele>729.0</ele><time>2026-04-26T09:22:51Z</time></trkpt><trkpt lat="43.21585348266426" lon="12.797354803993409"><ele>728.6</ele><time>2026-04-26T09:22:52Z</time></trkpt><trkpt lat="43.215964229741054" lon="12.797340540307715"><ele>728.2</ele><time>2026-04-26T09:22:53Z</time></trkpt><trkpt lat="43.2160709943865" lon="12.79733621329448"><ele>727.8000000000001</ele><time>2026-04-26T09:22:54Z</time></trkpt><trkpt lat="43.216165202324085" lon="12.79733411181753"><ele>727.4000000000001</ele><time>2026-04-26T09:22:55Z</time></trkpt><trkpt lat="43.21623325677846" lon="12.797322470865662"><ele>727.0</ele><time>2026-04-26T09:22:56Z</time></trkpt><trkpt lat="43.216324874905894" lon="12.797289185511604"><ele>727.5</ele><time>2026-04-26T09:22:58Z</time></trkpt><trkpt lat="43.21648785415527" lon="12.797314469156715"><ele>728.0</ele><time>2026-04-26T09:23:01Z</time></trkpt><trkpt lat="43.21660300689508" lon="12.79735919741137"><ele>728.5</ele><time>2026-04-26T09:23:03Z</time></trkpt><trkpt lat="43.21670411040337" lon="12.797322047414049"><ele>729.0</ele><time>2026-04-26T09:23:05Z</time></trkpt><trkpt lat="43.216773728591555" lon="12.797271810500963"><ele>729.0</ele><time>2026-04-26T09:23:06Z</time></trkpt><trkpt lat="43.216854588960906" lon="12.797212155480228"><ele>729.0</ele><time>2026-04-26T09:23:07Z</time></trkpt><trkpt lat="43.216927801029115" lon="12.797146428266922"><ele>729.0</ele><time>2026-04-26T09:23:08Z</time></trkpt><trkpt lat="43.21700332934854" lon="12.797081595288763"><ele>729.0</ele><time>2026-04-26T09:23:09Z</time></trkpt><trkpt lat="43.21706833847143" lon="12.797001617269256"><ele>729.0</ele><time>2026-04-26T09:23:10Z</time></trkpt><trkpt lat="43.21714149694661" lon="12.7969414734058"><ele>729.0</ele><time>2026-04-26T09:23:11Z</time></trkpt><trkpt lat="43.21720790627245" lon="12.796883254788305"><ele>727.6666666666666</ele><time>2026-04-26T09:23:12Z</time></trkpt><trkpt lat="43.21726240800832" lon="12.79683278223666"><ele>726.3333333333334</ele><time>2026-04-26T09:23:13Z</time></trkpt><trkpt lat="43.21732804007017" lon="12.79677258370183"><ele>725.0</ele><time>2026-04-26T09:23:14Z</time></trkpt><trkpt lat="43.21739221436979" lon="12.796692185868585"><ele>723.6666666666667</ele><time>2026-04-26T09:23:15Z</time></trkpt><trkpt lat="43.217446238727995" lon="12.796605148898623"><ele>722.3333333333334</ele><time>2026-04-26T09:23:16Z</time></trkpt><trkpt lat="43.217488569422976" lon="12.796518975642659"><ele>721.0</ele><time>2026-04-26T09:23:17Z</time></trkpt><trkpt lat="43.217528395869664" lon="12.796428652264254"><ele>721.0</ele><time>2026-04-26T09:23:18Z</time></trkpt><trkpt lat="43.217570763060294" lon="12.796350844764072"><ele>721.0</ele><time>2026-04-26T09:23:19Z</time></trkpt><trkpt lat="43.217626629344146" lon="12.796278412287228"><ele>721.0</ele><time>2026-04-26T09:23:20Z</time></trkpt><trkpt lat="43.21769672879738" lon="12.7962064749101"><ele>721.0</ele><time>2026-04-26T09:23:21Z</time></trkpt><trkpt lat="43.21778097194817" lon="12.796155874890768"><ele>721.0</ele><time>2026-04-26T09:23:22Z</time></trkpt><trkpt lat="43.21784776280943" lon="12.796102335091915"><ele>721.0</ele><time>2026-04-26T09:23:23Z</time></trkpt><trkpt lat="43.21792168489605" lon="12.796042804808918"><ele>721.0</ele><time>2026-04-26T09:23:24Z</time></trkpt><trkpt lat="43.21800161888518" lon="12.796011206475253"><ele>721.0</ele><time>2026-04-26T09:23:25Z</time></trkpt><trkpt lat="43.21808589736577" lon="12.795968385005478"><ele>721.0</ele><time>2026-04-26T09:23:26Z</time></trkpt><trkpt lat="43.218175684133605" lon="12.795954147569898"><ele>721.0</ele><time>2026-04-26T09:23:27Z</time></trkpt><trkpt lat="43.218270644872625" lon="12.795943688469048"><ele>721.0</ele><time>2026-04-26T09:23:28Z</time></trkpt><trkpt lat="43.21836649429089" lon="12.795928884859608"><ele>721.0</ele><time>2026-04-26T09:23:29Z</time></trkpt><trkpt lat="43.218457610437525" lon="12.795921182055025"><ele>721.0</ele><time>2026-04-26T09:23:30Z</time></trkpt><trkpt lat="43.21853698469107" lon="12.7959100547878"><ele>721.0</ele><time>2026-04-26T09:23:31Z</time></trkpt><trkpt lat="43.21861234105364" lon="12.795897232517914"><ele>721.0</ele><time>2026-04-26T09:23:32Z</time></trkpt><trkpt lat="43.21868549987872" lon="12.79587599275195"><ele>721.0</ele><time>2026-04-26T09:23:33Z</time></trkpt><trkpt lat="43.21876796748565" lon="12.795859197956917"><ele>721.0</ele><time>2026-04-26T09:23:34Z</time></trkpt><trkpt lat="43.21886127060674" lon="12.795847060380755"><ele>721.0</ele><time>2026-04-26T09:23:35Z</time></trkpt><trkpt lat="43.218958136855406" lon="12.795838653036421"><ele>721.0</ele><time>2026-04-26T09:23:36Z</time></trkpt><trkpt lat="43.21904219138988" lon="12.795827893046766"><ele>721.0</ele><time>2026-04-26T09:23:37Z</time></trkpt><trkpt lat="43.21912850096342" lon="12.795815635066463"><ele>721.0</ele><time>2026-04-26T09:23:38Z</time></trkpt><trkpt lat="43.21923550148999" lon="12.795799839704666"><ele>721.0</ele><time>2026-04-26T09:23:38.999Z</time></trkpt><trkpt lat="43.219363250957784" lon="12.795783911213766"><ele>719.8</ele><time>2026-04-26T09:23:39.999Z</time></trkpt><trkpt lat="43.219488771430356" lon="12.795765814254425"><ele>718.5999999999999</ele><time>2026-04-26T09:23:40.999Z</time></trkpt><trkpt lat="43.219591842574225" lon="12.795770853072534"><ele>717.4</ele><time>2026-04-26T09:23:41.999Z</time></trkpt><trkpt lat="43.21969264419965" lon="12.7957626528179"><ele>716.2</ele><time>2026-04-26T09:23:42.999Z</time></trkpt><trkpt lat="43.21980206679807" lon="12.795772284885592"><ele>715.0</ele><time>2026-04-26T09:23:43.998Z</time></trkpt><trkpt lat="43.21990714448459" lon="12.795776022439567"><ele>714.0</ele><time>2026-04-26T09:23:44.998Z</time></trkpt><trkpt lat="43.220005038643436" lon="12.795776595652661"><ele>713.0</ele><time>2026-04-26T09:23:45.998Z</time></trkpt><trkpt lat="43.22009232937039" lon="12.795780102632053"><ele>712.0</ele><time>2026-04-26T09:23:46.998Z</time></trkpt><trkpt lat="43.220175367016694" lon="12.795826442909384"><ele>711.0</ele><time>2026-04-26T09:23:47.998Z</time></trkpt><trkpt lat="43.22024939298908" lon="12.79588455597731"><ele>710.0</ele><time>2026-04-26T09:23:48.998Z</time></trkpt><trkpt lat="43.22035277569406" lon="12.79589966180359"><ele>710.0</ele><time>2026-04-26T09:23:50.998Z</time></trkpt><trkpt lat="43.220494304173535" lon="12.7958411298045"><ele>710.0</ele><time>2026-04-26T09:23:52.998Z</time></trkpt><trkpt lat="43.220571233996914" lon="12.795815352626256"><ele>710.0</ele><time>2026-04-26T09:23:53.998Z</time></trkpt><trkpt lat="43.22063334447191" lon="12.795793966503828"><ele>710.0</ele><time>2026-04-26T09:23:54.998Z</time></trkpt><trkpt lat="43.220724345187534" lon="12.795788697428566"><ele>710.0</ele><time>2026-04-26T09:23:57.998Z</time></trkpt><trkpt lat="43.22084925984495" lon="12.795762051459478"><ele>710.0</ele><time>2026-04-26T09:24:06.998Z</time></trkpt><trkpt lat="43.220918996433205" lon="12.795678807298575"><ele>710.0</ele><time>2026-04-26T09:24:09.998Z</time></trkpt><trkpt lat="43.22100427654327" lon="12.79555817768399"><ele>710.0</ele><time>2026-04-26T09:24:11.998Z</time></trkpt><trkpt lat="43.221048991790724" lon="12.7954868683149"><ele>710.0</ele><time>2026-04-26T09:24:12.998Z</time></trkpt><trkpt lat="43.22110582241405" lon="12.79541634376274"><ele>710.0</ele><time>2026-04-26T09:24:13.998Z</time></trkpt><trkpt lat="43.221162897890515" lon="12.795352877420983"><ele>710.0</ele><time>2026-04-26T09:24:14.998Z</time></trkpt><trkpt lat="43.22121629085434" lon="12.795287317889958"><ele>710.0</ele><time>2026-04-26T09:24:15.998Z</time></trkpt><trkpt lat="43.22127852665681" lon="12.79520700519453"><ele>710.0</ele><time>2026-04-26T09:24:16.998Z</time></trkpt><trkpt lat="43.22134277775531" lon="12.795131817032251"><ele>710.0</ele><time>2026-04-26T09:24:17.998Z</time></trkpt><trkpt lat="43.22140879513452" lon="12.795079170801245"><ele>710.0</ele><time>2026-04-26T09:24:18.998Z</time></trkpt><trkpt lat="43.221491542411506" lon="12.795021700994004"><ele>710.0</ele><time>2026-04-26T09:24:19.998Z</time></trkpt><trkpt lat="43.22155977392173" lon="12.794945070184058"><ele>710.0</ele><time>2026-04-26T09:24:20.998Z</time></trkpt><trkpt lat="43.221620811680275" lon="12.794875110338605"><ele>707.0</ele><time>2026-04-26T09:24:21.998Z</time></trkpt><trkpt lat="43.221689991186146" lon="12.794815214708446"><ele>704.0</ele><time>2026-04-26T09:24:22.998Z</time></trkpt><trkpt lat="43.2217784353595" lon="12.794744305126887"><ele>701.0</ele><time>2026-04-26T09:24:23.998Z</time></trkpt><trkpt lat="43.22185072372272" lon="12.794677204384163"><ele>698.0</ele><time>2026-04-26T09:24:24.998Z</time></trkpt><trkpt lat="43.22193616769758" lon="12.79463436707216"><ele>695.0</ele><time>2026-04-26T09:24:25.998Z</time></trkpt><trkpt lat="43.22201465524592" lon="12.794571614362592"><ele>695.0</ele><time>2026-04-26T09:24:26.998Z</time></trkpt><trkpt lat="43.222103111704826" lon="12.794496685204447"><ele>695.0</ele><time>2026-04-26T09:24:27.998Z</time></trkpt><trkpt lat="43.22218809363381" lon="12.794427038922692"><ele>695.0</ele><time>2026-04-26T09:24:28.998Z</time></trkpt><trkpt lat="43.222272023309486" lon="12.794372575149756"><ele>695.0</ele><time>2026-04-26T09:24:29.998Z</time></trkpt><trkpt lat="43.222350448177465" lon="12.794312020282224"><ele>695.0</ele><time>2026-04-26T09:24:30.998Z</time></trkpt><trkpt lat="43.222435221218014" lon="12.794262756685278"><ele>690.8</ele><time>2026-04-26T09:24:31.998Z</time></trkpt><trkpt lat="43.22252181061132" lon="12.794200804282493"><ele>686.6</ele><time>2026-04-26T09:24:32.998Z</time></trkpt><trkpt lat="43.222610955131046" lon="12.794145871897175"><ele>682.4000000000001</ele><time>2026-04-26T09:24:33.998Z</time></trkpt><trkpt lat="43.22270469608866" lon="12.794104563799959"><ele>678.2</ele><time>2026-04-26T09:24:34.998Z</time></trkpt><trkpt lat="43.22280956229835" lon="12.79406726505103"><ele>674.0</ele><time>2026-04-26T09:24:35.998Z</time></trkpt><trkpt lat="43.222915577615794" lon="12.794030043252356"><ele>674.0</ele><time>2026-04-26T09:24:36.998Z</time></trkpt><trkpt lat="43.22302505022001" lon="12.793982432419797"><ele>674.0</ele><time>2026-04-26T09:24:37.998Z</time></trkpt><trkpt lat="43.223136238884464" lon="12.79392278419695"><ele>674.0</ele><time>2026-04-26T09:24:38.998Z</time></trkpt><trkpt lat="43.223238496412876" lon="12.793863628239132"><ele>674.0</ele><time>2026-04-26T09:24:39.998Z</time></trkpt><trkpt lat="43.223334840631" lon="12.793794898817513"><ele>673.6</ele><time>2026-04-26T09:24:40.998Z</time></trkpt><trkpt lat="43.22342326883985" lon="12.793726499506027"><ele>673.2</ele><time>2026-04-26T09:24:41.998Z</time></trkpt><trkpt lat="43.22351354394907" lon="12.793635841410504"><ele>672.8000000000001</ele><time>2026-04-26T09:24:42.998Z</time></trkpt><trkpt lat="43.22360793886445" lon="12.793565681440102"><ele>672.4000000000001</ele><time>2026-04-26T09:24:43.998Z</time></trkpt><trkpt lat="43.223702817223696" lon="12.793503090257785"><ele>672.0</ele><time>2026-04-26T09:24:44.998Z</time></trkpt><trkpt lat="43.223788687264005" lon="12.793421961563212"><ele>668.8</ele><time>2026-04-26T09:24:45.998Z</time></trkpt><trkpt lat="43.2238696035823" lon="12.793332510124188"><ele>665.6</ele><time>2026-04-26T09:24:46.998Z</time></trkpt><trkpt lat="43.22394725589335" lon="12.79323695328361"><ele>662.4</ele><time>2026-04-26T09:24:47.998Z</time></trkpt><trkpt lat="43.22402692110237" lon="12.79314208892949"><ele>659.1999999999999</ele><time>2026-04-26T09:24:48.998Z</time></trkpt><trkpt lat="43.22410686895592" lon="12.793028024607846"><ele>656.0</ele><time>2026-04-26T09:24:49.998Z</time></trkpt><trkpt lat="43.22425443713302" lon="12.793028982024284"><ele>656.0</ele><time>2026-04-26T09:24:50.998Z</time></trkpt><trkpt lat="43.22434930072344" lon="12.79293184917552"><ele>656.0</ele><time>2026-04-26T09:24:51.998Z</time></trkpt><trkpt lat="43.224437640756435" lon="12.792835393782557"><ele>656.0</ele><time>2026-04-26T09:24:52.998Z</time></trkpt><trkpt lat="43.224522268177054" lon="12.79273930874133"><ele>656.0</ele><time>2026-04-26T09:24:53.998Z</time></trkpt><trkpt lat="43.22460032398207" lon="12.79264353408314"><ele>656.0</ele><time>2026-04-26T09:24:54.998Z</time></trkpt><trkpt lat="43.22467687608062" lon="12.792551315471503"><ele>654.5999999999999</ele><time>2026-04-26T09:24:55.998Z</time></trkpt><trkpt lat="43.224743929128685" lon="12.792453083680737"><ele>653.2</ele><time>2026-04-26T09:24:56.998Z</time></trkpt><trkpt lat="43.22482042465588" lon="12.792386266195233"><ele>651.8</ele><time>2026-04-26T09:24:57.998Z</time></trkpt><trkpt lat="43.224897830792386" lon="12.792325449126512"><ele>650.4000000000001</ele><time>2026-04-26T09:24:58.998Z</time></trkpt><trkpt lat="43.224977764047345" lon="12.7922695391771"><ele>649.0</ele><time>2026-04-26T09:24:59.998Z</time></trkpt><trkpt lat="43.22506852414977" lon="12.79226566062639"><ele>649.0</ele><time>2026-04-26T09:25:00.998Z</time></trkpt><trkpt lat="43.2251559697374" lon="12.792217831737357"><ele>649.0</ele><time>2026-04-26T09:25:01.998Z</time></trkpt><trkpt lat="43.2252388904571" lon="12.792159483510039"><ele>649.0</ele><time>2026-04-26T09:25:02.998Z</time></trkpt><trkpt lat="43.22532305957604" lon="12.792097935092709"><ele>649.0</ele><time>2026-04-26T09:25:03.998Z</time></trkpt><trkpt lat="43.22540179686166" lon="12.792033100799422"><ele>649.0</ele><time>2026-04-26T09:25:04.998Z</time></trkpt><trkpt lat="43.22548094494854" lon="12.791971272918284"><ele>649.0</ele><time>2026-04-26T09:25:05.998Z</time></trkpt><trkpt lat="43.22556707511962" lon="12.791917081911004"><ele>649.0</ele><time>2026-04-26T09:25:06.998Z</time></trkpt><trkpt lat="43.22565495245702" lon="12.791865876947114"><ele>649.0</ele><time>2026-04-26T09:25:07.998Z</time></trkpt><trkpt lat="43.225728420261" lon="12.791800838003107"><ele>649.0</ele><time>2026-04-26T09:25:08.998Z</time></trkpt><trkpt lat="43.22580746948174" lon="12.791771048320214"><ele>649.0</ele><time>2026-04-26T09:25:09.998Z</time></trkpt><trkpt lat="43.225872920424514" lon="12.791717190335405"><ele>649.0</ele><time>2026-04-26T09:25:10.998Z</time></trkpt><trkpt lat="43.22592692498121" lon="12.791657298809504"><ele>647.2857142857142</ele><time>2026-04-26T09:25:11.998Z</time></trkpt><trkpt lat="43.225962348942566" lon="12.791580035150137"><ele>645.5714285714286</ele><time>2026-04-26T09:25:12.998Z</time></trkpt><trkpt lat="43.22601464143383" lon="12.791522720367627"><ele>643.8571428571429</ele><time>2026-04-26T09:25:13.998Z</time></trkpt><trkpt lat="43.22606015552561" lon="12.791454506983822"><ele>642.1428571428571</ele><time>2026-04-26T09:25:14.998Z</time></trkpt><trkpt lat="43.22611206146771" lon="12.791390672855533"><ele>640.4285714285714</ele><time>2026-04-26T09:25:15.998Z</time></trkpt><trkpt lat="43.22616888210293" lon="12.791338186227721"><ele>638.7142857142857</ele><time>2026-04-26T09:25:16.998Z</time></trkpt><trkpt lat="43.22622878285832" lon="12.7912976553103"><ele>637.0</ele><time>2026-04-26T09:25:17.998Z</time></trkpt><trkpt lat="43.226337040728104" lon="12.7912657436606"><ele>637.0</ele><time>2026-04-26T09:25:19.998Z</time></trkpt><trkpt lat="43.22641995843331" lon="12.791187959357304"><ele>637.0</ele><time>2026-04-26T09:25:21.998Z</time></trkpt><trkpt lat="43.22650300649162" lon="12.79116087642574"><ele>637.0</ele><time>2026-04-26T09:25:23.998Z</time></trkpt><trkpt lat="43.226585370966376" lon="12.791109953855262"><ele>637.0</ele><time>2026-04-26T09:25:25.998Z</time></trkpt><trkpt lat="43.22666884264556" lon="12.791058346755095"><ele>637.0</ele><time>2026-04-26T09:25:27.998Z</time></trkpt><trkpt lat="43.22674571226585" lon="12.791009553335149"><ele>633.0</ele><time>2026-04-26T09:25:29.998Z</time></trkpt><trkpt lat="43.226821847048704" lon="12.790963706869636"><ele>629.0</ele><time>2026-04-26T09:25:31.998Z</time></trkpt><trkpt lat="43.226894509883024" lon="12.790884777539812"><ele>625.0</ele><time>2026-04-26T09:25:33.998Z</time></trkpt><trkpt lat="43.22695913329415" lon="12.79078709161933"><ele>621.0</ele><time>2026-04-26T09:25:35.998Z</time></trkpt><trkpt lat="43.22700288530888" lon="12.790705106244124"><ele>617.0</ele><time>2026-04-26T09:25:37.998Z</time></trkpt><trkpt lat="43.226917581831785" lon="12.790523766507274"><ele>617.0</ele><time>2026-04-26T09:25:41.998Z</time></trkpt><trkpt lat="43.2269159913424" lon="12.790393287155778"><ele>617.0</ele><time>2026-04-26T09:25:44.998Z</time></trkpt><trkpt lat="43.22634545222328" lon="12.789585466009221"><ele>610.5</ele><time>2026-04-26T09:27:26.998Z</time></trkpt><trkpt lat="43.226659430060415" lon="12.789928536585146"><ele>604.0</ele><time>2026-04-26T09:27:27.998Z</time></trkpt><trkpt lat="43.22676971366398" lon="12.790067767248711"><ele>604.0</ele><time>2026-04-26T09:27:28.998Z</time></trkpt><trkpt lat="43.22682284023333" lon="12.79016093375535"><ele>604.0</ele><time>2026-04-26T09:27:29.998Z</time></trkpt><trkpt lat="43.226899525108166" lon="12.790194851453498"><ele>604.0</ele><time>2026-04-26T09:27:32.998Z</time></trkpt><trkpt lat="43.226956687028796" lon="12.79024616870671"><ele>604.0</ele><time>2026-04-26T09:27:38Z</time></trkpt><trkpt lat="43.227016632436964" lon="12.790286392300501"><ele>604.0</ele><time>2026-04-26T09:27:41Z</time></trkpt><trkpt lat="43.227137707045884" lon="12.790305364842947"><ele>604.0</ele><time>2026-04-26T09:28:03Z</time></trkpt><trkpt lat="43.227178945492724" lon="12.790194568074247"><ele>604.0</ele><time>2026-04-26T09:28:06Z</time></trkpt><trkpt lat="43.22723098217575" lon="12.7900875973328"><ele>604.0</ele><time>2026-04-26T09:28:08Z</time></trkpt><trkpt lat="43.2272573060364" lon="12.79000850336292"><ele>604.0</ele><time>2026-04-26T09:28:10Z</time></trkpt><trkpt lat="43.22730578182657" lon="12.789917712689338"><ele>604.0</ele><time>2026-04-26T09:28:14Z</time></trkpt><trkpt lat="43.22736791616634" lon="12.789801675560357"><ele>604.0</ele><time>2026-04-26T09:28:17Z</time></trkpt><trkpt lat="43.22741025295111" lon="12.789717145953382"><ele>604.0</ele><time>2026-04-26T09:28:21Z</time></trkpt><trkpt lat="43.227439525991855" lon="12.789617670383327"><ele>602.5</ele><time>2026-04-26T09:28:30Z</time></trkpt><trkpt lat="43.22747082461797" lon="12.78952640703043"><ele>601.0</ele><time>2026-04-26T09:28:35Z</time></trkpt><trkpt lat="43.22754125825089" lon="12.78954864804696"><ele>599.5</ele><time>2026-04-26T09:28:39Z</time></trkpt><trkpt lat="43.22762663517021" lon="12.789573149074183"><ele>598.0</ele><time>2026-04-26T09:28:56Z</time></trkpt><trkpt lat="43.22771273080887" lon="12.789564528059213"><ele>596.5</ele><time>2026-04-26T09:28:58Z</time></trkpt><trkpt lat="43.22780381392649" lon="12.789589486146014"><ele>595.0</ele><time>2026-04-26T09:29:00Z</time></trkpt><trkpt lat="43.22786263495596" lon="12.789671351438033"><ele>595.0</ele><time>2026-04-26T09:29:02Z</time></trkpt><trkpt lat="43.22793007757811" lon="12.789797863386475"><ele>595.0</ele><time>2026-04-26T09:29:04Z</time></trkpt><trkpt lat="43.2279880028865" lon="12.789924061280146"><ele>595.0</ele><time>2026-04-26T09:29:06Z</time></trkpt><trkpt lat="43.22804657981474" lon="12.790047405142293"><ele>595.0</ele><time>2026-04-26T09:29:08Z</time></trkpt><trkpt lat="43.22807350615237" lon="12.790128042525335"><ele>595.0</ele><time>2026-04-26T09:29:09Z</time></trkpt><trkpt lat="43.22809103308396" lon="12.790231558263805"><ele>596.1666666666667</ele><time>2026-04-26T09:29:10Z</time></trkpt><trkpt lat="43.228107636592014" lon="12.790328734505604"><ele>597.3333333333334</ele><time>2026-04-26T09:29:11Z</time></trkpt><trkpt lat="43.22811186393499" lon="12.79046081691"><ele>598.5</ele><time>2026-04-26T09:29:13Z</time></trkpt><trkpt lat="43.228122585638346" lon="12.790556665084459"><ele>599.6666666666666</ele><time>2026-04-26T09:29:16Z</time></trkpt><trkpt lat="43.2281873255422" lon="12.79051131144243"><ele>600.8333333333333</ele><time>2026-04-26T09:29:36Z</time></trkpt><trkpt lat="43.228215677599756" lon="12.790417845929472"><ele>602.0</ele><time>2026-04-26T09:29:40Z</time></trkpt><trkpt lat="43.228255007256" lon="12.790312997826533"><ele>595.5</ele><time>2026-04-26T09:29:43.999Z</time></trkpt><trkpt lat="43.22828536898927" lon="12.790220874648579"><ele>589.0</ele><time>2026-04-26T09:29:46.999Z</time></trkpt><trkpt lat="43.22829017460448" lon="12.790132455167743"><ele>582.5</ele><time>2026-04-26T09:29:49.999Z</time></trkpt><trkpt lat="43.22829684297466" lon="12.790042368253983"><ele>576.0</ele><time>2026-04-26T09:29:52.999Z</time></trkpt><trkpt lat="43.228346524278095" lon="12.789984393600758"><ele>569.5</ele><time>2026-04-26T09:29:55.999Z</time></trkpt><trkpt lat="43.22841795597664" lon="12.789881881202314"><ele>563.0</ele><time>2026-04-26T09:29:58.999Z</time></trkpt><trkpt lat="43.22846262814809" lon="12.789778789204776"><ele>563.0</ele><time>2026-04-26T09:30:00.999Z</time></trkpt><trkpt lat="43.22851073788366" lon="12.78969720359538"><ele>563.0</ele><time>2026-04-26T09:30:02.999Z</time></trkpt><trkpt lat="43.22854347938485" lon="12.78962338777803"><ele>563.0</ele><time>2026-04-26T09:30:04.999Z</time></trkpt><trkpt lat="43.228590483191" lon="12.789511443859224"><ele>563.0</ele><time>2026-04-26T09:30:07.999Z</time></trkpt><trkpt lat="43.228619090486546" lon="12.78943372254802"><ele>563.0</ele><time>2026-04-26T09:30:09.999Z</time></trkpt><trkpt lat="43.22866105625709" lon="12.789320446344462"><ele>563.0</ele><time>2026-04-26T09:30:12.999Z</time></trkpt><trkpt lat="43.22869480377" lon="12.789239056204936"><ele>563.8333333333333</ele><time>2026-04-26T09:30:14.999Z</time></trkpt><trkpt lat="43.2287360892279" lon="12.789170186047455"><ele>564.6666666666666</ele><time>2026-04-26T09:30:16.999Z</time></trkpt><trkpt lat="43.22876278492394" lon="12.789068273167238"><ele>565.5</ele><time>2026-04-26T09:30:18.999Z</time></trkpt><trkpt lat="43.228808154087965" lon="12.788964596190436"><ele>566.3333333333334</ele><time>2026-04-26T09:30:20.999Z</time></trkpt><trkpt lat="43.2288659074806" lon="12.788882794107584"><ele>567.1666666666667</ele><time>2026-04-26T09:30:22.999Z</time></trkpt><trkpt lat="43.22891469729847" lon="12.788808019691702"><ele>568.0</ele><time>2026-04-26T09:30:24.999Z</time></trkpt><trkpt lat="43.22896587216186" lon="12.788715379529421"><ele>561.8333333333334</ele><time>2026-04-26T09:30:26.999Z</time></trkpt><trkpt lat="43.22901341024783" lon="12.788617386966449"><ele>555.6666666666667</ele><time>2026-04-26T09:30:28.999Z</time></trkpt><trkpt lat="43.229065022977785" lon="12.788527407945866"><ele>549.5</ele><time>2026-04-26T09:30:30.999Z</time></trkpt><trkpt lat="43.22911471008925" lon="12.788448292012477"><ele>543.3333333333334</ele><time>2026-04-26T09:30:32.999Z</time></trkpt><trkpt lat="43.229163518289205" lon="12.788360011038439"><ele>537.1666666666666</ele><time>2026-04-26T09:30:34.999Z</time></trkpt><trkpt lat="43.22919172250191" lon="12.788282202891635"><ele>531.0</ele><time>2026-04-26T09:30:36.999Z</time></trkpt><trkpt lat="43.22921939372235" lon="12.788197169099796"><ele>531.0</ele><time>2026-04-26T09:30:39.999Z</time></trkpt><trkpt lat="43.22926032372385" lon="12.788099945598644"><ele>531.0</ele><time>2026-04-26T09:30:43.999Z</time></trkpt><trkpt lat="43.22929762980647" lon="12.788002096139017"><ele>531.0</ele><time>2026-04-26T09:30:45.999Z</time></trkpt><trkpt lat="43.22930107723956" lon="12.787871025018026"><ele>531.0</ele><time>2026-04-26T09:30:47.999Z</time></trkpt><trkpt lat="43.22931557108966" lon="12.78773285108488"><ele>531.0</ele><time>2026-04-26T09:30:49.999Z</time></trkpt><trkpt lat="43.229316315788545" lon="12.787612571980713"><ele>531.0</ele><time>2026-04-26T09:30:51.999Z</time></trkpt><trkpt lat="43.22931610621934" lon="12.787523066098323"><ele>530.8</ele><time>2026-04-26T09:30:56.999Z</time></trkpt><trkpt lat="43.229344199146375" lon="12.787428452162917"><ele>530.6</ele><time>2026-04-26T09:31:14.999Z</time></trkpt><trkpt lat="43.22928023177623" lon="12.787312866641068"><ele>530.4</ele><time>2026-04-26T09:31:16.999Z</time></trkpt><trkpt lat="43.22924367293196" lon="12.787236026349513"><ele>530.2</ele><time>2026-04-26T09:31:17.999Z</time></trkpt><trkpt lat="43.2293395068396" lon="12.787107905043161"><ele>530.0</ele><time>2026-04-26T09:31:18.999Z</time></trkpt><trkpt lat="43.22932219368613" lon="12.787006918384227"><ele>530.0</ele><time>2026-04-26T09:31:19.999Z</time></trkpt><trkpt lat="43.229302974977834" lon="12.786892493492706"><ele>530.0</ele><time>2026-04-26T09:31:20.999Z</time></trkpt><trkpt lat="43.229282728474494" lon="12.786769186169897"><ele>530.0</ele><time>2026-04-26T09:31:21.999Z</time></trkpt><trkpt lat="43.22926559394865" lon="12.786657921612694"><ele>530.0</ele><time>2026-04-26T09:31:22.999Z</time></trkpt><trkpt lat="43.22924790651301" lon="12.786540821085797"><ele>530.0</ele><time>2026-04-26T09:31:23.999Z</time></trkpt><trkpt lat="43.22922503849981" lon="12.786427324702025"><ele>530.0</ele><time>2026-04-26T09:31:24.999Z</time></trkpt><trkpt lat="43.22919273706489" lon="12.786314534559063"><ele>529.25</ele><time>2026-04-26T09:31:25.999Z</time></trkpt><trkpt lat="43.22913491551442" lon="12.786202045817038"><ele>528.5</ele><time>2026-04-26T09:31:26.999Z</time></trkpt><trkpt lat="43.22908301033916" lon="12.786055376347893"><ele>527.75</ele><time>2026-04-26T09:31:27.999Z</time></trkpt><trkpt lat="43.22901393190159" lon="12.785883745100987"><ele>527.0</ele><time>2026-04-26T09:31:28.999Z</time></trkpt><trkpt lat="43.22895058388157" lon="12.785697732847765"><ele>527.25</ele><time>2026-04-26T09:31:29.999Z</time></trkpt><trkpt lat="43.22890328281465" lon="12.785513196331596"><ele>527.5</ele><time>2026-04-26T09:31:30.999Z</time></trkpt><trkpt lat="43.22885999874981" lon="12.785342174494009"><ele>527.75</ele><time>2026-04-26T09:31:31.999Z</time></trkpt><trkpt lat="43.22877340695375" lon="12.785196880437839"><ele>528.0</ele><time>2026-04-26T09:31:32.999Z</time></trkpt><trkpt lat="43.22872397783138" lon="12.7850584212739"><ele>528.0</ele><time>2026-04-26T09:31:33.999Z</time></trkpt><trkpt lat="43.228690082991754" lon="12.784918752511738"><ele>528.0</ele><time>2026-04-26T09:31:34.999Z</time></trkpt><trkpt lat="43.22863073880306" lon="12.784795716498275"><ele>528.0</ele><time>2026-04-26T09:31:35.999Z</time></trkpt><trkpt lat="43.22859633018265" lon="12.784665195889348"><ele>528.0</ele><time>2026-04-26T09:31:36.999Z</time></trkpt><trkpt lat="43.22855400074712" lon="12.784555930083611"><ele>528.0</ele><time>2026-04-26T09:31:37.999Z</time></trkpt><trkpt lat="43.22850216335499" lon="12.78446118019537"><ele>528.0</ele><time>2026-04-26T09:31:38.999Z</time></trkpt><trkpt lat="43.228434287442354" lon="12.784392478585287"><ele>528.0</ele><time>2026-04-26T09:31:39.999Z</time></trkpt><trkpt lat="43.22836362914229" lon="12.784342362073513"><ele>528.0</ele><time>2026-04-26T09:31:40.999Z</time></trkpt><trkpt lat="43.228296514070465" lon="12.784316101934285"><ele>528.0</ele><time>2026-04-26T09:31:41.999Z</time></trkpt><trkpt lat="43.22822909331379" lon="12.784308917555878"><ele>528.0</ele><time>2026-04-26T09:31:42.999Z</time></trkpt><trkpt lat="43.2281644264494" lon="12.784299595894336"><ele>528.0</ele><time>2026-04-26T09:31:43.999Z</time></trkpt><trkpt lat="43.2280331820835" lon="12.784315951856414"><ele>527.5</ele><time>2026-04-26T09:31:45.999Z</time></trkpt><trkpt lat="43.227958611237035" lon="12.784341863168152"><ele>527.0</ele><time>2026-04-26T09:31:46.999Z</time></trkpt><trkpt lat="43.227880080236524" lon="12.784381205781564"><ele>526.5</ele><time>2026-04-26T09:31:47.999Z</time></trkpt><trkpt lat="43.22779473431009" lon="12.784421293946115"><ele>526.0</ele><time>2026-04-26T09:31:48.999Z</time></trkpt><trkpt lat="43.22770432904998" lon="12.784446842666348"><ele>525.5</ele><time>2026-04-26T09:31:49.999Z</time></trkpt><trkpt lat="43.227616492667586" lon="12.784474906642588"><ele>525.0</ele><time>2026-04-26T09:31:50.999Z</time></trkpt><trkpt lat="43.22752048216718" lon="12.784495776311626"><ele>525.0</ele><time>2026-04-26T09:31:51.999Z</time></trkpt><trkpt lat="43.22742344154625" lon="12.784525946018963"><ele>525.0</ele><time>2026-04-26T09:31:52.999Z</time></trkpt><trkpt lat="43.22732668489704" lon="12.784565222099141"><ele>525.0</ele><time>2026-04-26T09:31:53.999Z</time></trkpt><trkpt lat="43.227231988620964" lon="12.784621496702254"><ele>525.0</ele><time>2026-04-26T09:31:54.999Z</time></trkpt><trkpt lat="43.22712757586202" lon="12.78464123095626"><ele>525.0</ele><time>2026-04-26T09:31:55.999Z</time></trkpt><trkpt lat="43.22702936783588" lon="12.7846758087079"><ele>524.5</ele><time>2026-04-26T09:31:56.999Z</time></trkpt><trkpt lat="43.22693565418607" lon="12.784728613253387"><ele>524.0</ele><time>2026-04-26T09:31:57.999Z</time></trkpt><trkpt lat="43.22684098141655" lon="12.784758306418551"><ele>523.5</ele><time>2026-04-26T09:31:58.999Z</time></trkpt><trkpt lat="43.22675180540415" lon="12.784790540366608"><ele>523.0</ele><time>2026-04-26T09:31:59.999Z</time></trkpt><trkpt lat="43.22667179523572" lon="12.78481875329413"><ele>522.5</ele><time>2026-04-26T09:32:00.999Z</time></trkpt><trkpt lat="43.22660415241832" lon="12.784825580761991"><ele>522.0</ele><time>2026-04-26T09:32:01.999Z</time></trkpt><trkpt lat="43.22652257993993" lon="12.784878660707555"><ele>521.3333333333334</ele><time>2026-04-26T09:32:03.999Z</time></trkpt><trkpt lat="43.22645552681166" lon="12.784881143460609"><ele>520.6666666666666</ele><time>2026-04-26T09:32:06.999Z</time></trkpt><trkpt lat="43.22638299120623" lon="12.7849200877981"><ele>520.0</ele><time>2026-04-26T09:32:19.999Z</time></trkpt><trkpt lat="43.22630669283528" lon="12.78494656021427"><ele>519.3333333333333</ele><time>2026-04-26T09:32:22.999Z</time></trkpt><trkpt lat="43.22622569633257" lon="12.784955433687033"><ele>518.6666666666666</ele><time>2026-04-26T09:32:25.999Z</time></trkpt><trkpt lat="43.22614881576136" lon="12.784958110894008"><ele>518.0</ele><time>2026-04-26T09:32:27.999Z</time></trkpt><trkpt lat="43.226034842694496" lon="12.784976593766954"><ele>518.0</ele><time>2026-04-26T09:32:29.999Z</time></trkpt><trkpt lat="43.22594516492234" lon="12.785017407770527"><ele>518.0</ele><time>2026-04-26T09:32:30.999Z</time></trkpt><trkpt lat="43.225824037718205" lon="12.785067670370534"><ele>518.0</ele><time>2026-04-26T09:32:31.999Z</time></trkpt><trkpt lat="43.22567810295884" lon="12.785122367120943"><ele>518.0</ele><time>2026-04-26T09:32:32.999Z</time></trkpt><trkpt lat="43.2255299159008" lon="12.785183209303636"><ele>519.25</ele><time>2026-04-26T09:32:33.999Z</time></trkpt><trkpt lat="43.22538607708815" lon="12.785224688565776"><ele>520.5</ele><time>2026-04-26T09:32:34.999Z</time></trkpt><trkpt lat="43.225245478039575" lon="12.785258202373946"><ele>521.75</ele><time>2026-04-26T09:32:35.999Z</time></trkpt><trkpt lat="43.22510695578707" lon="12.785291071404433"><ele>523.0</ele><time>2026-04-26T09:32:36.999Z</time></trkpt><trkpt lat="43.22497302297226" lon="12.785320643090552"><ele>523.0</ele><time>2026-04-26T09:32:37.999Z</time></trkpt><trkpt lat="43.22483850865818" lon="12.785354989585057"><ele>523.0</ele><time>2026-04-26T09:32:38.999Z</time></trkpt><trkpt lat="43.224700654955114" lon="12.78537025868887"><ele>523.0</ele><time>2026-04-26T09:32:39.999Z</time></trkpt><trkpt lat="43.22455147974551" lon="12.785385707733374"><ele>523.0</ele><time>2026-04-26T09:32:40.999Z</time></trkpt><trkpt lat="43.22440240500436" lon="12.785403391656084"><ele>521.75</ele><time>2026-04-26T09:32:41.999Z</time></trkpt><trkpt lat="43.224268709335014" lon="12.785475886220294"><ele>520.5</ele><time>2026-04-26T09:32:42.999Z</time></trkpt><trkpt lat="43.22412500915624" lon="12.785488149173322"><ele>519.25</ele><time>2026-04-26T09:32:43.999Z</time></trkpt><trkpt lat="43.22397394995507" lon="12.785492916542365"><ele>518.0</ele><time>2026-04-26T09:32:44.999Z</time></trkpt><trkpt lat="43.2238246965226" lon="12.785503614445537"><ele>516.5</ele><time>2026-04-26T09:32:45.999Z</time></trkpt><trkpt lat="43.223676397394264" lon="12.785516228418103"><ele>515.0</ele><time>2026-04-26T09:32:46.999Z</time></trkpt><trkpt lat="43.22352601745092" lon="12.78553071110146"><ele>513.5</ele><time>2026-04-26T09:32:47.999Z</time></trkpt><trkpt lat="43.22338002262722" lon="12.78554853685725"><ele>512.0</ele><time>2026-04-26T09:32:48.999Z</time></trkpt><trkpt lat="43.22323596747868" lon="12.78556401207866"><ele>511.5</ele><time>2026-04-26T09:32:49.999Z</time></trkpt><trkpt lat="43.22309111369522" lon="12.785584976241744"><ele>511.0</ele><time>2026-04-26T09:32:50.999Z</time></trkpt><trkpt lat="43.22295450828672" lon="12.785594412225025"><ele>510.5</ele><time>2026-04-26T09:32:51.999Z</time></trkpt><trkpt lat="43.222822910398875" lon="12.785607593305416"><ele>510.0</ele><time>2026-04-26T09:32:52.999Z</time></trkpt><trkpt lat="43.22269400119453" lon="12.785622908454783"><ele>510.0</ele><time>2026-04-26T09:32:53.999Z</time></trkpt><trkpt lat="43.22256612362701" lon="12.785636686889845"><ele>510.0</ele><time>2026-04-26T09:32:54.999Z</time></trkpt><trkpt lat="43.222434557385505" lon="12.785645105006703"><ele>510.0</ele><time>2026-04-26T09:32:55.999Z</time></trkpt><trkpt lat="43.22230103048489" lon="12.785660019488752"><ele>510.0</ele><time>2026-04-26T09:32:56.999Z</time></trkpt><trkpt lat="43.222164303206796" lon="12.78567181379156"><ele>509.75</ele><time>2026-04-26T09:32:57.999Z</time></trkpt><trkpt lat="43.22202424200847" lon="12.785685348550038"><ele>509.5</ele><time>2026-04-26T09:32:58.999Z</time></trkpt><trkpt lat="43.22187773079214" lon="12.785697249962693"><ele>509.25</ele><time>2026-04-26T09:32:59.999Z</time></trkpt><trkpt lat="43.22172725927302" lon="12.785720818626881"><ele>509.0</ele><time>2026-04-26T09:33:00.999Z</time></trkpt><trkpt lat="43.221571640260365" lon="12.785754733019015"><ele>509.25</ele><time>2026-04-26T09:33:01.999Z</time></trkpt><trkpt lat="43.22141125010602" lon="12.78579794927736"><ele>509.5</ele><time>2026-04-26T09:33:02.999Z</time></trkpt><trkpt lat="43.22126430394652" lon="12.785850324202368"><ele>509.75</ele><time>2026-04-26T09:33:03.999Z</time></trkpt><trkpt lat="43.22113344263629" lon="12.785882860517074"><ele>510.0</ele><time>2026-04-26T09:33:04.999Z</time></trkpt><trkpt lat="43.22099214991983" lon="12.785873398509146"><ele>510.0</ele><time>2026-04-26T09:33:05.999Z</time></trkpt><trkpt lat="43.22083470076071" lon="12.785840552593324"><ele>510.0</ele><time>2026-04-26T09:33:06.999Z</time></trkpt><trkpt lat="43.220659198406885" lon="12.785803248147861"><ele>510.0</ele><time>2026-04-26T09:33:07.999Z</time></trkpt><trkpt lat="43.22048283363227" lon="12.785786817459925"><ele>509.66666666666663</ele><time>2026-04-26T09:33:08.999Z</time></trkpt><trkpt lat="43.22028897222841" lon="12.785782733790546"><ele>509.3333333333333</ele><time>2026-04-26T09:33:09.999Z</time></trkpt><trkpt lat="43.22007784774686" lon="12.785780825823123"><ele>509.0</ele><time>2026-04-26T09:33:10.999Z</time></trkpt><trkpt lat="43.219857844245126" lon="12.78578985020245"><ele>509.0</ele><time>2026-04-26T09:33:11.999Z</time></trkpt><trkpt lat="43.219648144110664" lon="12.785794681349854"><ele>509.0</ele><time>2026-04-26T09:33:12.999Z</time></trkpt><trkpt lat="43.219449446005825" lon="12.785801148473462"><ele>509.0</ele><time>2026-04-26T09:33:13.999Z</time></trkpt><trkpt lat="43.21928522581944" lon="12.78589977550485"><ele>509.0</ele><time>2026-04-26T09:33:14.999Z</time></trkpt><trkpt lat="43.21910577765851" lon="12.785887562684398"><ele>509.0</ele><time>2026-04-26T09:33:15.999Z</time></trkpt><trkpt lat="43.21892210552633" lon="12.785887761512765"><ele>509.0</ele><time>2026-04-26T09:33:16.999Z</time></trkpt><trkpt lat="43.21874871672937" lon="12.785889018342154"><ele>510.0</ele><time>2026-04-26T09:33:17.999Z</time></trkpt><trkpt lat="43.21857306649742" lon="12.785888937828224"><ele>511.0</ele><time>2026-04-26T09:33:18.999Z</time></trkpt><trkpt lat="43.218412093810436" lon="12.785886772184309"><ele>512.0</ele><time>2026-04-26T09:33:19.999Z</time></trkpt><trkpt lat="43.21825652393493" lon="12.785890181457946"><ele>511.5</ele><time>2026-04-26T09:33:20.999Z</time></trkpt><trkpt lat="43.21810204797091" lon="12.785929601846018"><ele>511.0</ele><time>2026-04-26T09:33:21.999Z</time></trkpt><trkpt lat="43.21795772156426" lon="12.785970023395748"><ele>510.5</ele><time>2026-04-26T09:33:22.999Z</time></trkpt><trkpt lat="43.21782247549883" lon="12.785981397148808"><ele>510.0</ele><time>2026-04-26T09:33:23.999Z</time></trkpt><trkpt lat="43.21768768807565" lon="12.78598897657001"><ele>510.0</ele><time>2026-04-26T09:33:24.999Z</time></trkpt><trkpt lat="43.21755955470079" lon="12.785991608814129"><ele>510.0</ele><time>2026-04-26T09:33:25.999Z</time></trkpt><trkpt lat="43.21742559788627" lon="12.786013506869534"><ele>510.0</ele><time>2026-04-26T09:33:26.999Z</time></trkpt><trkpt lat="43.21727901852378" lon="12.786034241436248"><ele>510.0</ele><time>2026-04-26T09:33:27.999Z</time></trkpt><trkpt lat="43.21712238342067" lon="12.786052031096323"><ele>511.0</ele><time>2026-04-26T09:33:28.999Z</time></trkpt><trkpt lat="43.21696799766351" lon="12.78607325620871"><ele>512.0</ele><time>2026-04-26T09:33:29.999Z</time></trkpt><trkpt lat="43.2168304903126" lon="12.786086771799791"><ele>513.0</ele><time>2026-04-26T09:33:30.999Z</time></trkpt><trkpt lat="43.21668782717194" lon="12.786114708080445"><ele>514.0</ele><time>2026-04-26T09:33:31.999Z</time></trkpt><trkpt lat="43.21651647249762" lon="12.78611875534414"><ele>513.3333333333334</ele><time>2026-04-26T09:33:32.999Z</time></trkpt><trkpt lat="43.216357762262064" lon="12.78612554077661"><ele>512.6666666666666</ele><time>2026-04-26T09:33:33.999Z</time></trkpt><trkpt lat="43.21619930676954" lon="12.786120834545967"><ele>512.0</ele><time>2026-04-26T09:33:34.999Z</time></trkpt><trkpt lat="43.21605932694321" lon="12.786137915096525"><ele>512.0</ele><time>2026-04-26T09:33:35.999Z</time></trkpt><trkpt lat="43.21589880637304" lon="12.786151163551766"><ele>512.0</ele><time>2026-04-26T09:33:36.999Z</time></trkpt><trkpt lat="43.215743120906566" lon="12.786148035541549"><ele>512.0</ele><time>2026-04-26T09:33:37.999Z</time></trkpt><trkpt lat="43.215572704265185" lon="12.78616921202481"><ele>512.3333333333333</ele><time>2026-04-26T09:33:38.999Z</time></trkpt><trkpt lat="43.21539450353971" lon="12.786178632940391"><ele>512.6666666666666</ele><time>2026-04-26T09:33:39.999Z</time></trkpt><trkpt lat="43.21521979444493" lon="12.786194384099904"><ele>513.0</ele><time>2026-04-26T09:33:40.999Z</time></trkpt><trkpt lat="43.21506269869447" lon="12.786220440200012"><ele>513.0</ele><time>2026-04-26T09:33:41.999Z</time></trkpt><trkpt lat="43.21492101777323" lon="12.786228353141103"><ele>513.0</ele><time>2026-04-26T09:33:42.999Z</time></trkpt><trkpt lat="43.21479727762881" lon="12.786231871052117"><ele>513.0</ele><time>2026-04-26T09:33:43.999Z</time></trkpt><trkpt lat="43.21469198862682" lon="12.786266521309932"><ele>513.0</ele><time>2026-04-26T09:33:44.999Z</time></trkpt><trkpt lat="43.21459729398623" lon="12.786285733526302"><ele>513.3333333333334</ele><time>2026-04-26T09:33:45.999Z</time></trkpt><trkpt lat="43.214516336383156" lon="12.786334632660608"><ele>513.6666666666666</ele><time>2026-04-26T09:33:46.999Z</time></trkpt><trkpt lat="43.21447173784625" lon="12.786430188110282"><ele>514.0</ele><time>2026-04-26T09:33:47.999Z</time></trkpt><trkpt lat="43.21439834113511" lon="12.78646989802396"><ele>514.3333333333333</ele><time>2026-04-26T09:33:49.999Z</time></trkpt><trkpt lat="43.21431879433848" lon="12.786438087705413"><ele>514.6666666666666</ele><time>2026-04-26T09:33:51.999Z</time></trkpt><trkpt lat="43.21425090582045" lon="12.786430970884105"><ele>515.0</ele><time>2026-04-26T09:34:51Z</time></trkpt><trkpt lat="43.21431243247151" lon="12.786531912659528"><ele>515.0</ele><time>2026-04-26T09:38:57.999Z</time></trkpt><trkpt lat="43.21440020623059" lon="12.786520475439524"><ele>515.0</ele><time>2026-04-26T09:40:23.998Z</time></trkpt><trkpt lat="43.21448755393057" lon="12.786475911347727"><ele>515.0</ele><time>2026-04-26T09:40:25.998Z</time></trkpt><trkpt lat="43.214540337367396" lon="12.78640990520389"><ele>515.0</ele><time>2026-04-26T09:40:28.998Z</time></trkpt><trkpt lat="43.2146560442402" lon="12.786354961495192"><ele>515.0</ele><time>2026-04-26T09:40:35.998Z</time></trkpt><trkpt lat="43.214731858559176" lon="12.786339303730504"><ele>514.5</ele><time>2026-04-26T09:40:36.998Z</time></trkpt><trkpt lat="43.2148287278444" lon="12.7863331871286"><ele>514.0</ele><time>2026-04-26T09:40:37.998Z</time></trkpt><trkpt lat="43.21494611718923" lon="12.786312437232304"><ele>513.5</ele><time>2026-04-26T09:40:38.998Z</time></trkpt><trkpt lat="43.215072020536056" lon="12.786293563107094"><ele>513.0</ele><time>2026-04-26T09:40:39.998Z</time></trkpt><trkpt lat="43.21518345538208" lon="12.786270007597816"><ele>513.0</ele><time>2026-04-26T09:40:40.998Z</time></trkpt><trkpt lat="43.21530277048897" lon="12.786259031646708"><ele>513.0</ele><time>2026-04-26T09:40:41.998Z</time></trkpt><trkpt lat="43.215432979943394" lon="12.78625471468194"><ele>513.0</ele><time>2026-04-26T09:40:42.998Z</time></trkpt><trkpt lat="43.215570968067205" lon="12.78622971796002"><ele>513.0</ele><time>2026-04-26T09:40:43.998Z</time></trkpt><trkpt lat="43.21570940642543" lon="12.786215444817573"><ele>512.75</ele><time>2026-04-26T09:40:44.998Z</time></trkpt><trkpt lat="43.215844929319" lon="12.786213508799054"><ele>512.5</ele><time>2026-04-26T09:40:45.998Z</time></trkpt><trkpt lat="43.215972500152205" lon="12.786205407152613"><ele>512.25</ele><time>2026-04-26T09:40:46.998Z</time></trkpt><trkpt lat="43.21609793568061" lon="12.786188241188622"><ele>512.0</ele><time>2026-04-26T09:40:47.998Z</time></trkpt><trkpt lat="43.21622564295191" lon="12.786170702395502"><ele>512.0</ele><time>2026-04-26T09:40:48.998Z</time></trkpt><trkpt lat="43.21636120826083" lon="12.786155843700762"><ele>512.0</ele><time>2026-04-26T09:40:49.998Z</time></trkpt><trkpt lat="43.216501131465925" lon="12.786145642876068"><ele>512.0</ele><time>2026-04-26T09:40:50.998Z</time></trkpt><trkpt lat="43.216645169791505" lon="12.786135356139381"><ele>512.0</ele><time>2026-04-26T09:40:51.998Z</time></trkpt><trkpt lat="43.21679308764836" lon="12.786125030175523"><ele>512.5</ele><time>2026-04-26T09:40:52.998Z</time></trkpt><trkpt lat="43.216944130787084" lon="12.786117443045857"><ele>513.0</ele><time>2026-04-26T09:40:53.998Z</time></trkpt><trkpt lat="43.21709314828794" lon="12.786108593192427"><ele>513.5</ele><time>2026-04-26T09:40:54.998Z</time></trkpt><trkpt lat="43.21723786287624" lon="12.786091959208663"><ele>514.0</ele><time>2026-04-26T09:40:55.998Z</time></trkpt><trkpt lat="43.21738119483971" lon="12.786070354935022"><ele>514.0</ele><time>2026-04-26T09:40:56.998Z</time></trkpt><trkpt lat="43.217523119557725" lon="12.786074075073977"><ele>514.0</ele><time>2026-04-26T09:40:57.998Z</time></trkpt><trkpt lat="43.217663961661444" lon="12.786063007253036"><ele>514.0</ele><time>2026-04-26T09:40:58.998Z</time></trkpt><trkpt lat="43.21780361372486" lon="12.786052032946387"><ele>514.0</ele><time>2026-04-26T09:40:59.998Z</time></trkpt><trkpt lat="43.2179409984097" lon="12.786040747222799"><ele>514.0</ele><time>2026-04-26T09:41:00.998Z</time></trkpt><trkpt lat="43.21807672006791" lon="12.786029360377247"><ele>514.0</ele><time>2026-04-26T09:41:01.998Z</time></trkpt><trkpt lat="43.218204771279815" lon="12.786018617069708"><ele>514.0</ele><time>2026-04-26T09:41:02.998Z</time></trkpt><trkpt lat="43.21832517434801" lon="12.786008515451254"><ele>514.0</ele><time>2026-04-26T09:41:03.998Z</time></trkpt><trkpt lat="43.21844205489778" lon="12.785998709319642"><ele>513.5</ele><time>2026-04-26T09:41:04.998Z</time></trkpt><trkpt lat="43.21855467532642" lon="12.785989260629501"><ele>513.0</ele><time>2026-04-26T09:41:05.998Z</time></trkpt><trkpt lat="43.2186652043312" lon="12.78598045156294"><ele>512.5</ele><time>2026-04-26T09:41:06.998Z</time></trkpt><trkpt lat="43.21877743114344" lon="12.785971573415306"><ele>512.0</ele><time>2026-04-26T09:41:07.998Z</time></trkpt><trkpt lat="43.21889107794385" lon="12.785962582942277"><ele>511.25</ele><time>2026-04-26T09:41:08.998Z</time></trkpt><trkpt lat="43.219003493189355" lon="12.785935412438091"><ele>510.5</ele><time>2026-04-26T09:41:09.998Z</time></trkpt><trkpt lat="43.21911816496896" lon="12.78593112158362"><ele>509.75</ele><time>2026-04-26T09:41:10.998Z</time></trkpt><trkpt lat="43.21923680551246" lon="12.785921525184282"><ele>509.0</ele><time>2026-04-26T09:41:11.998Z</time></trkpt><trkpt lat="43.219358374683694" lon="12.785910791862397"><ele>509.0</ele><time>2026-04-26T09:41:12.998Z</time></trkpt><trkpt lat="43.219481972471684" lon="12.78590915933189"><ele>509.0</ele><time>2026-04-26T09:41:13.998Z</time></trkpt><trkpt lat="43.219607435061036" lon="12.785906861535828"><ele>509.0</ele><time>2026-04-26T09:41:14.998Z</time></trkpt><trkpt lat="43.21973414600561" lon="12.78590528710779"><ele>509.0</ele><time>2026-04-26T09:41:15.998Z</time></trkpt><trkpt lat="43.21986048034865" lon="12.785899111143898"><ele>509.0</ele><time>2026-04-26T09:41:16.998Z</time></trkpt><trkpt lat="43.21998853757464" lon="12.785896402353378"><ele>509.0</ele><time>2026-04-26T09:41:17.998Z</time></trkpt><trkpt lat="43.22011569951426" lon="12.78589223633212"><ele>509.0</ele><time>2026-04-26T09:41:18.998Z</time></trkpt><trkpt lat="43.22024049352441" lon="12.785886925316843"><ele>509.0</ele><time>2026-04-26T09:41:19.998Z</time></trkpt><trkpt lat="43.22036504138359" lon="12.785879134603038"><ele>509.0</ele><time>2026-04-26T09:41:20.998Z</time></trkpt><trkpt lat="43.22048554189637" lon="12.785877349576765"><ele>509.0</ele><time>2026-04-26T09:41:21.998Z</time></trkpt><trkpt lat="43.22059943887194" lon="12.7858759542438"><ele>509.0</ele><time>2026-04-26T09:41:22.998Z</time></trkpt><trkpt lat="43.22071193115709" lon="12.785880570208514"><ele>509.0</ele><time>2026-04-26T09:41:23.998Z</time></trkpt><trkpt lat="43.2208282052264" lon="12.785896270700524"><ele>509.25</ele><time>2026-04-26T09:41:24.998Z</time></trkpt><trkpt lat="43.220945954025986" lon="12.785914334948727"><ele>509.5</ele><time>2026-04-26T09:41:25.998Z</time></trkpt><trkpt lat="43.221063052886734" lon="12.785931718225712"><ele>509.75</ele><time>2026-04-26T09:41:26.998Z</time></trkpt><trkpt lat="43.22117805864062" lon="12.785953725513753"><ele>510.0</ele><time>2026-04-26T09:41:27.998Z</time></trkpt><trkpt lat="43.22129529237294" lon="12.785939445846939"><ele>510.0</ele><time>2026-04-26T09:41:28.998Z</time></trkpt><trkpt lat="43.2214152182164" lon="12.78591057029655"><ele>510.0</ele><time>2026-04-26T09:41:29.998Z</time></trkpt><trkpt lat="43.22153462090092" lon="12.785865399788925"><ele>510.0</ele><time>2026-04-26T09:41:30.998Z</time></trkpt><trkpt lat="43.2216555641158" lon="12.785816463376218"><ele>510.0</ele><time>2026-04-26T09:41:31.998Z</time></trkpt><trkpt lat="43.221780547362464" lon="12.785785795051003"><ele>510.0</ele><time>2026-04-26T09:41:32.998Z</time></trkpt><trkpt lat="43.22191753450327" lon="12.785759335054674"><ele>510.0</ele><time>2026-04-26T09:41:33.998Z</time></trkpt><trkpt lat="43.222064573797766" lon="12.785760757711117"><ele>510.0</ele><time>2026-04-26T09:41:34.998Z</time></trkpt><trkpt lat="43.22220711781716" lon="12.785750118703122"><ele>510.0</ele><time>2026-04-26T09:41:35.998Z</time></trkpt><trkpt lat="43.22234318087915" lon="12.785735079200338"><ele>510.0</ele><time>2026-04-26T09:41:36.998Z</time></trkpt><trkpt lat="43.22248844811427" lon="12.785719511761002"><ele>510.0</ele><time>2026-04-26T09:41:37.998Z</time></trkpt><trkpt lat="43.22263530843026" lon="12.785699192203579"><ele>510.0</ele><time>2026-04-26T09:41:38.998Z</time></trkpt><trkpt lat="43.222783419546985" lon="12.785686276357323"><ele>510.0</ele><time>2026-04-26T09:41:39.998Z</time></trkpt><trkpt lat="43.222927934806904" lon="12.785664794780983"><ele>510.0</ele><time>2026-04-26T09:41:40.998Z</time></trkpt><trkpt lat="43.22307359694128" lon="12.785634595323769"><ele>510.0</ele><time>2026-04-26T09:41:41.998Z</time></trkpt><trkpt lat="43.22321873104108" lon="12.785612852025128"><ele>510.0</ele><time>2026-04-26T09:41:42.998Z</time></trkpt><trkpt lat="43.22336241126904" lon="12.785594222712454"><ele>510.0</ele><time>2026-04-26T09:41:43.998Z</time></trkpt><trkpt lat="43.22350671068839" lon="12.785577512117053"><ele>510.66666666666663</ele><time>2026-04-26T09:41:45Z</time></trkpt><trkpt lat="43.223656438404056" lon="12.785566418501395"><ele>511.3333333333333</ele><time>2026-04-26T09:41:46Z</time></trkpt><trkpt lat="43.22381350358906" lon="12.78555409519765"><ele>512.0</ele><time>2026-04-26T09:41:47Z</time></trkpt><trkpt lat="43.2239675481355" lon="12.785541848856997"><ele>514.0</ele><time>2026-04-26T09:41:48Z</time></trkpt><trkpt lat="43.22412187480553" lon="12.785523565751934"><ele>516.0</ele><time>2026-04-26T09:41:49Z</time></trkpt><trkpt lat="43.224278257422554" lon="12.785502478795799"><ele>518.0</ele><time>2026-04-26T09:41:50Z</time></trkpt><trkpt lat="43.22443810479467" lon="12.785484012424345"><ele>518.0</ele><time>2026-04-26T09:41:51Z</time></trkpt><trkpt lat="43.22459245445198" lon="12.785498320990978"><ele>518.0</ele><time>2026-04-26T09:41:52Z</time></trkpt><trkpt lat="43.224738168126066" lon="12.785480075388694"><ele>518.0</ele><time>2026-04-26T09:41:53Z</time></trkpt><trkpt lat="43.22488588254212" lon="12.78543257660776"><ele>519.25</ele><time>2026-04-26T09:41:54Z</time></trkpt><trkpt lat="43.225018380074594" lon="12.785391298608708"><ele>520.5</ele><time>2026-04-26T09:41:55Z</time></trkpt><trkpt lat="43.22514002567339" lon="12.785343524168828"><ele>521.75</ele><time>2026-04-26T09:41:56Z</time></trkpt><trkpt lat="43.22525905435124" lon="12.785300108997237"><ele>523.0</ele><time>2026-04-26T09:41:57Z</time></trkpt><trkpt lat="43.22536891934319" lon="12.785284115630823"><ele>523.0</ele><time>2026-04-26T09:41:58Z</time></trkpt><trkpt lat="43.2254865661465" lon="12.785279546212799"><ele>523.0</ele><time>2026-04-26T09:41:59Z</time></trkpt><trkpt lat="43.225601441942935" lon="12.78526039998159"><ele>523.0</ele><time>2026-04-26T09:42:00Z</time></trkpt><trkpt lat="43.225703750716356" lon="12.78521930708179"><ele>523.0</ele><time>2026-04-26T09:42:01Z</time></trkpt><trkpt lat="43.225816734933154" lon="12.785147660387556"><ele>521.75</ele><time>2026-04-26T09:42:02Z</time></trkpt><trkpt lat="43.22592172369724" lon="12.785116985906097"><ele>520.5</ele><time>2026-04-26T09:42:03Z</time></trkpt><trkpt lat="43.22604040784673" lon="12.78507736548243"><ele>519.25</ele><time>2026-04-26T09:42:04Z</time></trkpt><trkpt lat="43.22614448661321" lon="12.785049679899663"><ele>518.0</ele><time>2026-04-26T09:42:05Z</time></trkpt><trkpt lat="43.22625976520547" lon="12.785019998456907"><ele>518.0</ele><time>2026-04-26T09:42:06Z</time></trkpt><trkpt lat="43.22637707573594" lon="12.784989173370414"><ele>518.0</ele><time>2026-04-26T09:42:07Z</time></trkpt><trkpt lat="43.226477716408894" lon="12.784945130986861"><ele>518.0</ele><time>2026-04-26T09:42:08Z</time></trkpt><trkpt lat="43.22656970887622" lon="12.78490021233154"><ele>518.0</ele><time>2026-04-26T09:42:09Z</time></trkpt><trkpt lat="43.22667544677" lon="12.784855259240489"><ele>518.0</ele><time>2026-04-26T09:42:10Z</time></trkpt><trkpt lat="43.22679627718542" lon="12.78483294108618"><ele>519.0</ele><time>2026-04-26T09:42:11Z</time></trkpt><trkpt lat="43.226912687411556" lon="12.7847742159463"><ele>520.0</ele><time>2026-04-26T09:42:12Z</time></trkpt><trkpt lat="43.22701884306795" lon="12.784736782815745"><ele>521.0</ele><time>2026-04-26T09:42:13Z</time></trkpt><trkpt lat="43.227119750206434" lon="12.784700469294588"><ele>522.0</ele><time>2026-04-26T09:42:14Z</time></trkpt><trkpt lat="43.22723154132193" lon="12.784653879225216"><ele>522.6</ele><time>2026-04-26T09:42:15Z</time></trkpt><trkpt lat="43.22733749792836" lon="12.784619285136165"><ele>523.2</ele><time>2026-04-26T09:42:16Z</time></trkpt><trkpt lat="43.22745579958209" lon="12.784594492503365"><ele>523.8</ele><time>2026-04-26T09:42:17Z</time></trkpt><trkpt lat="43.22756288729106" lon="12.784554282419426"><ele>524.4</ele><time>2026-04-26T09:42:18Z</time></trkpt><trkpt lat="43.227667954521" lon="12.784526758941961"><ele>525.0</ele><time>2026-04-26T09:42:19Z</time></trkpt><trkpt lat="43.227784126763375" lon="12.784483033660774"><ele>525.0</ele><time>2026-04-26T09:42:20Z</time></trkpt><trkpt lat="43.22788953836196" lon="12.784436250252593"><ele>525.0</ele><time>2026-04-26T09:42:21Z</time></trkpt><trkpt lat="43.2279908952796" lon="12.7844020727567"><ele>525.0</ele><time>2026-04-26T09:42:22Z</time></trkpt><trkpt lat="43.228091004079495" lon="12.78437797100502"><ele>525.0</ele><time>2026-04-26T09:42:23Z</time></trkpt><trkpt lat="43.22816511721109" lon="12.784363012528146"><ele>525.0</ele><time>2026-04-26T09:42:24Z</time></trkpt><trkpt lat="43.2282314984069" lon="12.784317967761035"><ele>525.5</ele><time>2026-04-26T09:42:25Z</time></trkpt><trkpt lat="43.228300054182895" lon="12.784348548583736"><ele>526.0</ele><time>2026-04-26T09:42:26Z</time></trkpt><trkpt lat="43.228367903481576" lon="12.784373705209527"><ele>526.5</ele><time>2026-04-26T09:42:27Z</time></trkpt><trkpt lat="43.228436803320236" lon="12.784428315097177"><ele>527.0</ele><time>2026-04-26T09:42:28Z</time></trkpt><trkpt lat="43.2284853714497" lon="12.784490699504689"><ele>527.5</ele><time>2026-04-26T09:42:29Z</time></trkpt><trkpt lat="43.2285328373852" lon="12.784583386555122"><ele>528.0</ele><time>2026-04-26T09:42:30Z</time></trkpt><trkpt lat="43.22857494041121" lon="12.784689309528888"><ele>528.0</ele><time>2026-04-26T09:42:31Z</time></trkpt><trkpt lat="43.22861689599898" lon="12.784809788425317"><ele>528.0</ele><time>2026-04-26T09:42:32Z</time></trkpt><trkpt lat="43.22865374345615" lon="12.78491932505342"><ele>528.0</ele><time>2026-04-26T09:42:33Z</time></trkpt><trkpt lat="43.22868914034683" lon="12.785030947563358"><ele>528.0</ele><time>2026-04-26T09:42:34Z</time></trkpt><trkpt lat="43.228719776423105" lon="12.785177761481151"><ele>528.0</ele><time>2026-04-26T09:42:35Z</time></trkpt><trkpt lat="43.22875878899782" lon="12.785296097643643"><ele>529.0</ele><time>2026-04-26T09:42:36Z</time></trkpt><trkpt lat="43.228801427437475" lon="12.78542027771475"><ele>530.0</ele><time>2026-04-26T09:42:37Z</time></trkpt><trkpt lat="43.22885408778312" lon="12.785527948731097"><ele>531.0</ele><time>2026-04-26T09:42:38Z</time></trkpt><trkpt lat="43.22890305250022" lon="12.785644801273683"><ele>532.0</ele><time>2026-04-26T09:42:39Z</time></trkpt><trkpt lat="43.22892691301514" lon="12.785742723265287"><ele>533.0</ele><time>2026-04-26T09:42:40Z</time></trkpt><trkpt lat="43.22896336424409" lon="12.78584073074508"><ele>534.0</ele><time>2026-04-26T09:42:41Z</time></trkpt><trkpt lat="43.22900011768421" lon="12.785931105875143"><ele>532.8333333333334</ele><time>2026-04-26T09:42:42Z</time></trkpt><trkpt lat="43.22903819821324" lon="12.786022287911209"><ele>531.6666666666666</ele><time>2026-04-26T09:42:43Z</time></trkpt><trkpt lat="43.229077592171144" lon="12.786114703849574"><ele>530.5</ele><time>2026-04-26T09:42:44Z</time></trkpt><trkpt lat="43.22912522939913" lon="12.786228174879996"><ele>529.3333333333333</ele><time>2026-04-26T09:42:45Z</time></trkpt><trkpt lat="43.22915919214445" lon="12.786321575089705"><ele>528.1666666666666</ele><time>2026-04-26T09:42:46Z</time></trkpt><trkpt lat="43.22918591732365" lon="12.786420375626141"><ele>527.0</ele><time>2026-04-26T09:42:47Z</time></trkpt><trkpt lat="43.229207607600515" lon="12.786516627807105"><ele>527.0</ele><time>2026-04-26T09:42:48Z</time></trkpt><trkpt lat="43.2292956733176" lon="12.786584596235988"><ele>527.0</ele><time>2026-04-26T09:42:49Z</time></trkpt><trkpt lat="43.2293228485463" lon="12.786672851290351"><ele>527.0</ele><time>2026-04-26T09:42:50Z</time></trkpt><trkpt lat="43.22933913629663" lon="12.786811579446928"><ele>527.0</ele><time>2026-04-26T09:42:52Z</time></trkpt><trkpt lat="43.22927194716796" lon="12.78691139102027"><ele>527.0</ele><time>2026-04-26T09:42:55Z</time></trkpt><trkpt lat="43.2292918750749" lon="12.787029584530757"><ele>527.6</ele><time>2026-04-26T09:43:04Z</time></trkpt><trkpt lat="43.22935477301874" lon="12.787145667355682"><ele>528.2</ele><time>2026-04-26T09:43:06Z</time></trkpt><trkpt lat="43.229346391113125" lon="12.787316528243208"><ele>528.8</ele><time>2026-04-26T09:43:08Z</time></trkpt><trkpt lat="43.22936971027699" lon="12.787422143091192"><ele>529.4</ele><time>2026-04-26T09:43:09Z</time></trkpt><trkpt lat="43.22938983894676" lon="12.787518554605214"><ele>530.0</ele><time>2026-04-26T09:43:10Z</time></trkpt><trkpt lat="43.229408802981375" lon="12.787613200632796"><ele>530.2</ele><time>2026-04-26T09:43:11Z</time></trkpt><trkpt lat="43.22945468770257" lon="12.787725661595616"><ele>530.4</ele><time>2026-04-26T09:43:12Z</time></trkpt><trkpt lat="43.229468269829425" lon="12.787830383864415"><ele>530.6</ele><time>2026-04-26T09:43:13Z</time></trkpt><trkpt lat="43.22949311365305" lon="12.787970584381808"><ele>530.8</ele><time>2026-04-26T09:43:15Z</time></trkpt><trkpt lat="43.229451257637095" lon="12.788035466392166"><ele>531.0</ele><time>2026-04-26T09:43:18Z</time></trkpt><trkpt lat="43.229418067557766" lon="12.788190614867508"><ele>531.0</ele><time>2026-04-26T09:43:30Z</time></trkpt><trkpt lat="43.22941652246941" lon="12.788332258690751"><ele>531.0</ele><time>2026-04-26T09:43:32Z</time></trkpt><trkpt lat="43.2294269622782" lon="12.788472687429843"><ele>531.0</ele><time>2026-04-26T09:43:35Z</time></trkpt><trkpt lat="43.229450015096155" lon="12.788610958832304"><ele>531.0</ele><time>2026-04-26T09:43:37Z</time></trkpt><trkpt lat="43.229452370760306" lon="12.788751061719529"><ele>531.0</ele><time>2026-04-26T09:43:39Z</time></trkpt><trkpt lat="43.22945483347307" lon="12.788897531322249"><ele>530.8333333333334</ele><time>2026-04-26T09:43:41Z</time></trkpt><trkpt lat="43.22945744362709" lon="12.789052769979694"><ele>530.6666666666666</ele><time>2026-04-26T09:43:43Z</time></trkpt><trkpt lat="43.22945935422009" lon="12.789166402326988"><ele>530.5</ele><time>2026-04-26T09:43:45Z</time></trkpt><trkpt lat="43.22946098312872" lon="12.789263281402574"><ele>530.3333333333333</ele><time>2026-04-26T09:43:48Z</time></trkpt><trkpt lat="43.2295138908521" lon="12.789358889557489"><ele>530.1666666666666</ele><time>2026-04-26T09:44:13Z</time></trkpt><trkpt lat="43.22951141478236" lon="12.789450910724948"><ele>530.0</ele><time>2026-04-26T09:44:14Z</time></trkpt><trkpt lat="43.22952814331232" lon="12.789612390869905"><ele>529.8333333333333</ele><time>2026-04-26T09:44:16Z</time></trkpt><trkpt lat="43.22955114289123" lon="12.789694393962403"><ele>529.6666666666666</ele><time>2026-04-26T09:44:17Z</time></trkpt><trkpt lat="43.229583697227774" lon="12.78978029547428"><ele>529.5</ele><time>2026-04-26T09:44:18Z</time></trkpt><trkpt lat="43.229626365887" lon="12.789853926236328"><ele>529.3333333333334</ele><time>2026-04-26T09:44:19Z</time></trkpt><trkpt lat="43.229639656957936" lon="12.790007561674608"><ele>529.1666666666667</ele><time>2026-04-26T09:44:20Z</time></trkpt><trkpt lat="43.22971613148882" lon="12.790063829200447"><ele>529.0</ele><time>2026-04-26T09:44:21Z</time></trkpt><trkpt lat="43.22979296921487" lon="12.790117892954393"><ele>527.8333333333334</ele><time>2026-04-26T09:44:22Z</time></trkpt><trkpt lat="43.229878477331766" lon="12.790149007086756"><ele>526.6666666666667</ele><time>2026-04-26T09:44:23Z</time></trkpt><trkpt lat="43.229957774624644" lon="12.79019474640532"><ele>525.5</ele><time>2026-04-26T09:44:24Z</time></trkpt><trkpt lat="43.23002742924287" lon="12.790223665285607"><ele>524.3333333333334</ele><time>2026-04-26T09:44:25Z</time></trkpt><trkpt lat="43.23015517978375" lon="12.790217941155174"><ele>523.1666666666666</ele><time>2026-04-26T09:44:27Z</time></trkpt><trkpt lat="43.23021629820288" lon="12.790194897300644"><ele>522.0</ele><time>2026-04-26T09:44:28Z</time></trkpt><trkpt lat="43.23031710914523" lon="12.790097714155669"><ele>521.4285714285714</ele><time>2026-04-26T09:44:30Z</time></trkpt><trkpt lat="43.23036463728911" lon="12.790028697635622"><ele>520.8571428571429</ele><time>2026-04-26T09:44:31Z</time></trkpt><trkpt lat="43.23041285846915" lon="12.789959349755174"><ele>520.2857142857142</ele><time>2026-04-26T09:44:32Z</time></trkpt><trkpt lat="43.230463446325885" lon="12.789883249741044"><ele>519.7142857142858</ele><time>2026-04-26T09:44:33Z</time></trkpt><trkpt lat="43.230510186598366" lon="12.789804706431019"><ele>519.1428571428571</ele><time>2026-04-26T09:44:34Z</time></trkpt><trkpt lat="43.23055996686871" lon="12.789731747480452"><ele>518.5714285714286</ele><time>2026-04-26T09:44:35Z</time></trkpt><trkpt lat="43.230590243326404" lon="12.78964490602155"><ele>518.0</ele><time>2026-04-26T09:44:36Z</time></trkpt><trkpt lat="43.23063287764465" lon="12.78957020790433"><ele>519.3333333333333</ele><time>2026-04-26T09:44:37Z</time></trkpt><trkpt lat="43.23068167028136" lon="12.789495498321829"><ele>520.6666666666666</ele><time>2026-04-26T09:44:38Z</time></trkpt><trkpt lat="43.23073240591312" lon="12.78942308428063"><ele>522.0</ele><time>2026-04-26T09:44:39Z</time></trkpt><trkpt lat="43.23079061855853" lon="12.789345062243303"><ele>523.3333333333334</ele><time>2026-04-26T09:44:40Z</time></trkpt><trkpt lat="43.2308501556902" lon="12.789256832703726"><ele>524.6666666666667</ele><time>2026-04-26T09:44:41Z</time></trkpt><trkpt lat="43.230914517512225" lon="12.789196092012952"><ele>526.0</ele><time>2026-04-26T09:44:42Z</time></trkpt><trkpt lat="43.230973147497494" lon="12.78911301622686"><ele>526.0</ele><time>2026-04-26T09:44:43Z</time></trkpt><trkpt lat="43.231027743057766" lon="12.78903565695619"><ele>526.0</ele><time>2026-04-26T09:44:44Z</time></trkpt><trkpt lat="43.23107622290479" lon="12.788966963397518"><ele>526.0</ele><time>2026-04-26T09:44:45Z</time></trkpt><trkpt lat="43.23111298469361" lon="12.788883862779079"><ele>526.0</ele><time>2026-04-26T09:44:46Z</time></trkpt><trkpt lat="43.231157599596834" lon="12.788822391674726"><ele>526.0</ele><time>2026-04-26T09:44:47Z</time></trkpt><trkpt lat="43.23123668555596" lon="12.788715074297954"><ele>526.0</ele><time>2026-04-26T09:44:49Z</time></trkpt><trkpt lat="43.231299969090294" lon="12.788638233348836"><ele>526.0</ele><time>2026-04-26T09:44:51Z</time></trkpt><trkpt lat="43.23134513397042" lon="12.78856727173541"><ele>526.0</ele><time>2026-04-26T09:44:54Z</time></trkpt><trkpt lat="43.23141065192103" lon="12.788532703710075"><ele>526.0</ele><time>2026-04-26T09:44:58Z</time></trkpt><trkpt lat="43.231459955509315" lon="12.788469242291105"><ele>526.0</ele><time>2026-04-26T09:45:01Z</time></trkpt><trkpt lat="43.23155745821395" lon="12.788467731525328"><ele>526.0</ele><time>2026-04-26T09:45:20Z</time></trkpt><trkpt lat="43.231624159810615" lon="12.788460486429727"><ele>526.0</ele><time>2026-04-26T09:45:23Z</time></trkpt><trkpt lat="43.23161128118877" lon="12.788365641638277"><ele>526.0</ele><time>2026-04-26T09:45:27Z</time></trkpt><trkpt lat="43.2315975593358" lon="12.788254606376245"><ele>527.8</ele><time>2026-04-26T09:45:30Z</time></trkpt><trkpt lat="43.23162888184105" lon="12.7881581786649"><ele>529.6</ele><time>2026-04-26T09:45:32Z</time></trkpt><trkpt lat="43.23166706837936" lon="12.788070037093473"><ele>531.4</ele><time>2026-04-26T09:45:34Z</time></trkpt><trkpt lat="43.23167658179057" lon="12.787939481950028"><ele>533.2</ele><time>2026-04-26T09:45:36Z</time></trkpt><trkpt lat="43.2316132086739" lon="12.787829351042417"><ele>535.0</ele><time>2026-04-26T09:45:38Z</time></trkpt><trkpt lat="43.23156860324537" lon="12.787698487979247"><ele>536.6</ele><time>2026-04-26T09:45:40Z</time></trkpt><trkpt lat="43.2315138889769" lon="12.787567716153108"><ele>538.2</ele><time>2026-04-26T09:45:42Z</time></trkpt><trkpt lat="43.23145894156922" lon="12.787460740215097"><ele>539.8</ele><time>2026-04-26T09:45:44Z</time></trkpt><trkpt lat="43.231386382431765" lon="12.787349798049732"><ele>541.4</ele><time>2026-04-26T09:45:46Z</time></trkpt><trkpt lat="43.231329939004006" lon="12.787248264109929"><ele>543.0</ele><time>2026-04-26T09:45:48Z</time></trkpt><trkpt lat="43.231263491371415" lon="12.787165949524464"><ele>540.6666666666666</ele><time>2026-04-26T09:45:50Z</time></trkpt><trkpt lat="43.23120938177657" lon="12.787090568751012"><ele>538.3333333333334</ele><time>2026-04-26T09:45:52Z</time></trkpt><trkpt lat="43.231147593300044" lon="12.786989940654449"><ele>536.0</ele><time>2026-04-26T09:45:54Z</time></trkpt><trkpt lat="43.23108404342809" lon="12.786895145215531"><ele>533.6666666666667</ele><time>2026-04-26T09:45:56Z</time></trkpt><trkpt lat="43.23105077123244" lon="12.786794887096681"><ele>531.3333333333334</ele><time>2026-04-26T09:45:58Z</time></trkpt><trkpt lat="43.231012645481925" lon="12.78672184455872"><ele>529.0</ele><time>2026-04-26T09:46:01Z</time></trkpt><trkpt lat="43.23099632840049" lon="12.786627403578578"><ele>529.0</ele><time>2026-04-26T09:46:04Z</time></trkpt><trkpt lat="43.23097755830059" lon="12.78648261810796"><ele>529.0</ele><time>2026-04-26T09:46:06Z</time></trkpt><trkpt lat="43.23097737913822" lon="12.786372887466591"><ele>529.0</ele><time>2026-04-26T09:46:08Z</time></trkpt><trkpt lat="43.23104007420342" lon="12.786251095894913"><ele>529.0</ele><time>2026-04-26T09:46:11Z</time></trkpt><trkpt lat="43.23107340333828" lon="12.786127903563926"><ele>529.0</ele><time>2026-04-26T09:46:13Z</time></trkpt><trkpt lat="43.231116662776806" lon="12.786038842895849"><ele>529.6666666666667</ele><time>2026-04-26T09:46:15Z</time></trkpt><trkpt lat="43.2311329422968" lon="12.785931005854126"><ele>530.3333333333334</ele><time>2026-04-26T09:46:17Z</time></trkpt><trkpt lat="43.23115320958264" lon="12.785844513218453"><ele>531.0</ele><time>2026-04-26T09:46:19Z</time></trkpt><trkpt lat="43.23115901642944" lon="12.785742237873768"><ele>531.6666666666666</ele><time>2026-04-26T09:46:21.999Z</time></trkpt><trkpt lat="43.23115429979672" lon="12.785652826955147"><ele>532.3333333333333</ele><time>2026-04-26T09:46:25.998Z</time></trkpt><trkpt lat="43.231152873462094" lon="12.785562644276228"><ele>533.0</ele><time>2026-04-26T09:46:29.998Z</time></trkpt><trkpt lat="43.231162536712844" lon="12.785420783854413"><ele>533.0</ele><time>2026-04-26T09:46:31.998Z</time></trkpt><trkpt lat="43.23115344531047" lon="12.7852980230748"><ele>533.0</ele><time>2026-04-26T09:46:33.998Z</time></trkpt><trkpt lat="43.231206487701655" lon="12.785212799133577"><ele>533.0</ele><time>2026-04-26T09:46:35.998Z</time></trkpt><trkpt lat="43.231440940188776" lon="12.785211289396358"><ele>533.0</ele><time>2026-04-26T09:46:42.998Z</time></trkpt><trkpt lat="43.23153952392486" lon="12.785187439338703"><ele>534.0</ele><time>2026-04-26T09:46:44.998Z</time></trkpt><trkpt lat="43.23166137416181" lon="12.78503645819617"><ele>535.0</ele><time>2026-04-26T09:46:45.998Z</time></trkpt><trkpt lat="43.23171628705613" lon="12.785085170028296"><ele>536.0</ele><time>2026-04-26T09:46:46.998Z</time></trkpt><trkpt lat="43.23177929367318" lon="12.785141630714351"><ele>537.0</ele><time>2026-04-26T09:46:47.998Z</time></trkpt><trkpt lat="43.231866572527046" lon="12.785219949560263"><ele>538.0</ele><time>2026-04-26T09:46:49.998Z</time></trkpt><trkpt lat="43.231940222287555" lon="12.785286043756194"><ele>538.8333333333334</ele><time>2026-04-26T09:46:51.998Z</time></trkpt><trkpt lat="43.23201464870787" lon="12.785316815931376"><ele>539.6666666666667</ele><time>2026-04-26T09:46:53.998Z</time></trkpt><trkpt lat="43.232075760735576" lon="12.785349502448208"><ele>540.5</ele><time>2026-04-26T09:46:55.998Z</time></trkpt><trkpt lat="43.23216311189707" lon="12.785385979164861"><ele>541.3333333333334</ele><time>2026-04-26T09:46:57.998Z</time></trkpt><trkpt lat="43.23225276015404" lon="12.785372461802467"><ele>542.1666666666666</ele><time>2026-04-26T09:46:59.998Z</time></trkpt><trkpt lat="43.23233413568219" lon="12.785350425937906"><ele>543.0</ele><time>2026-04-26T09:47:01.998Z</time></trkpt><trkpt lat="43.23239599635487" lon="12.785329319436958"><ele>543.0</ele><time>2026-04-26T09:47:02.998Z</time></trkpt><trkpt lat="43.232461200241744" lon="12.785295396132172"><ele>543.0</ele><time>2026-04-26T09:47:05.998Z</time></trkpt><trkpt lat="43.2325581684167" lon="12.785252722795658"><ele>543.0</ele><time>2026-04-26T09:47:07.998Z</time></trkpt><trkpt lat="43.23274747266558" lon="12.785307477525084"><ele>543.0</ele><time>2026-04-26T09:47:35.998Z</time></trkpt><trkpt lat="43.232800591038746" lon="12.785370438477097"><ele>543.0</ele><time>2026-04-26T09:47:36.998Z</time></trkpt><trkpt lat="43.2328306765861" lon="12.785466896659496"><ele>543.0</ele><time>2026-04-26T09:47:37.998Z</time></trkpt><trkpt lat="43.232873468290286" lon="12.785532459272845"><ele>543.0</ele><time>2026-04-26T09:47:38.998Z</time></trkpt><trkpt lat="43.2329188520764" lon="12.785601656143095"><ele>543.0</ele><time>2026-04-26T09:47:39.998Z</time></trkpt><trkpt lat="43.23300148798303" lon="12.785722588731394"><ele>543.0</ele><time>2026-04-26T09:47:41.998Z</time></trkpt><trkpt lat="43.233086225964506" lon="12.785846594098185"><ele>543.0</ele><time>2026-04-26T09:47:43.998Z</time></trkpt><trkpt lat="43.23312957537079" lon="12.785910027663435"><ele>543.0</ele><time>2026-04-26T09:47:44.998Z</time></trkpt><trkpt lat="43.233221153150176" lon="12.786050920435255"><ele>544.0</ele><time>2026-04-26T09:47:46.998Z</time></trkpt><trkpt lat="43.233267770282055" lon="12.786123548871625"><ele>545.0</ele><time>2026-04-26T09:47:47.998Z</time></trkpt><trkpt lat="43.23331204953317" lon="12.786192558128453"><ele>546.0</ele><time>2026-04-26T09:47:48.998Z</time></trkpt><trkpt lat="43.23336654300718" lon="12.786277487027068"><ele>547.0</ele><time>2026-04-26T09:47:49.998Z</time></trkpt><trkpt lat="43.23341182110215" lon="12.78635419124508"><ele>548.0</ele><time>2026-04-26T09:47:50.998Z</time></trkpt><trkpt lat="43.233457840341394" lon="12.786491533899971"><ele>549.0</ele><time>2026-04-26T09:47:52.998Z</time></trkpt><trkpt lat="43.233482631600126" lon="12.786577906710402"><ele>549.0</ele><time>2026-04-26T09:47:53.998Z</time></trkpt><trkpt lat="43.23350595909462" lon="12.786660654825743"><ele>549.0</ele><time>2026-04-26T09:47:54.998Z</time></trkpt><trkpt lat="43.23352947547229" lon="12.786744073036912"><ele>549.0</ele><time>2026-04-26T09:47:55.998Z</time></trkpt><trkpt lat="43.23355481996196" lon="12.786838960952936"><ele>549.0</ele><time>2026-04-26T09:47:56.998Z</time></trkpt><trkpt lat="43.233586934522826" lon="12.787018446296258"><ele>549.0</ele><time>2026-04-26T09:47:58.998Z</time></trkpt><trkpt lat="43.23359622334288" lon="12.787148882464214"><ele>549.0</ele><time>2026-04-26T09:47:59.998Z</time></trkpt><trkpt lat="43.2336025739914" lon="12.787255271842984"><ele>550.1666666666666</ele><time>2026-04-26T09:48:00.998Z</time></trkpt><trkpt lat="43.2336077952403" lon="12.787372310113522"><ele>551.3333333333334</ele><time>2026-04-26T09:48:01.998Z</time></trkpt><trkpt lat="43.23361106413612" lon="12.787483151322178"><ele>552.5</ele><time>2026-04-26T09:48:02.998Z</time></trkpt><trkpt lat="43.233624317107" lon="12.787626324332106"><ele>553.6666666666667</ele><time>2026-04-26T09:48:03.998Z</time></trkpt><trkpt lat="43.23364520892088" lon="12.78776531241829"><ele>554.8333333333334</ele><time>2026-04-26T09:48:04.998Z</time></trkpt><trkpt lat="43.23366752335593" lon="12.78785650909849"><ele>556.0</ele><time>2026-04-26T09:48:05.998Z</time></trkpt><trkpt lat="43.23369736106489" lon="12.787959451602452"><ele>556.6</ele><time>2026-04-26T09:48:06.998Z</time></trkpt><trkpt lat="43.23373090596774" lon="12.788066249007834"><ele>557.2</ele><time>2026-04-26T09:48:07.998Z</time></trkpt><trkpt lat="43.23375846177026" lon="12.788215890360153"><ele>557.8</ele><time>2026-04-26T09:48:09.998Z</time></trkpt><trkpt lat="43.23375389093437" lon="12.788367203846972"><ele>558.4</ele><time>2026-04-26T09:48:10.998Z</time></trkpt><trkpt lat="43.233753890935624" lon="12.788492425365462"><ele>559.0</ele><time>2026-04-26T09:48:11.998Z</time></trkpt><trkpt lat="43.2337536793202" lon="12.788583636885148"><ele>559.0</ele><time>2026-04-26T09:48:12.998Z</time></trkpt><trkpt lat="43.23374965949427" lon="12.788671639046"><ele>559.0</ele><time>2026-04-26T09:48:13.998Z</time></trkpt><trkpt lat="43.233728197367626" lon="12.788821003884635"><ele>559.0</ele><time>2026-04-26T09:48:15.998Z</time></trkpt><trkpt lat="43.23370319524412" lon="12.788919820075838"><ele>559.0</ele><time>2026-04-26T09:48:18.998Z</time></trkpt><trkpt lat="43.233670420890476" lon="12.789042300569845"><ele>559.0</ele><time>2026-04-26T09:48:34.998Z</time></trkpt><trkpt lat="43.23374736630262" lon="12.789257401152007"><ele>559.0</ele><time>2026-04-26T09:48:59Z</time></trkpt><trkpt lat="43.23378350245935" lon="12.789338599870456"><ele>559.0</ele><time>2026-04-26T09:49:00Z</time></trkpt><trkpt lat="43.23382951631559" lon="12.789420556567123"><ele>559.0</ele><time>2026-04-26T09:49:01Z</time></trkpt><trkpt lat="43.23385784625959" lon="12.789508768286684"><ele>559.0</ele><time>2026-04-26T09:49:02Z</time></trkpt><trkpt lat="43.233881000839084" lon="12.789658999680134"><ele>559.0</ele><time>2026-04-26T09:49:04Z</time></trkpt><trkpt lat="43.23385273115403" lon="12.78981514808103"><ele>559.0</ele><time>2026-04-26T09:49:06Z</time></trkpt><trkpt lat="43.233829541049275" lon="12.789905753325225"><ele>558.5714285714286</ele><time>2026-04-26T09:49:07Z</time></trkpt><trkpt lat="43.23380522295758" lon="12.789992683390686"><ele>558.1428571428572</ele><time>2026-04-26T09:49:08Z</time></trkpt><trkpt lat="43.2337797455793" lon="12.790075966393271"><ele>557.7142857142858</ele><time>2026-04-26T09:49:09Z</time></trkpt><trkpt lat="43.23374376030756" lon="12.790156837192441"><ele>557.2857142857143</ele><time>2026-04-26T09:49:10Z</time></trkpt><trkpt lat="43.23370528301058" lon="12.790243692738166"><ele>556.8571428571429</ele><time>2026-04-26T09:49:11Z</time></trkpt><trkpt lat="43.23365966815113" lon="12.790326334230999"><ele>556.4285714285714</ele><time>2026-04-26T09:49:12Z</time></trkpt><trkpt lat="43.23361126724804" lon="12.790417246996563"><ele>556.0</ele><time>2026-04-26T09:49:13Z</time></trkpt><trkpt lat="43.2335643766395" lon="12.790504054256294"><ele>558.1666666666667</ele><time>2026-04-26T09:49:14Z</time></trkpt><trkpt lat="43.23352269835823" lon="12.790592723179882"><ele>560.3333333333334</ele><time>2026-04-26T09:49:15Z</time></trkpt><trkpt lat="43.233480058562535" lon="12.790678795524215"><ele>562.5</ele><time>2026-04-26T09:49:16Z</time></trkpt><trkpt lat="43.23342683510505" lon="12.79073713081057"><ele>564.6666666666666</ele><time>2026-04-26T09:49:17Z</time></trkpt><trkpt lat="43.233347822775556" lon="12.790854430305522"><ele>566.8333333333333</ele><time>2026-04-26T09:49:19Z</time></trkpt><trkpt lat="43.23328208938904" lon="12.790965066766146"><ele>569.0</ele><time>2026-04-26T09:49:21Z</time></trkpt><trkpt lat="43.23320335665945" lon="12.791103277377083"><ele>569.1666666666666</ele><time>2026-04-26T09:49:23Z</time></trkpt><trkpt lat="43.23316206393805" lon="12.791191924164371"><ele>569.3333333333333</ele><time>2026-04-26T09:49:24Z</time></trkpt><trkpt lat="43.233114018968514" lon="12.791285942007868"><ele>569.5</ele><time>2026-04-26T09:49:25Z</time></trkpt><trkpt lat="43.2330621031117" lon="12.791391864233448"><ele>569.6666666666666</ele><time>2026-04-26T09:49:26Z</time></trkpt><trkpt lat="43.23300783263335" lon="12.791493135385261"><ele>569.8333333333334</ele><time>2026-04-26T09:49:27Z</time></trkpt><trkpt lat="43.23294887313181" lon="12.791591731799983"><ele>570.0</ele><time>2026-04-26T09:49:28Z</time></trkpt><trkpt lat="43.23288543988575" lon="12.791688450023297"><ele>570.0</ele><time>2026-04-26T09:49:29Z</time></trkpt><trkpt lat="43.23282497077137" lon="12.7917763375244"><ele>570.0</ele><time>2026-04-26T09:49:30Z</time></trkpt><trkpt lat="43.232766356494224" lon="12.791856943572167"><ele>570.0</ele><time>2026-04-26T09:49:31Z</time></trkpt><trkpt lat="43.23271302071728" lon="12.791925642626047"><ele>570.0</ele><time>2026-04-26T09:49:32Z</time></trkpt><trkpt lat="43.23262466457163" lon="12.792095878917728"><ele>570.0</ele><time>2026-04-26T09:49:34Z</time></trkpt><trkpt lat="43.232599675524924" lon="12.792191668536045"><ele>572.1428571428571</ele><time>2026-04-26T09:49:35Z</time></trkpt><trkpt lat="43.232582558091465" lon="12.792301863754416"><ele>574.2857142857143</ele><time>2026-04-26T09:49:36Z</time></trkpt><trkpt lat="43.23256805822788" lon="12.792404670156282"><ele>576.4285714285714</ele><time>2026-04-26T09:49:37Z</time></trkpt><trkpt lat="43.23255511310666" lon="12.792506954584209"><ele>578.5714285714286</ele><time>2026-04-26T09:49:38Z</time></trkpt><trkpt lat="43.23254201448702" lon="12.792610451547676"><ele>580.7142857142857</ele><time>2026-04-26T09:49:39Z</time></trkpt><trkpt lat="43.23252943225527" lon="12.792697124339309"><ele>582.8571428571429</ele><time>2026-04-26T09:49:40Z</time></trkpt><trkpt lat="43.23251525052268" lon="12.792782640747445"><ele>585.0</ele><time>2026-04-26T09:49:41Z</time></trkpt><trkpt lat="43.23249702235636" lon="12.792867811734316"><ele>586.3333333333334</ele><time>2026-04-26T09:49:42Z</time></trkpt><trkpt lat="43.23246184114223" lon="12.792965218538367"><ele>587.6666666666666</ele><time>2026-04-26T09:49:43Z</time></trkpt><trkpt lat="43.23241632361691" lon="12.79306376342904"><ele>589.0</ele><time>2026-04-26T09:49:44Z</time></trkpt><trkpt lat="43.23237001053847" lon="12.793154479543722"><ele>590.3333333333333</ele><time>2026-04-26T09:49:45Z</time></trkpt><trkpt lat="43.23232796548819" lon="12.793255083026908"><ele>591.6666666666666</ele><time>2026-04-26T09:49:46Z</time></trkpt><trkpt lat="43.23227475673457" lon="12.79332631380293"><ele>593.0</ele><time>2026-04-26T09:49:47Z</time></trkpt><trkpt lat="43.232235723858835" lon="12.793428137795008"><ele>595.5</ele><time>2026-04-26T09:49:48Z</time></trkpt><trkpt lat="43.23217600929713" lon="12.793514640070907"><ele>598.0</ele><time>2026-04-26T09:49:49Z</time></trkpt><trkpt lat="43.23212353504754" lon="12.79359373893048"><ele>600.5</ele><time>2026-04-26T09:49:50Z</time></trkpt><trkpt lat="43.23206801161731" lon="12.79368492256587"><ele>603.0</ele><time>2026-04-26T09:49:51Z</time></trkpt><trkpt lat="43.2319959339459" lon="12.79376801058661"><ele>605.5</ele><time>2026-04-26T09:49:52Z</time></trkpt><trkpt lat="43.23193829324742" lon="12.793864203382142"><ele>608.0</ele><time>2026-04-26T09:49:53Z</time></trkpt><trkpt lat="43.23188140700398" lon="12.793962238502417"><ele>608.0</ele><time>2026-04-26T09:49:54Z</time></trkpt><trkpt lat="43.231829101082454" lon="12.794053412808509"><ele>608.0</ele><time>2026-04-26T09:49:55Z</time></trkpt><trkpt lat="43.2317957895497" lon="12.79415019277663"><ele>608.0</ele><time>2026-04-26T09:49:56Z</time></trkpt><trkpt lat="43.23174093912056" lon="12.794215067606013"><ele>608.0</ele><time>2026-04-26T09:49:57Z</time></trkpt><trkpt lat="43.23169610522737" lon="12.794308215103857"><ele>608.0</ele><time>2026-04-26T09:49:58Z</time></trkpt><trkpt lat="43.23165031029812" lon="12.794416512566164"><ele>608.0</ele><time>2026-04-26T09:49:59Z</time></trkpt><trkpt lat="43.231604552141526" lon="12.794523370685985"><ele>607.0</ele><time>2026-04-26T09:50:00Z</time></trkpt><trkpt lat="43.231555018958" lon="12.7946224466813"><ele>606.0</ele><time>2026-04-26T09:50:01Z</time></trkpt><trkpt lat="43.23152782785763" lon="12.794725848403168"><ele>605.0</ele><time>2026-04-26T09:50:02Z</time></trkpt><trkpt lat="43.23149266506428" lon="12.794814593376254"><ele>604.0</ele><time>2026-04-26T09:50:03Z</time></trkpt><trkpt lat="43.23146412220957" lon="12.79491175596434"><ele>603.0</ele><time>2026-04-26T09:50:04Z</time></trkpt><trkpt lat="43.23144028482512" lon="12.795005765227407"><ele>602.0</ele><time>2026-04-26T09:50:05Z</time></trkpt><trkpt lat="43.2314172322677" lon="12.795092292661922"><ele>603.1666666666666</ele><time>2026-04-26T09:50:06Z</time></trkpt><trkpt lat="43.231418868431355" lon="12.795196753413657"><ele>604.3333333333333</ele><time>2026-04-26T09:50:08Z</time></trkpt><trkpt lat="43.23147016906373" lon="12.795262848791316"><ele>605.5</ele><time>2026-04-26T09:50:15Z</time></trkpt><trkpt lat="43.23154059032765" lon="12.795236972736229"><ele>606.6666666666666</ele><time>2026-04-26T09:50:18Z</time></trkpt><trkpt lat="43.231608110533955" lon="12.795165510873312"><ele>607.8333333333334</ele><time>2026-04-26T09:50:28Z</time></trkpt><trkpt lat="43.231703877664124" lon="12.795156230810324"><ele>609.0</ele><time>2026-04-26T09:50:31Z</time></trkpt><trkpt lat="43.23177076451441" lon="12.795174590435655"><ele>611.8</ele><time>2026-04-26T09:50:33Z</time></trkpt><trkpt lat="43.23185654765162" lon="12.79513089504724"><ele>614.5999999999999</ele><time>2026-04-26T09:50:35Z</time></trkpt><trkpt lat="43.23195445069182" lon="12.79512284411658"><ele>617.4</ele><time>2026-04-26T09:50:38Z</time></trkpt><trkpt lat="43.2320474807116" lon="12.795097097135447"><ele>620.1999999999999</ele><time>2026-04-26T09:50:41Z</time></trkpt><trkpt lat="43.23212025354206" lon="12.795063895220114"><ele>623.0</ele><time>2026-04-26T09:50:43Z</time></trkpt><trkpt lat="43.23221022420532" lon="12.795056364473874"><ele>623.0</ele><time>2026-04-26T09:50:45Z</time></trkpt><trkpt lat="43.23227669304123" lon="12.795040576264999"><ele>623.0</ele><time>2026-04-26T09:50:47Z</time></trkpt><trkpt lat="43.232343192813296" lon="12.795023930896638"><ele>623.0</ele><time>2026-04-26T09:50:50Z</time></trkpt><trkpt lat="43.232410410314664" lon="12.79503541190444"><ele>623.0</ele><time>2026-04-26T09:50:56Z</time></trkpt><trkpt lat="43.23247065014038" lon="12.79498403475432"><ele>623.0</ele><time>2026-04-26T09:51:00Z</time></trkpt><trkpt lat="43.23252975509497" lon="12.794946536663778"><ele>623.0</ele><time>2026-04-26T09:51:09.999Z</time></trkpt><trkpt lat="43.23273899728239" lon="12.794931002494039"><ele>626.0</ele><time>2026-04-26T09:51:16.999Z</time></trkpt><trkpt lat="43.23274905218642" lon="12.795051688640674"><ele>629.0</ele><time>2026-04-26T09:51:21.999Z</time></trkpt><trkpt lat="43.232702793891704" lon="12.795123436274693"><ele>632.0</ele><time>2026-04-26T09:51:23.999Z</time></trkpt><trkpt lat="43.23264128105583" lon="12.795184976729375"><ele>635.0</ele><time>2026-04-26T09:51:26.999Z</time></trkpt><trkpt lat="43.232757408631095" lon="12.795197578237248"><ele>638.0</ele><time>2026-04-26T09:51:30.999Z</time></trkpt><trkpt lat="43.23286772792159" lon="12.795215625076073"><ele>641.4</ele><time>2026-04-26T09:51:32.999Z</time></trkpt><trkpt lat="43.232977777967605" lon="12.795271116068548"><ele>644.8</ele><time>2026-04-26T09:51:34.999Z</time></trkpt><trkpt lat="43.233013561349985" lon="12.795416067813786"><ele>648.2</ele><time>2026-04-26T09:51:35.999Z</time></trkpt><trkpt lat="43.23312170076904" lon="12.795434856046485"><ele>651.6</ele><time>2026-04-26T09:51:37.999Z</time></trkpt><trkpt lat="43.23322590249083" lon="12.795457181808692"><ele>655.0</ele><time>2026-04-26T09:51:39.999Z</time></trkpt><trkpt lat="43.23333673025117" lon="12.795506522198913"><ele>658.1666666666667</ele><time>2026-04-26T09:51:41.999Z</time></trkpt><trkpt lat="43.233426462442814" lon="12.795529520447165"><ele>661.3333333333334</ele><time>2026-04-26T09:51:43.999Z</time></trkpt><trkpt lat="43.23348221966255" lon="12.795579302098345"><ele>664.5</ele><time>2026-04-26T09:51:53.999Z</time></trkpt><trkpt lat="43.23354634607027" lon="12.795611379938986"><ele>667.6666666666666</ele><time>2026-04-26T09:51:58.999Z</time></trkpt><trkpt lat="43.23351271623408" lon="12.795733224430409"><ele>670.8333333333333</ele><time>2026-04-26T09:52:01.999Z</time></trkpt><trkpt lat="43.23347621853484" lon="12.795831174090823"><ele>674.0</ele><time>2026-04-26T09:52:03.999Z</time></trkpt><trkpt lat="43.233429761555584" lon="12.795947234786421"><ele>674.8000000000001</ele><time>2026-04-26T09:52:05.999Z</time></trkpt><trkpt lat="43.23338784664029" lon="12.79602308774482"><ele>675.6</ele><time>2026-04-26T09:52:06.999Z</time></trkpt><trkpt lat="43.23332031594344" lon="12.79609065854908"><ele>676.4</ele><time>2026-04-26T09:52:07.999Z</time></trkpt><trkpt lat="43.23319460106498" lon="12.796048611170514"><ele>677.2</ele><time>2026-04-26T09:52:08.999Z</time></trkpt><trkpt lat="43.23313746400365" lon="12.79611788022268"><ele>678.0</ele><time>2026-04-26T09:52:10.999Z</time></trkpt><trkpt lat="43.232993268681234" lon="12.796213255091537"><ele>684.3333333333334</ele><time>2026-04-26T09:52:12.999Z</time></trkpt><trkpt lat="43.233185579493906" lon="12.796411245165796"><ele>690.6666666666667</ele><time>2026-04-26T09:52:13.999Z</time></trkpt><trkpt lat="43.23333812304578" lon="12.796394676860613"><ele>697.0</ele><time>2026-04-26T09:52:17.999Z</time></trkpt><trkpt lat="43.233416892113695" lon="12.796389293714972"><ele>697.0</ele><time>2026-04-26T09:52:18.999Z</time></trkpt><trkpt lat="43.23350143698641" lon="12.796383573933431"><ele>697.0</ele><time>2026-04-26T09:52:19.999Z</time></trkpt><trkpt lat="43.233584755935055" lon="12.796391109821743"><ele>697.0</ele><time>2026-04-26T09:52:20.999Z</time></trkpt><trkpt lat="43.2336707263445" lon="12.796380094654708"><ele>697.0</ele><time>2026-04-26T09:52:21.999Z</time></trkpt><trkpt lat="43.23375817490041" lon="12.79637515907749"><ele>697.0</ele><time>2026-04-26T09:52:22.999Z</time></trkpt><trkpt lat="43.233853831043334" lon="12.796397120472061"><ele>697.0</ele><time>2026-04-26T09:52:23.999Z</time></trkpt><trkpt lat="43.23394114005603" lon="12.796402310362849"><ele>698.6666666666667</ele><time>2026-04-26T09:52:24.999Z</time></trkpt><trkpt lat="43.23403224058127" lon="12.796407413446364"><ele>700.3333333333334</ele><time>2026-04-26T09:52:25.999Z</time></trkpt><trkpt lat="43.23412370090597" lon="12.79640529291066"><ele>702.0</ele><time>2026-04-26T09:52:26.999Z</time></trkpt><trkpt lat="43.23420572472099" lon="12.796400199748629"><ele>703.6666666666666</ele><time>2026-04-26T09:52:27.999Z</time></trkpt><trkpt lat="43.234283519676936" lon="12.796406533756803"><ele>705.3333333333333</ele><time>2026-04-26T09:52:29.999Z</time></trkpt><trkpt lat="43.23435418322964" lon="12.796430763418511"><ele>707.0</ele><time>2026-04-26T09:52:54.999Z</time></trkpt><trkpt lat="43.23441617069549" lon="12.796502526031018"><ele>707.0</ele><time>2026-04-26T09:52:56.999Z</time></trkpt><trkpt lat="43.23449143159511" lon="12.796597113880875"><ele>707.0</ele><time>2026-04-26T09:52:59.999Z</time></trkpt><trkpt lat="43.23456444293474" lon="12.796668209422716"><ele>707.0</ele><time>2026-04-26T09:53:01.999Z</time></trkpt><trkpt lat="43.234633034582" lon="12.796748463394115"><ele>707.0</ele><time>2026-04-26T09:53:03.999Z</time></trkpt><trkpt lat="43.23468775848856" lon="12.796820464336822"><ele>707.0</ele><time>2026-04-26T09:53:05.999Z</time></trkpt><trkpt lat="43.23474749811574" lon="12.79689140736848"><ele>707.0</ele><time>2026-04-26T09:53:07.999Z</time></trkpt><trkpt lat="43.234814331407534" lon="12.796933854210407"><ele>714.0</ele><time>2026-04-26T09:53:09.999Z</time></trkpt><trkpt lat="43.23488342339786" lon="12.79700419594065"><ele>721.0</ele><time>2026-04-26T09:53:11.999Z</time></trkpt><trkpt lat="43.234953400029255" lon="12.797071537522058"><ele>728.0</ele><time>2026-04-26T09:53:13.999Z</time></trkpt><trkpt lat="43.23505261626161" lon="12.797091152579743"><ele>735.0</ele><time>2026-04-26T09:53:15.999Z</time></trkpt><trkpt lat="43.23516048040714" lon="12.797125070319321"><ele>742.0</ele><time>2026-04-26T09:53:17.999Z</time></trkpt><trkpt lat="43.23526124562723" lon="12.79722240931408"><ele>742.0</ele><time>2026-04-26T09:53:19.999Z</time></trkpt><trkpt lat="43.235401448042204" lon="12.797219956631766"><ele>742.0</ele><time>2026-04-26T09:53:22.999Z</time></trkpt><trkpt lat="43.23547532901988" lon="12.797203979127778"><ele>742.0</ele><time>2026-04-26T09:53:23.999Z</time></trkpt><trkpt lat="43.23559424975136" lon="12.797228768754033"><ele>742.0</ele><time>2026-04-26T09:53:25.999Z</time></trkpt><trkpt lat="43.23566745223334" lon="12.797234192137227"><ele>742.0</ele><time>2026-04-26T09:53:26.999Z</time></trkpt><trkpt lat="43.23574553168829" lon="12.7972303359162"><ele>745.6</ele><time>2026-04-26T09:53:27.999Z</time></trkpt><trkpt lat="43.23582301227728" lon="12.797263122814355"><ele>749.2</ele><time>2026-04-26T09:53:28.999Z</time></trkpt><trkpt lat="43.235913760088316" lon="12.797272673664652"><ele>752.8</ele><time>2026-04-26T09:53:29.999Z</time></trkpt><trkpt lat="43.2360066700872" lon="12.797278270200007"><ele>756.4</ele><time>2026-04-26T09:53:30.999Z</time></trkpt><trkpt lat="43.23609385116107" lon="12.797271438606261"><ele>760.0</ele><time>2026-04-26T09:53:31.999Z</time></trkpt><trkpt lat="43.23619195812682" lon="12.797261080065107"><ele>760.0</ele><time>2026-04-26T09:53:32.999Z</time></trkpt><trkpt lat="43.236299435829395" lon="12.797248012393766"><ele>760.0</ele><time>2026-04-26T09:53:33.999Z</time></trkpt><trkpt lat="43.23638548982744" lon="12.797231369184367"><ele>760.0</ele><time>2026-04-26T09:53:34.999Z</time></trkpt><trkpt lat="43.23645299542059" lon="12.797192335034078"><ele>760.0</ele><time>2026-04-26T09:53:35.999Z</time></trkpt><trkpt lat="43.23652029696134" lon="12.797171429462226"><ele>760.0</ele><time>2026-04-26T09:53:36.999Z</time></trkpt><trkpt lat="43.23658460925919" lon="12.797167821592693"><ele>760.0</ele><time>2026-04-26T09:53:37.999Z</time></trkpt><trkpt lat="43.23664796292503" lon="12.797172599457086"><ele>763.8</ele><time>2026-04-26T09:53:38.999Z</time></trkpt><trkpt lat="43.236779717885" lon="12.797193705518996"><ele>767.6</ele><time>2026-04-26T09:53:40.999Z</time></trkpt><trkpt lat="43.23685801912464" lon="12.797195027070204"><ele>771.4000000000001</ele><time>2026-04-26T09:53:41.999Z</time></trkpt><trkpt lat="43.23692304534614" lon="12.797196124566398"><ele>775.2</ele><time>2026-04-26T09:53:42.999Z</time></trkpt><trkpt lat="43.23700097659343" lon="12.7971984380082"><ele>779.0</ele><time>2026-04-26T09:53:44.999Z</time></trkpt><trkpt lat="43.23711072246837" lon="12.797266398909553"><ele>779.0000000000001</ele><time>2026-04-26T09:53:46.999Z</time></trkpt><trkpt lat="43.23712109135321" lon="12.797169322004397"><ele>779.0</ele><time>2026-04-26T09:53:47.999Z</time></trkpt><trkpt lat="43.23714336048093" lon="12.797064823700673"><ele>779.0</ele><time>2026-04-26T09:53:49.999Z</time></trkpt><trkpt lat="43.237169849878" lon="12.796974821395242"><ele>779.0</ele><time>2026-04-26T09:53:51.999Z</time></trkpt><trkpt lat="43.23721167253645" lon="12.796862333247503"><ele>779.0000000000001</ele><time>2026-04-26T09:53:53.999Z</time></trkpt><trkpt lat="43.23724741251406" lon="12.796745313015613"><ele>779.0</ele><time>2026-04-26T09:53:55.999Z</time></trkpt><trkpt lat="43.23728571269578" lon="12.79662265374265"><ele>777.6</ele><time>2026-04-26T09:53:57.999Z</time></trkpt><trkpt lat="43.23732504381935" lon="12.796508481104313"><ele>776.2</ele><time>2026-04-26T09:53:59.999Z</time></trkpt><trkpt lat="43.23736620850457" lon="12.79638103741469"><ele>774.8000000000001</ele><time>2026-04-26T09:54:01.999Z</time></trkpt><trkpt lat="43.2374257420632" lon="12.796270910889616"><ele>773.4000000000001</ele><time>2026-04-26T09:54:03.999Z</time></trkpt><trkpt lat="43.23747365797755" lon="12.796151192864869"><ele>772.0</ele><time>2026-04-26T09:54:05.999Z</time></trkpt><trkpt lat="43.23751452999001" lon="12.796043903861987"><ele>766.6</ele><time>2026-04-26T09:54:07.999Z</time></trkpt><trkpt lat="43.237546134513785" lon="12.795911497297174"><ele>761.2</ele><time>2026-04-26T09:54:09.999Z</time></trkpt><trkpt lat="43.237597180976174" lon="12.795802384642228"><ele>755.8</ele><time>2026-04-26T09:54:11.999Z</time></trkpt><trkpt lat="43.23762754989177" lon="12.795676304182601"><ele>750.4</ele><time>2026-04-26T09:54:13.999Z</time></trkpt><trkpt lat="43.237634387244256" lon="12.795542560051285"><ele>745.0</ele><time>2026-04-26T09:54:15.999Z</time></trkpt><trkpt lat="43.23763565789215" lon="12.795407972115035"><ele>745.0</ele><time>2026-04-26T09:54:17.999Z</time></trkpt><trkpt lat="43.23764866859869" lon="12.79525977205926"><ele>745.0</ele><time>2026-04-26T09:54:19.999Z</time></trkpt><trkpt lat="43.237786790836914" lon="12.795205217071812"><ele>745.0</ele><time>2026-04-26T09:54:20.999Z</time></trkpt><trkpt lat="43.23778782970031" lon="12.795090899151228"><ele>745.0</ele><time>2026-04-26T09:54:22.999Z</time></trkpt><trkpt lat="43.237793971612156" lon="12.794992834424674"><ele>745.0</ele><time>2026-04-26T09:54:24.999Z</time></trkpt><trkpt lat="43.23780709340516" lon="12.794893394000665"><ele>737.0</ele><time>2026-04-26T09:54:27.999Z</time></trkpt><trkpt lat="43.237836087733484" lon="12.79480127054428"><ele>729.0</ele><time>2026-04-26T09:54:31.999Z</time></trkpt><trkpt lat="43.23783887970032" lon="12.79470659012382"><ele>721.0</ele><time>2026-04-26T09:54:34.999Z</time></trkpt><trkpt lat="43.23812929856828" lon="12.794401739354738"><ele>724.1999999999999</ele><time>2026-04-26T09:54:37.999Z</time></trkpt><trkpt lat="43.23826664270732" lon="12.7945131504643"><ele>727.4</ele><time>2026-04-26T09:54:41.999Z</time></trkpt><trkpt lat="43.238343129371025" lon="12.794573222653508"><ele>730.6</ele><time>2026-04-26T09:54:43.999Z</time></trkpt><trkpt lat="43.238414401395985" lon="12.794624584991999"><ele>733.8</ele><time>2026-04-26T09:54:45.999Z</time></trkpt><trkpt lat="43.23850466982783" lon="12.794629528802059"><ele>737.0</ele><time>2026-04-26T09:54:47.999Z</time></trkpt><trkpt lat="43.23860169220348" lon="12.794682119492318"><ele>737.0</ele><time>2026-04-26T09:54:49.999Z</time></trkpt><trkpt lat="43.23869249063458" lon="12.794717066014652"><ele>737.0</ele><time>2026-04-26T09:54:51.999Z</time></trkpt><trkpt lat="43.23880229834231" lon="12.794760309668632"><ele>737.0</ele><time>2026-04-26T09:54:53.999Z</time></trkpt><trkpt lat="43.238863908003964" lon="12.794785735956276"><ele>737.0</ele><time>2026-04-26T09:54:54.999Z</time></trkpt><trkpt lat="43.2389372395973" lon="12.79481599989565"><ele>737.0</ele><time>2026-04-26T09:54:55.999Z</time></trkpt><trkpt lat="43.23901908188836" lon="12.794849776196628"><ele>737.0</ele><time>2026-04-26T09:54:56.999Z</time></trkpt><trkpt lat="43.23910034886797" lon="12.794881273453077"><ele>740.3333333333333</ele><time>2026-04-26T09:54:57.999Z</time></trkpt><trkpt lat="43.23917711710488" lon="12.794908371022823"><ele>743.6666666666666</ele><time>2026-04-26T09:54:58.999Z</time></trkpt><trkpt lat="43.23924432941253" lon="12.794932466828408"><ele>747.0</ele><time>2026-04-26T09:54:59.999Z</time></trkpt><trkpt lat="43.239360127468586" lon="12.79498863290809"><ele>750.3333333333334</ele><time>2026-04-26T09:55:01.999Z</time></trkpt><trkpt lat="43.23942034219082" lon="12.795024403404462"><ele>753.6666666666667</ele><time>2026-04-26T09:55:02.999Z</time></trkpt><trkpt lat="43.23947944486457" lon="12.79506039584112"><ele>757.0</ele><time>2026-04-26T09:55:03.999Z</time></trkpt><trkpt lat="43.23958833243215" lon="12.795129686521625"><ele>757.0</ele><time>2026-04-26T09:55:05.999Z</time></trkpt><trkpt lat="43.2396477077437" lon="12.795166366185821"><ele>757.0</ele><time>2026-04-26T09:55:06.999Z</time></trkpt><trkpt lat="43.23970921172825" lon="12.795201738158301"><ele>757.0</ele><time>2026-04-26T09:55:07.999Z</time></trkpt><trkpt lat="43.23977624499662" lon="12.79523715580469"><ele>757.0</ele><time>2026-04-26T09:55:08.999Z</time></trkpt><trkpt lat="43.239845621249465" lon="12.795248459517268"><ele>757.0</ele><time>2026-04-26T09:55:09.999Z</time></trkpt><trkpt lat="43.239955404848565" lon="12.795316160900283"><ele>757.0</ele><time>2026-04-26T09:55:11.999Z</time></trkpt><trkpt lat="43.24007520122271" lon="12.795356484081088"><ele>763.2857142857143</ele><time>2026-04-26T09:55:13.999Z</time></trkpt><trkpt lat="43.24013916315509" lon="12.795370579222647"><ele>769.5714285714286</ele><time>2026-04-26T09:55:14.999Z</time></trkpt><trkpt lat="43.24021139365809" lon="12.795385631510273"><ele>775.8571428571429</ele><time>2026-04-26T09:55:15.999Z</time></trkpt><trkpt lat="43.240289372638145" lon="12.795392934235851"><ele>782.1428571428571</ele><time>2026-04-26T09:55:16.999Z</time></trkpt><trkpt lat="43.2403692856185" lon="12.795395045376354"><ele>788.4285714285713</ele><time>2026-04-26T09:55:17.999Z</time></trkpt><trkpt lat="43.240440779013085" lon="12.795390519973584"><ele>794.7142857142857</ele><time>2026-04-26T09:55:18.999Z</time></trkpt><trkpt lat="43.24050528420191" lon="12.795378380608215"><ele>801.0</ele><time>2026-04-26T09:55:19.999Z</time></trkpt><trkpt lat="43.24061152271202" lon="12.795361060844055"><ele>806.25</ele><time>2026-04-26T09:55:21.999Z</time></trkpt><trkpt lat="43.24068265661787" lon="12.795353214172206"><ele>811.5</ele><time>2026-04-26T09:55:24.999Z</time></trkpt><trkpt lat="43.24069332050771" lon="12.795563816307785"><ele>816.75</ele><time>2026-04-26T09:55:31.999Z</time></trkpt><trkpt lat="43.240682506069874" lon="12.795710919283806"><ele>822.0</ele><time>2026-04-26T09:55:33.999Z</time></trkpt><trkpt lat="43.24064850179099" lon="12.79587170587283"><ele>822.0</ele><time>2026-04-26T09:55:35.999Z</time></trkpt><trkpt lat="43.240642171602374" lon="12.795964535135463"><ele>822.0</ele><time>2026-04-26T09:55:36.999Z</time></trkpt><trkpt lat="43.24062666818499" lon="12.796065152309424"><ele>822.0</ele><time>2026-04-26T09:55:37.999Z</time></trkpt><trkpt lat="43.24060109865616" lon="12.796154875645469"><ele>822.0</ele><time>2026-04-26T09:55:38.999Z</time></trkpt><trkpt lat="43.24058671311951" lon="12.796240816170128"><ele>822.0</ele><time>2026-04-26T09:55:39.999Z</time></trkpt><trkpt lat="43.24054733754398" lon="12.796393879884238"><ele>822.0</ele><time>2026-04-26T09:55:41.999Z</time></trkpt><trkpt lat="43.24051772345887" lon="12.796552289326575"><ele>823.0</ele><time>2026-04-26T09:55:43.999Z</time></trkpt><trkpt lat="43.240512774326206" lon="12.796709599311852"><ele>824.0</ele><time>2026-04-26T09:55:45.999Z</time></trkpt><trkpt lat="43.24049522902663" lon="12.796825472702954"><ele>825.0</ele><time>2026-04-26T09:55:47.999Z</time></trkpt><trkpt lat="43.24045818455307" lon="12.79695818151352"><ele>826.0</ele><time>2026-04-26T09:55:49.999Z</time></trkpt><trkpt lat="43.24042630008077" lon="12.797061828452604"><ele>827.0</ele><time>2026-04-26T09:55:51.999Z</time></trkpt><trkpt lat="43.24037617407168" lon="12.797187669455914"><ele>832.1666666666667</ele><time>2026-04-26T09:55:53.999Z</time></trkpt><trkpt lat="43.240336261049535" lon="12.797324364961467"><ele>837.3333333333334</ele><time>2026-04-26T09:55:56Z</time></trkpt><trkpt lat="43.24030857273024" lon="12.797415059570518"><ele>842.5</ele><time>2026-04-26T09:55:58Z</time></trkpt><trkpt lat="43.24026653880891" lon="12.797495147995377"><ele>847.6666666666667</ele><time>2026-04-26T09:56:02Z</time></trkpt><trkpt lat="43.24024836751278" lon="12.797585823150301"><ele>852.8333333333334</ele><time>2026-04-26T09:56:05Z</time></trkpt><trkpt lat="43.24018297260749" lon="12.797692708348539"><ele>858.0</ele><time>2026-04-26T09:56:08Z</time></trkpt><trkpt lat="43.2401167936135" lon="12.797760010075764"><ele>863.6666666666666</ele><time>2026-04-26T09:56:10Z</time></trkpt><trkpt lat="43.24003675540519" lon="12.797796470724224"><ele>869.3333333333333</ele><time>2026-04-26T09:56:13Z</time></trkpt><trkpt lat="43.240012785622795" lon="12.797907534580693"><ele>875.0</ele><time>2026-04-26T09:56:16Z</time></trkpt><trkpt lat="43.2399884475873" lon="12.798000840247731"><ele>880.6666666666666</ele><time>2026-04-26T09:56:18Z</time></trkpt><trkpt lat="43.23995668456006" lon="12.79810753001912"><ele>886.3333333333333</ele><time>2026-04-26T09:56:20Z</time></trkpt><trkpt lat="43.23992954468822" lon="12.798209606739247"><ele>892.0</ele><time>2026-04-26T09:56:22Z</time></trkpt><trkpt lat="43.239879599110054" lon="12.798306018610008"><ele>892.0</ele><time>2026-04-26T09:56:25Z</time></trkpt><trkpt lat="43.23984065186892" lon="12.798380795694689"><ele>892.0</ele><time>2026-04-26T09:56:28Z</time></trkpt><trkpt lat="43.239802810120366" lon="12.798495090094738"><ele>892.0</ele><time>2026-04-26T09:56:31Z</time></trkpt><trkpt lat="43.2397528408206" lon="12.798629134712243"><ele>892.0</ele><time>2026-04-26T09:56:33Z</time></trkpt><trkpt lat="43.239666880774784" lon="12.798802327049854"><ele>892.0</ele><time>2026-04-26T09:56:35Z</time></trkpt><trkpt lat="43.23962843515079" lon="12.798897570551341"><ele>892.9999999999999</ele><time>2026-04-26T09:56:36Z</time></trkpt><trkpt lat="43.23959521987295" lon="12.798987250152885"><ele>894.0</ele><time>2026-04-26T09:56:37Z</time></trkpt><trkpt lat="43.239562988076244" lon="12.79906707277132"><ele>895.0</ele><time>2026-04-26T09:56:38Z</time></trkpt><trkpt lat="43.239512957022306" lon="12.799143493832675"><ele>896.0</ele><time>2026-04-26T09:56:39Z</time></trkpt><trkpt lat="43.239422213659964" lon="12.799245114709443"><ele>896.9999999999999</ele><time>2026-04-26T09:56:41Z</time></trkpt><trkpt lat="43.239357150184325" lon="12.799313795851944"><ele>898.0</ele><time>2026-04-26T09:56:42Z</time></trkpt><trkpt lat="43.23929143100242" lon="12.79939721465953"><ele>897.8</ele><time>2026-04-26T09:56:43Z</time></trkpt><trkpt lat="43.239229324597396" lon="12.79946196394689"><ele>897.5999999999999</ele><time>2026-04-26T09:56:44Z</time></trkpt><trkpt lat="43.239168868688346" lon="12.799499710774166"><ele>897.4000000000001</ele><time>2026-04-26T09:56:45Z</time></trkpt><trkpt lat="43.23906512189621" lon="12.79960677296763"><ele>897.2</ele><time>2026-04-26T09:56:47Z</time></trkpt><trkpt lat="43.239014468629094" lon="12.799685241201985"><ele>897.0</ele><time>2026-04-26T09:56:48Z</time></trkpt><trkpt lat="43.238954638365655" lon="12.799828048012492"><ele>897.0</ele><time>2026-04-26T09:56:50Z</time></trkpt><trkpt lat="43.238910773901374" lon="12.79998513993608"><ele>897.0</ele><time>2026-04-26T09:56:52Z</time></trkpt><trkpt lat="43.238878024550125" lon="12.80007992572538"><ele>897.0</ele><time>2026-04-26T09:56:53Z</time></trkpt><trkpt lat="43.23884741182618" lon="12.800172112368152"><ele>897.0</ele><time>2026-04-26T09:56:54Z</time></trkpt><trkpt lat="43.238799381217895" lon="12.800323498992427"><ele>897.0</ele><time>2026-04-26T09:56:56Z</time></trkpt><trkpt lat="43.238781536975736" lon="12.800482213794302"><ele>902.0</ele><time>2026-04-26T09:56:58Z</time></trkpt><trkpt lat="43.23878063054056" lon="12.800598092611553"><ele>907.0</ele><time>2026-04-26T09:57:00Z</time></trkpt><trkpt lat="43.23884308131273" lon="12.800685222796725"><ele>912.0</ele><time>2026-04-26T09:57:02Z</time></trkpt><trkpt lat="43.238877782226446" lon="12.800824440440053"><ele>917.0</ele><time>2026-04-26T09:57:04Z</time></trkpt><trkpt lat="43.238901712851096" lon="12.800980884633963"><ele>922.0</ele><time>2026-04-26T09:57:06Z</time></trkpt><trkpt lat="43.23892455896685" lon="12.801080757364732"><ele>925.8333333333333</ele><time>2026-04-26T09:57:07Z</time></trkpt><trkpt lat="43.23894528335804" lon="12.801196570900386"><ele>929.6666666666666</ele><time>2026-04-26T09:57:08Z</time></trkpt><trkpt lat="43.238967136623785" lon="12.801291111071242"><ele>933.5</ele><time>2026-04-26T09:57:09Z</time></trkpt><trkpt lat="43.23900053352393" lon="12.801383426803332"><ele>937.3333333333333</ele><time>2026-04-26T09:57:10Z</time></trkpt><trkpt lat="43.239031711209435" lon="12.801476094620023"><ele>941.1666666666666</ele><time>2026-04-26T09:57:11Z</time></trkpt><trkpt lat="43.23905889233855" lon="12.801588139597177"><ele>945.0</ele><time>2026-04-26T09:57:13Z</time></trkpt><trkpt lat="43.23906591060319" lon="12.801692689853637"><ele>946.6666666666666</ele><time>2026-04-26T09:57:15Z</time></trkpt><trkpt lat="43.23907952877343" lon="12.801808226886697"><ele>948.3333333333333</ele><time>2026-04-26T09:57:18Z</time></trkpt><trkpt lat="43.23911927810899" lon="12.801911138071219"><ele>950.0</ele><time>2026-04-26T09:57:40Z</time></trkpt><trkpt lat="43.23910808884067" lon="12.802004379798564"><ele>951.6666666666666</ele><time>2026-04-26T09:57:44Z</time></trkpt><trkpt lat="43.2390344948645" lon="12.801992144755557"><ele>953.3333333333333</ele><time>2026-04-26T09:57:47.999Z</time></trkpt><trkpt lat="43.23895803401016" lon="12.801952399198123"><ele>955.0</ele><time>2026-04-26T09:57:50.999Z</time></trkpt><trkpt lat="43.23888074604012" lon="12.801973273240794"><ele>958.3333333333333</ele><time>2026-04-26T09:57:52.999Z</time></trkpt><trkpt lat="43.23880779350168" lon="12.802029872640663"><ele>961.6666666666666</ele><time>2026-04-26T09:57:54.999Z</time></trkpt><trkpt lat="43.23873050483423" lon="12.802087971502665"><ele>965.0</ele><time>2026-04-26T09:57:56.999Z</time></trkpt><trkpt lat="43.238658513032036" lon="12.802098178319811"><ele>968.3333333333333</ele><time>2026-04-26T09:57:58.999Z</time></trkpt><trkpt lat="43.23857859505898" lon="12.802145298381838"><ele>971.6666666666666</ele><time>2026-04-26T09:58:00.999Z</time></trkpt><trkpt lat="43.23851286002123" lon="12.80216737861382"><ele>975.0</ele><time>2026-04-26T09:58:02.999Z</time></trkpt><trkpt lat="43.23842375344455" lon="12.80218515686413"><ele>975.0</ele><time>2026-04-26T09:58:05.999Z</time></trkpt><trkpt lat="43.23835256798528" lon="12.802231915308221"><ele>975.0</ele><time>2026-04-26T09:58:07.999Z</time></trkpt><trkpt lat="43.23827240224098" lon="12.802286252155477"><ele>975.0</ele><time>2026-04-26T09:58:09.999Z</time></trkpt><trkpt lat="43.23820973589899" lon="12.802343665587385"><ele>975.0</ele><time>2026-04-26T09:58:11.999Z</time></trkpt><trkpt lat="43.23813548169263" lon="12.802399189146247"><ele>975.0</ele><time>2026-04-26T09:58:14.999Z</time></trkpt><trkpt lat="43.23806074131479" lon="12.802456704876068"><ele>975.0</ele><time>2026-04-26T09:58:16.999Z</time></trkpt><trkpt lat="43.23797467364303" lon="12.80249290929038"><ele>974.0</ele><time>2026-04-26T09:58:18.999Z</time></trkpt><trkpt lat="43.237918719175774" lon="12.802549951278133"><ele>973.0</ele><time>2026-04-26T09:58:20.999Z</time></trkpt><trkpt lat="43.23786463622649" lon="12.802665207884326"><ele>972.0</ele><time>2026-04-26T09:58:22.999Z</time></trkpt><trkpt lat="43.237811609187006" lon="12.802763686878576"><ele>971.0</ele><time>2026-04-26T09:58:24.999Z</time></trkpt><trkpt lat="43.237740441604885" lon="12.802887053754864"><ele>970.0</ele><time>2026-04-26T09:58:27.999Z</time></trkpt><trkpt lat="43.23770893983386" lon="12.8029633132974"><ele>969.0</ele><time>2026-04-26T09:58:28.999Z</time></trkpt><trkpt lat="43.237698301875234" lon="12.803050657865882"><ele>972.0</ele><time>2026-04-26T09:58:29.999Z</time></trkpt><trkpt lat="43.23770338448823" lon="12.803204652039128"><ele>975.0000000000001</ele><time>2026-04-26T09:58:31.999Z</time></trkpt><trkpt lat="43.23768510143794" lon="12.803340283709673"><ele>978.0000000000001</ele><time>2026-04-26T09:58:33.999Z</time></trkpt><trkpt lat="43.23768147119277" lon="12.803476077487202"><ele>981.0</ele><time>2026-04-26T09:58:35.999Z</time></trkpt><trkpt lat="43.2376808188943" lon="12.803601056971836"><ele>984.0</ele><time>2026-04-26T09:58:37.999Z</time></trkpt><trkpt lat="43.23771963180373" lon="12.803743680994693"><ele>984.6666666666666</ele><time>2026-04-26T09:58:39.999Z</time></trkpt><trkpt lat="43.237756638975604" lon="12.80381775018907"><ele>985.3333333333333</ele><time>2026-04-26T09:58:40.999Z</time></trkpt><trkpt lat="43.237823885153304" lon="12.803943045403082"><ele>986.0</ele><time>2026-04-26T09:58:42.999Z</time></trkpt><trkpt lat="43.23789106352389" lon="12.8040653049279"><ele>986.6666666666666</ele><time>2026-04-26T09:58:44.999Z</time></trkpt><trkpt lat="43.23793998957251" lon="12.804156898677151"><ele>987.3333333333333</ele><time>2026-04-26T09:58:46.999Z</time></trkpt><trkpt lat="43.23797832829956" lon="12.80423195086613"><ele>988.0</ele><time>2026-04-26T09:58:48.999Z</time></trkpt><trkpt lat="43.23803256977408" lon="12.804306418959673"><ele>988.8333333333333</ele><time>2026-04-26T09:58:51.999Z</time></trkpt><trkpt lat="43.23809419855254" lon="12.804392335617953"><ele>989.6666666666666</ele><time>2026-04-26T09:58:53.999Z</time></trkpt><trkpt lat="43.23817027921422" lon="12.804504911591534"><ele>990.5</ele><time>2026-04-26T09:58:55.999Z</time></trkpt><trkpt lat="43.238232749569256" lon="12.804617155211927"><ele>991.3333333333333</ele><time>2026-04-26T09:58:57.999Z</time></trkpt><trkpt lat="43.23825402490248" lon="12.804706375355275"><ele>992.1666666666666</ele><time>2026-04-26T09:58:59.999Z</time></trkpt><trkpt lat="43.23826943897303" lon="12.804798952260192"><ele>993.0</ele><time>2026-04-26T09:59:02.999Z</time></trkpt><trkpt lat="43.23827664942911" lon="12.804893986448464"><ele>998.0</ele><time>2026-04-26T09:59:04.999Z</time></trkpt><trkpt lat="43.23833953635192" lon="12.80499580588597"><ele>1003.0</ele><time>2026-04-26T09:59:06.999Z</time></trkpt><trkpt lat="43.23838511682958" lon="12.80508415864304"><ele>1008.0</ele><time>2026-04-26T09:59:08.999Z</time></trkpt><trkpt lat="43.23841644747512" lon="12.805175051870973"><ele>1013.0</ele><time>2026-04-26T09:59:11.999Z</time></trkpt><trkpt lat="43.23846724697602" lon="12.805280212739149"><ele>1018.0</ele><time>2026-04-26T09:59:14.999Z</time></trkpt><trkpt lat="43.23849478117239" lon="12.805423379926678"><ele>1023.0</ele><time>2026-04-26T09:59:17.999Z</time></trkpt><trkpt lat="43.238524445790745" lon="12.805571252742482"><ele>1024.4285714285716</ele><time>2026-04-26T09:59:19.999Z</time></trkpt><trkpt lat="43.238546371643054" lon="12.805656765355224"><ele>1025.857142857143</ele><time>2026-04-26T09:59:20.999Z</time></trkpt><trkpt lat="43.23855232541035" lon="12.805743974154597"><ele>1027.2857142857142</ele><time>2026-04-26T09:59:21.999Z</time></trkpt><trkpt lat="43.238558147474144" lon="12.805831083916805"><ele>1028.7142857142858</ele><time>2026-04-26T09:59:22.999Z</time></trkpt><trkpt lat="43.238601506961686" lon="12.805961305101173"><ele>1030.142857142857</ele><time>2026-04-26T09:59:24.999Z</time></trkpt><trkpt lat="43.238600891845785" lon="12.806048650573583"><ele>1031.5714285714287</ele><time>2026-04-26T09:59:26.999Z</time></trkpt><trkpt lat="43.23860141681064" lon="12.806146035878688"><ele>1033.0</ele><time>2026-04-26T09:59:28.999Z</time></trkpt><trkpt lat="43.23859141274914" lon="12.806233744902677"><ele>1037.3333333333333</ele><time>2026-04-26T09:59:30.999Z</time></trkpt><trkpt lat="43.23858676010618" lon="12.806320257204252"><ele>1041.6666666666665</ele><time>2026-04-26T09:59:32.999Z</time></trkpt><trkpt lat="43.238582476561994" lon="12.8064311884479"><ele>1046.0</ele><time>2026-04-26T09:59:34.999Z</time></trkpt><trkpt lat="43.23858983796333" lon="12.806596809589315"><ele>1050.3333333333333</ele><time>2026-04-26T09:59:36.999Z</time></trkpt><trkpt lat="43.238587561728025" lon="12.806752863527395"><ele>1054.6666666666667</ele><time>2026-04-26T09:59:38.999Z</time></trkpt><trkpt lat="43.23859143398857" lon="12.806840458165908"><ele>1059.0</ele><time>2026-04-26T09:59:39.999Z</time></trkpt><trkpt lat="43.23860719272735" lon="12.806936751466717"><ele>1063.5714285714284</ele><time>2026-04-26T09:59:42.999Z</time></trkpt><trkpt lat="43.23862255543482" lon="12.807027898517347"><ele>1068.142857142857</ele><time>2026-04-26T09:59:47.999Z</time></trkpt><trkpt lat="43.23864750940739" lon="12.80712362629847"><ele>1072.7142857142858</ele><time>2026-04-26T09:59:50.999Z</time></trkpt><trkpt lat="43.23864812787124" lon="12.807217050223729"><ele>1077.2857142857142</ele><time>2026-04-26T09:59:55.999Z</time></trkpt><trkpt lat="43.23861081577134" lon="12.80729702208014"><ele>1081.857142857143</ele><time>2026-04-26T10:00:06.999Z</time></trkpt><trkpt lat="43.23853955164589" lon="12.807323359512553"><ele>1086.4285714285713</ele><time>2026-04-26T10:00:09.999Z</time></trkpt><trkpt lat="43.2384693661102" lon="12.807351689895354"><ele>1091.0</ele><time>2026-04-26T10:00:12.999Z</time></trkpt><trkpt lat="43.238373387660644" lon="12.807378050689113"><ele>1091.0</ele><time>2026-04-26T10:00:15.999Z</time></trkpt><trkpt lat="43.238293652353235" lon="12.807407072533444"><ele>1091.0</ele><time>2026-04-26T10:00:17.999Z</time></trkpt><trkpt lat="43.23820452193662" lon="12.807429188827536"><ele>1091.0</ele><time>2026-04-26T10:00:19.999Z</time></trkpt><trkpt lat="43.238126732928485" lon="12.807439026480509"><ele>1091.0</ele><time>2026-04-26T10:00:21.999Z</time></trkpt><trkpt lat="43.238054628368445" lon="12.80744407992534"><ele>1091.0</ele><time>2026-04-26T10:00:23.999Z</time></trkpt><trkpt lat="43.23795964658325" lon="12.807461687933388"><ele>1091.0</ele><time>2026-04-26T10:00:27.999Z</time></trkpt><trkpt lat="43.23786383189859" lon="12.807510500678747"><ele>1092.6666666666667</ele><time>2026-04-26T10:00:30.999Z</time></trkpt><trkpt lat="43.23777658906836" lon="12.807518889071199"><ele>1094.3333333333335</ele><time>2026-04-26T10:00:32.999Z</time></trkpt><trkpt lat="43.237707795745806" lon="12.807505556380955"><ele>1096.0</ele><time>2026-04-26T10:00:34.999Z</time></trkpt><trkpt lat="43.23762538346185" lon="12.807463124753037"><ele>1097.6666666666667</ele><time>2026-04-26T10:00:37.999Z</time></trkpt><trkpt lat="43.237545161047464" lon="12.807438601083508"><ele>1099.3333333333333</ele><time>2026-04-26T10:00:41.999Z</time></trkpt><trkpt lat="43.23745584696409" lon="12.807430189831832"><ele>1101.0</ele><time>2026-04-26T10:00:44.999Z</time></trkpt><trkpt lat="43.23738960080995" lon="12.80743176949973"><ele>1103.8333333333333</ele><time>2026-04-26T10:00:46.999Z</time></trkpt><trkpt lat="43.23729463104428" lon="12.807428579455326"><ele>1106.6666666666667</ele><time>2026-04-26T10:00:48.999Z</time></trkpt><trkpt lat="43.237213486648706" lon="12.807381713036925"><ele>1109.5</ele><time>2026-04-26T10:00:50.999Z</time></trkpt><trkpt lat="43.23714541870995" lon="12.807310762826521"><ele>1112.3333333333335</ele><time>2026-04-26T10:00:52.999Z</time></trkpt><trkpt lat="43.237071274171825" lon="12.807279063971041"><ele>1115.1666666666667</ele><time>2026-04-26T10:00:55.999Z</time></trkpt><trkpt lat="43.2370085501062" lon="12.80729051602108"><ele>1118.0</ele><time>2026-04-26T10:01:05.999Z</time></trkpt><trkpt lat="43.236947754176754" lon="12.807237188488447"><ele>1118.0</ele><time>2026-04-26T10:01:11.999Z</time></trkpt><trkpt lat="43.23687894972632" lon="12.807241234855994"><ele>1118.0</ele><time>2026-04-26T10:01:20.999Z</time></trkpt><trkpt lat="43.23679808179688" lon="12.807215344497537"><ele>1118.0</ele><time>2026-04-26T10:01:52.999Z</time></trkpt><trkpt lat="43.23671717717835" lon="12.80715654946498"><ele>1118.0</ele><time>2026-04-26T10:03:15Z</time></trkpt><trkpt lat="43.23664349156689" lon="12.807216082291598"><ele>1118.0</ele><time>2026-04-26T10:03:26Z</time></trkpt><trkpt lat="43.23656231785743" lon="12.807285085981373"><ele>1118.0</ele><time>2026-04-26T10:03:29Z</time></trkpt><trkpt lat="43.23649940505868" lon="12.807331109896653"><ele>1118.5</ele><time>2026-04-26T10:03:31Z</time></trkpt><trkpt lat="43.23642341112849" lon="12.80732277776478"><ele>1119.0</ele><time>2026-04-26T10:03:34Z</time></trkpt><trkpt lat="43.23635028782096" lon="12.807297999372308"><ele>1119.5</ele><time>2026-04-26T10:03:37Z</time></trkpt><trkpt lat="43.23626077860867" lon="12.807324165665847"><ele>1120.0</ele><time>2026-04-26T10:03:40Z</time></trkpt><trkpt lat="43.23618032800553" lon="12.807324260140764"><ele>1120.5</ele><time>2026-04-26T10:03:42Z</time></trkpt><trkpt lat="43.23611132194947" lon="12.807362230972457"><ele>1121.0</ele><time>2026-04-26T10:03:44Z</time></trkpt><trkpt lat="43.236025329921354" lon="12.807394272783224"><ele>1121.0</ele><time>2026-04-26T10:03:46Z</time></trkpt><trkpt lat="43.235955345529504" lon="12.807443617643964"><ele>1121.0</ele><time>2026-04-26T10:03:48Z</time></trkpt><trkpt lat="43.23587665954125" lon="12.807506742203886"><ele>1121.0</ele><time>2026-04-26T10:03:51Z</time></trkpt><trkpt lat="43.235802220329774" lon="12.807582113712327"><ele>1121.0</ele><time>2026-04-26T10:03:54Z</time></trkpt><trkpt lat="43.23571472807498" lon="12.807621017956519"><ele>1121.0</ele><time>2026-04-26T10:03:57Z</time></trkpt><trkpt lat="43.2356495284313" lon="12.80763200395306"><ele>1121.0</ele><time>2026-04-26T10:03:59Z</time></trkpt><trkpt lat="43.23558048386555" lon="12.80764861739729"><ele>1121.6666666666667</ele><time>2026-04-26T10:04:01Z</time></trkpt><trkpt lat="43.23550792340698" lon="12.807650796024982"><ele>1122.3333333333335</ele><time>2026-04-26T10:04:03Z</time></trkpt><trkpt lat="43.235423425568314" lon="12.807652412937689"><ele>1123.0</ele><time>2026-04-26T10:04:05Z</time></trkpt><trkpt lat="43.235291487139925" lon="12.80767041930901"><ele>1123.6666666666667</ele><time>2026-04-26T10:04:07Z</time></trkpt><trkpt lat="43.2352193132845" lon="12.807691858821903"><ele>1124.3333333333333</ele><time>2026-04-26T10:04:08Z</time></trkpt><trkpt lat="43.23515262516258" lon="12.807695204589347"><ele>1125.0</ele><time>2026-04-26T10:04:09Z</time></trkpt><trkpt lat="43.23508922447897" lon="12.8077165198531"><ele>1124.5</ele><time>2026-04-26T10:04:10Z</time></trkpt><trkpt lat="43.23502313413118" lon="12.807729834156937"><ele>1124.0</ele><time>2026-04-26T10:04:11Z</time></trkpt><trkpt lat="43.2348978667187" lon="12.807755550603959"><ele>1123.5</ele><time>2026-04-26T10:04:13Z</time></trkpt><trkpt lat="43.23481055049581" lon="12.807805788248864"><ele>1123.0</ele><time>2026-04-26T10:04:15Z</time></trkpt><trkpt lat="43.23473905075488" lon="12.807818297515977"><ele>1122.5</ele><time>2026-04-26T10:04:21Z</time></trkpt><trkpt lat="43.23467884837754" lon="12.807858658739725"><ele>1122.0</ele><time>2026-04-26T10:04:37Z</time></trkpt><trkpt lat="43.234596912018866" lon="12.807926976153574"><ele>1122.0</ele><time>2026-04-26T10:04:40Z</time></trkpt><trkpt lat="43.23451031030107" lon="12.808038739427108"><ele>1122.0</ele><time>2026-04-26T10:04:42Z</time></trkpt><trkpt lat="43.234476624059745" lon="12.808113869138582"><ele>1122.0</ele><time>2026-04-26T10:04:43Z</time></trkpt><trkpt lat="43.2344437654309" lon="12.808191457622135"><ele>1122.0</ele><time>2026-04-26T10:04:44Z</time></trkpt><trkpt lat="43.23441848562659" lon="12.808272252544972"><ele>1122.0</ele><time>2026-04-26T10:04:45Z</time></trkpt><trkpt lat="43.23437254282969" lon="12.808434162893356"><ele>1122.0</ele><time>2026-04-26T10:04:47Z</time></trkpt><trkpt lat="43.23433627428804" lon="12.808583661433357"><ele>1122.0</ele><time>2026-04-26T10:04:49Z</time></trkpt><trkpt lat="43.23430545270047" lon="12.808738702183414"><ele>1122.0</ele><time>2026-04-26T10:04:51Z</time></trkpt><trkpt lat="43.23428390309495" lon="12.808876961893548"><ele>1122.0</ele><time>2026-04-26T10:04:53Z</time></trkpt><trkpt lat="43.234262852092435" lon="12.809009619574422"><ele>1122.0</ele><time>2026-04-26T10:04:55Z</time></trkpt><trkpt lat="43.2342689224801" lon="12.80914673613271"><ele>1122.0</ele><time>2026-04-26T10:04:57Z</time></trkpt><trkpt lat="43.23428957886362" lon="12.809287292734618"><ele>1120.3333333333333</ele><time>2026-04-26T10:04:59Z</time></trkpt><trkpt lat="43.234300334374865" lon="12.809394398276863"><ele>1118.6666666666667</ele><time>2026-04-26T10:05:01Z</time></trkpt><trkpt lat="43.23431651979882" lon="12.809519154346946"><ele>1117.0</ele><time>2026-04-26T10:05:03Z</time></trkpt><trkpt lat="43.23434888963815" lon="12.809646868606512"><ele>1115.3333333333335</ele><time>2026-04-26T10:05:05Z</time></trkpt><trkpt lat="43.23438849743622" lon="12.809762929717687"><ele>1113.6666666666667</ele><time>2026-04-26T10:05:07Z</time></trkpt><trkpt lat="43.23442082396215" lon="12.80985791528168"><ele>1112.0</ele><time>2026-04-26T10:05:09Z</time></trkpt><trkpt lat="43.23444323817853" lon="12.809988007093953"><ele>1112.0</ele><time>2026-04-26T10:05:11Z</time></trkpt><trkpt lat="43.23448732479222" lon="12.810121162359657"><ele>1112.0</ele><time>2026-04-26T10:05:13Z</time></trkpt><trkpt lat="43.23451534617" lon="12.81022612054735"><ele>1112.0</ele><time>2026-04-26T10:05:15Z</time></trkpt><trkpt lat="43.234535435841714" lon="12.810374012783564"><ele>1112.0</ele><time>2026-04-26T10:05:17Z</time></trkpt><trkpt lat="43.23458052767416" lon="12.810533936731275"><ele>1112.0</ele><time>2026-04-26T10:05:19Z</time></trkpt><trkpt lat="43.23463427129891" lon="12.810668527427575"><ele>1109.6</ele><time>2026-04-26T10:05:21Z</time></trkpt><trkpt lat="43.23464245474986" lon="12.81081398330463"><ele>1107.2</ele><time>2026-04-26T10:05:23Z</time></trkpt><trkpt lat="43.23468556467106" lon="12.810952940591905"><ele>1104.8</ele><time>2026-04-26T10:05:25Z</time></trkpt><trkpt lat="43.234730012356145" lon="12.811066288214318"><ele>1102.4</ele><time>2026-04-26T10:05:27Z</time></trkpt><trkpt lat="43.23477784925414" lon="12.811194640087015"><ele>1100.0</ele><time>2026-04-26T10:05:29Z</time></trkpt><trkpt lat="43.234820826474404" lon="12.811299580196284"><ele>1103.3333333333335</ele><time>2026-04-26T10:05:31Z</time></trkpt><trkpt lat="43.23483927398193" lon="12.811430268092971"><ele>1106.6666666666667</ele><time>2026-04-26T10:05:33Z</time></trkpt><trkpt lat="43.234867704333155" lon="12.811548787204808"><ele>1110.0</ele><time>2026-04-26T10:05:35Z</time></trkpt><trkpt lat="43.234885902593405" lon="12.811638730714195"><ele>1113.3333333333333</ele><time>2026-04-26T10:05:37Z</time></trkpt><trkpt lat="43.234902260505386" lon="12.811750965248159"><ele>1116.6666666666665</ele><time>2026-04-26T10:05:39Z</time></trkpt><trkpt lat="43.23491747795012" lon="12.811875142435351"><ele>1120.0</ele><time>2026-04-26T10:05:41Z</time></trkpt><trkpt lat="43.234943978417505" lon="12.812008665883186"><ele>1120.0</ele><time>2026-04-26T10:05:43Z</time></trkpt><trkpt lat="43.23497950035651" lon="12.81212219237073"><ele>1120.0</ele><time>2026-04-26T10:05:45Z</time></trkpt><trkpt lat="43.23500175684203" lon="12.812268102832027"><ele>1120.0</ele><time>2026-04-26T10:05:47Z</time></trkpt><trkpt lat="43.23502176212915" lon="12.812362168619757"><ele>1120.0</ele><time>2026-04-26T10:05:48Z</time></trkpt><trkpt lat="43.23504792526512" lon="12.812463969367368"><ele>1120.0</ele><time>2026-04-26T10:05:49Z</time></trkpt><trkpt lat="43.23506255382179" lon="12.812551629562046"><ele>1120.0</ele><time>2026-04-26T10:05:50Z</time></trkpt><trkpt lat="43.23508094103194" lon="12.81263960955307"><ele>1118.1666666666665</ele><time>2026-04-26T10:05:51Z</time></trkpt><trkpt lat="43.235107917072796" lon="12.812789848709953"><ele>1116.3333333333333</ele><time>2026-04-26T10:05:53Z</time></trkpt><trkpt lat="43.23513236366323" lon="12.812885603164089"><ele>1114.5</ele><time>2026-04-26T10:05:54Z</time></trkpt><trkpt lat="43.23516055643188" lon="12.812967015173328"><ele>1112.6666666666667</ele><time>2026-04-26T10:05:55Z</time></trkpt><trkpt lat="43.23518459015276" lon="12.813051831263191"><ele>1110.8333333333335</ele><time>2026-04-26T10:05:56Z</time></trkpt><trkpt lat="43.23522960486153" lon="12.813207505323138"><ele>1109.0</ele><time>2026-04-26T10:05:58Z</time></trkpt><trkpt lat="43.23525236601204" lon="12.813329628302798"><ele>1109.0</ele><time>2026-04-26T10:06:00Z</time></trkpt><trkpt lat="43.23526782446571" lon="12.813432766256279"><ele>1109.0</ele><time>2026-04-26T10:06:02Z</time></trkpt><trkpt lat="43.235297991240365" lon="12.813579498469348"><ele>1109.0</ele><time>2026-04-26T10:06:04Z</time></trkpt><trkpt lat="43.235323313037064" lon="12.813667561531954"><ele>1109.0</ele><time>2026-04-26T10:06:05Z</time></trkpt><trkpt lat="43.23534349795818" lon="12.813758022096206"><ele>1109.0</ele><time>2026-04-26T10:06:06Z</time></trkpt><trkpt lat="43.23536441205737" lon="12.813844833298967"><ele>1109.0</ele><time>2026-04-26T10:06:07Z</time></trkpt><trkpt lat="43.23539921873953" lon="12.813988597010859"><ele>1105.8333333333335</ele><time>2026-04-26T10:06:09Z</time></trkpt><trkpt lat="43.2354241260467" lon="12.81408710890088"><ele>1102.6666666666667</ele><time>2026-04-26T10:06:11Z</time></trkpt><trkpt lat="43.23544846247713" lon="12.814198734797008"><ele>1099.5</ele><time>2026-04-26T10:06:13Z</time></trkpt><trkpt lat="43.23547371672282" lon="12.81428028833974"><ele>1096.3333333333333</ele><time>2026-04-26T10:06:14Z</time></trkpt><trkpt lat="43.235493388941876" lon="12.814367862597447"><ele>1093.1666666666665</ele><time>2026-04-26T10:06:15Z</time></trkpt><trkpt lat="43.23550850484069" lon="12.814455770420572"><ele>1090.0</ele><time>2026-04-26T10:06:16Z</time></trkpt><trkpt lat="43.235539721516716" lon="12.814593888303348"><ele>1092.8</ele><time>2026-04-26T10:06:18Z</time></trkpt><trkpt lat="43.23558459508583" lon="12.814749009631448"><ele>1095.6</ele><time>2026-04-26T10:06:20Z</time></trkpt><trkpt lat="43.23561375044242" lon="12.814909321533372"><ele>1098.4</ele><time>2026-04-26T10:06:22Z</time></trkpt><trkpt lat="43.235661172774165" lon="12.815064912519954"><ele>1101.2</ele><time>2026-04-26T10:06:24Z</time></trkpt><trkpt lat="43.235691282039475" lon="12.81514165429749"><ele>1104.0</ele><time>2026-04-26T10:06:25Z</time></trkpt><trkpt lat="43.235739960271566" lon="12.815270395473341"><ele>1104.0</ele><time>2026-04-26T10:06:27Z</time></trkpt><trkpt lat="43.235764185433275" lon="12.815414799170638"><ele>1104.0</ele><time>2026-04-26T10:06:29Z</time></trkpt><trkpt lat="43.23578410151505" lon="12.815548435501196"><ele>1104.0</ele><time>2026-04-26T10:06:31Z</time></trkpt><trkpt lat="43.23582945725689" lon="12.815687712709698"><ele>1104.0</ele><time>2026-04-26T10:06:33Z</time></trkpt><trkpt lat="43.23585931323826" lon="12.815772489722306"><ele>1104.0</ele><time>2026-04-26T10:06:34Z</time></trkpt><trkpt lat="43.23588139633127" lon="12.815853823384002"><ele>1104.0</ele><time>2026-04-26T10:06:35Z</time></trkpt><trkpt lat="43.2358938922103" lon="12.815939039172186"><ele>1104.0</ele><time>2026-04-26T10:06:36Z</time></trkpt><trkpt lat="43.2359099613596" lon="12.81607668827469"><ele>1104.0</ele><time>2026-04-26T10:06:38Z</time></trkpt><trkpt lat="43.23594320964941" lon="12.816208994863153"><ele>1104.0</ele><time>2026-04-26T10:06:39.999Z</time></trkpt><trkpt lat="43.23597583990888" lon="12.816321977579708"><ele>1104.0</ele><time>2026-04-26T10:06:41.999Z</time></trkpt><trkpt lat="43.23601733684815" lon="12.816427797193372"><ele>1104.0</ele><time>2026-04-26T10:06:43.999Z</time></trkpt><trkpt lat="43.23606329123054" lon="12.816560812550966"><ele>1100.3333333333333</ele><time>2026-04-26T10:06:45.999Z</time></trkpt><trkpt lat="43.236083433597436" lon="12.81664312941219"><ele>1096.6666666666667</ele><time>2026-04-26T10:06:46.999Z</time></trkpt><trkpt lat="43.23611099665566" lon="12.816732214583421"><ele>1093.0</ele><time>2026-04-26T10:06:47.999Z</time></trkpt><trkpt lat="43.23613142987106" lon="12.816815042436858"><ele>1089.3333333333335</ele><time>2026-04-26T10:06:48.999Z</time></trkpt><trkpt lat="43.23617404028696" lon="12.816955964750031"><ele>1085.6666666666667</ele><time>2026-04-26T10:06:50.999Z</time></trkpt><trkpt lat="43.23622231623266" lon="12.817104583650934"><ele>1082.0</ele><time>2026-04-26T10:06:52.999Z</time></trkpt><trkpt lat="43.236272576245476" lon="12.817247696909952"><ele>1082.2</ele><time>2026-04-26T10:06:54.999Z</time></trkpt><trkpt lat="43.23630608384084" lon="12.81737324636525"><ele>1082.4</ele><time>2026-04-26T10:06:56.999Z</time></trkpt><trkpt lat="43.23634521164757" lon="12.817482158721154"><ele>1082.6</ele><time>2026-04-26T10:06:58.999Z</time></trkpt><trkpt lat="43.23638096167312" lon="12.817612268259508"><ele>1082.8</ele><time>2026-04-26T10:07:00.999Z</time></trkpt><trkpt lat="43.236416901602425" lon="12.81774499267977"><ele>1083.0</ele><time>2026-04-26T10:07:02.999Z</time></trkpt><trkpt lat="43.236487695614436" lon="12.8178682256694"><ele>1086.1666666666667</ele><time>2026-04-26T10:07:04.999Z</time></trkpt><trkpt lat="43.236547233623945" lon="12.817898776868105"><ele>1089.3333333333333</ele><time>2026-04-26T10:07:05.999Z</time></trkpt><trkpt lat="43.23660407552509" lon="12.818004116878209"><ele>1092.5</ele><time>2026-04-26T10:07:07.999Z</time></trkpt><trkpt lat="43.236619922337646" lon="12.818112035791582"><ele>1095.6666666666665</ele><time>2026-04-26T10:07:09.999Z</time></trkpt><trkpt lat="43.236617943671334" lon="12.818263833778742"><ele>1098.8333333333333</ele><time>2026-04-26T10:07:12.999Z</time></trkpt><trkpt lat="43.236620166099506" lon="12.818361367511931"><ele>1102.0</ele><time>2026-04-26T10:07:14.999Z</time></trkpt><trkpt lat="43.236601465331304" lon="12.818454182157762"><ele>1104.3333333333333</ele><time>2026-04-26T10:07:16.999Z</time></trkpt><trkpt lat="43.23657042287224" lon="12.81857109347795"><ele>1106.6666666666665</ele><time>2026-04-26T10:07:19.999Z</time></trkpt><trkpt lat="43.23653216137733" lon="12.818643751546976"><ele>1109.0</ele><time>2026-04-26T10:07:21.999Z</time></trkpt><trkpt lat="43.236476939853475" lon="12.818737738732311"><ele>1111.3333333333333</ele><time>2026-04-26T10:07:24.999Z</time></trkpt><trkpt lat="43.236407391157535" lon="12.818829513495679"><ele>1113.6666666666667</ele><time>2026-04-26T10:07:26.999Z</time></trkpt><trkpt lat="43.23631693845944" lon="12.818906153187584"><ele>1116.0</ele><time>2026-04-26T10:07:28.999Z</time></trkpt><trkpt lat="43.23623902639993" lon="12.818961313049854"><ele>1116.0</ele><time>2026-04-26T10:07:30.999Z</time></trkpt><trkpt lat="43.23615733379704" lon="12.819003783977534"><ele>1116.0</ele><time>2026-04-26T10:07:32.999Z</time></trkpt><trkpt lat="43.23607663745074" lon="12.819089816053443"><ele>1116.0</ele><time>2026-04-26T10:07:34.999Z</time></trkpt><trkpt lat="43.23602530896316" lon="12.819153913977132"><ele>1116.0</ele><time>2026-04-26T10:07:35.999Z</time></trkpt><trkpt lat="43.23595392128628" lon="12.819225780893534"><ele>1116.0</ele><time>2026-04-26T10:07:36.999Z</time></trkpt><trkpt lat="43.23587017386377" lon="12.819302077968725"><ele>1116.0</ele><time>2026-04-26T10:07:37.999Z</time></trkpt><trkpt lat="43.2357919912199" lon="12.819378195538247"><ele>1117.1666666666667</ele><time>2026-04-26T10:07:38.999Z</time></trkpt><trkpt lat="43.23570375558818" lon="12.819456393567332"><ele>1118.3333333333333</ele><time>2026-04-26T10:07:39.999Z</time></trkpt><trkpt lat="43.23563569687248" lon="12.81952269136602"><ele>1119.5</ele><time>2026-04-26T10:07:40.999Z</time></trkpt><trkpt lat="43.23557705559061" lon="12.819591555373815"><ele>1120.6666666666665</ele><time>2026-04-26T10:07:41.999Z</time></trkpt><trkpt lat="43.23551787006202" lon="12.819672334624494"><ele>1121.8333333333333</ele><time>2026-04-26T10:07:42.999Z</time></trkpt><trkpt lat="43.23546598811606" lon="12.81974219678041"><ele>1123.0</ele><time>2026-04-26T10:07:43.999Z</time></trkpt><trkpt lat="43.23539650119695" lon="12.81983862421057"><ele>1123.0</ele><time>2026-04-26T10:07:45.999Z</time></trkpt><trkpt lat="43.23534401388404" lon="12.819945229256522"><ele>1123.0</ele><time>2026-04-26T10:07:47.999Z</time></trkpt><trkpt lat="43.235298533457104" lon="12.820048791811606"><ele>1123.0</ele><time>2026-04-26T10:07:49.999Z</time></trkpt><trkpt lat="43.23528310285366" lon="12.820141552678015"><ele>1123.0</ele><time>2026-04-26T10:07:51.999Z</time></trkpt><trkpt lat="43.23522716825495" lon="12.8201856217721"><ele>1123.0</ele><time>2026-04-26T10:07:53.999Z</time></trkpt><trkpt lat="43.235175134879135" lon="12.820236637851595"><ele>1123.0</ele><time>2026-04-26T10:07:55.999Z</time></trkpt><trkpt lat="43.235098014664594" lon="12.82027394114495"><ele>1128.3333333333333</ele><time>2026-04-26T10:07:59.999Z</time></trkpt><trkpt lat="43.23503073702779" lon="12.82028125064255"><ele>1133.6666666666665</ele><time>2026-04-26T10:08:01.999Z</time></trkpt><trkpt lat="43.23492901267759" lon="12.820278807957154"><ele>1139.0</ele><time>2026-04-26T10:08:03.999Z</time></trkpt><trkpt lat="43.234814395224575" lon="12.820243218683029"><ele>1144.3333333333333</ele><time>2026-04-26T10:08:05.999Z</time></trkpt><trkpt lat="43.234745470610775" lon="12.820211484230937"><ele>1149.6666666666667</ele><time>2026-04-26T10:08:06.999Z</time></trkpt><trkpt lat="43.23468310659612" lon="12.820193208864222"><ele>1155.0</ele><time>2026-04-26T10:08:07.999Z</time></trkpt><trkpt lat="43.23458028994696" lon="12.820171148331163"><ele>1155.8</ele><time>2026-04-26T10:08:09.999Z</time></trkpt><trkpt lat="43.23448186077562" lon="12.820167568970808"><ele>1156.6</ele><time>2026-04-26T10:08:11.999Z</time></trkpt><trkpt lat="43.23437653013661" lon="12.820142702618305"><ele>1157.4</ele><time>2026-04-26T10:08:13.999Z</time></trkpt><trkpt lat="43.23428688744283" lon="12.820125094095143"><ele>1158.2</ele><time>2026-04-26T10:08:15.999Z</time></trkpt><trkpt lat="43.23421139807137" lon="12.82014767475227"><ele>1159.0</ele><time>2026-04-26T10:08:17.999Z</time></trkpt><trkpt lat="43.23412827817701" lon="12.820163769774805"><ele>1159.0</ele><time>2026-04-26T10:08:19.999Z</time></trkpt><trkpt lat="43.234009981514276" lon="12.820151465728133"><ele>1159.0</ele><time>2026-04-26T10:08:21.999Z</time></trkpt><trkpt lat="43.233943354106614" lon="12.820154780513223"><ele>1159.0</ele><time>2026-04-26T10:08:22.999Z</time></trkpt><trkpt lat="43.23386746965084" lon="12.820153034109504"><ele>1159.0</ele><time>2026-04-26T10:08:23.999Z</time></trkpt><trkpt lat="43.23379157496608" lon="12.82015755486665"><ele>1159.0</ele><time>2026-04-26T10:08:24.999Z</time></trkpt><trkpt lat="43.233711852755924" lon="12.82016988063012"><ele>1159.0</ele><time>2026-04-26T10:08:25.999Z</time></trkpt><trkpt lat="43.23364199920684" lon="12.820179783064784"><ele>1158.4</ele><time>2026-04-26T10:08:26.999Z</time></trkpt><trkpt lat="43.23355294669802" lon="12.820189209448893"><ele>1157.8000000000002</ele><time>2026-04-26T10:08:28.999Z</time></trkpt><trkpt lat="43.233488608923416" lon="12.820208984470765"><ele>1157.1999999999998</ele><time>2026-04-26T10:08:30.999Z</time></trkpt><trkpt lat="43.233406522019" lon="12.820252013454855"><ele>1156.6</ele><time>2026-04-26T10:08:32.999Z</time></trkpt><trkpt lat="43.23332632697963" lon="12.820297825685966"><ele>1156.0</ele><time>2026-04-26T10:08:34.999Z</time></trkpt><trkpt lat="43.233210995257906" lon="12.820355236952711"><ele>1155.3999999999999</ele><time>2026-04-26T10:08:36.999Z</time></trkpt><trkpt lat="43.233099226215714" lon="12.820405652202536"><ele>1154.8</ele><time>2026-04-26T10:08:38.999Z</time></trkpt><trkpt lat="43.233038512181196" lon="12.82042904410331"><ele>1154.1999999999998</ele><time>2026-04-26T10:08:39.999Z</time></trkpt><trkpt lat="43.23294386210231" lon="12.8204843850668"><ele>1153.6</ele><time>2026-04-26T10:08:41.999Z</time></trkpt><trkpt lat="43.232863131076655" lon="12.820574845259227"><ele>1153.0</ele><time>2026-04-26T10:08:43.999Z</time></trkpt><trkpt lat="43.232765899363145" lon="12.820668239347725"><ele>1153.0</ele><time>2026-04-26T10:08:45.999Z</time></trkpt><trkpt lat="43.232680244573885" lon="12.820765396328337"><ele>1153.0</ele><time>2026-04-26T10:08:47.999Z</time></trkpt><trkpt lat="43.23259981408381" lon="12.820866879133524"><ele>1153.0</ele><time>2026-04-26T10:08:49.999Z</time></trkpt><trkpt lat="43.232530430634085" lon="12.820941935655634"><ele>1153.0</ele><time>2026-04-26T10:08:51.999Z</time></trkpt><trkpt lat="43.23246430963162" lon="12.821031314744191"><ele>1153.0</ele><time>2026-04-26T10:08:53.999Z</time></trkpt><trkpt lat="43.232401268803" lon="12.821128813299582"><ele>1156.0</ele><time>2026-04-26T10:08:55.999Z</time></trkpt><trkpt lat="43.23234676046906" lon="12.821205612060929"><ele>1159.0</ele><time>2026-04-26T10:08:57.999Z</time></trkpt><trkpt lat="43.23227951517703" lon="12.821305166857112"><ele>1162.0</ele><time>2026-04-26T10:09:00.999Z</time></trkpt><trkpt lat="43.23220581438861" lon="12.821431258408088"><ele>1165.0</ele><time>2026-04-26T10:09:02.999Z</time></trkpt><trkpt lat="43.23215142895662" lon="12.821566766496709"><ele>1168.0</ele><time>2026-04-26T10:09:04.999Z</time></trkpt><trkpt lat="43.232097979132725" lon="12.821690652940402"><ele>1172.6</ele><time>2026-04-26T10:09:06.999Z</time></trkpt><trkpt lat="43.23205236170831" lon="12.821826552182838"><ele>1177.1999999999998</ele><time>2026-04-26T10:09:08.999Z</time></trkpt><trkpt lat="43.23200539611361" lon="12.821948946757937"><ele>1181.8</ele><time>2026-04-26T10:09:10.998Z</time></trkpt><trkpt lat="43.23195742138363" lon="12.822057083912783"><ele>1186.3999999999999</ele><time>2026-04-26T10:09:12.998Z</time></trkpt><trkpt lat="43.2319339761977" lon="12.822152341102568"><ele>1191.0</ele><time>2026-04-26T10:09:14.998Z</time></trkpt><trkpt lat="43.23191931678662" lon="12.822274946939089"><ele>1191.0</ele><time>2026-04-26T10:09:16.998Z</time></trkpt><trkpt lat="43.231901302504404" lon="12.82240371135584"><ele>1191.0</ele><time>2026-04-26T10:09:18.998Z</time></trkpt><trkpt lat="43.23188696329328" lon="12.822535936185702"><ele>1191.0</ele><time>2026-04-26T10:09:20.998Z</time></trkpt><trkpt lat="43.23187180945241" lon="12.822673393199114"><ele>1191.0</ele><time>2026-04-26T10:09:22.998Z</time></trkpt><trkpt lat="43.2318594401453" lon="12.822764703062846"><ele>1191.0</ele><time>2026-04-26T10:09:24.998Z</time></trkpt><trkpt lat="43.231867208158704" lon="12.822864088159406"><ele>1191.0</ele><time>2026-04-26T10:09:26.998Z</time></trkpt><trkpt lat="43.231854622088896" lon="12.823001290730595"><ele>1194.5</ele><time>2026-04-26T10:09:28.998Z</time></trkpt><trkpt lat="43.23185444930246" lon="12.823159866495883"><ele>1198.0</ele><time>2026-04-26T10:09:30.998Z</time></trkpt><trkpt lat="43.23187819938616" lon="12.823300033063544"><ele>1201.5</ele><time>2026-04-26T10:09:32.998Z</time></trkpt><trkpt lat="43.231908184381815" lon="12.823446906715459"><ele>1205.0</ele><time>2026-04-26T10:09:34.998Z</time></trkpt><trkpt lat="43.23193991618185" lon="12.823605704956787"><ele>1207.8333333333335</ele><time>2026-04-26T10:09:36.998Z</time></trkpt><trkpt lat="43.231969154730564" lon="12.823752333114099"><ele>1210.6666666666667</ele><time>2026-04-26T10:09:38.998Z</time></trkpt><trkpt lat="43.231970902460354" lon="12.823838860185589"><ele>1213.5</ele><time>2026-04-26T10:09:40.998Z</time></trkpt><trkpt lat="43.231975085125534" lon="12.823944190532643"><ele>1216.3333333333333</ele><time>2026-04-26T10:09:45.998Z</time></trkpt><trkpt lat="43.23193956580961" lon="12.824025333316206"><ele>1219.1666666666665</ele><time>2026-04-26T10:09:56.998Z</time></trkpt><trkpt lat="43.231908622964134" lon="12.824146904284031"><ele>1222.0</ele><time>2026-04-26T10:09:59.998Z</time></trkpt><trkpt lat="43.231878316728015" lon="12.82428004399243"><ele>1226.0</ele><time>2026-04-26T10:10:01.998Z</time></trkpt><trkpt lat="43.231840322130154" lon="12.824405636907004"><ele>1230.0</ele><time>2026-04-26T10:10:03.998Z</time></trkpt><trkpt lat="43.231817040997015" lon="12.824549172751288"><ele>1234.0</ele><time>2026-04-26T10:10:06Z</time></trkpt><trkpt lat="43.23180038788885" lon="12.824715153712232"><ele>1238.0</ele><time>2026-04-26T10:10:08Z</time></trkpt><trkpt lat="43.23177880830418" lon="12.82485640271625"><ele>1242.0</ele><time>2026-04-26T10:10:10Z</time></trkpt><trkpt lat="43.23176312745844" lon="12.824980606304702"><ele>1242.0</ele><time>2026-04-26T10:10:12Z</time></trkpt><trkpt lat="43.23176088396183" lon="12.82506717714974"><ele>1242.0</ele><time>2026-04-26T10:10:19Z</time></trkpt><trkpt lat="43.231743376828874" lon="12.82517583372048"><ele>1242.0</ele><time>2026-04-26T10:10:35Z</time></trkpt><trkpt lat="43.23172468566021" lon="12.825300026816848"><ele>1242.0</ele><time>2026-04-26T10:10:38Z</time></trkpt><trkpt lat="43.23170917812319" lon="12.82541936192767"><ele>1242.0</ele><time>2026-04-26T10:10:40Z</time></trkpt><trkpt lat="43.23171682587134" lon="12.825547805555829"><ele>1242.0</ele><time>2026-04-26T10:10:43Z</time></trkpt><trkpt lat="43.23171504458114" lon="12.82564984456684"><ele>1243.4</ele><time>2026-04-26T10:10:45Z</time></trkpt><trkpt lat="43.23171873448439" lon="12.82577471566951"><ele>1244.8000000000002</ele><time>2026-04-26T10:10:47Z</time></trkpt><trkpt lat="43.23172056098702" lon="12.82592833663122"><ele>1246.2</ele><time>2026-04-26T10:10:49Z</time></trkpt><trkpt lat="43.231738940312766" lon="12.826065494619419"><ele>1247.6000000000001</ele><time>2026-04-26T10:10:51Z</time></trkpt><trkpt lat="43.23175787274101" lon="12.826155577552402"><ele>1249.0</ele><time>2026-04-26T10:10:53Z</time></trkpt><trkpt lat="43.23176854337224" lon="12.826303932036739"><ele>1249.0</ele><time>2026-04-26T10:10:56Z</time></trkpt><trkpt lat="43.2317761027914" lon="12.826486401053474"><ele>1249.0</ele><time>2026-04-26T10:10:58Z</time></trkpt><trkpt lat="43.23178565907692" lon="12.826579005990785"><ele>1249.0</ele><time>2026-04-26T10:10:59Z</time></trkpt><trkpt lat="43.23178962668006" lon="12.826676297631893"><ele>1249.0</ele><time>2026-04-26T10:11:00Z</time></trkpt><trkpt lat="43.231800257416836" lon="12.826764077020163"><ele>1249.0</ele><time>2026-04-26T10:11:01Z</time></trkpt><trkpt lat="43.231828070753146" lon="12.826929690489552"><ele>1249.1666666666665</ele><time>2026-04-26T10:11:03Z</time></trkpt><trkpt lat="43.2318466589494" lon="12.827022933119379"><ele>1249.3333333333333</ele><time>2026-04-26T10:11:04Z</time></trkpt><trkpt lat="43.231873302548884" lon="12.827120452217452"><ele>1249.5</ele><time>2026-04-26T10:11:05Z</time></trkpt><trkpt lat="43.23190126428334" lon="12.827226764128175"><ele>1249.6666666666667</ele><time>2026-04-26T10:11:06Z</time></trkpt><trkpt lat="43.231921182976194" lon="12.827329545031759"><ele>1249.8333333333335</ele><time>2026-04-26T10:11:07Z</time></trkpt><trkpt lat="43.2319471296284" lon="12.82743264301712"><ele>1250.0</ele><time>2026-04-26T10:11:08Z</time></trkpt><trkpt lat="43.231976754878765" lon="12.827528005274901"><ele>1250.0</ele><time>2026-04-26T10:11:09Z</time></trkpt><trkpt lat="43.23199829723504" lon="12.827613899023563"><ele>1250.0</ele><time>2026-04-26T10:11:10Z</time></trkpt><trkpt lat="43.23202907145075" lon="12.827787118149622"><ele>1250.0</ele><time>2026-04-26T10:11:12Z</time></trkpt><trkpt lat="43.23204559586851" lon="12.827888672006312"><ele>1250.0</ele><time>2026-04-26T10:11:13Z</time></trkpt><trkpt lat="43.23205795466218" lon="12.827995492272589"><ele>1250.0</ele><time>2026-04-26T10:11:14Z</time></trkpt><trkpt lat="43.23207069503385" lon="12.828100213117187"><ele>1250.0</ele><time>2026-04-26T10:11:15Z</time></trkpt><trkpt lat="43.23208177410555" lon="12.828203975096208"><ele>1250.3333333333335</ele><time>2026-04-26T10:11:16Z</time></trkpt><trkpt lat="43.2321022528365" lon="12.828310031066431"><ele>1250.6666666666667</ele><time>2026-04-26T10:11:17Z</time></trkpt><trkpt lat="43.23212145025509" lon="12.82842205632319"><ele>1251.0</ele><time>2026-04-26T10:11:18Z</time></trkpt><trkpt lat="43.23212694859254" lon="12.82852849265266"><ele>1251.3333333333333</ele><time>2026-04-26T10:11:19Z</time></trkpt><trkpt lat="43.23213299251509" lon="12.82862988430184"><ele>1251.6666666666665</ele><time>2026-04-26T10:11:20Z</time></trkpt><trkpt lat="43.23214689759308" lon="12.828725804994527"><ele>1252.0</ele><time>2026-04-26T10:11:21Z</time></trkpt><trkpt lat="43.232160589528625" lon="12.82882248075522"><ele>1252.6666666666665</ele><time>2026-04-26T10:11:22Z</time></trkpt><trkpt lat="43.232179807176166" lon="12.828923878074267"><ele>1253.3333333333333</ele><time>2026-04-26T10:11:23Z</time></trkpt><trkpt lat="43.23220172646595" lon="12.829031724906617"><ele>1254.0</ele><time>2026-04-26T10:11:24Z</time></trkpt><trkpt lat="43.23222736290021" lon="12.829145573795024"><ele>1254.6666666666667</ele><time>2026-04-26T10:11:25Z</time></trkpt><trkpt lat="43.232252845479636" lon="12.8292598698434"><ele>1255.3333333333335</ele><time>2026-04-26T10:11:26Z</time></trkpt><trkpt lat="43.232280116580995" lon="12.829371606278839"><ele>1256.0</ele><time>2026-04-26T10:11:27Z</time></trkpt><trkpt lat="43.232304291762894" lon="12.829475949516432"><ele>1258.9999999999998</ele><time>2026-04-26T10:11:28Z</time></trkpt><trkpt lat="43.232332480272255" lon="12.829566681247705"><ele>1262.0</ele><time>2026-04-26T10:11:29Z</time></trkpt><trkpt lat="43.23236282950982" lon="12.82965070178091"><ele>1265.0</ele><time>2026-04-26T10:11:30Z</time></trkpt><trkpt lat="43.23239448048828" lon="12.829729474310778"><ele>1268.0</ele><time>2026-04-26T10:11:31Z</time></trkpt><trkpt lat="43.23242808683161" lon="12.829807257625083"><ele>1271.0</ele><time>2026-04-26T10:11:32Z</time></trkpt><trkpt lat="43.232461887566835" lon="12.829887750595022"><ele>1273.9999999999998</ele><time>2026-04-26T10:11:33Z</time></trkpt><trkpt lat="43.232492986178094" lon="12.829963669996843"><ele>1277.0</ele><time>2026-04-26T10:11:34Z</time></trkpt><trkpt lat="43.232528226001655" lon="12.830117286793875"><ele>1275.75</ele><time>2026-04-26T10:11:35.999Z</time></trkpt><trkpt lat="43.23270227102704" lon="12.830219527667168"><ele>1274.5</ele><time>2026-04-26T10:11:36.999Z</time></trkpt><trkpt lat="43.23269430465601" lon="12.830309255610764"><ele>1273.25</ele><time>2026-04-26T10:11:39.999Z</time></trkpt><trkpt lat="43.23256374199074" lon="12.830339248143334"><ele>1272.0</ele><time>2026-04-26T10:11:49.999Z</time></trkpt><trkpt lat="43.232651265616354" lon="12.830358280731609"><ele>1272.0</ele><time>2026-04-26T10:11:57.999Z</time></trkpt><trkpt lat="43.232729176245506" lon="12.830415194296979"><ele>1272.0</ele><time>2026-04-26T10:12:00.999Z</time></trkpt><trkpt lat="43.2327597102254" lon="12.83051147102612"><ele>1272.0</ele><time>2026-04-26T10:12:03.999Z</time></trkpt><trkpt lat="43.232757015851504" lon="12.830642735723437"><ele>1272.0</ele><time>2026-04-26T10:12:06.999Z</time></trkpt><trkpt lat="43.23276956977696" lon="12.830773798499395"><ele>1272.0</ele><time>2026-04-26T10:12:09.999Z</time></trkpt><trkpt lat="43.232815423954484" lon="12.83087262463342"><ele>1272.0</ele><time>2026-04-26T10:12:11.999Z</time></trkpt><trkpt lat="43.23287165156651" lon="12.83092914022134"><ele>1272.0</ele><time>2026-04-26T10:12:13.999Z</time></trkpt><trkpt lat="43.23293731980048" lon="12.830938649943842"><ele>1272.0</ele><time>2026-04-26T10:12:15.999Z</time></trkpt><trkpt lat="43.23301063706231" lon="12.83093183543667"><ele>1272.0</ele><time>2026-04-26T10:12:17.999Z</time></trkpt><trkpt lat="43.2330896868557" lon="12.830959113885655"><ele>1272.0</ele><time>2026-04-26T10:12:19.999Z</time></trkpt><trkpt lat="43.23316220831073" lon="12.831031101720253"><ele>1272.0</ele><time>2026-04-26T10:12:21.999Z</time></trkpt><trkpt lat="43.23324281084576" lon="12.831112604900342"><ele>1272.0</ele><time>2026-04-26T10:12:23.999Z</time></trkpt><trkpt lat="43.23334539176269" lon="12.831174658101494"><ele>1269.6</ele><time>2026-04-26T10:12:25.999Z</time></trkpt><trkpt lat="43.23346140325136" lon="12.831217196392792"><ele>1267.2</ele><time>2026-04-26T10:12:27.999Z</time></trkpt><trkpt lat="43.23357686842815" lon="12.831265039569264"><ele>1264.8</ele><time>2026-04-26T10:12:29.999Z</time></trkpt><trkpt lat="43.2337075892142" lon="12.831280865965624"><ele>1262.4</ele><time>2026-04-26T10:12:31.999Z</time></trkpt><trkpt lat="43.233777791567256" lon="12.831290960670813"><ele>1260.0</ele><time>2026-04-26T10:12:32.999Z</time></trkpt><trkpt lat="43.23384585670609" lon="12.831310704921922"><ele>1260.0</ele><time>2026-04-26T10:12:33.999Z</time></trkpt><trkpt lat="43.233912950222596" lon="12.831338616367368"><ele>1260.0</ele><time>2026-04-26T10:12:34.999Z</time></trkpt><trkpt lat="43.2339821526776" lon="12.83137064303982"><ele>1260.0</ele><time>2026-04-26T10:12:35.999Z</time></trkpt><trkpt lat="43.23405474141164" lon="12.831412338443181"><ele>1260.0</ele><time>2026-04-26T10:12:36.999Z</time></trkpt><trkpt lat="43.23412735580816" lon="12.83144569252547"><ele>1260.0</ele><time>2026-04-26T10:12:37.999Z</time></trkpt><trkpt lat="43.23419655194183" lon="12.83148928087567"><ele>1260.0</ele><time>2026-04-26T10:12:38.999Z</time></trkpt><trkpt lat="43.234267518362714" lon="12.831533633684113"><ele>1259.3333333333333</ele><time>2026-04-26T10:12:39.999Z</time></trkpt><trkpt lat="43.234339091515686" lon="12.831573245992942"><ele>1258.6666666666667</ele><time>2026-04-26T10:12:40.999Z</time></trkpt><trkpt lat="43.234409161461045" lon="12.831610816047816"><ele>1258.0</ele><time>2026-04-26T10:12:41.999Z</time></trkpt><trkpt lat="43.23447824983146" lon="12.831646540229498"><ele>1257.3333333333335</ele><time>2026-04-26T10:12:42.999Z</time></trkpt><trkpt lat="43.234550381949546" lon="12.831684049900225"><ele>1256.6666666666667</ele><time>2026-04-26T10:12:43.999Z</time></trkpt><trkpt lat="43.2346239436285" lon="12.831716448695456"><ele>1256.0</ele><time>2026-04-26T10:12:44.999Z</time></trkpt><trkpt lat="43.2346991301201" lon="12.831742736138994"><ele>1255.9999999999998</ele><time>2026-04-26T10:12:45.999Z</time></trkpt><trkpt lat="43.23476919557722" lon="12.83176641127859"><ele>1256.0</ele><time>2026-04-26T10:12:46.999Z</time></trkpt><trkpt lat="43.23483561226656" lon="12.831793487806893"><ele>1256.0</ele><time>2026-04-26T10:12:47.999Z</time></trkpt><trkpt lat="43.234899812202876" lon="12.831818429586004"><ele>1256.0</ele><time>2026-04-26T10:12:48.999Z</time></trkpt><trkpt lat="43.23496550467267" lon="12.831837068193956"><ele>1256.0</ele><time>2026-04-26T10:12:49.999Z</time></trkpt><trkpt lat="43.23503166002342" lon="12.83185926114813"><ele>1255.9999999999998</ele><time>2026-04-26T10:12:50.999Z</time></trkpt><trkpt lat="43.235096968234316" lon="12.831882865360514"><ele>1256.0</ele><time>2026-04-26T10:12:51.999Z</time></trkpt><trkpt lat="43.235161934425065" lon="12.831905115110402"><ele>1253.5714285714284</ele><time>2026-04-26T10:12:52.999Z</time></trkpt><trkpt lat="43.23523165444983" lon="12.831928840817806"><ele>1251.142857142857</ele><time>2026-04-26T10:12:53.999Z</time></trkpt><trkpt lat="43.23530117255426" lon="12.831960568641989"><ele>1248.7142857142858</ele><time>2026-04-26T10:12:54.999Z</time></trkpt><trkpt lat="43.23537005011892" lon="12.831992100901275"><ele>1246.2857142857142</ele><time>2026-04-26T10:12:55.999Z</time></trkpt><trkpt lat="43.2354385130764" lon="12.832030296848842"><ele>1243.857142857143</ele><time>2026-04-26T10:12:56.999Z</time></trkpt><trkpt lat="43.23550359407424" lon="12.832068466281973"><ele>1241.4285714285713</ele><time>2026-04-26T10:12:57.999Z</time></trkpt><trkpt lat="43.23556586300437" lon="12.832101157436295"><ele>1239.0</ele><time>2026-04-26T10:12:58.999Z</time></trkpt><trkpt lat="43.23562726592569" lon="12.83213748955116"><ele>1240.142857142857</ele><time>2026-04-26T10:12:59.999Z</time></trkpt><trkpt lat="43.235686650962265" lon="12.832177353668289"><ele>1241.2857142857142</ele><time>2026-04-26T10:13:00.999Z</time></trkpt><trkpt lat="43.23574399564243" lon="12.83222060563137"><ele>1242.4285714285716</ele><time>2026-04-26T10:13:01.999Z</time></trkpt><trkpt lat="43.23580521628554" lon="12.832263753797085"><ele>1243.5714285714284</ele><time>2026-04-26T10:13:02.999Z</time></trkpt><trkpt lat="43.23586466139951" lon="12.83231534058509"><ele>1244.7142857142858</ele><time>2026-04-26T10:13:03.999Z</time></trkpt><trkpt lat="43.235928069630184" lon="12.832360077811746"><ele>1245.857142857143</ele><time>2026-04-26T10:13:04.999Z</time></trkpt><trkpt lat="43.23598426257333" lon="12.832401731771416"><ele>1247.0</ele><time>2026-04-26T10:13:05.999Z</time></trkpt><trkpt lat="43.23608635705551" lon="12.83243108503115"><ele>1247.0</ele><time>2026-04-26T10:13:07.999Z</time></trkpt><trkpt lat="43.23617786455124" lon="12.832431161681175"><ele>1247.0</ele><time>2026-04-26T10:13:09.999Z</time></trkpt><trkpt lat="43.2362678293034" lon="12.832437768574199"><ele>1247.0</ele><time>2026-04-26T10:13:11.999Z</time></trkpt><trkpt lat="43.23634979578076" lon="12.832457454657108"><ele>1247.0</ele><time>2026-04-26T10:13:13.999Z</time></trkpt><trkpt lat="43.23641158665781" lon="12.832518701778145"><ele>1247.0</ele><time>2026-04-26T10:13:17.999Z</time></trkpt><trkpt lat="43.236474323099614" lon="12.83253627972582"><ele>1247.0</ele><time>2026-04-26T10:13:23.999Z</time></trkpt><trkpt lat="43.23654995089132" lon="12.832591462259666"><ele>1248.0</ele><time>2026-04-26T10:14:55.999Z</time></trkpt><trkpt lat="43.23663657563944" lon="12.832592418185033"><ele>1249.0</ele><time>2026-04-26T10:16:04.999Z</time></trkpt><trkpt lat="43.23670064100228" lon="12.832567702678517"><ele>1250.0</ele><time>2026-04-26T10:16:05.999Z</time></trkpt><trkpt lat="43.23678530388976" lon="12.832557726507858"><ele>1251.0</ele><time>2026-04-26T10:16:06.999Z</time></trkpt><trkpt lat="43.23688999568097" lon="12.832541076915136"><ele>1252.0</ele><time>2026-04-26T10:16:07.999Z</time></trkpt><trkpt lat="43.237013319266104" lon="12.832532217786513"><ele>1252.0</ele><time>2026-04-26T10:16:08.999Z</time></trkpt><trkpt lat="43.23714139627883" lon="12.83253787623414"><ele>1252.0</ele><time>2026-04-26T10:16:09.999Z</time></trkpt><trkpt lat="43.23726684338363" lon="12.832533911194096"><ele>1252.0</ele><time>2026-04-26T10:16:10.999Z</time></trkpt><trkpt lat="43.23738840208909" lon="12.832559615094317"><ele>1252.0</ele><time>2026-04-26T10:16:11.999Z</time></trkpt><trkpt lat="43.23751600948163" lon="12.832616792939595"><ele>1248.0</ele><time>2026-04-26T10:16:12.999Z</time></trkpt><trkpt lat="43.23765845008684" lon="12.832683584584897"><ele>1244.0</ele><time>2026-04-26T10:16:13.999Z</time></trkpt><trkpt lat="43.23780561024757" lon="12.832741928931194"><ele>1240.0</ele><time>2026-04-26T10:16:14.999Z</time></trkpt><trkpt lat="43.23794281898029" lon="12.832811111568665"><ele>1240.0</ele><time>2026-04-26T10:16:15.999Z</time></trkpt><trkpt lat="43.238069480451436" lon="12.832874173616789"><ele>1240.0</ele><time>2026-04-26T10:16:16.999Z</time></trkpt><trkpt lat="43.23819211849591" lon="12.832933222585206"><ele>1240.0</ele><time>2026-04-26T10:16:17.999Z</time></trkpt><trkpt lat="43.23831475695714" lon="12.832992808322738"><ele>1240.0</ele><time>2026-04-26T10:16:18.999Z</time></trkpt><trkpt lat="43.23842775549528" lon="12.833051516156385"><ele>1243.2</ele><time>2026-04-26T10:16:19.999Z</time></trkpt><trkpt lat="43.23852573786084" lon="12.833103225770213"><ele>1246.4</ele><time>2026-04-26T10:16:20.999Z</time></trkpt><trkpt lat="43.238623774242754" lon="12.833143871278093"><ele>1249.6</ele><time>2026-04-26T10:16:21.999Z</time></trkpt><trkpt lat="43.238721162481056" lon="12.833183962817499"><ele>1252.8</ele><time>2026-04-26T10:16:22.999Z</time></trkpt><trkpt lat="43.23882509348359" lon="12.833224334582065"><ele>1256.0</ele><time>2026-04-26T10:16:23.999Z</time></trkpt><trkpt lat="43.23893964911279" lon="12.83327407916554"><ele>1260.5</ele><time>2026-04-26T10:16:24.999Z</time></trkpt><trkpt lat="43.23906276278763" lon="12.833323074815226"><ele>1265.0</ele><time>2026-04-26T10:16:25.999Z</time></trkpt><trkpt lat="43.239189522182045" lon="12.833372525571127"><ele>1269.5</ele><time>2026-04-26T10:16:26.999Z</time></trkpt><trkpt lat="43.239312577256804" lon="12.833421840617218"><ele>1274.0</ele><time>2026-04-26T10:16:27.999Z</time></trkpt><trkpt lat="43.23943042917875" lon="12.833475168438396"><ele>1268.8</ele><time>2026-04-26T10:16:28.999Z</time></trkpt><trkpt lat="43.23954068857985" lon="12.833524655017573"><ele>1263.6000000000001</ele><time>2026-04-26T10:16:29.999Z</time></trkpt><trkpt lat="43.23964167197306" lon="12.833567109613554"><ele>1258.4</ele><time>2026-04-26T10:16:30.999Z</time></trkpt><trkpt lat="43.2397318109808" lon="12.83362276183212"><ele>1253.2</ele><time>2026-04-26T10:16:31.999Z</time></trkpt><trkpt lat="43.2398226184847" lon="12.833675666044304"><ele>1248.0</ele><time>2026-04-26T10:16:32.999Z</time></trkpt><trkpt lat="43.23990389033572" lon="12.83373692738869"><ele>1248.0</ele><time>2026-04-26T10:16:33.999Z</time></trkpt><trkpt lat="43.23998252296027" lon="12.833788657503208"><ele>1248.0</ele><time>2026-04-26T10:16:34.999Z</time></trkpt><trkpt lat="43.2400634616988" lon="12.833833679683535"><ele>1248.0</ele><time>2026-04-26T10:16:35.999Z</time></trkpt><trkpt lat="43.24014180895215" lon="12.833875806511543"><ele>1248.0</ele><time>2026-04-26T10:16:36.999Z</time></trkpt><trkpt lat="43.240220381374385" lon="12.833916202564406"><ele>1248.0</ele><time>2026-04-26T10:16:37.999Z</time></trkpt><trkpt lat="43.2402995103425" lon="12.833944536786747"><ele>1248.0</ele><time>2026-04-26T10:16:38.999Z</time></trkpt><trkpt lat="43.24037230750324" lon="12.83397716509231"><ele>1248.0</ele><time>2026-04-26T10:16:39.999Z</time></trkpt><trkpt lat="43.240444608530126" lon="12.834012112497726"><ele>1248.0</ele><time>2026-04-26T10:16:40.999Z</time></trkpt><trkpt lat="43.24052027370152" lon="12.834043456034182"><ele>1248.0</ele><time>2026-04-26T10:16:41.999Z</time></trkpt><trkpt lat="43.24059242766399" lon="12.834079979573087"><ele>1248.0</ele><time>2026-04-26T10:16:42.999Z</time></trkpt><trkpt lat="43.2406636151177" lon="12.834117048004076"><ele>1248.0</ele><time>2026-04-26T10:16:43.999Z</time></trkpt><trkpt lat="43.24073872996638" lon="12.834162319765397"><ele>1248.0</ele><time>2026-04-26T10:16:44.999Z</time></trkpt><trkpt lat="43.240811495405936" lon="12.834216329757043"><ele>1250.0</ele><time>2026-04-26T10:16:45.999Z</time></trkpt><trkpt lat="43.24087807982071" lon="12.83426891643786"><ele>1252.0</ele><time>2026-04-26T10:16:46.999Z</time></trkpt><trkpt lat="43.2409469383704" lon="12.834334371029417"><ele>1254.0</ele><time>2026-04-26T10:16:47.999Z</time></trkpt><trkpt lat="43.24101721552562" lon="12.834408554578518"><ele>1256.0</ele><time>2026-04-26T10:16:48.999Z</time></trkpt><trkpt lat="43.241089858128" lon="12.834483959873506"><ele>1258.0</ele><time>2026-04-26T10:16:49.999Z</time></trkpt><trkpt lat="43.24117560980003" lon="12.83456870812309"><ele>1260.0</ele><time>2026-04-26T10:16:50.999Z</time></trkpt><trkpt lat="43.241274792730664" lon="12.834658496761755"><ele>1257.25</ele><time>2026-04-26T10:16:51.999Z</time></trkpt><trkpt lat="43.24136967150386" lon="12.834753054234188"><ele>1254.5</ele><time>2026-04-26T10:16:52.999Z</time></trkpt><trkpt lat="43.241456503417815" lon="12.834850914141533"><ele>1251.75</ele><time>2026-04-26T10:16:53.999Z</time></trkpt><trkpt lat="43.241540347644055" lon="12.83494657889707"><ele>1249.0</ele><time>2026-04-26T10:16:54.999Z</time></trkpt><trkpt lat="43.241624787283776" lon="12.835049734788813"><ele>1244.75</ele><time>2026-04-26T10:16:55.999Z</time></trkpt><trkpt lat="43.24170813027044" lon="12.835157976386256"><ele>1240.5</ele><time>2026-04-26T10:16:56.999Z</time></trkpt><trkpt lat="43.24179045817526" lon="12.835266003652766"><ele>1236.25</ele><time>2026-04-26T10:16:57.999Z</time></trkpt><trkpt lat="43.24187649579787" lon="12.83537519721089"><ele>1232.0</ele><time>2026-04-26T10:16:58.999Z</time></trkpt><trkpt lat="43.24196427010533" lon="12.835485267674235"><ele>1232.0</ele><time>2026-04-26T10:16:59.999Z</time></trkpt><trkpt lat="43.24205126707355" lon="12.83558888930139"><ele>1232.0</ele><time>2026-04-26T10:17:00.999Z</time></trkpt><trkpt lat="43.242133204217126" lon="12.835685433222688"><ele>1232.0</ele><time>2026-04-26T10:17:01.999Z</time></trkpt><trkpt lat="43.242212516511565" lon="12.835774187866182"><ele>1232.0</ele><time>2026-04-26T10:17:02.999Z</time></trkpt><trkpt lat="43.24229371747979" lon="12.835851207572556"><ele>1232.0</ele><time>2026-04-26T10:17:03.999Z</time></trkpt><trkpt lat="43.242372437526676" lon="12.835921213463909"><ele>1233.1666666666667</ele><time>2026-04-26T10:17:04.999Z</time></trkpt><trkpt lat="43.24245116926599" lon="12.835983956366906"><ele>1234.3333333333335</ele><time>2026-04-26T10:17:05.999Z</time></trkpt><trkpt lat="43.242529417223" lon="12.83604032092604"><ele>1235.5</ele><time>2026-04-26T10:17:06.999Z</time></trkpt><trkpt lat="43.24260581052812" lon="12.836092373547421"><ele>1236.6666666666667</ele><time>2026-04-26T10:17:07.999Z</time></trkpt><trkpt lat="43.24268275492826" lon="12.83613255433969"><ele>1237.8333333333333</ele><time>2026-04-26T10:17:08.999Z</time></trkpt><trkpt lat="43.242752454103844" lon="12.836159894580712"><ele>1239.0</ele><time>2026-04-26T10:17:09.999Z</time></trkpt><trkpt lat="43.242817654355676" lon="12.836156562071274"><ele>1239.0</ele><time>2026-04-26T10:17:10.999Z</time></trkpt><trkpt lat="43.2428820783231" lon="12.836121080106809"><ele>1239.0</ele><time>2026-04-26T10:17:12Z</time></trkpt><trkpt lat="43.24293392260015" lon="12.836064467446912"><ele>1239.0</ele><time>2026-04-26T10:17:13Z</time></trkpt><trkpt lat="43.24297911799667" lon="12.835999001009695"><ele>1239.0</ele><time>2026-04-26T10:17:14Z</time></trkpt><trkpt lat="43.24302789026071" lon="12.835931205360067"><ele>1239.0</ele><time>2026-04-26T10:17:15Z</time></trkpt><trkpt lat="43.24307652738078" lon="12.835861556660038"><ele>1239.0</ele><time>2026-04-26T10:17:16Z</time></trkpt><trkpt lat="43.24312374149068" lon="12.835795862546961"><ele>1239.0</ele><time>2026-04-26T10:17:17Z</time></trkpt><trkpt lat="43.24317086552933" lon="12.835728437743786"><ele>1241.0</ele><time>2026-04-26T10:17:18Z</time></trkpt><trkpt lat="43.24322169030355" lon="12.835669448847664"><ele>1243.0</ele><time>2026-04-26T10:17:19Z</time></trkpt><trkpt lat="43.24327576360306" lon="12.83561192128971"><ele>1245.0</ele><time>2026-04-26T10:17:20Z</time></trkpt><trkpt lat="43.243335892414045" lon="12.835550151769416"><ele>1247.0</ele><time>2026-04-26T10:17:21Z</time></trkpt><trkpt lat="43.24340951821999" lon="12.835486016183275"><ele>1249.0</ele><time>2026-04-26T10:17:22Z</time></trkpt><trkpt lat="43.2434903293346" lon="12.835416413033021"><ele>1251.0</ele><time>2026-04-26T10:17:23Z</time></trkpt><trkpt lat="43.243569085293416" lon="12.835349281344918"><ele>1251.0</ele><time>2026-04-26T10:17:24Z</time></trkpt><trkpt lat="43.24365406570276" lon="12.835297486142625"><ele>1251.0</ele><time>2026-04-26T10:17:25Z</time></trkpt><trkpt lat="43.24374078545803" lon="12.835258751542097"><ele>1251.0</ele><time>2026-04-26T10:17:26Z</time></trkpt><trkpt lat="43.243832807673606" lon="12.835228022475064"><ele>1251.0</ele><time>2026-04-26T10:17:27Z</time></trkpt><trkpt lat="43.243921718271174" lon="12.835201030767102"><ele>1251.0</ele><time>2026-04-26T10:17:28Z</time></trkpt><trkpt lat="43.24400571548403" lon="12.835181231595149"><ele>1249.6666666666667</ele><time>2026-04-26T10:17:29Z</time></trkpt><trkpt lat="43.24409101328385" lon="12.835152169479366"><ele>1248.3333333333333</ele><time>2026-04-26T10:17:30Z</time></trkpt><trkpt lat="43.244179564615976" lon="12.835120664711082"><ele>1247.0</ele><time>2026-04-26T10:17:31Z</time></trkpt><trkpt lat="43.24426702670158" lon="12.835094777421169"><ele>1245.6666666666665</ele><time>2026-04-26T10:17:32Z</time></trkpt><trkpt lat="43.24435092553514" lon="12.835059545525281"><ele>1244.3333333333333</ele><time>2026-04-26T10:17:33Z</time></trkpt><trkpt lat="43.24443401884705" lon="12.835009064037282"><ele>1243.0</ele><time>2026-04-26T10:17:34Z</time></trkpt><trkpt lat="43.24452110198647" lon="12.83496052447126"><ele>1243.0</ele><time>2026-04-26T10:17:35Z</time></trkpt><trkpt lat="43.244609932370224" lon="12.834908910471801"><ele>1243.0</ele><time>2026-04-26T10:17:36Z</time></trkpt><trkpt lat="43.244696240676" lon="12.834856827955731"><ele>1243.0</ele><time>2026-04-26T10:17:37Z</time></trkpt><trkpt lat="43.244781412618046" lon="12.834800825097885"><ele>1243.0</ele><time>2026-04-26T10:17:38Z</time></trkpt><trkpt lat="43.244865536136714" lon="12.834742440858793"><ele>1243.0</ele><time>2026-04-26T10:17:39Z</time></trkpt><trkpt lat="43.24494607809348" lon="12.834684518266045"><ele>1243.4</ele><time>2026-04-26T10:17:40Z</time></trkpt><trkpt lat="43.24502566740712" lon="12.834625846747985"><ele>1243.8</ele><time>2026-04-26T10:17:41Z</time></trkpt><trkpt lat="43.24509785174845" lon="12.834544118993708"><ele>1244.2</ele><time>2026-04-26T10:17:42Z</time></trkpt><trkpt lat="43.245171424213076" lon="12.834467062144629"><ele>1244.6</ele><time>2026-04-26T10:17:43Z</time></trkpt><trkpt lat="43.245238959710264" lon="12.834378792015565"><ele>1245.0</ele><time>2026-04-26T10:17:44Z</time></trkpt><trkpt lat="43.24530443995441" lon="12.834292673465626"><ele>1245.0</ele><time>2026-04-26T10:17:45Z</time></trkpt><trkpt lat="43.2453820468505" lon="12.834224681736524"><ele>1245.0</ele><time>2026-04-26T10:17:46Z</time></trkpt><trkpt lat="43.24544739505571" lon="12.83413933144333"><ele>1245.0</ele><time>2026-04-26T10:17:47Z</time></trkpt><trkpt lat="43.24550935470327" lon="12.8340595825276"><ele>1245.0</ele><time>2026-04-26T10:17:48Z</time></trkpt><trkpt lat="43.24556908312662" lon="12.833984543061073"><ele>1245.0</ele><time>2026-04-26T10:17:49Z</time></trkpt><trkpt lat="43.245625966552076" lon="12.833910566868513"><ele>1245.0</ele><time>2026-04-26T10:17:50Z</time></trkpt><trkpt lat="43.24568817824783" lon="12.833839659883695"><ele>1242.8333333333333</ele><time>2026-04-26T10:17:51Z</time></trkpt><trkpt lat="43.245754434343986" lon="12.833777164803067"><ele>1240.6666666666667</ele><time>2026-04-26T10:17:52Z</time></trkpt><trkpt lat="43.2458180870156" lon="12.83371514966555"><ele>1238.5</ele><time>2026-04-26T10:17:53Z</time></trkpt><trkpt lat="43.24589684405561" lon="12.833689482674462"><ele>1236.3333333333335</ele><time>2026-04-26T10:17:54Z</time></trkpt><trkpt lat="43.24598702785735" lon="12.833672605022926"><ele>1234.1666666666667</ele><time>2026-04-26T10:17:55Z</time></trkpt><trkpt lat="43.24608076592892" lon="12.833675547548834"><ele>1232.0</ele><time>2026-04-26T10:17:56Z</time></trkpt><trkpt lat="43.24617612020825" lon="12.833689649574783"><ele>1232.0</ele><time>2026-04-26T10:17:57Z</time></trkpt><trkpt lat="43.246270615108436" lon="12.8336985203397"><ele>1232.0</ele><time>2026-04-26T10:17:58Z</time></trkpt><trkpt lat="43.24636404191502" lon="12.833674979953985"><ele>1232.0</ele><time>2026-04-26T10:17:59Z</time></trkpt><trkpt lat="43.246461343577096" lon="12.83365504432792"><ele>1232.0</ele><time>2026-04-26T10:18:00Z</time></trkpt><trkpt lat="43.24656342209653" lon="12.833657488964715"><ele>1232.0</ele><time>2026-04-26T10:18:01Z</time></trkpt><trkpt lat="43.24666106616045" lon="12.833650738112253"><ele>1229.2</ele><time>2026-04-26T10:18:02Z</time></trkpt><trkpt lat="43.24675045528344" lon="12.833624952968567"><ele>1226.4</ele><time>2026-04-26T10:18:03Z</time></trkpt><trkpt lat="43.2468394383885" lon="12.833590550859096"><ele>1223.6</ele><time>2026-04-26T10:18:04Z</time></trkpt><trkpt lat="43.246933589193645" lon="12.83355906236572"><ele>1220.8</ele><time>2026-04-26T10:18:05Z</time></trkpt><trkpt lat="43.24702570754826" lon="12.833524604121239"><ele>1218.0</ele><time>2026-04-26T10:18:06Z</time></trkpt><trkpt lat="43.24711658852589" lon="12.833506388437726"><ele>1218.0</ele><time>2026-04-26T10:18:07Z</time></trkpt><trkpt lat="43.2472067671778" lon="12.833508174269854"><ele>1218.0</ele><time>2026-04-26T10:18:08Z</time></trkpt><trkpt lat="43.24730391500945" lon="12.833511982883353"><ele>1218.0</ele><time>2026-04-26T10:18:09Z</time></trkpt><trkpt lat="43.24739759094841" lon="12.833513244835359"><ele>1218.0</ele><time>2026-04-26T10:18:10Z</time></trkpt><trkpt lat="43.247492575761704" lon="12.833504311220594"><ele>1218.0</ele><time>2026-04-26T10:18:11Z</time></trkpt><trkpt lat="43.24759461910382" lon="12.833517396608954"><ele>1216.0</ele><time>2026-04-26T10:18:12Z</time></trkpt><trkpt lat="43.247701083126486" lon="12.833513514290836"><ele>1214.0</ele><time>2026-04-26T10:18:13Z</time></trkpt><trkpt lat="43.24780390416151" lon="12.833522076826817"><ele>1212.0</ele><time>2026-04-26T10:18:14Z</time></trkpt><trkpt lat="43.24790561244903" lon="12.833535240190947"><ele>1210.0</ele><time>2026-04-26T10:18:15Z</time></trkpt><trkpt lat="43.248004218631266" lon="12.833543432206158"><ele>1208.0</ele><time>2026-04-26T10:18:16Z</time></trkpt><trkpt lat="43.24810212023525" lon="12.833559865999653"><ele>1206.8</ele><time>2026-04-26T10:18:17Z</time></trkpt><trkpt lat="43.2482029122728" lon="12.833573485562269"><ele>1205.6</ele><time>2026-04-26T10:18:18Z</time></trkpt><trkpt lat="43.248303629293225" lon="12.833579479532592"><ele>1204.4</ele><time>2026-04-26T10:18:19Z</time></trkpt><trkpt lat="43.24840431889081" lon="12.833586088409273"><ele>1203.2</ele><time>2026-04-26T10:18:20Z</time></trkpt><trkpt lat="43.24850190783935" lon="12.83359626693591"><ele>1202.0</ele><time>2026-04-26T10:18:21Z</time></trkpt><trkpt lat="43.24859575336749" lon="12.833622839094396"><ele>1202.0</ele><time>2026-04-26T10:18:22Z</time></trkpt><trkpt lat="43.24868709079727" lon="12.833660884580622"><ele>1202.0</ele><time>2026-04-26T10:18:23Z</time></trkpt><trkpt lat="43.2487711220364" lon="12.833685776949071"><ele>1202.0</ele><time>2026-04-26T10:18:24Z</time></trkpt><trkpt lat="43.24884484679854" lon="12.833684167514466"><ele>1202.0</ele><time>2026-04-26T10:18:25Z</time></trkpt><trkpt lat="43.248924053746336" lon="12.833698716474219"><ele>1202.0</ele><time>2026-04-26T10:18:26Z</time></trkpt><trkpt lat="43.24900824259998" lon="12.83373221167913"><ele>1202.0</ele><time>2026-04-26T10:18:27Z</time></trkpt><trkpt lat="43.24909025796098" lon="12.833744022773628"><ele>1200.5</ele><time>2026-04-26T10:18:28Z</time></trkpt><trkpt lat="43.249166377558566" lon="12.8337461499846"><ele>1199.0</ele><time>2026-04-26T10:18:29Z</time></trkpt><trkpt lat="43.249235751134975" lon="12.83374822146875"><ele>1197.5</ele><time>2026-04-26T10:18:30Z</time></trkpt><trkpt lat="43.24929874686259" lon="12.83375174665927"><ele>1196.0</ele><time>2026-04-26T10:18:31Z</time></trkpt><trkpt lat="43.24940087737934" lon="12.833791760826523"><ele>1194.5</ele><time>2026-04-26T10:18:33Z</time></trkpt><trkpt lat="43.24945619864067" lon="12.833836857549619"><ele>1193.0</ele><time>2026-04-26T10:18:34Z</time></trkpt><trkpt lat="43.2495137097501" lon="12.833892813302457"><ele>1193.0</ele><time>2026-04-26T10:18:35Z</time></trkpt><trkpt lat="43.24956836897505" lon="12.83394660069108"><ele>1193.0</ele><time>2026-04-26T10:18:36Z</time></trkpt><trkpt lat="43.249630516424226" lon="12.833999419916754"><ele>1193.0</ele><time>2026-04-26T10:18:37Z</time></trkpt><trkpt lat="43.24969553475805" lon="12.834068338716534"><ele>1193.0</ele><time>2026-04-26T10:18:38Z</time></trkpt><trkpt lat="43.24977939135161" lon="12.834124062227938"><ele>1193.0</ele><time>2026-04-26T10:18:39Z</time></trkpt><trkpt lat="43.2498571910172" lon="12.834154960874114"><ele>1193.0</ele><time>2026-04-26T10:18:40Z</time></trkpt><trkpt lat="43.24993480681732" lon="12.834172922741017"><ele>1191.9999999999998</ele><time>2026-04-26T10:18:41Z</time></trkpt><trkpt lat="43.25000436118869" lon="12.834182079267082"><ele>1191.0</ele><time>2026-04-26T10:18:42Z</time></trkpt><trkpt lat="43.25007597814935" lon="12.834187309307367"><ele>1190.0</ele><time>2026-04-26T10:18:43Z</time></trkpt><trkpt lat="43.2501490471753" lon="12.834191734692938"><ele>1189.0</ele><time>2026-04-26T10:18:44Z</time></trkpt><trkpt lat="43.250221319958584" lon="12.834195983428735"><ele>1188.0</ele><time>2026-04-26T10:18:45Z</time></trkpt><trkpt lat="43.25029498298189" lon="12.834199903778824"><ele>1186.9999999999998</ele><time>2026-04-26T10:18:46Z</time></trkpt><trkpt lat="43.25037085555103" lon="12.834178861255728"><ele>1186.0</ele><time>2026-04-26T10:18:47Z</time></trkpt><trkpt lat="43.25044698926249" lon="12.834189849240076"><ele>1185.9999999999998</ele><time>2026-04-26T10:18:48Z</time></trkpt><trkpt lat="43.250524575896556" lon="12.834189168572689"><ele>1186.0</ele><time>2026-04-26T10:18:49Z</time></trkpt><trkpt lat="43.25060213701506" lon="12.834174585194305"><ele>1186.0</ele><time>2026-04-26T10:18:50Z</time></trkpt><trkpt lat="43.250670918883955" lon="12.834144801684493"><ele>1186.0</ele><time>2026-04-26T10:18:51Z</time></trkpt><trkpt lat="43.250743114264075" lon="12.834141005721191"><ele>1186.0</ele><time>2026-04-26T10:18:52Z</time></trkpt><trkpt lat="43.25081093537782" lon="12.834116438714455"><ele>1185.9999999999998</ele><time>2026-04-26T10:18:53Z</time></trkpt><trkpt lat="43.25087323779274" lon="12.834088746503747"><ele>1186.0</ele><time>2026-04-26T10:18:54Z</time></trkpt><trkpt lat="43.250933848482056" lon="12.83406180634402"><ele>1184.3999999999999</ele><time>2026-04-26T10:18:55Z</time></trkpt><trkpt lat="43.251039610109196" lon="12.834010027260103"><ele>1182.8</ele><time>2026-04-26T10:18:57Z</time></trkpt><trkpt lat="43.25113363743963" lon="12.833953073614852"><ele>1181.1999999999998</ele><time>2026-04-26T10:18:59Z</time></trkpt><trkpt lat="43.251238320429024" lon="12.833890477681638"><ele>1179.6</ele><time>2026-04-26T10:19:01Z</time></trkpt><trkpt lat="43.25131079435601" lon="12.83385758378388"><ele>1178.0</ele><time>2026-04-26T10:19:02Z</time></trkpt><trkpt lat="43.251387716134616" lon="12.833808731565465"><ele>1175.8333333333335</ele><time>2026-04-26T10:19:03Z</time></trkpt><trkpt lat="43.251479865029246" lon="12.833784651713932"><ele>1173.6666666666667</ele><time>2026-04-26T10:19:04Z</time></trkpt><trkpt lat="43.25156749873496" lon="12.833780874722747"><ele>1171.5</ele><time>2026-04-26T10:19:05Z</time></trkpt><trkpt lat="43.25164604825542" lon="12.833759330498493"><ele>1169.3333333333333</ele><time>2026-04-26T10:19:06Z</time></trkpt><trkpt lat="43.251723745048636" lon="12.833759286498008"><ele>1167.1666666666665</ele><time>2026-04-26T10:19:07Z</time></trkpt><trkpt lat="43.25179931301" lon="12.833749510410772"><ele>1165.0</ele><time>2026-04-26T10:19:08Z</time></trkpt><trkpt lat="43.25187943960315" lon="12.83372902207214"><ele>1165.0</ele><time>2026-04-26T10:19:09Z</time></trkpt><trkpt lat="43.25196300596109" lon="12.833720976181466"><ele>1165.0</ele><time>2026-04-26T10:19:10Z</time></trkpt><trkpt lat="43.25204315145181" lon="12.83370437812475"><ele>1165.0</ele><time>2026-04-26T10:19:11Z</time></trkpt><trkpt lat="43.2521195421491" lon="12.83370686462488"><ele>1165.0</ele><time>2026-04-26T10:19:12Z</time></trkpt><trkpt lat="43.25218439508299" lon="12.833681599370536"><ele>1165.0</ele><time>2026-04-26T10:19:13Z</time></trkpt><trkpt lat="43.252266644433654" lon="12.833638817501003"><ele>1165.0</ele><time>2026-04-26T10:19:15Z</time></trkpt><trkpt lat="43.2523418808287" lon="12.833585012776817"><ele>1165.0</ele><time>2026-04-26T10:19:29Z</time></trkpt><trkpt lat="43.25232246200602" lon="12.833715481396714"><ele>1165.0</ele><time>2026-04-26T10:19:34Z</time></trkpt><trkpt lat="43.252282452722994" lon="12.833835681915229"><ele>1165.0</ele><time>2026-04-26T10:19:36Z</time></trkpt><trkpt lat="43.25222364276643" lon="12.833922446482326"><ele>1165.0</ele><time>2026-04-26T10:19:38Z</time></trkpt><trkpt lat="43.25214964524837" lon="12.8340107823358"><ele>1165.0</ele><time>2026-04-26T10:19:40Z</time></trkpt><trkpt lat="43.252104955604764" lon="12.834136033573667"><ele>1165.0</ele><time>2026-04-26T10:19:42Z</time></trkpt><trkpt lat="43.252046242271746" lon="12.834254141890948"><ele>1165.0</ele><time>2026-04-26T10:19:44Z</time></trkpt><trkpt lat="43.25197968483558" lon="12.834369310031011"><ele>1165.0</ele><time>2026-04-26T10:19:46Z</time></trkpt><trkpt lat="43.251910937004276" lon="12.834489722016025"><ele>1165.0</ele><time>2026-04-26T10:19:48Z</time></trkpt><trkpt lat="43.25186249428768" lon="12.834605163860866"><ele>1165.0</ele><time>2026-04-26T10:19:50Z</time></trkpt><trkpt lat="43.251826312093826" lon="12.83476650395914"><ele>1161.0</ele><time>2026-04-26T10:19:52Z</time></trkpt><trkpt lat="43.251796910675544" lon="12.834922906173064"><ele>1157.0</ele><time>2026-04-26T10:19:54Z</time></trkpt><trkpt lat="43.25177233971783" lon="12.835072024807602"><ele>1153.0</ele><time>2026-04-26T10:19:56Z</time></trkpt><trkpt lat="43.251781178769356" lon="12.835241501193732"><ele>1149.0</ele><time>2026-04-26T10:19:58Z</time></trkpt><trkpt lat="43.25176786757298" lon="12.835403256755194"><ele>1146.5</ele><time>2026-04-26T10:20:00Z</time></trkpt><trkpt lat="43.25175312100286" lon="12.83557149600238"><ele>1144.0</ele><time>2026-04-26T10:20:02Z</time></trkpt><trkpt lat="43.25172975638576" lon="12.835672979183348"><ele>1141.5</ele><time>2026-04-26T10:20:03Z</time></trkpt><trkpt lat="43.25170694585416" lon="12.83577569828245"><ele>1139.0</ele><time>2026-04-26T10:20:04Z</time></trkpt><trkpt lat="43.25168080389734" lon="12.8358802633765"><ele>1136.5</ele><time>2026-04-26T10:20:05Z</time></trkpt><trkpt lat="43.25163628039946" lon="12.835978267587237"><ele>1134.0</ele><time>2026-04-26T10:20:06Z</time></trkpt><trkpt lat="43.251595232643034" lon="12.836072291580484"><ele>1132.6666666666667</ele><time>2026-04-26T10:20:07Z</time></trkpt><trkpt lat="43.25154998952768" lon="12.836161068381426"><ele>1131.3333333333333</ele><time>2026-04-26T10:20:08Z</time></trkpt><trkpt lat="43.25150134658851" lon="12.836251795988225"><ele>1130.0</ele><time>2026-04-26T10:20:09Z</time></trkpt><trkpt lat="43.25144065302298" lon="12.836329223325682"><ele>1128.6666666666665</ele><time>2026-04-26T10:20:10Z</time></trkpt><trkpt lat="43.25136534268238" lon="12.836385597507578"><ele>1127.3333333333333</ele><time>2026-04-26T10:20:11Z</time></trkpt><trkpt lat="43.251289711166535" lon="12.836437629601434"><ele>1126.0</ele><time>2026-04-26T10:20:12Z</time></trkpt><trkpt lat="43.2512154410866" lon="12.836473705517362"><ele>1126.0</ele><time>2026-04-26T10:20:13Z</time></trkpt><trkpt lat="43.25114988719885" lon="12.836502282660568"><ele>1126.0</ele><time>2026-04-26T10:20:14Z</time></trkpt><trkpt lat="43.251049253833784" lon="12.83656769683433"><ele>1126.0</ele><time>2026-04-26T10:20:16Z</time></trkpt><trkpt lat="43.25097959703749" lon="12.836639946510106"><ele>1126.0</ele><time>2026-04-26T10:20:19Z</time></trkpt><trkpt lat="43.25100329570027" lon="12.836745964933588"><ele>1126.0</ele><time>2026-04-26T10:20:21Z</time></trkpt><trkpt lat="43.251053872742695" lon="12.83680635264477"><ele>1126.0</ele><time>2026-04-26T10:20:22Z</time></trkpt><trkpt lat="43.25110737372807" lon="12.836864468659039"><ele>1126.0</ele><time>2026-04-26T10:20:23Z</time></trkpt><trkpt lat="43.251163887876416" lon="12.836921227484096"><ele>1126.0</ele><time>2026-04-26T10:20:24Z</time></trkpt><trkpt lat="43.2512220892457" lon="12.836969943759257"><ele>1126.0</ele><time>2026-04-26T10:20:25Z</time></trkpt><trkpt lat="43.25131835849793" lon="12.837064126157514"><ele>1126.0</ele><time>2026-04-26T10:20:27Z</time></trkpt><trkpt lat="43.25139408041131" lon="12.837151036188631"><ele>1126.0</ele><time>2026-04-26T10:20:29Z</time></trkpt><trkpt lat="43.251485596243995" lon="12.837254144058917"><ele>1122.0</ele><time>2026-04-26T10:20:31Z</time></trkpt><trkpt lat="43.2515449878086" lon="12.83729151076972"><ele>1118.0</ele><time>2026-04-26T10:20:32Z</time></trkpt><trkpt lat="43.251621367456714" lon="12.837308277420428"><ele>1114.0</ele><time>2026-04-26T10:20:33Z</time></trkpt><trkpt lat="43.25169732867662" lon="12.837336016343738"><ele>1110.0</ele><time>2026-04-26T10:20:34Z</time></trkpt><trkpt lat="43.251799541988525" lon="12.837442124019109"><ele>1106.0</ele><time>2026-04-26T10:20:36Z</time></trkpt><trkpt lat="43.25186467519634" lon="12.837459493811624"><ele>1102.0</ele><time>2026-04-26T10:20:36.999Z</time></trkpt><trkpt lat="43.25198373792795" lon="12.837473668450578"><ele>1102.0</ele><time>2026-04-26T10:20:38.999Z</time></trkpt><trkpt lat="43.252046675264715" lon="12.837490173325264"><ele>1102.0</ele><time>2026-04-26T10:20:39.999Z</time></trkpt><trkpt lat="43.25216077088995" lon="12.837478349765737"><ele>1102.0</ele><time>2026-04-26T10:20:41.999Z</time></trkpt><trkpt lat="43.25223698608827" lon="12.83746390326783"><ele>1102.0</ele><time>2026-04-26T10:20:43.999Z</time></trkpt><trkpt lat="43.252288368696426" lon="12.83752192561048"><ele>1102.0</ele><time>2026-04-26T10:20:47.999Z</time></trkpt><trkpt lat="43.252245705057405" lon="12.837648864635158"><ele>1102.0</ele><time>2026-04-26T10:20:49.999Z</time></trkpt><trkpt lat="43.25219797553093" lon="12.837728816893806"><ele>1100.4285714285713</ele><time>2026-04-26T10:20:50.999Z</time></trkpt><trkpt lat="43.252148016095354" lon="12.837806431610428"><ele>1098.857142857143</ele><time>2026-04-26T10:20:51.999Z</time></trkpt><trkpt lat="43.25210386247942" lon="12.837880191758027"><ele>1097.2857142857142</ele><time>2026-04-26T10:20:52.999Z</time></trkpt><trkpt lat="43.252053613068234" lon="12.837952501717455"><ele>1095.7142857142858</ele><time>2026-04-26T10:20:53.999Z</time></trkpt><trkpt lat="43.252026874647484" lon="12.838047978245433"><ele>1094.142857142857</ele><time>2026-04-26T10:20:54.999Z</time></trkpt><trkpt lat="43.252001884361675" lon="12.83814569011615"><ele>1092.5714285714284</ele><time>2026-04-26T10:20:55.999Z</time></trkpt><trkpt lat="43.2519778779676" lon="12.838231996785343"><ele>1091.0</ele><time>2026-04-26T10:20:56.999Z</time></trkpt><trkpt lat="43.25194830482162" lon="12.838316946307607"><ele>1091.0</ele><time>2026-04-26T10:20:57.999Z</time></trkpt><trkpt lat="43.25190403604766" lon="12.838381858911085"><ele>1091.0</ele><time>2026-04-26T10:20:58.999Z</time></trkpt><trkpt lat="43.251859262175955" lon="12.838456793187753"><ele>1091.0</ele><time>2026-04-26T10:20:59.999Z</time></trkpt><trkpt lat="43.25179595841202" lon="12.838525748865994"><ele>1091.0</ele><time>2026-04-26T10:21:00.999Z</time></trkpt><trkpt lat="43.251723540670106" lon="12.83858679751296"><ele>1091.0</ele><time>2026-04-26T10:21:01.999Z</time></trkpt><trkpt lat="43.25164873727643" lon="12.838640125458186"><ele>1091.0</ele><time>2026-04-26T10:21:02.999Z</time></trkpt><trkpt lat="43.25156837680284" lon="12.838688496986894"><ele>1090.0</ele><time>2026-04-26T10:21:03.999Z</time></trkpt><trkpt lat="43.25149288238159" lon="12.838747814383414"><ele>1089.0</ele><time>2026-04-26T10:21:04.999Z</time></trkpt><trkpt lat="43.25141676735862" lon="12.838802674293925"><ele>1088.0</ele><time>2026-04-26T10:21:05.999Z</time></trkpt><trkpt lat="43.25134158813981" lon="12.838839589542877"><ele>1087.0</ele><time>2026-04-26T10:21:06.999Z</time></trkpt><trkpt lat="43.25126567166043" lon="12.838864465018975"><ele>1086.0</ele><time>2026-04-26T10:21:07.999Z</time></trkpt><trkpt lat="43.251194042758456" lon="12.838908969883875"><ele>1085.0</ele><time>2026-04-26T10:21:08.999Z</time></trkpt><trkpt lat="43.2511216672142" lon="12.83895592652175"><ele>1085.0</ele><time>2026-04-26T10:21:09.999Z</time></trkpt><trkpt lat="43.25104719093113" lon="12.839003534498685"><ele>1085.0</ele><time>2026-04-26T10:21:10.999Z</time></trkpt><trkpt lat="43.25096923000887" lon="12.839057620435183"><ele>1085.0</ele><time>2026-04-26T10:21:11.999Z</time></trkpt><trkpt lat="43.250885816952945" lon="12.839107126433717"><ele>1085.0</ele><time>2026-04-26T10:21:12.999Z</time></trkpt><trkpt lat="43.250808644265476" lon="12.83916253920148"><ele>1085.0</ele><time>2026-04-26T10:21:13.999Z</time></trkpt><trkpt lat="43.250730940176446" lon="12.839210918128595"><ele>1085.0</ele><time>2026-04-26T10:21:14.999Z</time></trkpt><trkpt lat="43.25066245943946" lon="12.839262581501462"><ele>1084.8333333333335</ele><time>2026-04-26T10:21:15.999Z</time></trkpt><trkpt lat="43.25060487616079" lon="12.839311138225451"><ele>1084.6666666666667</ele><time>2026-04-26T10:21:16.999Z</time></trkpt><trkpt lat="43.250555988660146" lon="12.83937475302493"><ele>1084.5</ele><time>2026-04-26T10:21:17.999Z</time></trkpt><trkpt lat="43.25049890921093" lon="12.839439494649687"><ele>1084.3333333333333</ele><time>2026-04-26T10:21:18.999Z</time></trkpt><trkpt lat="43.25042785246451" lon="12.839502347619002"><ele>1084.1666666666665</ele><time>2026-04-26T10:21:19.999Z</time></trkpt><trkpt lat="43.250347415088946" lon="12.83955392468896"><ele>1084.0</ele><time>2026-04-26T10:21:20.999Z</time></trkpt><trkpt lat="43.25026410034659" lon="12.839609641821951"><ele>1084.0</ele><time>2026-04-26T10:21:21.999Z</time></trkpt><trkpt lat="43.250187482559966" lon="12.839667524646144"><ele>1084.0</ele><time>2026-04-26T10:21:22.999Z</time></trkpt><trkpt lat="43.25012698136593" lon="12.83973668538085"><ele>1084.0</ele><time>2026-04-26T10:21:23.999Z</time></trkpt><trkpt lat="43.2500768707356" lon="12.839804260004875"><ele>1084.0</ele><time>2026-04-26T10:21:24.999Z</time></trkpt><trkpt lat="43.25003785124866" lon="12.839881193167292"><ele>1084.0</ele><time>2026-04-26T10:21:25.999Z</time></trkpt><trkpt lat="43.24996353982665" lon="12.840001359164146"><ele>1084.0</ele><time>2026-04-26T10:21:27.999Z</time></trkpt><trkpt lat="43.24988526710992" lon="12.840106097641845"><ele>1081.8333333333333</ele><time>2026-04-26T10:21:29.999Z</time></trkpt><trkpt lat="43.249835985834395" lon="12.840179869763942"><ele>1079.6666666666665</ele><time>2026-04-26T10:21:31.999Z</time></trkpt><trkpt lat="43.24979727361244" lon="12.840258527688519"><ele>1077.5</ele><time>2026-04-26T10:21:33.999Z</time></trkpt><trkpt lat="43.24985732007992" lon="12.84034793074107"><ele>1075.3333333333333</ele><time>2026-04-26T10:21:36.999Z</time></trkpt><trkpt lat="43.249879508423504" lon="12.840436755462616"><ele>1073.1666666666667</ele><time>2026-04-26T10:21:37.999Z</time></trkpt><trkpt lat="43.24992551602842" lon="12.840527386334294"><ele>1071.0</ele><time>2026-04-26T10:21:39.999Z</time></trkpt><trkpt lat="43.249928371420715" lon="12.840631750175984"><ele>1071.0</ele><time>2026-04-26T10:21:41.999Z</time></trkpt><trkpt lat="43.24991977788396" lon="12.840725032815568"><ele>1071.0</ele><time>2026-04-26T10:21:42.999Z</time></trkpt><trkpt lat="43.24990497095231" lon="12.840825901947872"><ele>1071.0</ele><time>2026-04-26T10:21:43.999Z</time></trkpt><trkpt lat="43.24989770842278" lon="12.840931328928088"><ele>1071.0</ele><time>2026-04-26T10:21:44.999Z</time></trkpt><trkpt lat="43.249904172523635" lon="12.841043872939606"><ele>1071.0</ele><time>2026-04-26T10:21:45.999Z</time></trkpt><trkpt lat="43.24990820273159" lon="12.841146094623594"><ele>1071.0</ele><time>2026-04-26T10:21:46.999Z</time></trkpt><trkpt lat="43.24990841698372" lon="12.841241129589946"><ele>1071.0</ele><time>2026-04-26T10:21:47.999Z</time></trkpt><trkpt lat="43.249888913727375" lon="12.841333311351024"><ele>1069.1666666666667</ele><time>2026-04-26T10:21:48.999Z</time></trkpt><trkpt lat="43.24987590042447" lon="12.841445374838917"><ele>1067.3333333333333</ele><time>2026-04-26T10:21:49.999Z</time></trkpt><trkpt lat="43.24985427018526" lon="12.841566634223902"><ele>1065.5</ele><time>2026-04-26T10:21:50.999Z</time></trkpt><trkpt lat="43.249821024569336" lon="12.841679879762342"><ele>1063.6666666666665</ele><time>2026-04-26T10:21:51.999Z</time></trkpt><trkpt lat="43.249786132334165" lon="12.841782625943162"><ele>1061.8333333333333</ele><time>2026-04-26T10:21:52.999Z</time></trkpt><trkpt lat="43.249754440824404" lon="12.841882703681753"><ele>1060.0</ele><time>2026-04-26T10:21:53.999Z</time></trkpt><trkpt lat="43.249730138250186" lon="12.841978699414787"><ele>1064.6666666666665</ele><time>2026-04-26T10:21:54.999Z</time></trkpt><trkpt lat="43.24970018490373" lon="12.842073065273857"><ele>1069.3333333333333</ele><time>2026-04-26T10:21:55.999Z</time></trkpt><trkpt lat="43.24968126189307" lon="12.842166663252563"><ele>1074.0</ele><time>2026-04-26T10:21:56.999Z</time></trkpt><trkpt lat="43.24964636240627" lon="12.84230791602891"><ele>1078.6666666666667</ele><time>2026-04-26T10:21:58.999Z</time></trkpt><trkpt lat="43.24962735190741" lon="12.842411866952073"><ele>1083.3333333333335</ele><time>2026-04-26T10:22:00.999Z</time></trkpt><trkpt lat="43.249630309742685" lon="12.842509112255408"><ele>1088.0</ele><time>2026-04-26T10:22:02.999Z</time></trkpt><trkpt lat="43.24962490951806" lon="12.842610831844388"><ele>1085.2</ele><time>2026-04-26T10:22:04.999Z</time></trkpt><trkpt lat="43.24959723038756" lon="12.842732065412388"><ele>1082.4</ele><time>2026-04-26T10:22:06.999Z</time></trkpt><trkpt lat="43.24958692658784" lon="12.842845880647369"><ele>1079.6000000000001</ele><time>2026-04-26T10:22:08.999Z</time></trkpt><trkpt lat="43.24956311711249" lon="12.84297956776855"><ele>1076.8</ele><time>2026-04-26T10:22:10.999Z</time></trkpt><trkpt lat="43.249527477334894" lon="12.843119482023146"><ele>1074.0</ele><time>2026-04-26T10:22:12.998Z</time></trkpt><trkpt lat="43.2494964078528" lon="12.843264287171705"><ele>1074.0</ele><time>2026-04-26T10:22:14.998Z</time></trkpt><trkpt lat="43.249456445923585" lon="12.843412315943707"><ele>1074.0</ele><time>2026-04-26T10:22:16.998Z</time></trkpt><trkpt lat="43.24941036547753" lon="12.843559889139648"><ele>1074.0</ele><time>2026-04-26T10:22:18.998Z</time></trkpt><trkpt lat="43.249402767001584" lon="12.843671045958509"><ele>1074.0</ele><time>2026-04-26T10:22:20.998Z</time></trkpt><trkpt lat="43.24939542129394" lon="12.843764276639684"><ele>1074.0</ele><time>2026-04-26T10:22:22.998Z</time></trkpt><trkpt lat="43.24937189291904" lon="12.843846817801381"><ele>1074.0</ele><time>2026-04-26T10:22:23.998Z</time></trkpt><trkpt lat="43.249400456508084" lon="12.844022373581806"><ele>1070.8333333333333</ele><time>2026-04-26T10:22:25.998Z</time></trkpt><trkpt lat="43.249445008938046" lon="12.844085063646386"><ele>1067.6666666666667</ele><time>2026-04-26T10:22:26.998Z</time></trkpt><trkpt lat="43.24949306881543" lon="12.844142740839105"><ele>1064.5</ele><time>2026-04-26T10:22:27.998Z</time></trkpt><trkpt lat="43.24954417506823" lon="12.84419964974362"><ele>1061.3333333333335</ele><time>2026-04-26T10:22:28.998Z</time></trkpt><trkpt lat="43.24959821449026" lon="12.844256958865211"><ele>1058.1666666666667</ele><time>2026-04-26T10:22:29.998Z</time></trkpt><trkpt lat="43.249699394121805" lon="12.844376577077329"><ele>1055.0</ele><time>2026-04-26T10:22:31.998Z</time></trkpt><trkpt lat="43.24976148498634" lon="12.844428394496246"><ele>1052.0</ele><time>2026-04-26T10:22:32.998Z</time></trkpt><trkpt lat="43.24982359543284" lon="12.844495418536873"><ele>1049.0</ele><time>2026-04-26T10:22:33.998Z</time></trkpt><trkpt lat="43.2498810469983" lon="12.844563694467963"><ele>1046.0</ele><time>2026-04-26T10:22:34.998Z</time></trkpt><trkpt lat="43.249940379051736" lon="12.844635644474202"><ele>1043.0</ele><time>2026-04-26T10:22:35.998Z</time></trkpt><trkpt lat="43.25000723095077" lon="12.844708852584917"><ele>1040.0</ele><time>2026-04-26T10:22:36.998Z</time></trkpt><trkpt lat="43.25006721783165" lon="12.844776560639499"><ele>1037.0</ele><time>2026-04-26T10:22:37.998Z</time></trkpt><trkpt lat="43.25011311003958" lon="12.844840454289372"><ele>1037.0</ele><time>2026-04-26T10:22:38.998Z</time></trkpt><trkpt lat="43.250157306300615" lon="12.844912824054433"><ele>1037.0</ele><time>2026-04-26T10:22:39.998Z</time></trkpt><trkpt lat="43.25021319046082" lon="12.844990612310328"><ele>1037.0</ele><time>2026-04-26T10:22:40.998Z</time></trkpt><trkpt lat="43.25026640971296" lon="12.84507199215264"><ele>1037.0</ele><time>2026-04-26T10:22:41.998Z</time></trkpt><trkpt lat="43.25031786886862" lon="12.84514276571325"><ele>1037.0</ele><time>2026-04-26T10:22:42.998Z</time></trkpt><trkpt lat="43.25035242696773" lon="12.845218053652626"><ele>1037.0</ele><time>2026-04-26T10:22:43.998Z</time></trkpt><trkpt lat="43.25044260804507" lon="12.845339253906207"><ele>1034.6</ele><time>2026-04-26T10:22:45.998Z</time></trkpt><trkpt lat="43.25052802762004" lon="12.845422864880591"><ele>1032.2</ele><time>2026-04-26T10:22:47.998Z</time></trkpt><trkpt lat="43.250595257630835" lon="12.845469608783837"><ele>1029.8</ele><time>2026-04-26T10:22:49.998Z</time></trkpt><trkpt lat="43.250688147062036" lon="12.845594482470803"><ele>1027.4</ele><time>2026-04-26T10:22:51.998Z</time></trkpt><trkpt lat="43.25074034813007" lon="12.845669321286685"><ele>1025.0</ele><time>2026-04-26T10:22:52.998Z</time></trkpt><trkpt lat="43.25079336495869" lon="12.845737820212708"><ele>1024.6666666666667</ele><time>2026-04-26T10:22:53.998Z</time></trkpt><trkpt lat="43.25087283334551" lon="12.845838653181927"><ele>1024.3333333333335</ele><time>2026-04-26T10:22:55.998Z</time></trkpt><trkpt lat="43.2509223013068" lon="12.845909535727108"><ele>1024.0</ele><time>2026-04-26T10:22:58.998Z</time></trkpt><trkpt lat="43.250970206070846" lon="12.84598231343621"><ele>1023.6666666666667</ele><time>2026-04-26T10:23:05.998Z</time></trkpt><trkpt lat="43.25103849865074" lon="12.846038313983973"><ele>1023.3333333333334</ele><time>2026-04-26T10:23:10.998Z</time></trkpt><trkpt lat="43.25109848487083" lon="12.846104289473924"><ele>1023.0</ele><time>2026-04-26T10:23:13.998Z</time></trkpt><trkpt lat="43.251144521371394" lon="12.846163358913769"><ele>1021.8333333333334</ele><time>2026-04-26T10:23:15.998Z</time></trkpt><trkpt lat="43.25119847462746" lon="12.846220262270302"><ele>1020.6666666666667</ele><time>2026-04-26T10:23:17.998Z</time></trkpt><trkpt lat="43.25125064941019" lon="12.846285291309634"><ele>1019.5</ele><time>2026-04-26T10:23:19.998Z</time></trkpt><trkpt lat="43.251314448089886" lon="12.846365594097437"><ele>1018.3333333333334</ele><time>2026-04-26T10:23:21.998Z</time></trkpt><trkpt lat="43.25138785360207" lon="12.846469377202158"><ele>1017.1666666666667</ele><time>2026-04-26T10:23:23.998Z</time></trkpt><trkpt lat="43.25148275123748" lon="12.846546404569276"><ele>1016.0</ele><time>2026-04-26T10:23:25.998Z</time></trkpt><trkpt lat="43.251579970643256" lon="12.846625237479712"><ele>1012.8</ele><time>2026-04-26T10:23:27.998Z</time></trkpt><trkpt lat="43.2516458213997" lon="12.846710604888736"><ele>1009.5999999999999</ele><time>2026-04-26T10:23:29.998Z</time></trkpt><trkpt lat="43.251700159603395" lon="12.846757599127619"><ele>1006.4</ele><time>2026-04-26T10:23:31.998Z</time></trkpt><trkpt lat="43.25175772494267" lon="12.846794150684994"><ele>1003.2</ele><time>2026-04-26T10:23:33.998Z</time></trkpt><trkpt lat="43.25182612560038" lon="12.846822428349721"><ele>1000.0</ele><time>2026-04-26T10:23:35.998Z</time></trkpt><trkpt lat="43.25203505942694" lon="12.846958635280279"><ele>993.6666666666666</ele><time>2026-04-26T10:23:48.998Z</time></trkpt><trkpt lat="43.25224435082112" lon="12.846969586246633"><ele>987.3333333333333</ele><time>2026-04-26T10:23:57.998Z</time></trkpt><trkpt lat="43.25242610018319" lon="12.846979962738958"><ele>981.0</ele><time>2026-04-26T10:24:03.998Z</time></trkpt><trkpt lat="43.25252975856185" lon="12.846962328811195"><ele>977.25</ele><time>2026-04-26T10:24:05.998Z</time></trkpt><trkpt lat="43.25264375860844" lon="12.846952896648553"><ele>973.5</ele><time>2026-04-26T10:24:07.998Z</time></trkpt><trkpt lat="43.25275649668667" lon="12.846916385085862"><ele>969.75</ele><time>2026-04-26T10:24:09.998Z</time></trkpt><trkpt lat="43.252871658735494" lon="12.84689271564306"><ele>966.0</ele><time>2026-04-26T10:24:11.998Z</time></trkpt><trkpt lat="43.252995238914465" lon="12.846875695008304"><ele>966.0</ele><time>2026-04-26T10:24:13.998Z</time></trkpt><trkpt lat="43.25311403041076" lon="12.846849574145937"><ele>965.9999999999999</ele><time>2026-04-26T10:24:15.998Z</time></trkpt><trkpt lat="43.25322781119287" lon="12.846868757517825"><ele>965.9999999999999</ele><time>2026-04-26T10:24:18Z</time></trkpt><trkpt lat="43.25333377307558" lon="12.8468790617849"><ele>966.0</ele><time>2026-04-26T10:24:20Z</time></trkpt><trkpt lat="43.25343009311444" lon="12.846880839076977"><ele>966.0</ele><time>2026-04-26T10:24:22Z</time></trkpt><trkpt lat="43.25350637999427" lon="12.846870327864535"><ele>961.8333333333334</ele><time>2026-04-26T10:24:24Z</time></trkpt><trkpt lat="43.253590930850834" lon="12.84687124763587"><ele>957.6666666666667</ele><time>2026-04-26T10:24:27Z</time></trkpt><trkpt lat="43.25368135412566" lon="12.846825877290085"><ele>953.5</ele><time>2026-04-26T10:24:30Z</time></trkpt><trkpt lat="43.25379021237426" lon="12.846824638430606"><ele>949.3333333333334</ele><time>2026-04-26T10:24:32Z</time></trkpt><trkpt lat="43.25386010307314" lon="12.846827337434723"><ele>945.1666666666667</ele><time>2026-04-26T10:24:33Z</time></trkpt><trkpt lat="43.253923092041504" lon="12.846828396863677"><ele>941.0</ele><time>2026-04-26T10:24:34Z</time></trkpt><trkpt lat="43.25400264699526" lon="12.846823168302887"><ele>937.0000000000001</ele><time>2026-04-26T10:24:36Z</time></trkpt><trkpt lat="43.254074703054535" lon="12.8468574902138"><ele>933.0</ele><time>2026-04-26T10:24:40Z</time></trkpt><trkpt lat="43.25409665941175" lon="12.846939515794688"><ele>929.0</ele><time>2026-04-26T10:24:42Z</time></trkpt><trkpt lat="43.25411768102579" lon="12.847056267288915"><ele>925.0</ele><time>2026-04-26T10:24:45Z</time></trkpt><trkpt lat="43.25409390260459" lon="12.847165497670757"><ele>921.0000000000001</ele><time>2026-04-26T10:24:48Z</time></trkpt><trkpt lat="43.25404773557561" lon="12.847274302853721"><ele>917.0</ele><time>2026-04-26T10:24:51Z</time></trkpt><trkpt lat="43.25399980377509" lon="12.847335233995468"><ele>914.6</ele><time>2026-04-26T10:24:55Z</time></trkpt><trkpt lat="43.25387350166839" lon="12.8474952652731"><ele>912.2</ele><time>2026-04-26T10:25:09Z</time></trkpt><trkpt lat="43.25382929165782" lon="12.847585638903155"><ele>909.8</ele><time>2026-04-26T10:25:12Z</time></trkpt><trkpt lat="43.253767723798" lon="12.847662571413032"><ele>907.4</ele><time>2026-04-26T10:25:15Z</time></trkpt><trkpt lat="43.253717711183185" lon="12.847743879774406"><ele>905.0</ele><time>2026-04-26T10:25:18Z</time></trkpt><trkpt lat="43.25367335879912" lon="12.847822619524251"><ele>905.0000000000001</ele><time>2026-04-26T10:25:20Z</time></trkpt><trkpt lat="43.25361297732219" lon="12.847880712987662"><ele>905.0</ele><time>2026-04-26T10:25:23Z</time></trkpt><trkpt lat="43.253538470905" lon="12.847967677737913"><ele>905.0</ele><time>2026-04-26T10:25:26Z</time></trkpt><trkpt lat="43.25349656265078" lon="12.848039631143472"><ele>905.0</ele><time>2026-04-26T10:25:30Z</time></trkpt><trkpt lat="43.253435270819836" lon="12.84811062979881"><ele>905.0000000000001</ele><time>2026-04-26T10:25:35Z</time></trkpt><trkpt lat="43.253371039138436" lon="12.848127169124506"><ele>905.0</ele><time>2026-04-26T10:25:40Z</time></trkpt><trkpt lat="43.25330686657211" lon="12.848178300368112"><ele>905.0000000000001</ele><time>2026-04-26T10:25:48Z</time></trkpt><trkpt lat="43.25325574055014" lon="12.848243574492136"><ele>905.0</ele><time>2026-04-26T10:25:51Z</time></trkpt><trkpt lat="43.253188320456815" lon="12.84832036603805"><ele>905.0</ele><time>2026-04-26T10:25:54Z</time></trkpt><trkpt lat="43.25313187092641" lon="12.848375398348754"><ele>905.0</ele><time>2026-04-26T10:25:56Z</time></trkpt><trkpt lat="43.253080054660686" lon="12.848452800065362"><ele>905.0000000000001</ele><time>2026-04-26T10:25:58Z</time></trkpt><trkpt lat="43.25302909965317" lon="12.84852500217631"><ele>905.0</ele><time>2026-04-26T10:26:00Z</time></trkpt><trkpt lat="43.25296423209998" lon="12.848596136160614"><ele>901.6666666666667</ele><time>2026-04-26T10:26:02Z</time></trkpt><trkpt lat="43.25287561874529" lon="12.848644700866759"><ele>898.3333333333334</ele><time>2026-04-26T10:26:04Z</time></trkpt><trkpt lat="43.252789533801504" lon="12.848738631301764"><ele>895.0</ele><time>2026-04-26T10:26:06Z</time></trkpt><trkpt lat="43.252731404947305" lon="12.848784961134129"><ele>891.6666666666667</ele><time>2026-04-26T10:26:08Z</time></trkpt><trkpt lat="43.25265467553996" lon="12.848854678535504"><ele>888.3333333333334</ele><time>2026-04-26T10:26:11Z</time></trkpt><trkpt lat="43.25259549558754" lon="12.848930972735506"><ele>885.0</ele><time>2026-04-26T10:26:13Z</time></trkpt><trkpt lat="43.25257239447265" lon="12.84903250220755"><ele>885.0</ele><time>2026-04-26T10:26:14.999Z</time></trkpt><trkpt lat="43.252552266676666" lon="12.849152098787055"><ele>885.0</ele><time>2026-04-26T10:26:18.999Z</time></trkpt><trkpt lat="43.252538373994305" lon="12.849247470173479"><ele>885.0</ele><time>2026-04-26T10:26:21.999Z</time></trkpt><trkpt lat="43.25261483424269" lon="12.849321713050967"><ele>885.0</ele><time>2026-04-26T10:26:24.999Z</time></trkpt><trkpt lat="43.25268038214449" lon="12.849367611669926"><ele>885.0</ele><time>2026-04-26T10:26:26.999Z</time></trkpt><trkpt lat="43.2527476203654" lon="12.849386239859918"><ele>885.0</ele><time>2026-04-26T10:26:28.999Z</time></trkpt><trkpt lat="43.252813649129514" lon="12.849426286745466"><ele>878.0</ele><time>2026-04-26T10:26:30.999Z</time></trkpt><trkpt lat="43.252889120664996" lon="12.849460279824664"><ele>871.0</ele><time>2026-04-26T10:26:32.999Z</time></trkpt><trkpt lat="43.25297699321657" lon="12.8495090714518"><ele>864.0</ele><time>2026-04-26T10:26:35.999Z</time></trkpt><trkpt lat="43.25306193644472" lon="12.849506097591526"><ele>857.0</ele><time>2026-04-26T10:26:37.999Z</time></trkpt><trkpt lat="43.25312949092565" lon="12.84948820514629"><ele>850.0</ele><time>2026-04-26T10:26:39.999Z</time></trkpt><trkpt lat="43.25319346211439" lon="12.849484931214743"><ele>843.0</ele><time>2026-04-26T10:26:41.999Z</time></trkpt><trkpt lat="43.253302263367104" lon="12.849487691008736"><ele>838.6666666666666</ele><time>2026-04-26T10:26:44.999Z</time></trkpt><trkpt lat="43.25336861831472" lon="12.8494931574218"><ele>834.3333333333333</ele><time>2026-04-26T10:26:46.999Z</time></trkpt><trkpt lat="43.253442137575675" lon="12.849481039013561"><ele>830.0</ele><time>2026-04-26T10:26:48.999Z</time></trkpt><trkpt lat="43.25351485070421" lon="12.849431744078345"><ele>825.6666666666666</ele><time>2026-04-26T10:26:50.999Z</time></trkpt><trkpt lat="43.253582945389226" lon="12.849360848132138"><ele>821.3333333333333</ele><time>2026-04-26T10:26:53.999Z</time></trkpt><trkpt lat="43.253651729868345" lon="12.849342029644212"><ele>817.0</ele><time>2026-04-26T10:26:56.999Z</time></trkpt><trkpt lat="43.25373422127218" lon="12.849314201627799"><ele>816.9999999999999</ele><time>2026-04-26T10:26:59.999Z</time></trkpt><trkpt lat="43.25382599279493" lon="12.849321269201406"><ele>817.0</ele><time>2026-04-26T10:27:02.999Z</time></trkpt><trkpt lat="43.25391208796822" lon="12.849305983651462"><ele>817.0</ele><time>2026-04-26T10:27:04.999Z</time></trkpt><trkpt lat="43.25399585889898" lon="12.849283745069812"><ele>817.0</ele><time>2026-04-26T10:27:06.999Z</time></trkpt><trkpt lat="43.25406271463889" lon="12.849260609878986"><ele>816.9999999999999</ele><time>2026-04-26T10:27:08.999Z</time></trkpt><trkpt lat="43.25413718326179" lon="12.849242544166124"><ele>817.0</ele><time>2026-04-26T10:27:10.999Z</time></trkpt><trkpt lat="43.254219544684354" lon="12.849224760261839"><ele>815.3333333333333</ele><time>2026-04-26T10:27:12.999Z</time></trkpt><trkpt lat="43.25430964061288" lon="12.849204854591168"><ele>813.6666666666666</ele><time>2026-04-26T10:27:15.999Z</time></trkpt><trkpt lat="43.254384169657115" lon="12.84921174677126"><ele>812.0</ele><time>2026-04-26T10:27:17.999Z</time></trkpt><trkpt lat="43.25448888455171" lon="12.849221869928554"><ele>810.3333333333333</ele><time>2026-04-26T10:27:20.999Z</time></trkpt><trkpt lat="43.254561803704476" lon="12.849238692030683"><ele>808.6666666666666</ele><time>2026-04-26T10:27:22.999Z</time></trkpt><trkpt lat="43.25462991298668" lon="12.84925356751932"><ele>807.0</ele><time>2026-04-26T10:27:24.999Z</time></trkpt><trkpt lat="43.2548748990355" lon="12.849250029432358"><ele>807.0000000000001</ele><time>2026-04-26T10:27:30.999Z</time></trkpt><trkpt lat="43.25495293989887" lon="12.849250262004409"><ele>807.0</ele><time>2026-04-26T10:27:32.999Z</time></trkpt><trkpt lat="43.25502083240544" lon="12.849289317747704"><ele>807.0</ele><time>2026-04-26T10:27:34.999Z</time></trkpt><trkpt lat="43.25508584539279" lon="12.849329321697516"><ele>807.0</ele><time>2026-04-26T10:27:36.999Z</time></trkpt><trkpt lat="43.255152454320935" lon="12.849349733917503"><ele>807.0</ele><time>2026-04-26T10:27:38.999Z</time></trkpt><trkpt lat="43.25521686478097" lon="12.849358242371604"><ele>807.0000000000001</ele><time>2026-04-26T10:27:40.999Z</time></trkpt><trkpt lat="43.25528909025398" lon="12.84934463890138"><ele>807.0</ele><time>2026-04-26T10:27:42.999Z</time></trkpt><trkpt lat="43.25537208590126" lon="12.84932520916168"><ele>797.6</ele><time>2026-04-26T10:27:44.999Z</time></trkpt><trkpt lat="43.25545899176309" lon="12.849368841778697"><ele>788.2</ele><time>2026-04-26T10:27:46.999Z</time></trkpt><trkpt lat="43.25554754427897" lon="12.849394001327266"><ele>778.8</ele><time>2026-04-26T10:27:48.999Z</time></trkpt><trkpt lat="43.25564098660202" lon="12.849431790979516"><ele>769.4</ele><time>2026-04-26T10:27:50.999Z</time></trkpt><trkpt lat="43.25579919526401" lon="12.849432153074396"><ele>760.0</ele><time>2026-04-26T10:27:55.999Z</time></trkpt><trkpt lat="43.255845217076946" lon="12.849491597287978"><ele>757.8571428571429</ele><time>2026-04-26T10:27:59.999Z</time></trkpt><trkpt lat="43.25591831401915" lon="12.849479016118492"><ele>755.7142857142858</ele><time>2026-04-26T10:28:07.999Z</time></trkpt><trkpt lat="43.255976287710155" lon="12.84943565969885"><ele>753.5714285714286</ele><time>2026-04-26T10:28:15.999Z</time></trkpt><trkpt lat="43.25602230259855" lon="12.849371882493699"><ele>751.4285714285714</ele><time>2026-04-26T10:28:28.999Z</time></trkpt><trkpt lat="43.25606367156871" lon="12.849306629441221"><ele>749.2857142857142</ele><time>2026-04-26T10:28:40.999Z</time></trkpt><trkpt lat="43.25612519104837" lon="12.84934118346239"><ele>747.1428571428571</ele><time>2026-04-26T10:28:57.999Z</time></trkpt><trkpt lat="43.25617616121557" lon="12.849219433013976"><ele>745.0</ele><time>2026-04-26T10:29:26.999Z</time></trkpt><trkpt lat="43.25624166849277" lon="12.849234538331949"><ele>745.0</ele><time>2026-04-26T10:31:30Z</time></trkpt><trkpt lat="43.25629789862866" lon="12.849187678864133"><ele>745.0</ele><time>2026-04-26T10:31:35Z</time></trkpt><trkpt lat="43.25636150654846" lon="12.849153815783907"><ele>745.0</ele><time>2026-04-26T10:31:39Z</time></trkpt><trkpt lat="43.256374913678584" lon="12.849241561021904"><ele>745.0</ele><time>2026-04-26T10:31:43Z</time></trkpt><trkpt lat="43.25635354383701" lon="12.849328776061267"><ele>745.0</ele><time>2026-04-26T10:31:47Z</time></trkpt><trkpt lat="43.256351093816534" lon="12.849420698955283"><ele>745.0</ele><time>2026-04-26T10:31:50Z</time></trkpt><trkpt lat="43.25636192351553" lon="12.84953264762035"><ele>745.0</ele><time>2026-04-26T10:31:53Z</time></trkpt><trkpt lat="43.25633232603095" lon="12.849631985184837"><ele>745.0</ele><time>2026-04-26T10:31:56Z</time></trkpt><trkpt lat="43.256278583221814" lon="12.849695535542564"><ele>745.0</ele><time>2026-04-26T10:31:58Z</time></trkpt><trkpt lat="43.25620855870611" lon="12.84977671546188"><ele>745.0</ele><time>2026-04-26T10:32:00Z</time></trkpt><trkpt lat="43.25612779466907" lon="12.849825153461738"><ele>745.0</ele><time>2026-04-26T10:32:01.999Z</time></trkpt><trkpt lat="43.256078851845864" lon="12.849889765165596"><ele>745.0</ele><time>2026-04-26T10:32:04.999Z</time></trkpt><trkpt lat="43.25602236512512" lon="12.84994789646975"><ele>745.0</ele><time>2026-04-26T10:32:06.999Z</time></trkpt><trkpt lat="43.2559369111143" lon="12.850018049871816"><ele>745.0</ele><time>2026-04-26T10:32:08.999Z</time></trkpt><trkpt lat="43.25581684664711" lon="12.850089147441922"><ele>745.0</ele><time>2026-04-26T10:32:10.999Z</time></trkpt><trkpt lat="43.25572334909321" lon="12.850137168514825"><ele>745.0</ele><time>2026-04-26T10:32:12.999Z</time></trkpt><trkpt lat="43.255656313070645" lon="12.850208214877306"><ele>745.0</ele><time>2026-04-26T10:32:15.999Z</time></trkpt><trkpt lat="43.255608624864536" lon="12.850285683084582"><ele>745.0</ele><time>2026-04-26T10:32:17.999Z</time></trkpt><trkpt lat="43.25554160960479" lon="12.850379035570194"><ele>743.5</ele><time>2026-04-26T10:32:20.999Z</time></trkpt><trkpt lat="43.25548620500216" lon="12.850455524483388"><ele>742.0</ele><time>2026-04-26T10:32:22.999Z</time></trkpt><trkpt lat="43.25542871316837" lon="12.850524371533155"><ele>740.5</ele><time>2026-04-26T10:32:24.999Z</time></trkpt><trkpt lat="43.25536781911732" lon="12.85061742218058"><ele>739.0</ele><time>2026-04-26T10:32:26.999Z</time></trkpt><trkpt lat="43.255323975558" lon="12.85070491211538"><ele>737.5</ele><time>2026-04-26T10:32:28.999Z</time></trkpt><trkpt lat="43.25524242685975" lon="12.85080514338088"><ele>736.0</ele><time>2026-04-26T10:32:30.999Z</time></trkpt><trkpt lat="43.25527801681799" lon="12.850882057939145"><ele>736.0</ele><time>2026-04-26T10:32:33.999Z</time></trkpt><trkpt lat="43.255380650882884" lon="12.850868561652975"><ele>736.0</ele><time>2026-04-26T10:32:35.999Z</time></trkpt><trkpt lat="43.255503473999504" lon="12.850861434165099"><ele>736.0</ele><time>2026-04-26T10:32:37.999Z</time></trkpt><trkpt lat="43.25561121256486" lon="12.850875739383731"><ele>736.0</ele><time>2026-04-26T10:32:39.999Z</time></trkpt><trkpt lat="43.2556909481158" lon="12.850878762011257"><ele>736.0</ele><time>2026-04-26T10:32:41.999Z</time></trkpt><trkpt lat="43.25576813108145" lon="12.850837163544021"><ele>732.8</ele><time>2026-04-26T10:32:43.999Z</time></trkpt><trkpt lat="43.25586905027771" lon="12.850833137934922"><ele>729.5999999999999</ele><time>2026-04-26T10:32:45.999Z</time></trkpt><trkpt lat="43.25592393247938" lon="12.850898884302172"><ele>726.4</ele><time>2026-04-26T10:32:47.999Z</time></trkpt><trkpt lat="43.25592656784584" lon="12.851029641967052"><ele>723.2</ele><time>2026-04-26T10:32:49.999Z</time></trkpt><trkpt lat="43.25586073934554" lon="12.851167566704024"><ele>720.0</ele><time>2026-04-26T10:32:51.999Z</time></trkpt><trkpt lat="43.25582790783435" lon="12.85125406035671"><ele>719.6666666666666</ele><time>2026-04-26T10:32:52.999Z</time></trkpt><trkpt lat="43.25578859209299" lon="12.851346377955522"><ele>719.3333333333334</ele><time>2026-04-26T10:32:53.999Z</time></trkpt><trkpt lat="43.25573745500505" lon="12.8514357827772"><ele>719.0</ele><time>2026-04-26T10:32:54.999Z</time></trkpt><trkpt lat="43.25568239440235" lon="12.851520144672635"><ele>718.6666666666667</ele><time>2026-04-26T10:32:55.999Z</time></trkpt><trkpt lat="43.255623031499574" lon="12.851591156331015"><ele>718.3333333333334</ele><time>2026-04-26T10:32:56.999Z</time></trkpt><trkpt lat="43.25556857641369" lon="12.851655863449642"><ele>718.0</ele><time>2026-04-26T10:32:57.999Z</time></trkpt><trkpt lat="43.2555199126656" lon="12.851719114805448"><ele>718.0</ele><time>2026-04-26T10:32:58.999Z</time></trkpt><trkpt lat="43.25547073851749" lon="12.851781153980475"><ele>718.0</ele><time>2026-04-26T10:32:59.999Z</time></trkpt><trkpt lat="43.25542615552843" lon="12.851851998752043"><ele>718.0</ele><time>2026-04-26T10:33:00.999Z</time></trkpt><trkpt lat="43.25538828383907" lon="12.851921415074074"><ele>718.0</ele><time>2026-04-26T10:33:01.999Z</time></trkpt><trkpt lat="43.25533783914907" lon="12.85198972875844"><ele>718.0</ele><time>2026-04-26T10:33:02.999Z</time></trkpt><trkpt lat="43.25528786472269" lon="12.85204527666869"><ele>718.0</ele><time>2026-04-26T10:33:03.999Z</time></trkpt><trkpt lat="43.25523699930808" lon="12.852127522740357"><ele>718.0</ele><time>2026-04-26T10:33:05.999Z</time></trkpt><trkpt lat="43.25517281754016" lon="12.852184680295704"><ele>715.2857142857143</ele><time>2026-04-26T10:33:08.999Z</time></trkpt><trkpt lat="43.255111100183925" lon="12.852218590760438"><ele>712.5714285714287</ele><time>2026-04-26T10:33:10.999Z</time></trkpt><trkpt lat="43.25505593017306" lon="12.852268335343494"><ele>709.8571428571429</ele><time>2026-04-26T10:33:12.999Z</time></trkpt><trkpt lat="43.25499551664637" lon="12.852305421933437"><ele>707.1428571428571</ele><time>2026-04-26T10:33:14.999Z</time></trkpt><trkpt lat="43.25492460278988" lon="12.852348666286748"><ele>704.4285714285714</ele><time>2026-04-26T10:33:16.999Z</time></trkpt><trkpt lat="43.2548425924396" lon="12.852362627514621"><ele>701.7142857142857</ele><time>2026-04-26T10:33:18.999Z</time></trkpt><trkpt lat="43.25476828237714" lon="12.852405406114903"><ele>699.0</ele><time>2026-04-26T10:33:20.999Z</time></trkpt><trkpt lat="43.25470008055936" lon="12.852428935671771"><ele>699.0</ele><time>2026-04-26T10:33:24.999Z</time></trkpt><trkpt lat="43.254619889386156" lon="12.8524476342088"><ele>699.0</ele><time>2026-04-26T10:33:27.999Z</time></trkpt><trkpt lat="43.254522149932264" lon="12.852507804844882"><ele>699.0</ele><time>2026-04-26T10:33:30.999Z</time></trkpt><trkpt lat="43.254408693699105" lon="12.852540275720598"><ele>699.0</ele><time>2026-04-26T10:33:32.999Z</time></trkpt><trkpt lat="43.25434345476016" lon="12.852560601776716"><ele>699.0</ele><time>2026-04-26T10:33:33.999Z</time></trkpt><trkpt lat="43.25427958787068" lon="12.852578656572105"><ele>699.0</ele><time>2026-04-26T10:33:34.999Z</time></trkpt><trkpt lat="43.25421488735185" lon="12.852589238450477"><ele>699.0</ele><time>2026-04-26T10:33:35.999Z</time></trkpt><trkpt lat="43.25414409763139" lon="12.852611958323514"><ele>699.0</ele><time>2026-04-26T10:33:36.999Z</time></trkpt><trkpt lat="43.25407547065691" lon="12.85260142682054"><ele>699.0</ele><time>2026-04-26T10:33:37.999Z</time></trkpt><trkpt lat="43.25397595223227" lon="12.852612794876176"><ele>699.0</ele><time>2026-04-26T10:33:39.999Z</time></trkpt><trkpt lat="43.25386948658113" lon="12.85261873506019"><ele>699.0</ele><time>2026-04-26T10:33:41.999Z</time></trkpt><trkpt lat="43.25376314542921" lon="12.852611066670459"><ele>695.0</ele><time>2026-04-26T10:33:43.999Z</time></trkpt><trkpt lat="43.2536669031793" lon="12.852645043949193"><ele>691.0</ele><time>2026-04-26T10:33:45.999Z</time></trkpt><trkpt lat="43.253582723215224" lon="12.852649352272877"><ele>687.0</ele><time>2026-04-26T10:33:47.999Z</time></trkpt><trkpt lat="43.25351439008563" lon="12.85264961469379"><ele>683.0</ele><time>2026-04-26T10:33:49.999Z</time></trkpt><trkpt lat="43.253451973214446" lon="12.8526998606996"><ele>679.0</ele><time>2026-04-26T10:33:50.999Z</time></trkpt><trkpt lat="43.25341879623742" lon="12.85280528843803"><ele>675.0</ele><time>2026-04-26T10:33:52.999Z</time></trkpt><trkpt lat="43.25342657643172" lon="12.852894155572221"><ele>675.0</ele><time>2026-04-26T10:33:56.999Z</time></trkpt><trkpt lat="43.253410524238205" lon="12.852986042871484"><ele>675.0</ele><time>2026-04-26T10:33:58.999Z</time></trkpt><trkpt lat="43.253319417305576" lon="12.853078385665112"><ele>675.0</ele><time>2026-04-26T10:34:00.999Z</time></trkpt><trkpt lat="43.2532542010137" lon="12.853091453105622"><ele>675.0</ele><time>2026-04-26T10:34:01.999Z</time></trkpt><trkpt lat="43.253184584957914" lon="12.85311621839853"><ele>675.0</ele><time>2026-04-26T10:34:02.999Z</time></trkpt><trkpt lat="43.25312395195279" lon="12.853152947399682"><ele>675.0</ele><time>2026-04-26T10:34:03.999Z</time></trkpt><trkpt lat="43.25307158718379" lon="12.853209254355155"><ele>675.2857142857142</ele><time>2026-04-26T10:34:04.999Z</time></trkpt><trkpt lat="43.25303379330747" lon="12.853289129649756"><ele>675.5714285714286</ele><time>2026-04-26T10:34:05.999Z</time></trkpt><trkpt lat="43.2530180082933" lon="12.853381854190866"><ele>675.8571428571429</ele><time>2026-04-26T10:34:06.999Z</time></trkpt><trkpt lat="43.25301763833241" lon="12.85347866911694"><ele>676.1428571428571</ele><time>2026-04-26T10:34:07.999Z</time></trkpt><trkpt lat="43.2530218604128" lon="12.853577643613372"><ele>676.4285714285714</ele><time>2026-04-26T10:34:08.999Z</time></trkpt><trkpt lat="43.2530264513595" lon="12.853699013951754"><ele>676.7142857142857</ele><time>2026-04-26T10:34:10.999Z</time></trkpt><trkpt lat="43.252994696323526" lon="12.853781364463355"><ele>677.0</ele><time>2026-04-26T10:34:12.999Z</time></trkpt><trkpt lat="43.252922247423925" lon="12.853884547780702"><ele>674.3333333333333</ele><time>2026-04-26T10:34:14.999Z</time></trkpt><trkpt lat="43.25283031410524" lon="12.853920934974633"><ele>671.6666666666666</ele><time>2026-04-26T10:34:16.999Z</time></trkpt><trkpt lat="43.25275534336741" lon="12.853920931620646"><ele>669.0</ele><time>2026-04-26T10:34:21.999Z</time></trkpt><trkpt lat="43.252681698931" lon="12.853935840900172"><ele>666.3333333333334</ele><time>2026-04-26T10:34:25.999Z</time></trkpt><trkpt lat="43.25261062324347" lon="12.853954956369268"><ele>663.6666666666667</ele><time>2026-04-26T10:34:28.999Z</time></trkpt><trkpt lat="43.25253231286799" lon="12.853982543050519"><ele>661.0</ele><time>2026-04-26T10:34:31.999Z</time></trkpt><trkpt lat="43.25246845082095" lon="12.854059726736287"><ele>661.0</ele><time>2026-04-26T10:34:33.999Z</time></trkpt><trkpt lat="43.252403011630406" lon="12.854154735382682"><ele>661.0</ele><time>2026-04-26T10:34:35.999Z</time></trkpt><trkpt lat="43.25235823486038" lon="12.854223951978456"><ele>661.0</ele><time>2026-04-26T10:34:37.999Z</time></trkpt><trkpt lat="43.2522859596751" lon="12.854300553028226"><ele>661.0</ele><time>2026-04-26T10:34:39.999Z</time></trkpt><trkpt lat="43.25218228526155" lon="12.854401704972776"><ele>661.0</ele><time>2026-04-26T10:34:41.999Z</time></trkpt><trkpt lat="43.25211279700523" lon="12.85442887819339"><ele>660.0</ele><time>2026-04-26T10:34:42.999Z</time></trkpt><trkpt lat="43.25204153200208" lon="12.854460414038947"><ele>659.0</ele><time>2026-04-26T10:34:43.999Z</time></trkpt><trkpt lat="43.25197379923313" lon="12.854497098900335"><ele>658.0</ele><time>2026-04-26T10:34:44.999Z</time></trkpt><trkpt lat="43.25191672535585" lon="12.854543301875166"><ele>657.0</ele><time>2026-04-26T10:34:45.999Z</time></trkpt><trkpt lat="43.25180445703447" lon="12.854635357156823"><ele>656.0</ele><time>2026-04-26T10:34:47.999Z</time></trkpt><trkpt lat="43.25174484395202" lon="12.854692671615446"><ele>655.0</ele><time>2026-04-26T10:34:48.999Z</time></trkpt><trkpt lat="43.251685890511034" lon="12.854748389080408"><ele>655.0</ele><time>2026-04-26T10:34:49.999Z</time></trkpt><trkpt lat="43.251593592509856" lon="12.854846803318432"><ele>655.0</ele><time>2026-04-26T10:34:51.999Z</time></trkpt><trkpt lat="43.251503337863404" lon="12.854953584827594"><ele>655.0</ele><time>2026-04-26T10:34:53.999Z</time></trkpt><trkpt lat="43.251448969972365" lon="12.855101209432622"><ele>655.0</ele><time>2026-04-26T10:34:55.999Z</time></trkpt><trkpt lat="43.25142746362309" lon="12.855250986379483"><ele>655.1666666666667</ele><time>2026-04-26T10:34:57.999Z</time></trkpt><trkpt lat="43.251375618634285" lon="12.855315398205382"><ele>655.3333333333334</ele><time>2026-04-26T10:34:58.999Z</time></trkpt><trkpt lat="43.25131754878658" lon="12.85538202781194"><ele>655.5</ele><time>2026-04-26T10:34:59.999Z</time></trkpt><trkpt lat="43.25126181856944" lon="12.855442835443752"><ele>655.6666666666666</ele><time>2026-04-26T10:35:00.999Z</time></trkpt><trkpt lat="43.251185217662524" lon="12.855538214555335"><ele>655.8333333333333</ele><time>2026-04-26T10:35:02.999Z</time></trkpt><trkpt lat="43.25107007483498" lon="12.855611417330202"><ele>656.0</ele><time>2026-04-26T10:35:04.999Z</time></trkpt><trkpt lat="43.25099046525044" lon="12.855690486575371"><ele>656.0</ele><time>2026-04-26T10:35:05.999Z</time></trkpt><trkpt lat="43.2509035345412" lon="12.855813097690799"><ele>656.0</ele><time>2026-04-26T10:35:06.999Z</time></trkpt><trkpt lat="43.250816569433574" lon="12.855963057638906"><ele>656.0</ele><time>2026-04-26T10:35:07.999Z</time></trkpt><trkpt lat="43.250729174598185" lon="12.856113758580113"><ele>656.0</ele><time>2026-04-26T10:35:08.999Z</time></trkpt><trkpt lat="43.250653357789915" lon="12.85624449472248"><ele>656.0</ele><time>2026-04-26T10:35:09.999Z</time></trkpt><trkpt lat="43.250589319867125" lon="12.856354919699058"><ele>656.0</ele><time>2026-04-26T10:35:10.999Z</time></trkpt><trkpt lat="43.250538289796914" lon="12.856442914371511"><ele>656.0</ele><time>2026-04-26T10:35:11.999Z</time></trkpt><trkpt lat="43.25049676489628" lon="12.856514518597457"><ele>656.0</ele><time>2026-04-26T10:35:12.999Z</time></trkpt><trkpt lat="43.250435655013945" lon="12.856623343497631"><ele>656.0</ele><time>2026-04-26T10:35:14.999Z</time></trkpt><trkpt lat="43.25038739985883" lon="12.856711678528008"><ele>656.0</ele><time>2026-04-26T10:35:16.999Z</time></trkpt><trkpt lat="43.25034813520301" lon="12.856783555667821"><ele>656.6666666666666</ele><time>2026-04-26T10:35:20.999Z</time></trkpt><trkpt lat="43.25037276502201" lon="12.856868476942857"><ele>657.3333333333333</ele><time>2026-04-26T10:35:41.999Z</time></trkpt><trkpt lat="43.25039242429808" lon="12.856985686154147"><ele>658.0</ele><time>2026-04-26T10:35:43.999Z</time></trkpt><trkpt lat="43.2504729023916" lon="12.857017055719224"><ele>658.6666666666666</ele><time>2026-04-26T10:35:45.999Z</time></trkpt><trkpt lat="43.25054058750628" lon="12.857062453397193"><ele>659.3333333333334</ele><time>2026-04-26T10:35:47.999Z</time></trkpt><trkpt lat="43.25060624937405" lon="12.857141707236257"><ele>660.0</ele><time>2026-04-26T10:35:50.999Z</time></trkpt><trkpt lat="43.250665484249254" lon="12.85717803297418"><ele>661.8571428571429</ele><time>2026-04-26T10:35:52.999Z</time></trkpt><trkpt lat="43.25072818673873" lon="12.857249771702806"><ele>663.7142857142858</ele><time>2026-04-26T10:35:55.999Z</time></trkpt><trkpt lat="43.25078922895417" lon="12.85727885573868"><ele>665.5714285714287</ele><time>2026-04-26T10:35:57.999Z</time></trkpt><trkpt lat="43.250850769970285" lon="12.857331028594098"><ele>667.4285714285714</ele><time>2026-04-26T10:35:59.999Z</time></trkpt><trkpt lat="43.25092193203183" lon="12.85737252946843"><ele>669.2857142857142</ele><time>2026-04-26T10:36:03.999Z</time></trkpt><trkpt lat="43.250949289869126" lon="12.857455817345716"><ele>671.1428571428572</ele><time>2026-04-26T10:36:06.999Z</time></trkpt><trkpt lat="43.251005215321705" lon="12.857503790710693"><ele>673.0</ele><time>2026-04-26T10:36:10.999Z</time></trkpt><trkpt lat="43.251076704617425" lon="12.857566888865993"><ele>676.8571428571429</ele><time>2026-04-26T10:36:14.999Z</time></trkpt><trkpt lat="43.251127457854665" lon="12.85764328163538"><ele>680.7142857142857</ele><time>2026-04-26T10:36:18.999Z</time></trkpt><trkpt lat="43.25120499057782" lon="12.857699507737921"><ele>684.5714285714286</ele><time>2026-04-26T10:36:21.999Z</time></trkpt><trkpt lat="43.25125691247707" lon="12.857758361804082"><ele>688.4285714285714</ele><time>2026-04-26T10:36:23.999Z</time></trkpt><trkpt lat="43.251306583201824" lon="12.85781677994543"><ele>692.2857142857142</ele><time>2026-04-26T10:36:25.999Z</time></trkpt><trkpt lat="43.25136749818392" lon="12.85784537559229"><ele>696.1428571428571</ele><time>2026-04-26T10:36:28.999Z</time></trkpt><trkpt lat="43.25139909222572" lon="12.857924443104988"><ele>700.0</ele><time>2026-04-26T10:36:31.999Z</time></trkpt><trkpt lat="43.25144208142492" lon="12.858003918475125"><ele>700.5714285714286</ele><time>2026-04-26T10:36:34.999Z</time></trkpt><trkpt lat="43.25148062167983" lon="12.858093443097303"><ele>701.1428571428571</ele><time>2026-04-26T10:36:37.999Z</time></trkpt><trkpt lat="43.25151268399637" lon="12.858170376225855"><ele>701.7142857142858</ele><time>2026-04-26T10:36:42.999Z</time></trkpt><trkpt lat="43.25155652636262" lon="12.858239210041619"><ele>702.2857142857142</ele><time>2026-04-26T10:36:45.999Z</time></trkpt><trkpt lat="43.25156847110578" lon="12.858344979221432"><ele>702.8571428571429</ele><time>2026-04-26T10:36:51.999Z</time></trkpt><trkpt lat="43.251576897522185" lon="12.858448050872394"><ele>703.4285714285714</ele><time>2026-04-26T10:36:55.999Z</time></trkpt><trkpt lat="43.25160980077789" lon="12.858533723749819"><ele>704.0</ele><time>2026-04-26T10:36:59.999Z</time></trkpt><trkpt lat="43.25166358571021" lon="12.858582834976728"><ele>709.3333333333333</ele><time>2026-04-26T10:37:06.999Z</time></trkpt><trkpt lat="43.251777743099666" lon="12.858665205202238"><ele>714.6666666666666</ele><time>2026-04-26T10:37:37.999Z</time></trkpt><trkpt lat="43.251813715853984" lon="12.858748697045131"><ele>720.0</ele><time>2026-04-26T10:37:52.999Z</time></trkpt><trkpt lat="43.251885267380665" lon="12.858845376870953"><ele>725.3333333333334</ele><time>2026-04-26T10:38:16.998Z</time></trkpt><trkpt lat="43.25194888176632" lon="12.858883197269797"><ele>730.6666666666667</ele><time>2026-04-26T10:38:29Z</time></trkpt><trkpt lat="43.25200681562599" lon="12.858919531287322"><ele>736.0</ele><time>2026-04-26T10:39:46Z</time></trkpt><trkpt lat="43.25206761534385" lon="12.858986177933348"><ele>736.0</ele><time>2026-04-26T10:40:35Z</time></trkpt><trkpt lat="43.251979077464966" lon="12.858967266470719"><ele>736.0</ele><time>2026-04-26T10:42:30Z</time></trkpt><trkpt lat="43.25199468557549" lon="12.858881220609533"><ele>736.0</ele><time>2026-04-26T10:43:06Z</time></trkpt><trkpt lat="43.2519308115807" lon="12.85888270356808"><ele>736.0</ele><time>2026-04-26T10:43:38.998Z</time></trkpt><trkpt lat="43.25195598221868" lon="12.85879057299856"><ele>736.0</ele><time>2026-04-26T10:44:07.998Z</time></trkpt><trkpt lat="43.25202494881485" lon="12.858831709851078"><ele>736.0</ele><time>2026-04-26T10:44:15.998Z</time></trkpt><trkpt lat="43.25209332183034" lon="12.858855951846133"><ele>736.0</ele><time>2026-04-26T10:44:21.998Z</time></trkpt><trkpt lat="43.252194315434075" lon="12.85898913045893"><ele>736.0</ele><time>2026-04-26T10:45:30.998Z</time></trkpt><trkpt lat="43.25223903339864" lon="12.859060476763462"><ele>736.0</ele><time>2026-04-26T10:45:57Z</time></trkpt><trkpt lat="43.252316999474296" lon="12.859061092955715"><ele>736.0</ele><time>2026-04-26T10:46:01Z</time></trkpt><trkpt lat="43.252381555012256" lon="12.85908988471316"><ele>736.0</ele><time>2026-04-26T10:46:27Z</time></trkpt><trkpt lat="43.25244431288547" lon="12.859119412758515"><ele>736.0</ele><time>2026-04-26T10:46:45Z</time></trkpt><trkpt lat="43.252517373593484" lon="12.859203963491384"><ele>736.0</ele><time>2026-04-26T10:47:24.999Z</time></trkpt><trkpt lat="43.25249644948688" lon="12.859290065980776"><ele>736.0</ele><time>2026-04-26T10:48:38.999Z</time></trkpt><trkpt lat="43.252536808317274" lon="12.85922268644853"><ele>736.4285714285714</ele><time>2026-04-26T10:49:30.999Z</time></trkpt><trkpt lat="43.252466844366545" lon="12.859127294461867"><ele>736.8571428571428</ele><time>2026-04-26T10:50:09.999Z</time></trkpt><trkpt lat="43.2524913519601" lon="12.859208350860843"><ele>737.2857142857142</ele><time>2026-04-26T10:50:16.999Z</time></trkpt><trkpt lat="43.25254294741661" lon="12.859273335596564"><ele>737.7142857142858</ele><time>2026-04-26T10:50:24.999Z</time></trkpt><trkpt lat="43.2526075587813" lon="12.859333674862459"><ele>738.1428571428571</ele><time>2026-04-26T10:50:29.999Z</time></trkpt><trkpt lat="43.25266369039913" lon="12.859382398682389"><ele>738.5714285714286</ele><time>2026-04-26T10:50:32.999Z</time></trkpt><trkpt lat="43.25270280657106" lon="12.859450981355266"><ele>739.0</ele><time>2026-04-26T10:50:37.999Z</time></trkpt><trkpt lat="43.252758743511585" lon="12.859397198962833"><ele>743.4285714285714</ele><time>2026-04-26T10:51:00.999Z</time></trkpt><trkpt lat="43.25279933220972" lon="12.85948630307695"><ele>747.8571428571429</ele><time>2026-04-26T10:52:25.999Z</time></trkpt><trkpt lat="43.25286887663425" lon="12.85953591250924"><ele>752.2857142857142</ele><time>2026-04-26T10:52:28.999Z</time></trkpt><trkpt lat="43.252936544190774" lon="12.859565787847975"><ele>756.7142857142858</ele><time>2026-04-26T10:52:32.999Z</time></trkpt><trkpt lat="43.25299231471914" lon="12.859643661807162"><ele>761.1428571428571</ele><time>2026-04-26T10:52:43Z</time></trkpt><trkpt lat="43.253052821668305" lon="12.8596864421778"><ele>765.5714285714286</ele><time>2026-04-26T10:52:49Z</time></trkpt><trkpt lat="43.25310085588405" lon="12.859747870384634"><ele>770.0</ele><time>2026-04-26T10:52:59Z</time></trkpt><trkpt lat="43.25315539331531" lon="12.859806525864913"><ele>770.0</ele><time>2026-04-26T10:53:34Z</time></trkpt><trkpt lat="43.25321970901801" lon="12.859820172383507"><ele>770.0</ele><time>2026-04-26T10:53:38Z</time></trkpt><trkpt lat="43.25326396315086" lon="12.859889385335531"><ele>770.0</ele><time>2026-04-26T10:53:46Z</time></trkpt><trkpt lat="43.25333214234782" lon="12.859912119321908"><ele>770.0</ele><time>2026-04-26T10:53:57Z</time></trkpt><trkpt lat="43.253403859129584" lon="12.859926499992342"><ele>770.0</ele><time>2026-04-26T10:54:10Z</time></trkpt><trkpt lat="43.25340807641767" lon="12.860032741472711"><ele>770.0</ele><time>2026-04-26T10:54:23Z</time></trkpt><trkpt lat="43.253428021369054" lon="12.860127211932108"><ele>770.0</ele><time>2026-04-26T10:55:07.999Z</time></trkpt><trkpt lat="43.25347751384054" lon="12.860236546617793"><ele>776.1666666666667</ele><time>2026-04-26T10:56:49.999Z</time></trkpt><trkpt lat="43.25354282618412" lon="12.860284904960524"><ele>782.3333333333334</ele><time>2026-04-26T10:56:53.999Z</time></trkpt><trkpt lat="43.253610653732764" lon="12.860305912055576"><ele>788.5</ele><time>2026-04-26T10:57:01.999Z</time></trkpt><trkpt lat="43.25367778727229" lon="12.860327877928913"><ele>794.6666666666667</ele><time>2026-04-26T10:57:21.999Z</time></trkpt><trkpt lat="43.25376156235729" lon="12.860320655318061"><ele>800.8333333333334</ele><time>2026-04-26T10:58:14.999Z</time></trkpt><trkpt lat="43.25379655574054" lon="12.860414256121043"><ele>807.0</ele><time>2026-04-26T10:58:26.999Z</time></trkpt><trkpt lat="43.253882824456916" lon="12.860521563526136"><ele>807.0</ele><time>2026-04-26T10:59:11.999Z</time></trkpt><trkpt lat="43.25394213237253" lon="12.860472511318006"><ele>807.0</ele><time>2026-04-26T11:00:29Z</time></trkpt><trkpt lat="43.25401832347303" lon="12.860545153015108"><ele>807.0</ele><time>2026-04-26T11:00:57Z</time></trkpt><trkpt lat="43.25407179027471" lon="12.860602091379212"><ele>807.0</ele><time>2026-04-26T11:02:03Z</time></trkpt><trkpt lat="43.25415313781571" lon="12.860634095330166"><ele>807.0</ele><time>2026-04-26T11:02:53Z</time></trkpt><trkpt lat="43.25407717655185" lon="12.860636579550592"><ele>807.0</ele><time>2026-04-26T11:03:29Z</time></trkpt><trkpt lat="43.254007278989455" lon="12.860624538927695"><ele>807.0000000000001</ele><time>2026-04-26T11:04:03.999Z</time></trkpt><trkpt lat="43.254013695810585" lon="12.860534843924238"><ele>807.0</ele><time>2026-04-26T11:04:24.999Z</time></trkpt><trkpt lat="43.25394859926408" lon="12.86046240638069"><ele>807.0</ele><time>2026-04-26T11:04:37.999Z</time></trkpt><trkpt lat="43.25388939984995" lon="12.860416301646634"><ele>807.0</ele><time>2026-04-26T11:04:47.999Z</time></trkpt><trkpt lat="43.253912292955036" lon="12.86049929489504"><ele>807.0</ele><time>2026-04-26T11:05:54.999Z</time></trkpt><trkpt lat="43.25397540391228" lon="12.860514802302474"><ele>807.0000000000001</ele><time>2026-04-26T11:06:01.999Z</time></trkpt><trkpt lat="43.254057797595884" lon="12.860472997933622"><ele>807.0</ele><time>2026-04-26T11:06:19.999Z</time></trkpt><trkpt lat="43.25408494075274" lon="12.860608694529397"><ele>806.2857142857143</ele><time>2026-04-26T11:07:38.999Z</time></trkpt><trkpt lat="43.25414305192335" lon="12.860666057227006"><ele>805.5714285714286</ele><time>2026-04-26T11:08:06.999Z</time></trkpt><trkpt lat="43.254209339483644" lon="12.860700071042327"><ele>804.8571428571429</ele><time>2026-04-26T11:08:10.999Z</time></trkpt><trkpt lat="43.25428027375558" lon="12.860744797179018"><ele>804.1428571428571</ele><time>2026-04-26T11:08:15.999Z</time></trkpt><trkpt lat="43.2543419164807" lon="12.860767578399228"><ele>803.4285714285714</ele><time>2026-04-26T11:08:23.999Z</time></trkpt><trkpt lat="43.2543894068199" lon="12.860831340361443"><ele>802.7142857142858</ele><time>2026-04-26T11:08:40.999Z</time></trkpt><trkpt lat="43.254425553258685" lon="12.860914010711422"><ele>802.0</ele><time>2026-04-26T11:09:02.999Z</time></trkpt><trkpt lat="43.25442443754159" lon="12.861002332200172"><ele>801.9999999999999</ele><time>2026-04-26T11:09:14.999Z</time></trkpt><trkpt lat="43.25439369395283" lon="12.860924718138127"><ele>802.0</ele><time>2026-04-26T11:09:52.999Z</time></trkpt><trkpt lat="43.25437799144434" lon="12.860838174034159"><ele>802.0</ele><time>2026-04-26T11:10:10.999Z</time></trkpt><trkpt lat="43.254326715968524" lon="12.86075707137188"><ele>802.0</ele><time>2026-04-26T11:10:20.999Z</time></trkpt><trkpt lat="43.25428077103288" lon="12.860621918361042"><ele>801.9999999999999</ele><time>2026-04-26T11:10:23.999Z</time></trkpt><trkpt lat="43.25427064331946" lon="12.860492025710144"><ele>802.0</ele><time>2026-04-26T11:10:25.999Z</time></trkpt><trkpt lat="43.254266436235184" lon="12.860403630825395"><ele>802.0</ele><time>2026-04-26T11:10:26.999Z</time></trkpt><trkpt lat="43.25427758896934" lon="12.860247022830158"><ele>802.0</ele><time>2026-04-26T11:10:28.999Z</time></trkpt><trkpt lat="43.2543077419972" lon="12.860038992013997"><ele>802.0</ele><time>2026-04-26T11:10:29.999Z</time></trkpt><trkpt lat="43.25436020258304" lon="12.859930245093956"><ele>802.0</ele><time>2026-04-26T11:10:30.999Z</time></trkpt><trkpt lat="43.25449946050675" lon="12.85975440316324"><ele>793.25</ele><time>2026-04-26T11:10:31.999Z</time></trkpt><trkpt lat="43.254610004522554" lon="12.85970412235294"><ele>784.5</ele><time>2026-04-26T11:10:32.999Z</time></trkpt><trkpt lat="43.25471223451677" lon="12.859647729658523"><ele>775.75</ele><time>2026-04-26T11:10:33.999Z</time></trkpt><trkpt lat="43.25477912172113" lon="12.859499201866594"><ele>767.0</ele><time>2026-04-26T11:10:34.999Z</time></trkpt><trkpt lat="43.254847956081896" lon="12.859401427040245"><ele>762.3333333333333</ele><time>2026-04-26T11:10:35.999Z</time></trkpt><trkpt lat="43.254939049116274" lon="12.859295294644468"><ele>757.6666666666666</ele><time>2026-04-26T11:10:36.999Z</time></trkpt><trkpt lat="43.25503014215065" lon="12.859189162089933"><ele>753.0</ele><time>2026-04-26T11:10:37.999Z</time></trkpt><trkpt lat="43.265922493396296" lon="12.862583311974863"><ele>753.0</ele><time>2026-04-26T11:11:26.999Z</time></trkpt><trkpt lat="43.26427997193344" lon="12.862412362487772"><ele>753.0</ele><time>2026-04-26T11:12:09.999Z</time></trkpt><trkpt lat="43.26416000410304" lon="12.862425366188912"><ele>753.0</ele><time>2026-04-26T11:12:10.999Z</time></trkpt><trkpt lat="43.264063245540385" lon="12.862430305733392"><ele>753.0</ele><time>2026-04-26T11:12:11.999Z</time></trkpt><trkpt lat="43.26398778670635" lon="12.862417483029528"><ele>753.0</ele><time>2026-04-26T11:12:12.999Z</time></trkpt><trkpt lat="43.263846423285074" lon="12.862370565832341"><ele>753.0</ele><time>2026-04-26T11:12:14.999Z</time></trkpt><trkpt lat="43.26373382098854" lon="12.86232082749867"><ele>779.5</ele><time>2026-04-26T11:12:15.999Z</time></trkpt><trkpt lat="43.26358555293499" lon="12.862226050221269"><ele>806.0</ele><time>2026-04-26T11:12:16.999Z</time></trkpt><trkpt lat="43.263304675155936" lon="12.86208740247644"><ele>806.0</ele><time>2026-04-26T11:12:17.999Z</time></trkpt><trkpt lat="43.263116506085076" lon="12.86203089441734"><ele>806.0</ele><time>2026-04-26T11:12:18.999Z</time></trkpt><trkpt lat="43.2629545667787" lon="12.862048789664858"><ele>806.0</ele><time>2026-04-26T11:12:19.999Z</time></trkpt><trkpt lat="43.26283083272073" lon="12.862057732521022"><ele>815.8</ele><time>2026-04-26T11:12:20.999Z</time></trkpt><trkpt lat="43.262752624612546" lon="12.862048310473856"><ele>825.5999999999999</ele><time>2026-04-26T11:12:21.999Z</time></trkpt><trkpt lat="43.26260165972586" lon="12.862029649005365"><ele>835.4</ele><time>2026-04-26T11:12:23.999Z</time></trkpt><trkpt lat="43.26252327023344" lon="12.862033846939463"><ele>845.2</ele><time>2026-04-26T11:12:24.999Z</time></trkpt><trkpt lat="43.2624603049538" lon="12.862031812633736"><ele>855.0</ele><time>2026-04-26T11:12:25.999Z</time></trkpt><trkpt lat="43.262344441888274" lon="12.862024013190704"><ele>856.0</ele><time>2026-04-26T11:12:27.999Z</time></trkpt><trkpt lat="43.26223648557858" lon="12.862023755570192"><ele>857.0</ele><time>2026-04-26T11:12:28.999Z</time></trkpt><trkpt lat="43.26214321132988" lon="12.862026558732296"><ele>858.0</ele><time>2026-04-26T11:12:29.999Z</time></trkpt><trkpt lat="43.26202937911229" lon="12.862036358105424"><ele>859.0</ele><time>2026-04-26T11:12:32.999Z</time></trkpt><trkpt lat="43.26189681976185" lon="12.862008719593481"><ele>860.0</ele><time>2026-04-26T11:12:34.999Z</time></trkpt><trkpt lat="43.261807164624905" lon="12.861986401034148"><ele>860.0000000000001</ele><time>2026-04-26T11:12:36.999Z</time></trkpt><trkpt lat="43.26173582408075" lon="12.86197103473695"><ele>860.0</ele><time>2026-04-26T11:12:38.999Z</time></trkpt><trkpt lat="43.261634484991255" lon="12.861961383477057"><ele>860.0</ele><time>2026-04-26T11:12:40.999Z</time></trkpt><trkpt lat="43.26156050602207" lon="12.861945524142692"><ele>860.0</ele><time>2026-04-26T11:12:44.999Z</time></trkpt><trkpt lat="43.26147450958583" lon="12.861906478027358"><ele>860.0000000000001</ele><time>2026-04-26T11:12:47.999Z</time></trkpt><trkpt lat="43.2613879315797" lon="12.861945357414706"><ele>860.0</ele><time>2026-04-26T11:12:50.999Z</time></trkpt><trkpt lat="43.26131197728456" lon="12.861954152873453"><ele>856.7142857142857</ele><time>2026-04-26T11:12:53.999Z</time></trkpt><trkpt lat="43.26122047751405" lon="12.86190744177611"><ele>853.4285714285714</ele><time>2026-04-26T11:13:00.999Z</time></trkpt><trkpt lat="43.261157562936305" lon="12.861903764889334"><ele>850.1428571428571</ele><time>2026-04-26T11:13:02.999Z</time></trkpt><trkpt lat="43.261090997213515" lon="12.861932891862844"><ele>846.8571428571429</ele><time>2026-04-26T11:13:04.999Z</time></trkpt><trkpt lat="43.26102859830574" lon="12.861974953146325"><ele>843.5714285714287</ele><time>2026-04-26T11:13:07.999Z</time></trkpt><trkpt lat="43.260975175607605" lon="12.861925028120115"><ele>840.2857142857143</ele><time>2026-04-26T11:13:11.999Z</time></trkpt><trkpt lat="43.26089733633699" lon="12.86191363408277"><ele>837.0</ele><time>2026-04-26T11:13:14.999Z</time></trkpt><trkpt lat="43.26082313334486" lon="12.861912403327358"><ele>837.0</ele><time>2026-04-26T11:13:18.999Z</time></trkpt><trkpt lat="43.26074411785459" lon="12.861922248481612"><ele>837.0</ele><time>2026-04-26T11:13:20.999Z</time></trkpt><trkpt lat="43.26067032341585" lon="12.861944191359783"><ele>837.0</ele><time>2026-04-26T11:13:23.999Z</time></trkpt><trkpt lat="43.26057522556646" lon="12.861896453991776"><ele>837.0</ele><time>2026-04-26T11:13:26.999Z</time></trkpt><trkpt lat="43.26050946605499" lon="12.861858446873214"><ele>837.0</ele><time>2026-04-26T11:13:28.999Z</time></trkpt><trkpt lat="43.260446626860514" lon="12.861816933197302"><ele>837.0</ele><time>2026-04-26T11:13:31.999Z</time></trkpt><trkpt lat="43.26038891230211" lon="12.861775690842517"><ele>826.1666666666666</ele><time>2026-04-26T11:13:34.999Z</time></trkpt><trkpt lat="43.260325851656006" lon="12.861719280790224"><ele>815.3333333333333</ele><time>2026-04-26T11:13:37.999Z</time></trkpt><trkpt lat="43.260235737085374" lon="12.861773649692234"><ele>804.5</ele><time>2026-04-26T11:13:40.999Z</time></trkpt><trkpt lat="43.26017422137088" lon="12.86174949839827"><ele>793.6666666666666</ele><time>2026-04-26T11:13:41.999Z</time></trkpt><trkpt lat="43.26011258092531" lon="12.861727562398393"><ele>782.8333333333333</ele><time>2026-04-26T11:13:42.999Z</time></trkpt><trkpt lat="43.2599971491804" lon="12.861626564754129"><ele>772.0</ele><time>2026-04-26T11:13:45.999Z</time></trkpt><trkpt lat="43.25989836985567" lon="12.861536187993156"><ele>771.9999999999999</ele><time>2026-04-26T11:13:46.999Z</time></trkpt><trkpt lat="43.25980852426959" lon="12.8614690897058"><ele>772.0</ele><time>2026-04-26T11:13:50.999Z</time></trkpt><trkpt lat="43.25974635192921" lon="12.861418117597786"><ele>772.0</ele><time>2026-04-26T11:13:53.999Z</time></trkpt><trkpt lat="43.25967486294782" lon="12.86135771666759"><ele>772.0</ele><time>2026-04-26T11:13:56.999Z</time></trkpt><trkpt lat="43.25960751570271" lon="12.861286198801231"><ele>771.9999999999999</ele><time>2026-04-26T11:13:58Z</time></trkpt><trkpt lat="43.25954475114637" lon="12.861227991344542"><ele>772.0</ele><time>2026-04-26T11:14:00Z</time></trkpt><trkpt lat="43.259448105224315" lon="12.861128025893041"><ele>768.6666666666666</ele><time>2026-04-26T11:14:02Z</time></trkpt><trkpt lat="43.25936412986567" lon="12.861021140965901"><ele>765.3333333333333</ele><time>2026-04-26T11:14:04Z</time></trkpt><trkpt lat="43.25936149190761" lon="12.861116228513717"><ele>762.0</ele><time>2026-04-26T11:14:07Z</time></trkpt><trkpt lat="43.259262196763295" lon="12.861125039985088"><ele>758.6666666666666</ele><time>2026-04-26T11:14:11Z</time></trkpt><trkpt lat="43.25919524560879" lon="12.861156868934783"><ele>755.3333333333333</ele><time>2026-04-26T11:14:14Z</time></trkpt><trkpt lat="43.259148591885804" lon="12.861215790456194"><ele>752.0</ele><time>2026-04-26T11:14:16Z</time></trkpt><trkpt lat="43.25900317211873" lon="12.861253600011132"><ele>755.8</ele><time>2026-04-26T11:14:19Z</time></trkpt><trkpt lat="43.258941200928554" lon="12.861227738790854"><ele>759.6</ele><time>2026-04-26T11:14:21Z</time></trkpt><trkpt lat="43.258867890423545" lon="12.86120520205682"><ele>763.4</ele><time>2026-04-26T11:14:24Z</time></trkpt><trkpt lat="43.25879885350513" lon="12.861206728483294"><ele>767.1999999999999</ele><time>2026-04-26T11:14:27Z</time></trkpt><trkpt lat="43.25861941065524" lon="12.861138332549844"><ele>771.0</ele><time>2026-04-26T11:14:30Z</time></trkpt><trkpt lat="43.25855731727181" lon="12.861065468503538"><ele>771.0</ele><time>2026-04-26T11:14:33Z</time></trkpt><trkpt lat="43.25847867138491" lon="12.861010489094147"><ele>771.0</ele><time>2026-04-26T11:14:35Z</time></trkpt><trkpt lat="43.25835366948982" lon="12.860922511355627"><ele>771.0</ele><time>2026-04-26T11:14:36Z</time></trkpt><trkpt lat="43.25815337672541" lon="12.860872836000599"><ele>771.0</ele><time>2026-04-26T11:14:38Z</time></trkpt><trkpt lat="43.25807887153149" lon="12.860903763325869"><ele>762.0</ele><time>2026-04-26T11:14:40Z</time></trkpt><trkpt lat="43.257748841661105" lon="12.860800441174307"><ele>753.0</ele><time>2026-04-26T11:14:41Z</time></trkpt><trkpt lat="43.25751073420341" lon="12.860772619508955"><ele>753.0</ele><time>2026-04-26T11:14:43Z</time></trkpt><trkpt lat="43.257443145280774" lon="12.860755292282006"><ele>753.0</ele><time>2026-04-26T11:14:45Z</time></trkpt><trkpt lat="43.2573709764854" lon="12.86078929171407"><ele>753.0</ele><time>2026-04-26T11:14:49Z</time></trkpt><trkpt lat="43.25730485133467" lon="12.860830160324062"><ele>753.0</ele><time>2026-04-26T11:14:51Z</time></trkpt><trkpt lat="43.25718521898062" lon="12.86081488345882"><ele>753.0</ele><time>2026-04-26T11:14:52Z</time></trkpt><trkpt lat="43.25480357914619" lon="12.861363930336948"><ele>766.5</ele><time>2026-04-26T11:14:53Z</time></trkpt><trkpt lat="43.254858137814814" lon="12.861408043047652"><ele>780.0</ele><time>2026-04-26T11:17:29Z</time></trkpt><trkpt lat="43.25487126556732" lon="12.861500535980404"><ele>793.5</ele><time>2026-04-26T11:18:43.999Z</time></trkpt><trkpt lat="43.25490425442687" lon="12.861584186056959"><ele>807.0</ele><time>2026-04-26T11:19:41.998Z</time></trkpt><trkpt lat="43.25496308429948" lon="12.861654876810931"><ele>820.5</ele><time>2026-04-26T11:19:59.998Z</time></trkpt><trkpt lat="43.2549291710055" lon="12.86157007977048"><ele>834.0</ele><time>2026-04-26T11:21:17Z</time></trkpt><trkpt lat="43.254920454930904" lon="12.861428886592254"><ele>834.0</ele><time>2026-04-26T11:22:42Z</time></trkpt><trkpt lat="43.25482781477571" lon="12.861417634734533"><ele>834.0</ele><time>2026-04-26T11:23:51.999Z</time></trkpt><trkpt lat="43.254762575483795" lon="12.861422831366802"><ele>834.0</ele><time>2026-04-26T11:26:20.999Z</time></trkpt><trkpt lat="43.25474746405452" lon="12.861324410997678"><ele>834.0</ele><time>2026-04-26T11:27:49.999Z</time></trkpt><trkpt lat="43.254729053317305" lon="12.861223455098829"><ele>834.0</ele><time>2026-04-26T11:27:56.999Z</time></trkpt><trkpt lat="43.254683998095906" lon="12.86114338042726"><ele>834.0</ele><time>2026-04-26T11:28:00.999Z</time></trkpt><trkpt lat="43.2546263514524" lon="12.861065644252887"><ele>834.1428571428572</ele><time>2026-04-26T11:28:03.999Z</time></trkpt><trkpt lat="43.25458504560725" lon="12.860978980962326"><ele>834.2857142857142</ele><time>2026-04-26T11:28:06.999Z</time></trkpt><trkpt lat="43.25453351362354" lon="12.86090325090848"><ele>834.4285714285714</ele><time>2026-04-26T11:28:10Z</time></trkpt><trkpt lat="43.254477175029976" lon="12.860858927388525"><ele>834.5714285714287</ele><time>2026-04-26T11:28:13Z</time></trkpt><trkpt lat="43.254425853468184" lon="12.860781867562652"><ele>834.7142857142858</ele><time>2026-04-26T11:28:18Z</time></trkpt><trkpt lat="43.254363436092476" lon="12.860732582769087"><ele>834.8571428571429</ele><time>2026-04-26T11:28:23Z</time></trkpt><trkpt lat="43.25430228011623" lon="12.860705278034786"><ele>835.0</ele><time>2026-04-26T11:28:31Z</time></trkpt><trkpt lat="43.25423882011656" lon="12.860678524143648"><ele>831.0000000000001</ele><time>2026-04-26T11:28:38Z</time></trkpt><trkpt lat="43.25415509584109" lon="12.860589646622815"><ele>827.0</ele><time>2026-04-26T11:29:02Z</time></trkpt><trkpt lat="43.25409206821016" lon="12.86056634031907"><ele>823.0</ele><time>2026-04-26T11:29:07Z</time></trkpt><trkpt lat="43.25402504635282" lon="12.860563617955139"><ele>819.0</ele><time>2026-04-26T11:29:18Z</time></trkpt><trkpt lat="43.253960001811635" lon="12.860544737405458"><ele>815.0</ele><time>2026-04-26T11:29:28Z</time></trkpt><trkpt lat="43.25390788917725" lon="12.860494358141095"><ele>811.0000000000001</ele><time>2026-04-26T11:29:51.999Z</time></trkpt><trkpt lat="43.25384485343569" lon="12.860468380623233"><ele>807.0</ele><time>2026-04-26T11:30:08.999Z</time></trkpt><trkpt lat="43.25378086165134" lon="12.860419862756299"><ele>807.0000000000001</ele><time>2026-04-26T11:30:15.999Z</time></trkpt><trkpt lat="43.2537308120412" lon="12.860360825744438"><ele>807.0</ele><time>2026-04-26T11:30:30.999Z</time></trkpt><trkpt lat="43.25366912198085" lon="12.860290525196895"><ele>807.0</ele><time>2026-04-26T11:30:35.999Z</time></trkpt><trkpt lat="43.2535972585466" lon="12.860247734111818"><ele>807.0</ele><time>2026-04-26T11:30:40.999Z</time></trkpt><trkpt lat="43.253525828439" lon="12.86021400143701"><ele>807.0</ele><time>2026-04-26T11:30:43.999Z</time></trkpt><trkpt lat="43.25345939250167" lon="12.860180535457378"><ele>807.0000000000001</ele><time>2026-04-26T11:30:49.999Z</time></trkpt><trkpt lat="43.25341102159536" lon="12.860104502282237"><ele>807.0</ele><time>2026-04-26T11:30:53.999Z</time></trkpt><trkpt lat="43.25334926397327" lon="12.86004328974622"><ele>802.2857142857143</ele><time>2026-04-26T11:30:56.999Z</time></trkpt><trkpt lat="43.25328523639431" lon="12.859972755724927"><ele>797.5714285714286</ele><time>2026-04-26T11:30:58.999Z</time></trkpt><trkpt lat="43.25322533502518" lon="12.859929929686183"><ele>792.8571428571429</ele><time>2026-04-26T11:31:01.999Z</time></trkpt><trkpt lat="43.25316492408225" lon="12.859864873872455"><ele>788.1428571428571</ele><time>2026-04-26T11:31:05.999Z</time></trkpt><trkpt lat="43.25310459532119" lon="12.859801038129516"><ele>783.4285714285714</ele><time>2026-04-26T11:31:08.999Z</time></trkpt><trkpt lat="43.253059369658565" lon="12.859728961639338"><ele>778.7142857142858</ele><time>2026-04-26T11:31:11.999Z</time></trkpt><trkpt lat="43.2530138891479" lon="12.859667077057251"><ele>774.0</ele><time>2026-04-26T11:31:14.999Z</time></trkpt><trkpt lat="43.252956234635164" lon="12.859626695135876"><ele>774.0</ele><time>2026-04-26T11:31:17.999Z</time></trkpt><trkpt lat="43.25288721174076" lon="12.859559681116261"><ele>774.0</ele><time>2026-04-26T11:31:20.999Z</time></trkpt><trkpt lat="43.25281991783786" lon="12.85950039794443"><ele>774.0</ele><time>2026-04-26T11:31:23.999Z</time></trkpt><trkpt lat="43.25275743176414" lon="12.859444935499257"><ele>774.0</ele><time>2026-04-26T11:31:27.999Z</time></trkpt><trkpt lat="43.25270178408545" lon="12.859390159525647"><ele>774.0</ele><time>2026-04-26T11:31:31.999Z</time></trkpt><trkpt lat="43.252640867074554" lon="12.85931974705642"><ele>774.0</ele><time>2026-04-26T11:31:34.999Z</time></trkpt><trkpt lat="43.25257746174358" lon="12.85926144383408"><ele>768.1666666666666</ele><time>2026-04-26T11:31:38.999Z</time></trkpt><trkpt lat="43.252500851274355" lon="12.8592383606607"><ele>762.3333333333334</ele><time>2026-04-26T11:31:41.999Z</time></trkpt><trkpt lat="43.25243705063825" lon="12.859188164579189"><ele>756.5</ele><time>2026-04-26T11:31:45.999Z</time></trkpt><trkpt lat="43.252355425454134" lon="12.859149799244953"><ele>750.6666666666667</ele><time>2026-04-26T11:31:49.999Z</time></trkpt><trkpt lat="43.252282771110266" lon="12.85910076212847"><ele>744.8333333333334</ele><time>2026-04-26T11:31:52.999Z</time></trkpt><trkpt lat="43.25221098596051" lon="12.859074896184959"><ele>739.0</ele><time>2026-04-26T11:32:01.999Z</time></trkpt><trkpt lat="43.252142405450726" lon="12.859074290682212"><ele>738.5714285714286</ele><time>2026-04-26T11:32:09.999Z</time></trkpt><trkpt lat="43.25207382025328" lon="12.859030775060578"><ele>738.1428571428571</ele><time>2026-04-26T11:32:14.999Z</time></trkpt><trkpt lat="43.25202035248925" lon="12.858981966335145"><ele>737.7142857142858</ele><time>2026-04-26T11:32:18.999Z</time></trkpt><trkpt lat="43.25196369176692" lon="12.858938061143254"><ele>737.2857142857142</ele><time>2026-04-26T11:33:42.999Z</time></trkpt><trkpt lat="43.251914402395535" lon="12.858877295946348"><ele>736.8571428571428</ele><time>2026-04-26T11:33:58.999Z</time></trkpt><trkpt lat="43.251826957388" lon="12.85884738547491"><ele>736.4285714285714</ele><time>2026-04-26T11:34:22.999Z</time></trkpt><trkpt lat="43.25178368382358" lon="12.858774789817248"><ele>736.0</ele><time>2026-04-26T11:34:47.999Z</time></trkpt><trkpt lat="43.25173771914932" lon="12.858709347493628"><ele>736.0</ele><time>2026-04-26T11:34:54.999Z</time></trkpt><trkpt lat="43.25172782530411" lon="12.85860792094308"><ele>736.0</ele><time>2026-04-26T11:34:58.999Z</time></trkpt><trkpt lat="43.25172326934908" lon="12.858519249496794"><ele>736.0</ele><time>2026-04-26T11:35:01.999Z</time></trkpt><trkpt lat="43.25169450492509" lon="12.858441451986227"><ele>736.0</ele><time>2026-04-26T11:35:04.999Z</time></trkpt><trkpt lat="43.25164399007724" lon="12.858366458499601"><ele>736.0</ele><time>2026-04-26T11:35:08.999Z</time></trkpt><trkpt lat="43.2516076352363" lon="12.858279369686967"><ele>736.0</ele><time>2026-04-26T11:35:11.999Z</time></trkpt><trkpt lat="43.25156166753896" lon="12.8582010165341"><ele>736.0</ele><time>2026-04-26T11:35:15Z</time></trkpt><trkpt lat="43.251494377274895" lon="12.858145216478528"><ele>730.0</ele><time>2026-04-26T11:35:18Z</time></trkpt><trkpt lat="43.25145392649687" lon="12.858051404265602"><ele>724.0</ele><time>2026-04-26T11:35:27Z</time></trkpt><trkpt lat="43.25139788213039" lon="12.857982606118895"><ele>718.0</ele><time>2026-04-26T11:35:30Z</time></trkpt><trkpt lat="43.25134826935698" lon="12.857918486179253"><ele>712.0</ele><time>2026-04-26T11:35:33Z</time></trkpt><trkpt lat="43.25128334145295" lon="12.85784814056299"><ele>706.0</ele><time>2026-04-26T11:35:37Z</time></trkpt><trkpt lat="43.25121977442332" lon="12.857792096143422"><ele>700.0</ele><time>2026-04-26T11:35:42Z</time></trkpt><trkpt lat="43.25116528671424" lon="12.85772815198998"><ele>700.0</ele><time>2026-04-26T11:35:46Z</time></trkpt><trkpt lat="43.25110935338315" lon="12.85765275078649"><ele>700.0</ele><time>2026-04-26T11:35:50Z</time></trkpt><trkpt lat="43.25107056348438" lon="12.857575585914763"><ele>700.0</ele><time>2026-04-26T11:35:53Z</time></trkpt><trkpt lat="43.25100625528149" lon="12.857512075307017"><ele>700.0</ele><time>2026-04-26T11:35:56Z</time></trkpt><trkpt lat="43.250933419609815" lon="12.857450225203197"><ele>700.0</ele><time>2026-04-26T11:35:59Z</time></trkpt><trkpt lat="43.250869542743935" lon="12.8573619693954"><ele>700.0</ele><time>2026-04-26T11:36:02Z</time></trkpt><trkpt lat="43.25081631292298" lon="12.857296691130008"><ele>695.5</ele><time>2026-04-26T11:36:05Z</time></trkpt><trkpt lat="43.250777910139156" lon="12.857214227724786"><ele>691.0</ele><time>2026-04-26T11:36:07Z</time></trkpt><trkpt lat="43.25069338977184" lon="12.857141254699089"><ele>686.5</ele><time>2026-04-26T11:36:10Z</time></trkpt><trkpt lat="43.250596470028896" lon="12.857104291698247"><ele>682.0</ele><time>2026-04-26T11:36:12Z</time></trkpt><trkpt lat="43.25052275407848" lon="12.857082746342433"><ele>677.5</ele><time>2026-04-26T11:36:14Z</time></trkpt><trkpt lat="43.25043144965676" lon="12.857053564592551"><ele>673.0</ele><time>2026-04-26T11:36:51Z</time></trkpt><trkpt lat="43.25044530049303" lon="12.856959330667387"><ele>670.8333333333334</ele><time>2026-04-26T11:38:18Z</time></trkpt><trkpt lat="43.25048180906858" lon="12.856882608969533"><ele>668.6666666666667</ele><time>2026-04-26T11:38:37Z</time></trkpt><trkpt lat="43.250509988013356" lon="12.856778129028886"><ele>666.5</ele><time>2026-04-26T11:38:41Z</time></trkpt><trkpt lat="43.25057965893383" lon="12.856709693949403"><ele>664.3333333333334</ele><time>2026-04-26T11:38:43Z</time></trkpt><trkpt lat="43.25068710913745" lon="12.856667103222476"><ele>662.1666666666666</ele><time>2026-04-26T11:38:45Z</time></trkpt><trkpt lat="43.250748743645005" lon="12.856647826443178"><ele>660.0</ele><time>2026-04-26T11:38:46Z</time></trkpt><trkpt lat="43.25086289603265" lon="12.85663838094004"><ele>658.6</ele><time>2026-04-26T11:38:48Z</time></trkpt><trkpt lat="43.25098894912469" lon="12.856643736139699"><ele>657.2</ele><time>2026-04-26T11:38:50Z</time></trkpt><trkpt lat="43.25106505049938" lon="12.856634101426275"><ele>655.8</ele><time>2026-04-26T11:38:51Z</time></trkpt><trkpt lat="43.251144605702706" lon="12.856611939874417"><ele>654.4</ele><time>2026-04-26T11:38:52Z</time></trkpt><trkpt lat="43.25123187182083" lon="12.856602708118569"><ele>653.0</ele><time>2026-04-26T11:38:53Z</time></trkpt><trkpt lat="43.251316478478074" lon="12.856601497127997"><ele>653.0</ele><time>2026-04-26T11:38:54Z</time></trkpt><trkpt lat="43.25139710648752" lon="12.856597422923032"><ele>653.0</ele><time>2026-04-26T11:38:55Z</time></trkpt><trkpt lat="43.25147675648736" lon="12.856603081346682"><ele>653.0</ele><time>2026-04-26T11:38:56Z</time></trkpt><trkpt lat="43.251557009312315" lon="12.8566164681234"><ele>653.0</ele><time>2026-04-26T11:38:57Z</time></trkpt><trkpt lat="43.25163572898135" lon="12.856636836468534"><ele>653.0</ele><time>2026-04-26T11:38:58Z</time></trkpt><trkpt lat="43.25171507500117" lon="12.85664770467241"><ele>653.0</ele><time>2026-04-26T11:38:59Z</time></trkpt><trkpt lat="43.25179248016204" lon="12.85665436018185"><ele>651.6666666666666</ele><time>2026-04-26T11:39:00Z</time></trkpt><trkpt lat="43.25185712736869" lon="12.856660530052887"><ele>650.3333333333333</ele><time>2026-04-26T11:39:01Z</time></trkpt><trkpt lat="43.25195966193869" lon="12.856678845419486"><ele>649.0</ele><time>2026-04-26T11:39:03Z</time></trkpt><trkpt lat="43.252048838315446" lon="12.856703597503063"><ele>647.6666666666666</ele><time>2026-04-26T11:39:05Z</time></trkpt><trkpt lat="43.25213814841033" lon="12.856717089844558"><ele>646.3333333333334</ele><time>2026-04-26T11:39:07Z</time></trkpt><trkpt lat="43.25222694853489" lon="12.856742719611804"><ele>645.0</ele><time>2026-04-26T11:39:09Z</time></trkpt><trkpt lat="43.25231640832785" lon="12.856780369096876"><ele>643.2</ele><time>2026-04-26T11:39:11Z</time></trkpt><trkpt lat="43.25240332814007" lon="12.856762242915469"><ele>641.4</ele><time>2026-04-26T11:39:13Z</time></trkpt><trkpt lat="43.252518344172934" lon="12.856756277093702"><ele>639.6</ele><time>2026-04-26T11:39:15Z</time></trkpt><trkpt lat="43.252620648487735" lon="12.8567492426672"><ele>637.8</ele><time>2026-04-26T11:39:17Z</time></trkpt><trkpt lat="43.252700693577026" lon="12.856745604644878"><ele>636.0</ele><time>2026-04-26T11:39:19Z</time></trkpt><trkpt lat="43.25276145313654" lon="12.856698996544544"><ele>636.0</ele><time>2026-04-26T11:39:21Z</time></trkpt><trkpt lat="43.25284011248863" lon="12.856657096433633"><ele>636.0</ele><time>2026-04-26T11:39:24Z</time></trkpt><trkpt lat="43.252910484239244" lon="12.856657280644836"><ele>636.0</ele><time>2026-04-26T11:39:27Z</time></trkpt><trkpt lat="43.252977744041246" lon="12.856604933889642"><ele>636.0</ele><time>2026-04-26T11:39:30Z</time></trkpt><trkpt lat="43.2530391328112" lon="12.856571915495651"><ele>636.0</ele><time>2026-04-26T11:39:32Z</time></trkpt><trkpt lat="43.25314184168981" lon="12.856567872426265"><ele>636.0</ele><time>2026-04-26T11:39:34Z</time></trkpt><trkpt lat="43.253210009836494" lon="12.856554697705914"><ele>635.0</ele><time>2026-04-26T11:39:35Z</time></trkpt><trkpt lat="43.25327614452823" lon="12.856552857368998"><ele>634.0</ele><time>2026-04-26T11:39:36Z</time></trkpt><trkpt lat="43.25335005738486" lon="12.856562996796637"><ele>633.0</ele><time>2026-04-26T11:39:37Z</time></trkpt><trkpt lat="43.25342089159821" lon="12.856579066242501"><ele>632.0</ele><time>2026-04-26T11:39:38Z</time></trkpt><trkpt lat="43.25348725283788" lon="12.856580233835277"><ele>631.0</ele><time>2026-04-26T11:39:39Z</time></trkpt><trkpt lat="43.25355230847204" lon="12.856564881469934"><ele>630.0</ele><time>2026-04-26T11:39:40Z</time></trkpt><trkpt lat="43.25361615662524" lon="12.856560907335366"><ele>629.0</ele><time>2026-04-26T11:39:41Z</time></trkpt><trkpt lat="43.25376657956775" lon="12.856570861604439"><ele>629.0</ele><time>2026-04-26T11:39:44Z</time></trkpt><trkpt lat="43.25387408750387" lon="12.856570273163658"><ele>629.0</ele><time>2026-04-26T11:39:46Z</time></trkpt><trkpt lat="43.25399626812719" lon="12.856580111541849"><ele>629.0</ele><time>2026-04-26T11:39:48Z</time></trkpt><trkpt lat="43.25412111767937" lon="12.856586580058199"><ele>629.0</ele><time>2026-04-26T11:39:50Z</time></trkpt><trkpt lat="43.25423587216774" lon="12.85659228915206"><ele>626.2</ele><time>2026-04-26T11:39:52Z</time></trkpt><trkpt lat="43.254340930657804" lon="12.856588841110218"><ele>623.4</ele><time>2026-04-26T11:39:54Z</time></trkpt><trkpt lat="43.2544519218991" lon="12.856540277304196"><ele>620.6</ele><time>2026-04-26T11:39:55.999Z</time></trkpt><trkpt lat="43.254536535053816" lon="12.856509707623005"><ele>617.8</ele><time>2026-04-26T11:39:57.999Z</time></trkpt><trkpt lat="43.25461936967045" lon="12.856518939055007"><ele>615.0</ele><time>2026-04-26T11:39:59.999Z</time></trkpt><trkpt lat="43.254693177455096" lon="12.856597179077951"><ele>615.0</ele><time>2026-04-26T11:40:01.999Z</time></trkpt><trkpt lat="43.254767849892914" lon="12.856699354056108"><ele>615.0</ele><time>2026-04-26T11:40:03.999Z</time></trkpt><trkpt lat="43.25480575220753" lon="12.85677640116102"><ele>615.0</ele><time>2026-04-26T11:40:04.999Z</time></trkpt><trkpt lat="43.25490775918894" lon="12.85684117228432"><ele>615.0</ele><time>2026-04-26T11:40:06.999Z</time></trkpt><trkpt lat="43.25499197473322" lon="12.856907893904854"><ele>615.0</ele><time>2026-04-26T11:40:08.999Z</time></trkpt><trkpt lat="43.25506617647993" lon="12.85691025120158"><ele>617.6</ele><time>2026-04-26T11:40:11.999Z</time></trkpt><trkpt lat="43.255118385985824" lon="12.856845177624331"><ele>620.2</ele><time>2026-04-26T11:40:15.999Z</time></trkpt><trkpt lat="43.25529319526062" lon="12.856838736775797"><ele>622.8</ele><time>2026-04-26T11:40:19.999Z</time></trkpt><trkpt lat="43.255377257128146" lon="12.856860882642874"><ele>625.4</ele><time>2026-04-26T11:40:20.999Z</time></trkpt><trkpt lat="43.25548973113872" lon="12.856853397145263"><ele>628.0</ele><time>2026-04-26T11:40:21.999Z</time></trkpt><trkpt lat="43.25561131931995" lon="12.8569013408633"><ele>622.75</ele><time>2026-04-26T11:40:22.999Z</time></trkpt><trkpt lat="43.25573450281017" lon="12.856977099044032"><ele>617.5</ele><time>2026-04-26T11:40:23.999Z</time></trkpt><trkpt lat="43.25586539401517" lon="12.857021067376095"><ele>612.25</ele><time>2026-04-26T11:40:24.999Z</time></trkpt><trkpt lat="43.25600301612774" lon="12.857027854681009"><ele>607.0</ele><time>2026-04-26T11:40:25.999Z</time></trkpt><trkpt lat="43.25613004918446" lon="12.857011695756217"><ele>607.0</ele><time>2026-04-26T11:40:26.999Z</time></trkpt><trkpt lat="43.256255620752775" lon="12.857032225533182"><ele>607.0</ele><time>2026-04-26T11:40:27.999Z</time></trkpt><trkpt lat="43.25639090852956" lon="12.857052138540404"><ele>607.0</ele><time>2026-04-26T11:40:28.999Z</time></trkpt><trkpt lat="43.256509823463" lon="12.857049941935538"><ele>607.0</ele><time>2026-04-26T11:40:29.999Z</time></trkpt><trkpt lat="43.256628073647086" lon="12.857036204740211"><ele>605.4</ele><time>2026-04-26T11:40:30.999Z</time></trkpt><trkpt lat="43.256737593298496" lon="12.857022023920017"><ele>603.8000000000001</ele><time>2026-04-26T11:40:31.999Z</time></trkpt><trkpt lat="43.25684729362697" lon="12.85700519504678"><ele>602.2</ele><time>2026-04-26T11:40:32.999Z</time></trkpt><trkpt lat="43.256960278962424" lon="12.857004859195952"><ele>600.6</ele><time>2026-04-26T11:40:33.999Z</time></trkpt><trkpt lat="43.25707041030169" lon="12.856995734599156"><ele>599.0</ele><time>2026-04-26T11:40:34.999Z</time></trkpt><trkpt lat="43.25717844060331" lon="12.8569761976281"><ele>599.0</ele><time>2026-04-26T11:40:35.999Z</time></trkpt><trkpt lat="43.25728090287034" lon="12.856957162837526"><ele>599.0</ele><time>2026-04-26T11:40:36.999Z</time></trkpt><trkpt lat="43.257395188562825" lon="12.856947496244418"><ele>599.0</ele><time>2026-04-26T11:40:37.999Z</time></trkpt><trkpt lat="43.25750197555266" lon="12.856898728500413"><ele>599.0</ele><time>2026-04-26T11:40:38.999Z</time></trkpt><trkpt lat="43.257608657332526" lon="12.85686334589148"><ele>599.0</ele><time>2026-04-26T11:40:39.999Z</time></trkpt><trkpt lat="43.25769850157127" lon="12.856822265358835"><ele>593.3333333333333</ele><time>2026-04-26T11:40:40.999Z</time></trkpt><trkpt lat="43.25777564616995" lon="12.856781850108469"><ele>587.6666666666666</ele><time>2026-04-26T11:40:41.999Z</time></trkpt><trkpt lat="43.25784405306264" lon="12.856745158751552"><ele>582.0</ele><time>2026-04-26T11:40:42.999Z</time></trkpt><trkpt lat="43.257905575842315" lon="12.856711222746963"><ele>576.3333333333334</ele><time>2026-04-26T11:40:43.999Z</time></trkpt><trkpt lat="43.257980354503665" lon="12.856668692942831"><ele>570.6666666666667</ele><time>2026-04-26T11:40:45.999Z</time></trkpt><trkpt lat="43.2580598696948" lon="12.856685144849536"><ele>565.0</ele><time>2026-04-26T11:40:48.999Z</time></trkpt><trkpt lat="43.25810118506173" lon="12.856766078856284"><ele>564.5</ele><time>2026-04-26T11:40:50.999Z</time></trkpt><trkpt lat="43.25818733302083" lon="12.856866817458636"><ele>564.0</ele><time>2026-04-26T11:40:52.999Z</time></trkpt><trkpt lat="43.258264078726306" lon="12.856922085485238"><ele>563.5</ele><time>2026-04-26T11:40:54.999Z</time></trkpt><trkpt lat="43.258299256648456" lon="12.856828528913747"><ele>563.0</ele><time>2026-04-26T11:41:00.998Z</time></trkpt><trkpt lat="43.25834249379619" lon="12.856741340026124"><ele>562.5</ele><time>2026-04-26T11:41:03.998Z</time></trkpt><trkpt lat="43.25841300684188" lon="12.85667323032382"><ele>562.0</ele><time>2026-04-26T11:41:05.998Z</time></trkpt><trkpt lat="43.25846713100764" lon="12.856627871228287"><ele>562.0</ele><time>2026-04-26T11:41:06.998Z</time></trkpt><trkpt lat="43.25852434403748" lon="12.856559506745363"><ele>562.0</ele><time>2026-04-26T11:41:08.998Z</time></trkpt><trkpt lat="43.258610605864234" lon="12.85649524555015"><ele>562.0</ele><time>2026-04-26T11:41:10.998Z</time></trkpt><trkpt lat="43.25869938699685" lon="12.856473523107391"><ele>562.0</ele><time>2026-04-26T11:41:11.998Z</time></trkpt><trkpt lat="43.25878557015633" lon="12.856412366140209"><ele>562.0</ele><time>2026-04-26T11:41:12.998Z</time></trkpt><trkpt lat="43.258867824684515" lon="12.856373022987974"><ele>562.0</ele><time>2026-04-26T11:41:13.998Z</time></trkpt><trkpt lat="43.25896855426566" lon="12.85632454138573"><ele>568.25</ele><time>2026-04-26T11:41:14.998Z</time></trkpt><trkpt lat="43.25907878438811" lon="12.85627337806275"><ele>574.5</ele><time>2026-04-26T11:41:15.998Z</time></trkpt><trkpt lat="43.25916385933203" lon="12.856150536060039"><ele>580.75</ele><time>2026-04-26T11:41:16.998Z</time></trkpt><trkpt lat="43.25926435674803" lon="12.856095973507776"><ele>587.0</ele><time>2026-04-26T11:41:17.998Z</time></trkpt><trkpt lat="43.259370958333534" lon="12.85604683585143"><ele>587.0</ele><time>2026-04-26T11:41:18.998Z</time></trkpt><trkpt lat="43.25947586155308" lon="12.856000268998992"><ele>587.0</ele><time>2026-04-26T11:41:19.998Z</time></trkpt><trkpt lat="43.259581826336685" lon="12.855953051074682"><ele>587.0</ele><time>2026-04-26T11:41:20.998Z</time></trkpt><trkpt lat="43.25970050739258" lon="12.855922854410771"><ele>587.0</ele><time>2026-04-26T11:41:21.998Z</time></trkpt><trkpt lat="43.259793357771215" lon="12.855852705043091"><ele>587.0</ele><time>2026-04-26T11:41:22.998Z</time></trkpt><trkpt lat="43.25988844933061" lon="12.85580958940824"><ele>587.6</ele><time>2026-04-26T11:41:23.998Z</time></trkpt><trkpt lat="43.259998414478794" lon="12.855756340504568"><ele>588.2</ele><time>2026-04-26T11:41:24.998Z</time></trkpt><trkpt lat="43.260096555952245" lon="12.855708817015296"><ele>588.8</ele><time>2026-04-26T11:41:25.998Z</time></trkpt><trkpt lat="43.260199423868706" lon="12.855656858633473"><ele>589.4</ele><time>2026-04-26T11:41:26.998Z</time></trkpt><trkpt lat="43.26030116000467" lon="12.855605205064375"><ele>590.0</ele><time>2026-04-26T11:41:27.998Z</time></trkpt><trkpt lat="43.26040961124163" lon="12.855551003743486"><ele>590.0</ele><time>2026-04-26T11:41:28.998Z</time></trkpt><trkpt lat="43.260507879880734" lon="12.855504298637173"><ele>590.0</ele><time>2026-04-26T11:41:29.998Z</time></trkpt><trkpt lat="43.26058461276929" lon="12.855469406639967"><ele>590.0</ele><time>2026-04-26T11:41:30.998Z</time></trkpt><trkpt lat="43.26066877277217" lon="12.85543113737813"><ele>590.0</ele><time>2026-04-26T11:41:31.998Z</time></trkpt><trkpt lat="43.26075625362159" lon="12.855391327648789"><ele>590.0</ele><time>2026-04-26T11:41:32.998Z</time></trkpt><trkpt lat="43.2608541652742" lon="12.855351073150183"><ele>594.6</ele><time>2026-04-26T11:41:33.998Z</time></trkpt><trkpt lat="43.260950746410245" lon="12.855313104748008"><ele>599.2</ele><time>2026-04-26T11:41:34.998Z</time></trkpt><trkpt lat="43.26104925308216" lon="12.855279823720595"><ele>603.8</ele><time>2026-04-26T11:41:35.998Z</time></trkpt><trkpt lat="43.261137770549986" lon="12.855254136016057"><ele>608.4</ele><time>2026-04-26T11:41:36.998Z</time></trkpt><trkpt lat="43.261219748627134" lon="12.85523361887545"><ele>613.0</ele><time>2026-04-26T11:41:37.998Z</time></trkpt><trkpt lat="43.26129705035454" lon="12.855215252057342"><ele>613.0</ele><time>2026-04-26T11:41:38.998Z</time></trkpt><trkpt lat="43.261398821307935" lon="12.855190870106679"><ele>613.0</ele><time>2026-04-26T11:41:39.998Z</time></trkpt><trkpt lat="43.26149152935849" lon="12.855168659439846"><ele>613.0</ele><time>2026-04-26T11:41:40.998Z</time></trkpt><trkpt lat="43.26156732566899" lon="12.855148515497815"><ele>613.0</ele><time>2026-04-26T11:41:41.998Z</time></trkpt><trkpt lat="43.26164952827026" lon="12.855124961473518"><ele>613.0</ele><time>2026-04-26T11:41:42.998Z</time></trkpt><trkpt lat="43.261723986586375" lon="12.855102517372632"><ele>613.0</ele><time>2026-04-26T11:41:43.998Z</time></trkpt><trkpt lat="43.26179837471442" lon="12.855078430752297"><ele>614.5</ele><time>2026-04-26T11:41:44.998Z</time></trkpt><trkpt lat="43.26186944450441" lon="12.855054826923295"><ele>616.0</ele><time>2026-04-26T11:41:45.998Z</time></trkpt><trkpt lat="43.26195070047091" lon="12.855027873359047"><ele>617.5</ele><time>2026-04-26T11:41:46.998Z</time></trkpt><trkpt lat="43.26202020074779" lon="12.855004162234176"><ele>619.0</ele><time>2026-04-26T11:41:47.998Z</time></trkpt><trkpt lat="43.26209786194739" lon="12.854977666845645"><ele>620.5</ele><time>2026-04-26T11:41:48.998Z</time></trkpt><trkpt lat="43.26219335896474" lon="12.85494331928531"><ele>622.0</ele><time>2026-04-26T11:41:49.998Z</time></trkpt><trkpt lat="43.2622898457905" lon="12.854908310146905"><ele>622.0</ele><time>2026-04-26T11:41:50.998Z</time></trkpt><trkpt lat="43.262395297809604" lon="12.85486932961745"><ele>622.0</ele><time>2026-04-26T11:41:51.998Z</time></trkpt><trkpt lat="43.26248098341328" lon="12.854836807543048"><ele>622.0</ele><time>2026-04-26T11:41:52.998Z</time></trkpt><trkpt lat="43.262566081567165" lon="12.854804508373558"><ele>622.0</ele><time>2026-04-26T11:41:53.998Z</time></trkpt><trkpt lat="43.2626477987213" lon="12.854773492573168"><ele>622.0</ele><time>2026-04-26T11:41:54.998Z</time></trkpt><trkpt lat="43.26273264067065" lon="12.854738893810119"><ele>622.0</ele><time>2026-04-26T11:41:55.998Z</time></trkpt><trkpt lat="43.26282312829022" lon="12.85470134678629"><ele>622.0</ele><time>2026-04-26T11:41:56.998Z</time></trkpt><trkpt lat="43.26291958965673" lon="12.854659304484434"><ele>622.0</ele><time>2026-04-26T11:41:57.998Z</time></trkpt><trkpt lat="43.263012966857865" lon="12.85461860626682"><ele>622.0</ele><time>2026-04-26T11:41:58.998Z</time></trkpt><trkpt lat="43.2631050745917" lon="12.85457945166121"><ele>622.0</ele><time>2026-04-26T11:41:59.998Z</time></trkpt><trkpt lat="43.26319059734486" lon="12.854543810056452"><ele>626.8</ele><time>2026-04-26T11:42:00.998Z</time></trkpt><trkpt lat="43.26327580103525" lon="12.854508660906953"><ele>631.6</ele><time>2026-04-26T11:42:01.998Z</time></trkpt><trkpt lat="43.26336454264356" lon="12.854472884667617"><ele>636.4</ele><time>2026-04-26T11:42:02.998Z</time></trkpt><trkpt lat="43.26345692973721" lon="12.854435638959771"><ele>641.1999999999999</ele><time>2026-04-26T11:42:03.998Z</time></trkpt><trkpt lat="43.26356595641036" lon="12.854393442385554"><ele>646.0</ele><time>2026-04-26T11:42:04.998Z</time></trkpt><trkpt lat="43.26363879402465" lon="12.85436531084644"><ele>646.0</ele><time>2026-04-26T11:42:05.998Z</time></trkpt><trkpt lat="43.26371310778978" lon="12.85433536404331"><ele>646.0</ele><time>2026-04-26T11:42:06.998Z</time></trkpt><trkpt lat="43.2638034296332" lon="12.854294418675348"><ele>646.0</ele><time>2026-04-26T11:42:08.998Z</time></trkpt><trkpt lat="43.26403156841036" lon="12.85419299584688"><ele>646.0</ele><time>2026-04-26T11:42:10.998Z</time></trkpt><trkpt lat="43.26385682925527" lon="12.85428446548"><ele>646.0</ele><time>2026-04-26T11:42:15.998Z</time></trkpt><trkpt lat="43.26379330982145" lon="12.8542929033566"><ele>646.0</ele><time>2026-04-26T11:42:17.998Z</time></trkpt><trkpt lat="43.26370824141771" lon="12.854344730985352"><ele>646.0</ele><time>2026-04-26T11:42:19.998Z</time></trkpt><trkpt lat="43.26360291154816" lon="12.854431182652993"><ele>646.0</ele><time>2026-04-26T11:42:22Z</time></trkpt><trkpt lat="43.26352100900954" lon="12.854363457900885"><ele>646.0</ele><time>2026-04-26T11:42:23Z</time></trkpt><trkpt lat="43.263456770019964" lon="12.85438820296636"><ele>646.0</ele><time>2026-04-26T11:42:24Z</time></trkpt><trkpt lat="43.26338503504253" lon="12.854425712187515"><ele>646.0</ele><time>2026-04-26T11:42:25Z</time></trkpt><trkpt lat="43.2633186482518" lon="12.854441506957928"><ele>646.0</ele><time>2026-04-26T11:42:26Z</time></trkpt><trkpt lat="43.26324656901074" lon="12.85446538960828"><ele>646.0</ele><time>2026-04-26T11:42:27Z</time></trkpt><trkpt lat="43.26317442039928" lon="12.854501592572587"><ele>646.0</ele><time>2026-04-26T11:42:28Z</time></trkpt><trkpt lat="43.26309268556839" lon="12.854548512255638"><ele>646.0</ele><time>2026-04-26T11:42:29Z</time></trkpt><trkpt lat="43.262987880047724" lon="12.85458233652432"><ele>646.0</ele><time>2026-04-26T11:42:30Z</time></trkpt><trkpt lat="43.26289453590128" lon="12.85464400600227"><ele>642.0</ele><time>2026-04-26T11:42:31Z</time></trkpt><trkpt lat="43.26280451108005" lon="12.854654990086557"><ele>638.0</ele><time>2026-04-26T11:42:32Z</time></trkpt><trkpt lat="43.26272742924314" lon="12.854692690326246"><ele>634.0</ele><time>2026-04-26T11:42:33Z</time></trkpt><trkpt lat="43.262642398655274" lon="12.854724470057835"><ele>630.0</ele><time>2026-04-26T11:42:34Z</time></trkpt><trkpt lat="43.26255631301402" lon="12.854754373687404"><ele>626.0</ele><time>2026-04-26T11:42:35Z</time></trkpt><trkpt lat="43.262464167761394" lon="12.854779551520595"><ele>622.0</ele><time>2026-04-26T11:42:36Z</time></trkpt><trkpt lat="43.262378104854385" lon="12.854822054513072"><ele>622.0</ele><time>2026-04-26T11:42:37Z</time></trkpt><trkpt lat="43.2623054223876" lon="12.854876084299343"><ele>622.0</ele><time>2026-04-26T11:42:38Z</time></trkpt><trkpt lat="43.262234961625786" lon="12.854881085669449"><ele>622.0</ele><time>2026-04-26T11:42:39Z</time></trkpt><trkpt lat="43.262159742622984" lon="12.854908378078619"><ele>622.0</ele><time>2026-04-26T11:42:40Z</time></trkpt><trkpt lat="43.26207956514057" lon="12.854947753742172"><ele>622.0</ele><time>2026-04-26T11:42:41Z</time></trkpt><trkpt lat="43.26200816234911" lon="12.854961310629543"><ele>622.0</ele><time>2026-04-26T11:42:42Z</time></trkpt><trkpt lat="43.261917532952424" lon="12.85499196902713"><ele>620.2</ele><time>2026-04-26T11:42:44Z</time></trkpt><trkpt lat="43.261820889950755" lon="12.855024066292783"><ele>618.4000000000001</ele><time>2026-04-26T11:42:46Z</time></trkpt><trkpt lat="43.26171259551828" lon="12.855060033046744"><ele>616.5999999999999</ele><time>2026-04-26T11:42:48Z</time></trkpt><trkpt lat="43.261561892002895" lon="12.855110024783135"><ele>614.8</ele><time>2026-04-26T11:42:50Z</time></trkpt><trkpt lat="43.26149005137366" lon="12.855123624790556"><ele>613.0</ele><time>2026-04-26T11:42:51Z</time></trkpt><trkpt lat="43.261417677766026" lon="12.855140095887116"><ele>613.0</ele><time>2026-04-26T11:42:52Z</time></trkpt><trkpt lat="43.261278761989395" lon="12.855173376812203"><ele>613.0</ele><time>2026-04-26T11:42:54Z</time></trkpt><trkpt lat="43.26120563016017" lon="12.855190689655064"><ele>613.0</ele><time>2026-04-26T11:42:55Z</time></trkpt><trkpt lat="43.2611059003304" lon="12.855215903172715"><ele>613.0</ele><time>2026-04-26T11:42:56Z</time></trkpt><trkpt lat="43.26100623788715" lon="12.855246307259653"><ele>613.0</ele><time>2026-04-26T11:42:57Z</time></trkpt><trkpt lat="43.26091084618663" lon="12.85528019374795"><ele>613.0</ele><time>2026-04-26T11:42:58Z</time></trkpt><trkpt lat="43.26081434503612" lon="12.855319868173046"><ele>613.0</ele><time>2026-04-26T11:42:59Z</time></trkpt><trkpt lat="43.26071176303869" lon="12.855363574584189"><ele>613.0</ele><time>2026-04-26T11:43:00Z</time></trkpt><trkpt lat="43.260617367582626" lon="12.85540649815195"><ele>613.0</ele><time>2026-04-26T11:43:01Z</time></trkpt><trkpt lat="43.26050838125858" lon="12.855456056387773"><ele>613.0</ele><time>2026-04-26T11:43:02Z</time></trkpt><trkpt lat="43.26039706061353" lon="12.855508762587942"><ele>608.4</ele><time>2026-04-26T11:43:03Z</time></trkpt><trkpt lat="43.26029739425848" lon="12.85555851729074"><ele>603.8</ele><time>2026-04-26T11:43:04Z</time></trkpt><trkpt lat="43.26021363285853" lon="12.85565040414532"><ele>599.2</ele><time>2026-04-26T11:43:05Z</time></trkpt><trkpt lat="43.26013954619824" lon="12.855746963469024"><ele>594.6</ele><time>2026-04-26T11:43:06Z</time></trkpt><trkpt lat="43.26008042701682" lon="12.855843355558578"><ele>590.0</ele><time>2026-04-26T11:43:07Z</time></trkpt><trkpt lat="43.2600250154655" lon="12.855947652352533"><ele>656.0</ele><time>2026-04-26T11:43:08Z</time></trkpt><trkpt lat="43.2602031255195" lon="12.85694828794561"><ele>656.0</ele><time>2026-04-26T11:43:09Z</time></trkpt><trkpt lat="43.260145936759955" lon="12.8570725775357"><ele>656.0</ele><time>2026-04-26T11:43:10Z</time></trkpt><trkpt lat="43.26008020579523" lon="12.857191275406064"><ele>656.0</ele><time>2026-04-26T11:43:11Z</time></trkpt><trkpt lat="43.26002367346932" lon="12.857313263652838"><ele>656.0</ele><time>2026-04-26T11:43:12Z</time></trkpt><trkpt lat="43.259972061901664" lon="12.857449330026117"><ele>656.0</ele><time>2026-04-26T11:43:13Z</time></trkpt><trkpt lat="43.25992185435884" lon="12.857556938177698"><ele>660.5999999999999</ele><time>2026-04-26T11:43:14Z</time></trkpt><trkpt lat="43.25988013312706" lon="12.857665288665165"><ele>665.2</ele><time>2026-04-26T11:43:15Z</time></trkpt><trkpt lat="43.25984453145254" lon="12.85779777195623"><ele>669.8</ele><time>2026-04-26T11:43:16Z</time></trkpt><trkpt lat="43.25981259117151" lon="12.85795671424966"><ele>674.4000000000001</ele><time>2026-04-26T11:43:17Z</time></trkpt><trkpt lat="43.25979680404473" lon="12.85810928237803"><ele>679.0</ele><time>2026-04-26T11:43:18Z</time></trkpt><trkpt lat="43.259772376238786" lon="12.858250691109449"><ele>674.0</ele><time>2026-04-26T11:43:19Z</time></trkpt><trkpt lat="43.259752059548006" lon="12.8583822382754"><ele>669.0</ele><time>2026-04-26T11:43:20Z</time></trkpt><trkpt lat="43.25972984239981" lon="12.858511539150062"><ele>664.0</ele><time>2026-04-26T11:43:21Z</time></trkpt><trkpt lat="43.259711436166945" lon="12.858662443052902"><ele>659.0</ele><time>2026-04-26T11:43:22Z</time></trkpt><trkpt lat="43.25969244433205" lon="12.858820474225531"><ele>654.0</ele><time>2026-04-26T11:43:23Z</time></trkpt><trkpt lat="43.25967527563702" lon="12.858980998213358"><ele>654.0</ele><time>2026-04-26T11:43:24Z</time></trkpt><trkpt lat="43.25966445865777" lon="12.859112487237889"><ele>654.0</ele><time>2026-04-26T11:43:25Z</time></trkpt><trkpt lat="43.25965257132829" lon="12.859259427121648"><ele>654.0</ele><time>2026-04-26T11:43:26Z</time></trkpt><trkpt lat="43.25963860354408" lon="12.859403517362153"><ele>654.0</ele><time>2026-04-26T11:43:27Z</time></trkpt><trkpt lat="43.25962564411774" lon="12.859518250825667"><ele>654.0</ele><time>2026-04-26T11:43:28Z</time></trkpt><trkpt lat="43.25961180556519" lon="12.859633905203824"><ele>661.75</ele><time>2026-04-26T11:43:29Z</time></trkpt><trkpt lat="43.2596129906206" lon="12.859757627253442"><ele>669.5</ele><time>2026-04-26T11:43:30Z</time></trkpt><trkpt lat="43.25975527301765" lon="12.859890839498"><ele>677.25</ele><time>2026-04-26T11:43:31Z</time></trkpt><trkpt lat="43.25973578613641" lon="12.860065571141343"><ele>685.0</ele><time>2026-04-26T11:43:33Z</time></trkpt><trkpt lat="43.25973253350373" lon="12.860200008184052"><ele>685.0</ele><time>2026-04-26T11:43:35Z</time></trkpt><trkpt lat="43.25973444701417" lon="12.860106636792915"><ele>685.0</ele><time>2026-04-26T11:43:43.999Z</time></trkpt><trkpt lat="43.25974128438598" lon="12.86000556325403"><ele>685.0</ele><time>2026-04-26T11:43:45.999Z</time></trkpt><trkpt lat="43.25974606313753" lon="12.859861340446512"><ele>685.0</ele><time>2026-04-26T11:43:47.999Z</time></trkpt><trkpt lat="43.259786829631004" lon="12.859709041023166"><ele>685.0</ele><time>2026-04-26T11:43:49.999Z</time></trkpt><trkpt lat="43.259767442317475" lon="12.859609700007386"><ele>685.0</ele><time>2026-04-26T11:43:50.999Z</time></trkpt><trkpt lat="43.25978273338227" lon="12.85950930260883"><ele>688.1666666666667</ele><time>2026-04-26T11:43:51.999Z</time></trkpt><trkpt lat="43.259835952359246" lon="12.859352789411906"><ele>691.3333333333334</ele><time>2026-04-26T11:43:53.999Z</time></trkpt><trkpt lat="43.2598747175885" lon="12.859268593603918"><ele>694.5</ele><time>2026-04-26T11:43:54.999Z</time></trkpt><trkpt lat="43.25992061166171" lon="12.859173511198986"><ele>697.6666666666666</ele><time>2026-04-26T11:43:55.999Z</time></trkpt><trkpt lat="43.2599865504907" lon="12.85907563882502"><ele>700.8333333333333</ele><time>2026-04-26T11:43:57.999Z</time></trkpt><trkpt lat="43.260020510238796" lon="12.858992504289224"><ele>704.0</ele><time>2026-04-26T11:43:58.999Z</time></trkpt><trkpt lat="43.260116558767876" lon="12.858883806004487"><ele>704.0</ele><time>2026-04-26T11:44:00.999Z</time></trkpt><trkpt lat="43.26019965936158" lon="12.858863666736363"><ele>704.0</ele><time>2026-04-26T11:44:02.999Z</time></trkpt><trkpt lat="43.26041179312533" lon="12.85884591277049"><ele>704.0</ele><time>2026-04-26T11:44:07.999Z</time></trkpt><trkpt lat="43.26047640732825" lon="12.858841130603645"><ele>704.0</ele><time>2026-04-26T11:44:08.999Z</time></trkpt><trkpt lat="43.26054437356021" lon="12.858835200956257"><ele>704.0</ele><time>2026-04-26T11:44:09.999Z</time></trkpt><trkpt lat="43.2606105109612" lon="12.858808962540186"><ele>712.4000000000001</ele><time>2026-04-26T11:44:10.999Z</time></trkpt><trkpt lat="43.26069757765254" lon="12.858787228119649"><ele>720.8</ele><time>2026-04-26T11:44:11.999Z</time></trkpt><trkpt lat="43.260785397452516" lon="12.858768526023065"><ele>729.2</ele><time>2026-04-26T11:44:12.999Z</time></trkpt><trkpt lat="43.260899392533325" lon="12.858846497880254"><ele>737.5999999999999</ele><time>2026-04-26T11:44:13.999Z</time></trkpt><trkpt lat="43.260997362541936" lon="12.858798792474477"><ele>746.0</ele><time>2026-04-26T11:44:14.999Z</time></trkpt><trkpt lat="43.261081388073414" lon="12.858758991721777"><ele>746.0</ele><time>2026-04-26T11:44:15.999Z</time></trkpt><trkpt lat="43.26116723704358" lon="12.85871024384615"><ele>746.0</ele><time>2026-04-26T11:44:16.999Z</time></trkpt><trkpt lat="43.2612855786361" lon="12.858665657480039"><ele>746.0</ele><time>2026-04-26T11:44:17.999Z</time></trkpt><trkpt lat="43.261394623202" lon="12.858623393024251"><ele>746.0</ele><time>2026-04-26T11:44:18.999Z</time></trkpt><trkpt lat="43.261523987598636" lon="12.858565086366902"><ele>744.6666666666666</ele><time>2026-04-26T11:44:19.999Z</time></trkpt><trkpt lat="43.26170166598166" lon="12.858489953461397"><ele>743.3333333333334</ele><time>2026-04-26T11:44:20.999Z</time></trkpt><trkpt lat="43.26187513408213" lon="12.858454998593187"><ele>742.0</ele><time>2026-04-26T11:44:21.999Z</time></trkpt><trkpt lat="43.26202031237041" lon="12.858417904306235"><ele>742.0</ele><time>2026-04-26T11:44:22.999Z</time></trkpt><trkpt lat="43.26215361897343" lon="12.858385679340211"><ele>742.0</ele><time>2026-04-26T11:44:23.999Z</time></trkpt><trkpt lat="43.26230197626438" lon="12.858353894360599"><ele>742.0</ele><time>2026-04-26T11:44:24.999Z</time></trkpt><trkpt lat="43.26244820420011" lon="12.858325023963923"><ele>742.0</ele><time>2026-04-26T11:44:25.999Z</time></trkpt><trkpt lat="43.262558272994454" lon="12.858306288609171"><ele>747.3333333333334</ele><time>2026-04-26T11:44:26.999Z</time></trkpt><trkpt lat="43.262695887959836" lon="12.858291263524107"><ele>752.6666666666666</ele><time>2026-04-26T11:44:27.999Z</time></trkpt><trkpt lat="43.26278346152294" lon="12.858267573396523"><ele>758.0</ele><time>2026-04-26T11:44:28.999Z</time></trkpt><trkpt lat="43.26301265368232" lon="12.858293998888856"><ele>759.3333333333333</ele><time>2026-04-26T11:44:30.999Z</time></trkpt><trkpt lat="43.26312140030455" lon="12.858299018551387"><ele>760.6666666666666</ele><time>2026-04-26T11:44:31.999Z</time></trkpt><trkpt lat="43.263221381319916" lon="12.858307921010232"><ele>762.0</ele><time>2026-04-26T11:44:32.999Z</time></trkpt><trkpt lat="43.26330072078434" lon="12.858322059983916"><ele>763.3333333333334</ele><time>2026-04-26T11:44:33.999Z</time></trkpt><trkpt lat="43.263376329406924" lon="12.858342650437411"><ele>764.6666666666667</ele><time>2026-04-26T11:44:34.999Z</time></trkpt><trkpt lat="43.263445833173186" lon="12.858366318831575"><ele>766.0</ele><time>2026-04-26T11:44:35.999Z</time></trkpt><trkpt lat="43.26352254379589" lon="12.858395699792268"><ele>766.0</ele><time>2026-04-26T11:44:36.999Z</time></trkpt><trkpt lat="43.26359563075187" lon="12.858426702204211"><ele>766.0</ele><time>2026-04-26T11:44:37.999Z</time></trkpt><trkpt lat="43.26367506975543" lon="12.858463625039388"><ele>766.0</ele><time>2026-04-26T11:44:38.999Z</time></trkpt><trkpt lat="43.263765979273344" lon="12.858506182656692"><ele>766.0</ele><time>2026-04-26T11:44:39.999Z</time></trkpt><trkpt lat="43.26385202919708" lon="12.858550655129852"><ele>766.0</ele><time>2026-04-26T11:44:40.999Z</time></trkpt><trkpt lat="43.26394050560735" lon="12.85858812192883"><ele>766.0</ele><time>2026-04-26T11:44:41.999Z</time></trkpt><trkpt lat="43.264025342601" lon="12.858649926655167"><ele>769.8333333333334</ele><time>2026-04-26T11:44:42.999Z</time></trkpt><trkpt lat="43.264094563309776" lon="12.858715629964623"><ele>773.6666666666667</ele><time>2026-04-26T11:44:43.999Z</time></trkpt><trkpt lat="43.2641581080859" lon="12.858768681278852"><ele>777.5</ele><time>2026-04-26T11:44:44.999Z</time></trkpt><trkpt lat="43.26425880440313" lon="12.858859736428572"><ele>781.3333333333334</ele><time>2026-04-26T11:44:46.999Z</time></trkpt><trkpt lat="43.26431343739228" lon="12.858944254170988"><ele>785.1666666666666</ele><time>2026-04-26T11:44:47.999Z</time></trkpt><trkpt lat="43.264376860102175" lon="12.859016462045355"><ele>789.0</ele><time>2026-04-26T11:44:48.999Z</time></trkpt><trkpt lat="43.26444131572909" lon="12.859072655921807"><ele>789.0</ele><time>2026-04-26T11:44:49.999Z</time></trkpt><trkpt lat="43.26448782224245" lon="12.859146068800943"><ele>789.0</ele><time>2026-04-26T11:44:50.999Z</time></trkpt><trkpt lat="43.26455377936599" lon="12.859241323463634"><ele>789.0</ele><time>2026-04-26T11:44:52.999Z</time></trkpt><trkpt lat="43.26462159147475" lon="12.85941232736104"><ele>789.0</ele><time>2026-04-26T11:44:55.999Z</time></trkpt><trkpt lat="43.2646730714956" lon="12.859474557165811"><ele>789.0</ele><time>2026-04-26T11:44:57.999Z</time></trkpt><trkpt lat="43.26448863988544" lon="12.85945647211761"><ele>790.8333333333334</ele><time>2026-04-26T11:45:05.999Z</time></trkpt><trkpt lat="43.264422684076585" lon="12.85943457411501"><ele>792.6666666666667</ele><time>2026-04-26T11:45:06.999Z</time></trkpt><trkpt lat="43.26432762070688" lon="12.859433511456903"><ele>794.5</ele><time>2026-04-26T11:45:07.999Z</time></trkpt><trkpt lat="43.26423891327523" lon="12.859413908644076"><ele>796.3333333333334</ele><time>2026-04-26T11:45:08.999Z</time></trkpt><trkpt lat="43.26417212701088" lon="12.859401447992903"><ele>798.1666666666667</ele><time>2026-04-26T11:45:09.999Z</time></trkpt><trkpt lat="43.26405936301482" lon="12.859380806615295"><ele>800.0</ele><time>2026-04-26T11:45:11.999Z</time></trkpt><trkpt lat="43.263993336753096" lon="12.85937689255597"><ele>802.1666666666667</ele><time>2026-04-26T11:45:12.999Z</time></trkpt><trkpt lat="43.263907342034386" lon="12.859366192478305"><ele>804.3333333333334</ele><time>2026-04-26T11:45:13.999Z</time></trkpt><trkpt lat="43.2638226581759" lon="12.859363275641101"><ele>806.5</ele><time>2026-04-26T11:45:14.999Z</time></trkpt><trkpt lat="43.26373233316211" lon="12.859376544601885"><ele>808.6666666666667</ele><time>2026-04-26T11:45:15.999Z</time></trkpt><trkpt lat="43.26365139265081" lon="12.85939510904964"><ele>810.8333333333334</ele><time>2026-04-26T11:45:16.999Z</time></trkpt><trkpt lat="43.26357168982354" lon="12.859421931314094"><ele>813.0</ele><time>2026-04-26T11:45:17.999Z</time></trkpt><trkpt lat="43.263493950061964" lon="12.859450456353771"><ele>813.0</ele><time>2026-04-26T11:45:18.999Z</time></trkpt><trkpt lat="43.26342038296635" lon="12.859476130121651"><ele>813.0</ele><time>2026-04-26T11:45:19.999Z</time></trkpt><trkpt lat="43.26333962352629" lon="12.859507549476557"><ele>813.0</ele><time>2026-04-26T11:45:20.999Z</time></trkpt><trkpt lat="43.263238112405766" lon="12.859530491191558"><ele>813.0</ele><time>2026-04-26T11:45:21.999Z</time></trkpt><trkpt lat="43.2631357067693" lon="12.859573761072506"><ele>813.0</ele><time>2026-04-26T11:45:22.999Z</time></trkpt><trkpt lat="43.263039131004014" lon="12.859623958542228"><ele>812.8333333333334</ele><time>2026-04-26T11:45:23.999Z</time></trkpt><trkpt lat="43.26295953938375" lon="12.859661120967267"><ele>812.6666666666667</ele><time>2026-04-26T11:45:24.999Z</time></trkpt><trkpt lat="43.26289519232893" lon="12.85970122790336"><ele>812.5</ele><time>2026-04-26T11:45:25.999Z</time></trkpt><trkpt lat="43.262819629256306" lon="12.85975167480565"><ele>812.3333333333334</ele><time>2026-04-26T11:45:26.999Z</time></trkpt><trkpt lat="43.262733568515394" lon="12.859804126129935"><ele>812.1666666666667</ele><time>2026-04-26T11:45:27.999Z</time></trkpt><trkpt lat="43.26264020608572" lon="12.859856024668579"><ele>812.0</ele><time>2026-04-26T11:45:28.999Z</time></trkpt><trkpt lat="43.26256496451358" lon="12.859917488299404"><ele>812.0000000000001</ele><time>2026-04-26T11:45:29.999Z</time></trkpt><trkpt lat="43.262489726464516" lon="12.859978419330606"><ele>812.0</ele><time>2026-04-26T11:45:30.999Z</time></trkpt><trkpt lat="43.26241361144645" lon="12.860041697273259"><ele>812.0</ele><time>2026-04-26T11:45:31.999Z</time></trkpt><trkpt lat="43.26234162745635" lon="12.860103037269436"><ele>812.0</ele><time>2026-04-26T11:45:32.999Z</time></trkpt><trkpt lat="43.26227972602637" lon="12.86015803960429"><ele>812.0000000000001</ele><time>2026-04-26T11:45:33.999Z</time></trkpt><trkpt lat="43.262218550139345" lon="12.860217823691789"><ele>812.0</ele><time>2026-04-26T11:45:34.999Z</time></trkpt><trkpt lat="43.26216028240899" lon="12.860279227321637"><ele>813.6</ele><time>2026-04-26T11:45:35.999Z</time></trkpt><trkpt lat="43.262092386343106" lon="12.860353329226168"><ele>815.2</ele><time>2026-04-26T11:45:36.999Z</time></trkpt><trkpt lat="43.26200338831953" lon="12.860452474544363"><ele>816.8</ele><time>2026-04-26T11:45:37.999Z</time></trkpt><trkpt lat="43.26191566197342" lon="12.860557486530872"><ele>818.4</ele><time>2026-04-26T11:45:38.999Z</time></trkpt><trkpt lat="43.26182540877038" lon="12.860643157969342"><ele>820.0</ele><time>2026-04-26T11:45:39.999Z</time></trkpt><trkpt lat="43.26175779619071" lon="12.860732717727146"><ele>820.0</ele><time>2026-04-26T11:45:40.999Z</time></trkpt><trkpt lat="43.26168002626904" lon="12.860845811789712"><ele>820.0</ele><time>2026-04-26T11:45:41.999Z</time></trkpt><trkpt lat="43.261595156096625" lon="12.860962910455775"><ele>820.0</ele><time>2026-04-26T11:45:42.999Z</time></trkpt><trkpt lat="43.26154198337822" lon="12.861059458240337"><ele>820.0</ele><time>2026-04-26T11:45:43.999Z</time></trkpt><trkpt lat="43.261477520504464" lon="12.861154926589055"><ele>820.0</ele><time>2026-04-26T11:45:44.999Z</time></trkpt><trkpt lat="43.261404628214336" lon="12.861252049363227"><ele>818.6666666666666</ele><time>2026-04-26T11:45:45.999Z</time></trkpt><trkpt lat="43.26132622561117" lon="12.861346164564834"><ele>817.3333333333333</ele><time>2026-04-26T11:45:46.999Z</time></trkpt><trkpt lat="43.26126394416421" lon="12.861420927082357"><ele>816.0</ele><time>2026-04-26T11:45:47.999Z</time></trkpt><trkpt lat="43.26121208289426" lon="12.861486835436756"><ele>814.6666666666667</ele><time>2026-04-26T11:45:48.999Z</time></trkpt><trkpt lat="43.26115262254911" lon="12.86154197012833"><ele>813.3333333333334</ele><time>2026-04-26T11:45:49.999Z</time></trkpt><trkpt lat="43.26110259134829" lon="12.861631772018999"><ele>812.0</ele><time>2026-04-26T11:45:50.999Z</time></trkpt><trkpt lat="43.261057492207755" lon="12.861697734985997"><ele>812.0</ele><time>2026-04-26T11:45:51.999Z</time></trkpt><trkpt lat="43.260984183228814" lon="12.861766006688145"><ele>812.0</ele><time>2026-04-26T11:45:53.999Z</time></trkpt><trkpt lat="43.261045490265104" lon="12.861910365874609"><ele>812.0</ele><time>2026-04-26T11:45:57.999Z</time></trkpt><trkpt lat="43.2611248613558" lon="12.861867055846961"><ele>812.0</ele><time>2026-04-26T11:45:59.999Z</time></trkpt><trkpt lat="43.261205479681955" lon="12.861824471799208"><ele>812.0</ele><time>2026-04-26T11:46:01.999Z</time></trkpt><trkpt lat="43.26134637396496" lon="12.8617765149934"><ele>812.0000000000001</ele><time>2026-04-26T11:46:03.999Z</time></trkpt><trkpt lat="43.26143125246617" lon="12.861740630117884"><ele>812.0</ele><time>2026-04-26T11:46:04.999Z</time></trkpt><trkpt lat="43.261513237519004" lon="12.861722815043088"><ele>812.0</ele><time>2026-04-26T11:46:05.999Z</time></trkpt><trkpt lat="43.261576523897475" lon="12.861699348558183"><ele>812.0</ele><time>2026-04-26T11:46:06.999Z</time></trkpt><trkpt lat="43.26165177086376" lon="12.86168812441549"><ele>812.0000000000001</ele><time>2026-04-26T11:46:07.999Z</time></trkpt><trkpt lat="43.26172261804566" lon="12.86167191974753"><ele>812.0</ele><time>2026-04-26T11:46:08.999Z</time></trkpt><trkpt lat="43.26180511488357" lon="12.861683568532442"><ele>816.8333333333334</ele><time>2026-04-26T11:46:09.999Z</time></trkpt><trkpt lat="43.26188280414076" lon="12.861678676840548"><ele>821.6666666666667</ele><time>2026-04-26T11:46:10.999Z</time></trkpt><trkpt lat="43.2619561602325" lon="12.861682274048395"><ele>826.5</ele><time>2026-04-26T11:46:11.999Z</time></trkpt><trkpt lat="43.26202002469576" lon="12.861686270091472"><ele>831.3333333333333</ele><time>2026-04-26T11:46:12.999Z</time></trkpt><trkpt lat="43.26208682947062" lon="12.861668320450343"><ele>836.1666666666666</ele><time>2026-04-26T11:46:13.999Z</time></trkpt><trkpt lat="43.26215645481957" lon="12.861700571599485"><ele>841.0</ele><time>2026-04-26T11:46:14.999Z</time></trkpt><trkpt lat="43.26229971023592" lon="12.861723918152562"><ele>843.8</ele><time>2026-04-26T11:46:16.999Z</time></trkpt><trkpt lat="43.262340575860435" lon="12.861817210659362"><ele>846.5999999999999</ele><time>2026-04-26T11:46:18.999Z</time></trkpt><trkpt lat="43.262278072200786" lon="12.86190329991299"><ele>849.4</ele><time>2026-04-26T11:46:24.999Z</time></trkpt><trkpt lat="43.2621932372959" lon="12.861977043891015"><ele>852.2</ele><time>2026-04-26T11:46:26.999Z</time></trkpt><trkpt lat="43.26209379805713" lon="12.862033938000168"><ele>855.0</ele><time>2026-04-26T11:46:28.999Z</time></trkpt><trkpt lat="43.26201158394346" lon="12.86210833645068"><ele>855.8333333333334</ele><time>2026-04-26T11:46:30.999Z</time></trkpt><trkpt lat="43.261945345704106" lon="12.862174162611868"><ele>856.6666666666667</ele><time>2026-04-26T11:46:31.999Z</time></trkpt><trkpt lat="43.26186332089075" lon="12.862256763455473"><ele>857.5</ele><time>2026-04-26T11:46:32.999Z</time></trkpt><trkpt lat="43.261783649122314" lon="12.8623338817577"><ele>858.3333333333334</ele><time>2026-04-26T11:46:33.999Z</time></trkpt><trkpt lat="43.261722107249184" lon="12.862394496900329"><ele>859.1666666666667</ele><time>2026-04-26T11:46:34.999Z</time></trkpt><trkpt lat="43.26166436621761" lon="12.862445137688438"><ele>860.0</ele><time>2026-04-26T11:46:35.999Z</time></trkpt><trkpt lat="43.26160741883724" lon="12.862493911379445"><ele>860.0</ele><time>2026-04-26T11:46:36.999Z</time></trkpt><trkpt lat="43.26152098684074" lon="12.862569671432345"><ele>860.0</ele><time>2026-04-26T11:46:38.999Z</time></trkpt><trkpt lat="43.26145438482597" lon="12.862637826351662"><ele>860.0</ele><time>2026-04-26T11:46:40.999Z</time></trkpt><trkpt lat="43.261342227039314" lon="12.86270827261522"><ele>860.0</ele><time>2026-04-26T11:46:42.999Z</time></trkpt><trkpt lat="43.2612836030479" lon="12.86275601521718"><ele>860.0</ele><time>2026-04-26T11:46:43.999Z</time></trkpt><trkpt lat="43.261212017993145" lon="12.862804862863582"><ele>860.8333333333334</ele><time>2026-04-26T11:46:44.999Z</time></trkpt><trkpt lat="43.26114979811577" lon="12.86284529510241"><ele>861.6666666666667</ele><time>2026-04-26T11:46:45.999Z</time></trkpt><trkpt lat="43.261088451293816" lon="12.862919797982906"><ele>862.5</ele><time>2026-04-26T11:46:47.999Z</time></trkpt><trkpt lat="43.26116352044888" lon="12.862940800146712"><ele>863.3333333333333</ele><time>2026-04-26T11:46:52.999Z</time></trkpt><trkpt lat="43.261271179687284" lon="12.86294956828857"><ele>864.1666666666666</ele><time>2026-04-26T11:46:54.999Z</time></trkpt><trkpt lat="43.26133292036494" lon="12.862979444614663"><ele>865.0</ele><time>2026-04-26T11:46:55.999Z</time></trkpt><trkpt lat="43.261400012973326" lon="12.863003383478182"><ele>866.9999999999999</ele><time>2026-04-26T11:46:56.999Z</time></trkpt><trkpt lat="43.26149259414214" lon="12.863081465345266"><ele>869.0</ele><time>2026-04-26T11:46:58.999Z</time></trkpt><trkpt lat="43.26154895472551" lon="12.863128098931611"><ele>871.0</ele><time>2026-04-26T11:46:59.999Z</time></trkpt><trkpt lat="43.261623187423446" lon="12.863156601551761"><ele>873.0</ele><time>2026-04-26T11:47:00.999Z</time></trkpt><trkpt lat="43.26168573213169" lon="12.863180302432216"><ele>874.9999999999999</ele><time>2026-04-26T11:47:01.999Z</time></trkpt><trkpt lat="43.26174919178512" lon="12.863248623267538"><ele>877.0</ele><time>2026-04-26T11:47:03.999Z</time></trkpt><trkpt lat="43.261726864639755" lon="12.8633396676572"><ele>876.9999999999999</ele><time>2026-04-26T11:47:06.999Z</time></trkpt><trkpt lat="43.26165787219774" lon="12.863372118907165"><ele>877.0</ele><time>2026-04-26T11:47:08.999Z</time></trkpt><trkpt lat="43.26153970182464" lon="12.863453490346926"><ele>877.0</ele><time>2026-04-26T11:47:10.999Z</time></trkpt><trkpt lat="43.26147499540219" lon="12.863494630729363"><ele>877.0</ele><time>2026-04-26T11:47:11.999Z</time></trkpt><trkpt lat="43.2614136656272" lon="12.863529609107761"><ele>876.9999999999999</ele><time>2026-04-26T11:47:12.999Z</time></trkpt><trkpt lat="43.261354400405295" lon="12.863564769850466"><ele>877.0</ele><time>2026-04-26T11:47:13.999Z</time></trkpt><trkpt lat="43.26128839184688" lon="12.863612288678588"><ele>879.6666666666666</ele><time>2026-04-26T11:47:14.999Z</time></trkpt><trkpt lat="43.261216249076966" lon="12.863658379476277"><ele>882.3333333333333</ele><time>2026-04-26T11:47:15.999Z</time></trkpt><trkpt lat="43.26113874326616" lon="12.863703373384263"><ele>885.0</ele><time>2026-04-26T11:47:16.999Z</time></trkpt><trkpt lat="43.26106223411624" lon="12.863744125743308"><ele>887.6666666666667</ele><time>2026-04-26T11:47:17.999Z</time></trkpt><trkpt lat="43.26099779373146" lon="12.863788551416752"><ele>890.3333333333334</ele><time>2026-04-26T11:47:18.999Z</time></trkpt><trkpt lat="43.2609437445403" lon="12.863851872025826"><ele>893.0</ele><time>2026-04-26T11:47:19.999Z</time></trkpt><trkpt lat="43.26088864449557" lon="12.863924717429978"><ele>893.0000000000001</ele><time>2026-04-26T11:47:20.999Z</time></trkpt><trkpt lat="43.260836586703256" lon="12.86399758248664"><ele>893.0</ele><time>2026-04-26T11:47:21.999Z</time></trkpt><trkpt lat="43.26077306682504" lon="12.86407183750494"><ele>893.0</ele><time>2026-04-26T11:47:22.999Z</time></trkpt><trkpt lat="43.2606919425207" lon="12.86415547525436"><ele>893.0</ele><time>2026-04-26T11:47:23.999Z</time></trkpt><trkpt lat="43.26061507069497" lon="12.864246284528209"><ele>893.0000000000001</ele><time>2026-04-26T11:47:24.999Z</time></trkpt><trkpt lat="43.26054299096473" lon="12.864317772065712"><ele>893.0</ele><time>2026-04-26T11:47:25.999Z</time></trkpt><trkpt lat="43.26044637963007" lon="12.864388159939253"><ele>897.4</ele><time>2026-04-26T11:47:27.999Z</time></trkpt><trkpt lat="43.260372298847855" lon="12.864432398302757"><ele>901.8</ele><time>2026-04-26T11:47:29.999Z</time></trkpt><trkpt lat="43.260311428273454" lon="12.86449332637776"><ele>906.2</ele><time>2026-04-26T11:47:31.999Z</time></trkpt><trkpt lat="43.26043764206826" lon="12.864460834793483"><ele>910.6</ele><time>2026-04-26T11:47:36.999Z</time></trkpt><trkpt lat="43.26055958075349" lon="12.864509315283021"><ele>915.0</ele><time>2026-04-26T11:47:38.999Z</time></trkpt><trkpt lat="43.26062210650743" lon="12.864560568451635"><ele>915.1666666666666</ele><time>2026-04-26T11:47:39.999Z</time></trkpt><trkpt lat="43.26068053708746" lon="12.8646098122627"><ele>915.3333333333333</ele><time>2026-04-26T11:47:40.999Z</time></trkpt><trkpt lat="43.26075091759915" lon="12.864651620294772"><ele>915.5</ele><time>2026-04-26T11:47:41.999Z</time></trkpt><trkpt lat="43.2608126562985" lon="12.864705878780166"><ele>915.6666666666666</ele><time>2026-04-26T11:47:42.999Z</time></trkpt><trkpt lat="43.26086284582093" lon="12.86478352332944"><ele>915.8333333333333</ele><time>2026-04-26T11:47:43.999Z</time></trkpt><trkpt lat="43.260936341059114" lon="12.864906628003054"><ele>916.0</ele><time>2026-04-26T11:47:45.999Z</time></trkpt><trkpt lat="43.26102609338592" lon="12.865015509825456"><ele>921.5</ele><time>2026-04-26T11:47:47.999Z</time></trkpt><trkpt lat="43.261126969839765" lon="12.865127273282837"><ele>927.0</ele><time>2026-04-26T11:47:49.999Z</time></trkpt><trkpt lat="43.26117234626134" lon="12.865208805509175"><ele>932.5</ele><time>2026-04-26T11:47:50.999Z</time></trkpt><trkpt lat="43.26114966718298" lon="12.86537929505688"><ele>938.0</ele><time>2026-04-26T11:47:51.999Z</time></trkpt><trkpt lat="43.26126259005689" lon="12.86532139543699"><ele>938.0</ele><time>2026-04-26T11:47:52.999Z</time></trkpt><trkpt lat="43.26130450122016" lon="12.865573502193131"><ele>938.0</ele><time>2026-04-26T11:47:54.999Z</time></trkpt><trkpt lat="43.26137906353396" lon="12.865672613550947"><ele>938.0</ele><time>2026-04-26T11:47:55.999Z</time></trkpt><trkpt lat="43.26144001992664" lon="12.865756685196851"><ele>938.0</ele><time>2026-04-26T11:47:56.999Z</time></trkpt><trkpt lat="43.26149442807054" lon="12.86583299866266"><ele>938.3333333333334</ele><time>2026-04-26T11:47:57.999Z</time></trkpt><trkpt lat="43.26154716989944" lon="12.865907977558859"><ele>938.6666666666667</ele><time>2026-04-26T11:47:58.999Z</time></trkpt><trkpt lat="43.26160400090235" lon="12.865995779864832"><ele>939.0</ele><time>2026-04-26T11:47:59.999Z</time></trkpt><trkpt lat="43.26167600153757" lon="12.866081575789357"><ele>939.3333333333333</ele><time>2026-04-26T11:48:00.999Z</time></trkpt><trkpt lat="43.26173214436939" lon="12.866179671620458"><ele>939.6666666666666</ele><time>2026-04-26T11:48:01.999Z</time></trkpt><trkpt lat="43.26178620993314" lon="12.866262087025707"><ele>940.0</ele><time>2026-04-26T11:48:02.999Z</time></trkpt><trkpt lat="43.261838529576195" lon="12.86632615447925"><ele>939.9999999999999</ele><time>2026-04-26T11:48:03.999Z</time></trkpt><trkpt lat="43.26189914776333" lon="12.866434382780687"><ele>940.0</ele><time>2026-04-26T11:48:04.999Z</time></trkpt><trkpt lat="43.26196123263675" lon="12.866501491327586"><ele>940.0</ele><time>2026-04-26T11:48:05.999Z</time></trkpt><trkpt lat="43.262010418990904" lon="12.866586984948277"><ele>940.0</ele><time>2026-04-26T11:48:06.999Z</time></trkpt><trkpt lat="43.26205857184937" lon="12.866651254655338"><ele>939.9999999999999</ele><time>2026-04-26T11:48:07.999Z</time></trkpt><trkpt lat="43.26211156329839" lon="12.866718519874402"><ele>940.0</ele><time>2026-04-26T11:48:08.999Z</time></trkpt><trkpt lat="43.262178125863436" lon="12.866769516217971"><ele>939.8333333333333</ele><time>2026-04-26T11:48:09.999Z</time></trkpt><trkpt lat="43.26223793423815" lon="12.866871775766025"><ele>939.6666666666666</ele><time>2026-04-26T11:48:10.999Z</time></trkpt><trkpt lat="43.262318621994645" lon="12.866924359255963"><ele>939.5</ele><time>2026-04-26T11:48:11.999Z</time></trkpt><trkpt lat="43.262378701032226" lon="12.866991192254984"><ele>939.3333333333333</ele><time>2026-04-26T11:48:12.999Z</time></trkpt><trkpt lat="43.2624491645807" lon="12.867040672284933"><ele>939.1666666666666</ele><time>2026-04-26T11:48:13.999Z</time></trkpt><trkpt lat="43.26251281222202" lon="12.867084568940982"><ele>939.0</ele><time>2026-04-26T11:48:14.999Z</time></trkpt><trkpt lat="43.262573743686715" lon="12.867122872029915"><ele>939.0</ele><time>2026-04-26T11:48:15.999Z</time></trkpt><trkpt lat="43.262650266586505" lon="12.867168065784439"><ele>939.0000000000001</ele><time>2026-04-26T11:48:16.999Z</time></trkpt><trkpt lat="43.26274293657101" lon="12.867218979466513"><ele>939.0000000000001</ele><time>2026-04-26T11:48:17.999Z</time></trkpt><trkpt lat="43.26284647611646" lon="12.867272823620933"><ele>939.0</ele><time>2026-04-26T11:48:18.999Z</time></trkpt><trkpt lat="43.26295778647282" lon="12.867327660687298"><ele>939.0</ele><time>2026-04-26T11:48:19.999Z</time></trkpt><trkpt lat="43.26304255052419" lon="12.867365588216432"><ele>935.8000000000001</ele><time>2026-04-26T11:48:20.999Z</time></trkpt><trkpt lat="43.263136695641435" lon="12.867405211143616"><ele>932.6000000000001</ele><time>2026-04-26T11:48:21.999Z</time></trkpt><trkpt lat="43.26323219675734" lon="12.867442061683647"><ele>929.4</ele><time>2026-04-26T11:48:22.999Z</time></trkpt><trkpt lat="43.263339869980115" lon="12.867482731403221"><ele>926.2</ele><time>2026-04-26T11:48:23.999Z</time></trkpt><trkpt lat="43.26344005575372" lon="12.867520401693024"><ele>923.0</ele><time>2026-04-26T11:48:24.999Z</time></trkpt><trkpt lat="43.263540882772155" lon="12.867558313080108"><ele>923.0</ele><time>2026-04-26T11:48:25.999Z</time></trkpt><trkpt lat="43.26365309983349" lon="12.867600507173394"><ele>923.0</ele><time>2026-04-26T11:48:26.999Z</time></trkpt><trkpt lat="43.2637552882585" lon="12.86763892947922"><ele>923.0</ele><time>2026-04-26T11:48:27.999Z</time></trkpt><trkpt lat="43.26386483521158" lon="12.86768011963435"><ele>923.0</ele><time>2026-04-26T11:48:28.999Z</time></trkpt><trkpt lat="43.26398602398706" lon="12.867701866728595"><ele>927.25</ele><time>2026-04-26T11:48:29.999Z</time></trkpt><trkpt lat="43.26410072147714" lon="12.867763858801384"><ele>931.5</ele><time>2026-04-26T11:48:30.999Z</time></trkpt><trkpt lat="43.264222310140944" lon="12.867780167205565"><ele>935.75</ele><time>2026-04-26T11:48:31.999Z</time></trkpt><trkpt lat="43.264338100510464" lon="12.867837386625338"><ele>940.0</ele><time>2026-04-26T11:48:32.999Z</time></trkpt><trkpt lat="43.264443030700015" lon="12.867864513569785"><ele>940.0</ele><time>2026-04-26T11:48:33.999Z</time></trkpt><trkpt lat="43.2645419827148" lon="12.867888493513004"><ele>940.0</ele><time>2026-04-26T11:48:34.999Z</time></trkpt><trkpt lat="43.26463743920337" lon="12.867892846565702"><ele>940.0</ele><time>2026-04-26T11:48:35.999Z</time></trkpt><trkpt lat="43.26472860127284" lon="12.867914933394154"><ele>940.0</ele><time>2026-04-26T11:48:36.999Z</time></trkpt><trkpt lat="43.2648223296636" lon="12.867936143821217"><ele>940.0</ele><time>2026-04-26T11:48:37.999Z</time></trkpt><trkpt lat="43.26491669638559" lon="12.86797865399193"><ele>936.8</ele><time>2026-04-26T11:48:38.999Z</time></trkpt><trkpt lat="43.265018443646625" lon="12.868003062431935"><ele>933.6</ele><time>2026-04-26T11:48:39.999Z</time></trkpt><trkpt lat="43.265123791837176" lon="12.868028334692877"><ele>930.4000000000001</ele><time>2026-04-26T11:48:40.999Z</time></trkpt><trkpt lat="43.26523197833063" lon="12.868037888453776"><ele>927.2</ele><time>2026-04-26T11:48:41.999Z</time></trkpt><trkpt lat="43.26533295187237" lon="12.868090896767923"><ele>924.0</ele><time>2026-04-26T11:48:42.999Z</time></trkpt><trkpt lat="43.26543090719551" lon="12.868112294687768"><ele>924.0</ele><time>2026-04-26T11:48:43.999Z</time></trkpt><trkpt lat="43.26551967376001" lon="12.868152751240494"><ele>924.0</ele><time>2026-04-26T11:48:44.999Z</time></trkpt><trkpt lat="43.26560247572312" lon="12.86819052518065"><ele>924.0</ele><time>2026-04-26T11:48:45.999Z</time></trkpt><trkpt lat="43.26568021209598" lon="12.868228744359614"><ele>924.0</ele><time>2026-04-26T11:48:46.999Z</time></trkpt><trkpt lat="43.26575628897466" lon="12.868270084814116"><ele>924.0</ele><time>2026-04-26T11:48:47.999Z</time></trkpt><trkpt lat="43.265839636420026" lon="12.86831286790646"><ele>924.0</ele><time>2026-04-26T11:48:48.999Z</time></trkpt><trkpt lat="43.26590664483584" lon="12.868352628365738"><ele>922.6666666666666</ele><time>2026-04-26T11:48:49.999Z</time></trkpt><trkpt lat="43.26597445895637" lon="12.868406263612721"><ele>921.3333333333333</ele><time>2026-04-26T11:48:50.999Z</time></trkpt><trkpt lat="43.26604987879281" lon="12.868479157663979"><ele>920.0</ele><time>2026-04-26T11:48:51.999Z</time></trkpt><trkpt lat="43.26611539847162" lon="12.868583800708123"><ele>918.6666666666666</ele><time>2026-04-26T11:48:52.999Z</time></trkpt><trkpt lat="43.266156125885416" lon="12.86869110805721"><ele>917.3333333333333</ele><time>2026-04-26T11:48:53.999Z</time></trkpt><trkpt lat="43.26618720190392" lon="12.86879913266774"><ele>916.0</ele><time>2026-04-26T11:48:54.999Z</time></trkpt><trkpt lat="43.26620993627839" lon="12.86894359612038"><ele>915.9999999999999</ele><time>2026-04-26T11:48:55.999Z</time></trkpt><trkpt lat="43.266197765366435" lon="12.869081333211177"><ele>916.0</ele><time>2026-04-26T11:48:56.999Z</time></trkpt><trkpt lat="43.266180126561224" lon="12.8691905718094"><ele>916.0</ele><time>2026-04-26T11:48:57.999Z</time></trkpt><trkpt lat="43.26617158112747" lon="12.869288590061135"><ele>916.0</ele><time>2026-04-26T11:48:58.999Z</time></trkpt><trkpt lat="43.266168654474846" lon="12.869393472168275"><ele>915.9999999999999</ele><time>2026-04-26T11:48:59.999Z</time></trkpt><trkpt lat="43.26617687061985" lon="12.86951970335246"><ele>916.0</ele><time>2026-04-26T11:49:00.999Z</time></trkpt><trkpt lat="43.2661544928447" lon="12.869635683034218"><ele>915.4285714285713</ele><time>2026-04-26T11:49:01.999Z</time></trkpt><trkpt lat="43.26613301227076" lon="12.86973114812804"><ele>914.8571428571429</ele><time>2026-04-26T11:49:02.999Z</time></trkpt><trkpt lat="43.266112942675164" lon="12.869834175496635"><ele>914.2857142857142</ele><time>2026-04-26T11:49:03.999Z</time></trkpt><trkpt lat="43.2660927912202" lon="12.86993762282799"><ele>913.7142857142857</ele><time>2026-04-26T11:49:04.999Z</time></trkpt><trkpt lat="43.26606919192066" lon="12.870034236417549"><ele>913.1428571428571</ele><time>2026-04-26T11:49:05.999Z</time></trkpt><trkpt lat="43.266047268655754" lon="12.870126135604522"><ele>912.5714285714286</ele><time>2026-04-26T11:49:06.999Z</time></trkpt><trkpt lat="43.26601885776637" lon="12.870204246922146"><ele>912.0</ele><time>2026-04-26T11:49:07.999Z</time></trkpt><trkpt lat="43.265985074693546" lon="12.870278569567766"><ele>910.5</ele><time>2026-04-26T11:49:08.999Z</time></trkpt><trkpt lat="43.26596172605327" lon="12.870359187442594"><ele>909.0</ele><time>2026-04-26T11:49:09.999Z</time></trkpt><trkpt lat="43.26606604985062" lon="12.87050632368588"><ele>907.5</ele><time>2026-04-26T11:49:10.999Z</time></trkpt><trkpt lat="43.26609565249676" lon="12.870583585732085"><ele>906.0</ele><time>2026-04-26T11:49:11.999Z</time></trkpt><trkpt lat="43.26614240051711" lon="12.870664737810886"><ele>904.5</ele><time>2026-04-26T11:49:13.999Z</time></trkpt><trkpt lat="43.26619416121215" lon="12.870725224945469"><ele>903.0</ele><time>2026-04-26T11:49:17.999Z</time></trkpt><trkpt lat="43.266260066373846" lon="12.870733494228842"><ele>903.0</ele><time>2026-04-26T11:49:19.999Z</time></trkpt><trkpt lat="43.26632409540618" lon="12.870743307563988"><ele>903.0</ele><time>2026-04-26T11:49:21.999Z</time></trkpt><trkpt lat="43.266394265408046" lon="12.870800898314151"><ele>903.0</ele><time>2026-04-26T11:49:24.999Z</time></trkpt><trkpt lat="43.266356159079336" lon="12.870945194761997"><ele>903.0</ele><time>2026-04-26T11:49:27.001Z</time></trkpt><trkpt lat="43.26632700788015" lon="12.87103735888767"><ele>903.0</ele><time>2026-04-26T11:49:28.001Z</time></trkpt><trkpt lat="43.26630266636095" lon="12.87112123414982"><ele>903.0</ele><time>2026-04-26T11:49:29.001Z</time></trkpt><trkpt lat="43.26626747798401" lon="12.87125308426797"><ele>903.0</ele><time>2026-04-26T11:49:31.001Z</time></trkpt><trkpt lat="43.2662353189652" lon="12.871419508363143"><ele>903.0</ele><time>2026-04-26T11:49:33.001Z</time></trkpt><trkpt lat="43.26622325566134" lon="12.871515784709805"><ele>903.0</ele><time>2026-04-26T11:49:34.001Z</time></trkpt><trkpt lat="43.26619955612766" lon="12.871600866693754"><ele>903.0</ele><time>2026-04-26T11:49:35.001Z</time></trkpt><trkpt lat="43.266197341334426" lon="12.871745771824875"><ele>903.0</ele><time>2026-04-26T11:49:37Z</time></trkpt><trkpt lat="43.26618388815146" lon="12.871853632770893"><ele>903.0</ele><time>2026-04-26T11:49:38Z</time></trkpt><trkpt lat="43.26616026473545" lon="12.871960004742952"><ele>903.0</ele><time>2026-04-26T11:49:39Z</time></trkpt><trkpt lat="43.26613909117658" lon="12.872061660026093"><ele>903.0</ele><time>2026-04-26T11:49:40Z</time></trkpt><trkpt lat="43.26612493877099" lon="12.872148032299348"><ele>903.0</ele><time>2026-04-26T11:49:41Z</time></trkpt><trkpt lat="43.26610931263041" lon="12.872286608766382"><ele>903.0</ele><time>2026-04-26T11:49:43Z</time></trkpt><trkpt lat="43.26605904718523" lon="12.87241248747895"><ele>903.0</ele><time>2026-04-26T11:49:45Z</time></trkpt><trkpt lat="43.266003201311726" lon="12.872553265476263"><ele>903.6666666666666</ele><time>2026-04-26T11:49:47Z</time></trkpt><trkpt lat="43.26597875478064" lon="12.872633956097548"><ele>904.3333333333333</ele><time>2026-04-26T11:49:48Z</time></trkpt><trkpt lat="43.26594753899898" lon="12.87271012642941"><ele>905.0</ele><time>2026-04-26T11:49:49Z</time></trkpt><trkpt lat="43.26590363188183" lon="12.872865760762071"><ele>905.6666666666666</ele><time>2026-04-26T11:49:51Z</time></trkpt><trkpt lat="43.26587304366098" lon="12.873018335433398"><ele>906.3333333333333</ele><time>2026-04-26T11:49:53Z</time></trkpt><trkpt lat="43.265833706484734" lon="12.87309974983183"><ele>907.0</ele><time>2026-04-26T11:49:54Z</time></trkpt><trkpt lat="43.265797485220794" lon="12.873186275959005"><ele>907.0000000000001</ele><time>2026-04-26T11:49:55Z</time></trkpt><trkpt lat="43.26577655865513" lon="12.87326791170864"><ele>907.0</ele><time>2026-04-26T11:49:56Z</time></trkpt><trkpt lat="43.26576267382134" lon="12.873361878691036"><ele>907.0000000000001</ele><time>2026-04-26T11:49:57Z</time></trkpt><trkpt lat="43.26572917715764" lon="12.87345750063144"><ele>907.0000000000001</ele><time>2026-04-26T11:49:58Z</time></trkpt><trkpt lat="43.265686070995194" lon="12.873548895651867"><ele>907.0</ele><time>2026-04-26T11:49:59Z</time></trkpt><trkpt lat="43.26565595323275" lon="12.873642071447579"><ele>907.0000000000001</ele><time>2026-04-26T11:50:00Z</time></trkpt><trkpt lat="43.26562790894566" lon="12.873732604975517"><ele>907.0000000000001</ele><time>2026-04-26T11:50:01Z</time></trkpt><trkpt lat="43.26561226514682" lon="12.873819638398379"><ele>905.9999999999999</ele><time>2026-04-26T11:50:02Z</time></trkpt><trkpt lat="43.26558496934743" lon="12.873966681749344"><ele>905.0</ele><time>2026-04-26T11:50:04Z</time></trkpt><trkpt lat="43.2655662805848" lon="12.87408065683029"><ele>904.0</ele><time>2026-04-26T11:50:06Z</time></trkpt><trkpt lat="43.265519775262646" lon="12.874158755740567"><ele>903.0</ele><time>2026-04-26T11:50:09Z</time></trkpt><trkpt lat="43.26547977932965" lon="12.874230347117429"><ele>901.9999999999999</ele><time>2026-04-26T11:50:11Z</time></trkpt><trkpt lat="43.265442166883275" lon="12.874352821869714"><ele>901.0</ele><time>2026-04-26T11:50:14Z</time></trkpt><trkpt lat="43.26538470339332" lon="12.874455296815611"><ele>901.0</ele><time>2026-04-26T11:50:16Z</time></trkpt><trkpt lat="43.26530947899117" lon="12.87456431811728"><ele>900.9999999999999</ele><time>2026-04-26T11:50:18Z</time></trkpt><trkpt lat="43.26523821254708" lon="12.874681628520072"><ele>900.9999999999999</ele><time>2026-04-26T11:50:20Z</time></trkpt><trkpt lat="43.26516627442368" lon="12.874782982991173"><ele>901.0</ele><time>2026-04-26T11:50:22Z</time></trkpt><trkpt lat="43.26511525181104" lon="12.874896878327515"><ele>901.0</ele><time>2026-04-26T11:50:24Z</time></trkpt><trkpt lat="43.265033412790956" lon="12.875043545437824"><ele>902.9999999999999</ele><time>2026-04-26T11:50:26Z</time></trkpt><trkpt lat="43.2649960505689" lon="12.875113350890903"><ele>905.0</ele><time>2026-04-26T11:50:27Z</time></trkpt><trkpt lat="43.26492860101559" lon="12.875242723694482"><ele>907.0</ele><time>2026-04-26T11:50:29Z</time></trkpt><trkpt lat="43.26488029692388" lon="12.875326007325706"><ele>909.0</ele><time>2026-04-26T11:50:30Z</time></trkpt><trkpt lat="43.2648292916948" lon="12.875417090718644"><ele>910.9999999999999</ele><time>2026-04-26T11:50:31Z</time></trkpt><trkpt lat="43.26477602030083" lon="12.875512457557221"><ele>913.0</ele><time>2026-04-26T11:50:32Z</time></trkpt><trkpt lat="43.26472736591054" lon="12.875613619397566"><ele>910.4999999999999</ele><time>2026-04-26T11:50:33Z</time></trkpt><trkpt lat="43.26469305408663" lon="12.875714207844442"><ele>908.0</ele><time>2026-04-26T11:50:34Z</time></trkpt><trkpt lat="43.26467457368125" lon="12.875823677721538"><ele>905.5</ele><time>2026-04-26T11:50:35Z</time></trkpt><trkpt lat="43.26463933084813" lon="12.875936710875305"><ele>903.0</ele><time>2026-04-26T11:50:36Z</time></trkpt><trkpt lat="43.2646127775787" lon="12.876051619694238"><ele>900.4999999999999</ele><time>2026-04-26T11:50:37Z</time></trkpt><trkpt lat="43.26457732615635" lon="12.876149027169898"><ele>898.0</ele><time>2026-04-26T11:50:38Z</time></trkpt><trkpt lat="43.26455844780246" lon="12.87623927550264"><ele>898.0</ele><time>2026-04-26T11:50:39Z</time></trkpt><trkpt lat="43.26454525855023" lon="12.876328213560175"><ele>897.9999999999999</ele><time>2026-04-26T11:50:40Z</time></trkpt><trkpt lat="43.26452286139949" lon="12.876414547746254"><ele>898.0</ele><time>2026-04-26T11:50:41Z</time></trkpt><trkpt lat="43.26449470085818" lon="12.876504708618326"><ele>898.0</ele><time>2026-04-26T11:50:42Z</time></trkpt><trkpt lat="43.26447548869887" lon="12.876596457960089"><ele>897.9999999999999</ele><time>2026-04-26T11:50:43Z</time></trkpt><trkpt lat="43.26445489041023" lon="12.876686977560079"><ele>898.0</ele><time>2026-04-26T11:50:44Z</time></trkpt><trkpt lat="43.264428902933716" lon="12.876776519561133"><ele>898.0</ele><time>2026-04-26T11:50:45Z</time></trkpt><trkpt lat="43.26440649375961" lon="12.876866561119943"><ele>897.8333333333333</ele><time>2026-04-26T11:50:46Z</time></trkpt><trkpt lat="43.264390474569346" lon="12.876953160188803"><ele>897.6666666666666</ele><time>2026-04-26T11:50:47Z</time></trkpt><trkpt lat="43.2644031251673" lon="12.877115723917239"><ele>897.5</ele><time>2026-04-26T11:50:49Z</time></trkpt><trkpt lat="43.26443770490645" lon="12.877191068850992"><ele>897.3333333333333</ele><time>2026-04-26T11:50:50Z</time></trkpt><trkpt lat="43.26447609048413" lon="12.877269629202868"><ele>897.1666666666666</ele><time>2026-04-26T11:50:51Z</time></trkpt><trkpt lat="43.26452638153427" lon="12.877339437278359"><ele>897.0</ele><time>2026-04-26T11:50:52Z</time></trkpt><trkpt lat="43.26458344207078" lon="12.877406269479254"><ele>897.0</ele><time>2026-04-26T11:50:53Z</time></trkpt><trkpt lat="43.26464411838865" lon="12.877485750493861"><ele>897.0</ele><time>2026-04-26T11:50:54Z</time></trkpt><trkpt lat="43.26471242594367" lon="12.877575372503983"><ele>897.0</ele><time>2026-04-26T11:50:55Z</time></trkpt><trkpt lat="43.26478761900745" lon="12.877658246829412"><ele>897.0</ele><time>2026-04-26T11:50:56Z</time></trkpt><trkpt lat="43.26485771217721" lon="12.877738370423288"><ele>897.0</ele><time>2026-04-26T11:50:57Z</time></trkpt><trkpt lat="43.264923543193596" lon="12.877815382588505"><ele>896.8333333333334</ele><time>2026-04-26T11:50:58Z</time></trkpt><trkpt lat="43.264990116001144" lon="12.877884030863093"><ele>896.6666666666667</ele><time>2026-04-26T11:50:59Z</time></trkpt><trkpt lat="43.26505051680916" lon="12.877960576056307"><ele>896.5</ele><time>2026-04-26T11:51:00Z</time></trkpt><trkpt lat="43.26511153327307" lon="12.878035544061126"><ele>896.3333333333334</ele><time>2026-04-26T11:51:01Z</time></trkpt><trkpt lat="43.26516870038206" lon="12.87811153336402"><ele>896.1666666666667</ele><time>2026-04-26T11:51:02Z</time></trkpt><trkpt lat="43.26522969021483" lon="12.878176274752352"><ele>896.0</ele><time>2026-04-26T11:51:03Z</time></trkpt><trkpt lat="43.26528184113096" lon="12.878235282423912"><ele>896.0</ele><time>2026-04-26T11:51:04Z</time></trkpt><trkpt lat="43.265330206063595" lon="12.878291009624855"><ele>895.9999999999999</ele><time>2026-04-26T11:51:05Z</time></trkpt><trkpt lat="43.26542699403366" lon="12.878353144770717"><ele>895.9999999999999</ele><time>2026-04-26T11:51:07Z</time></trkpt><trkpt lat="43.265502293603994" lon="12.878445440097083"><ele>896.0</ele><time>2026-04-26T11:51:09Z</time></trkpt><trkpt lat="43.265557099100114" lon="12.878499061244012"><ele>896.0</ele><time>2026-04-26T11:51:10Z</time></trkpt><trkpt lat="43.265650059461855" lon="12.87859031960738"><ele>895.5000000000001</ele><time>2026-04-26T11:51:12Z</time></trkpt><trkpt lat="43.26571581211617" lon="12.878715575538186"><ele>895.0</ele><time>2026-04-26T11:51:14Z</time></trkpt><trkpt lat="43.26577374373501" lon="12.878776279315385"><ele>894.5</ele><time>2026-04-26T11:51:15Z</time></trkpt><trkpt lat="43.26583102802654" lon="12.878831241868012"><ele>894.0</ele><time>2026-04-26T11:51:16Z</time></trkpt><trkpt lat="43.26587677132109" lon="12.878893783787296"><ele>893.5000000000001</ele><time>2026-04-26T11:51:17Z</time></trkpt><trkpt lat="43.265948335252354" lon="12.878997850154892"><ele>893.0</ele><time>2026-04-26T11:51:19Z</time></trkpt><trkpt lat="43.266020496157466" lon="12.879085169675818"><ele>893.0</ele><time>2026-04-26T11:51:21Z</time></trkpt><trkpt lat="43.26609933190037" lon="12.879161123641898"><ele>893.0</ele><time>2026-04-26T11:51:23Z</time></trkpt><trkpt lat="43.266173600404386" lon="12.879247580171441"><ele>893.0</ele><time>2026-04-26T11:51:26Z</time></trkpt><trkpt lat="43.26621663707289" lon="12.879334173569458"><ele>893.0</ele><time>2026-04-26T11:51:28Z</time></trkpt><trkpt lat="43.26627345836922" lon="12.879483025323498"><ele>893.0</ele><time>2026-04-26T11:51:30Z</time></trkpt><trkpt lat="43.26633230258665" lon="12.879636937540177"><ele>894.3333333333334</ele><time>2026-04-26T11:51:32Z</time></trkpt><trkpt lat="43.26636449928659" lon="12.87971371670619"><ele>895.6666666666667</ele><time>2026-04-26T11:51:33Z</time></trkpt><trkpt lat="43.26639614020174" lon="12.879790411919826"><ele>897.0</ele><time>2026-04-26T11:51:34Z</time></trkpt><trkpt lat="43.26642585365766" lon="12.87987598053533"><ele>898.3333333333333</ele><time>2026-04-26T11:51:35Z</time></trkpt><trkpt lat="43.26646003748082" lon="12.87996452107196"><ele>899.6666666666666</ele><time>2026-04-26T11:51:36Z</time></trkpt><trkpt lat="43.26649896708426" lon="12.880064923096292"><ele>901.0</ele><time>2026-04-26T11:51:37Z</time></trkpt><trkpt lat="43.26656096799031" lon="12.880168298923072"><ele>897.6666666666666</ele><time>2026-04-26T11:51:38Z</time></trkpt><trkpt lat="43.26661392372685" lon="12.880258889219721"><ele>894.3333333333333</ele><time>2026-04-26T11:51:39Z</time></trkpt><trkpt lat="43.26667046715295" lon="12.880352085692628"><ele>891.0</ele><time>2026-04-26T11:51:40Z</time></trkpt><trkpt lat="43.26672981397384" lon="12.880443629820522"><ele>887.6666666666667</ele><time>2026-04-26T11:51:41Z</time></trkpt><trkpt lat="43.26678827800021" lon="12.880535949135021"><ele>884.3333333333334</ele><time>2026-04-26T11:51:42Z</time></trkpt><trkpt lat="43.266846012144" lon="12.880619962150318"><ele>881.0</ele><time>2026-04-26T11:51:43Z</time></trkpt><trkpt lat="43.2669057292384" lon="12.880688210466541"><ele>881.0</ele><time>2026-04-26T11:51:44Z</time></trkpt><trkpt lat="43.266964021292885" lon="12.880745936793684"><ele>881.0</ele><time>2026-04-26T11:51:45Z</time></trkpt><trkpt lat="43.267015582048835" lon="12.88080611137222"><ele>881.0</ele><time>2026-04-26T11:51:46Z</time></trkpt><trkpt lat="43.26706262488302" lon="12.880867279391413"><ele>881.0</ele><time>2026-04-26T11:51:47Z</time></trkpt><trkpt lat="43.267112361961736" lon="12.880926352511853"><ele>881.0</ele><time>2026-04-26T11:51:48Z</time></trkpt><trkpt lat="43.267167413495365" lon="12.880990961261139"><ele>881.0</ele><time>2026-04-26T11:51:49Z</time></trkpt><trkpt lat="43.267230807683745" lon="12.881053535542225"><ele>881.0</ele><time>2026-04-26T11:51:50Z</time></trkpt><trkpt lat="43.26729408768566" lon="12.881125761800712"><ele>880.8</ele><time>2026-04-26T11:51:51Z</time></trkpt><trkpt lat="43.26735498246446" lon="12.881214013881204"><ele>880.5999999999999</ele><time>2026-04-26T11:51:52Z</time></trkpt><trkpt lat="43.26742335332568" lon="12.881297545798056"><ele>880.4</ele><time>2026-04-26T11:51:53Z</time></trkpt><trkpt lat="43.26749310385108" lon="12.88139434397949"><ele>880.2</ele><time>2026-04-26T11:51:54Z</time></trkpt><trkpt lat="43.26757080554718" lon="12.881492612347376"><ele>880.0</ele><time>2026-04-26T11:51:55Z</time></trkpt><trkpt lat="43.26763840100064" lon="12.881604465029524"><ele>880.0</ele><time>2026-04-26T11:51:56Z</time></trkpt><trkpt lat="43.267718393974555" lon="12.881709910012239"><ele>880.0</ele><time>2026-04-26T11:51:57Z</time></trkpt><trkpt lat="43.267791922293554" lon="12.88181773195983"><ele>880.0</ele><time>2026-04-26T11:51:58Z</time></trkpt><trkpt lat="43.26786310557966" lon="12.881917191601122"><ele>880.0</ele><time>2026-04-26T11:51:59Z</time></trkpt><trkpt lat="43.2679279031543" lon="12.882011399822122"><ele>880.0</ele><time>2026-04-26T11:52:00Z</time></trkpt><trkpt lat="43.26799194219578" lon="12.882104609277697"><ele>880.4999999999999</ele><time>2026-04-26T11:52:01Z</time></trkpt><trkpt lat="43.26805330243847" lon="12.882190147698228"><ele>881.0</ele><time>2026-04-26T11:52:02Z</time></trkpt><trkpt lat="43.2681069846699" lon="12.882271824592348"><ele>881.5</ele><time>2026-04-26T11:52:03Z</time></trkpt><trkpt lat="43.26816916524238" lon="12.882346913864005"><ele>882.0</ele><time>2026-04-26T11:52:04Z</time></trkpt><trkpt lat="43.268232356875615" lon="12.882430966264234"><ele>882.4999999999999</ele><time>2026-04-26T11:52:05Z</time></trkpt><trkpt lat="43.268289815037875" lon="12.88253257691515"><ele>883.0</ele><time>2026-04-26T11:52:06Z</time></trkpt><trkpt lat="43.26834432180035" lon="12.882631319407663"><ele>881.2</ele><time>2026-04-26T11:52:07Z</time></trkpt><trkpt lat="43.26840331370449" lon="12.88273000922357"><ele>879.4</ele><time>2026-04-26T11:52:08Z</time></trkpt><trkpt lat="43.26846114652528" lon="12.882830248732873"><ele>877.6000000000001</ele><time>2026-04-26T11:52:09Z</time></trkpt><trkpt lat="43.26851663273693" lon="12.882930519260741"><ele>875.8000000000001</ele><time>2026-04-26T11:52:10Z</time></trkpt><trkpt lat="43.26858006253627" lon="12.883018766872883"><ele>874.0</ele><time>2026-04-26T11:52:11Z</time></trkpt><trkpt lat="43.26863885696663" lon="12.883098081758527"><ele>873.9999999999999</ele><time>2026-04-26T11:52:12Z</time></trkpt><trkpt lat="43.26869932218481" lon="12.883164222286885"><ele>874.0</ele><time>2026-04-26T11:52:13Z</time></trkpt><trkpt lat="43.268765995664005" lon="12.883213756363144"><ele>874.0</ele><time>2026-04-26T11:52:14Z</time></trkpt><trkpt lat="43.26883845652417" lon="12.883239771941321"><ele>874.0</ele><time>2026-04-26T11:52:15Z</time></trkpt><trkpt lat="43.26891897128573" lon="12.883258435568173"><ele>873.9999999999999</ele><time>2026-04-26T11:52:16Z</time></trkpt><trkpt lat="43.26899499030546" lon="12.883282141412712"><ele>874.0</ele><time>2026-04-26T11:52:16.999Z</time></trkpt><trkpt lat="43.26906449758315" lon="12.883331668526088"><ele>874.1666666666666</ele><time>2026-04-26T11:52:17.999Z</time></trkpt><trkpt lat="43.26912541518879" lon="12.883396077972714"><ele>874.3333333333333</ele><time>2026-04-26T11:52:18.999Z</time></trkpt><trkpt lat="43.26918001116534" lon="12.8834541249801"><ele>874.5</ele><time>2026-04-26T11:52:19.999Z</time></trkpt><trkpt lat="43.26923479510666" lon="12.88350688805981"><ele>874.6666666666667</ele><time>2026-04-26T11:52:20.999Z</time></trkpt><trkpt lat="43.269309076329904" lon="12.883632889572311"><ele>874.8333333333334</ele><time>2026-04-26T11:52:22.999Z</time></trkpt><trkpt lat="43.26937046435538" lon="12.883706642253347"><ele>875.0</ele><time>2026-04-26T11:52:24.999Z</time></trkpt><trkpt lat="43.26940038383899" lon="12.88384211113077"><ele>875.0000000000001</ele><time>2026-04-26T11:52:48.999Z</time></trkpt><trkpt lat="43.26934557190647" lon="12.88389728857981"><ele>875.0</ele><time>2026-04-26T11:52:50.999Z</time></trkpt><trkpt lat="43.26927764109884" lon="12.88393702014985"><ele>875.0</ele><time>2026-04-26T11:52:51.999Z</time></trkpt><trkpt lat="43.26915973072314" lon="12.883996526583273"><ele>875.0</ele><time>2026-04-26T11:52:53.999Z</time></trkpt><trkpt lat="43.269106057767374" lon="12.884056445661976"><ele>875.0000000000001</ele><time>2026-04-26T11:52:54.999Z</time></trkpt><trkpt lat="43.26905093852156" lon="12.88411675109109"><ele>875.0</ele><time>2026-04-26T11:52:55.999Z</time></trkpt><trkpt lat="43.26899643275779" lon="12.884178378283567"><ele>875.0000000000001</ele><time>2026-04-26T11:52:56.999Z</time></trkpt><trkpt lat="43.268944073892555" lon="12.884234782649154"><ele>875.0</ele><time>2026-04-26T11:52:57.999Z</time></trkpt><trkpt lat="43.268891271813224" lon="12.884285402746322"><ele>875.0</ele><time>2026-04-26T11:52:58.999Z</time></trkpt><trkpt lat="43.26876325047437" lon="12.88435179251298"><ele>875.0</ele><time>2026-04-26T11:53:00.999Z</time></trkpt><trkpt lat="43.26868259834691" lon="12.884394465127654"><ele>875.0000000000001</ele><time>2026-04-26T11:53:01.999Z</time></trkpt><trkpt lat="43.26859945629838" lon="12.884456316266489"><ele>875.0</ele><time>2026-04-26T11:53:02.999Z</time></trkpt><trkpt lat="43.26852229757955" lon="12.884533023171246"><ele>877.6</ele><time>2026-04-26T11:53:03.999Z</time></trkpt><trkpt lat="43.26843909794514" lon="12.884594936194691"><ele>880.2</ele><time>2026-04-26T11:53:04.999Z</time></trkpt><trkpt lat="43.26835312030199" lon="12.884642297384453"><ele>882.8</ele><time>2026-04-26T11:53:05.999Z</time></trkpt><trkpt lat="43.2682718370951" lon="12.884692530366973"><ele>885.4</ele><time>2026-04-26T11:53:06.999Z</time></trkpt><trkpt lat="43.268189136028674" lon="12.884744970273445"><ele>888.0</ele><time>2026-04-26T11:53:07.999Z</time></trkpt><trkpt lat="43.268098529089556" lon="12.884792562952002"><ele>890.5999999999999</ele><time>2026-04-26T11:53:08.999Z</time></trkpt><trkpt lat="43.26800762293435" lon="12.884841639339593"><ele>893.1999999999999</ele><time>2026-04-26T11:53:09.999Z</time></trkpt><trkpt lat="43.26791654906764" lon="12.884881058986094"><ele>895.8</ele><time>2026-04-26T11:53:10.999Z</time></trkpt><trkpt lat="43.26783008960554" lon="12.884925681218096"><ele>898.4</ele><time>2026-04-26T11:53:11.999Z</time></trkpt><trkpt lat="43.267738307773776" lon="12.884957362751443"><ele>901.0</ele><time>2026-04-26T11:53:12.999Z</time></trkpt><trkpt lat="43.26763590030461" lon="12.884983466411892"><ele>901.0</ele><time>2026-04-26T11:53:13.999Z</time></trkpt><trkpt lat="43.26753129911986" lon="12.885022074069486"><ele>900.9999999999999</ele><time>2026-04-26T11:53:14.999Z</time></trkpt><trkpt lat="43.26742499040682" lon="12.88505596699011"><ele>900.9999999999999</ele><time>2026-04-26T11:53:15.999Z</time></trkpt><trkpt lat="43.26732892343678" lon="12.885096442616216"><ele>901.0</ele><time>2026-04-26T11:53:16.999Z</time></trkpt><trkpt lat="43.26725024176632" lon="12.885134601201974"><ele>901.0</ele><time>2026-04-26T11:53:17.999Z</time></trkpt><trkpt lat="43.26718824473359" lon="12.885169600744181"><ele>903.3333333333333</ele><time>2026-04-26T11:53:18.999Z</time></trkpt><trkpt lat="43.26707266723726" lon="12.885192867062266"><ele>905.6666666666666</ele><time>2026-04-26T11:53:20.999Z</time></trkpt><trkpt lat="43.2669990160298" lon="12.88519763312907"><ele>908.0</ele><time>2026-04-26T11:53:21.999Z</time></trkpt><trkpt lat="43.266921863335355" lon="12.885205386917711"><ele>910.3333333333333</ele><time>2026-04-26T11:53:22.999Z</time></trkpt><trkpt lat="43.26684037752773" lon="12.885208484017168"><ele>912.6666666666666</ele><time>2026-04-26T11:53:23.999Z</time></trkpt><trkpt lat="43.266749968963914" lon="12.885211728532298"><ele>915.0</ele><time>2026-04-26T11:53:24.999Z</time></trkpt><trkpt lat="43.26666075199772" lon="12.88522742637428"><ele>915.0</ele><time>2026-04-26T11:53:25.999Z</time></trkpt><trkpt lat="43.266578274474064" lon="12.885235553412699"><ele>915.0</ele><time>2026-04-26T11:53:26.999Z</time></trkpt><trkpt lat="43.2664942994815" lon="12.885271181514508"><ele>915.0</ele><time>2026-04-26T11:53:27.999Z</time></trkpt><trkpt lat="43.2664072938914" lon="12.885336232039169"><ele>915.0</ele><time>2026-04-26T11:53:28.999Z</time></trkpt><trkpt lat="43.26630449468072" lon="12.885405486452457"><ele>915.0</ele><time>2026-04-26T11:53:29.999Z</time></trkpt><trkpt lat="43.26619707337502" lon="12.88548273879658"><ele>916.1666666666666</ele><time>2026-04-26T11:53:30.999Z</time></trkpt><trkpt lat="43.26610016613774" lon="12.885555271532608"><ele>917.3333333333333</ele><time>2026-04-26T11:53:31.999Z</time></trkpt><trkpt lat="43.26602407918736" lon="12.885620605549983"><ele>918.5</ele><time>2026-04-26T11:53:32.999Z</time></trkpt><trkpt lat="43.2659676898839" lon="12.88569117185957"><ele>919.6666666666666</ele><time>2026-04-26T11:53:33.999Z</time></trkpt><trkpt lat="43.26592929249855" lon="12.885784875992128"><ele>920.8333333333333</ele><time>2026-04-26T11:53:34.999Z</time></trkpt><trkpt lat="43.265939787660955" lon="12.885902386661233"><ele>922.0</ele><time>2026-04-26T11:53:35.999Z</time></trkpt><trkpt lat="43.26596401556669" lon="12.886030414257704"><ele>921.9999999999999</ele><time>2026-04-26T11:53:36.999Z</time></trkpt><trkpt lat="43.26597883439714" lon="12.886171848403627"><ele>922.0</ele><time>2026-04-26T11:53:37.999Z</time></trkpt><trkpt lat="43.26598859961254" lon="12.886301447596704"><ele>922.0</ele><time>2026-04-26T11:53:38.999Z</time></trkpt><trkpt lat="43.266008835000605" lon="12.88641518239705"><ele>922.0</ele><time>2026-04-26T11:53:39.999Z</time></trkpt><trkpt lat="43.26602610731138" lon="12.886517186992284"><ele>921.9999999999999</ele><time>2026-04-26T11:53:40.999Z</time></trkpt><trkpt lat="43.26604439720612" lon="12.886619765251593"><ele>922.0</ele><time>2026-04-26T11:53:41.999Z</time></trkpt><trkpt lat="43.26606062805303" lon="12.886717929189293"><ele>921.4999999999999</ele><time>2026-04-26T11:53:42.999Z</time></trkpt><trkpt lat="43.26607923223869" lon="12.886818458335114"><ele>921.0</ele><time>2026-04-26T11:53:43.999Z</time></trkpt><trkpt lat="43.26610127166002" lon="12.88692769448985"><ele>920.5</ele><time>2026-04-26T11:53:44.999Z</time></trkpt><trkpt lat="43.266129914153666" lon="12.887038332389595"><ele>920.0</ele><time>2026-04-26T11:53:45.999Z</time></trkpt><trkpt lat="43.26616063597807" lon="12.887141729136186"><ele>919.4999999999999</ele><time>2026-04-26T11:53:46.999Z</time></trkpt><trkpt lat="43.26619385373423" lon="12.887239881426591"><ele>919.0</ele><time>2026-04-26T11:53:47.999Z</time></trkpt><trkpt lat="43.26622263074861" lon="12.88734138197555"><ele>918.9999999999999</ele><time>2026-04-26T11:53:48.999Z</time></trkpt><trkpt lat="43.26625057527013" lon="12.887440354212277"><ele>919.0</ele><time>2026-04-26T11:53:49.999Z</time></trkpt><trkpt lat="43.2662607538328" lon="12.887546370574432"><ele>919.0</ele><time>2026-04-26T11:53:50.999Z</time></trkpt><trkpt lat="43.26625130863773" lon="12.887649651771284"><ele>919.0</ele><time>2026-04-26T11:53:51.999Z</time></trkpt><trkpt lat="43.26625015338749" lon="12.887755551182714"><ele>918.9999999999999</ele><time>2026-04-26T11:53:52.999Z</time></trkpt><trkpt lat="43.26624707332925" lon="12.887865260490836"><ele>919.0</ele><time>2026-04-26T11:53:53.999Z</time></trkpt><trkpt lat="43.26624687422193" lon="12.887973012136587"><ele>918.1428571428571</ele><time>2026-04-26T11:53:54.999Z</time></trkpt><trkpt lat="43.266248542381504" lon="12.88808393926263"><ele>917.2857142857142</ele><time>2026-04-26T11:53:55.999Z</time></trkpt><trkpt lat="43.2662433458897" lon="12.888187310964836"><ele>916.4285714285713</ele><time>2026-04-26T11:53:56.999Z</time></trkpt><trkpt lat="43.26622757781469" lon="12.888283130750507"><ele>915.5714285714284</ele><time>2026-04-26T11:53:57.999Z</time></trkpt><trkpt lat="43.26620144941718" lon="12.888375457724482"><ele>914.7142857142857</ele><time>2026-04-26T11:53:58.999Z</time></trkpt><trkpt lat="43.26617277692544" lon="12.88846552002639"><ele>913.8571428571427</ele><time>2026-04-26T11:53:59.999Z</time></trkpt><trkpt lat="43.266146218726334" lon="12.888552837886332"><ele>912.9999999999999</ele><time>2026-04-26T11:54:00.999Z</time></trkpt><trkpt lat="43.26612017983153" lon="12.888696854825206"><ele>910.4</ele><time>2026-04-26T11:54:02.999Z</time></trkpt><trkpt lat="43.26610256482732" lon="12.888825847701979"><ele>907.8</ele><time>2026-04-26T11:54:04.999Z</time></trkpt><trkpt lat="43.266070842374674" lon="12.888936007981053"><ele>905.2</ele><time>2026-04-26T11:54:06.999Z</time></trkpt><trkpt lat="43.266011451377935" lon="12.889032470957952"><ele>902.6</ele><time>2026-04-26T11:54:08.999Z</time></trkpt><trkpt lat="43.26596075399851" lon="12.889132190882735"><ele>900.0</ele><time>2026-04-26T11:54:10.999Z</time></trkpt><trkpt lat="43.26590436057625" lon="12.889226320731368"><ele>896.5</ele><time>2026-04-26T11:54:12.999Z</time></trkpt><trkpt lat="43.26585027424103" lon="12.889309485256545"><ele>893.0</ele><time>2026-04-26T11:54:14.999Z</time></trkpt><trkpt lat="43.265797958856574" lon="12.88939355998981"><ele>889.5</ele><time>2026-04-26T11:54:16.999Z</time></trkpt><trkpt lat="43.26574680448911" lon="12.889473553745686"><ele>886.0</ele><time>2026-04-26T11:54:18.999Z</time></trkpt><trkpt lat="43.265714324979875" lon="12.889559059863078"><ele>882.5</ele><time>2026-04-26T11:54:20.999Z</time></trkpt><trkpt lat="43.26567109633078" lon="12.889669052993069"><ele>879.0</ele><time>2026-04-26T11:54:22.999Z</time></trkpt><trkpt lat="43.265617451806904" lon="12.889822275722999"><ele>877.6</ele><time>2026-04-26T11:54:24.999Z</time></trkpt><trkpt lat="43.26555348571917" lon="12.889953408628685"><ele>876.2</ele><time>2026-04-26T11:54:26.999Z</time></trkpt><trkpt lat="43.26549752604782" lon="12.89006553776466"><ele>874.8000000000001</ele><time>2026-04-26T11:54:28.999Z</time></trkpt><trkpt lat="43.265437838877716" lon="12.890180461332063"><ele>873.4000000000001</ele><time>2026-04-26T11:54:30.999Z</time></trkpt><trkpt lat="43.26540566337531" lon="12.890261620728147"><ele>872.0</ele><time>2026-04-26T11:54:32.999Z</time></trkpt><trkpt lat="43.26537400358884" lon="12.890345099276388"><ele>868.6</ele><time>2026-04-26T11:54:34.999Z</time></trkpt><trkpt lat="43.2653478050442" lon="12.890468723597529"><ele>865.2</ele><time>2026-04-26T11:54:36.999Z</time></trkpt><trkpt lat="43.26534332096922" lon="12.890609438258767"><ele>861.8</ele><time>2026-04-26T11:54:38.999Z</time></trkpt><trkpt lat="43.26540517810644" lon="12.890698793659062"><ele>858.4</ele><time>2026-04-26T11:54:40.999Z</time></trkpt><trkpt lat="43.26544046267265" lon="12.890800478386016"><ele>855.0</ele><time>2026-04-26T11:54:42.999Z</time></trkpt><trkpt lat="43.26548097683464" lon="12.890902739595438"><ele>849.5</ele><time>2026-04-26T11:54:44.999Z</time></trkpt><trkpt lat="43.26553402791811" lon="12.890949363527245"><ele>844.0</ele><time>2026-04-26T11:54:46.999Z</time></trkpt><trkpt lat="43.26559068076817" lon="12.89104851926786"><ele>838.5</ele><time>2026-04-26T11:54:49.999Z</time></trkpt><trkpt lat="43.265640555289735" lon="12.891129356450179"><ele>833.0</ele><time>2026-04-26T11:54:51.998Z</time></trkpt><trkpt lat="43.26572620398722" lon="12.89119550162089"><ele>827.5</ele><time>2026-04-26T11:54:53.998Z</time></trkpt><trkpt lat="43.26578254243854" lon="12.891251762771562"><ele>822.0</ele><time>2026-04-26T11:54:57.998Z</time></trkpt><trkpt lat="43.2657931712654" lon="12.891348837371646"><ele>822.0</ele><time>2026-04-26T11:55:00.998Z</time></trkpt><trkpt lat="43.26580152307874" lon="12.891481596489275"><ele>822.0</ele><time>2026-04-26T11:55:03.998Z</time></trkpt><trkpt lat="43.2658239985641" lon="12.891591456249495"><ele>822.0</ele><time>2026-04-26T11:55:05.998Z</time></trkpt><trkpt lat="43.26584220170964" lon="12.89167968610337"><ele>822.0</ele><time>2026-04-26T11:55:07.998Z</time></trkpt><trkpt lat="43.265882964662865" lon="12.891788893087417"><ele>822.0</ele><time>2026-04-26T11:55:09.998Z</time></trkpt><trkpt lat="43.26593038518142" lon="12.891922454898774"><ele>822.0</ele><time>2026-04-26T11:55:11.998Z</time></trkpt><trkpt lat="43.26593575769314" lon="12.892059796112303"><ele>818.1666666666666</ele><time>2026-04-26T11:55:13.998Z</time></trkpt><trkpt lat="43.26591313550511" lon="12.892147253950844"><ele>814.3333333333333</ele><time>2026-04-26T11:55:14.998Z</time></trkpt><trkpt lat="43.26589882530658" lon="12.892248245579381"><ele>810.5</ele><time>2026-04-26T11:55:15.998Z</time></trkpt><trkpt lat="43.26588798299719" lon="12.892346006925695"><ele>806.6666666666666</ele><time>2026-04-26T11:55:16.998Z</time></trkpt><trkpt lat="43.26589491597105" lon="12.892482031165647"><ele>802.8333333333333</ele><time>2026-04-26T11:55:18.998Z</time></trkpt><trkpt lat="43.265913073166026" lon="12.892593314928668"><ele>799.0</ele><time>2026-04-26T11:55:20.998Z</time></trkpt><trkpt lat="43.26587104054787" lon="12.892668792493971"><ele>798.2</ele><time>2026-04-26T11:55:23.998Z</time></trkpt><trkpt lat="43.26582716084647" lon="12.892761040877886"><ele>797.4000000000001</ele><time>2026-04-26T11:55:25.998Z</time></trkpt><trkpt lat="43.265753954045955" lon="12.892843122498427"><ele>796.6</ele><time>2026-04-26T11:55:27.998Z</time></trkpt><trkpt lat="43.265697280398044" lon="12.892897760320741"><ele>795.8</ele><time>2026-04-26T11:55:28.998Z</time></trkpt><trkpt lat="43.26559019641403" lon="12.892964867005949"><ele>795.0</ele><time>2026-04-26T11:55:30.998Z</time></trkpt><trkpt lat="43.26547798423877" lon="12.893012810043755"><ele>793.2</ele><time>2026-04-26T11:55:32.998Z</time></trkpt><trkpt lat="43.265378886593645" lon="12.893068907597252"><ele>791.4</ele><time>2026-04-26T11:55:34.998Z</time></trkpt><trkpt lat="43.26530507763753" lon="12.893131450421299"><ele>789.5999999999999</ele><time>2026-04-26T11:55:36.998Z</time></trkpt><trkpt lat="43.26521904471237" lon="12.89323193969276"><ele>787.8</ele><time>2026-04-26T11:55:38.998Z</time></trkpt><trkpt lat="43.26514494832491" lon="12.89330277461604"><ele>786.0</ele><time>2026-04-26T11:55:40.998Z</time></trkpt><trkpt lat="43.26511883211306" lon="12.893417424980669"><ele>786.4</ele><time>2026-04-26T11:55:43.998Z</time></trkpt><trkpt lat="43.26509001144134" lon="12.893519703816365"><ele>786.8</ele><time>2026-04-26T11:55:45.998Z</time></trkpt><trkpt lat="43.265004775615886" lon="12.89366458588983"><ele>787.1999999999999</ele><time>2026-04-26T11:55:47.998Z</time></trkpt><trkpt lat="43.26494233487601" lon="12.893691869145924"><ele>787.5999999999999</ele><time>2026-04-26T11:55:48.998Z</time></trkpt><trkpt lat="43.26484015686718" lon="12.89374965029102"><ele>788.0</ele><time>2026-04-26T11:55:50.998Z</time></trkpt><trkpt lat="43.26479539217483" lon="12.89381940357221"><ele>787.8</ele><time>2026-04-26T11:55:51.998Z</time></trkpt><trkpt lat="43.264744458458395" lon="12.893896495171537"><ele>787.5999999999999</ele><time>2026-04-26T11:55:52.998Z</time></trkpt><trkpt lat="43.2646658859885" lon="12.893977688590399"><ele>787.4000000000001</ele><time>2026-04-26T11:55:54.998Z</time></trkpt><trkpt lat="43.26460776701421" lon="12.894105736944665"><ele>787.2</ele><time>2026-04-26T11:55:56.998Z</time></trkpt><trkpt lat="43.26457611224128" lon="12.894284607616012"><ele>787.0</ele><time>2026-04-26T11:55:58.998Z</time></trkpt><trkpt lat="43.26457837881388" lon="12.894407349708601"><ele>787.0</ele><time>2026-04-26T11:55:59.998Z</time></trkpt><trkpt lat="43.26455487126697" lon="12.894514029440472"><ele>787.0</ele><time>2026-04-26T11:56:00.998Z</time></trkpt><trkpt lat="43.26450978389869" lon="12.894640224487857"><ele>787.0</ele><time>2026-04-26T11:56:02.998Z</time></trkpt><trkpt lat="43.264427629957346" lon="12.894775147457695"><ele>787.0</ele><time>2026-04-26T11:56:04.998Z</time></trkpt><trkpt lat="43.26436991956895" lon="12.894895609793043"><ele>787.0</ele><time>2026-04-26T11:56:06.998Z</time></trkpt><trkpt lat="43.26435005889675" lon="12.894982484689706"><ele>786.9999999999999</ele><time>2026-04-26T11:56:08.998Z</time></trkpt><trkpt lat="43.26431943175971" lon="12.895077874012514"><ele>787.0</ele><time>2026-04-26T11:56:10.998Z</time></trkpt><trkpt lat="43.26430962393394" lon="12.895186783818557"><ele>787.0</ele><time>2026-04-26T11:56:12.998Z</time></trkpt><trkpt lat="43.264282433435895" lon="12.89529418853022"><ele>787.0</ele><time>2026-04-26T11:56:15.998Z</time></trkpt><trkpt lat="43.264231702468315" lon="12.895381453484747"><ele>786.9999999999999</ele><time>2026-04-26T11:56:17.998Z</time></trkpt><trkpt lat="43.26416508233717" lon="12.89549990143543"><ele>787.0</ele><time>2026-04-26T11:56:19.998Z</time></trkpt><trkpt lat="43.26409839325441" lon="12.895638099738958"><ele>786.6</ele><time>2026-04-26T11:56:21.998Z</time></trkpt><trkpt lat="43.26407002516052" lon="12.895728240446928"><ele>786.2</ele><time>2026-04-26T11:56:22.998Z</time></trkpt><trkpt lat="43.26402543297068" lon="12.89582849980781"><ele>785.8</ele><time>2026-04-26T11:56:23.998Z</time></trkpt><trkpt lat="43.26396908255979" lon="12.895981591074147"><ele>785.4</ele><time>2026-04-26T11:56:24.998Z</time></trkpt><trkpt lat="43.263920788357346" lon="12.896106561474832"><ele>785.0</ele><time>2026-04-26T11:56:25.998Z</time></trkpt><trkpt lat="43.26386506191729" lon="12.896162117627487"><ele>789.4</ele><time>2026-04-26T11:56:26.998Z</time></trkpt><trkpt lat="43.26377242737864" lon="12.896277969596609"><ele>793.8</ele><time>2026-04-26T11:56:28.998Z</time></trkpt><trkpt lat="43.26371886406719" lon="12.896347141642092"><ele>798.2</ele><time>2026-04-26T11:56:29.998Z</time></trkpt><trkpt lat="43.263671499301786" lon="12.89643933655933"><ele>802.6</ele><time>2026-04-26T11:56:30.998Z</time></trkpt><trkpt lat="43.263621497533634" lon="12.89654790482542"><ele>807.0</ele><time>2026-04-26T11:56:32Z</time></trkpt><trkpt lat="43.26358311909786" lon="12.896668533350365"><ele>806.8333333333334</ele><time>2026-04-26T11:56:33Z</time></trkpt><trkpt lat="43.26355546999708" lon="12.896781778666478"><ele>806.6666666666667</ele><time>2026-04-26T11:56:34Z</time></trkpt><trkpt lat="43.26351903547131" lon="12.896883938869466"><ele>806.5</ele><time>2026-04-26T11:56:35Z</time></trkpt><trkpt lat="43.26347671864328" lon="12.896978894099854"><ele>806.3333333333334</ele><time>2026-04-26T11:56:36Z</time></trkpt><trkpt lat="43.2634510857075" lon="12.897081815972633"><ele>806.1666666666667</ele><time>2026-04-26T11:56:37Z</time></trkpt><trkpt lat="43.263423872019374" lon="12.897181148763645"><ele>806.0</ele><time>2026-04-26T11:56:38Z</time></trkpt><trkpt lat="43.26339367002227" lon="12.897294715555699"><ele>806.0000000000001</ele><time>2026-04-26T11:56:39Z</time></trkpt><trkpt lat="43.26337470330791" lon="12.89741532069941"><ele>806.0</ele><time>2026-04-26T11:56:40Z</time></trkpt><trkpt lat="43.26335382297006" lon="12.897510146154726"><ele>806.0</ele><time>2026-04-26T11:56:41Z</time></trkpt><trkpt lat="43.263336381817176" lon="12.897601573802952"><ele>806.0</ele><time>2026-04-26T11:56:42Z</time></trkpt><trkpt lat="43.26330471371094" lon="12.897691787634358"><ele>806.0000000000001</ele><time>2026-04-26T11:56:43Z</time></trkpt><trkpt lat="43.26325098043973" lon="12.897783289850071"><ele>806.0</ele><time>2026-04-26T11:56:44Z</time></trkpt><trkpt lat="43.263195501720595" lon="12.897881244235338"><ele>807.0000000000001</ele><time>2026-04-26T11:56:45Z</time></trkpt><trkpt lat="43.26314953573389" lon="12.897985594786274"><ele>808.0</ele><time>2026-04-26T11:56:46Z</time></trkpt><trkpt lat="43.26311216375765" lon="12.898072007563451"><ele>809.0</ele><time>2026-04-26T11:56:47Z</time></trkpt><trkpt lat="43.263073703891486" lon="12.898140896232475"><ele>810.0</ele><time>2026-04-26T11:56:48Z</time></trkpt><trkpt lat="43.26302493161572" lon="12.898255726920853"><ele>811.0000000000001</ele><time>2026-04-26T11:56:50Z</time></trkpt><trkpt lat="43.26295305992158" lon="12.898366087186146"><ele>812.0</ele><time>2026-04-26T11:56:52Z</time></trkpt><trkpt lat="43.26289575171145" lon="12.898421540318797"><ele>812.5000000000001</ele><time>2026-04-26T11:56:53Z</time></trkpt><trkpt lat="43.262834881392955" lon="12.89848928244401"><ele>813.0</ele><time>2026-04-26T11:56:54Z</time></trkpt><trkpt lat="43.26277917866275" lon="12.898541209878736"><ele>813.5</ele><time>2026-04-26T11:56:55Z</time></trkpt><trkpt lat="43.262702589092555" lon="12.89861207689261"><ele>814.0</ele><time>2026-04-26T11:56:56Z</time></trkpt><trkpt lat="43.262629924187245" lon="12.898712746550153"><ele>814.5000000000001</ele><time>2026-04-26T11:56:57Z</time></trkpt><trkpt lat="43.26256193049566" lon="12.89879424280235"><ele>815.0</ele><time>2026-04-26T11:56:58Z</time></trkpt><trkpt lat="43.262514452032065" lon="12.89886280877477"><ele>815.0000000000001</ele><time>2026-04-26T11:56:59Z</time></trkpt><trkpt lat="43.26241697022889" lon="12.898962765173296"><ele>815.0</ele><time>2026-04-26T11:57:01Z</time></trkpt><trkpt lat="43.26235430081658" lon="12.89900949080484"><ele>815.0</ele><time>2026-04-26T11:57:02Z</time></trkpt><trkpt lat="43.26228847032605" lon="12.899072308673277"><ele>815.0</ele><time>2026-04-26T11:57:03Z</time></trkpt><trkpt lat="43.262241212970366" lon="12.899161419293847"><ele>815.0000000000001</ele><time>2026-04-26T11:57:04Z</time></trkpt><trkpt lat="43.262207849624424" lon="12.899269990881525"><ele>815.0</ele><time>2026-04-26T11:57:05Z</time></trkpt><trkpt lat="43.262168559088664" lon="12.899362978752755"><ele>816.6666666666667</ele><time>2026-04-26T11:57:06Z</time></trkpt><trkpt lat="43.26212761009083" lon="12.899432524940652"><ele>818.3333333333334</ele><time>2026-04-26T11:57:07Z</time></trkpt><trkpt lat="43.262091726197795" lon="12.899519849173481"><ele>820.0</ele><time>2026-04-26T11:57:08Z</time></trkpt><trkpt lat="43.262058437818524" lon="12.899616941220629"><ele>821.6666666666667</ele><time>2026-04-26T11:57:09Z</time></trkpt><trkpt lat="43.262022708596724" lon="12.89969663117055"><ele>823.3333333333334</ele><time>2026-04-26T11:57:10Z</time></trkpt><trkpt lat="43.26199396208623" lon="12.899782747754326"><ele>825.0</ele><time>2026-04-26T11:57:11Z</time></trkpt><trkpt lat="43.261965116050746" lon="12.899947034554035"><ele>823.3333333333334</ele><time>2026-04-26T11:57:13Z</time></trkpt><trkpt lat="43.26197135000628" lon="12.90010743552712"><ele>821.6666666666667</ele><time>2026-04-26T11:57:15Z</time></trkpt><trkpt lat="43.261980734228054" lon="12.90022602558432"><ele>820.0</ele><time>2026-04-26T11:57:17Z</time></trkpt><trkpt lat="43.26203126076906" lon="12.90029948067422"><ele>818.3333333333334</ele><time>2026-04-26T11:57:19Z</time></trkpt><trkpt lat="43.2621006774804" lon="12.900338868625443"><ele>816.6666666666667</ele><time>2026-04-26T11:57:21Z</time></trkpt><trkpt lat="43.26214685586396" lon="12.900427050316864"><ele>815.0</ele><time>2026-04-26T11:57:23Z</time></trkpt><trkpt lat="43.26217259954647" lon="12.900536373020516"><ele>815.0000000000001</ele><time>2026-04-26T11:57:25Z</time></trkpt><trkpt lat="43.262224480437645" lon="12.900589254405284"><ele>815.0</ele><time>2026-04-26T11:57:27Z</time></trkpt><trkpt lat="43.26231315906997" lon="12.900699844978627"><ele>815.0</ele><time>2026-04-26T11:57:29Z</time></trkpt><trkpt lat="43.262364837320256" lon="12.900767593425766"><ele>815.0</ele><time>2026-04-26T11:57:30Z</time></trkpt><trkpt lat="43.2624205674833" lon="12.900815776905102"><ele>815.0000000000001</ele><time>2026-04-26T11:57:31Z</time></trkpt><trkpt lat="43.262524597292035" lon="12.900890540148263"><ele>815.0</ele><time>2026-04-26T11:57:33Z</time></trkpt><trkpt lat="43.262636459585686" lon="12.90095745869285"><ele>813.7142857142857</ele><time>2026-04-26T11:57:35Z</time></trkpt><trkpt lat="43.2627010656559" lon="12.900958871949362"><ele>812.4285714285713</ele><time>2026-04-26T11:57:36Z</time></trkpt><trkpt lat="43.262809439315895" lon="12.900939851229468"><ele>811.1428571428571</ele><time>2026-04-26T11:57:38Z</time></trkpt><trkpt lat="43.26287760672687" lon="12.900938613079592"><ele>809.8571428571429</ele><time>2026-04-26T11:57:39Z</time></trkpt><trkpt lat="43.262946476582734" lon="12.900932948148833"><ele>808.5714285714286</ele><time>2026-04-26T11:57:40Z</time></trkpt><trkpt lat="43.26300969749947" lon="12.900925848168946"><ele>807.2857142857143</ele><time>2026-04-26T11:57:41Z</time></trkpt><trkpt lat="43.263083959417614" lon="12.90092366496499"><ele>806.0</ele><time>2026-04-26T11:57:42Z</time></trkpt><trkpt lat="43.26315817311123" lon="12.90092786986298"><ele>805.3333333333334</ele><time>2026-04-26T11:57:43Z</time></trkpt><trkpt lat="43.26325050501184" lon="12.900903274458036"><ele>804.6666666666667</ele><time>2026-04-26T11:57:45Z</time></trkpt><trkpt lat="43.26332879485636" lon="12.900880823282899"><ele>804.0</ele><time>2026-04-26T11:57:47Z</time></trkpt><trkpt lat="43.26341050616036" lon="12.900832393875861"><ele>803.3333333333333</ele><time>2026-04-26T11:57:49Z</time></trkpt><trkpt lat="43.26347338090347" lon="12.900849137357604"><ele>802.6666666666666</ele><time>2026-04-26T11:57:51Z</time></trkpt><trkpt lat="43.263528240672045" lon="12.90089248531633"><ele>802.0</ele><time>2026-04-26T11:57:53Z</time></trkpt><trkpt lat="43.263688238416094" lon="12.900863861973814"><ele>802.0</ele><time>2026-04-26T11:57:56Z</time></trkpt><trkpt lat="43.263785100443584" lon="12.90078811953047"><ele>802.0</ele><time>2026-04-26T11:57:58Z</time></trkpt><trkpt lat="43.26389319187302" lon="12.900732254021076"><ele>802.0</ele><time>2026-04-26T11:58:00Z</time></trkpt><trkpt lat="43.263954715914146" lon="12.900704199478522"><ele>802.0</ele><time>2026-04-26T11:58:02Z</time></trkpt><trkpt lat="43.26402741174727" lon="12.900617404899078"><ele>802.0</ele><time>2026-04-26T11:58:04Z</time></trkpt><trkpt lat="43.26404189620986" lon="12.900530550417951"><ele>797.8</ele><time>2026-04-26T11:58:05Z</time></trkpt><trkpt lat="43.264030367571365" lon="12.900401212344224"><ele>793.6</ele><time>2026-04-26T11:58:07Z</time></trkpt><trkpt lat="43.264023161170826" lon="12.900250092806955"><ele>789.4</ele><time>2026-04-26T11:58:09Z</time></trkpt><trkpt lat="43.264026223813" lon="12.900085340157702"><ele>785.1999999999999</ele><time>2026-04-26T11:58:11Z</time></trkpt><trkpt lat="43.264042870822344" lon="12.899928197288082"><ele>781.0</ele><time>2026-04-26T11:58:13Z</time></trkpt><trkpt lat="43.26399986692247" lon="12.899810797349723"><ele>780.9999999999999</ele><time>2026-04-26T11:58:15Z</time></trkpt><trkpt lat="43.26402156279218" lon="12.899701275874868"><ele>781.0</ele><time>2026-04-26T11:58:18Z</time></trkpt><trkpt lat="43.264034415365934" lon="12.89959184376728"><ele>781.0</ele><time>2026-04-26T11:58:20Z</time></trkpt><trkpt lat="43.26403235030485" lon="12.899480281638812"><ele>781.0</ele><time>2026-04-26T11:58:22Z</time></trkpt><trkpt lat="43.264024804465556" lon="12.899381087694755"><ele>780.9999999999999</ele><time>2026-04-26T11:58:28Z</time></trkpt><trkpt lat="43.264086613704876" lon="12.899321411348772"><ele>781.0</ele><time>2026-04-26T11:58:31Z</time></trkpt><trkpt lat="43.26413585815134" lon="12.899257521827893"><ele>778.6666666666666</ele><time>2026-04-26T11:58:33Z</time></trkpt><trkpt lat="43.26411733753356" lon="12.89917127774702"><ele>776.3333333333333</ele><time>2026-04-26T11:58:35Z</time></trkpt><trkpt lat="43.264122694093246" lon="12.899050831372113"><ele>774.0</ele><time>2026-04-26T11:58:38Z</time></trkpt><trkpt lat="43.26418114597421" lon="12.898951773413996"><ele>771.6666666666666</ele><time>2026-04-26T11:58:40Z</time></trkpt><trkpt lat="43.264237899474615" lon="12.89886079441786"><ele>769.3333333333333</ele><time>2026-04-26T11:58:42Z</time></trkpt><trkpt lat="43.264286732263805" lon="12.89876968896517"><ele>767.0</ele><time>2026-04-26T11:58:43.999Z</time></trkpt><trkpt lat="43.26433521520818" lon="12.89868817085475"><ele>767.0</ele><time>2026-04-26T11:58:45.999Z</time></trkpt><trkpt lat="43.26439328201929" lon="12.8985967040061"><ele>767.0</ele><time>2026-04-26T11:58:47.999Z</time></trkpt><trkpt lat="43.264435410954704" lon="12.89849958719925"><ele>767.0</ele><time>2026-04-26T11:58:49.999Z</time></trkpt><trkpt lat="43.264486536528295" lon="12.89843874503641"><ele>767.0</ele><time>2026-04-26T11:58:51.999Z</time></trkpt><trkpt lat="43.26455555706545" lon="12.898369199382774"><ele>767.0</ele><time>2026-04-26T11:58:52.999Z</time></trkpt><trkpt lat="43.264665869490145" lon="12.898269697101107"><ele>765.4000000000001</ele><time>2026-04-26T11:58:54.999Z</time></trkpt><trkpt lat="43.264719129124146" lon="12.898220348220107"><ele>763.8000000000001</ele><time>2026-04-26T11:58:55.999Z</time></trkpt><trkpt lat="43.26478931049607" lon="12.898137068772053"><ele>762.2</ele><time>2026-04-26T11:58:56.999Z</time></trkpt><trkpt lat="43.26484297245227" lon="12.898042125907976"><ele>760.6</ele><time>2026-04-26T11:58:57.999Z</time></trkpt><trkpt lat="43.26490247091636" lon="12.897911016204334"><ele>759.0</ele><time>2026-04-26T11:58:59.999Z</time></trkpt><trkpt lat="43.26494381978828" lon="12.89775753926473"><ele>755.3333333333334</ele><time>2026-04-26T11:59:01.999Z</time></trkpt><trkpt lat="43.26498078079611" lon="12.897656479717217"><ele>751.6666666666666</ele><time>2026-04-26T11:59:03.999Z</time></trkpt><trkpt lat="43.26505125161197" lon="12.89759233102555"><ele>748.0</ele><time>2026-04-26T11:59:08.999Z</time></trkpt><trkpt lat="43.26508730297865" lon="12.897512189135494"><ele>744.3333333333333</ele><time>2026-04-26T11:59:12.999Z</time></trkpt><trkpt lat="43.26512838372582" lon="12.897438008499437"><ele>740.6666666666666</ele><time>2026-04-26T11:59:15.999Z</time></trkpt><trkpt lat="43.265202053688824" lon="12.897370491938615"><ele>737.0</ele><time>2026-04-26T11:59:18.999Z</time></trkpt><trkpt lat="43.26535813892755" lon="12.897358163209946"><ele>736.1666666666666</ele><time>2026-04-26T11:59:23.999Z</time></trkpt><trkpt lat="43.26541177192814" lon="12.897305693237417"><ele>735.3333333333333</ele><time>2026-04-26T11:59:24.999Z</time></trkpt><trkpt lat="43.26546014186282" lon="12.897206229789724"><ele>734.5</ele><time>2026-04-26T12:00:35.999Z</time></trkpt><trkpt lat="43.26549864538726" lon="12.897087627881952"><ele>733.6666666666666</ele><time>2026-04-26T12:00:37.999Z</time></trkpt><trkpt lat="43.26555515327025" lon="12.896991080380525"><ele>732.8333333333334</ele><time>2026-04-26T12:00:39.999Z</time></trkpt><trkpt lat="43.26562435043335" lon="12.896923659879668"><ele>732.0</ele><time>2026-04-26T12:00:41.999Z</time></trkpt><trkpt lat="43.26568580942477" lon="12.896864691980436"><ele>727.6666666666666</ele><time>2026-04-26T12:00:42.999Z</time></trkpt><trkpt lat="43.26575941203269" lon="12.896803647962527"><ele>723.3333333333334</ele><time>2026-04-26T12:00:43.999Z</time></trkpt><trkpt lat="43.26582925276352" lon="12.896751799168925"><ele>719.0</ele><time>2026-04-26T12:00:44.999Z</time></trkpt><trkpt lat="43.26589931405583" lon="12.896708064806447"><ele>714.6666666666667</ele><time>2026-04-26T12:00:45.999Z</time></trkpt><trkpt lat="43.265964014644624" lon="12.896671704748757"><ele>710.3333333333334</ele><time>2026-04-26T12:00:46.999Z</time></trkpt><trkpt lat="43.266046688986364" lon="12.896614823922624"><ele>706.0</ele><time>2026-04-26T12:00:47.999Z</time></trkpt><trkpt lat="43.266122334300256" lon="12.89653702767945"><ele>706.0</ele><time>2026-04-26T12:00:48.999Z</time></trkpt><trkpt lat="43.2662009805436" lon="12.89647006211584"><ele>706.0</ele><time>2026-04-26T12:00:49.999Z</time></trkpt><trkpt lat="43.2662808897054" lon="12.896411190039897"><ele>706.0</ele><time>2026-04-26T12:00:50.999Z</time></trkpt><trkpt lat="43.26636829012221" lon="12.896357818448129"><ele>706.0</ele><time>2026-04-26T12:00:51.999Z</time></trkpt><trkpt lat="43.266441567060305" lon="12.89629242278402"><ele>706.0</ele><time>2026-04-26T12:00:52.999Z</time></trkpt><trkpt lat="43.26657753870151" lon="12.896094996580887"><ele>700.25</ele><time>2026-04-26T12:00:53.999Z</time></trkpt><trkpt lat="43.26666745310151" lon="12.895986958121096"><ele>694.5</ele><time>2026-04-26T12:00:54.999Z</time></trkpt><trkpt lat="43.26676767085121" lon="12.895868263374204"><ele>688.75</ele><time>2026-04-26T12:00:55.999Z</time></trkpt><trkpt lat="43.26685521262876" lon="12.895771153782974"><ele>683.0</ele><time>2026-04-26T12:00:56.999Z</time></trkpt><trkpt lat="43.26694774313764" lon="12.895681015899502"><ele>683.0</ele><time>2026-04-26T12:00:57.999Z</time></trkpt><trkpt lat="43.267043627402856" lon="12.895610079983465"><ele>683.0</ele><time>2026-04-26T12:00:58.999Z</time></trkpt><trkpt lat="43.26710599195651" lon="12.89554009256405"><ele>683.0</ele><time>2026-04-26T12:00:59.999Z</time></trkpt><trkpt lat="43.26710135850723" lon="12.89542619645894"><ele>683.0</ele><time>2026-04-26T12:01:00.999Z</time></trkpt><trkpt lat="43.2670740581117" lon="12.89530254308976"><ele>683.0</ele><time>2026-04-26T12:01:01.999Z</time></trkpt><trkpt lat="43.26701823308178" lon="12.895374399005586"><ele>683.0</ele><time>2026-04-26T12:01:04.999Z</time></trkpt><trkpt lat="43.26693676673573" lon="12.89550023524502"><ele>683.0</ele><time>2026-04-26T12:01:06.999Z</time></trkpt><trkpt lat="43.26686100456777" lon="12.895606871348882"><ele>683.0</ele><time>2026-04-26T12:01:08.999Z</time></trkpt><trkpt lat="43.26679995087603" lon="12.895702608498688"><ele>683.0</ele><time>2026-04-26T12:01:10.999Z</time></trkpt><trkpt lat="43.26674790304332" lon="12.895818220698024"><ele>683.0</ele><time>2026-04-26T12:01:12.999Z</time></trkpt><trkpt lat="43.26665035832138" lon="12.89592026877663"><ele>683.0</ele><time>2026-04-26T12:01:14.999Z</time></trkpt><trkpt lat="43.26659295189765" lon="12.895979553945205"><ele>679.8571428571429</ele><time>2026-04-26T12:01:15.999Z</time></trkpt><trkpt lat="43.26654285234917" lon="12.896048480327137"><ele>676.7142857142857</ele><time>2026-04-26T12:01:16.999Z</time></trkpt><trkpt lat="43.26649084322066" lon="12.896152763320023"><ele>673.5714285714286</ele><time>2026-04-26T12:01:18.999Z</time></trkpt><trkpt lat="43.266470920718355" lon="12.896235878787222"><ele>670.4285714285714</ele><time>2026-04-26T12:01:19.999Z</time></trkpt><trkpt lat="43.26647177001362" lon="12.896333854906082"><ele>667.2857142857143</ele><time>2026-04-26T12:01:20.999Z</time></trkpt><trkpt lat="43.26649524621955" lon="12.89643017537325"><ele>664.1428571428571</ele><time>2026-04-26T12:01:21.999Z</time></trkpt><trkpt lat="43.26653554287968" lon="12.896510787152488"><ele>661.0</ele><time>2026-04-26T12:01:22.999Z</time></trkpt><trkpt lat="43.26658413895502" lon="12.896567649844902"><ele>661.0</ele><time>2026-04-26T12:01:23.999Z</time></trkpt><trkpt lat="43.266650639946626" lon="12.896601979524322"><ele>661.0</ele><time>2026-04-26T12:01:24.999Z</time></trkpt><trkpt lat="43.266752873755635" lon="12.89663866140459"><ele>661.0</ele><time>2026-04-26T12:01:25.999Z</time></trkpt><trkpt lat="43.266854791617405" lon="12.89668433125728"><ele>661.0</ele><time>2026-04-26T12:01:26.999Z</time></trkpt><trkpt lat="43.266946556212254" lon="12.896739197430511"><ele>661.0</ele><time>2026-04-26T12:01:27.999Z</time></trkpt><trkpt lat="43.267149174854474" lon="12.896780817553864"><ele>659.0</ele><time>2026-04-26T12:01:29.999Z</time></trkpt><trkpt lat="43.26724383290214" lon="12.896818834903073"><ele>657.0</ele><time>2026-04-26T12:01:30.999Z</time></trkpt><trkpt lat="43.267324103756984" lon="12.896879917645883"><ele>655.0</ele><time>2026-04-26T12:01:31.999Z</time></trkpt><trkpt lat="43.267416693215175" lon="12.89695447369421"><ele>653.0</ele><time>2026-04-26T12:01:32.999Z</time></trkpt><trkpt lat="43.26753574715549" lon="12.89709083009164"><ele>649.75</ele><time>2026-04-26T12:01:33.999Z</time></trkpt><trkpt lat="43.26760479926797" lon="12.897246628895967"><ele>646.5</ele><time>2026-04-26T12:01:34.999Z</time></trkpt><trkpt lat="43.267645611577784" lon="12.897391680831714"><ele>643.25</ele><time>2026-04-26T12:01:35.999Z</time></trkpt><trkpt lat="43.26768015220559" lon="12.897533730027062"><ele>640.0</ele><time>2026-04-26T12:01:36.999Z</time></trkpt><trkpt lat="43.2677454786663" lon="12.897788646885648"><ele>638.0</ele><time>2026-04-26T12:01:37.999Z</time></trkpt><trkpt lat="43.26778241225642" lon="12.89793158334585"><ele>636.0</ele><time>2026-04-26T12:01:38.999Z</time></trkpt><trkpt lat="43.267811670313776" lon="12.898042442168977"><ele>634.0</ele><time>2026-04-26T12:01:39.999Z</time></trkpt><trkpt lat="43.267804071521795" lon="12.898190476951607"><ele>632.0</ele><time>2026-04-26T12:01:40.999Z</time></trkpt><trkpt lat="43.26778407896155" lon="12.898338332515713"><ele>630.0</ele><time>2026-04-26T12:01:41.999Z</time></trkpt><trkpt lat="43.26776756923989" lon="12.898466853606928"><ele>628.4</ele><time>2026-04-26T12:01:42.999Z</time></trkpt><trkpt lat="43.267752099044195" lon="12.898580977341188"><ele>626.8</ele><time>2026-04-26T12:01:43.999Z</time></trkpt><trkpt lat="43.267744814482754" lon="12.898697422976024"><ele>625.2</ele><time>2026-04-26T12:01:44.999Z</time></trkpt><trkpt lat="43.26775342950352" lon="12.89883924848577"><ele>623.6</ele><time>2026-04-26T12:01:45.999Z</time></trkpt><trkpt lat="43.26776369226772" lon="12.898985028429333"><ele>622.0</ele><time>2026-04-26T12:01:46.999Z</time></trkpt><trkpt lat="43.26777543014678" lon="12.899123023604457"><ele>622.0</ele><time>2026-04-26T12:01:47.999Z</time></trkpt><trkpt lat="43.26779248268839" lon="12.899230734234267"><ele>622.0</ele><time>2026-04-26T12:01:48.999Z</time></trkpt><trkpt lat="43.26781149222417" lon="12.899357554901432"><ele>622.0</ele><time>2026-04-26T12:01:49.999Z</time></trkpt><trkpt lat="43.26783577672924" lon="12.899482699915763"><ele>622.0</ele><time>2026-04-26T12:01:50.999Z</time></trkpt><trkpt lat="43.26786779547064" lon="12.899608480529679"><ele>622.0</ele><time>2026-04-26T12:01:51.999Z</time></trkpt><trkpt lat="43.26791238294464" lon="12.899729689125984"><ele>620.8000000000001</ele><time>2026-04-26T12:01:52.999Z</time></trkpt><trkpt lat="43.267956734378274" lon="12.899860121450814"><ele>619.6</ele><time>2026-04-26T12:01:53.999Z</time></trkpt><trkpt lat="43.26799757158817" lon="12.899986523036958"><ele>618.4000000000001</ele><time>2026-04-26T12:01:54.999Z</time></trkpt><trkpt lat="43.26802380128923" lon="12.900125053815302"><ele>617.2</ele><time>2026-04-26T12:01:55.999Z</time></trkpt><trkpt lat="43.26803730420195" lon="12.900265128806447"><ele>616.0</ele><time>2026-04-26T12:01:56.999Z</time></trkpt><trkpt lat="43.268045719355406" lon="12.90040292774688"><ele>615.0</ele><time>2026-04-26T12:01:57.999Z</time></trkpt><trkpt lat="43.26805989141456" lon="12.90055064950367"><ele>614.0</ele><time>2026-04-26T12:01:58.999Z</time></trkpt><trkpt lat="43.26807526539786" lon="12.90069541494659"><ele>613.0</ele><time>2026-04-26T12:01:59.999Z</time></trkpt><trkpt lat="43.26809526645469" lon="12.900823040690682"><ele>612.0</ele><time>2026-04-26T12:02:00.999Z</time></trkpt><trkpt lat="43.26812097579498" lon="12.900942837909534"><ele>611.0</ele><time>2026-04-26T12:02:01.999Z</time></trkpt><trkpt lat="43.2681404427875" lon="12.901066365581041"><ele>608.5</ele><time>2026-04-26T12:02:02.999Z</time></trkpt><trkpt lat="43.26815831317111" lon="12.901177427789655"><ele>606.0</ele><time>2026-04-26T12:02:03.999Z</time></trkpt><trkpt lat="43.268184237922306" lon="12.901285586154904"><ele>603.5</ele><time>2026-04-26T12:02:04.999Z</time></trkpt><trkpt lat="43.268222019381014" lon="12.90138258454554"><ele>601.0</ele><time>2026-04-26T12:02:05.999Z</time></trkpt><trkpt lat="43.26826460137762" lon="12.901468310989733"><ele>598.5</ele><time>2026-04-26T12:02:06.999Z</time></trkpt><trkpt lat="43.26830992620037" lon="12.901605552240328"><ele>596.0</ele><time>2026-04-26T12:02:08.999Z</time></trkpt><trkpt lat="43.26829954735412" lon="12.901691031130243"><ele>595.1666666666666</ele><time>2026-04-26T12:02:09.999Z</time></trkpt><trkpt lat="43.26824878498771" lon="12.90177301706235"><ele>594.3333333333333</ele><time>2026-04-26T12:02:11.999Z</time></trkpt><trkpt lat="43.268184978119514" lon="12.90180442903851"><ele>593.5</ele><time>2026-04-26T12:02:13.999Z</time></trkpt><trkpt lat="43.26806583185927" lon="12.901858445046765"><ele>592.6666666666666</ele><time>2026-04-26T12:02:34.999Z</time></trkpt><trkpt lat="43.26798025914046" lon="12.901926221124485"><ele>591.8333333333334</ele><time>2026-04-26T12:02:36.999Z</time></trkpt><trkpt lat="43.26792832747858" lon="12.901977087699008"><ele>591.0</ele><time>2026-04-26T12:02:37.999Z</time></trkpt><trkpt lat="43.26786990641288" lon="12.902032767266988"><ele>591.0</ele><time>2026-04-26T12:02:38.999Z</time></trkpt><trkpt lat="43.267808397230425" lon="12.9021138614296"><ele>591.0</ele><time>2026-04-26T12:02:39.999Z</time></trkpt><trkpt lat="43.267739947754016" lon="12.902184101330564"><ele>591.0</ele><time>2026-04-26T12:02:40.999Z</time></trkpt><trkpt lat="43.26766431438511" lon="12.902253689987027"><ele>591.0</ele><time>2026-04-26T12:02:41.999Z</time></trkpt><trkpt lat="43.2675840675906" lon="12.902329220329976"><ele>591.0</ele><time>2026-04-26T12:02:42.999Z</time></trkpt><trkpt lat="43.267503838616044" lon="12.902410944798973"><ele>591.0</ele><time>2026-04-26T12:02:43.999Z</time></trkpt><trkpt lat="43.26742181506266" lon="12.90248489527887"><ele>591.0</ele><time>2026-04-26T12:02:44.999Z</time></trkpt><trkpt lat="43.26734620553155" lon="12.902567141932693"><ele>591.0</ele><time>2026-04-26T12:02:45.999Z</time></trkpt><trkpt lat="43.26726617061977" lon="12.902642012093542"><ele>591.0</ele><time>2026-04-26T12:02:46.999Z</time></trkpt><trkpt lat="43.267185816716456" lon="12.902724466236926"><ele>591.0</ele><time>2026-04-26T12:02:47.999Z</time></trkpt><trkpt lat="43.267103236199276" lon="12.902805238464913"><ele>589.2</ele><time>2026-04-26T12:02:48.999Z</time></trkpt><trkpt lat="43.267023231959435" lon="12.902890572858642"><ele>587.4000000000001</ele><time>2026-04-26T12:02:49.999Z</time></trkpt><trkpt lat="43.26694490887738" lon="12.902987690008777"><ele>585.6</ele><time>2026-04-26T12:02:50.999Z</time></trkpt><trkpt lat="43.26686035778107" lon="12.903078402738185"><ele>583.8000000000001</ele><time>2026-04-26T12:02:51.999Z</time></trkpt><trkpt lat="43.26677538875023" lon="12.903165828341518"><ele>582.0</ele><time>2026-04-26T12:02:52.999Z</time></trkpt><trkpt lat="43.266692339437036" lon="12.903251270868841"><ele>582.0</ele><time>2026-04-26T12:02:53.999Z</time></trkpt><trkpt lat="43.26660577667346" lon="12.903327897518377"><ele>582.0</ele><time>2026-04-26T12:02:54.999Z</time></trkpt><trkpt lat="43.26652301635945" lon="12.903406596315744"><ele>582.0</ele><time>2026-04-26T12:02:55.999Z</time></trkpt><trkpt lat="43.266448581454426" lon="12.903491743066363"><ele>582.0</ele><time>2026-04-26T12:02:56.999Z</time></trkpt><trkpt lat="43.26637613818872" lon="12.90357969527936"><ele>582.0</ele><time>2026-04-26T12:02:57.999Z</time></trkpt><trkpt lat="43.26630188528055" lon="12.903680452489047"><ele>579.25</ele><time>2026-04-26T12:02:58.999Z</time></trkpt><trkpt lat="43.266225199444634" lon="12.903785022851592"><ele>576.5</ele><time>2026-04-26T12:02:59.999Z</time></trkpt><trkpt lat="43.266142789443336" lon="12.903889690206126"><ele>573.75</ele><time>2026-04-26T12:03:00.999Z</time></trkpt><trkpt lat="43.26605928667172" lon="12.903997083897115"><ele>571.0</ele><time>2026-04-26T12:03:01.999Z</time></trkpt><trkpt lat="43.265969966045134" lon="12.904103920011964"><ele>571.0</ele><time>2026-04-26T12:03:02.999Z</time></trkpt><trkpt lat="43.26588344189078" lon="12.904219907137167"><ele>571.0</ele><time>2026-04-26T12:03:03.999Z</time></trkpt><trkpt lat="43.26579199348613" lon="12.9043394937183"><ele>571.0</ele><time>2026-04-26T12:03:04.999Z</time></trkpt><trkpt lat="43.26570498855383" lon="12.904463932654119"><ele>571.0</ele><time>2026-04-26T12:03:05.999Z</time></trkpt><trkpt lat="43.265621501257286" lon="12.904588111455986"><ele>569.5</ele><time>2026-04-26T12:03:06.999Z</time></trkpt><trkpt lat="43.26553594886981" lon="12.904708305994648"><ele>568.0</ele><time>2026-04-26T12:03:07.999Z</time></trkpt><trkpt lat="43.26545260023659" lon="12.904832771589497"><ele>566.5</ele><time>2026-04-26T12:03:08.999Z</time></trkpt><trkpt lat="43.265363080543914" lon="12.90495047671447"><ele>565.0</ele><time>2026-04-26T12:03:09.999Z</time></trkpt><trkpt lat="43.265266117273384" lon="12.90505244417474"><ele>565.25</ele><time>2026-04-26T12:03:10.999Z</time></trkpt><trkpt lat="43.2651756826086" lon="12.90516022099626"><ele>565.5</ele><time>2026-04-26T12:03:11.999Z</time></trkpt><trkpt lat="43.26508435743352" lon="12.905269206436778"><ele>565.75</ele><time>2026-04-26T12:03:12.999Z</time></trkpt><trkpt lat="43.264991701693546" lon="12.90538612824416"><ele>566.0</ele><time>2026-04-26T12:03:13.999Z</time></trkpt><trkpt lat="43.264886124200004" lon="12.90550111650231"><ele>566.0</ele><time>2026-04-26T12:03:14.999Z</time></trkpt><trkpt lat="43.26478482778026" lon="12.905619654306264"><ele>566.0</ele><time>2026-04-26T12:03:15.999Z</time></trkpt><trkpt lat="43.26468671760752" lon="12.905726375427347"><ele>566.0</ele><time>2026-04-26T12:03:16.999Z</time></trkpt><trkpt lat="43.264590061081684" lon="12.905826371519222"><ele>566.0</ele><time>2026-04-26T12:03:17.999Z</time></trkpt><trkpt lat="43.26449272300796" lon="12.905930045300439"><ele>564.25</ele><time>2026-04-26T12:03:18.999Z</time></trkpt><trkpt lat="43.264394305593356" lon="12.906036754775903"><ele>562.5</ele><time>2026-04-26T12:03:19.999Z</time></trkpt><trkpt lat="43.26429842770939" lon="12.906149598766818"><ele>560.75</ele><time>2026-04-26T12:03:20.999Z</time></trkpt><trkpt lat="43.26420549216855" lon="12.906257894617715"><ele>559.0</ele><time>2026-04-26T12:03:21.999Z</time></trkpt><trkpt lat="43.264113825873544" lon="12.906363906180218"><ele>559.0</ele><time>2026-04-26T12:03:22.999Z</time></trkpt><trkpt lat="43.264021415546786" lon="12.90646794860632"><ele>559.0</ele><time>2026-04-26T12:03:23.999Z</time></trkpt><trkpt lat="43.26392803193559" lon="12.906567353470232"><ele>559.0</ele><time>2026-04-26T12:03:24.999Z</time></trkpt><trkpt lat="43.263846780082666" lon="12.906675422294647"><ele>559.0</ele><time>2026-04-26T12:03:25.999Z</time></trkpt><trkpt lat="43.263764915103884" lon="12.906777490826482"><ele>556.4</ele><time>2026-04-26T12:03:26.999Z</time></trkpt><trkpt lat="43.263687985678125" lon="12.90688580435048"><ele>553.8</ele><time>2026-04-26T12:03:27.999Z</time></trkpt><trkpt lat="43.26361206467757" lon="12.906992046562555"><ele>551.2</ele><time>2026-04-26T12:03:28.999Z</time></trkpt><trkpt lat="43.263536199576535" lon="12.907099192341246"><ele>548.6</ele><time>2026-04-26T12:03:29.999Z</time></trkpt><trkpt lat="43.26345991023212" lon="12.907197425890445"><ele>546.0</ele><time>2026-04-26T12:03:30.999Z</time></trkpt><trkpt lat="43.26339616415805" lon="12.907299623068832"><ele>546.0</ele><time>2026-04-26T12:03:31.998Z</time></trkpt><trkpt lat="43.26333529426559" lon="12.907403389026372"><ele>546.0</ele><time>2026-04-26T12:03:32.998Z</time></trkpt><trkpt lat="43.26327308375232" lon="12.907507213732803"><ele>546.0</ele><time>2026-04-26T12:03:33.998Z</time></trkpt><trkpt lat="43.263213487686606" lon="12.907604814862541"><ele>546.0</ele><time>2026-04-26T12:03:34.998Z</time></trkpt><trkpt lat="43.263156606862324" lon="12.907689959855567"><ele>546.0</ele><time>2026-04-26T12:03:35.998Z</time></trkpt><trkpt lat="43.26311363300362" lon="12.907779522290665"><ele>548.8571428571429</ele><time>2026-04-26T12:03:37Z</time></trkpt><trkpt lat="43.263091219762885" lon="12.907875286492617"><ele>551.7142857142858</ele><time>2026-04-26T12:03:38Z</time></trkpt><trkpt lat="43.26308537995251" lon="12.90797614448764"><ele>554.5714285714286</ele><time>2026-04-26T12:03:39Z</time></trkpt><trkpt lat="43.263078818011785" lon="12.908076785099823"><ele>557.4285714285714</ele><time>2026-04-26T12:03:40Z</time></trkpt><trkpt lat="43.263070771117604" lon="12.908171367247245"><ele>560.2857142857143</ele><time>2026-04-26T12:03:41Z</time></trkpt><trkpt lat="43.26306480129683" lon="12.908259116405633"><ele>563.1428571428571</ele><time>2026-04-26T12:03:42Z</time></trkpt><trkpt lat="43.26307890617519" lon="12.90834852542654"><ele>566.0</ele><time>2026-04-26T12:03:43Z</time></trkpt><trkpt lat="43.26311218122223" lon="12.908447429985893"><ele>566.1666666666666</ele><time>2026-04-26T12:03:44Z</time></trkpt><trkpt lat="43.26316642597305" lon="12.908537254540615"><ele>566.3333333333333</ele><time>2026-04-26T12:03:45Z</time></trkpt><trkpt lat="43.263228731473305" lon="12.908615420438638"><ele>566.5</ele><time>2026-04-26T12:03:46Z</time></trkpt><trkpt lat="43.263306493008514" lon="12.908680031161166"><ele>566.6666666666666</ele><time>2026-04-26T12:03:47Z</time></trkpt><trkpt lat="43.26337824886923" lon="12.908752875632326"><ele>566.8333333333334</ele><time>2026-04-26T12:03:48Z</time></trkpt><trkpt lat="43.263449353669536" lon="12.908820447163148"><ele>567.0</ele><time>2026-04-26T12:03:49Z</time></trkpt><trkpt lat="43.26351694424425" lon="12.908888595159775"><ele>567.0</ele><time>2026-04-26T12:03:50Z</time></trkpt><trkpt lat="43.26357334703934" lon="12.908970829321474"><ele>567.0</ele><time>2026-04-26T12:03:51Z</time></trkpt><trkpt lat="43.26361679044211" lon="12.909074029622419"><ele>567.0</ele><time>2026-04-26T12:03:52Z</time></trkpt><trkpt lat="43.26366021962004" lon="12.909182386767915"><ele>567.0</ele><time>2026-04-26T12:03:53Z</time></trkpt><trkpt lat="43.26370778545042" lon="12.90928917721634"><ele>567.0</ele><time>2026-04-26T12:03:54Z</time></trkpt><trkpt lat="43.26374737563926" lon="12.909394125288724"><ele>567.0</ele><time>2026-04-26T12:03:55Z</time></trkpt><trkpt lat="43.26378071521489" lon="12.90949463357963"><ele>563.6666666666666</ele><time>2026-04-26T12:03:56Z</time></trkpt><trkpt lat="43.26382383062427" lon="12.909597175179046"><ele>560.3333333333334</ele><time>2026-04-26T12:03:57Z</time></trkpt><trkpt lat="43.26387816161962" lon="12.909691391108236"><ele>557.0</ele><time>2026-04-26T12:03:58Z</time></trkpt><trkpt lat="43.26393706369074" lon="12.90978224481577"><ele>553.6666666666667</ele><time>2026-04-26T12:03:59Z</time></trkpt><trkpt lat="43.26398395533285" lon="12.909873753279987"><ele>550.3333333333334</ele><time>2026-04-26T12:04:00Z</time></trkpt><trkpt lat="43.26402106167136" lon="12.909981630824966"><ele>547.0</ele><time>2026-04-26T12:04:01Z</time></trkpt><trkpt lat="43.264061450241805" lon="12.910096096151742"><ele>545.8000000000001</ele><time>2026-04-26T12:04:02Z</time></trkpt><trkpt lat="43.264089448322764" lon="12.910216605150955"><ele>544.6</ele><time>2026-04-26T12:04:03Z</time></trkpt><trkpt lat="43.2641067443576" lon="12.910346987898405"><ele>543.4000000000001</ele><time>2026-04-26T12:04:04Z</time></trkpt><trkpt lat="43.26411410860561" lon="12.910492866317004"><ele>542.2</ele><time>2026-04-26T12:04:05Z</time></trkpt><trkpt lat="43.26411962347024" lon="12.910642448666502"><ele>541.0</ele><time>2026-04-26T12:04:06Z</time></trkpt><trkpt lat="43.264136830713255" lon="12.910798329125825"><ele>540.8</ele><time>2026-04-26T12:04:07Z</time></trkpt><trkpt lat="43.26415931953349" lon="12.910951478998486"><ele>540.6</ele><time>2026-04-26T12:04:08Z</time></trkpt><trkpt lat="43.264165757507364" lon="12.91110285619891"><ele>540.4</ele><time>2026-04-26T12:04:09Z</time></trkpt><trkpt lat="43.26416238114653" lon="12.911247053383601"><ele>540.2</ele><time>2026-04-26T12:04:10Z</time></trkpt><trkpt lat="43.264157747365914" lon="12.911387487942433"><ele>540.0</ele><time>2026-04-26T12:04:11Z</time></trkpt><trkpt lat="43.264140402604745" lon="12.911518291282102"><ele>540.0</ele><time>2026-04-26T12:04:12Z</time></trkpt><trkpt lat="43.2641295269868" lon="12.911650224122578"><ele>540.0</ele><time>2026-04-26T12:04:13Z</time></trkpt><trkpt lat="43.26413127183592" lon="12.911785580538927"><ele>540.0</ele><time>2026-04-26T12:04:14Z</time></trkpt><trkpt lat="43.26414607203829" lon="12.911925155212467"><ele>540.0</ele><time>2026-04-26T12:04:15Z</time></trkpt><trkpt lat="43.26415120515327" lon="12.91209710326537"><ele>540.0</ele><time>2026-04-26T12:04:16Z</time></trkpt><trkpt lat="43.264160238027195" lon="12.912261791174855"><ele>538.75</ele><time>2026-04-26T12:04:17Z</time></trkpt><trkpt lat="43.264162446297156" lon="12.912424375606674"><ele>537.5</ele><time>2026-04-26T12:04:18Z</time></trkpt><trkpt lat="43.264168645402215" lon="12.912588155125878"><ele>536.25</ele><time>2026-04-26T12:04:19Z</time></trkpt><trkpt lat="43.264172849204776" lon="12.912742690845372"><ele>535.0</ele><time>2026-04-26T12:04:20Z</time></trkpt><trkpt lat="43.26417086350556" lon="12.91289456438416"><ele>534.8</ele><time>2026-04-26T12:04:21Z</time></trkpt><trkpt lat="43.26417407510701" lon="12.91303734862189"><ele>534.6</ele><time>2026-04-26T12:04:22Z</time></trkpt><trkpt lat="43.26418224918047" lon="12.913171708451138"><ele>534.4</ele><time>2026-04-26T12:04:23Z</time></trkpt><trkpt lat="43.264189574475175" lon="12.913304507557909"><ele>534.2</ele><time>2026-04-26T12:04:24Z</time></trkpt><trkpt lat="43.26422892325602" lon="12.913434443174632"><ele>534.0</ele><time>2026-04-26T12:04:25Z</time></trkpt><trkpt lat="43.264281064085104" lon="12.913560012416127"><ele>534.0</ele><time>2026-04-26T12:04:26Z</time></trkpt><trkpt lat="43.264322147952285" lon="12.913695231738465"><ele>534.0</ele><time>2026-04-26T12:04:27Z</time></trkpt><trkpt lat="43.264365299715955" lon="12.913816777818417"><ele>534.0</ele><time>2026-04-26T12:04:28Z</time></trkpt><trkpt lat="43.26439518855625" lon="12.913943283422409"><ele>534.0</ele><time>2026-04-26T12:04:29Z</time></trkpt><trkpt lat="43.26441215963135" lon="12.914077916499096"><ele>534.0</ele><time>2026-04-26T12:04:29.999Z</time></trkpt><trkpt lat="43.26441724885512" lon="12.914216494670141"><ele>534.8</ele><time>2026-04-26T12:04:30.999Z</time></trkpt><trkpt lat="43.264420069105824" lon="12.914357328738522"><ele>535.5999999999999</ele><time>2026-04-26T12:04:31.999Z</time></trkpt><trkpt lat="43.26442439264016" lon="12.914493179346108"><ele>536.4</ele><time>2026-04-26T12:04:32.999Z</time></trkpt><trkpt lat="43.264436028761835" lon="12.914638521501372"><ele>537.1999999999999</ele><time>2026-04-26T12:04:33.999Z</time></trkpt><trkpt lat="43.264468456597115" lon="12.91477695599202"><ele>538.0</ele><time>2026-04-26T12:04:34.999Z</time></trkpt><trkpt lat="43.26450680786615" lon="12.914916162612277"><ele>538.0</ele><time>2026-04-26T12:04:35.999Z</time></trkpt><trkpt lat="43.26456816476562" lon="12.915034227185105"><ele>538.0</ele><time>2026-04-26T12:04:36.999Z</time></trkpt><trkpt lat="43.264623424150095" lon="12.91515277903487"><ele>538.0</ele><time>2026-04-26T12:04:37.999Z</time></trkpt><trkpt lat="43.26467981500358" lon="12.915254802901138"><ele>538.0</ele><time>2026-04-26T12:04:38.999Z</time></trkpt><trkpt lat="43.26473997362993" lon="12.915365985259497"><ele>538.0</ele><time>2026-04-26T12:04:39.999Z</time></trkpt><trkpt lat="43.26480427942353" lon="12.915478089881166"><ele>536.1999999999999</ele><time>2026-04-26T12:04:40.999Z</time></trkpt><trkpt lat="43.26486442825425" lon="12.915582781540241"><ele>534.4</ele><time>2026-04-26T12:04:41.999Z</time></trkpt><trkpt lat="43.26494269591078" lon="12.915664740341002"><ele>532.5999999999999</ele><time>2026-04-26T12:04:42.999Z</time></trkpt><trkpt lat="43.265019357061355" lon="12.915736589181751"><ele>530.8</ele><time>2026-04-26T12:04:43.999Z</time></trkpt><trkpt lat="43.265080896206975" lon="12.915837342369706"><ele>529.0</ele><time>2026-04-26T12:04:44.999Z</time></trkpt><trkpt lat="43.265114821571814" lon="12.915955707736924"><ele>528.4</ele><time>2026-04-26T12:04:45.999Z</time></trkpt><trkpt lat="43.26512788166075" lon="12.916091087092497"><ele>527.8</ele><time>2026-04-26T12:04:46.999Z</time></trkpt><trkpt lat="43.26513679691486" lon="12.916237262255219"><ele>527.2</ele><time>2026-04-26T12:04:47.999Z</time></trkpt><trkpt lat="43.265144131172256" lon="12.916386023934761"><ele>526.6</ele><time>2026-04-26T12:04:48.999Z</time></trkpt><trkpt lat="43.265154646737685" lon="12.916525107172557"><ele>526.0</ele><time>2026-04-26T12:04:49.999Z</time></trkpt><trkpt lat="43.26517193981545" lon="12.916660270983622"><ele>525.8</ele><time>2026-04-26T12:04:50.999Z</time></trkpt><trkpt lat="43.26519964710002" lon="12.916802865147528"><ele>525.6</ele><time>2026-04-26T12:04:51.999Z</time></trkpt><trkpt lat="43.26522619386466" lon="12.916954178267924"><ele>525.4</ele><time>2026-04-26T12:04:52.999Z</time></trkpt><trkpt lat="43.26524600942122" lon="12.917092349228627"><ele>525.2</ele><time>2026-04-26T12:04:53.999Z</time></trkpt><trkpt lat="43.26523917401674" lon="12.917234214687603"><ele>525.0</ele><time>2026-04-26T12:04:54.999Z</time></trkpt><trkpt lat="43.26521335127358" lon="12.917365981094319"><ele>525.0</ele><time>2026-04-26T12:04:55.999Z</time></trkpt><trkpt lat="43.265175932702874" lon="12.917486933417075"><ele>525.0</ele><time>2026-04-26T12:04:56.999Z</time></trkpt><trkpt lat="43.26513175549081" lon="12.917580361405763"><ele>525.0</ele><time>2026-04-26T12:04:57.999Z</time></trkpt><trkpt lat="43.26510983287956" lon="12.917694118780968"><ele>525.0</ele><time>2026-04-26T12:04:58.999Z</time></trkpt><trkpt lat="43.26509812764495" lon="12.91782368429183"><ele>525.0</ele><time>2026-04-26T12:04:59.999Z</time></trkpt><trkpt lat="43.2651137407419" lon="12.917953280156908"><ele>524.8</ele><time>2026-04-26T12:05:00.999Z</time></trkpt><trkpt lat="43.26514384637727" lon="12.91808452390439"><ele>524.6</ele><time>2026-04-26T12:05:01.999Z</time></trkpt><trkpt lat="43.26517907345418" lon="12.918233734311187"><ele>524.4</ele><time>2026-04-26T12:05:02.999Z</time></trkpt><trkpt lat="43.265211221809274" lon="12.918371765319664"><ele>524.2</ele><time>2026-04-26T12:05:03.999Z</time></trkpt><trkpt lat="43.26525379488201" lon="12.918511380586027"><ele>524.0</ele><time>2026-04-26T12:05:04.999Z</time></trkpt><trkpt lat="43.265295510686315" lon="12.91865086435503"><ele>523.0</ele><time>2026-04-26T12:05:05.999Z</time></trkpt><trkpt lat="43.26533385326447" lon="12.918790664199578"><ele>522.0</ele><time>2026-04-26T12:05:06.999Z</time></trkpt><trkpt lat="43.2653637004078" lon="12.918955654964295"><ele>521.0</ele><time>2026-04-26T12:05:07.999Z</time></trkpt><trkpt lat="43.26538954121137" lon="12.919122441521692"><ele>520.0</ele><time>2026-04-26T12:05:08.999Z</time></trkpt><trkpt lat="43.265410951455706" lon="12.91929264153514"><ele>519.75</ele><time>2026-04-26T12:05:09.999Z</time></trkpt><trkpt lat="43.26543258500982" lon="12.919455206949765"><ele>519.5</ele><time>2026-04-26T12:05:10.999Z</time></trkpt><trkpt lat="43.2654510208183" lon="12.919617216613064"><ele>519.25</ele><time>2026-04-26T12:05:11.999Z</time></trkpt><trkpt lat="43.26545646653515" lon="12.919778334748134"><ele>519.0</ele><time>2026-04-26T12:05:12.999Z</time></trkpt><trkpt lat="43.26546527226314" lon="12.91995645265893"><ele>520.25</ele><time>2026-04-26T12:05:13.999Z</time></trkpt><trkpt lat="43.26547435121465" lon="12.920120816197075"><ele>521.5</ele><time>2026-04-26T12:05:14.999Z</time></trkpt><trkpt lat="43.26548550065365" lon="12.920281080790856"><ele>522.75</ele><time>2026-04-26T12:05:15.999Z</time></trkpt><trkpt lat="43.2655073742985" lon="12.920434318961856"><ele>524.0</ele><time>2026-04-26T12:05:16.999Z</time></trkpt><trkpt lat="43.265525833982075" lon="12.92057522961224"><ele>524.0</ele><time>2026-04-26T12:05:17.999Z</time></trkpt><trkpt lat="43.26554421185962" lon="12.920711101382492"><ele>524.0</ele><time>2026-04-26T12:05:18.999Z</time></trkpt><trkpt lat="43.26557259323844" lon="12.92085123440212"><ele>524.0</ele><time>2026-04-26T12:05:19.999Z</time></trkpt><trkpt lat="43.26559896903009" lon="12.920976826755695"><ele>524.0</ele><time>2026-04-26T12:05:20.999Z</time></trkpt><trkpt lat="43.265627845977626" lon="12.92110160680101"><ele>524.0</ele><time>2026-04-26T12:05:21.999Z</time></trkpt><trkpt lat="43.26566805731448" lon="12.921223006144823"><ele>521.8</ele><time>2026-04-26T12:05:22.999Z</time></trkpt><trkpt lat="43.26572119607971" lon="12.921318151363453"><ele>519.5999999999999</ele><time>2026-04-26T12:05:23.999Z</time></trkpt><trkpt lat="43.26578815755452" lon="12.92141304551563"><ele>517.4</ele><time>2026-04-26T12:05:24.999Z</time></trkpt><trkpt lat="43.265862204126044" lon="12.92152261585194"><ele>515.1999999999999</ele><time>2026-04-26T12:05:25.999Z</time></trkpt><trkpt lat="43.26592662545694" lon="12.921632500630878"><ele>513.0</ele><time>2026-04-26T12:05:26.999Z</time></trkpt><trkpt lat="43.26597084293732" lon="12.921771060148705"><ele>512.0</ele><time>2026-04-26T12:05:27.999Z</time></trkpt><trkpt lat="43.266021477113114" lon="12.92190023995931"><ele>510.99999999999994</ele><time>2026-04-26T12:05:28.999Z</time></trkpt><trkpt lat="43.26608130105363" lon="12.921986756100022"><ele>509.99999999999994</ele><time>2026-04-26T12:05:29.999Z</time></trkpt><trkpt lat="43.26614577497119" lon="12.922076488053332"><ele>509.0</ele><time>2026-04-26T12:05:30.999Z</time></trkpt><trkpt lat="43.26621861576347" lon="12.922180895092863"><ele>508.0</ele><time>2026-04-26T12:05:31.999Z</time></trkpt><trkpt lat="43.266274852624456" lon="12.922302654972016"><ele>508.0</ele><time>2026-04-26T12:05:32.999Z</time></trkpt><trkpt lat="43.266305456386704" lon="12.922450628212866"><ele>508.0</ele><time>2026-04-26T12:05:33.999Z</time></trkpt><trkpt lat="43.266332715642534" lon="12.922609064195028"><ele>508.0</ele><time>2026-04-26T12:05:34.999Z</time></trkpt><trkpt lat="43.266356115763145" lon="12.922773732029494"><ele>508.0</ele><time>2026-04-26T12:05:35.999Z</time></trkpt><trkpt lat="43.2663839582547" lon="12.922917976859223"><ele>509.0</ele><time>2026-04-26T12:05:36.999Z</time></trkpt><trkpt lat="43.26641535671188" lon="12.923067877646327"><ele>510.0</ele><time>2026-04-26T12:05:37.999Z</time></trkpt><trkpt lat="43.266428224456305" lon="12.923233547133814"><ele>511.0</ele><time>2026-04-26T12:05:38.999Z</time></trkpt><trkpt lat="43.266432197638906" lon="12.923403759646753"><ele>512.0</ele><time>2026-04-26T12:05:39.999Z</time></trkpt><trkpt lat="43.26643996392575" lon="12.923566906517593"><ele>511.5</ele><time>2026-04-26T12:05:40.999Z</time></trkpt><trkpt lat="43.26645331620525" lon="12.923730795587161"><ele>511.0</ele><time>2026-04-26T12:05:41.999Z</time></trkpt><trkpt lat="43.26646474268483" lon="12.92388260128063"><ele>510.5</ele><time>2026-04-26T12:05:42.999Z</time></trkpt><trkpt lat="43.266477386984846" lon="12.924037664145226"><ele>510.0</ele><time>2026-04-26T12:05:43.999Z</time></trkpt><trkpt lat="43.26648384875766" lon="12.924189616338607"><ele>509.0</ele><time>2026-04-26T12:05:44.999Z</time></trkpt><trkpt lat="43.26648824593502" lon="12.924331337028894"><ele>508.0</ele><time>2026-04-26T12:05:45.999Z</time></trkpt><trkpt lat="43.266493705633906" lon="12.9244591834008"><ele>507.0</ele><time>2026-04-26T12:05:46.999Z</time></trkpt><trkpt lat="43.26649248995155" lon="12.924563666235338"><ele>506.0</ele><time>2026-04-26T12:05:47.999Z</time></trkpt><trkpt lat="43.26649102504887" lon="12.924667663291222"><ele>505.0</ele><time>2026-04-26T12:05:48.999Z</time></trkpt><trkpt lat="43.26651936648569" lon="12.924778693421104"><ele>504.0</ele><time>2026-04-26T12:05:49.999Z</time></trkpt><trkpt lat="43.266566832383724" lon="12.92490463032602"><ele>504.0</ele><time>2026-04-26T12:05:50.999Z</time></trkpt><trkpt lat="43.26660384189137" lon="12.925041843035967"><ele>504.0</ele><time>2026-04-26T12:05:51.999Z</time></trkpt><trkpt lat="43.266647647253656" lon="12.925180818006805"><ele>504.0</ele><time>2026-04-26T12:05:52.999Z</time></trkpt><trkpt lat="43.26670620247633" lon="12.925318582883087"><ele>504.0</ele><time>2026-04-26T12:05:53.999Z</time></trkpt><trkpt lat="43.26675276898785" lon="12.925450338853553"><ele>504.0</ele><time>2026-04-26T12:05:54.999Z</time></trkpt><trkpt lat="43.26681476309877" lon="12.925580224441855"><ele>502.4</ele><time>2026-04-26T12:05:55.999Z</time></trkpt><trkpt lat="43.266856412363055" lon="12.925710684890852"><ele>500.79999999999995</ele><time>2026-04-26T12:05:56.999Z</time></trkpt><trkpt lat="43.26688324150449" lon="12.925843952845588"><ele>499.20000000000005</ele><time>2026-04-26T12:05:57.999Z</time></trkpt><trkpt lat="43.26688824458337" lon="12.925959001290831"><ele>497.6</ele><time>2026-04-26T12:05:58.999Z</time></trkpt><trkpt lat="43.266904962916406" lon="12.926091902571446"><ele>496.0</ele><time>2026-04-26T12:05:59.999Z</time></trkpt><trkpt lat="43.26692605631733" lon="12.926236701162548"><ele>495.6</ele><time>2026-04-26T12:06:00.999Z</time></trkpt><trkpt lat="43.26695967210654" lon="12.926379645397878"><ele>495.20000000000005</ele><time>2026-04-26T12:06:01.999Z</time></trkpt><trkpt lat="43.26699641065089" lon="12.926519669907252"><ele>494.79999999999995</ele><time>2026-04-26T12:06:02.999Z</time></trkpt><trkpt lat="43.26702702477405" lon="12.926659628384211"><ele>494.4</ele><time>2026-04-26T12:06:03.999Z</time></trkpt><trkpt lat="43.26705444705919" lon="12.926793192284581"><ele>494.0</ele><time>2026-04-26T12:06:04.999Z</time></trkpt><trkpt lat="43.26707757686104" lon="12.92692399240866"><ele>493.6</ele><time>2026-04-26T12:06:05.999Z</time></trkpt><trkpt lat="43.267101721500204" lon="12.927045015440237"><ele>493.2</ele><time>2026-04-26T12:06:06.999Z</time></trkpt><trkpt lat="43.26712685461435" lon="12.927156042450363"><ele>492.80000000000007</ele><time>2026-04-26T12:06:07.999Z</time></trkpt><trkpt lat="43.267165773796535" lon="12.927269106630705"><ele>492.40000000000003</ele><time>2026-04-26T12:06:08.999Z</time></trkpt><trkpt lat="43.267188724774954" lon="12.927399920542952"><ele>492.0</ele><time>2026-04-26T12:06:09.999Z</time></trkpt><trkpt lat="43.26721546757968" lon="12.927531092020748"><ele>491.40000000000003</ele><time>2026-04-26T12:06:10.999Z</time></trkpt><trkpt lat="43.26724022192596" lon="12.92768072479953"><ele>490.80000000000007</ele><time>2026-04-26T12:06:11.999Z</time></trkpt><trkpt lat="43.26724288596115" lon="12.927839405097833"><ele>490.2</ele><time>2026-04-26T12:06:12.999Z</time></trkpt><trkpt lat="43.26722246574028" lon="12.927986572979139"><ele>489.6</ele><time>2026-04-26T12:06:13.999Z</time></trkpt><trkpt lat="43.26718996250033" lon="12.928118647671228"><ele>489.0</ele><time>2026-04-26T12:06:14.999Z</time></trkpt><trkpt lat="43.267162230093575" lon="12.92822847599803"><ele>489.0</ele><time>2026-04-26T12:06:15.999Z</time></trkpt><trkpt lat="43.267127565825426" lon="12.928335248135486"><ele>489.0</ele><time>2026-04-26T12:06:16.999Z</time></trkpt><trkpt lat="43.2671056762556" lon="12.928463305606266"><ele>489.0</ele><time>2026-04-26T12:06:17.999Z</time></trkpt><trkpt lat="43.26713202293992" lon="12.928584459941757"><ele>489.0</ele><time>2026-04-26T12:06:18.999Z</time></trkpt><trkpt lat="43.26715629008274" lon="12.928703982708546"><ele>489.0</ele><time>2026-04-26T12:06:19.999Z</time></trkpt><trkpt lat="43.26716239132646" lon="12.928862700948631"><ele>489.2</ele><time>2026-04-26T12:06:20.999Z</time></trkpt><trkpt lat="43.267142639899824" lon="12.92901921734197"><ele>489.4</ele><time>2026-04-26T12:06:21.999Z</time></trkpt><trkpt lat="43.26711989184234" lon="12.92915462447337"><ele>489.6</ele><time>2026-04-26T12:06:22.999Z</time></trkpt><trkpt lat="43.267093385448575" lon="12.92926286034065"><ele>489.8</ele><time>2026-04-26T12:06:23.999Z</time></trkpt><trkpt lat="43.26706776048562" lon="12.929370619684427"><ele>490.0</ele><time>2026-04-26T12:06:24.999Z</time></trkpt><trkpt lat="43.267038240262124" lon="12.92947251146234"><ele>489.6666666666667</ele><time>2026-04-26T12:06:25.999Z</time></trkpt><trkpt lat="43.26702005003745" lon="12.929578345786183"><ele>489.33333333333337</ele><time>2026-04-26T12:06:26.999Z</time></trkpt><trkpt lat="43.26702254765728" lon="12.929687457889527"><ele>489.0</ele><time>2026-04-26T12:06:27.999Z</time></trkpt><trkpt lat="43.26704247761943" lon="12.929779110796904"><ele>488.66666666666663</ele><time>2026-04-26T12:06:28.999Z</time></trkpt><trkpt lat="43.26709375862912" lon="12.929858680013766"><ele>488.3333333333333</ele><time>2026-04-26T12:06:29.999Z</time></trkpt><trkpt lat="43.26709908985473" lon="12.929982794971332"><ele>488.0</ele><time>2026-04-26T12:06:30.999Z</time></trkpt><trkpt lat="43.267132192093264" lon="12.9301263468613"><ele>486.79999999999995</ele><time>2026-04-26T12:06:31.999Z</time></trkpt><trkpt lat="43.26714245091745" lon="12.930264118075485"><ele>485.59999999999997</ele><time>2026-04-26T12:06:32.999Z</time></trkpt><trkpt lat="43.26715560653245" lon="12.930394528122044"><ele>484.40000000000003</ele><time>2026-04-26T12:06:33.999Z</time></trkpt><trkpt lat="43.26716522375446" lon="12.93052901129608"><ele>483.20000000000005</ele><time>2026-04-26T12:06:34.999Z</time></trkpt><trkpt lat="43.267189824076404" lon="12.930687263612803"><ele>482.0</ele><time>2026-04-26T12:06:35.999Z</time></trkpt><trkpt lat="43.26721089138042" lon="12.930846309721943"><ele>481.40000000000003</ele><time>2026-04-26T12:06:36.999Z</time></trkpt><trkpt lat="43.26723225405546" lon="12.930991607214478"><ele>480.80000000000007</ele><time>2026-04-26T12:06:37.999Z</time></trkpt><trkpt lat="43.2672206084807" lon="12.931139323420558"><ele>480.2</ele><time>2026-04-26T12:06:38.999Z</time></trkpt><trkpt lat="43.26722613795278" lon="12.931281341295026"><ele>479.6</ele><time>2026-04-26T12:06:39.999Z</time></trkpt><trkpt lat="43.26723044146957" lon="12.931435149818382"><ele>479.0</ele><time>2026-04-26T12:06:40.999Z</time></trkpt><trkpt lat="43.26722938596738" lon="12.931571357940305"><ele>479.0</ele><time>2026-04-26T12:06:41.999Z</time></trkpt><trkpt lat="43.267217067704046" lon="12.931697671995527"><ele>479.0</ele><time>2026-04-26T12:06:42.999Z</time></trkpt><trkpt lat="43.267176046929" lon="12.931799990022188"><ele>479.0</ele><time>2026-04-26T12:06:43.999Z</time></trkpt><trkpt lat="43.2671343832566" lon="12.931910159755061"><ele>479.0</ele><time>2026-04-26T12:06:44.999Z</time></trkpt><trkpt lat="43.26707472584601" lon="12.932015492618616"><ele>479.0</ele><time>2026-04-26T12:06:45.999Z</time></trkpt><trkpt lat="43.267006006317686" lon="12.932122465097443"><ele>479.6</ele><time>2026-04-26T12:06:46.999Z</time></trkpt><trkpt lat="43.26695793209032" lon="12.932242942050939"><ele>480.2</ele><time>2026-04-26T12:06:47.999Z</time></trkpt><trkpt lat="43.26691339619716" lon="12.932348241102819"><ele>480.80000000000007</ele><time>2026-04-26T12:06:48.999Z</time></trkpt><trkpt lat="43.26684371205993" lon="12.93245385035777"><ele>481.40000000000003</ele><time>2026-04-26T12:06:49.999Z</time></trkpt><trkpt lat="43.26678130534735" lon="12.932585003823933"><ele>482.0</ele><time>2026-04-26T12:06:50.999Z</time></trkpt><trkpt lat="43.2667144583398" lon="12.932732157205688"><ele>483.5</ele><time>2026-04-26T12:06:51.999Z</time></trkpt><trkpt lat="43.26665918739954" lon="12.932894634383146"><ele>485.0</ele><time>2026-04-26T12:06:52.999Z</time></trkpt><trkpt lat="43.266595267313576" lon="12.933043100835446"><ele>486.5</ele><time>2026-04-26T12:06:53.999Z</time></trkpt><trkpt lat="43.266528997204155" lon="12.933180959642584"><ele>488.0</ele><time>2026-04-26T12:06:54.999Z</time></trkpt><trkpt lat="43.26648152459098" lon="12.933316989948503"><ele>485.5</ele><time>2026-04-26T12:06:55.999Z</time></trkpt><trkpt lat="43.26643392356815" lon="12.933454912153902"><ele>483.0</ele><time>2026-04-26T12:06:56.999Z</time></trkpt><trkpt lat="43.266376718674756" lon="12.933603001083965"><ele>480.5</ele><time>2026-04-26T12:06:57.999Z</time></trkpt><trkpt lat="43.26631860954729" lon="12.93375529232321"><ele>478.0</ele><time>2026-04-26T12:06:58.999Z</time></trkpt><trkpt lat="43.266273782532096" lon="12.933889465450804"><ele>478.0</ele><time>2026-04-26T12:06:59.999Z</time></trkpt><trkpt lat="43.26624495147926" lon="12.934018206550514"><ele>478.0</ele><time>2026-04-26T12:07:00.999Z</time></trkpt><trkpt lat="43.2661871994153" lon="12.934147954774907"><ele>478.0</ele><time>2026-04-26T12:07:01.999Z</time></trkpt><trkpt lat="43.26611344918529" lon="12.934287282719273"><ele>478.0</ele><time>2026-04-26T12:07:02.999Z</time></trkpt><trkpt lat="43.26602461387005" lon="12.934419356258099"><ele>479.2</ele><time>2026-04-26T12:07:03.999Z</time></trkpt><trkpt lat="43.26595417357805" lon="12.934552925040558"><ele>480.4</ele><time>2026-04-26T12:07:04.999Z</time></trkpt><trkpt lat="43.265888970049446" lon="12.934672227806201"><ele>481.59999999999997</ele><time>2026-04-26T12:07:05.999Z</time></trkpt><trkpt lat="43.265829537198904" lon="12.93479080503032"><ele>482.79999999999995</ele><time>2026-04-26T12:07:06.999Z</time></trkpt><trkpt lat="43.26577786359096" lon="12.934919937630108"><ele>484.0</ele><time>2026-04-26T12:07:07.999Z</time></trkpt><trkpt lat="43.26573081277718" lon="12.935036227004106"><ele>485.6</ele><time>2026-04-26T12:07:08.999Z</time></trkpt><trkpt lat="43.26567774090124" lon="12.93515287952836"><ele>487.2</ele><time>2026-04-26T12:07:09.999Z</time></trkpt><trkpt lat="43.265623611826655" lon="12.935260138705061"><ele>488.80000000000007</ele><time>2026-04-26T12:07:10.999Z</time></trkpt><trkpt lat="43.26556092222738" lon="12.93535900475968"><ele>490.40000000000003</ele><time>2026-04-26T12:07:11.999Z</time></trkpt><trkpt lat="43.26549423185226" lon="12.935451949864714"><ele>492.0</ele><time>2026-04-26T12:07:12.999Z</time></trkpt><trkpt lat="43.26542044298422" lon="12.935546137599927"><ele>489.20000000000005</ele><time>2026-04-26T12:07:13.999Z</time></trkpt><trkpt lat="43.26534795316922" lon="12.935642459748966"><ele>486.40000000000003</ele><time>2026-04-26T12:07:14.999Z</time></trkpt><trkpt lat="43.265280447365306" lon="12.935741776229303"><ele>483.59999999999997</ele><time>2026-04-26T12:07:15.999Z</time></trkpt><trkpt lat="43.2652207129079" lon="12.935840567059493"><ele>480.79999999999995</ele><time>2026-04-26T12:07:16.999Z</time></trkpt><trkpt lat="43.26516193917876" lon="12.93592973836947"><ele>478.0</ele><time>2026-04-26T12:07:17.999Z</time></trkpt><trkpt lat="43.26509947430258" lon="12.936014458535684"><ele>478.00000000000006</ele><time>2026-04-26T12:07:18.999Z</time></trkpt><trkpt lat="43.26503850544923" lon="12.936092749588418"><ele>478.0</ele><time>2026-04-26T12:07:19.999Z</time></trkpt><trkpt lat="43.2649837924277" lon="12.936159536608374"><ele>478.0</ele><time>2026-04-26T12:07:20.999Z</time></trkpt><trkpt lat="43.264894359053024" lon="12.936263626998091"><ele>478.0</ele><time>2026-04-26T12:07:22.999Z</time></trkpt><trkpt lat="43.26482322304528" lon="12.936337132440421"><ele>478.00000000000006</ele><time>2026-04-26T12:07:24.999Z</time></trkpt><trkpt lat="43.26479262683847" lon="12.93642204676364"><ele>478.0</ele><time>2026-04-26T12:07:30.999Z</time></trkpt><trkpt lat="43.264719848460025" lon="12.936556090421124"><ele>477.0</ele><time>2026-04-26T12:07:36.999Z</time></trkpt><trkpt lat="43.26465718954867" lon="12.936623036037584"><ele>475.99999999999994</ele><time>2026-04-26T12:07:37.999Z</time></trkpt><trkpt lat="43.26458393467003" lon="12.936698363185073"><ele>474.99999999999994</ele><time>2026-04-26T12:07:38.999Z</time></trkpt><trkpt lat="43.26449359950159" lon="12.936801184253351"><ele>474.0</ele><time>2026-04-26T12:07:39.999Z</time></trkpt><trkpt lat="43.264384738538055" lon="12.936947559085555"><ele>473.0</ele><time>2026-04-26T12:07:40.999Z</time></trkpt><trkpt lat="43.264274090143275" lon="12.93713855405569"><ele>473.0</ele><time>2026-04-26T12:07:41.999Z</time></trkpt><trkpt lat="43.264144724403025" lon="12.937335786139188"><ele>473.0</ele><time>2026-04-26T12:07:42.999Z</time></trkpt><trkpt lat="43.263998126198956" lon="12.937538317747668"><ele>473.0</ele><time>2026-04-26T12:07:43.999Z</time></trkpt><trkpt lat="43.263840273628304" lon="12.937738303480339"><ele>470.0</ele><time>2026-04-26T12:07:44.999Z</time></trkpt><trkpt lat="43.26368495475282" lon="12.937953109403576"><ele>467.0</ele><time>2026-04-26T12:07:45.999Z</time></trkpt><trkpt lat="43.26354023403521" lon="12.9381542110563"><ele>464.0</ele><time>2026-04-26T12:07:46.999Z</time></trkpt><trkpt lat="43.263408327231815" lon="12.938338930011007"><ele>464.66666666666663</ele><time>2026-04-26T12:07:47.999Z</time></trkpt><trkpt lat="43.263286557634835" lon="12.938509492750692"><ele>465.33333333333337</ele><time>2026-04-26T12:07:48.999Z</time></trkpt><trkpt lat="43.26316795953139" lon="12.93867565145467"><ele>466.0</ele><time>2026-04-26T12:07:49.999Z</time></trkpt><trkpt lat="43.26304493524467" lon="12.938846292691387"><ele>466.33333333333337</ele><time>2026-04-26T12:07:50.999Z</time></trkpt><trkpt lat="43.26294956702506" lon="12.939009195855865"><ele>466.66666666666663</ele><time>2026-04-26T12:07:51.999Z</time></trkpt><trkpt lat="43.26280741447494" lon="12.939178449958677"><ele>467.0</ele><time>2026-04-26T12:07:52.999Z</time></trkpt><trkpt lat="43.262684789060835" lon="12.93935341339503"><ele>465.0</ele><time>2026-04-26T12:07:53.999Z</time></trkpt><trkpt lat="43.26257118178462" lon="12.9395247262456"><ele>463.0</ele><time>2026-04-26T12:07:54.999Z</time></trkpt><trkpt lat="43.2624615900984" lon="12.93970637748464"><ele>461.0</ele><time>2026-04-26T12:07:55.999Z</time></trkpt><trkpt lat="43.26236510803885" lon="12.939900778117998"><ele>463.66666666666663</ele><time>2026-04-26T12:07:56.999Z</time></trkpt><trkpt lat="43.262273388565546" lon="12.940107837584966"><ele>466.33333333333337</ele><time>2026-04-26T12:07:57.999Z</time></trkpt><trkpt lat="43.26217298114883" lon="12.940339694965544"><ele>469.0</ele><time>2026-04-26T12:07:58.999Z</time></trkpt><trkpt lat="43.26206314425114" lon="12.940606510983997"><ele>465.5</ele><time>2026-04-26T12:07:59.999Z</time></trkpt><trkpt lat="43.261930898631384" lon="12.940884341746496"><ele>462.0</ele><time>2026-04-26T12:08:00.999Z</time></trkpt><trkpt lat="43.26180574338499" lon="12.94117231300248"><ele>462.0</ele><time>2026-04-26T12:08:01.999Z</time></trkpt><trkpt lat="43.261670315223476" lon="12.94142790630097"><ele>462.0</ele><time>2026-04-26T12:08:02.999Z</time></trkpt><trkpt lat="43.26156302875008" lon="12.941654627189711"><ele>462.0</ele><time>2026-04-26T12:08:03.999Z</time></trkpt><trkpt lat="43.2614551273778" lon="12.941863843593286"><ele>464.33333333333337</ele><time>2026-04-26T12:08:04.999Z</time></trkpt><trkpt lat="43.26134790378921" lon="12.942042233304218"><ele>466.6666666666667</ele><time>2026-04-26T12:08:05.999Z</time></trkpt><trkpt lat="43.2612306618852" lon="12.942217527425802"><ele>469.0</ele><time>2026-04-26T12:08:06.999Z</time></trkpt><trkpt lat="43.261113798572296" lon="12.942402260366501"><ele>465.6666666666667</ele><time>2026-04-26T12:08:07.999Z</time></trkpt><trkpt lat="43.26097658285083" lon="12.94256939803732"><ele>462.33333333333337</ele><time>2026-04-26T12:08:08.999Z</time></trkpt><trkpt lat="43.26087373680159" lon="12.942765218310834"><ele>459.0</ele><time>2026-04-26T12:08:09.999Z</time></trkpt><trkpt lat="43.260771133923676" lon="12.942943985987377"><ele>459.0</ele><time>2026-04-26T12:08:10.999Z</time></trkpt><trkpt lat="43.26066525509539" lon="12.94309719060943"><ele>459.0</ele><time>2026-04-26T12:08:11.999Z</time></trkpt><trkpt lat="43.26057290772622" lon="12.943252479519836"><ele>459.0</ele><time>2026-04-26T12:08:12.999Z</time></trkpt><trkpt lat="43.2604837778186" lon="12.943388314698272"><ele>459.0</ele><time>2026-04-26T12:08:13.999Z</time></trkpt><trkpt lat="43.260393098759245" lon="12.943515486441605"><ele>459.75</ele><time>2026-04-26T12:08:14.999Z</time></trkpt><trkpt lat="43.260306404798584" lon="12.943636578897648"><ele>460.5</ele><time>2026-04-26T12:08:15.999Z</time></trkpt><trkpt lat="43.26021787941642" lon="12.943760229495386"><ele>461.25</ele><time>2026-04-26T12:08:16.999Z</time></trkpt><trkpt lat="43.26012587302095" lon="12.943888742223509"><ele>462.0</ele><time>2026-04-26T12:08:17.999Z</time></trkpt><trkpt lat="43.2600325568383" lon="12.94401908453818"><ele>462.0</ele><time>2026-04-26T12:08:18.999Z</time></trkpt><trkpt lat="43.2599354587933" lon="12.944152984103003"><ele>462.0</ele><time>2026-04-26T12:08:19.999Z</time></trkpt><trkpt lat="43.259838194516135" lon="12.94428273928466"><ele>462.0</ele><time>2026-04-26T12:08:20.999Z</time></trkpt><trkpt lat="43.25973667013371" lon="12.944415030072362"><ele>462.0</ele><time>2026-04-26T12:08:21.999Z</time></trkpt><trkpt lat="43.259635066082076" lon="12.94456700585689"><ele>461.0</ele><time>2026-04-26T12:08:22.999Z</time></trkpt><trkpt lat="43.259511770874596" lon="12.944732280424054"><ele>460.0</ele><time>2026-04-26T12:08:23.999Z</time></trkpt><trkpt lat="43.25938179362637" lon="12.94488426918344"><ele>459.0</ele><time>2026-04-26T12:08:24.999Z</time></trkpt><trkpt lat="43.259250538863945" lon="12.945044845511383"><ele>457.66666666666663</ele><time>2026-04-26T12:08:25.999Z</time></trkpt><trkpt lat="43.25910888881903" lon="12.945204447064325"><ele>456.3333333333333</ele><time>2026-04-26T12:08:26.999Z</time></trkpt><trkpt lat="43.25897145266115" lon="12.945353627612466"><ele>455.0</ele><time>2026-04-26T12:08:27.999Z</time></trkpt><trkpt lat="43.258825425610624" lon="12.945505723866455"><ele>455.0</ele><time>2026-04-26T12:08:28.999Z</time></trkpt><trkpt lat="43.258676209970915" lon="12.945655656467432"><ele>455.0</ele><time>2026-04-26T12:08:29.999Z</time></trkpt><trkpt lat="43.25851136811347" lon="12.945816830210473"><ele>455.0</ele><time>2026-04-26T12:08:30.999Z</time></trkpt><trkpt lat="43.25834759700524" lon="12.945971826002769"><ele>454.66666666666663</ele><time>2026-04-26T12:08:31.999Z</time></trkpt><trkpt lat="43.258208108615705" lon="12.946097133511627"><ele>454.33333333333337</ele><time>2026-04-26T12:08:32.999Z</time></trkpt><trkpt lat="43.258066159371786" lon="12.946218902944608"><ele>454.0</ele><time>2026-04-26T12:08:33.999Z</time></trkpt><trkpt lat="43.2579278761194" lon="12.946331321646078"><ele>454.0</ele><time>2026-04-26T12:08:34.999Z</time></trkpt><trkpt lat="43.257796744543086" lon="12.94643441637719"><ele>454.0</ele><time>2026-04-26T12:08:35.999Z</time></trkpt><trkpt lat="43.25767692791233" lon="12.946527551862106"><ele>454.0</ele><time>2026-04-26T12:08:36.999Z</time></trkpt><trkpt lat="43.25754927486476" lon="12.94662648720124"><ele>454.0</ele><time>2026-04-26T12:08:37.999Z</time></trkpt><trkpt lat="43.25743085260636" lon="12.946717704410585"><ele>452.0</ele><time>2026-04-26T12:08:38.999Z</time></trkpt><trkpt lat="43.2573059190096" lon="12.946817009589477"><ele>450.0</ele><time>2026-04-26T12:08:39.999Z</time></trkpt><trkpt lat="43.25717133946518" lon="12.946926346266297"><ele>448.0</ele><time>2026-04-26T12:08:40.999Z</time></trkpt><trkpt lat="43.25703715489468" lon="12.947036247828317"><ele>448.0</ele><time>2026-04-26T12:08:41.999Z</time></trkpt><trkpt lat="43.25690041787284" lon="12.947148106786159"><ele>448.0</ele><time>2026-04-26T12:08:42.999Z</time></trkpt><trkpt lat="43.256767591352585" lon="12.947256573490582"><ele>448.0</ele><time>2026-04-26T12:08:43.999Z</time></trkpt><trkpt lat="43.25663971219474" lon="12.947361000283172"><ele>448.0</ele><time>2026-04-26T12:08:44.999Z</time></trkpt><trkpt lat="43.256514230730936" lon="12.947462354004722"><ele>448.0</ele><time>2026-04-26T12:08:45.999Z</time></trkpt><trkpt lat="43.256399399013745" lon="12.947552352783651"><ele>448.0</ele><time>2026-04-26T12:08:46.999Z</time></trkpt><trkpt lat="43.256298144691016" lon="12.947630456930826"><ele>448.0</ele><time>2026-04-26T12:08:47.999Z</time></trkpt><trkpt lat="43.25620851139722" lon="12.947696904649867"><ele>448.0</ele><time>2026-04-26T12:08:48.999Z</time></trkpt><trkpt lat="43.256113664574585" lon="12.947766868245049"><ele>447.99999999999994</ele><time>2026-04-26T12:08:49.999Z</time></trkpt><trkpt lat="43.25600960774138" lon="12.947837165035752"><ele>447.99999999999994</ele><time>2026-04-26T12:08:50.999Z</time></trkpt><trkpt lat="43.25591430723933" lon="12.947899899822325"><ele>448.0</ele><time>2026-04-26T12:08:51.999Z</time></trkpt><trkpt lat="43.255829930506515" lon="12.947947941282598"><ele>448.0</ele><time>2026-04-26T12:08:52.999Z</time></trkpt><trkpt lat="43.25575869407227" lon="12.94798760220666"><ele>448.0</ele><time>2026-04-26T12:08:53.999Z</time></trkpt><trkpt lat="43.25569876100633" lon="12.948018305836099"><ele>447.99999999999994</ele><time>2026-04-26T12:08:54.999Z</time></trkpt><trkpt lat="43.25557947988356" lon="12.948082400202335"><ele>447.99999999999994</ele><time>2026-04-26T12:08:56.999Z</time></trkpt><trkpt lat="43.25548549536942" lon="12.94810915061875"><ele>448.0</ele><time>2026-04-26T12:08:57.999Z</time></trkpt><trkpt lat="43.25536576132337" lon="12.94817291819166"><ele>448.0</ele><time>2026-04-26T12:08:58.998Z</time></trkpt><trkpt lat="43.25523256659067" lon="12.948262866958707"><ele>448.0</ele><time>2026-04-26T12:08:59.998Z</time></trkpt><trkpt lat="43.25509671618839" lon="12.948324995587608"><ele>448.0</ele><time>2026-04-26T12:09:00.998Z</time></trkpt><trkpt lat="43.25496394299508" lon="12.948366389712017"><ele>448.0</ele><time>2026-04-26T12:09:01.998Z</time></trkpt><trkpt lat="43.254848128843165" lon="12.948421950645265"><ele>448.0</ele><time>2026-04-26T12:09:02.998Z</time></trkpt><trkpt lat="43.25473185951859" lon="12.948479099493223"><ele>448.0</ele><time>2026-04-26T12:09:03.998Z</time></trkpt><trkpt lat="43.25461786765282" lon="12.948535128973516"><ele>448.0</ele><time>2026-04-26T12:09:04.998Z</time></trkpt><trkpt lat="43.25450602882997" lon="12.948590100123836"><ele>448.0</ele><time>2026-04-26T12:09:05.998Z</time></trkpt><trkpt lat="43.25438634680939" lon="12.948652526817812"><ele>448.0</ele><time>2026-04-26T12:09:06.998Z</time></trkpt><trkpt lat="43.25428441176229" lon="12.948711014305319"><ele>448.0</ele><time>2026-04-26T12:09:07.998Z</time></trkpt><trkpt lat="43.25417603054899" lon="12.948768797009642"><ele>448.0</ele><time>2026-04-26T12:09:08.998Z</time></trkpt><trkpt lat="43.254057859449944" lon="12.948831426906224"><ele>448.0</ele><time>2026-04-26T12:09:09.998Z</time></trkpt><trkpt lat="43.2539331438694" lon="12.948891611235572"><ele>448.0</ele><time>2026-04-26T12:09:10.998Z</time></trkpt><trkpt lat="43.25381269412802" lon="12.948933250554523"><ele>448.0</ele><time>2026-04-26T12:09:11.998Z</time></trkpt><trkpt lat="43.253706865424554" lon="12.948993815634743"><ele>447.99999999999994</ele><time>2026-04-26T12:09:12.998Z</time></trkpt><trkpt lat="43.253595635683496" lon="12.949059508971224"><ele>447.99999999999994</ele><time>2026-04-26T12:09:13.998Z</time></trkpt><trkpt lat="43.25349054491613" lon="12.94912468602995"><ele>448.0</ele><time>2026-04-26T12:09:14.998Z</time></trkpt><trkpt lat="43.253411920346956" lon="12.949200868031877"><ele>448.0</ele><time>2026-04-26T12:09:15.998Z</time></trkpt><trkpt lat="43.253306220857176" lon="12.949246310931379"><ele>447.0</ele><time>2026-04-26T12:09:16.998Z</time></trkpt><trkpt lat="43.25320668302727" lon="12.949317033110283"><ele>445.99999999999994</ele><time>2026-04-26T12:09:17.998Z</time></trkpt><trkpt lat="43.25310870454214" lon="12.949384518567792"><ele>444.99999999999994</ele><time>2026-04-26T12:09:18.998Z</time></trkpt><trkpt lat="43.25303132247578" lon="12.94947443038543"><ele>444.0</ele><time>2026-04-26T12:09:19.998Z</time></trkpt><trkpt lat="43.2529432682519" lon="12.949533083477927"><ele>443.0</ele><time>2026-04-26T12:09:20.998Z</time></trkpt><trkpt lat="43.25286715602253" lon="12.949555765957355"><ele>442.49999999999994</ele><time>2026-04-26T12:09:21.998Z</time></trkpt><trkpt lat="43.252791946163626" lon="12.949585874072003"><ele>442.0</ele><time>2026-04-26T12:09:22.998Z</time></trkpt><trkpt lat="43.25269357640327" lon="12.949562330447488"><ele>441.5</ele><time>2026-04-26T12:09:23.998Z</time></trkpt><trkpt lat="43.252629420133665" lon="12.94958370035446"><ele>441.0</ele><time>2026-04-26T12:09:24.998Z</time></trkpt><trkpt lat="43.252537586919246" lon="12.949612489065858"><ele>440.49999999999994</ele><time>2026-04-26T12:09:26.998Z</time></trkpt><trkpt lat="43.25242992914932" lon="12.949641829634217"><ele>440.0</ele><time>2026-04-26T12:09:28.998Z</time></trkpt><trkpt lat="43.25235546183172" lon="12.949691821707551"><ele>439.2</ele><time>2026-04-26T12:09:29.998Z</time></trkpt><trkpt lat="43.25226460742568" lon="12.94973197432396"><ele>438.4</ele><time>2026-04-26T12:09:30.998Z</time></trkpt><trkpt lat="43.2521764474236" lon="12.949766276863512"><ele>437.6</ele><time>2026-04-26T12:09:31.998Z</time></trkpt><trkpt lat="43.25209694813346" lon="12.949806931016655"><ele>436.8</ele><time>2026-04-26T12:09:32.998Z</time></trkpt><trkpt lat="43.251993210731676" lon="12.949836278220316"><ele>436.0</ele><time>2026-04-26T12:09:33.998Z</time></trkpt><trkpt lat="43.25189738450625" lon="12.949851107786934"><ele>436.0</ele><time>2026-04-26T12:09:34.998Z</time></trkpt><trkpt lat="43.25182758966627" lon="12.94963494462093"><ele>436.0</ele><time>2026-04-26T12:09:35.998Z</time></trkpt><trkpt lat="43.25171189626018" lon="12.949573587099412"><ele>436.0</ele><time>2026-04-26T12:09:36.998Z</time></trkpt><trkpt lat="43.251621157251414" lon="12.949537490245666"><ele>436.0</ele><time>2026-04-26T12:09:37.998Z</time></trkpt><trkpt lat="43.25148587984505" lon="12.94951331093283"><ele>437.0</ele><time>2026-04-26T12:09:38.998Z</time></trkpt><trkpt lat="43.25139013837568" lon="12.949549324140198"><ele>438.0</ele><time>2026-04-26T12:09:39.998Z</time></trkpt><trkpt lat="43.25130472716041" lon="12.94961203073748"><ele>439.0</ele><time>2026-04-26T12:09:40.998Z</time></trkpt><trkpt lat="43.25122840627072" lon="12.949688684348065"><ele>440.0</ele><time>2026-04-26T12:09:41.998Z</time></trkpt><trkpt lat="43.2511836170037" lon="12.94979763337517"><ele>441.0</ele><time>2026-04-26T12:09:42.998Z</time></trkpt><trkpt lat="43.2511354447434" lon="12.949864445590478"><ele>441.0</ele><time>2026-04-26T12:09:43.998Z</time></trkpt><trkpt lat="43.251140426874336" lon="12.949963476042779"><ele>441.0</ele><time>2026-04-26T12:09:44.998Z</time></trkpt><trkpt lat="43.25117392394561" lon="12.950125803352693"><ele>441.0</ele><time>2026-04-26T12:09:45.998Z</time></trkpt><trkpt lat="43.25117809806266" lon="12.95030336323862"><ele>441.0</ele><time>2026-04-26T12:09:46.998Z</time></trkpt><trkpt lat="43.251182877584135" lon="12.950524024598886"><ele>441.25</ele><time>2026-04-26T12:09:47.998Z</time></trkpt><trkpt lat="43.251147889272275" lon="12.950731519575525"><ele>441.5</ele><time>2026-04-26T12:09:48.998Z</time></trkpt><trkpt lat="43.25112486078306" lon="12.950928178044379"><ele>441.75</ele><time>2026-04-26T12:09:49.998Z</time></trkpt><trkpt lat="43.25109070250298" lon="12.951125338602763"><ele>442.0</ele><time>2026-04-26T12:09:50.998Z</time></trkpt><trkpt lat="43.25104617197888" lon="12.951337550499638"><ele>441.5</ele><time>2026-04-26T12:09:51.998Z</time></trkpt><trkpt lat="43.25101817179265" lon="12.951533806087838"><ele>441.0</ele><time>2026-04-26T12:09:52.998Z</time></trkpt><trkpt lat="43.251013624399675" lon="12.951729690808005"><ele>440.5</ele><time>2026-04-26T12:09:53.998Z</time></trkpt><trkpt lat="43.25098179209696" lon="12.951903157168063"><ele>440.0</ele><time>2026-04-26T12:09:54.998Z</time></trkpt><trkpt lat="43.25097970355023" lon="12.952095473398426"><ele>439.5</ele><time>2026-04-26T12:09:55.998Z</time></trkpt><trkpt lat="43.250958231936934" lon="12.952289412902607"><ele>439.0</ele><time>2026-04-26T12:09:56.998Z</time></trkpt><trkpt lat="43.25090188591689" lon="12.952489089904796"><ele>438.5</ele><time>2026-04-26T12:09:57.998Z</time></trkpt><trkpt lat="43.25089042278793" lon="12.952674656679378"><ele>438.0</ele><time>2026-04-26T12:09:58.998Z</time></trkpt><trkpt lat="43.25087129484765" lon="12.952846246537527"><ele>437.2</ele><time>2026-04-26T12:09:59.998Z</time></trkpt><trkpt lat="43.25083581017626" lon="12.952989977455585"><ele>436.4</ele><time>2026-04-26T12:10:00.998Z</time></trkpt><trkpt lat="43.250831254769516" lon="12.953151664191381"><ele>435.59999999999997</ele><time>2026-04-26T12:10:01.998Z</time></trkpt><trkpt lat="43.25082983763627" lon="12.953291904345622"><ele>434.79999999999995</ele><time>2026-04-26T12:10:02.998Z</time></trkpt><trkpt lat="43.25084223576136" lon="12.95344422221704"><ele>434.0</ele><time>2026-04-26T12:10:03.998Z</time></trkpt><trkpt lat="43.25090918227382" lon="12.953574292322019"><ele>433.3333333333333</ele><time>2026-04-26T12:10:04.998Z</time></trkpt><trkpt lat="43.25095622529013" lon="12.953759100286215"><ele>432.66666666666663</ele><time>2026-04-26T12:10:05.998Z</time></trkpt><trkpt lat="43.25102649538421" lon="12.953969589225292"><ele>432.0</ele><time>2026-04-26T12:10:06.998Z</time></trkpt><trkpt lat="43.25107493937191" lon="12.95419377441205"><ele>431.75</ele><time>2026-04-26T12:10:07.998Z</time></trkpt><trkpt lat="43.25110255361353" lon="12.954385305005864"><ele>431.5</ele><time>2026-04-26T12:10:08.998Z</time></trkpt><trkpt lat="43.25110219724013" lon="12.95455741323351"><ele>431.25</ele><time>2026-04-26T12:10:09.998Z</time></trkpt><trkpt lat="43.251071319007586" lon="12.95473630167524"><ele>431.0</ele><time>2026-04-26T12:10:10.998Z</time></trkpt><trkpt lat="43.25103669812377" lon="12.954900989655117"><ele>430.8</ele><time>2026-04-26T12:10:11.998Z</time></trkpt><trkpt lat="43.25101340738577" lon="12.955053852275165"><ele>430.6</ele><time>2026-04-26T12:10:12.998Z</time></trkpt><trkpt lat="43.25098315048569" lon="12.955182073673894"><ele>430.4</ele><time>2026-04-26T12:10:13.998Z</time></trkpt><trkpt lat="43.25099589747338" lon="12.955306795645685"><ele>430.2</ele><time>2026-04-26T12:10:14.998Z</time></trkpt><trkpt lat="43.251063073726165" lon="12.95543299616022"><ele>430.0</ele><time>2026-04-26T12:10:15.998Z</time></trkpt><trkpt lat="43.25110835415507" lon="12.95555178211476"><ele>430.0</ele><time>2026-04-26T12:10:16.998Z</time></trkpt><trkpt lat="43.251157484622084" lon="12.955697596641043"><ele>430.0</ele><time>2026-04-26T12:10:17.998Z</time></trkpt><trkpt lat="43.25118403340066" lon="12.955836900706347"><ele>430.0</ele><time>2026-04-26T12:10:18.998Z</time></trkpt><trkpt lat="43.251157261734306" lon="12.955940662361145"><ele>430.0</ele><time>2026-04-26T12:10:19.998Z</time></trkpt><trkpt lat="43.251085226194306" lon="12.9560214727536"><ele>430.0</ele><time>2026-04-26T12:10:20.998Z</time></trkpt><trkpt lat="43.25099262426151" lon="12.956106634568323"><ele>429.6666666666667</ele><time>2026-04-26T12:10:21.998Z</time></trkpt><trkpt lat="43.250880077329015" lon="12.956200901993036"><ele>429.33333333333337</ele><time>2026-04-26T12:10:22.998Z</time></trkpt><trkpt lat="43.25074276451856" lon="12.956328811437727"><ele>429.0</ele><time>2026-04-26T12:10:23.998Z</time></trkpt><trkpt lat="43.250623170502" lon="12.956549178920879"><ele>429.0</ele><time>2026-04-26T12:10:24.998Z</time></trkpt><trkpt lat="43.25046540433544" lon="12.956685532941014"><ele>429.0</ele><time>2026-04-26T12:10:25.998Z</time></trkpt><trkpt lat="43.25031817549997" lon="12.95684122132641"><ele>429.0</ele><time>2026-04-26T12:10:26.998Z</time></trkpt><trkpt lat="43.25015449438544" lon="12.957002580261067"><ele>428.5</ele><time>2026-04-26T12:10:27.998Z</time></trkpt><trkpt lat="43.24998320558743" lon="12.957178515981356"><ele>428.0</ele><time>2026-04-26T12:10:28.998Z</time></trkpt><trkpt lat="43.24976057588879" lon="12.9573072300604"><ele>427.3333333333333</ele><time>2026-04-26T12:10:29.998Z</time></trkpt><trkpt lat="43.249567981073085" lon="12.957480713435269"><ele>426.66666666666663</ele><time>2026-04-26T12:10:30.998Z</time></trkpt><trkpt lat="43.24939090676156" lon="12.957644515529879"><ele>426.0</ele><time>2026-04-26T12:10:31.998Z</time></trkpt><trkpt lat="43.24923643624062" lon="12.95780357112237"><ele>426.0</ele><time>2026-04-26T12:10:32.998Z</time></trkpt><trkpt lat="43.24907313136513" lon="12.957948564534203"><ele>426.0</ele><time>2026-04-26T12:10:33.998Z</time></trkpt><trkpt lat="43.24889275403119" lon="12.958065726632137"><ele>426.0</ele><time>2026-04-26T12:10:34.998Z</time></trkpt><trkpt lat="43.24874995299915" lon="12.958191563308723"><ele>426.0</ele><time>2026-04-26T12:10:35.998Z</time></trkpt><trkpt lat="43.248592909303326" lon="12.958319941414162"><ele>426.0</ele><time>2026-04-26T12:10:36.998Z</time></trkpt><trkpt lat="43.24843819270189" lon="12.958448191996544"><ele>426.0</ele><time>2026-04-26T12:10:37.998Z</time></trkpt><trkpt lat="43.24829802250973" lon="12.958593256945887"><ele>426.0</ele><time>2026-04-26T12:10:38.998Z</time></trkpt><trkpt lat="43.248150642471444" lon="12.958703801189838"><ele>426.0</ele><time>2026-04-26T12:10:39.998Z</time></trkpt><trkpt lat="43.24800086081981" lon="12.958786902746674"><ele>426.0</ele><time>2026-04-26T12:10:40.998Z</time></trkpt><trkpt lat="43.2478423169699" lon="12.958863848624755"><ele>427.66666666666663</ele><time>2026-04-26T12:10:41.998Z</time></trkpt><trkpt lat="43.24765688516859" lon="12.958925127863706"><ele>429.3333333333333</ele><time>2026-04-26T12:10:43.001Z</time></trkpt><trkpt lat="43.24749473256179" lon="12.959026135735785"><ele>431.0</ele><time>2026-04-26T12:10:44.001Z</time></trkpt><trkpt lat="43.247344207820625" lon="12.959084166337114"><ele>430.66666666666663</ele><time>2026-04-26T12:10:45.001Z</time></trkpt><trkpt lat="43.24720149969413" lon="12.959143681970401"><ele>430.33333333333337</ele><time>2026-04-26T12:10:46.001Z</time></trkpt><trkpt lat="43.2470577128659" lon="12.959203645950035"><ele>430.0</ele><time>2026-04-26T12:10:47.001Z</time></trkpt><trkpt lat="43.246912683825045" lon="12.95926015700819"><ele>430.0</ele><time>2026-04-26T12:10:48.001Z</time></trkpt><trkpt lat="43.24676450269576" lon="12.95929148511792"><ele>430.0</ele><time>2026-04-26T12:10:49.001Z</time></trkpt><trkpt lat="43.24662257246625" lon="12.959297503069159"><ele>430.0</ele><time>2026-04-26T12:10:50.001Z</time></trkpt><trkpt lat="43.246481247076126" lon="12.959300182783934"><ele>430.0</ele><time>2026-04-26T12:10:51.001Z</time></trkpt><trkpt lat="43.24632475756624" lon="12.959297023434182"><ele>430.2</ele><time>2026-04-26T12:10:52Z</time></trkpt><trkpt lat="43.24620410117695" lon="12.959294827811863"><ele>430.4</ele><time>2026-04-26T12:10:53Z</time></trkpt><trkpt lat="43.246087987722625" lon="12.9593155609581"><ele>430.6</ele><time>2026-04-26T12:10:54Z</time></trkpt><trkpt lat="43.2459763438484" lon="12.959317997194269"><ele>430.8</ele><time>2026-04-26T12:10:55Z</time></trkpt><trkpt lat="43.245885017180136" lon="12.959324419028755"><ele>431.0</ele><time>2026-04-26T12:10:56Z</time></trkpt><trkpt lat="43.24579579290963" lon="12.959333703150163"><ele>430.99999999999994</ele><time>2026-04-26T12:10:57Z</time></trkpt><trkpt lat="43.24571935985068" lon="12.95933741166693"><ele>431.0</ele><time>2026-04-26T12:10:58Z</time></trkpt><trkpt lat="43.24565395324409" lon="12.959320534986043"><ele>431.0</ele><time>2026-04-26T12:10:59Z</time></trkpt><trkpt lat="43.245615134472196" lon="12.959399026737136"><ele>431.0</ele><time>2026-04-26T12:11:00Z</time></trkpt><trkpt lat="43.245563329537184" lon="12.959493827064966"><ele>430.99999999999994</ele><time>2026-04-26T12:11:02Z</time></trkpt><trkpt lat="43.24565251892099" lon="12.959643781568703"><ele>431.0</ele><time>2026-04-26T12:11:04Z</time></trkpt><trkpt lat="43.245732346592874" lon="12.959733645708496"><ele>431.0</ele><time>2026-04-26T12:11:05Z</time></trkpt><trkpt lat="43.24584622921514" lon="12.95982504129809"><ele>431.0</ele><time>2026-04-26T12:11:06Z</time></trkpt><trkpt lat="43.24597139120838" lon="12.959909877716113"><ele>431.0</ele><time>2026-04-26T12:11:07Z</time></trkpt><trkpt lat="43.24608355490693" lon="12.960025425582801"><ele>431.0</ele><time>2026-04-26T12:11:08Z</time></trkpt><trkpt lat="43.246220280897965" lon="12.960083942665479"><ele>431.0</ele><time>2026-04-26T12:11:09Z</time></trkpt><trkpt lat="43.24632634344674" lon="12.960201754648708"><ele>431.0</ele><time>2026-04-26T12:11:10Z</time></trkpt><trkpt lat="43.24644614285258" lon="12.960312167212662"><ele>431.0</ele><time>2026-04-26T12:11:11Z</time></trkpt><trkpt lat="43.246564103997535" lon="12.960423004400319"><ele>431.0</ele><time>2026-04-26T12:11:12Z</time></trkpt><trkpt lat="43.24670700730487" lon="12.960540437203054"><ele>429.3333333333333</ele><time>2026-04-26T12:11:13Z</time></trkpt><trkpt lat="43.24684066304968" lon="12.96067146442097"><ele>427.66666666666663</ele><time>2026-04-26T12:11:14Z</time></trkpt><trkpt lat="43.24697026369489" lon="12.960807558649584"><ele>426.0</ele><time>2026-04-26T12:11:15Z</time></trkpt><trkpt lat="43.2471081256807" lon="12.960938334667432"><ele>425.33333333333337</ele><time>2026-04-26T12:11:16Z</time></trkpt><trkpt lat="43.24722723567355" lon="12.961061674451946"><ele>424.6666666666667</ele><time>2026-04-26T12:11:17Z</time></trkpt><trkpt lat="43.24735218281468" lon="12.961209857133088"><ele>424.0</ele><time>2026-04-26T12:11:18Z</time></trkpt><trkpt lat="43.24748776053208" lon="12.961353580192572"><ele>423.6666666666667</ele><time>2026-04-26T12:11:19Z</time></trkpt><trkpt lat="43.24762071445568" lon="12.961475302804633"><ele>423.33333333333337</ele><time>2026-04-26T12:11:20Z</time></trkpt><trkpt lat="43.24776473136423" lon="12.96159838522024"><ele>423.0</ele><time>2026-04-26T12:11:21Z</time></trkpt><trkpt lat="43.2478953682126" lon="12.961723372354777"><ele>421.33333333333337</ele><time>2026-04-26T12:11:22Z</time></trkpt><trkpt lat="43.24803342081159" lon="12.96185700250053"><ele>419.6666666666667</ele><time>2026-04-26T12:11:23Z</time></trkpt><trkpt lat="43.248173407214324" lon="12.96202206294201"><ele>418.0</ele><time>2026-04-26T12:11:24Z</time></trkpt><trkpt lat="43.2483175053493" lon="12.962152789943257"><ele>418.0</ele><time>2026-04-26T12:11:25Z</time></trkpt><trkpt lat="43.248452168322146" lon="12.962277669075464"><ele>418.0</ele><time>2026-04-26T12:11:26Z</time></trkpt><trkpt lat="43.24857199963341" lon="12.96239946492864"><ele>418.0</ele><time>2026-04-26T12:11:27Z</time></trkpt><trkpt lat="43.248679663855135" lon="12.962532308941304"><ele>418.0</ele><time>2026-04-26T12:11:28Z</time></trkpt><trkpt lat="43.24880008250862" lon="12.9626711471554"><ele>418.0</ele><time>2026-04-26T12:11:29Z</time></trkpt><trkpt lat="43.248896609695684" lon="12.96279970553859"><ele>418.0</ele><time>2026-04-26T12:11:30Z</time></trkpt><trkpt lat="43.24897681418506" lon="12.96292069881527"><ele>418.0</ele><time>2026-04-26T12:11:31Z</time></trkpt><trkpt lat="43.249072597209526" lon="12.963051426111127"><ele>417.6666666666667</ele><time>2026-04-26T12:11:32Z</time></trkpt><trkpt lat="43.249174232460554" lon="12.96319890046892"><ele>417.33333333333337</ele><time>2026-04-26T12:11:33Z</time></trkpt><trkpt lat="43.24928438963903" lon="12.963347218895244"><ele>417.0</ele><time>2026-04-26T12:11:34Z</time></trkpt><trkpt lat="43.249388938428126" lon="12.963541018441093"><ele>416.5</ele><time>2026-04-26T12:11:35Z</time></trkpt><trkpt lat="43.24947785255346" lon="12.9636953706117"><ele>416.0</ele><time>2026-04-26T12:11:36Z</time></trkpt><trkpt lat="43.24955497975655" lon="12.963834824206113"><ele>415.5</ele><time>2026-04-26T12:11:37Z</time></trkpt><trkpt lat="43.24964423852764" lon="12.964008477952653"><ele>415.0</ele><time>2026-04-26T12:11:38Z</time></trkpt><trkpt lat="43.249728184509" lon="12.964192732931997"><ele>414.33333333333337</ele><time>2026-04-26T12:11:39Z</time></trkpt><trkpt lat="43.249811722026095" lon="12.964393990411631"><ele>413.66666666666663</ele><time>2026-04-26T12:11:40Z</time></trkpt><trkpt lat="43.2498894651697" lon="12.964581958500654"><ele>413.0</ele><time>2026-04-26T12:11:41Z</time></trkpt><trkpt lat="43.249970444403054" lon="12.964779317229342"><ele>413.0</ele><time>2026-04-26T12:11:42Z</time></trkpt><trkpt lat="43.25004947973189" lon="12.964977464626521"><ele>413.0</ele><time>2026-04-26T12:11:43Z</time></trkpt><trkpt lat="43.2501334131789" lon="12.965201254471326"><ele>413.0</ele><time>2026-04-26T12:11:44Z</time></trkpt><trkpt lat="43.25020331515365" lon="12.965423659728934"><ele>413.3333333333333</ele><time>2026-04-26T12:11:45Z</time></trkpt><trkpt lat="43.25027026094693" lon="12.965654010831003"><ele>413.66666666666663</ele><time>2026-04-26T12:11:46Z</time></trkpt><trkpt lat="43.2503315057251" lon="12.965873567058596"><ele>414.0</ele><time>2026-04-26T12:11:47Z</time></trkpt><trkpt lat="43.25039495647693" lon="12.966105985147198"><ele>412.33333333333337</ele><time>2026-04-26T12:11:48Z</time></trkpt><trkpt lat="43.25045260921158" lon="12.966319699148837"><ele>410.6666666666667</ele><time>2026-04-26T12:11:49Z</time></trkpt><trkpt lat="43.25050214546567" lon="12.966520439126151"><ele>409.0</ele><time>2026-04-26T12:11:50Z</time></trkpt><trkpt lat="43.25055272800253" lon="12.966727587450778"><ele>409.25</ele><time>2026-04-26T12:11:51Z</time></trkpt><trkpt lat="43.25060582369666" lon="12.966940319391776"><ele>409.5</ele><time>2026-04-26T12:11:52Z</time></trkpt><trkpt lat="43.25065288186111" lon="12.967120747938147"><ele>409.75</ele><time>2026-04-26T12:11:53Z</time></trkpt><trkpt lat="43.25069415643379" lon="12.967282678444349"><ele>410.0</ele><time>2026-04-26T12:11:54Z</time></trkpt><trkpt lat="43.250733611356836" lon="12.967451484476575"><ele>410.5</ele><time>2026-04-26T12:11:55Z</time></trkpt><trkpt lat="43.250766494903175" lon="12.967641518779713"><ele>411.0</ele><time>2026-04-26T12:11:56Z</time></trkpt><trkpt lat="43.25078989684114" lon="12.967830815272212"><ele>411.5</ele><time>2026-04-26T12:11:57Z</time></trkpt><trkpt lat="43.25080336014719" lon="12.968010003004274"><ele>412.0</ele><time>2026-04-26T12:11:58Z</time></trkpt><trkpt lat="43.25080012396749" lon="12.96821738424947"><ele>412.5</ele><time>2026-04-26T12:11:59Z</time></trkpt><trkpt lat="43.25078145575002" lon="12.968414083413363"><ele>413.0</ele><time>2026-04-26T12:12:00Z</time></trkpt><trkpt lat="43.25075104741104" lon="12.968583673259078"><ele>413.5</ele><time>2026-04-26T12:12:01Z</time></trkpt><trkpt lat="43.250703551457185" lon="12.96876024867393"><ele>414.0</ele><time>2026-04-26T12:12:02Z</time></trkpt><trkpt lat="43.25065712382791" lon="12.968900916218223"><ele>412.75</ele><time>2026-04-26T12:12:03Z</time></trkpt><trkpt lat="43.25060104795787" lon="12.969049503263507"><ele>411.5</ele><time>2026-04-26T12:12:04Z</time></trkpt><trkpt lat="43.25053477294485" lon="12.969222064239995"><ele>410.25</ele><time>2026-04-26T12:12:05Z</time></trkpt><trkpt lat="43.250479714831755" lon="12.969365420235473"><ele>409.0</ele><time>2026-04-26T12:12:06Z</time></trkpt><trkpt lat="43.25043316130069" lon="12.969486632278526"><ele>408.79999999999995</ele><time>2026-04-26T12:12:07Z</time></trkpt><trkpt lat="43.25038486278577" lon="12.969612387835072"><ele>408.59999999999997</ele><time>2026-04-26T12:12:08Z</time></trkpt><trkpt lat="43.25034010439144" lon="12.969728926062476"><ele>408.4</ele><time>2026-04-26T12:12:09Z</time></trkpt><trkpt lat="43.25037882202591" lon="12.969913082189672"><ele>408.2</ele><time>2026-04-26T12:12:10Z</time></trkpt><trkpt lat="43.25034100665262" lon="12.970011729745659"><ele>408.0</ele><time>2026-04-26T12:12:11Z</time></trkpt><trkpt lat="43.250353053259005" lon="12.970165454624295"><ele>408.0</ele><time>2026-04-26T12:12:13Z</time></trkpt><trkpt lat="43.25044793949895" lon="12.970059108188183"><ele>408.0</ele><time>2026-04-26T12:12:14Z</time></trkpt><trkpt lat="43.25051523250607" lon="12.970080845851532"><ele>408.0</ele><time>2026-04-26T12:12:15Z</time></trkpt><trkpt lat="43.250585636738" lon="12.970003974128193"><ele>408.0</ele><time>2026-04-26T12:12:17Z</time></trkpt><trkpt lat="43.25059851419879" lon="12.970332240341612"><ele>408.0</ele><time>2026-04-26T12:12:38Z</time></trkpt><trkpt lat="43.25054876566495" lon="12.970417835613327"><ele>408.0</ele><time>2026-04-26T12:13:05Z</time></trkpt><trkpt lat="43.25064877732934" lon="12.970351850324182"><ele>408.0</ele><time>2026-04-26T12:13:46.999Z</time></trkpt><trkpt lat="43.25063052021998" lon="12.970264538155932"><ele>408.0</ele><time>2026-04-26T12:14:59.998Z</time></trkpt><trkpt lat="43.25067726268198" lon="12.970348342098761"><ele>408.0</ele><time>2026-04-26T12:15:24.998Z</time></trkpt><trkpt lat="43.2505988781787" lon="12.970334172042895"><ele>408.0</ele><time>2026-04-26T12:15:43.998Z</time></trkpt><trkpt lat="43.2506578818303" lon="12.970378791197373"><ele>421.0</ele><time>2026-04-26T12:17:06.998Z</time></trkpt><trkpt lat="43.25062277390572" lon="12.970305679599967"><ele>408.0</ele><time>2026-04-26T12:19:26.999Z</time></trkpt></trkseg></trk></gpx>